<?xml version="1.0" encoding="UTF-8" standalone="no" ?>
<gpx xmlns="http://www.topografix.com/GPX/1/1" xmlns:xsi="http://www.w3.org/2001/XMLSchema-instance" xsi:schemaLocation="http://www.topografix.com/GPX/1/1 http://www.topografix.com/GPX/1/1/gpx.xsd" version="1.1" creator="VisuGPX - https://www.visugpx.com">
  <metadata>
    <name>VTT autour de Clisson</name>
    <desc><![CDATA[Attention, cette trace passe par des chemins privés.]]></desc>
  </metadata>
  <wpt lat="47.03609" lon="-1.30486">
    <ele>44</ele>
    <name><![CDATA[Vtt (départ)]]></name>
  </wpt>
  <wpt lat="47.03604" lon="-1.30489">
    <ele>43.8</ele>
    <name><![CDATA[Vtt (fin)]]></name>
    <desc><![CDATA[Créé par Mes parcours sur Android  Nom : Vtt Type d'activité : cyclisme Description : - Distance totale : 46,09 km (28,6 mi) Durée totale : 2:41:12 Durée du déplacement : 2:40:39 Vitesse moyenne : 17,15 km/h (10,7 mi/h) Vitesse moyenne de déplacement : 17,21 km/h (10,7 mi/h) Vitesse max. : 49,53 km/h (30,8 mi/h) Vitesse moyenne : 3:30 min/km (5:38 min/mi) Allure moyenne : 3:29 min/km (5:37 min/mi) Vitesse maximale : 1:13 min/km (1:57 min/mi) Élévation max. : 124 m (408 pi) Élévation min. : 62 m (203 pi) Dénivelé : 542 m (1779 pi) Inclinaison max. : 23 % Inclinaison min. : -27 % Date d'enregistrement : 11/9/2015 14:37]]></desc>
  </wpt>
  <trk>
    <name><![CDATA[Vtt]]></name>
    <trkseg>
      <trkpt lat="47.03609" lon="-1.30486">
        <ele>43.957</ele>
        <time>2015-09-11T12:41:07.351Z</time>
      </trkpt>
      <trkpt lat="47.03607" lon="-1.30492">
        <ele>43.882</ele>
        <time>2015-09-11T12:41:13.34Z</time>
      </trkpt>
      <trkpt lat="47.03603" lon="-1.30468">
        <ele>44.152</ele>
        <time>2015-09-11T12:42:34.093Z</time>
      </trkpt>
      <trkpt lat="47.03603" lon="-1.3048">
        <ele>43.914</ele>
        <time>2015-09-11T12:42:40.474Z</time>
      </trkpt>
      <trkpt lat="47.03599" lon="-1.30488">
        <ele>43.746</ele>
        <time>2015-09-11T12:42:41.438Z</time>
      </trkpt>
      <trkpt lat="47.03598" lon="-1.30476">
        <ele>43.936</ele>
        <time>2015-09-11T12:43:12.15Z</time>
      </trkpt>
      <trkpt lat="47.036" lon="-1.30473">
        <ele>43.996</ele>
        <time>2015-09-11T12:43:13.104Z</time>
      </trkpt>
      <trkpt lat="47.03604" lon="-1.30466">
        <ele>44.224</ele>
        <time>2015-09-11T12:43:15.175Z</time>
      </trkpt>
      <trkpt lat="47.03607" lon="-1.30463">
        <ele>44.35</ele>
        <time>2015-09-11T12:43:16.114Z</time>
      </trkpt>
      <trkpt lat="47.03611" lon="-1.30455">
        <ele>44.637</ele>
        <time>2015-09-11T12:43:18.17Z</time>
      </trkpt>
      <trkpt lat="47.03613" lon="-1.3045">
        <ele>44.806</ele>
        <time>2015-09-11T12:43:19.109Z</time>
      </trkpt>
      <trkpt lat="47.03619" lon="-1.30443">
        <ele>45</ele>
        <time>2015-09-11T12:43:21.524Z</time>
      </trkpt>
      <trkpt lat="47.03622" lon="-1.3044">
        <ele>45</ele>
        <time>2015-09-11T12:43:22.106Z</time>
      </trkpt>
      <trkpt lat="47.03629" lon="-1.30435">
        <ele>45</ele>
        <time>2015-09-11T12:43:24.232Z</time>
      </trkpt>
      <trkpt lat="47.03632" lon="-1.30432">
        <ele>45</ele>
        <time>2015-09-11T12:43:25.269Z</time>
      </trkpt>
      <trkpt lat="47.03638" lon="-1.30425">
        <ele>45</ele>
        <time>2015-09-11T12:43:27.16Z</time>
      </trkpt>
      <trkpt lat="47.0364" lon="-1.30421">
        <ele>45</ele>
        <time>2015-09-11T12:43:28.14Z</time>
      </trkpt>
      <trkpt lat="47.03644" lon="-1.30413">
        <ele>45</ele>
        <time>2015-09-11T12:43:30.327Z</time>
      </trkpt>
      <trkpt lat="47.03646" lon="-1.30408">
        <ele>45</ele>
        <time>2015-09-11T12:43:31.109Z</time>
      </trkpt>
      <trkpt lat="47.03649" lon="-1.304">
        <ele>45</ele>
        <time>2015-09-11T12:43:33.958Z</time>
      </trkpt>
      <trkpt lat="47.03651" lon="-1.30396">
        <ele>45</ele>
        <time>2015-09-11T12:43:34.111Z</time>
      </trkpt>
      <trkpt lat="47.03655" lon="-1.30386">
        <ele>45.09</ele>
        <time>2015-09-11T12:43:36.146Z</time>
      </trkpt>
      <trkpt lat="47.03655" lon="-1.30381">
        <ele>45.27</ele>
        <time>2015-09-11T12:43:37.108Z</time>
      </trkpt>
      <trkpt lat="47.03654" lon="-1.30372">
        <ele>45.626</ele>
        <time>2015-09-11T12:43:39.195Z</time>
      </trkpt>
      <trkpt lat="47.03654" lon="-1.30367">
        <ele>45.802</ele>
        <time>2015-09-11T12:43:40.11Z</time>
      </trkpt>
      <trkpt lat="47.03654" lon="-1.30357">
        <ele>46.152</ele>
        <time>2015-09-11T12:43:42.156Z</time>
      </trkpt>
      <trkpt lat="47.03656" lon="-1.30353">
        <ele>46.292</ele>
        <time>2015-09-11T12:43:43.109Z</time>
      </trkpt>
      <trkpt lat="47.03662" lon="-1.30347">
        <ele>46.522</ele>
        <time>2015-09-11T12:43:45.16Z</time>
      </trkpt>
      <trkpt lat="47.03665" lon="-1.30344">
        <ele>46.627</ele>
        <time>2015-09-11T12:43:46.107Z</time>
      </trkpt>
      <trkpt lat="47.03672" lon="-1.30338">
        <ele>46.836</ele>
        <time>2015-09-11T12:43:48.188Z</time>
      </trkpt>
      <trkpt lat="47.03676" lon="-1.30335">
        <ele>46.954</ele>
        <time>2015-09-11T12:43:49.116Z</time>
      </trkpt>
      <trkpt lat="47.03682" lon="-1.30328">
        <ele>47.206</ele>
        <time>2015-09-11T12:43:51.163Z</time>
      </trkpt>
      <trkpt lat="47.03687" lon="-1.30323">
        <ele>47.379</ele>
        <time>2015-09-11T12:43:52.147Z</time>
      </trkpt>
      <trkpt lat="47.0369" lon="-1.3032">
        <ele>47.487</ele>
        <time>2015-09-11T12:43:53.153Z</time>
      </trkpt>
      <trkpt lat="47.03695" lon="-1.30315">
        <ele>47.676</ele>
        <time>2015-09-11T12:43:54.107Z</time>
      </trkpt>
      <trkpt lat="47.03698" lon="-1.30312">
        <ele>47.896</ele>
        <time>2015-09-11T12:43:55.151Z</time>
      </trkpt>
      <trkpt lat="47.03706" lon="-1.30307">
        <ele>48.357</ele>
        <time>2015-09-11T12:43:56.105Z</time>
      </trkpt>
      <trkpt lat="47.03711" lon="-1.30303">
        <ele>48.614</ele>
        <time>2015-09-11T12:43:57.182Z</time>
      </trkpt>
      <trkpt lat="47.03715" lon="-1.30299">
        <ele>48.795</ele>
        <time>2015-09-11T12:43:58.271Z</time>
      </trkpt>
      <trkpt lat="47.03722" lon="-1.30292">
        <ele>49.001</ele>
        <time>2015-09-11T12:44:00.152Z</time>
      </trkpt>
      <trkpt lat="47.03727" lon="-1.30288">
        <ele>49.104</ele>
        <time>2015-09-11T12:44:01.105Z</time>
      </trkpt>
      <trkpt lat="47.03731" lon="-1.30284">
        <ele>49.236</ele>
        <time>2015-09-11T12:44:02.153Z</time>
      </trkpt>
      <trkpt lat="47.03736" lon="-1.30281">
        <ele>49.445</ele>
        <time>2015-09-11T12:44:03.122Z</time>
      </trkpt>
      <trkpt lat="47.03741" lon="-1.30278">
        <ele>49.66</ele>
        <time>2015-09-11T12:44:04.17Z</time>
      </trkpt>
      <trkpt lat="47.03745" lon="-1.30274">
        <ele>49.834</ele>
        <time>2015-09-11T12:44:05.11Z</time>
      </trkpt>
      <trkpt lat="47.0375" lon="-1.30271">
        <ele>50</ele>
        <time>2015-09-11T12:44:06.56Z</time>
      </trkpt>
      <trkpt lat="47.03755" lon="-1.30267">
        <ele>50</ele>
        <time>2015-09-11T12:44:07.262Z</time>
      </trkpt>
      <trkpt lat="47.03759" lon="-1.30263">
        <ele>50</ele>
        <time>2015-09-11T12:44:08.247Z</time>
      </trkpt>
      <trkpt lat="47.03764" lon="-1.30259">
        <ele>50</ele>
        <time>2015-09-11T12:44:09.111Z</time>
      </trkpt>
      <trkpt lat="47.03769" lon="-1.30255">
        <ele>50</ele>
        <time>2015-09-11T12:44:10.163Z</time>
      </trkpt>
      <trkpt lat="47.03773" lon="-1.30251">
        <ele>50</ele>
        <time>2015-09-11T12:44:11.112Z</time>
      </trkpt>
      <trkpt lat="47.03778" lon="-1.30247">
        <ele>50</ele>
        <time>2015-09-11T12:44:12.153Z</time>
      </trkpt>
      <trkpt lat="47.03783" lon="-1.30244">
        <ele>50</ele>
        <time>2015-09-11T12:44:13.11Z</time>
      </trkpt>
      <trkpt lat="47.03787" lon="-1.30241">
        <ele>50</ele>
        <time>2015-09-11T12:44:14.15Z</time>
      </trkpt>
      <trkpt lat="47.03792" lon="-1.30238">
        <ele>50</ele>
        <time>2015-09-11T12:44:15.116Z</time>
      </trkpt>
      <trkpt lat="47.03797" lon="-1.30234">
        <ele>50</ele>
        <time>2015-09-11T12:44:16.329Z</time>
      </trkpt>
      <trkpt lat="47.03801" lon="-1.3023">
        <ele>50</ele>
        <time>2015-09-11T12:44:17.147Z</time>
      </trkpt>
      <trkpt lat="47.03806" lon="-1.30227">
        <ele>49.999</ele>
        <time>2015-09-11T12:44:18.161Z</time>
      </trkpt>
      <trkpt lat="47.03811" lon="-1.30222">
        <ele>50</ele>
        <time>2015-09-11T12:44:19.22Z</time>
      </trkpt>
      <trkpt lat="47.03815" lon="-1.30219">
        <ele>50</ele>
        <time>2015-09-11T12:44:20.345Z</time>
      </trkpt>
      <trkpt lat="47.0382" lon="-1.30215">
        <ele>50</ele>
        <time>2015-09-11T12:44:21.143Z</time>
      </trkpt>
      <trkpt lat="47.03825" lon="-1.30212">
        <ele>50</ele>
        <time>2015-09-11T12:44:22.244Z</time>
      </trkpt>
      <trkpt lat="47.0383" lon="-1.30208">
        <ele>50</ele>
        <time>2015-09-11T12:44:23.105Z</time>
      </trkpt>
      <trkpt lat="47.03835" lon="-1.30205">
        <ele>50</ele>
        <time>2015-09-11T12:44:24.153Z</time>
      </trkpt>
      <trkpt lat="47.0384" lon="-1.30201">
        <ele>50</ele>
        <time>2015-09-11T12:44:25.106Z</time>
      </trkpt>
      <trkpt lat="47.03846" lon="-1.30198">
        <ele>50</ele>
        <time>2015-09-11T12:44:26.161Z</time>
      </trkpt>
      <trkpt lat="47.03851" lon="-1.30195">
        <ele>50</ele>
        <time>2015-09-11T12:44:27.109Z</time>
      </trkpt>
      <trkpt lat="47.03855" lon="-1.30192">
        <ele>50</ele>
        <time>2015-09-11T12:44:28.797Z</time>
      </trkpt>
      <trkpt lat="47.0386" lon="-1.30187">
        <ele>50</ele>
        <time>2015-09-11T12:44:29.108Z</time>
      </trkpt>
      <trkpt lat="47.03864" lon="-1.30184">
        <ele>50.043</ele>
        <time>2015-09-11T12:44:30.197Z</time>
      </trkpt>
      <trkpt lat="47.03869" lon="-1.30181">
        <ele>50.13</ele>
        <time>2015-09-11T12:44:31.107Z</time>
      </trkpt>
      <trkpt lat="47.03874" lon="-1.30179">
        <ele>50.257</ele>
        <time>2015-09-11T12:44:32.151Z</time>
      </trkpt>
      <trkpt lat="47.03879" lon="-1.30176">
        <ele>50.423</ele>
        <time>2015-09-11T12:44:33.106Z</time>
      </trkpt>
      <trkpt lat="47.03884" lon="-1.30174">
        <ele>50.627</ele>
        <time>2015-09-11T12:44:34.154Z</time>
      </trkpt>
      <trkpt lat="47.0389" lon="-1.3017">
        <ele>50.877</ele>
        <time>2015-09-11T12:44:35.109Z</time>
      </trkpt>
      <trkpt lat="47.03895" lon="-1.30167">
        <ele>50.999</ele>
        <time>2015-09-11T12:44:36.156Z</time>
      </trkpt>
      <trkpt lat="47.03901" lon="-1.30165">
        <ele>51.026</ele>
        <time>2015-09-11T12:44:37.11Z</time>
      </trkpt>
      <trkpt lat="47.03907" lon="-1.30164">
        <ele>51.075</ele>
        <time>2015-09-11T12:44:38.53Z</time>
      </trkpt>
      <trkpt lat="47.03912" lon="-1.30161">
        <ele>51.167</ele>
        <time>2015-09-11T12:44:39.11Z</time>
      </trkpt>
      <trkpt lat="47.03918" lon="-1.3016">
        <ele>51.287</ele>
        <time>2015-09-11T12:44:40.163Z</time>
      </trkpt>
      <trkpt lat="47.03923" lon="-1.30159">
        <ele>51.449</ele>
        <time>2015-09-11T12:44:41.11Z</time>
      </trkpt>
      <trkpt lat="47.03929" lon="-1.30157">
        <ele>51.624</ele>
        <time>2015-09-11T12:44:42.402Z</time>
      </trkpt>
      <trkpt lat="47.03934" lon="-1.30156">
        <ele>51.767</ele>
        <time>2015-09-11T12:44:43.14Z</time>
      </trkpt>
      <trkpt lat="47.03939" lon="-1.30155">
        <ele>51.888</ele>
        <time>2015-09-11T12:44:44.163Z</time>
      </trkpt>
      <trkpt lat="47.03946" lon="-1.30152">
        <ele>52.045</ele>
        <time>2015-09-11T12:44:45.112Z</time>
      </trkpt>
      <trkpt lat="47.03952" lon="-1.30152">
        <ele>52.261</ele>
        <time>2015-09-11T12:44:46.17Z</time>
      </trkpt>
      <trkpt lat="47.03957" lon="-1.30151">
        <ele>52.445</ele>
        <time>2015-09-11T12:44:47.115Z</time>
      </trkpt>
      <trkpt lat="47.03963" lon="-1.3015">
        <ele>52.675</ele>
        <time>2015-09-11T12:44:48.608Z</time>
      </trkpt>
      <trkpt lat="47.03968" lon="-1.30148">
        <ele>52.855</ele>
        <time>2015-09-11T12:44:49.108Z</time>
      </trkpt>
      <trkpt lat="47.03974" lon="-1.30148">
        <ele>53</ele>
        <time>2015-09-11T12:44:50.172Z</time>
      </trkpt>
      <trkpt lat="47.03979" lon="-1.30147">
        <ele>53</ele>
        <time>2015-09-11T12:44:51.133Z</time>
      </trkpt>
      <trkpt lat="47.03986" lon="-1.30146">
        <ele>53</ele>
        <time>2015-09-11T12:44:52.166Z</time>
      </trkpt>
      <trkpt lat="47.03991" lon="-1.30145">
        <ele>53</ele>
        <time>2015-09-11T12:44:53.109Z</time>
      </trkpt>
      <trkpt lat="47.03996" lon="-1.30144">
        <ele>53</ele>
        <time>2015-09-11T12:44:54.358Z</time>
      </trkpt>
      <trkpt lat="47.04002" lon="-1.30143">
        <ele>52.921</ele>
        <time>2015-09-11T12:44:55.138Z</time>
      </trkpt>
      <trkpt lat="47.04008" lon="-1.30142">
        <ele>52.712</ele>
        <time>2015-09-11T12:44:56.164Z</time>
      </trkpt>
      <trkpt lat="47.04014" lon="-1.30141">
        <ele>52.5</ele>
        <time>2015-09-11T12:44:57.115Z</time>
      </trkpt>
      <trkpt lat="47.0402" lon="-1.30139">
        <ele>52.287</ele>
        <time>2015-09-11T12:44:58.523Z</time>
      </trkpt>
      <trkpt lat="47.04026" lon="-1.30138">
        <ele>52.051</ele>
        <time>2015-09-11T12:44:59.112Z</time>
      </trkpt>
      <trkpt lat="47.04032" lon="-1.30137">
        <ele>52</ele>
        <time>2015-09-11T12:45:00.164Z</time>
      </trkpt>
      <trkpt lat="47.04038" lon="-1.30136">
        <ele>52</ele>
        <time>2015-09-11T12:45:01.111Z</time>
      </trkpt>
      <trkpt lat="47.04043" lon="-1.30134">
        <ele>52</ele>
        <time>2015-09-11T12:45:02.165Z</time>
      </trkpt>
      <trkpt lat="47.04048" lon="-1.30132">
        <ele>52</ele>
        <time>2015-09-11T12:45:03.14Z</time>
      </trkpt>
      <trkpt lat="47.04053" lon="-1.3013">
        <ele>52</ele>
        <time>2015-09-11T12:45:04.174Z</time>
      </trkpt>
      <trkpt lat="47.04057" lon="-1.3013">
        <ele>51.913</ele>
        <time>2015-09-11T12:45:05.111Z</time>
      </trkpt>
      <trkpt lat="47.04063" lon="-1.3013">
        <ele>51.579</ele>
        <time>2015-09-11T12:45:06.161Z</time>
      </trkpt>
      <trkpt lat="47.0407" lon="-1.30127">
        <ele>51.194</ele>
        <time>2015-09-11T12:45:07.109Z</time>
      </trkpt>
      <trkpt lat="47.04074" lon="-1.30123">
        <ele>51.021</ele>
        <time>2015-09-11T12:45:08.303Z</time>
      </trkpt>
      <trkpt lat="47.04081" lon="-1.30123">
        <ele>50.693</ele>
        <time>2015-09-11T12:45:09.108Z</time>
      </trkpt>
      <trkpt lat="47.04087" lon="-1.30123">
        <ele>50.49</ele>
        <time>2015-09-11T12:45:10.162Z</time>
      </trkpt>
      <trkpt lat="47.04093" lon="-1.30122">
        <ele>50.396</ele>
        <time>2015-09-11T12:45:11.109Z</time>
      </trkpt>
      <trkpt lat="47.04097" lon="-1.30122">
        <ele>50.316</ele>
        <time>2015-09-11T12:45:12.161Z</time>
      </trkpt>
      <trkpt lat="47.04103" lon="-1.30122">
        <ele>50.191</ele>
        <time>2015-09-11T12:45:13.138Z</time>
      </trkpt>
      <trkpt lat="47.04109" lon="-1.3012">
        <ele>50.053</ele>
        <time>2015-09-11T12:45:14.16Z</time>
      </trkpt>
      <trkpt lat="47.04115" lon="-1.3012">
        <ele>50.147</ele>
        <time>2015-09-11T12:45:15.115Z</time>
      </trkpt>
      <trkpt lat="47.04122" lon="-1.30119">
        <ele>50.385</ele>
        <time>2015-09-11T12:45:16.565Z</time>
      </trkpt>
      <trkpt lat="47.04128" lon="-1.30119">
        <ele>50.604</ele>
        <time>2015-09-11T12:45:17.109Z</time>
      </trkpt>
      <trkpt lat="47.04135" lon="-1.30119">
        <ele>50.849</ele>
        <time>2015-09-11T12:45:18.162Z</time>
      </trkpt>
      <trkpt lat="47.0414" lon="-1.30119">
        <ele>51.012</ele>
        <time>2015-09-11T12:45:19.139Z</time>
      </trkpt>
      <trkpt lat="47.04146" lon="-1.30119">
        <ele>51.066</ele>
        <time>2015-09-11T12:45:20.161Z</time>
      </trkpt>
      <trkpt lat="47.04151" lon="-1.3012">
        <ele>51.143</ele>
        <time>2015-09-11T12:45:21.115Z</time>
      </trkpt>
      <trkpt lat="47.04158" lon="-1.30121">
        <ele>51.256</ele>
        <time>2015-09-11T12:45:22.349Z</time>
      </trkpt>
      <trkpt lat="47.04164" lon="-1.30122">
        <ele>51.351</ele>
        <time>2015-09-11T12:45:23.141Z</time>
      </trkpt>
      <trkpt lat="47.04169" lon="-1.30124">
        <ele>51.433</ele>
        <time>2015-09-11T12:45:24.441Z</time>
      </trkpt>
      <trkpt lat="47.04174" lon="-1.30126">
        <ele>51.381</ele>
        <time>2015-09-11T12:45:25.138Z</time>
      </trkpt>
      <trkpt lat="47.0418" lon="-1.30129">
        <ele>51.338</ele>
        <time>2015-09-11T12:45:26.213Z</time>
      </trkpt>
      <trkpt lat="47.04186" lon="-1.30131">
        <ele>51.221</ele>
        <time>2015-09-11T12:45:27.109Z</time>
      </trkpt>
      <trkpt lat="47.0419" lon="-1.30133">
        <ele>51.137</ele>
        <time>2015-09-11T12:45:28.449Z</time>
      </trkpt>
      <trkpt lat="47.04195" lon="-1.30136">
        <ele>51.027</ele>
        <time>2015-09-11T12:45:29.143Z</time>
      </trkpt>
      <trkpt lat="47.04201" lon="-1.30139">
        <ele>51.222</ele>
        <time>2015-09-11T12:45:30.194Z</time>
      </trkpt>
      <trkpt lat="47.04207" lon="-1.30141">
        <ele>51.497</ele>
        <time>2015-09-11T12:45:31.107Z</time>
      </trkpt>
      <trkpt lat="47.04213" lon="-1.30145">
        <ele>51.738</ele>
        <time>2015-09-11T12:45:32.367Z</time>
      </trkpt>
      <trkpt lat="47.04218" lon="-1.30149">
        <ele>51.9</ele>
        <time>2015-09-11T12:45:33.142Z</time>
      </trkpt>
      <trkpt lat="47.04223" lon="-1.30152">
        <ele>52</ele>
        <time>2015-09-11T12:45:34.353Z</time>
      </trkpt>
      <trkpt lat="47.04228" lon="-1.30155">
        <ele>52</ele>
        <time>2015-09-11T12:45:35.15Z</time>
      </trkpt>
      <trkpt lat="47.04233" lon="-1.30158">
        <ele>52</ele>
        <time>2015-09-11T12:45:36.169Z</time>
      </trkpt>
      <trkpt lat="47.04238" lon="-1.3016">
        <ele>52</ele>
        <time>2015-09-11T12:45:37.109Z</time>
      </trkpt>
      <trkpt lat="47.04244" lon="-1.30161">
        <ele>52</ele>
        <time>2015-09-11T12:45:38.338Z</time>
      </trkpt>
      <trkpt lat="47.0425" lon="-1.30162">
        <ele>52</ele>
        <time>2015-09-11T12:45:39.156Z</time>
      </trkpt>
      <trkpt lat="47.04255" lon="-1.30163">
        <ele>51.977</ele>
        <time>2015-09-11T12:45:40.337Z</time>
      </trkpt>
      <trkpt lat="47.04261" lon="-1.30165">
        <ele>51.979</ele>
        <time>2015-09-11T12:45:41.198Z</time>
      </trkpt>
      <trkpt lat="47.04267" lon="-1.30166">
        <ele>51.985</ele>
        <time>2015-09-11T12:45:42.185Z</time>
      </trkpt>
      <trkpt lat="47.04272" lon="-1.30167">
        <ele>51.995</ele>
        <time>2015-09-11T12:45:43.108Z</time>
      </trkpt>
      <trkpt lat="47.04277" lon="-1.30168">
        <ele>51.998</ele>
        <time>2015-09-11T12:45:44.153Z</time>
      </trkpt>
      <trkpt lat="47.04282" lon="-1.30168">
        <ele>52</ele>
        <time>2015-09-11T12:45:45.11Z</time>
      </trkpt>
      <trkpt lat="47.04289" lon="-1.30169">
        <ele>52</ele>
        <time>2015-09-11T12:45:46.348Z</time>
      </trkpt>
      <trkpt lat="47.04295" lon="-1.3017">
        <ele>52</ele>
        <time>2015-09-11T12:45:47.11Z</time>
      </trkpt>
      <trkpt lat="47.04301" lon="-1.30171">
        <ele>52</ele>
        <time>2015-09-11T12:45:48.162Z</time>
      </trkpt>
      <trkpt lat="47.04307" lon="-1.30171">
        <ele>52</ele>
        <time>2015-09-11T12:45:49.143Z</time>
      </trkpt>
      <trkpt lat="47.04313" lon="-1.30172">
        <ele>52</ele>
        <time>2015-09-11T12:45:50.4Z</time>
      </trkpt>
      <trkpt lat="47.04318" lon="-1.30173">
        <ele>52</ele>
        <time>2015-09-11T12:45:51.155Z</time>
      </trkpt>
      <trkpt lat="47.04324" lon="-1.30174">
        <ele>52</ele>
        <time>2015-09-11T12:45:52.63Z</time>
      </trkpt>
      <trkpt lat="47.04331" lon="-1.30174">
        <ele>52</ele>
        <time>2015-09-11T12:45:53.108Z</time>
      </trkpt>
      <trkpt lat="47.04337" lon="-1.30174">
        <ele>52</ele>
        <time>2015-09-11T12:45:54.168Z</time>
      </trkpt>
      <trkpt lat="47.04344" lon="-1.30176">
        <ele>52</ele>
        <time>2015-09-11T12:45:55.137Z</time>
      </trkpt>
      <trkpt lat="47.0435" lon="-1.30176">
        <ele>52</ele>
        <time>2015-09-11T12:45:56.357Z</time>
      </trkpt>
      <trkpt lat="47.04356" lon="-1.30178">
        <ele>52</ele>
        <time>2015-09-11T12:45:57.141Z</time>
      </trkpt>
      <trkpt lat="47.04362" lon="-1.30179">
        <ele>52</ele>
        <time>2015-09-11T12:45:58.163Z</time>
      </trkpt>
      <trkpt lat="47.04387" lon="-1.30192">
        <ele>52</ele>
        <time>2015-09-11T12:46:03.104Z</time>
      </trkpt>
      <trkpt lat="47.04395" lon="-1.30196">
        <ele>51.791</ele>
        <time>2015-09-11T12:46:05.155Z</time>
      </trkpt>
      <trkpt lat="47.04398" lon="-1.30195">
        <ele>51.658</ele>
        <time>2015-09-11T12:46:06.141Z</time>
      </trkpt>
      <trkpt lat="47.04407" lon="-1.30195">
        <ele>51.355</ele>
        <time>2015-09-11T12:46:07.237Z</time>
      </trkpt>
      <trkpt lat="47.04422" lon="-1.30189">
        <ele>51.038</ele>
        <time>2015-09-11T12:46:08.148Z</time>
      </trkpt>
      <trkpt lat="47.0443" lon="-1.3019">
        <ele>51.076</ele>
        <time>2015-09-11T12:46:09.169Z</time>
      </trkpt>
      <trkpt lat="47.04438" lon="-1.30191">
        <ele>51.106</ele>
        <time>2015-09-11T12:46:10.112Z</time>
      </trkpt>
      <trkpt lat="47.04438" lon="-1.30191">
        <ele>51.106</ele>
        <time>2015-09-11T12:46:10.226Z</time>
      </trkpt>
      <trkpt lat="47.04448" lon="-1.3019">
        <ele>51.164</ele>
        <time>2015-09-11T12:46:11.14Z</time>
      </trkpt>
      <trkpt lat="47.04456" lon="-1.30189">
        <ele>51.203</ele>
        <time>2015-09-11T12:46:12.199Z</time>
      </trkpt>
      <trkpt lat="47.04465" lon="-1.30189">
        <ele>51.192</ele>
        <time>2015-09-11T12:46:13.11Z</time>
      </trkpt>
      <trkpt lat="47.04474" lon="-1.30188">
        <ele>51.215</ele>
        <time>2015-09-11T12:46:14.319Z</time>
      </trkpt>
      <trkpt lat="47.04478" lon="-1.3019">
        <ele>51.135</ele>
        <time>2015-09-11T12:46:15.158Z</time>
      </trkpt>
      <trkpt lat="47.04483" lon="-1.30193">
        <ele>51.038</ele>
        <time>2015-09-11T12:46:16.166Z</time>
      </trkpt>
      <trkpt lat="47.0449" lon="-1.30193">
        <ele>51.021</ele>
        <time>2015-09-11T12:46:17.11Z</time>
      </trkpt>
      <trkpt lat="47.04497" lon="-1.30196">
        <ele>50.994</ele>
        <time>2015-09-11T12:46:18.313Z</time>
      </trkpt>
      <trkpt lat="47.04503" lon="-1.30196">
        <ele>50.908</ele>
        <time>2015-09-11T12:46:19.14Z</time>
      </trkpt>
      <trkpt lat="47.0451" lon="-1.30196">
        <ele>50.673</ele>
        <time>2015-09-11T12:46:20.153Z</time>
      </trkpt>
      <trkpt lat="47.04516" lon="-1.30198">
        <ele>50.483</ele>
        <time>2015-09-11T12:46:21.11Z</time>
      </trkpt>
      <trkpt lat="47.04522" lon="-1.30199">
        <ele>50.347</ele>
        <time>2015-09-11T12:46:22.172Z</time>
      </trkpt>
      <trkpt lat="47.04528" lon="-1.30201">
        <ele>50.255</ele>
        <time>2015-09-11T12:46:23.11Z</time>
      </trkpt>
      <trkpt lat="47.04533" lon="-1.30203">
        <ele>50.44</ele>
        <time>2015-09-11T12:46:24.34Z</time>
      </trkpt>
      <trkpt lat="47.04538" lon="-1.30206">
        <ele>50.631</ele>
        <time>2015-09-11T12:46:25.153Z</time>
      </trkpt>
      <trkpt lat="47.04544" lon="-1.30209">
        <ele>50.804</ele>
        <time>2015-09-11T12:46:26.344Z</time>
      </trkpt>
      <trkpt lat="47.0455" lon="-1.30211">
        <ele>50.914</ele>
        <time>2015-09-11T12:46:27.162Z</time>
      </trkpt>
      <trkpt lat="47.04555" lon="-1.30214">
        <ele>50.992</ele>
        <time>2015-09-11T12:46:28.332Z</time>
      </trkpt>
      <trkpt lat="47.0456" lon="-1.30217">
        <ele>51</ele>
        <time>2015-09-11T12:46:29.145Z</time>
      </trkpt>
      <trkpt lat="47.04565" lon="-1.30219">
        <ele>51</ele>
        <time>2015-09-11T12:46:30.151Z</time>
      </trkpt>
      <trkpt lat="47.0457" lon="-1.30222">
        <ele>51</ele>
        <time>2015-09-11T12:46:31.109Z</time>
      </trkpt>
      <trkpt lat="47.04575" lon="-1.30226">
        <ele>51</ele>
        <time>2015-09-11T12:46:32.178Z</time>
      </trkpt>
      <trkpt lat="47.0458" lon="-1.30228">
        <ele>51</ele>
        <time>2015-09-11T12:46:33.109Z</time>
      </trkpt>
      <trkpt lat="47.04585" lon="-1.3023">
        <ele>51</ele>
        <time>2015-09-11T12:46:34.341Z</time>
      </trkpt>
      <trkpt lat="47.04591" lon="-1.30234">
        <ele>51</ele>
        <time>2015-09-11T12:46:35.144Z</time>
      </trkpt>
      <trkpt lat="47.04596" lon="-1.30237">
        <ele>51</ele>
        <time>2015-09-11T12:46:36.161Z</time>
      </trkpt>
      <trkpt lat="47.046" lon="-1.30239">
        <ele>51</ele>
        <time>2015-09-11T12:46:37.115Z</time>
      </trkpt>
      <trkpt lat="47.04606" lon="-1.30242">
        <ele>51</ele>
        <time>2015-09-11T12:46:38.369Z</time>
      </trkpt>
      <trkpt lat="47.04612" lon="-1.30244">
        <ele>51.036</ele>
        <time>2015-09-11T12:46:39.135Z</time>
      </trkpt>
      <trkpt lat="47.04618" lon="-1.30247">
        <ele>51.248</ele>
        <time>2015-09-11T12:46:40.765Z</time>
      </trkpt>
      <trkpt lat="47.04623" lon="-1.3025">
        <ele>51.417</ele>
        <time>2015-09-11T12:46:41.109Z</time>
      </trkpt>
      <trkpt lat="47.0463" lon="-1.30255">
        <ele>51.511</ele>
        <time>2015-09-11T12:46:42.153Z</time>
      </trkpt>
      <trkpt lat="47.04636" lon="-1.30257">
        <ele>51.673</ele>
        <time>2015-09-11T12:46:43.105Z</time>
      </trkpt>
      <trkpt lat="47.04641" lon="-1.3026">
        <ele>51.654</ele>
        <time>2015-09-11T12:46:44.166Z</time>
      </trkpt>
      <trkpt lat="47.04646" lon="-1.30263">
        <ele>51.543</ele>
        <time>2015-09-11T12:46:45.135Z</time>
      </trkpt>
      <trkpt lat="47.04652" lon="-1.30266">
        <ele>51.431</ele>
        <time>2015-09-11T12:46:46.168Z</time>
      </trkpt>
      <trkpt lat="47.04657" lon="-1.30269">
        <ele>51.309</ele>
        <time>2015-09-11T12:46:47.111Z</time>
      </trkpt>
      <trkpt lat="47.04664" lon="-1.30274">
        <ele>51.14</ele>
        <time>2015-09-11T12:46:48.562Z</time>
      </trkpt>
      <trkpt lat="47.04671" lon="-1.30276">
        <ele>51.043</ele>
        <time>2015-09-11T12:46:49.137Z</time>
      </trkpt>
      <trkpt lat="47.04678" lon="-1.3028">
        <ele>51</ele>
        <time>2015-09-11T12:46:50.333Z</time>
      </trkpt>
      <trkpt lat="47.04685" lon="-1.30279">
        <ele>51</ele>
        <time>2015-09-11T12:46:51.114Z</time>
      </trkpt>
      <trkpt lat="47.04691" lon="-1.30276">
        <ele>51.007</ele>
        <time>2015-09-11T12:46:52.162Z</time>
      </trkpt>
      <trkpt lat="47.04697" lon="-1.30272">
        <ele>51</ele>
        <time>2015-09-11T12:46:53.144Z</time>
      </trkpt>
      <trkpt lat="47.04702" lon="-1.30265">
        <ele>51</ele>
        <time>2015-09-11T12:46:54.328Z</time>
      </trkpt>
      <trkpt lat="47.04706" lon="-1.30258">
        <ele>51</ele>
        <time>2015-09-11T12:46:55.144Z</time>
      </trkpt>
      <trkpt lat="47.04709" lon="-1.3025">
        <ele>51</ele>
        <time>2015-09-11T12:46:56.344Z</time>
      </trkpt>
      <trkpt lat="47.04714" lon="-1.30242">
        <ele>51</ele>
        <time>2015-09-11T12:46:57.137Z</time>
      </trkpt>
      <trkpt lat="47.04718" lon="-1.30233">
        <ele>51</ele>
        <time>2015-09-11T12:46:58.325Z</time>
      </trkpt>
      <trkpt lat="47.04723" lon="-1.30227">
        <ele>50.996</ele>
        <time>2015-09-11T12:46:59.131Z</time>
      </trkpt>
      <trkpt lat="47.04728" lon="-1.3022">
        <ele>51</ele>
        <time>2015-09-11T12:47:00.428Z</time>
      </trkpt>
      <trkpt lat="47.04732" lon="-1.30213">
        <ele>51</ele>
        <time>2015-09-11T12:47:01.493Z</time>
      </trkpt>
      <trkpt lat="47.04737" lon="-1.30205">
        <ele>51</ele>
        <time>2015-09-11T12:47:02.156Z</time>
      </trkpt>
      <trkpt lat="47.04741" lon="-1.30198">
        <ele>51</ele>
        <time>2015-09-11T12:47:03.106Z</time>
      </trkpt>
      <trkpt lat="47.04746" lon="-1.30192">
        <ele>51</ele>
        <time>2015-09-11T12:47:04.152Z</time>
      </trkpt>
      <trkpt lat="47.0475" lon="-1.30183">
        <ele>51</ele>
        <time>2015-09-11T12:47:05.105Z</time>
      </trkpt>
      <trkpt lat="47.04755" lon="-1.30176">
        <ele>50.813</ele>
        <time>2015-09-11T12:47:06.347Z</time>
      </trkpt>
      <trkpt lat="47.04761" lon="-1.30169">
        <ele>50.622</ele>
        <time>2015-09-11T12:47:07.138Z</time>
      </trkpt>
      <trkpt lat="47.04765" lon="-1.30162">
        <ele>50.464</ele>
        <time>2015-09-11T12:47:08.452Z</time>
      </trkpt>
      <trkpt lat="47.0477" lon="-1.30154">
        <ele>50.276</ele>
        <time>2015-09-11T12:47:09.204Z</time>
      </trkpt>
      <trkpt lat="47.04775" lon="-1.30146">
        <ele>50.096</ele>
        <time>2015-09-11T12:47:10.149Z</time>
      </trkpt>
      <trkpt lat="47.0478" lon="-1.30139">
        <ele>49.913</ele>
        <time>2015-09-11T12:47:11.112Z</time>
      </trkpt>
      <trkpt lat="47.04786" lon="-1.30132">
        <ele>49.7</ele>
        <time>2015-09-11T12:47:12.343Z</time>
      </trkpt>
      <trkpt lat="47.04791" lon="-1.30127">
        <ele>49.513</ele>
        <time>2015-09-11T12:47:13.139Z</time>
      </trkpt>
      <trkpt lat="47.04797" lon="-1.30123">
        <ele>49.312</ele>
        <time>2015-09-11T12:47:14.557Z</time>
      </trkpt>
      <trkpt lat="47.04803" lon="-1.30118">
        <ele>49.096</ele>
        <time>2015-09-11T12:47:15.149Z</time>
      </trkpt>
      <trkpt lat="47.04808" lon="-1.30114">
        <ele>49</ele>
        <time>2015-09-11T12:47:16.515Z</time>
      </trkpt>
      <trkpt lat="47.04814" lon="-1.30109">
        <ele>48.976</ele>
        <time>2015-09-11T12:47:17.139Z</time>
      </trkpt>
      <trkpt lat="47.0482" lon="-1.30103">
        <ele>48.848</ele>
        <time>2015-09-11T12:47:18.325Z</time>
      </trkpt>
      <trkpt lat="47.04825" lon="-1.30095">
        <ele>48.578</ele>
        <time>2015-09-11T12:47:19.149Z</time>
      </trkpt>
      <trkpt lat="47.04829" lon="-1.30087">
        <ele>48.27</ele>
        <time>2015-09-11T12:47:20.332Z</time>
      </trkpt>
      <trkpt lat="47.04833" lon="-1.30077">
        <ele>48.234</ele>
        <time>2015-09-11T12:47:21.106Z</time>
      </trkpt>
      <trkpt lat="47.04839" lon="-1.3007">
        <ele>48.593</ele>
        <time>2015-09-11T12:47:22.162Z</time>
      </trkpt>
      <trkpt lat="47.04844" lon="-1.30063">
        <ele>48.842</ele>
        <time>2015-09-11T12:47:23.135Z</time>
      </trkpt>
      <trkpt lat="47.04849" lon="-1.30055">
        <ele>49</ele>
        <time>2015-09-11T12:47:24.322Z</time>
      </trkpt>
      <trkpt lat="47.04853" lon="-1.30047">
        <ele>49</ele>
        <time>2015-09-11T12:47:25.136Z</time>
      </trkpt>
      <trkpt lat="47.04858" lon="-1.3004">
        <ele>49</ele>
        <time>2015-09-11T12:47:26.334Z</time>
      </trkpt>
      <trkpt lat="47.04864" lon="-1.30033">
        <ele>49</ele>
        <time>2015-09-11T12:47:27.139Z</time>
      </trkpt>
      <trkpt lat="47.04869" lon="-1.30026">
        <ele>49</ele>
        <time>2015-09-11T12:47:28.325Z</time>
      </trkpt>
      <trkpt lat="47.04874" lon="-1.30019">
        <ele>49</ele>
        <time>2015-09-11T12:47:29.142Z</time>
      </trkpt>
      <trkpt lat="47.04878" lon="-1.30011">
        <ele>49</ele>
        <time>2015-09-11T12:47:30.332Z</time>
      </trkpt>
      <trkpt lat="47.04883" lon="-1.30004">
        <ele>49</ele>
        <time>2015-09-11T12:47:31.138Z</time>
      </trkpt>
      <trkpt lat="47.04887" lon="-1.29996">
        <ele>48.852</ele>
        <time>2015-09-11T12:47:32.741Z</time>
      </trkpt>
      <trkpt lat="47.04892" lon="-1.29988">
        <ele>48.526</ele>
        <time>2015-09-11T12:47:33.106Z</time>
      </trkpt>
      <trkpt lat="47.04896" lon="-1.29982">
        <ele>48.248</ele>
        <time>2015-09-11T12:47:34.166Z</time>
      </trkpt>
      <trkpt lat="47.04901" lon="-1.29974">
        <ele>48.031</ele>
        <time>2015-09-11T12:47:35.14Z</time>
      </trkpt>
      <trkpt lat="47.04907" lon="-1.29966">
        <ele>47.914</ele>
        <time>2015-09-11T12:47:36.344Z</time>
      </trkpt>
      <trkpt lat="47.04912" lon="-1.29958">
        <ele>47.916</ele>
        <time>2015-09-11T12:47:37.142Z</time>
      </trkpt>
      <trkpt lat="47.04915" lon="-1.2995">
        <ele>47.963</ele>
        <time>2015-09-11T12:47:38.361Z</time>
      </trkpt>
      <trkpt lat="47.04916" lon="-1.29941">
        <ele>47.862</ele>
        <time>2015-09-11T12:47:39.113Z</time>
      </trkpt>
      <trkpt lat="47.04915" lon="-1.29932">
        <ele>47.503</ele>
        <time>2015-09-11T12:47:40.18Z</time>
      </trkpt>
      <trkpt lat="47.0491" lon="-1.29924">
        <ele>47.196</ele>
        <time>2015-09-11T12:47:41.15Z</time>
      </trkpt>
      <trkpt lat="47.04906" lon="-1.29916">
        <ele>47</ele>
        <time>2015-09-11T12:47:42.163Z</time>
      </trkpt>
      <trkpt lat="47.04903" lon="-1.29909">
        <ele>47</ele>
        <time>2015-09-11T12:47:43.115Z</time>
      </trkpt>
      <trkpt lat="47.04899" lon="-1.29899">
        <ele>47</ele>
        <time>2015-09-11T12:47:44.388Z</time>
      </trkpt>
      <trkpt lat="47.04897" lon="-1.2989">
        <ele>47</ele>
        <time>2015-09-11T12:47:45.134Z</time>
      </trkpt>
      <trkpt lat="47.04895" lon="-1.29881">
        <ele>47</ele>
        <time>2015-09-11T12:47:46.166Z</time>
      </trkpt>
      <trkpt lat="47.04894" lon="-1.29872">
        <ele>47</ele>
        <time>2015-09-11T12:47:47.109Z</time>
      </trkpt>
      <trkpt lat="47.04896" lon="-1.29861">
        <ele>47</ele>
        <time>2015-09-11T12:47:48.49Z</time>
      </trkpt>
      <trkpt lat="47.04896" lon="-1.29852">
        <ele>46.911</ele>
        <time>2015-09-11T12:47:49.135Z</time>
      </trkpt>
      <trkpt lat="47.04898" lon="-1.29843">
        <ele>46.787</ele>
        <time>2015-09-11T12:47:50.325Z</time>
      </trkpt>
      <trkpt lat="47.04899" lon="-1.29834">
        <ele>46.633</ele>
        <time>2015-09-11T12:47:51.141Z</time>
      </trkpt>
      <trkpt lat="47.04902" lon="-1.29825">
        <ele>46.235</ele>
        <time>2015-09-11T12:47:52.385Z</time>
      </trkpt>
      <trkpt lat="47.04904" lon="-1.29816">
        <ele>45.81</ele>
        <time>2015-09-11T12:47:53.138Z</time>
      </trkpt>
      <trkpt lat="47.04907" lon="-1.29806">
        <ele>45.386</ele>
        <time>2015-09-11T12:47:54.324Z</time>
      </trkpt>
      <trkpt lat="47.04909" lon="-1.29798">
        <ele>45.36</ele>
        <time>2015-09-11T12:47:55.112Z</time>
      </trkpt>
      <trkpt lat="47.04911" lon="-1.29789">
        <ele>45.328</ele>
        <time>2015-09-11T12:47:56.169Z</time>
      </trkpt>
      <trkpt lat="47.04914" lon="-1.29779">
        <ele>45.187</ele>
        <time>2015-09-11T12:47:57.14Z</time>
      </trkpt>
      <trkpt lat="47.04914" lon="-1.29779">
        <ele>45.187</ele>
        <time>2015-09-11T12:47:57.827Z</time>
      </trkpt>
      <trkpt lat="47.04916" lon="-1.29766">
        <ele>45.485</ele>
        <time>2015-09-11T12:47:58.112Z</time>
      </trkpt>
      <trkpt lat="47.04918" lon="-1.29756">
        <ele>45.739</ele>
        <time>2015-09-11T12:47:59.152Z</time>
      </trkpt>
      <trkpt lat="47.04921" lon="-1.29747">
        <ele>45.959</ele>
        <time>2015-09-11T12:48:00.105Z</time>
      </trkpt>
      <trkpt lat="47.04923" lon="-1.29738">
        <ele>46.197</ele>
        <time>2015-09-11T12:48:01.153Z</time>
      </trkpt>
      <trkpt lat="47.04925" lon="-1.29729">
        <ele>46.442</ele>
        <time>2015-09-11T12:48:02.105Z</time>
      </trkpt>
      <trkpt lat="47.04927" lon="-1.29721">
        <ele>46.646</ele>
        <time>2015-09-11T12:48:03.152Z</time>
      </trkpt>
      <trkpt lat="47.04929" lon="-1.29713">
        <ele>46.574</ele>
        <time>2015-09-11T12:48:04.105Z</time>
      </trkpt>
      <trkpt lat="47.04931" lon="-1.29706">
        <ele>46.491</ele>
        <time>2015-09-11T12:48:05.157Z</time>
      </trkpt>
      <trkpt lat="47.04933" lon="-1.29698">
        <ele>46.401</ele>
        <time>2015-09-11T12:48:06.11Z</time>
      </trkpt>
      <trkpt lat="47.04935" lon="-1.29689">
        <ele>46.326</ele>
        <time>2015-09-11T12:48:07.328Z</time>
      </trkpt>
      <trkpt lat="47.04938" lon="-1.2968">
        <ele>46.236</ele>
        <time>2015-09-11T12:48:08.539Z</time>
      </trkpt>
      <trkpt lat="47.0494" lon="-1.29672">
        <ele>46.149</ele>
        <time>2015-09-11T12:48:09.62Z</time>
      </trkpt>
      <trkpt lat="47.04942" lon="-1.29663">
        <ele>46.199</ele>
        <time>2015-09-11T12:48:10.802Z</time>
      </trkpt>
      <trkpt lat="47.04945" lon="-1.29655">
        <ele>46.425</ele>
        <time>2015-09-11T12:48:11.192Z</time>
      </trkpt>
      <trkpt lat="47.04947" lon="-1.29646">
        <ele>46.676</ele>
        <time>2015-09-11T12:48:12.105Z</time>
      </trkpt>
      <trkpt lat="47.0495" lon="-1.29638">
        <ele>46.786</ele>
        <time>2015-09-11T12:48:13.306Z</time>
      </trkpt>
      <trkpt lat="47.04953" lon="-1.2963">
        <ele>46.706</ele>
        <time>2015-09-11T12:48:14.104Z</time>
      </trkpt>
      <trkpt lat="47.04954" lon="-1.29623">
        <ele>46.645</ele>
        <time>2015-09-11T12:48:15.155Z</time>
      </trkpt>
      <trkpt lat="47.04957" lon="-1.29615">
        <ele>46.537</ele>
        <time>2015-09-11T12:48:16.107Z</time>
      </trkpt>
      <trkpt lat="47.0496" lon="-1.29608">
        <ele>46.447</ele>
        <time>2015-09-11T12:48:17.156Z</time>
      </trkpt>
      <trkpt lat="47.04962" lon="-1.296">
        <ele>46.368</ele>
        <time>2015-09-11T12:48:18.108Z</time>
      </trkpt>
      <trkpt lat="47.04963" lon="-1.29593">
        <ele>46.321</ele>
        <time>2015-09-11T12:48:19.163Z</time>
      </trkpt>
      <trkpt lat="47.04965" lon="-1.29586">
        <ele>46.26</ele>
        <time>2015-09-11T12:48:20.142Z</time>
      </trkpt>
      <trkpt lat="47.04968" lon="-1.29578">
        <ele>46.148</ele>
        <time>2015-09-11T12:48:21.149Z</time>
      </trkpt>
      <trkpt lat="47.04972" lon="-1.29572">
        <ele>46.019</ele>
        <time>2015-09-11T12:48:22.108Z</time>
      </trkpt>
      <trkpt lat="47.04975" lon="-1.29565">
        <ele>46</ele>
        <time>2015-09-11T12:48:23.299Z</time>
      </trkpt>
      <trkpt lat="47.04978" lon="-1.29559">
        <ele>46</ele>
        <time>2015-09-11T12:48:24.139Z</time>
      </trkpt>
      <trkpt lat="47.04982" lon="-1.29552">
        <ele>46.132</ele>
        <time>2015-09-11T12:48:25.348Z</time>
      </trkpt>
      <trkpt lat="47.04986" lon="-1.29546">
        <ele>46.33</ele>
        <time>2015-09-11T12:48:26.141Z</time>
      </trkpt>
      <trkpt lat="47.0499" lon="-1.29541">
        <ele>46.513</ele>
        <time>2015-09-11T12:48:27.578Z</time>
      </trkpt>
      <trkpt lat="47.04994" lon="-1.29534">
        <ele>46.787</ele>
        <time>2015-09-11T12:48:28.137Z</time>
      </trkpt>
      <trkpt lat="47.04998" lon="-1.29528">
        <ele>46.985</ele>
        <time>2015-09-11T12:48:29.34Z</time>
      </trkpt>
      <trkpt lat="47.05002" lon="-1.29523">
        <ele>46.946</ele>
        <time>2015-09-11T12:48:30.154Z</time>
      </trkpt>
      <trkpt lat="47.05006" lon="-1.29517">
        <ele>46.802</ele>
        <time>2015-09-11T12:48:31.168Z</time>
      </trkpt>
      <trkpt lat="47.0501" lon="-1.2951">
        <ele>46.644</ele>
        <time>2015-09-11T12:48:32.112Z</time>
      </trkpt>
      <trkpt lat="47.05014" lon="-1.29504">
        <ele>46.496</ele>
        <time>2015-09-11T12:48:33.287Z</time>
      </trkpt>
      <trkpt lat="47.05018" lon="-1.295">
        <ele>46.352</ele>
        <time>2015-09-11T12:48:34.16Z</time>
      </trkpt>
      <trkpt lat="47.05022" lon="-1.29495">
        <ele>46.204</ele>
        <time>2015-09-11T12:48:35.38Z</time>
      </trkpt>
      <trkpt lat="47.05026" lon="-1.2949">
        <ele>46.06</ele>
        <time>2015-09-11T12:48:36.148Z</time>
      </trkpt>
      <trkpt lat="47.0503" lon="-1.29483">
        <ele>45.964</ele>
        <time>2015-09-11T12:48:37.418Z</time>
      </trkpt>
      <trkpt lat="47.05034" lon="-1.29478">
        <ele>45.953</ele>
        <time>2015-09-11T12:48:38.142Z</time>
      </trkpt>
      <trkpt lat="47.05039" lon="-1.29472">
        <ele>45.998</ele>
        <time>2015-09-11T12:48:39.335Z</time>
      </trkpt>
      <trkpt lat="47.05041" lon="-1.29464">
        <ele>46.147</ele>
        <time>2015-09-11T12:48:40.141Z</time>
      </trkpt>
      <trkpt lat="47.05043" lon="-1.29456">
        <ele>46.267</ele>
        <time>2015-09-11T12:48:41.168Z</time>
      </trkpt>
      <trkpt lat="47.05043" lon="-1.29447">
        <ele>46.42</ele>
        <time>2015-09-11T12:48:42.108Z</time>
      </trkpt>
      <trkpt lat="47.05041" lon="-1.29439">
        <ele>46.524</ele>
        <time>2015-09-11T12:48:43.769Z</time>
      </trkpt>
      <trkpt lat="47.05038" lon="-1.29431">
        <ele>46.508</ele>
        <time>2015-09-11T12:48:44.112Z</time>
      </trkpt>
      <trkpt lat="47.05035" lon="-1.29425">
        <ele>46.394</ele>
        <time>2015-09-11T12:48:45.166Z</time>
      </trkpt>
      <trkpt lat="47.05032" lon="-1.29418">
        <ele>46.201</ele>
        <time>2015-09-11T12:48:46.147Z</time>
      </trkpt>
      <trkpt lat="47.05031" lon="-1.29408">
        <ele>46.112</ele>
        <time>2015-09-11T12:48:47.393Z</time>
      </trkpt>
      <trkpt lat="47.05029" lon="-1.29401">
        <ele>46.026</ele>
        <time>2015-09-11T12:48:48.195Z</time>
      </trkpt>
      <trkpt lat="47.05027" lon="-1.29391">
        <ele>46</ele>
        <time>2015-09-11T12:48:49.334Z</time>
      </trkpt>
      <trkpt lat="47.05024" lon="-1.29383">
        <ele>46.026</ele>
        <time>2015-09-11T12:48:50.138Z</time>
      </trkpt>
      <trkpt lat="47.05022" lon="-1.29375">
        <ele>46.105</ele>
        <time>2015-09-11T12:48:51.447Z</time>
      </trkpt>
      <trkpt lat="47.0502" lon="-1.29368">
        <ele>46.216</ele>
        <time>2015-09-11T12:48:52.163Z</time>
      </trkpt>
      <trkpt lat="47.05018" lon="-1.29359">
        <ele>46.417</ele>
        <time>2015-09-11T12:48:53.162Z</time>
      </trkpt>
      <trkpt lat="47.05016" lon="-1.29352">
        <ele>46.741</ele>
        <time>2015-09-11T12:48:54.209Z</time>
      </trkpt>
      <trkpt lat="47.05014" lon="-1.29345">
        <ele>47.09</ele>
        <time>2015-09-11T12:48:55.152Z</time>
      </trkpt>
      <trkpt lat="47.05013" lon="-1.29336">
        <ele>47.443</ele>
        <time>2015-09-11T12:48:56.109Z</time>
      </trkpt>
      <trkpt lat="47.05011" lon="-1.29328">
        <ele>47.536</ele>
        <time>2015-09-11T12:48:57.346Z</time>
      </trkpt>
      <trkpt lat="47.05008" lon="-1.2932">
        <ele>47.553</ele>
        <time>2015-09-11T12:48:58.107Z</time>
      </trkpt>
      <trkpt lat="47.05006" lon="-1.29313">
        <ele>47.597</ele>
        <time>2015-09-11T12:48:59.16Z</time>
      </trkpt>
      <trkpt lat="47.05005" lon="-1.29305">
        <ele>47.616</ele>
        <time>2015-09-11T12:49:00.159Z</time>
      </trkpt>
      <trkpt lat="47.05003" lon="-1.29297">
        <ele>47.55</ele>
        <time>2015-09-11T12:49:01.169Z</time>
      </trkpt>
      <trkpt lat="47.05002" lon="-1.29288">
        <ele>47.282</ele>
        <time>2015-09-11T12:49:02.108Z</time>
      </trkpt>
      <trkpt lat="47.05" lon="-1.29281">
        <ele>47.1</ele>
        <time>2015-09-11T12:49:03.167Z</time>
      </trkpt>
      <trkpt lat="47.04998" lon="-1.29274">
        <ele>46.989</ele>
        <time>2015-09-11T12:49:04.109Z</time>
      </trkpt>
      <trkpt lat="47.04996" lon="-1.29266">
        <ele>46.93</ele>
        <time>2015-09-11T12:49:05.354Z</time>
      </trkpt>
      <trkpt lat="47.04993" lon="-1.29258">
        <ele>46.822</ele>
        <time>2015-09-11T12:49:06.14Z</time>
      </trkpt>
      <trkpt lat="47.04991" lon="-1.29252">
        <ele>46.685</ele>
        <time>2015-09-11T12:49:07.395Z</time>
      </trkpt>
      <trkpt lat="47.04989" lon="-1.29243">
        <ele>46.432</ele>
        <time>2015-09-11T12:49:08.141Z</time>
      </trkpt>
      <trkpt lat="47.04986" lon="-1.29236">
        <ele>46.248</ele>
        <time>2015-09-11T12:49:09.162Z</time>
      </trkpt>
      <trkpt lat="47.04983" lon="-1.29229">
        <ele>46.1</ele>
        <time>2015-09-11T12:49:10.109Z</time>
      </trkpt>
      <trkpt lat="47.0498" lon="-1.29223">
        <ele>46.01</ele>
        <time>2015-09-11T12:49:11.163Z</time>
      </trkpt>
      <trkpt lat="47.04978" lon="-1.29217">
        <ele>46.146</ele>
        <time>2015-09-11T12:49:12.108Z</time>
      </trkpt>
      <trkpt lat="47.04975" lon="-1.2921">
        <ele>46.377</ele>
        <time>2015-09-11T12:49:13.462Z</time>
      </trkpt>
      <trkpt lat="47.04973" lon="-1.29204">
        <ele>46.631</ele>
        <time>2015-09-11T12:49:14.136Z</time>
      </trkpt>
      <trkpt lat="47.0497" lon="-1.29198">
        <ele>46.868</ele>
        <time>2015-09-11T12:49:15.162Z</time>
      </trkpt>
      <trkpt lat="47.04967" lon="-1.29192">
        <ele>47.014</ele>
        <time>2015-09-11T12:49:16.108Z</time>
      </trkpt>
      <trkpt lat="47.04964" lon="-1.29186">
        <ele>47.084</ele>
        <time>2015-09-11T12:49:17.307Z</time>
      </trkpt>
      <trkpt lat="47.04962" lon="-1.29181">
        <ele>47.179</ele>
        <time>2015-09-11T12:49:18.133Z</time>
      </trkpt>
      <trkpt lat="47.04959" lon="-1.29175">
        <ele>47.332</ele>
        <time>2015-09-11T12:49:19.28Z</time>
      </trkpt>
      <trkpt lat="47.04956" lon="-1.29171">
        <ele>47.507</ele>
        <time>2015-09-11T12:49:20.131Z</time>
      </trkpt>
      <trkpt lat="47.04952" lon="-1.29164">
        <ele>47.714</ele>
        <time>2015-09-11T12:49:21.397Z</time>
      </trkpt>
      <trkpt lat="47.04949" lon="-1.29158">
        <ele>47.836</ele>
        <time>2015-09-11T12:49:22.139Z</time>
      </trkpt>
      <trkpt lat="47.04946" lon="-1.29153">
        <ele>47.948</ele>
        <time>2015-09-11T12:49:23.162Z</time>
      </trkpt>
      <trkpt lat="47.04943" lon="-1.29147">
        <ele>48.041</ele>
        <time>2015-09-11T12:49:24.114Z</time>
      </trkpt>
      <trkpt lat="47.0494" lon="-1.29143">
        <ele>48.152</ele>
        <time>2015-09-11T12:49:25.341Z</time>
      </trkpt>
      <trkpt lat="47.04937" lon="-1.29137">
        <ele>48.204</ele>
        <time>2015-09-11T12:49:26.11Z</time>
      </trkpt>
      <trkpt lat="47.04931" lon="-1.29127">
        <ele>48.031</ele>
        <time>2015-09-11T12:49:28.347Z</time>
      </trkpt>
      <trkpt lat="47.04929" lon="-1.29121">
        <ele>47.941</ele>
        <time>2015-09-11T12:49:29.134Z</time>
      </trkpt>
      <trkpt lat="47.04926" lon="-1.29116">
        <ele>47.847</ele>
        <time>2015-09-11T12:49:30.329Z</time>
      </trkpt>
      <trkpt lat="47.04922" lon="-1.29109">
        <ele>47.739</ele>
        <time>2015-09-11T12:49:31.144Z</time>
      </trkpt>
      <trkpt lat="47.04919" lon="-1.29103">
        <ele>47.62</ele>
        <time>2015-09-11T12:49:32.353Z</time>
      </trkpt>
      <trkpt lat="47.04916" lon="-1.29097">
        <ele>47.515</ele>
        <time>2015-09-11T12:49:33.142Z</time>
      </trkpt>
      <trkpt lat="47.04913" lon="-1.29091">
        <ele>47.388</ele>
        <time>2015-09-11T12:49:34.367Z</time>
      </trkpt>
      <trkpt lat="47.0491" lon="-1.29086">
        <ele>47.311</ele>
        <time>2015-09-11T12:49:35.142Z</time>
      </trkpt>
      <trkpt lat="47.04906" lon="-1.29079">
        <ele>47.21</ele>
        <time>2015-09-11T12:49:36.352Z</time>
      </trkpt>
      <trkpt lat="47.04903" lon="-1.29074">
        <ele>47.149</ele>
        <time>2015-09-11T12:49:37.148Z</time>
      </trkpt>
      <trkpt lat="47.04898" lon="-1.29064">
        <ele>46.987</ele>
        <time>2015-09-11T12:49:39.165Z</time>
      </trkpt>
      <trkpt lat="47.04895" lon="-1.29058">
        <ele>46.897</ele>
        <time>2015-09-11T12:49:40.13Z</time>
      </trkpt>
      <trkpt lat="47.04889" lon="-1.29049">
        <ele>47.226</ele>
        <time>2015-09-11T12:49:42.159Z</time>
      </trkpt>
      <trkpt lat="47.04891" lon="-1.29044">
        <ele>47.292</ele>
        <time>2015-09-11T12:49:43.105Z</time>
      </trkpt>
      <trkpt lat="47.04895" lon="-1.2904">
        <ele>47.123</ele>
        <time>2015-09-11T12:49:44.151Z</time>
      </trkpt>
      <trkpt lat="47.04899" lon="-1.29036">
        <ele>46.858</ele>
        <time>2015-09-11T12:49:45.108Z</time>
      </trkpt>
      <trkpt lat="47.04903" lon="-1.29033">
        <ele>46.507</ele>
        <time>2015-09-11T12:49:46.338Z</time>
      </trkpt>
      <trkpt lat="47.04908" lon="-1.29028">
        <ele>45.995</ele>
        <time>2015-09-11T12:49:47.135Z</time>
      </trkpt>
      <trkpt lat="47.04912" lon="-1.29024">
        <ele>45.587</ele>
        <time>2015-09-11T12:49:48.163Z</time>
      </trkpt>
      <trkpt lat="47.04917" lon="-1.29022">
        <ele>45.192</ele>
        <time>2015-09-11T12:49:49.109Z</time>
      </trkpt>
      <trkpt lat="47.04923" lon="-1.29018">
        <ele>45.079</ele>
        <time>2015-09-11T12:49:50.162Z</time>
      </trkpt>
      <trkpt lat="47.04927" lon="-1.29015">
        <ele>44.904</ele>
        <time>2015-09-11T12:49:51.108Z</time>
      </trkpt>
      <trkpt lat="47.04932" lon="-1.29014">
        <ele>44.7</ele>
        <time>2015-09-11T12:49:52.349Z</time>
      </trkpt>
      <trkpt lat="47.04936" lon="-1.29012">
        <ele>44.455</ele>
        <time>2015-09-11T12:49:53.142Z</time>
      </trkpt>
      <trkpt lat="47.04942" lon="-1.2901">
        <ele>44.156</ele>
        <time>2015-09-11T12:49:54.168Z</time>
      </trkpt>
      <trkpt lat="47.04946" lon="-1.2901">
        <ele>44</ele>
        <time>2015-09-11T12:49:55.109Z</time>
      </trkpt>
      <trkpt lat="47.04951" lon="-1.29011">
        <ele>44</ele>
        <time>2015-09-11T12:49:56.382Z</time>
      </trkpt>
      <trkpt lat="47.04956" lon="-1.29012">
        <ele>44</ele>
        <time>2015-09-11T12:49:57.205Z</time>
      </trkpt>
      <trkpt lat="47.04962" lon="-1.29015">
        <ele>44</ele>
        <time>2015-09-11T12:49:59.178Z</time>
      </trkpt>
      <trkpt lat="47.04965" lon="-1.29015">
        <ele>44</ele>
        <time>2015-09-11T12:50:00.135Z</time>
      </trkpt>
      <trkpt lat="47.04957" lon="-1.29013">
        <ele>44</ele>
        <time>2015-09-11T12:50:09.33Z</time>
      </trkpt>
      <trkpt lat="47.04954" lon="-1.29012">
        <ele>44</ele>
        <time>2015-09-11T12:50:10.131Z</time>
      </trkpt>
      <trkpt lat="47.04947" lon="-1.29011">
        <ele>44</ele>
        <time>2015-09-11T12:50:12.342Z</time>
      </trkpt>
      <trkpt lat="47.04942" lon="-1.29011">
        <ele>44.165</ele>
        <time>2015-09-11T12:50:13.142Z</time>
      </trkpt>
      <trkpt lat="47.04937" lon="-1.29011">
        <ele>44.431</ele>
        <time>2015-09-11T12:50:14.165Z</time>
      </trkpt>
      <trkpt lat="47.04933" lon="-1.29012">
        <ele>44.679</ele>
        <time>2015-09-11T12:50:15.108Z</time>
      </trkpt>
      <trkpt lat="47.04926" lon="-1.29015">
        <ele>44.977</ele>
        <time>2015-09-11T12:50:16.375Z</time>
      </trkpt>
      <trkpt lat="47.04922" lon="-1.29017">
        <ele>45.125</ele>
        <time>2015-09-11T12:50:17.143Z</time>
      </trkpt>
      <trkpt lat="47.04914" lon="-1.29023">
        <ele>45.468</ele>
        <time>2015-09-11T12:50:19.172Z</time>
      </trkpt>
      <trkpt lat="47.04909" lon="-1.29026">
        <ele>45.824</ele>
        <time>2015-09-11T12:50:20.141Z</time>
      </trkpt>
      <trkpt lat="47.04905" lon="-1.2903">
        <ele>46.253</ele>
        <time>2015-09-11T12:50:21.354Z</time>
      </trkpt>
      <trkpt lat="47.04901" lon="-1.29034">
        <ele>46.627</ele>
        <time>2015-09-11T12:50:22.139Z</time>
      </trkpt>
      <trkpt lat="47.04895" lon="-1.29041">
        <ele>47.082</ele>
        <time>2015-09-11T12:50:24.162Z</time>
      </trkpt>
      <trkpt lat="47.04892" lon="-1.29043">
        <ele>47.244</ele>
        <time>2015-09-11T12:50:25.136Z</time>
      </trkpt>
      <trkpt lat="47.04884" lon="-1.29041">
        <ele>47.604</ele>
        <time>2015-09-11T12:50:27.345Z</time>
      </trkpt>
      <trkpt lat="47.04881" lon="-1.29037">
        <ele>47.755</ele>
        <time>2015-09-11T12:50:28.144Z</time>
      </trkpt>
      <trkpt lat="47.04876" lon="-1.29026">
        <ele>47.994</ele>
        <time>2015-09-11T12:50:30.174Z</time>
      </trkpt>
      <trkpt lat="47.04874" lon="-1.29021">
        <ele>48.018</ele>
        <time>2015-09-11T12:50:31.109Z</time>
      </trkpt>
      <trkpt lat="47.0487" lon="-1.29014">
        <ele>48.162</ele>
        <time>2015-09-11T12:50:32.357Z</time>
      </trkpt>
      <trkpt lat="47.04868" lon="-1.29009">
        <ele>48.352</ele>
        <time>2015-09-11T12:50:33.139Z</time>
      </trkpt>
      <trkpt lat="47.04863" lon="-1.29001">
        <ele>48.828</ele>
        <time>2015-09-11T12:50:35.375Z</time>
      </trkpt>
      <trkpt lat="47.04861" lon="-1.28995">
        <ele>48.801</ele>
        <time>2015-09-11T12:50:36.143Z</time>
      </trkpt>
      <trkpt lat="47.04855" lon="-1.28986">
        <ele>48.367</ele>
        <time>2015-09-11T12:50:38.474Z</time>
      </trkpt>
      <trkpt lat="47.04851" lon="-1.28981">
        <ele>48.201</ele>
        <time>2015-09-11T12:50:39.15Z</time>
      </trkpt>
      <trkpt lat="47.04846" lon="-1.28971">
        <ele>48</ele>
        <time>2015-09-11T12:50:41.796Z</time>
      </trkpt>
      <trkpt lat="47.04844" lon="-1.28966">
        <ele>48</ele>
        <time>2015-09-11T12:50:42.108Z</time>
      </trkpt>
      <trkpt lat="47.04839" lon="-1.28955">
        <ele>48</ele>
        <time>2015-09-11T12:50:44.325Z</time>
      </trkpt>
      <trkpt lat="47.04836" lon="-1.2895">
        <ele>48</ele>
        <time>2015-09-11T12:50:45.137Z</time>
      </trkpt>
      <trkpt lat="47.04833" lon="-1.28946">
        <ele>48</ele>
        <time>2015-09-11T12:50:46.327Z</time>
      </trkpt>
      <trkpt lat="47.0483" lon="-1.28941">
        <ele>47.88</ele>
        <time>2015-09-11T12:50:47.14Z</time>
      </trkpt>
      <trkpt lat="47.04826" lon="-1.28936">
        <ele>47.762</ele>
        <time>2015-09-11T12:50:48.545Z</time>
      </trkpt>
      <trkpt lat="47.04824" lon="-1.2893">
        <ele>47.656</ele>
        <time>2015-09-11T12:50:49.197Z</time>
      </trkpt>
      <trkpt lat="47.04821" lon="-1.28925">
        <ele>47.616</ele>
        <time>2015-09-11T12:50:50.331Z</time>
      </trkpt>
      <trkpt lat="47.04818" lon="-1.2892">
        <ele>47.607</ele>
        <time>2015-09-11T12:50:51.131Z</time>
      </trkpt>
      <trkpt lat="47.04812" lon="-1.28909">
        <ele>47.764</ele>
        <time>2015-09-11T12:50:53.163Z</time>
      </trkpt>
      <trkpt lat="47.0481" lon="-1.28904">
        <ele>47.833</ele>
        <time>2015-09-11T12:50:54.137Z</time>
      </trkpt>
      <trkpt lat="47.04805" lon="-1.28894">
        <ele>48</ele>
        <time>2015-09-11T12:50:56.164Z</time>
      </trkpt>
      <trkpt lat="47.04803" lon="-1.28889">
        <ele>48</ele>
        <time>2015-09-11T12:50:57.138Z</time>
      </trkpt>
      <trkpt lat="47.04801" lon="-1.28882">
        <ele>48</ele>
        <time>2015-09-11T12:50:58.161Z</time>
      </trkpt>
      <trkpt lat="47.04799" lon="-1.28876">
        <ele>48</ele>
        <time>2015-09-11T12:50:59.109Z</time>
      </trkpt>
      <trkpt lat="47.04797" lon="-1.28871">
        <ele>48</ele>
        <time>2015-09-11T12:51:00.399Z</time>
      </trkpt>
      <trkpt lat="47.04795" lon="-1.28864">
        <ele>48</ele>
        <time>2015-09-11T12:51:01.138Z</time>
      </trkpt>
      <trkpt lat="47.04793" lon="-1.28851">
        <ele>48</ele>
        <time>2015-09-11T12:51:03.694Z</time>
      </trkpt>
      <trkpt lat="47.04791" lon="-1.28845">
        <ele>48</ele>
        <time>2015-09-11T12:51:04.135Z</time>
      </trkpt>
      <trkpt lat="47.04788" lon="-1.28833">
        <ele>48</ele>
        <time>2015-09-11T12:51:06.384Z</time>
      </trkpt>
      <trkpt lat="47.04787" lon="-1.28827">
        <ele>48</ele>
        <time>2015-09-11T12:51:07.134Z</time>
      </trkpt>
      <trkpt lat="47.04786" lon="-1.28821">
        <ele>48</ele>
        <time>2015-09-11T12:51:08.414Z</time>
      </trkpt>
      <trkpt lat="47.04785" lon="-1.28814">
        <ele>48</ele>
        <time>2015-09-11T12:51:09.134Z</time>
      </trkpt>
      <trkpt lat="47.04782" lon="-1.28802">
        <ele>47.978</ele>
        <time>2015-09-11T12:51:11.382Z</time>
      </trkpt>
      <trkpt lat="47.04781" lon="-1.28796">
        <ele>47.965</ele>
        <time>2015-09-11T12:51:12.137Z</time>
      </trkpt>
      <trkpt lat="47.04779" lon="-1.28789">
        <ele>47.974</ele>
        <time>2015-09-11T12:51:13.326Z</time>
      </trkpt>
      <trkpt lat="47.04778" lon="-1.28783">
        <ele>48</ele>
        <time>2015-09-11T12:51:14.137Z</time>
      </trkpt>
      <trkpt lat="47.04776" lon="-1.2877">
        <ele>47.75</ele>
        <time>2015-09-11T12:51:16.163Z</time>
      </trkpt>
      <trkpt lat="47.04775" lon="-1.28763">
        <ele>47.536</ele>
        <time>2015-09-11T12:51:17.144Z</time>
      </trkpt>
      <trkpt lat="47.04773" lon="-1.28751">
        <ele>47.2</ele>
        <time>2015-09-11T12:51:19.334Z</time>
      </trkpt>
      <trkpt lat="47.04771" lon="-1.28744">
        <ele>47.076</ele>
        <time>2015-09-11T12:51:20.144Z</time>
      </trkpt>
      <trkpt lat="47.04771" lon="-1.28735">
        <ele>46.856</ele>
        <time>2015-09-11T12:51:21.367Z</time>
      </trkpt>
      <trkpt lat="47.04769" lon="-1.28727">
        <ele>46.72</ele>
        <time>2015-09-11T12:51:22.14Z</time>
      </trkpt>
      <trkpt lat="47.04769" lon="-1.28719">
        <ele>46.639</ele>
        <time>2015-09-11T12:51:23.395Z</time>
      </trkpt>
      <trkpt lat="47.04768" lon="-1.28713">
        <ele>46.704</ele>
        <time>2015-09-11T12:51:24.141Z</time>
      </trkpt>
      <trkpt lat="47.04767" lon="-1.28706">
        <ele>46.769</ele>
        <time>2015-09-11T12:51:25.339Z</time>
      </trkpt>
      <trkpt lat="47.04766" lon="-1.28699">
        <ele>46.841</ele>
        <time>2015-09-11T12:51:26.143Z</time>
      </trkpt>
      <trkpt lat="47.04765" lon="-1.28691">
        <ele>46.942</ele>
        <time>2015-09-11T12:51:27.204Z</time>
      </trkpt>
      <trkpt lat="47.04764" lon="-1.28683">
        <ele>47.021</ele>
        <time>2015-09-11T12:51:28.107Z</time>
      </trkpt>
      <trkpt lat="47.04761" lon="-1.28677">
        <ele>47.215</ele>
        <time>2015-09-11T12:51:29.218Z</time>
      </trkpt>
      <trkpt lat="47.0476" lon="-1.2867">
        <ele>47.309</ele>
        <time>2015-09-11T12:51:30.144Z</time>
      </trkpt>
      <trkpt lat="47.04758" lon="-1.28662">
        <ele>47.475</ele>
        <time>2015-09-11T12:51:31.165Z</time>
      </trkpt>
      <trkpt lat="47.04757" lon="-1.28654">
        <ele>47.61</ele>
        <time>2015-09-11T12:51:32.114Z</time>
      </trkpt>
      <trkpt lat="47.04756" lon="-1.28646">
        <ele>47.746</ele>
        <time>2015-09-11T12:51:33.172Z</time>
      </trkpt>
      <trkpt lat="47.04754" lon="-1.28638">
        <ele>47.836</ele>
        <time>2015-09-11T12:51:34.109Z</time>
      </trkpt>
      <trkpt lat="47.04753" lon="-1.2863">
        <ele>47.62</ele>
        <time>2015-09-11T12:51:35.781Z</time>
      </trkpt>
      <trkpt lat="47.04752" lon="-1.28622">
        <ele>47.37</ele>
        <time>2015-09-11T12:51:36.117Z</time>
      </trkpt>
      <trkpt lat="47.0475" lon="-1.28616">
        <ele>47.158</ele>
        <time>2015-09-11T12:51:37.161Z</time>
      </trkpt>
      <trkpt lat="47.04748" lon="-1.28608">
        <ele>46.874</ele>
        <time>2015-09-11T12:51:38.135Z</time>
      </trkpt>
      <trkpt lat="47.04745" lon="-1.28601">
        <ele>46.618</ele>
        <time>2015-09-11T12:51:39.167Z</time>
      </trkpt>
      <trkpt lat="47.04743" lon="-1.28592">
        <ele>46.326</ele>
        <time>2015-09-11T12:51:40.109Z</time>
      </trkpt>
      <trkpt lat="47.04741" lon="-1.28583">
        <ele>45.995</ele>
        <time>2015-09-11T12:51:41.334Z</time>
      </trkpt>
      <trkpt lat="47.04739" lon="-1.28576">
        <ele>45.736</ele>
        <time>2015-09-11T12:51:42.139Z</time>
      </trkpt>
      <trkpt lat="47.04736" lon="-1.28569">
        <ele>45.484</ele>
        <time>2015-09-11T12:51:43.324Z</time>
      </trkpt>
      <trkpt lat="47.04733" lon="-1.28561">
        <ele>45.182</ele>
        <time>2015-09-11T12:51:44.133Z</time>
      </trkpt>
      <trkpt lat="47.0473" lon="-1.28554">
        <ele>45</ele>
        <time>2015-09-11T12:51:45.349Z</time>
      </trkpt>
      <trkpt lat="47.04727" lon="-1.28547">
        <ele>45</ele>
        <time>2015-09-11T12:51:46.212Z</time>
      </trkpt>
      <trkpt lat="47.04725" lon="-1.2854">
        <ele>45</ele>
        <time>2015-09-11T12:51:47.151Z</time>
      </trkpt>
      <trkpt lat="47.04723" lon="-1.28534">
        <ele>45</ele>
        <time>2015-09-11T12:51:48.108Z</time>
      </trkpt>
      <trkpt lat="47.04719" lon="-1.28524">
        <ele>45</ele>
        <time>2015-09-11T12:51:50.359Z</time>
      </trkpt>
      <trkpt lat="47.04718" lon="-1.28517">
        <ele>45</ele>
        <time>2015-09-11T12:51:51.14Z</time>
      </trkpt>
      <trkpt lat="47.04716" lon="-1.2851">
        <ele>45</ele>
        <time>2015-09-11T12:51:52.351Z</time>
      </trkpt>
      <trkpt lat="47.04713" lon="-1.28504">
        <ele>45</ele>
        <time>2015-09-11T12:51:53.13Z</time>
      </trkpt>
      <trkpt lat="47.0471" lon="-1.28498">
        <ele>45</ele>
        <time>2015-09-11T12:51:54.333Z</time>
      </trkpt>
      <trkpt lat="47.04708" lon="-1.28492">
        <ele>45</ele>
        <time>2015-09-11T12:51:55.152Z</time>
      </trkpt>
      <trkpt lat="47.04707" lon="-1.28484">
        <ele>45</ele>
        <time>2015-09-11T12:51:56.155Z</time>
      </trkpt>
      <trkpt lat="47.04707" lon="-1.28478">
        <ele>45</ele>
        <time>2015-09-11T12:51:57.107Z</time>
      </trkpt>
      <trkpt lat="47.04708" lon="-1.28469">
        <ele>45.055</ele>
        <time>2015-09-11T12:51:58.358Z</time>
      </trkpt>
      <trkpt lat="47.0471" lon="-1.28462">
        <ele>45.201</ele>
        <time>2015-09-11T12:51:59.148Z</time>
      </trkpt>
      <trkpt lat="47.04714" lon="-1.28457">
        <ele>45.39</ele>
        <time>2015-09-11T12:52:00.435Z</time>
      </trkpt>
      <trkpt lat="47.04719" lon="-1.28453">
        <ele>45.617</ele>
        <time>2015-09-11T12:52:01.139Z</time>
      </trkpt>
      <trkpt lat="47.04727" lon="-1.28449">
        <ele>45.976</ele>
        <time>2015-09-11T12:52:03.385Z</time>
      </trkpt>
      <trkpt lat="47.04732" lon="-1.28448">
        <ele>46.158</ele>
        <time>2015-09-11T12:52:04.109Z</time>
      </trkpt>
      <trkpt lat="47.04737" lon="-1.28441">
        <ele>46.59</ele>
        <time>2015-09-11T12:52:06.345Z</time>
      </trkpt>
      <trkpt lat="47.04739" lon="-1.28436">
        <ele>46.72</ele>
        <time>2015-09-11T12:52:07.138Z</time>
      </trkpt>
      <trkpt lat="47.04738" lon="-1.28426">
        <ele>46.861</ele>
        <time>2015-09-11T12:52:09.161Z</time>
      </trkpt>
      <trkpt lat="47.04738" lon="-1.28421">
        <ele>46.927</ele>
        <time>2015-09-11T12:52:10.119Z</time>
      </trkpt>
      <trkpt lat="47.04731" lon="-1.28414">
        <ele>47.03</ele>
        <time>2015-09-11T12:52:16.392Z</time>
      </trkpt>
      <trkpt lat="47.04729" lon="-1.28412">
        <ele>47.042</ele>
        <time>2015-09-11T12:52:17.11Z</time>
      </trkpt>
      <trkpt lat="47.04727" lon="-1.28402">
        <ele>47.096</ele>
        <time>2015-09-11T12:52:20.347Z</time>
      </trkpt>
      <trkpt lat="47.04729" lon="-1.28398">
        <ele>47.162</ele>
        <time>2015-09-11T12:52:21.165Z</time>
      </trkpt>
      <trkpt lat="47.04734" lon="-1.2839">
        <ele>47.402</ele>
        <time>2015-09-11T12:52:23.349Z</time>
      </trkpt>
      <trkpt lat="47.04736" lon="-1.28389">
        <ele>47.483</ele>
        <time>2015-09-11T12:52:24.133Z</time>
      </trkpt>
      <trkpt lat="47.04741" lon="-1.28381">
        <ele>47.76</ele>
        <time>2015-09-11T12:52:26.161Z</time>
      </trkpt>
      <trkpt lat="47.04742" lon="-1.28376">
        <ele>47.858</ele>
        <time>2015-09-11T12:52:27.109Z</time>
      </trkpt>
      <trkpt lat="47.04745" lon="-1.2837">
        <ele>47.936</ele>
        <time>2015-09-11T12:52:28.611Z</time>
      </trkpt>
      <trkpt lat="47.04747" lon="-1.28364">
        <ele>47.99</ele>
        <time>2015-09-11T12:52:29.109Z</time>
      </trkpt>
      <trkpt lat="47.04752" lon="-1.28356">
        <ele>47.957</ele>
        <time>2015-09-11T12:52:31.375Z</time>
      </trkpt>
      <trkpt lat="47.04754" lon="-1.28352">
        <ele>47.912</ele>
        <time>2015-09-11T12:52:32.233Z</time>
      </trkpt>
      <trkpt lat="47.04758" lon="-1.28344">
        <ele>47.895</ele>
        <time>2015-09-11T12:52:34.18Z</time>
      </trkpt>
      <trkpt lat="47.0476" lon="-1.2834">
        <ele>47.914</ele>
        <time>2015-09-11T12:52:35.13Z</time>
      </trkpt>
      <trkpt lat="47.04763" lon="-1.28332">
        <ele>48</ele>
        <time>2015-09-11T12:52:37.161Z</time>
      </trkpt>
      <trkpt lat="47.04764" lon="-1.28328">
        <ele>48</ele>
        <time>2015-09-11T12:52:38.136Z</time>
      </trkpt>
      <trkpt lat="47.04767" lon="-1.28319">
        <ele>48</ele>
        <time>2015-09-11T12:52:40.16Z</time>
      </trkpt>
      <trkpt lat="47.04769" lon="-1.28316">
        <ele>48</ele>
        <time>2015-09-11T12:52:41.158Z</time>
      </trkpt>
      <trkpt lat="47.04773" lon="-1.28309">
        <ele>48</ele>
        <time>2015-09-11T12:52:43.208Z</time>
      </trkpt>
      <trkpt lat="47.04776" lon="-1.28305">
        <ele>48</ele>
        <time>2015-09-11T12:52:44.13Z</time>
      </trkpt>
      <trkpt lat="47.04781" lon="-1.28297">
        <ele>47.88</ele>
        <time>2015-09-11T12:52:46.397Z</time>
      </trkpt>
      <trkpt lat="47.04784" lon="-1.28292">
        <ele>47.79</ele>
        <time>2015-09-11T12:52:47.142Z</time>
      </trkpt>
      <trkpt lat="47.04789" lon="-1.28284">
        <ele>47.603</ele>
        <time>2015-09-11T12:52:49.162Z</time>
      </trkpt>
      <trkpt lat="47.04795" lon="-1.28276">
        <ele>47.348</ele>
        <time>2015-09-11T12:52:50.14Z</time>
      </trkpt>
      <trkpt lat="47.04802" lon="-1.28268">
        <ele>47.092</ele>
        <time>2015-09-11T12:52:52.162Z</time>
      </trkpt>
      <trkpt lat="47.04804" lon="-1.28263">
        <ele>47.033</ele>
        <time>2015-09-11T12:52:53.137Z</time>
      </trkpt>
      <trkpt lat="47.04809" lon="-1.2826">
        <ele>47.135</ele>
        <time>2015-09-11T12:52:56.343Z</time>
      </trkpt>
      <trkpt lat="47.04813" lon="-1.28256">
        <ele>47.272</ele>
        <time>2015-09-11T12:52:57.14Z</time>
      </trkpt>
      <trkpt lat="47.04817" lon="-1.2825">
        <ele>47.423</ele>
        <time>2015-09-11T12:52:59.161Z</time>
      </trkpt>
      <trkpt lat="47.0482" lon="-1.28244">
        <ele>47.506</ele>
        <time>2015-09-11T12:53:00.224Z</time>
      </trkpt>
      <trkpt lat="47.04825" lon="-1.28239">
        <ele>47.707</ele>
        <time>2015-09-11T12:53:02.161Z</time>
      </trkpt>
      <trkpt lat="47.04828" lon="-1.28236">
        <ele>47.812</ele>
        <time>2015-09-11T12:53:03.14Z</time>
      </trkpt>
      <trkpt lat="47.04834" lon="-1.28229">
        <ele>48.01</ele>
        <time>2015-09-11T12:53:05.349Z</time>
      </trkpt>
      <trkpt lat="47.04837" lon="-1.28226">
        <ele>48.103</ele>
        <time>2015-09-11T12:53:06.144Z</time>
      </trkpt>
      <trkpt lat="47.04842" lon="-1.2822">
        <ele>48.376</ele>
        <time>2015-09-11T12:53:08.342Z</time>
      </trkpt>
      <trkpt lat="47.04845" lon="-1.28218">
        <ele>48.525</ele>
        <time>2015-09-11T12:53:09.134Z</time>
      </trkpt>
      <trkpt lat="47.04851" lon="-1.28213">
        <ele>48.761</ele>
        <time>2015-09-11T12:53:11.164Z</time>
      </trkpt>
      <trkpt lat="47.04854" lon="-1.28211">
        <ele>48.857</ele>
        <time>2015-09-11T12:53:12.136Z</time>
      </trkpt>
      <trkpt lat="47.04861" lon="-1.28206">
        <ele>48.997</ele>
        <time>2015-09-11T12:53:14.161Z</time>
      </trkpt>
      <trkpt lat="47.04864" lon="-1.28204">
        <ele>48.966</ele>
        <time>2015-09-11T12:53:15.11Z</time>
      </trkpt>
      <trkpt lat="47.0487" lon="-1.28199">
        <ele>48.949</ele>
        <time>2015-09-11T12:53:17.348Z</time>
      </trkpt>
      <trkpt lat="47.04873" lon="-1.28197">
        <ele>48.967</ele>
        <time>2015-09-11T12:53:18.139Z</time>
      </trkpt>
      <trkpt lat="47.04879" lon="-1.28193">
        <ele>49.032</ele>
        <time>2015-09-11T12:53:20.179Z</time>
      </trkpt>
      <trkpt lat="47.04882" lon="-1.28192">
        <ele>49.08</ele>
        <time>2015-09-11T12:53:21.141Z</time>
      </trkpt>
      <trkpt lat="47.04888" lon="-1.28188">
        <ele>49.223</ele>
        <time>2015-09-11T12:53:23.469Z</time>
      </trkpt>
      <trkpt lat="47.04891" lon="-1.28187">
        <ele>49.286</ele>
        <time>2015-09-11T12:53:24.113Z</time>
      </trkpt>
      <trkpt lat="47.04896" lon="-1.28183">
        <ele>49.401</ele>
        <time>2015-09-11T12:53:26.368Z</time>
      </trkpt>
      <trkpt lat="47.04899" lon="-1.28182">
        <ele>49.448</ele>
        <time>2015-09-11T12:53:27.138Z</time>
      </trkpt>
      <trkpt lat="47.04905" lon="-1.28178">
        <ele>49.592</ele>
        <time>2015-09-11T12:53:29.169Z</time>
      </trkpt>
      <trkpt lat="47.04908" lon="-1.28176">
        <ele>49.678</ele>
        <time>2015-09-11T12:53:30.138Z</time>
      </trkpt>
      <trkpt lat="47.04914" lon="-1.28171">
        <ele>49.844</ele>
        <time>2015-09-11T12:53:32.163Z</time>
      </trkpt>
      <trkpt lat="47.04918" lon="-1.28169">
        <ele>49.923</ele>
        <time>2015-09-11T12:53:33.142Z</time>
      </trkpt>
      <trkpt lat="47.04923" lon="-1.28164">
        <ele>50</ele>
        <time>2015-09-11T12:53:35.159Z</time>
      </trkpt>
      <trkpt lat="47.04926" lon="-1.28162">
        <ele>50</ele>
        <time>2015-09-11T12:53:36.141Z</time>
      </trkpt>
      <trkpt lat="47.04932" lon="-1.28158">
        <ele>50</ele>
        <time>2015-09-11T12:53:38.168Z</time>
      </trkpt>
      <trkpt lat="47.04935" lon="-1.28156">
        <ele>50</ele>
        <time>2015-09-11T12:53:39.14Z</time>
      </trkpt>
      <trkpt lat="47.04942" lon="-1.28151">
        <ele>50</ele>
        <time>2015-09-11T12:53:41.39Z</time>
      </trkpt>
      <trkpt lat="47.04945" lon="-1.28149">
        <ele>50</ele>
        <time>2015-09-11T12:53:42.145Z</time>
      </trkpt>
      <trkpt lat="47.04951" lon="-1.28144">
        <ele>50</ele>
        <time>2015-09-11T12:53:44.204Z</time>
      </trkpt>
      <trkpt lat="47.04953" lon="-1.28141">
        <ele>50</ele>
        <time>2015-09-11T12:53:45.109Z</time>
      </trkpt>
      <trkpt lat="47.04959" lon="-1.28136">
        <ele>50.115</ele>
        <time>2015-09-11T12:53:47.164Z</time>
      </trkpt>
      <trkpt lat="47.04962" lon="-1.28133">
        <ele>50.219</ele>
        <time>2015-09-11T12:53:48.135Z</time>
      </trkpt>
      <trkpt lat="47.04968" lon="-1.28127">
        <ele>50.417</ele>
        <time>2015-09-11T12:53:50.164Z</time>
      </trkpt>
      <trkpt lat="47.04971" lon="-1.28125">
        <ele>50.507</ele>
        <time>2015-09-11T12:53:51.147Z</time>
      </trkpt>
      <trkpt lat="47.04977" lon="-1.28119">
        <ele>50.751</ele>
        <time>2015-09-11T12:53:53.168Z</time>
      </trkpt>
      <trkpt lat="47.0498" lon="-1.28116">
        <ele>50.868</ele>
        <time>2015-09-11T12:53:54.144Z</time>
      </trkpt>
      <trkpt lat="47.04987" lon="-1.2811">
        <ele>51</ele>
        <time>2015-09-11T12:53:56.165Z</time>
      </trkpt>
      <trkpt lat="47.0499" lon="-1.28107">
        <ele>51</ele>
        <time>2015-09-11T12:53:57.145Z</time>
      </trkpt>
      <trkpt lat="47.04997" lon="-1.28103">
        <ele>51</ele>
        <time>2015-09-11T12:53:59.161Z</time>
      </trkpt>
      <trkpt lat="47.05001" lon="-1.281">
        <ele>51</ele>
        <time>2015-09-11T12:54:00.329Z</time>
      </trkpt>
      <trkpt lat="47.05007" lon="-1.28095">
        <ele>51</ele>
        <time>2015-09-11T12:54:02.159Z</time>
      </trkpt>
      <trkpt lat="47.0501" lon="-1.28092">
        <ele>51</ele>
        <time>2015-09-11T12:54:03.143Z</time>
      </trkpt>
      <trkpt lat="47.05016" lon="-1.28086">
        <ele>51</ele>
        <time>2015-09-11T12:54:05.169Z</time>
      </trkpt>
      <trkpt lat="47.05018" lon="-1.28083">
        <ele>50.974</ele>
        <time>2015-09-11T12:54:06.112Z</time>
      </trkpt>
      <trkpt lat="47.05024" lon="-1.28076">
        <ele>50.747</ele>
        <time>2015-09-11T12:54:08.357Z</time>
      </trkpt>
      <trkpt lat="47.05027" lon="-1.28074">
        <ele>50.646</ele>
        <time>2015-09-11T12:54:09.136Z</time>
      </trkpt>
      <trkpt lat="47.05033" lon="-1.28068">
        <ele>50.437</ele>
        <time>2015-09-11T12:54:11.392Z</time>
      </trkpt>
      <trkpt lat="47.05035" lon="-1.28065">
        <ele>50.322</ele>
        <time>2015-09-11T12:54:12.137Z</time>
      </trkpt>
      <trkpt lat="47.05042" lon="-1.28058">
        <ele>50.092</ele>
        <time>2015-09-11T12:54:14.26Z</time>
      </trkpt>
      <trkpt lat="47.05045" lon="-1.28055">
        <ele>49.994</ele>
        <time>2015-09-11T12:54:15.114Z</time>
      </trkpt>
      <trkpt lat="47.0505" lon="-1.2805">
        <ele>49.786</ele>
        <time>2015-09-11T12:54:17.167Z</time>
      </trkpt>
      <trkpt lat="47.05053" lon="-1.28047">
        <ele>49.678</ele>
        <time>2015-09-11T12:54:18.112Z</time>
      </trkpt>
      <trkpt lat="47.05059" lon="-1.28041">
        <ele>49.487</ele>
        <time>2015-09-11T12:54:20.414Z</time>
      </trkpt>
      <trkpt lat="47.05061" lon="-1.28039">
        <ele>49.386</ele>
        <time>2015-09-11T12:54:21.107Z</time>
      </trkpt>
      <trkpt lat="47.05068" lon="-1.2803">
        <ele>49.069</ele>
        <time>2015-09-11T12:54:24.184Z</time>
      </trkpt>
      <trkpt lat="47.0507" lon="-1.28027">
        <ele>49</ele>
        <time>2015-09-11T12:54:25.111Z</time>
      </trkpt>
      <trkpt lat="47.05075" lon="-1.28021">
        <ele>49</ele>
        <time>2015-09-11T12:54:28.167Z</time>
      </trkpt>
      <trkpt lat="47.05077" lon="-1.28018">
        <ele>49</ele>
        <time>2015-09-11T12:54:29.107Z</time>
      </trkpt>
      <trkpt lat="47.05083" lon="-1.28009">
        <ele>49</ele>
        <time>2015-09-11T12:54:33.693Z</time>
      </trkpt>
      <trkpt lat="47.05085" lon="-1.28007">
        <ele>49.012</ele>
        <time>2015-09-11T12:54:34.127Z</time>
      </trkpt>
      <trkpt lat="47.05091" lon="-1.28">
        <ele>48.999</ele>
        <time>2015-09-11T12:54:41.353Z</time>
      </trkpt>
      <trkpt lat="47.05092" lon="-1.27999">
        <ele>48.992</ele>
        <time>2015-09-11T12:54:42.164Z</time>
      </trkpt>
      <trkpt lat="47.05099" lon="-1.27993">
        <ele>48.865</ele>
        <time>2015-09-11T12:56:05.332Z</time>
      </trkpt>
      <trkpt lat="47.05101" lon="-1.27991">
        <ele>48.8</ele>
        <time>2015-09-11T12:56:06.141Z</time>
      </trkpt>
      <trkpt lat="47.05106" lon="-1.27985">
        <ele>48.547</ele>
        <time>2015-09-11T12:56:08.162Z</time>
      </trkpt>
      <trkpt lat="47.05109" lon="-1.27981">
        <ele>48.368</ele>
        <time>2015-09-11T12:56:09.192Z</time>
      </trkpt>
      <trkpt lat="47.05116" lon="-1.27973">
        <ele>48.042</ele>
        <time>2015-09-11T12:56:11.357Z</time>
      </trkpt>
      <trkpt lat="47.05118" lon="-1.2797">
        <ele>48</ele>
        <time>2015-09-11T12:56:12.199Z</time>
      </trkpt>
      <trkpt lat="47.05123" lon="-1.27966">
        <ele>48</ele>
        <time>2015-09-11T12:56:13.161Z</time>
      </trkpt>
      <trkpt lat="47.05126" lon="-1.27963">
        <ele>48</ele>
        <time>2015-09-11T12:56:14.107Z</time>
      </trkpt>
      <trkpt lat="47.05132" lon="-1.27956">
        <ele>48</ele>
        <time>2015-09-11T12:56:16.165Z</time>
      </trkpt>
      <trkpt lat="47.05135" lon="-1.27953">
        <ele>48</ele>
        <time>2015-09-11T12:56:17.107Z</time>
      </trkpt>
      <trkpt lat="47.0514" lon="-1.27947">
        <ele>48.047</ele>
        <time>2015-09-11T12:56:19.163Z</time>
      </trkpt>
      <trkpt lat="47.05143" lon="-1.27944">
        <ele>48.144</ele>
        <time>2015-09-11T12:56:20.11Z</time>
      </trkpt>
      <trkpt lat="47.05149" lon="-1.27938">
        <ele>48.35</ele>
        <time>2015-09-11T12:56:22.163Z</time>
      </trkpt>
      <trkpt lat="47.05152" lon="-1.27935">
        <ele>48.454</ele>
        <time>2015-09-11T12:56:23.106Z</time>
      </trkpt>
      <trkpt lat="47.05157" lon="-1.27929">
        <ele>48.666</ele>
        <time>2015-09-11T12:56:25.163Z</time>
      </trkpt>
      <trkpt lat="47.0516" lon="-1.27926">
        <ele>48.767</ele>
        <time>2015-09-11T12:56:26.107Z</time>
      </trkpt>
      <trkpt lat="47.05166" lon="-1.2792">
        <ele>48.987</ele>
        <time>2015-09-11T12:56:28.367Z</time>
      </trkpt>
      <trkpt lat="47.05169" lon="-1.27917">
        <ele>49.098</ele>
        <time>2015-09-11T12:56:29.137Z</time>
      </trkpt>
      <trkpt lat="47.05174" lon="-1.27907">
        <ele>49.271</ele>
        <time>2015-09-11T12:56:32.417Z</time>
      </trkpt>
      <trkpt lat="47.05173" lon="-1.27903">
        <ele>49.242</ele>
        <time>2015-09-11T12:56:33.271Z</time>
      </trkpt>
      <trkpt lat="47.0517" lon="-1.27894">
        <ele>49.124</ele>
        <time>2015-09-11T12:56:35.163Z</time>
      </trkpt>
      <trkpt lat="47.05169" lon="-1.27889">
        <ele>49.073</ele>
        <time>2015-09-11T12:56:36.14Z</time>
      </trkpt>
      <trkpt lat="47.05164" lon="-1.27879">
        <ele>48.552</ele>
        <time>2015-09-11T12:56:40.362Z</time>
      </trkpt>
      <trkpt lat="47.05163" lon="-1.27877">
        <ele>48.444</ele>
        <time>2015-09-11T12:56:41.153Z</time>
      </trkpt>
      <trkpt lat="47.05162" lon="-1.27865">
        <ele>47.958</ele>
        <time>2015-09-11T12:57:29.168Z</time>
      </trkpt>
      <trkpt lat="47.05161" lon="-1.2786">
        <ele>47.764</ele>
        <time>2015-09-11T12:57:30.134Z</time>
      </trkpt>
      <trkpt lat="47.05158" lon="-1.2785">
        <ele>47.409</ele>
        <time>2015-09-11T12:57:32.188Z</time>
      </trkpt>
      <trkpt lat="47.05157" lon="-1.27844">
        <ele>47.241</ele>
        <time>2015-09-11T12:57:33.159Z</time>
      </trkpt>
      <trkpt lat="47.05154" lon="-1.27831">
        <ele>46.93</ele>
        <time>2015-09-11T12:57:35.294Z</time>
      </trkpt>
      <trkpt lat="47.05153" lon="-1.27825">
        <ele>46.707</ele>
        <time>2015-09-11T12:57:36.129Z</time>
      </trkpt>
      <trkpt lat="47.05149" lon="-1.27815">
        <ele>46.329</ele>
        <time>2015-09-11T12:57:37.171Z</time>
      </trkpt>
      <trkpt lat="47.05147" lon="-1.27808">
        <ele>46.092</ele>
        <time>2015-09-11T12:57:38.107Z</time>
      </trkpt>
      <trkpt lat="47.05145" lon="-1.27801">
        <ele>45.843</ele>
        <time>2015-09-11T12:57:39.231Z</time>
      </trkpt>
      <trkpt lat="47.05144" lon="-1.27794">
        <ele>45.577</ele>
        <time>2015-09-11T12:57:40.134Z</time>
      </trkpt>
      <trkpt lat="47.05142" lon="-1.27785">
        <ele>45.274</ele>
        <time>2015-09-11T12:57:41.163Z</time>
      </trkpt>
      <trkpt lat="47.05139" lon="-1.27778">
        <ele>45.022</ele>
        <time>2015-09-11T12:57:42.115Z</time>
      </trkpt>
      <trkpt lat="47.05137" lon="-1.27771">
        <ele>45.079</ele>
        <time>2015-09-11T12:57:43.35Z</time>
      </trkpt>
      <trkpt lat="47.05135" lon="-1.27762">
        <ele>45.129</ele>
        <time>2015-09-11T12:57:44.134Z</time>
      </trkpt>
      <trkpt lat="47.05133" lon="-1.27755">
        <ele>45.201</ele>
        <time>2015-09-11T12:57:45.165Z</time>
      </trkpt>
      <trkpt lat="47.05131" lon="-1.27748">
        <ele>45.334</ele>
        <time>2015-09-11T12:57:46.108Z</time>
      </trkpt>
      <trkpt lat="47.05129" lon="-1.2774">
        <ele>45.716</ele>
        <time>2015-09-11T12:57:47.371Z</time>
      </trkpt>
      <trkpt lat="47.05127" lon="-1.27732">
        <ele>46.112</ele>
        <time>2015-09-11T12:57:48.13Z</time>
      </trkpt>
      <trkpt lat="47.05123" lon="-1.27724">
        <ele>46.494</ele>
        <time>2015-09-11T12:57:49.344Z</time>
      </trkpt>
      <trkpt lat="47.05121" lon="-1.27716">
        <ele>46.658</ele>
        <time>2015-09-11T12:57:50.138Z</time>
      </trkpt>
      <trkpt lat="47.05119" lon="-1.27707">
        <ele>46.727</ele>
        <time>2015-09-11T12:57:51.352Z</time>
      </trkpt>
      <trkpt lat="47.05118" lon="-1.27697">
        <ele>46.763</ele>
        <time>2015-09-11T12:57:52.144Z</time>
      </trkpt>
      <trkpt lat="47.05116" lon="-1.27689">
        <ele>46.671</ele>
        <time>2015-09-11T12:57:53.163Z</time>
      </trkpt>
      <trkpt lat="47.05113" lon="-1.2768">
        <ele>46.459</ele>
        <time>2015-09-11T12:57:54.107Z</time>
      </trkpt>
      <trkpt lat="47.05112" lon="-1.27672">
        <ele>46.198</ele>
        <time>2015-09-11T12:57:55.347Z</time>
      </trkpt>
      <trkpt lat="47.0511" lon="-1.27664">
        <ele>46.03</ele>
        <time>2015-09-11T12:57:56.165Z</time>
      </trkpt>
      <trkpt lat="47.05112" lon="-1.27655">
        <ele>45.994</ele>
        <time>2015-09-11T12:57:57.164Z</time>
      </trkpt>
      <trkpt lat="47.05114" lon="-1.27651">
        <ele>45.945</ele>
        <time>2015-09-11T12:57:58.107Z</time>
      </trkpt>
      <trkpt lat="47.05122" lon="-1.2765">
        <ele>45.765</ele>
        <time>2015-09-11T12:58:00.483Z</time>
      </trkpt>
      <trkpt lat="47.05127" lon="-1.27651">
        <ele>45.675</ele>
        <time>2015-09-11T12:58:01.114Z</time>
      </trkpt>
      <trkpt lat="47.05132" lon="-1.27652">
        <ele>45.585</ele>
        <time>2015-09-11T12:58:02.161Z</time>
      </trkpt>
      <trkpt lat="47.05137" lon="-1.27653">
        <ele>45.526</ele>
        <time>2015-09-11T12:58:03.13Z</time>
      </trkpt>
      <trkpt lat="47.05143" lon="-1.27654">
        <ele>45.533</ele>
        <time>2015-09-11T12:58:04.191Z</time>
      </trkpt>
      <trkpt lat="47.05149" lon="-1.27655">
        <ele>45.573</ele>
        <time>2015-09-11T12:58:05.106Z</time>
      </trkpt>
      <trkpt lat="47.05154" lon="-1.27655">
        <ele>45.591</ele>
        <time>2015-09-11T12:58:06.441Z</time>
      </trkpt>
      <trkpt lat="47.05159" lon="-1.27657">
        <ele>45.648</ele>
        <time>2015-09-11T12:58:07.136Z</time>
      </trkpt>
      <trkpt lat="47.05164" lon="-1.27658">
        <ele>45.681</ele>
        <time>2015-09-11T12:58:08.173Z</time>
      </trkpt>
      <trkpt lat="47.0517" lon="-1.27656">
        <ele>45.669</ele>
        <time>2015-09-11T12:58:09.105Z</time>
      </trkpt>
      <trkpt lat="47.05175" lon="-1.27658">
        <ele>45.776</ele>
        <time>2015-09-11T12:58:10.187Z</time>
      </trkpt>
      <trkpt lat="47.0518" lon="-1.2766">
        <ele>45.876</ele>
        <time>2015-09-11T12:58:11.108Z</time>
      </trkpt>
      <trkpt lat="47.05185" lon="-1.27665">
        <ele>45.982</ele>
        <time>2015-09-11T12:58:12.349Z</time>
      </trkpt>
      <trkpt lat="47.05191" lon="-1.27669">
        <ele>46</ele>
        <time>2015-09-11T12:58:13.171Z</time>
      </trkpt>
      <trkpt lat="47.05197" lon="-1.27672">
        <ele>46</ele>
        <time>2015-09-11T12:58:14.324Z</time>
      </trkpt>
      <trkpt lat="47.05203" lon="-1.27672">
        <ele>46</ele>
        <time>2015-09-11T12:58:15.144Z</time>
      </trkpt>
      <trkpt lat="47.05207" lon="-1.27672">
        <ele>46</ele>
        <time>2015-09-11T12:58:16.166Z</time>
      </trkpt>
      <trkpt lat="47.05214" lon="-1.27676">
        <ele>46</ele>
        <time>2015-09-11T12:58:17.114Z</time>
      </trkpt>
      <trkpt lat="47.05221" lon="-1.27677">
        <ele>46</ele>
        <time>2015-09-11T12:58:18.512Z</time>
      </trkpt>
      <trkpt lat="47.05227" lon="-1.27679">
        <ele>46.072</ele>
        <time>2015-09-11T12:58:19.139Z</time>
      </trkpt>
      <trkpt lat="47.05232" lon="-1.27682">
        <ele>46.201</ele>
        <time>2015-09-11T12:58:20.372Z</time>
      </trkpt>
      <trkpt lat="47.05238" lon="-1.27684">
        <ele>46.363</ele>
        <time>2015-09-11T12:58:21.141Z</time>
      </trkpt>
      <trkpt lat="47.05244" lon="-1.27685">
        <ele>46.53</ele>
        <time>2015-09-11T12:58:22.362Z</time>
      </trkpt>
      <trkpt lat="47.05251" lon="-1.27686">
        <ele>46.696</ele>
        <time>2015-09-11T12:58:23.158Z</time>
      </trkpt>
      <trkpt lat="47.05256" lon="-1.27687">
        <ele>46.746</ele>
        <time>2015-09-11T12:58:24.172Z</time>
      </trkpt>
      <trkpt lat="47.05261" lon="-1.27689">
        <ele>46.804</ele>
        <time>2015-09-11T12:58:25.108Z</time>
      </trkpt>
      <trkpt lat="47.05268" lon="-1.27691">
        <ele>46.872</ele>
        <time>2015-09-11T12:58:26.357Z</time>
      </trkpt>
      <trkpt lat="47.05272" lon="-1.2769">
        <ele>46.854</ele>
        <time>2015-09-11T12:58:27.141Z</time>
      </trkpt>
      <trkpt lat="47.05276" lon="-1.27692">
        <ele>46.912</ele>
        <time>2015-09-11T12:58:29.022Z</time>
      </trkpt>
      <trkpt lat="47.05282" lon="-1.27694">
        <ele>46.984</ele>
        <time>2015-09-11T12:58:29.119Z</time>
      </trkpt>
      <trkpt lat="47.05286" lon="-1.27695">
        <ele>47.005</ele>
        <time>2015-09-11T12:58:30.161Z</time>
      </trkpt>
      <trkpt lat="47.05291" lon="-1.27697">
        <ele>47.036</ele>
        <time>2015-09-11T12:58:31.147Z</time>
      </trkpt>
      <trkpt lat="47.05296" lon="-1.27699">
        <ele>47.112</ele>
        <time>2015-09-11T12:58:32.413Z</time>
      </trkpt>
      <trkpt lat="47.05301" lon="-1.27701">
        <ele>47.202</ele>
        <time>2015-09-11T12:58:33.125Z</time>
      </trkpt>
      <trkpt lat="47.05306" lon="-1.27704">
        <ele>47.356</ele>
        <time>2015-09-11T12:58:34.164Z</time>
      </trkpt>
      <trkpt lat="47.0531" lon="-1.27705">
        <ele>47.482</ele>
        <time>2015-09-11T12:58:35.113Z</time>
      </trkpt>
      <trkpt lat="47.05315" lon="-1.27706">
        <ele>47.615</ele>
        <time>2015-09-11T12:58:36.396Z</time>
      </trkpt>
      <trkpt lat="47.0532" lon="-1.27708">
        <ele>47.761</ele>
        <time>2015-09-11T12:58:37.139Z</time>
      </trkpt>
      <trkpt lat="47.05325" lon="-1.27708">
        <ele>47.844</ele>
        <time>2015-09-11T12:58:38.892Z</time>
      </trkpt>
      <trkpt lat="47.0533" lon="-1.27709">
        <ele>47.941</ele>
        <time>2015-09-11T12:58:39.106Z</time>
      </trkpt>
      <trkpt lat="47.05335" lon="-1.27712">
        <ele>48.046</ele>
        <time>2015-09-11T12:58:40.169Z</time>
      </trkpt>
      <trkpt lat="47.0534" lon="-1.27712">
        <ele>48.157</ele>
        <time>2015-09-11T12:58:41.109Z</time>
      </trkpt>
      <trkpt lat="47.05345" lon="-1.27711">
        <ele>48.26</ele>
        <time>2015-09-11T12:58:42.167Z</time>
      </trkpt>
      <trkpt lat="47.05351" lon="-1.27711">
        <ele>48.379</ele>
        <time>2015-09-11T12:58:43.135Z</time>
      </trkpt>
      <trkpt lat="47.05356" lon="-1.27712">
        <ele>48.502</ele>
        <time>2015-09-11T12:58:44.444Z</time>
      </trkpt>
      <trkpt lat="47.0536" lon="-1.27713">
        <ele>48.629</ele>
        <time>2015-09-11T12:58:45.146Z</time>
      </trkpt>
      <trkpt lat="47.05368" lon="-1.27715">
        <ele>48.999</ele>
        <time>2015-09-11T12:58:47.373Z</time>
      </trkpt>
      <trkpt lat="47.05373" lon="-1.27716">
        <ele>49.197</ele>
        <time>2015-09-11T12:58:48.132Z</time>
      </trkpt>
      <trkpt lat="47.0538" lon="-1.27715">
        <ele>49.416</ele>
        <time>2015-09-11T12:58:50.162Z</time>
      </trkpt>
      <trkpt lat="47.05385" lon="-1.27714">
        <ele>49.575</ele>
        <time>2015-09-11T12:58:51.132Z</time>
      </trkpt>
      <trkpt lat="47.05389" lon="-1.27715">
        <ele>49.74</ele>
        <time>2015-09-11T12:58:52.394Z</time>
      </trkpt>
      <trkpt lat="47.05395" lon="-1.27712">
        <ele>49.491</ele>
        <time>2015-09-11T12:58:53.139Z</time>
      </trkpt>
      <trkpt lat="47.05401" lon="-1.27711">
        <ele>49.342</ele>
        <time>2015-09-11T12:58:55.337Z</time>
      </trkpt>
      <trkpt lat="47.05405" lon="-1.2771">
        <ele>49.243</ele>
        <time>2015-09-11T12:58:56.153Z</time>
      </trkpt>
      <trkpt lat="47.05414" lon="-1.27712">
        <ele>49.068</ele>
        <time>2015-09-11T12:58:58.562Z</time>
      </trkpt>
      <trkpt lat="47.05418" lon="-1.27711">
        <ele>49</ele>
        <time>2015-09-11T12:58:59.128Z</time>
      </trkpt>
      <trkpt lat="47.05423" lon="-1.27711">
        <ele>49</ele>
        <time>2015-09-11T12:59:00.299Z</time>
      </trkpt>
      <trkpt lat="47.0543" lon="-1.27711">
        <ele>49</ele>
        <time>2015-09-11T12:59:01.106Z</time>
      </trkpt>
      <trkpt lat="47.05435" lon="-1.27711">
        <ele>49</ele>
        <time>2015-09-11T12:59:02.298Z</time>
      </trkpt>
      <trkpt lat="47.05439" lon="-1.2771">
        <ele>49</ele>
        <time>2015-09-11T12:59:03.14Z</time>
      </trkpt>
      <trkpt lat="47.05443" lon="-1.27708">
        <ele>49</ele>
        <time>2015-09-11T12:59:04.162Z</time>
      </trkpt>
      <trkpt lat="47.05448" lon="-1.2771">
        <ele>48.868</ele>
        <time>2015-09-11T12:59:05.111Z</time>
      </trkpt>
      <trkpt lat="47.05455" lon="-1.27711">
        <ele>48.613</ele>
        <time>2015-09-11T12:59:06.353Z</time>
      </trkpt>
      <trkpt lat="47.0546" lon="-1.27712">
        <ele>48.447</ele>
        <time>2015-09-11T12:59:07.132Z</time>
      </trkpt>
      <trkpt lat="47.05465" lon="-1.27711">
        <ele>48.271</ele>
        <time>2015-09-11T12:59:08.165Z</time>
      </trkpt>
      <trkpt lat="47.0547" lon="-1.27713">
        <ele>48.087</ele>
        <time>2015-09-11T12:59:09.106Z</time>
      </trkpt>
      <trkpt lat="47.05475" lon="-1.27716">
        <ele>47.982</ele>
        <time>2015-09-11T12:59:10.175Z</time>
      </trkpt>
      <trkpt lat="47.0548" lon="-1.27719">
        <ele>47.968</ele>
        <time>2015-09-11T12:59:11.108Z</time>
      </trkpt>
      <trkpt lat="47.05485" lon="-1.27721">
        <ele>47.98</ele>
        <time>2015-09-11T12:59:12.348Z</time>
      </trkpt>
      <trkpt lat="47.05489" lon="-1.27723">
        <ele>48</ele>
        <time>2015-09-11T12:59:13.138Z</time>
      </trkpt>
      <trkpt lat="47.05494" lon="-1.27726">
        <ele>48</ele>
        <time>2015-09-11T12:59:14.388Z</time>
      </trkpt>
      <trkpt lat="47.055" lon="-1.27729">
        <ele>48</ele>
        <time>2015-09-11T12:59:15.157Z</time>
      </trkpt>
      <trkpt lat="47.05505" lon="-1.27732">
        <ele>48</ele>
        <time>2015-09-11T12:59:16.355Z</time>
      </trkpt>
      <trkpt lat="47.0551" lon="-1.27736">
        <ele>48</ele>
        <time>2015-09-11T12:59:17.14Z</time>
      </trkpt>
      <trkpt lat="47.05514" lon="-1.2774">
        <ele>48</ele>
        <time>2015-09-11T12:59:18.405Z</time>
      </trkpt>
      <trkpt lat="47.05518" lon="-1.27743">
        <ele>48</ele>
        <time>2015-09-11T12:59:19.145Z</time>
      </trkpt>
      <trkpt lat="47.05522" lon="-1.27747">
        <ele>48</ele>
        <time>2015-09-11T12:59:20.174Z</time>
      </trkpt>
      <trkpt lat="47.05526" lon="-1.2775">
        <ele>48</ele>
        <time>2015-09-11T12:59:21.113Z</time>
      </trkpt>
      <trkpt lat="47.05531" lon="-1.27753">
        <ele>47.782</ele>
        <time>2015-09-11T12:59:22.343Z</time>
      </trkpt>
      <trkpt lat="47.05536" lon="-1.27757">
        <ele>47.545</ele>
        <time>2015-09-11T12:59:23.141Z</time>
      </trkpt>
      <trkpt lat="47.0554" lon="-1.27759">
        <ele>47.361</ele>
        <time>2015-09-11T12:59:24.2Z</time>
      </trkpt>
      <trkpt lat="47.05545" lon="-1.27764">
        <ele>47.198</ele>
        <time>2015-09-11T12:59:25.109Z</time>
      </trkpt>
      <trkpt lat="47.05549" lon="-1.27767">
        <ele>47.095</ele>
        <time>2015-09-11T12:59:26.2Z</time>
      </trkpt>
      <trkpt lat="47.05553" lon="-1.2777">
        <ele>47.03</ele>
        <time>2015-09-11T12:59:27.117Z</time>
      </trkpt>
      <trkpt lat="47.05557" lon="-1.2777">
        <ele>46.959</ele>
        <time>2015-09-11T12:59:28.208Z</time>
      </trkpt>
      <trkpt lat="47.05561" lon="-1.27775">
        <ele>46.797</ele>
        <time>2015-09-11T12:59:29.105Z</time>
      </trkpt>
      <trkpt lat="47.05566" lon="-1.27779">
        <ele>46.58</ele>
        <time>2015-09-11T12:59:30.169Z</time>
      </trkpt>
      <trkpt lat="47.0557" lon="-1.27781">
        <ele>46.357</ele>
        <time>2015-09-11T12:59:31.104Z</time>
      </trkpt>
      <trkpt lat="47.05577" lon="-1.27788">
        <ele>45.846</ele>
        <time>2015-09-11T12:59:33.221Z</time>
      </trkpt>
      <trkpt lat="47.05581" lon="-1.27791">
        <ele>45.637</ele>
        <time>2015-09-11T12:59:34.107Z</time>
      </trkpt>
      <trkpt lat="47.05588" lon="-1.27795">
        <ele>45.205</ele>
        <time>2015-09-11T12:59:36.167Z</time>
      </trkpt>
      <trkpt lat="47.05593" lon="-1.27803">
        <ele>44.737</ele>
        <time>2015-09-11T12:59:37.106Z</time>
      </trkpt>
      <trkpt lat="47.05593" lon="-1.27803">
        <ele>44.737</ele>
        <time>2015-09-11T12:59:37.678Z</time>
      </trkpt>
      <trkpt lat="47.056" lon="-1.27814">
        <ele>44.59</ele>
        <time>2015-09-11T12:59:39.21Z</time>
      </trkpt>
      <trkpt lat="47.056" lon="-1.27814">
        <ele>44.59</ele>
        <time>2015-09-11T12:59:39.317Z</time>
      </trkpt>
      <trkpt lat="47.05606" lon="-1.27826">
        <ele>44.781</ele>
        <time>2015-09-11T12:59:41.417Z</time>
      </trkpt>
      <trkpt lat="47.05611" lon="-1.27833">
        <ele>44.992</ele>
        <time>2015-09-11T12:59:42.195Z</time>
      </trkpt>
      <trkpt lat="47.05614" lon="-1.27837">
        <ele>45.235</ele>
        <time>2015-09-11T12:59:43.109Z</time>
      </trkpt>
      <trkpt lat="47.05621" lon="-1.27846">
        <ele>45.734</ele>
        <time>2015-09-11T12:59:45.169Z</time>
      </trkpt>
      <trkpt lat="47.05624" lon="-1.27849">
        <ele>45.866</ele>
        <time>2015-09-11T12:59:46.107Z</time>
      </trkpt>
      <trkpt lat="47.05627" lon="-1.27854">
        <ele>46.075</ele>
        <time>2015-09-11T12:59:47.172Z</time>
      </trkpt>
      <trkpt lat="47.05631" lon="-1.27858">
        <ele>46.162</ele>
        <time>2015-09-11T12:59:48.139Z</time>
      </trkpt>
      <trkpt lat="47.05635" lon="-1.27863">
        <ele>46.226</ele>
        <time>2015-09-11T12:59:49.166Z</time>
      </trkpt>
      <trkpt lat="47.05638" lon="-1.27869">
        <ele>46.291</ele>
        <time>2015-09-11T12:59:50.107Z</time>
      </trkpt>
      <trkpt lat="47.05642" lon="-1.27876">
        <ele>46.522</ele>
        <time>2015-09-11T12:59:51.419Z</time>
      </trkpt>
      <trkpt lat="47.05647" lon="-1.27882">
        <ele>46.759</ele>
        <time>2015-09-11T12:59:52.139Z</time>
      </trkpt>
      <trkpt lat="47.0565" lon="-1.27888">
        <ele>46.964</ele>
        <time>2015-09-11T12:59:53.175Z</time>
      </trkpt>
      <trkpt lat="47.05653" lon="-1.27893">
        <ele>46.998</ele>
        <time>2015-09-11T12:59:54.107Z</time>
      </trkpt>
      <trkpt lat="47.0566" lon="-1.27901">
        <ele>46.785</ele>
        <time>2015-09-11T12:59:56.352Z</time>
      </trkpt>
      <trkpt lat="47.05663" lon="-1.27903">
        <ele>46.623</ele>
        <time>2015-09-11T12:59:57.137Z</time>
      </trkpt>
      <trkpt lat="47.05667" lon="-1.27908">
        <ele>46.327</ele>
        <time>2015-09-11T12:59:58.394Z</time>
      </trkpt>
      <trkpt lat="47.0567" lon="-1.27913">
        <ele>46.123</ele>
        <time>2015-09-11T12:59:59.166Z</time>
      </trkpt>
      <trkpt lat="47.05672" lon="-1.27917">
        <ele>46</ele>
        <time>2015-09-11T13:00:00.555Z</time>
      </trkpt>
      <trkpt lat="47.05676" lon="-1.27923">
        <ele>46</ele>
        <time>2015-09-11T13:00:01.104Z</time>
      </trkpt>
      <trkpt lat="47.05679" lon="-1.27929">
        <ele>46</ele>
        <time>2015-09-11T13:00:02.159Z</time>
      </trkpt>
      <trkpt lat="47.05683" lon="-1.27935">
        <ele>46</ele>
        <time>2015-09-11T13:00:03.108Z</time>
      </trkpt>
      <trkpt lat="47.05686" lon="-1.2794">
        <ele>46</ele>
        <time>2015-09-11T13:00:04.493Z</time>
      </trkpt>
      <trkpt lat="47.05688" lon="-1.27947">
        <ele>45.925</ele>
        <time>2015-09-11T13:00:05.136Z</time>
      </trkpt>
      <trkpt lat="47.05696" lon="-1.27944">
        <ele>45.881</ele>
        <time>2015-09-11T13:00:09.335Z</time>
      </trkpt>
      <trkpt lat="47.05698" lon="-1.27939">
        <ele>45.773</ele>
        <time>2015-09-11T13:00:10.135Z</time>
      </trkpt>
      <trkpt lat="47.057" lon="-1.27926">
        <ele>45.586</ele>
        <time>2015-09-11T13:00:12.19Z</time>
      </trkpt>
      <trkpt lat="47.05701" lon="-1.27919">
        <ele>45.514</ele>
        <time>2015-09-11T13:00:13.109Z</time>
      </trkpt>
      <trkpt lat="47.05705" lon="-1.27907">
        <ele>45.373</ele>
        <time>2015-09-11T13:00:15.337Z</time>
      </trkpt>
      <trkpt lat="47.05707" lon="-1.27902">
        <ele>45.322</ele>
        <time>2015-09-11T13:00:16.142Z</time>
      </trkpt>
      <trkpt lat="47.0571" lon="-1.27889">
        <ele>45.422</ele>
        <time>2015-09-11T13:00:18.978Z</time>
      </trkpt>
      <trkpt lat="47.05712" lon="-1.27883">
        <ele>45.463</ele>
        <time>2015-09-11T13:00:19.104Z</time>
      </trkpt>
      <trkpt lat="47.05715" lon="-1.27871">
        <ele>45.44</ele>
        <time>2015-09-11T13:00:21.36Z</time>
      </trkpt>
      <trkpt lat="47.05716" lon="-1.27864">
        <ele>45.419</ele>
        <time>2015-09-11T13:00:22.138Z</time>
      </trkpt>
      <trkpt lat="47.05719" lon="-1.27852">
        <ele>45.199</ele>
        <time>2015-09-11T13:00:24.332Z</time>
      </trkpt>
      <trkpt lat="47.0572" lon="-1.27845">
        <ele>45.124</ele>
        <time>2015-09-11T13:00:25.108Z</time>
      </trkpt>
      <trkpt lat="47.05722" lon="-1.27839">
        <ele>45.023</ele>
        <time>2015-09-11T13:00:26.177Z</time>
      </trkpt>
      <trkpt lat="47.05723" lon="-1.27832">
        <ele>44.976</ele>
        <time>2015-09-11T13:00:27.138Z</time>
      </trkpt>
      <trkpt lat="47.05724" lon="-1.27824">
        <ele>44.922</ele>
        <time>2015-09-11T13:00:28.344Z</time>
      </trkpt>
      <trkpt lat="47.05726" lon="-1.27818">
        <ele>44.86</ele>
        <time>2015-09-11T13:00:29.132Z</time>
      </trkpt>
      <trkpt lat="47.05728" lon="-1.27811">
        <ele>44.785</ele>
        <time>2015-09-11T13:00:30.163Z</time>
      </trkpt>
      <trkpt lat="47.05731" lon="-1.27804">
        <ele>44.675</ele>
        <time>2015-09-11T13:00:31.108Z</time>
      </trkpt>
      <trkpt lat="47.05734" lon="-1.27793">
        <ele>44.371</ele>
        <time>2015-09-11T13:00:33.392Z</time>
      </trkpt>
      <trkpt lat="47.05736" lon="-1.27786">
        <ele>44.175</ele>
        <time>2015-09-11T13:00:34.137Z</time>
      </trkpt>
      <trkpt lat="47.05738" lon="-1.2778">
        <ele>43.929</ele>
        <time>2015-09-11T13:00:35.161Z</time>
      </trkpt>
      <trkpt lat="47.05739" lon="-1.27774">
        <ele>43.892</ele>
        <time>2015-09-11T13:00:36.112Z</time>
      </trkpt>
      <trkpt lat="47.05739" lon="-1.27767">
        <ele>44.005</ele>
        <time>2015-09-11T13:00:37.424Z</time>
      </trkpt>
      <trkpt lat="47.05741" lon="-1.2776">
        <ele>44.081</ele>
        <time>2015-09-11T13:00:38.107Z</time>
      </trkpt>
      <trkpt lat="47.05742" lon="-1.27749">
        <ele>44.27</ele>
        <time>2015-09-11T13:00:40.51Z</time>
      </trkpt>
      <trkpt lat="47.05743" lon="-1.27742">
        <ele>44.178</ele>
        <time>2015-09-11T13:00:41.111Z</time>
      </trkpt>
      <trkpt lat="47.05744" lon="-1.27735">
        <ele>44.103</ele>
        <time>2015-09-11T13:00:42.162Z</time>
      </trkpt>
      <trkpt lat="47.05745" lon="-1.27728">
        <ele>44.038</ele>
        <time>2015-09-11T13:00:43.143Z</time>
      </trkpt>
      <trkpt lat="47.05745" lon="-1.27717">
        <ele>44</ele>
        <time>2015-09-11T13:00:45.176Z</time>
      </trkpt>
      <trkpt lat="47.05746" lon="-1.27711">
        <ele>44</ele>
        <time>2015-09-11T13:00:46.108Z</time>
      </trkpt>
      <trkpt lat="47.05749" lon="-1.27699">
        <ele>44</ele>
        <time>2015-09-11T13:00:48.36Z</time>
      </trkpt>
      <trkpt lat="47.0575" lon="-1.27692">
        <ele>44.01</ele>
        <time>2015-09-11T13:00:49.142Z</time>
      </trkpt>
      <trkpt lat="47.05751" lon="-1.27685">
        <ele>44.012</ele>
        <time>2015-09-11T13:00:50.81Z</time>
      </trkpt>
      <trkpt lat="47.05751" lon="-1.27678">
        <ele>44.015</ele>
        <time>2015-09-11T13:00:51.108Z</time>
      </trkpt>
      <trkpt lat="47.05751" lon="-1.2767">
        <ele>44.005</ele>
        <time>2015-09-11T13:00:52.162Z</time>
      </trkpt>
      <trkpt lat="47.05752" lon="-1.27664">
        <ele>44</ele>
        <time>2015-09-11T13:00:53.144Z</time>
      </trkpt>
      <trkpt lat="47.05751" lon="-1.27651">
        <ele>44</ele>
        <time>2015-09-11T13:00:55.403Z</time>
      </trkpt>
      <trkpt lat="47.05752" lon="-1.27644">
        <ele>44</ele>
        <time>2015-09-11T13:00:56.135Z</time>
      </trkpt>
      <trkpt lat="47.0575" lon="-1.27634">
        <ele>44.176</ele>
        <time>2015-09-11T13:00:58.352Z</time>
      </trkpt>
      <trkpt lat="47.05749" lon="-1.27629">
        <ele>44.352</ele>
        <time>2015-09-11T13:00:59.11Z</time>
      </trkpt>
      <trkpt lat="47.05749" lon="-1.27617">
        <ele>44.769</ele>
        <time>2015-09-11T13:01:01.168Z</time>
      </trkpt>
      <trkpt lat="47.05749" lon="-1.27611">
        <ele>44.954</ele>
        <time>2015-09-11T13:01:02.11Z</time>
      </trkpt>
      <trkpt lat="47.0575" lon="-1.27599">
        <ele>45</ele>
        <time>2015-09-11T13:01:04.174Z</time>
      </trkpt>
      <trkpt lat="47.05753" lon="-1.27596">
        <ele>45</ele>
        <time>2015-09-11T13:01:05.103Z</time>
      </trkpt>
      <trkpt lat="47.05759" lon="-1.27591">
        <ele>45</ele>
        <time>2015-09-11T13:01:07.272Z</time>
      </trkpt>
      <trkpt lat="47.05762" lon="-1.27588">
        <ele>45</ele>
        <time>2015-09-11T13:01:08.138Z</time>
      </trkpt>
      <trkpt lat="47.05766" lon="-1.2758">
        <ele>45</ele>
        <time>2015-09-11T13:01:10.165Z</time>
      </trkpt>
      <trkpt lat="47.05768" lon="-1.27575">
        <ele>45</ele>
        <time>2015-09-11T13:01:11.128Z</time>
      </trkpt>
      <trkpt lat="47.05771" lon="-1.27565">
        <ele>45</ele>
        <time>2015-09-11T13:01:13.166Z</time>
      </trkpt>
      <trkpt lat="47.05772" lon="-1.2756">
        <ele>45</ele>
        <time>2015-09-11T13:01:14.209Z</time>
      </trkpt>
      <trkpt lat="47.05775" lon="-1.2755">
        <ele>45</ele>
        <time>2015-09-11T13:01:16.173Z</time>
      </trkpt>
      <trkpt lat="47.05777" lon="-1.27546">
        <ele>45</ele>
        <time>2015-09-11T13:01:17.123Z</time>
      </trkpt>
      <trkpt lat="47.05784" lon="-1.27542">
        <ele>44.88</ele>
        <time>2015-09-11T13:01:19.391Z</time>
      </trkpt>
      <trkpt lat="47.05787" lon="-1.2754">
        <ele>44.854</ele>
        <time>2015-09-11T13:01:20.153Z</time>
      </trkpt>
      <trkpt lat="47.05792" lon="-1.27533">
        <ele>44.905</ele>
        <time>2015-09-11T13:01:22.353Z</time>
      </trkpt>
      <trkpt lat="47.05794" lon="-1.27528">
        <ele>44.987</ele>
        <time>2015-09-11T13:01:23.142Z</time>
      </trkpt>
      <trkpt lat="47.05799" lon="-1.27518">
        <ele>45</ele>
        <time>2015-09-11T13:01:25.158Z</time>
      </trkpt>
      <trkpt lat="47.05801" lon="-1.27514">
        <ele>45</ele>
        <time>2015-09-11T13:01:26.112Z</time>
      </trkpt>
      <trkpt lat="47.05805" lon="-1.27504">
        <ele>45</ele>
        <time>2015-09-11T13:01:28.162Z</time>
      </trkpt>
      <trkpt lat="47.05807" lon="-1.27499">
        <ele>45.001</ele>
        <time>2015-09-11T13:01:29.238Z</time>
      </trkpt>
      <trkpt lat="47.05812" lon="-1.2749">
        <ele>45.084</ele>
        <time>2015-09-11T13:01:31.169Z</time>
      </trkpt>
      <trkpt lat="47.05814" lon="-1.27485">
        <ele>45.17</ele>
        <time>2015-09-11T13:01:32.132Z</time>
      </trkpt>
      <trkpt lat="47.05819" lon="-1.27475">
        <ele>45.423</ele>
        <time>2015-09-11T13:01:34.165Z</time>
      </trkpt>
      <trkpt lat="47.05821" lon="-1.2747">
        <ele>45.587</ele>
        <time>2015-09-11T13:01:35.13Z</time>
      </trkpt>
      <trkpt lat="47.05823" lon="-1.27465">
        <ele>45.734</ele>
        <time>2015-09-11T13:01:36.171Z</time>
      </trkpt>
      <trkpt lat="47.05828" lon="-1.27458">
        <ele>45.895</ele>
        <time>2015-09-11T13:01:37.109Z</time>
      </trkpt>
      <trkpt lat="47.05832" lon="-1.27447">
        <ele>45.995</ele>
        <time>2015-09-11T13:01:39.161Z</time>
      </trkpt>
      <trkpt lat="47.05835" lon="-1.27441">
        <ele>45.83</ele>
        <time>2015-09-11T13:01:40.107Z</time>
      </trkpt>
      <trkpt lat="47.05839" lon="-1.27431">
        <ele>45.298</ele>
        <time>2015-09-11T13:01:42.381Z</time>
      </trkpt>
      <trkpt lat="47.05842" lon="-1.27427">
        <ele>45.056</ele>
        <time>2015-09-11T13:01:43.159Z</time>
      </trkpt>
      <trkpt lat="47.05846" lon="-1.27417">
        <ele>44.56</ele>
        <time>2015-09-11T13:01:45.308Z</time>
      </trkpt>
      <trkpt lat="47.05849" lon="-1.27411">
        <ele>44.321</ele>
        <time>2015-09-11T13:01:46.141Z</time>
      </trkpt>
      <trkpt lat="47.05852" lon="-1.27406">
        <ele>44.085</ele>
        <time>2015-09-11T13:01:47.393Z</time>
      </trkpt>
      <trkpt lat="47.05854" lon="-1.274">
        <ele>43.792</ele>
        <time>2015-09-11T13:01:48.134Z</time>
      </trkpt>
      <trkpt lat="47.0586" lon="-1.27392">
        <ele>43.17</ele>
        <time>2015-09-11T13:01:50.398Z</time>
      </trkpt>
      <trkpt lat="47.05863" lon="-1.27387">
        <ele>43.054</ele>
        <time>2015-09-11T13:01:51.132Z</time>
      </trkpt>
      <trkpt lat="47.05867" lon="-1.27378">
        <ele>43.319</ele>
        <time>2015-09-11T13:01:53.165Z</time>
      </trkpt>
      <trkpt lat="47.0587" lon="-1.27373">
        <ele>43.402</ele>
        <time>2015-09-11T13:01:54.147Z</time>
      </trkpt>
      <trkpt lat="47.05875" lon="-1.27363">
        <ele>43.472</ele>
        <time>2015-09-11T13:01:56.988Z</time>
      </trkpt>
      <trkpt lat="47.05877" lon="-1.27358">
        <ele>43.518</ele>
        <time>2015-09-11T13:01:57.108Z</time>
      </trkpt>
      <trkpt lat="47.05882" lon="-1.27349">
        <ele>43.688</ele>
        <time>2015-09-11T13:01:59.352Z</time>
      </trkpt>
      <trkpt lat="47.05885" lon="-1.27343">
        <ele>43.799</ele>
        <time>2015-09-11T13:02:00.196Z</time>
      </trkpt>
      <trkpt lat="47.0589" lon="-1.27332">
        <ele>44.037</ele>
        <time>2015-09-11T13:02:02.167Z</time>
      </trkpt>
      <trkpt lat="47.05892" lon="-1.27327">
        <ele>44.235</ele>
        <time>2015-09-11T13:02:03.139Z</time>
      </trkpt>
      <trkpt lat="47.05896" lon="-1.27316">
        <ele>44.628</ele>
        <time>2015-09-11T13:02:05.161Z</time>
      </trkpt>
      <trkpt lat="47.05898" lon="-1.27311">
        <ele>44.811</ele>
        <time>2015-09-11T13:02:06.132Z</time>
      </trkpt>
      <trkpt lat="47.05903" lon="-1.27301">
        <ele>45</ele>
        <time>2015-09-11T13:02:08.199Z</time>
      </trkpt>
      <trkpt lat="47.05905" lon="-1.27297">
        <ele>45</ele>
        <time>2015-09-11T13:02:09.12Z</time>
      </trkpt>
      <trkpt lat="47.05909" lon="-1.27287">
        <ele>45</ele>
        <time>2015-09-11T13:02:11.177Z</time>
      </trkpt>
      <trkpt lat="47.05911" lon="-1.27282">
        <ele>45</ele>
        <time>2015-09-11T13:02:12.117Z</time>
      </trkpt>
      <trkpt lat="47.05915" lon="-1.27273">
        <ele>45</ele>
        <time>2015-09-11T13:02:14.161Z</time>
      </trkpt>
      <trkpt lat="47.05917" lon="-1.27268">
        <ele>45</ele>
        <time>2015-09-11T13:02:15.106Z</time>
      </trkpt>
      <trkpt lat="47.05921" lon="-1.27259">
        <ele>45</ele>
        <time>2015-09-11T13:02:17.321Z</time>
      </trkpt>
      <trkpt lat="47.05923" lon="-1.27254">
        <ele>45</ele>
        <time>2015-09-11T13:02:18.137Z</time>
      </trkpt>
      <trkpt lat="47.05927" lon="-1.27243">
        <ele>45</ele>
        <time>2015-09-11T13:02:20.163Z</time>
      </trkpt>
      <trkpt lat="47.05929" lon="-1.27238">
        <ele>45</ele>
        <time>2015-09-11T13:02:21.119Z</time>
      </trkpt>
      <trkpt lat="47.05933" lon="-1.27228">
        <ele>45</ele>
        <time>2015-09-11T13:02:23.348Z</time>
      </trkpt>
      <trkpt lat="47.05935" lon="-1.27223">
        <ele>45</ele>
        <time>2015-09-11T13:02:24.133Z</time>
      </trkpt>
      <trkpt lat="47.05939" lon="-1.27213">
        <ele>45.343</ele>
        <time>2015-09-11T13:02:26.161Z</time>
      </trkpt>
      <trkpt lat="47.05941" lon="-1.27208">
        <ele>45.512</ele>
        <time>2015-09-11T13:02:27.134Z</time>
      </trkpt>
      <trkpt lat="47.05946" lon="-1.27198">
        <ele>45.825</ele>
        <time>2015-09-11T13:02:29.192Z</time>
      </trkpt>
      <trkpt lat="47.05948" lon="-1.27193">
        <ele>45.879</ele>
        <time>2015-09-11T13:02:30.139Z</time>
      </trkpt>
      <trkpt lat="47.05952" lon="-1.27183">
        <ele>45.724</ele>
        <time>2015-09-11T13:02:32.177Z</time>
      </trkpt>
      <trkpt lat="47.05955" lon="-1.27178">
        <ele>45.613</ele>
        <time>2015-09-11T13:02:33.105Z</time>
      </trkpt>
      <trkpt lat="47.05961" lon="-1.27168">
        <ele>45.4</ele>
        <time>2015-09-11T13:02:35.292Z</time>
      </trkpt>
      <trkpt lat="47.05964" lon="-1.27164">
        <ele>45.296</ele>
        <time>2015-09-11T13:02:36.133Z</time>
      </trkpt>
      <trkpt lat="47.0597" lon="-1.27158">
        <ele>45.08</ele>
        <time>2015-09-11T13:02:38.341Z</time>
      </trkpt>
      <trkpt lat="47.05973" lon="-1.27155">
        <ele>45.042</ele>
        <time>2015-09-11T13:02:39.134Z</time>
      </trkpt>
      <trkpt lat="47.0598" lon="-1.27146">
        <ele>45.273</ele>
        <time>2015-09-11T13:02:41.162Z</time>
      </trkpt>
      <trkpt lat="47.05983" lon="-1.27142">
        <ele>45.392</ele>
        <time>2015-09-11T13:02:42.141Z</time>
      </trkpt>
      <trkpt lat="47.05989" lon="-1.27136">
        <ele>45.618</ele>
        <time>2015-09-11T13:02:44.228Z</time>
      </trkpt>
      <trkpt lat="47.05993" lon="-1.27133">
        <ele>45.748</ele>
        <time>2015-09-11T13:02:45.131Z</time>
      </trkpt>
      <trkpt lat="47.05998" lon="-1.2713">
        <ele>45.928</ele>
        <time>2015-09-11T13:02:46.386Z</time>
      </trkpt>
      <trkpt lat="47.06002" lon="-1.27126">
        <ele>46</ele>
        <time>2015-09-11T13:02:47.137Z</time>
      </trkpt>
      <trkpt lat="47.06007" lon="-1.27121">
        <ele>46</ele>
        <time>2015-09-11T13:02:48.347Z</time>
      </trkpt>
      <trkpt lat="47.06012" lon="-1.27116">
        <ele>46</ele>
        <time>2015-09-11T13:02:49.141Z</time>
      </trkpt>
      <trkpt lat="47.06018" lon="-1.27111">
        <ele>46.005</ele>
        <time>2015-09-11T13:02:50.348Z</time>
      </trkpt>
      <trkpt lat="47.06022" lon="-1.27107">
        <ele>46.122</ele>
        <time>2015-09-11T13:02:51.132Z</time>
      </trkpt>
      <trkpt lat="47.06026" lon="-1.27103">
        <ele>46.29</ele>
        <time>2015-09-11T13:02:52.377Z</time>
      </trkpt>
      <trkpt lat="47.06031" lon="-1.27099">
        <ele>46.277</ele>
        <time>2015-09-11T13:02:53.137Z</time>
      </trkpt>
      <trkpt lat="47.06037" lon="-1.27094">
        <ele>46.107</ele>
        <time>2015-09-11T13:02:55.178Z</time>
      </trkpt>
      <trkpt lat="47.0604" lon="-1.2709">
        <ele>45.967</ele>
        <time>2015-09-11T13:02:56.135Z</time>
      </trkpt>
      <trkpt lat="47.06045" lon="-1.27085">
        <ele>45.772</ele>
        <time>2015-09-11T13:02:57.384Z</time>
      </trkpt>
      <trkpt lat="47.06048" lon="-1.2708">
        <ele>45.607</ele>
        <time>2015-09-11T13:02:58.142Z</time>
      </trkpt>
      <trkpt lat="47.06051" lon="-1.27074">
        <ele>45.559</ele>
        <time>2015-09-11T13:02:59.374Z</time>
      </trkpt>
      <trkpt lat="47.06054" lon="-1.27069">
        <ele>45.578</ele>
        <time>2015-09-11T13:03:00.119Z</time>
      </trkpt>
      <trkpt lat="47.06056" lon="-1.27063">
        <ele>45.709</ele>
        <time>2015-09-11T13:03:01.347Z</time>
      </trkpt>
      <trkpt lat="47.06059" lon="-1.27056">
        <ele>45.867</ele>
        <time>2015-09-11T13:03:02.139Z</time>
      </trkpt>
      <trkpt lat="47.06062" lon="-1.27048">
        <ele>45.754</ele>
        <time>2015-09-11T13:03:03.416Z</time>
      </trkpt>
      <trkpt lat="47.06066" lon="-1.2704">
        <ele>45.631</ele>
        <time>2015-09-11T13:03:04.141Z</time>
      </trkpt>
      <trkpt lat="47.06071" lon="-1.2703">
        <ele>45.448</ele>
        <time>2015-09-11T13:03:05.297Z</time>
      </trkpt>
      <trkpt lat="47.06074" lon="-1.27025">
        <ele>45.236</ele>
        <time>2015-09-11T13:03:06.107Z</time>
      </trkpt>
      <trkpt lat="47.06077" lon="-1.27019">
        <ele>44.912</ele>
        <time>2015-09-11T13:03:07.351Z</time>
      </trkpt>
      <trkpt lat="47.06081" lon="-1.27012">
        <ele>44.516</ele>
        <time>2015-09-11T13:03:08.107Z</time>
      </trkpt>
      <trkpt lat="47.06086" lon="-1.27005">
        <ele>43.974</ele>
        <time>2015-09-11T13:03:09.191Z</time>
      </trkpt>
      <trkpt lat="47.06091" lon="-1.27">
        <ele>43.484</ele>
        <time>2015-09-11T13:03:10.113Z</time>
      </trkpt>
      <trkpt lat="47.06094" lon="-1.26995">
        <ele>43.203</ele>
        <time>2015-09-11T13:03:11.164Z</time>
      </trkpt>
      <trkpt lat="47.06098" lon="-1.26991">
        <ele>42.951</ele>
        <time>2015-09-11T13:03:12.114Z</time>
      </trkpt>
      <trkpt lat="47.06102" lon="-1.26986">
        <ele>42.67</ele>
        <time>2015-09-11T13:03:13.385Z</time>
      </trkpt>
      <trkpt lat="47.06105" lon="-1.26981">
        <ele>42.418</ele>
        <time>2015-09-11T13:03:14.185Z</time>
      </trkpt>
      <trkpt lat="47.0611" lon="-1.26976">
        <ele>42.094</ele>
        <time>2015-09-11T13:03:15.166Z</time>
      </trkpt>
      <trkpt lat="47.06114" lon="-1.26971">
        <ele>41.951</ele>
        <time>2015-09-11T13:03:16.105Z</time>
      </trkpt>
      <trkpt lat="47.06119" lon="-1.26964">
        <ele>41.935</ele>
        <time>2015-09-11T13:03:18.58Z</time>
      </trkpt>
      <trkpt lat="47.06121" lon="-1.2696">
        <ele>41.903</ele>
        <time>2015-09-11T13:03:19.113Z</time>
      </trkpt>
      <trkpt lat="47.06125" lon="-1.26958">
        <ele>41.782</ele>
        <time>2015-09-11T13:03:20.163Z</time>
      </trkpt>
      <trkpt lat="47.06129" lon="-1.26952">
        <ele>41.6</ele>
        <time>2015-09-11T13:03:21.134Z</time>
      </trkpt>
      <trkpt lat="47.06133" lon="-1.26948">
        <ele>41.392</ele>
        <time>2015-09-11T13:03:22.173Z</time>
      </trkpt>
      <trkpt lat="47.06137" lon="-1.26943">
        <ele>41.205</ele>
        <time>2015-09-11T13:03:23.113Z</time>
      </trkpt>
      <trkpt lat="47.06141" lon="-1.26936">
        <ele>41.189</ele>
        <time>2015-09-11T13:03:24.345Z</time>
      </trkpt>
      <trkpt lat="47.06143" lon="-1.26929">
        <ele>41.297</ele>
        <time>2015-09-11T13:03:25.128Z</time>
      </trkpt>
      <trkpt lat="47.06145" lon="-1.26922">
        <ele>41.415</ele>
        <time>2015-09-11T13:03:26.175Z</time>
      </trkpt>
      <trkpt lat="47.06146" lon="-1.26914">
        <ele>41.399</ele>
        <time>2015-09-11T13:03:27.107Z</time>
      </trkpt>
      <trkpt lat="47.06147" lon="-1.26906">
        <ele>41.132</ele>
        <time>2015-09-11T13:03:28.397Z</time>
      </trkpt>
      <trkpt lat="47.06148" lon="-1.26899">
        <ele>40.922</ele>
        <time>2015-09-11T13:03:29.185Z</time>
      </trkpt>
      <trkpt lat="47.0615" lon="-1.26893">
        <ele>40.694</ele>
        <time>2015-09-11T13:03:30.343Z</time>
      </trkpt>
      <trkpt lat="47.06152" lon="-1.26885">
        <ele>40.668</ele>
        <time>2015-09-11T13:03:31.137Z</time>
      </trkpt>
      <trkpt lat="47.06154" lon="-1.26879">
        <ele>40.823</ele>
        <time>2015-09-11T13:03:32.395Z</time>
      </trkpt>
      <trkpt lat="47.06156" lon="-1.26871">
        <ele>41.032</ele>
        <time>2015-09-11T13:03:33.146Z</time>
      </trkpt>
      <trkpt lat="47.0616" lon="-1.2686">
        <ele>41.229</ele>
        <time>2015-09-11T13:03:35.183Z</time>
      </trkpt>
      <trkpt lat="47.06163" lon="-1.26854">
        <ele>41.139</ele>
        <time>2015-09-11T13:03:36.115Z</time>
      </trkpt>
      <trkpt lat="47.06166" lon="-1.26847">
        <ele>41.024</ele>
        <time>2015-09-11T13:03:37.357Z</time>
      </trkpt>
      <trkpt lat="47.06169" lon="-1.26838">
        <ele>40.803</ele>
        <time>2015-09-11T13:03:38.108Z</time>
      </trkpt>
      <trkpt lat="47.06172" lon="-1.2683">
        <ele>40.63</ele>
        <time>2015-09-11T13:03:39.164Z</time>
      </trkpt>
      <trkpt lat="47.06174" lon="-1.26824">
        <ele>40.508</ele>
        <time>2015-09-11T13:03:40.104Z</time>
      </trkpt>
      <trkpt lat="47.06176" lon="-1.26818">
        <ele>40.35</ele>
        <time>2015-09-11T13:03:41.165Z</time>
      </trkpt>
      <trkpt lat="47.06177" lon="-1.26811">
        <ele>40.242</ele>
        <time>2015-09-11T13:03:42.108Z</time>
      </trkpt>
      <trkpt lat="47.06179" lon="-1.26804">
        <ele>40.088</ele>
        <time>2015-09-11T13:03:43.358Z</time>
      </trkpt>
      <trkpt lat="47.06181" lon="-1.26797">
        <ele>39.674</ele>
        <time>2015-09-11T13:03:44.112Z</time>
      </trkpt>
      <trkpt lat="47.06184" lon="-1.26786">
        <ele>39.066</ele>
        <time>2015-09-11T13:03:47.336Z</time>
      </trkpt>
      <trkpt lat="47.06185" lon="-1.26779">
        <ele>38.717</ele>
        <time>2015-09-11T13:03:48.106Z</time>
      </trkpt>
      <trkpt lat="47.06189" lon="-1.2677">
        <ele>38.297</ele>
        <time>2015-09-11T13:03:50.34Z</time>
      </trkpt>
      <trkpt lat="47.06188" lon="-1.26765">
        <ele>38.271</ele>
        <time>2015-09-11T13:03:51.139Z</time>
      </trkpt>
      <trkpt lat="47.06187" lon="-1.26754">
        <ele>38.066</ele>
        <time>2015-09-11T13:03:53.169Z</time>
      </trkpt>
      <trkpt lat="47.06189" lon="-1.26747">
        <ele>38</ele>
        <time>2015-09-11T13:03:54.191Z</time>
      </trkpt>
      <trkpt lat="47.06195" lon="-1.26739">
        <ele>37.994</ele>
        <time>2015-09-11T13:03:56.28Z</time>
      </trkpt>
      <trkpt lat="47.06197" lon="-1.26736">
        <ele>37.908</ele>
        <time>2015-09-11T13:03:57.132Z</time>
      </trkpt>
      <trkpt lat="47.06201" lon="-1.26729">
        <ele>37.757</ele>
        <time>2015-09-11T13:03:59.521Z</time>
      </trkpt>
      <trkpt lat="47.06204" lon="-1.26725">
        <ele>37.674</ele>
        <time>2015-09-11T13:04:00.233Z</time>
      </trkpt>
      <trkpt lat="47.06208" lon="-1.26718">
        <ele>37.682</ele>
        <time>2015-09-11T13:04:02.169Z</time>
      </trkpt>
      <trkpt lat="47.06209" lon="-1.26714">
        <ele>37.754</ele>
        <time>2015-09-11T13:04:03.131Z</time>
      </trkpt>
      <trkpt lat="47.06205" lon="-1.26706">
        <ele>38.204</ele>
        <time>2015-09-11T13:04:06.296Z</time>
      </trkpt>
      <trkpt lat="47.06203" lon="-1.26705">
        <ele>38.319</ele>
        <time>2015-09-11T13:04:07.142Z</time>
      </trkpt>
      <trkpt lat="47.06196" lon="-1.26706">
        <ele>38.506</ele>
        <time>2015-09-11T13:04:09.176Z</time>
      </trkpt>
      <trkpt lat="47.06193" lon="-1.26707">
        <ele>38.544</ele>
        <time>2015-09-11T13:04:10.166Z</time>
      </trkpt>
      <trkpt lat="47.06186" lon="-1.26708">
        <ele>38.512</ele>
        <time>2015-09-11T13:04:12.347Z</time>
      </trkpt>
      <trkpt lat="47.06183" lon="-1.26709">
        <ele>38.494</ele>
        <time>2015-09-11T13:04:13.137Z</time>
      </trkpt>
      <trkpt lat="47.06176" lon="-1.26709">
        <ele>38.469</ele>
        <time>2015-09-11T13:04:15.161Z</time>
      </trkpt>
      <trkpt lat="47.0617" lon="-1.26705">
        <ele>38.634</ele>
        <time>2015-09-11T13:04:16.112Z</time>
      </trkpt>
      <trkpt lat="47.06165" lon="-1.26694">
        <ele>39.025</ele>
        <time>2015-09-11T13:04:18.352Z</time>
      </trkpt>
      <trkpt lat="47.06162" lon="-1.26692">
        <ele>39.082</ele>
        <time>2015-09-11T13:04:19.14Z</time>
      </trkpt>
      <trkpt lat="47.06159" lon="-1.26684">
        <ele>39.278</ele>
        <time>2015-09-11T13:04:21.354Z</time>
      </trkpt>
      <trkpt lat="47.06156" lon="-1.26681">
        <ele>39.302</ele>
        <time>2015-09-11T13:04:22.132Z</time>
      </trkpt>
      <trkpt lat="47.0615" lon="-1.26675">
        <ele>39.262</ele>
        <time>2015-09-11T13:04:24.357Z</time>
      </trkpt>
      <trkpt lat="47.06145" lon="-1.26675">
        <ele>39.153</ele>
        <time>2015-09-11T13:04:25.109Z</time>
      </trkpt>
      <trkpt lat="47.06138" lon="-1.26672">
        <ele>38.964</ele>
        <time>2015-09-11T13:04:27.416Z</time>
      </trkpt>
      <trkpt lat="47.06134" lon="-1.26671">
        <ele>38.835</ele>
        <time>2015-09-11T13:04:28.11Z</time>
      </trkpt>
      <trkpt lat="47.06127" lon="-1.2667">
        <ele>38.558</ele>
        <time>2015-09-11T13:04:30.333Z</time>
      </trkpt>
      <trkpt lat="47.06123" lon="-1.26668">
        <ele>38.421</ele>
        <time>2015-09-11T13:04:31.219Z</time>
      </trkpt>
      <trkpt lat="47.06115" lon="-1.26666">
        <ele>38.133</ele>
        <time>2015-09-11T13:04:33.162Z</time>
      </trkpt>
      <trkpt lat="47.0611" lon="-1.26662">
        <ele>37.94</ele>
        <time>2015-09-11T13:04:34.383Z</time>
      </trkpt>
      <trkpt lat="47.06103" lon="-1.26663">
        <ele>37.437</ele>
        <time>2015-09-11T13:04:36.162Z</time>
      </trkpt>
      <trkpt lat="47.06097" lon="-1.26663">
        <ele>37.043</ele>
        <time>2015-09-11T13:04:37.137Z</time>
      </trkpt>
      <trkpt lat="47.06091" lon="-1.26664">
        <ele>36.612</ele>
        <time>2015-09-11T13:04:38.176Z</time>
      </trkpt>
      <trkpt lat="47.06087" lon="-1.26662">
        <ele>36.38</ele>
        <time>2015-09-11T13:04:39.111Z</time>
      </trkpt>
      <trkpt lat="47.06082" lon="-1.26657">
        <ele>36.384</ele>
        <time>2015-09-11T13:04:40.289Z</time>
      </trkpt>
      <trkpt lat="47.06077" lon="-1.26652">
        <ele>36.636</ele>
        <time>2015-09-11T13:04:41.135Z</time>
      </trkpt>
      <trkpt lat="47.06073" lon="-1.26649">
        <ele>36.776</ele>
        <time>2015-09-11T13:04:42.193Z</time>
      </trkpt>
      <trkpt lat="47.06068" lon="-1.26647">
        <ele>36.869</ele>
        <time>2015-09-11T13:04:43.107Z</time>
      </trkpt>
      <trkpt lat="47.06063" lon="-1.26647">
        <ele>36.921</ele>
        <time>2015-09-11T13:04:44.224Z</time>
      </trkpt>
      <trkpt lat="47.06059" lon="-1.26644">
        <ele>36.98</ele>
        <time>2015-09-11T13:04:45.414Z</time>
      </trkpt>
      <trkpt lat="47.06054" lon="-1.26643">
        <ele>36.937</ele>
        <time>2015-09-11T13:04:46.169Z</time>
      </trkpt>
      <trkpt lat="47.06049" lon="-1.26639">
        <ele>36.774</ele>
        <time>2015-09-11T13:04:47.108Z</time>
      </trkpt>
      <trkpt lat="47.06042" lon="-1.26632">
        <ele>36.617</ele>
        <time>2015-09-11T13:04:49.527Z</time>
      </trkpt>
      <trkpt lat="47.06037" lon="-1.26628">
        <ele>36.46</ele>
        <time>2015-09-11T13:04:50.136Z</time>
      </trkpt>
      <trkpt lat="47.0603" lon="-1.26624">
        <ele>36.145</ele>
        <time>2015-09-11T13:04:51.39Z</time>
      </trkpt>
      <trkpt lat="47.06026" lon="-1.26618">
        <ele>35.961</ele>
        <time>2015-09-11T13:04:52.112Z</time>
      </trkpt>
      <trkpt lat="47.06026" lon="-1.26611">
        <ele>35.925</ele>
        <time>2015-09-11T13:04:53.175Z</time>
      </trkpt>
      <trkpt lat="47.06027" lon="-1.26604">
        <ele>35.741</ele>
        <time>2015-09-11T13:04:54.137Z</time>
      </trkpt>
      <trkpt lat="47.06025" lon="-1.26592">
        <ele>35.241</ele>
        <time>2015-09-11T13:04:56.171Z</time>
      </trkpt>
      <trkpt lat="47.06023" lon="-1.26587">
        <ele>34.949</ele>
        <time>2015-09-11T13:04:57.2Z</time>
      </trkpt>
      <trkpt lat="47.06021" lon="-1.2658">
        <ele>34.71</ele>
        <time>2015-09-11T13:04:58.399Z</time>
      </trkpt>
      <trkpt lat="47.06019" lon="-1.26573">
        <ele>34.569</ele>
        <time>2015-09-11T13:04:59.189Z</time>
      </trkpt>
      <trkpt lat="47.06018" lon="-1.26567">
        <ele>34.439</ele>
        <time>2015-09-11T13:05:00.369Z</time>
      </trkpt>
      <trkpt lat="47.06023" lon="-1.2656">
        <ele>34.666</ele>
        <time>2015-09-11T13:05:01.108Z</time>
      </trkpt>
      <trkpt lat="47.06025" lon="-1.26553">
        <ele>34.704</ele>
        <time>2015-09-11T13:05:02.165Z</time>
      </trkpt>
      <trkpt lat="47.06029" lon="-1.26545">
        <ele>34.716</ele>
        <time>2015-09-11T13:05:03.131Z</time>
      </trkpt>
      <trkpt lat="47.06033" lon="-1.26537">
        <ele>34.91</ele>
        <time>2015-09-11T13:05:04.303Z</time>
      </trkpt>
      <trkpt lat="47.06037" lon="-1.26531">
        <ele>35.137</ele>
        <time>2015-09-11T13:05:05.105Z</time>
      </trkpt>
      <trkpt lat="47.06041" lon="-1.26524">
        <ele>35.41</ele>
        <time>2015-09-11T13:05:06.207Z</time>
      </trkpt>
      <trkpt lat="47.06044" lon="-1.26516">
        <ele>35.492</ele>
        <time>2015-09-11T13:05:07.136Z</time>
      </trkpt>
      <trkpt lat="47.06046" lon="-1.26508">
        <ele>35.514</ele>
        <time>2015-09-11T13:05:08.177Z</time>
      </trkpt>
      <trkpt lat="47.06048" lon="-1.26501">
        <ele>35.487</ele>
        <time>2015-09-11T13:05:09.113Z</time>
      </trkpt>
      <trkpt lat="47.06051" lon="-1.26494">
        <ele>35.672</ele>
        <time>2015-09-11T13:05:10.348Z</time>
      </trkpt>
      <trkpt lat="47.06056" lon="-1.26487">
        <ele>35.996</ele>
        <time>2015-09-11T13:05:11.137Z</time>
      </trkpt>
      <trkpt lat="47.06059" lon="-1.2648">
        <ele>36.173</ele>
        <time>2015-09-11T13:05:12.345Z</time>
      </trkpt>
      <trkpt lat="47.06063" lon="-1.26474">
        <ele>36.275</ele>
        <time>2015-09-11T13:05:13.14Z</time>
      </trkpt>
      <trkpt lat="47.06067" lon="-1.26465">
        <ele>36.148</ele>
        <time>2015-09-11T13:05:14.41Z</time>
      </trkpt>
      <trkpt lat="47.0607" lon="-1.26456">
        <ele>35.922</ele>
        <time>2015-09-11T13:05:15.159Z</time>
      </trkpt>
      <trkpt lat="47.06072" lon="-1.26448">
        <ele>35.72</ele>
        <time>2015-09-11T13:05:16.168Z</time>
      </trkpt>
      <trkpt lat="47.06074" lon="-1.26439">
        <ele>35.612</ele>
        <time>2015-09-11T13:05:17.106Z</time>
      </trkpt>
      <trkpt lat="47.06077" lon="-1.26429">
        <ele>35.627</ele>
        <time>2015-09-11T13:05:19.344Z</time>
      </trkpt>
      <trkpt lat="47.06076" lon="-1.26426">
        <ele>35.549</ele>
        <time>2015-09-11T13:05:20.136Z</time>
      </trkpt>
      <trkpt lat="47.06073" lon="-1.26415">
        <ele>35.227</ele>
        <time>2015-09-11T13:05:27.168Z</time>
      </trkpt>
      <trkpt lat="47.06072" lon="-1.26412">
        <ele>35.177</ele>
        <time>2015-09-11T13:05:28.117Z</time>
      </trkpt>
      <trkpt lat="47.06074" lon="-1.26404">
        <ele>35.328</ele>
        <time>2015-09-11T13:05:30.342Z</time>
      </trkpt>
      <trkpt lat="47.06075" lon="-1.26399">
        <ele>35.429</ele>
        <time>2015-09-11T13:05:31.141Z</time>
      </trkpt>
      <trkpt lat="47.06078" lon="-1.2639">
        <ele>35.645</ele>
        <time>2015-09-11T13:05:33.162Z</time>
      </trkpt>
      <trkpt lat="47.0608" lon="-1.26386">
        <ele>35.765</ele>
        <time>2015-09-11T13:05:34.193Z</time>
      </trkpt>
      <trkpt lat="47.06085" lon="-1.2638">
        <ele>36.091</ele>
        <time>2015-09-11T13:05:36.17Z</time>
      </trkpt>
      <trkpt lat="47.06088" lon="-1.26378">
        <ele>36.307</ele>
        <time>2015-09-11T13:05:37.137Z</time>
      </trkpt>
      <trkpt lat="47.06094" lon="-1.26373">
        <ele>36.746</ele>
        <time>2015-09-11T13:05:39.162Z</time>
      </trkpt>
      <trkpt lat="47.06096" lon="-1.2637">
        <ele>36.941</ele>
        <time>2015-09-11T13:05:40.12Z</time>
      </trkpt>
      <trkpt lat="47.06101" lon="-1.26363">
        <ele>37.294</ele>
        <time>2015-09-11T13:05:42.389Z</time>
      </trkpt>
      <trkpt lat="47.06103" lon="-1.26359">
        <ele>37.371</ele>
        <time>2015-09-11T13:05:43.138Z</time>
      </trkpt>
      <trkpt lat="47.06107" lon="-1.26349">
        <ele>37.349</ele>
        <time>2015-09-11T13:05:45.34Z</time>
      </trkpt>
      <trkpt lat="47.06116" lon="-1.26336">
        <ele>37.25</ele>
        <time>2015-09-11T13:05:47.144Z</time>
      </trkpt>
      <trkpt lat="47.06119" lon="-1.26329">
        <ele>37.121</ele>
        <time>2015-09-11T13:05:48.162Z</time>
      </trkpt>
      <trkpt lat="47.06122" lon="-1.26324">
        <ele>37.02</ele>
        <time>2015-09-11T13:05:49.207Z</time>
      </trkpt>
      <trkpt lat="47.06126" lon="-1.26315">
        <ele>36.905</ele>
        <time>2015-09-11T13:05:51.174Z</time>
      </trkpt>
      <trkpt lat="47.06132" lon="-1.26311">
        <ele>36.952</ele>
        <time>2015-09-11T13:05:52.145Z</time>
      </trkpt>
      <trkpt lat="47.06141" lon="-1.26308">
        <ele>37.098</ele>
        <time>2015-09-11T13:05:54.447Z</time>
      </trkpt>
      <trkpt lat="47.06146" lon="-1.26306">
        <ele>37.016</ele>
        <time>2015-09-11T13:05:55.137Z</time>
      </trkpt>
      <trkpt lat="47.06151" lon="-1.26304">
        <ele>36.955</ele>
        <time>2015-09-11T13:05:56.239Z</time>
      </trkpt>
      <trkpt lat="47.06156" lon="-1.26305">
        <ele>36.969</ele>
        <time>2015-09-11T13:05:57.11Z</time>
      </trkpt>
      <trkpt lat="47.06164" lon="-1.26303">
        <ele>36.915</ele>
        <time>2015-09-11T13:05:59.166Z</time>
      </trkpt>
      <trkpt lat="47.06168" lon="-1.26302">
        <ele>36.928</ele>
        <time>2015-09-11T13:06:00.108Z</time>
      </trkpt>
      <trkpt lat="47.06176" lon="-1.26301">
        <ele>37.512</ele>
        <time>2015-09-11T13:06:02.396Z</time>
      </trkpt>
      <trkpt lat="47.06181" lon="-1.26299">
        <ele>37.785</ele>
        <time>2015-09-11T13:06:03.143Z</time>
      </trkpt>
      <trkpt lat="47.06186" lon="-1.26294">
        <ele>37.98</ele>
        <time>2015-09-11T13:06:04.161Z</time>
      </trkpt>
      <trkpt lat="47.06191" lon="-1.26287">
        <ele>38.073</ele>
        <time>2015-09-11T13:06:05.113Z</time>
      </trkpt>
      <trkpt lat="47.06196" lon="-1.26283">
        <ele>38.219</ele>
        <time>2015-09-11T13:06:06.379Z</time>
      </trkpt>
      <trkpt lat="47.06199" lon="-1.26278">
        <ele>38.19</ele>
        <time>2015-09-11T13:06:07.137Z</time>
      </trkpt>
      <trkpt lat="47.06204" lon="-1.26273">
        <ele>38.154</ele>
        <time>2015-09-11T13:06:08.338Z</time>
      </trkpt>
      <trkpt lat="47.06208" lon="-1.26269">
        <ele>38.158</ele>
        <time>2015-09-11T13:06:09.133Z</time>
      </trkpt>
      <trkpt lat="47.06212" lon="-1.26264">
        <ele>38.154</ele>
        <time>2015-09-11T13:06:10.197Z</time>
      </trkpt>
      <trkpt lat="47.06216" lon="-1.26261">
        <ele>38.186</ele>
        <time>2015-09-11T13:06:11.109Z</time>
      </trkpt>
      <trkpt lat="47.06225" lon="-1.26257">
        <ele>38.356</ele>
        <time>2015-09-11T13:06:13.352Z</time>
      </trkpt>
      <trkpt lat="47.06228" lon="-1.26257">
        <ele>38.438</ele>
        <time>2015-09-11T13:06:14.186Z</time>
      </trkpt>
      <trkpt lat="47.06235" lon="-1.26254">
        <ele>38.629</ele>
        <time>2015-09-11T13:06:17.346Z</time>
      </trkpt>
      <trkpt lat="47.06237" lon="-1.26254">
        <ele>38.683</ele>
        <time>2015-09-11T13:06:18.105Z</time>
      </trkpt>
      <trkpt lat="47.06245" lon="-1.26253">
        <ele>38.942</ele>
        <time>2015-09-11T13:06:24.459Z</time>
      </trkpt>
      <trkpt lat="47.06247" lon="-1.26252">
        <ele>38.96</ele>
        <time>2015-09-11T13:06:25.133Z</time>
      </trkpt>
      <trkpt lat="47.06255" lon="-1.26251">
        <ele>39.212</ele>
        <time>2015-09-11T13:06:32.345Z</time>
      </trkpt>
      <trkpt lat="47.06256" lon="-1.26251">
        <ele>39.274</ele>
        <time>2015-09-11T13:06:33.142Z</time>
      </trkpt>
      <trkpt lat="47.06265" lon="-1.26256">
        <ele>39.742</ele>
        <time>2015-09-11T13:06:39.161Z</time>
      </trkpt>
      <trkpt lat="47.06266" lon="-1.26257">
        <ele>39.839</ele>
        <time>2015-09-11T13:06:40.113Z</time>
      </trkpt>
      <trkpt lat="47.06273" lon="-1.26263">
        <ele>40.278</ele>
        <time>2015-09-11T13:06:44.334Z</time>
      </trkpt>
      <trkpt lat="47.06275" lon="-1.26264">
        <ele>40.39</ele>
        <time>2015-09-11T13:06:45.136Z</time>
      </trkpt>
      <trkpt lat="47.06282" lon="-1.2627">
        <ele>40.734</ele>
        <time>2015-09-11T13:06:49.153Z</time>
      </trkpt>
      <trkpt lat="47.06284" lon="-1.26272">
        <ele>40.796</ele>
        <time>2015-09-11T13:06:50.109Z</time>
      </trkpt>
      <trkpt lat="47.06292" lon="-1.26278">
        <ele>41.002</ele>
        <time>2015-09-11T13:06:54.168Z</time>
      </trkpt>
      <trkpt lat="47.06293" lon="-1.2628">
        <ele>41.027</ele>
        <time>2015-09-11T13:06:55.138Z</time>
      </trkpt>
      <trkpt lat="47.06299" lon="-1.26285">
        <ele>41.057</ele>
        <time>2015-09-11T13:06:58.77Z</time>
      </trkpt>
      <trkpt lat="47.06301" lon="-1.26287">
        <ele>41.048</ele>
        <time>2015-09-11T13:06:59.107Z</time>
      </trkpt>
      <trkpt lat="47.06307" lon="-1.26291">
        <ele>41</ele>
        <time>2015-09-11T13:07:01.315Z</time>
      </trkpt>
      <trkpt lat="47.0631" lon="-1.26293">
        <ele>41</ele>
        <time>2015-09-11T13:07:02.239Z</time>
      </trkpt>
      <trkpt lat="47.06315" lon="-1.26297">
        <ele>41</ele>
        <time>2015-09-11T13:07:04.191Z</time>
      </trkpt>
      <trkpt lat="47.06318" lon="-1.26299">
        <ele>41</ele>
        <time>2015-09-11T13:07:05.138Z</time>
      </trkpt>
      <trkpt lat="47.06324" lon="-1.26304">
        <ele>41</ele>
        <time>2015-09-11T13:07:07.465Z</time>
      </trkpt>
      <trkpt lat="47.06327" lon="-1.26306">
        <ele>41</ele>
        <time>2015-09-11T13:07:08.576Z</time>
      </trkpt>
      <trkpt lat="47.06333" lon="-1.26311">
        <ele>41</ele>
        <time>2015-09-11T13:07:10.161Z</time>
      </trkpt>
      <trkpt lat="47.06336" lon="-1.26314">
        <ele>41</ele>
        <time>2015-09-11T13:07:11.133Z</time>
      </trkpt>
      <trkpt lat="47.06343" lon="-1.2632">
        <ele>41</ele>
        <time>2015-09-11T13:07:13.357Z</time>
      </trkpt>
      <trkpt lat="47.06346" lon="-1.26322">
        <ele>41</ele>
        <time>2015-09-11T13:07:14.146Z</time>
      </trkpt>
      <trkpt lat="47.06353" lon="-1.26328">
        <ele>41</ele>
        <time>2015-09-11T13:07:16.339Z</time>
      </trkpt>
      <trkpt lat="47.06356" lon="-1.26331">
        <ele>41</ele>
        <time>2015-09-11T13:07:17.146Z</time>
      </trkpt>
      <trkpt lat="47.06362" lon="-1.26337">
        <ele>41.039</ele>
        <time>2015-09-11T13:07:19.161Z</time>
      </trkpt>
      <trkpt lat="47.06365" lon="-1.26339">
        <ele>40.917</ele>
        <time>2015-09-11T13:07:20.138Z</time>
      </trkpt>
      <trkpt lat="47.06371" lon="-1.26345">
        <ele>40.686</ele>
        <time>2015-09-11T13:07:22.162Z</time>
      </trkpt>
      <trkpt lat="47.06374" lon="-1.26348">
        <ele>40.575</ele>
        <time>2015-09-11T13:07:23.142Z</time>
      </trkpt>
      <trkpt lat="47.0638" lon="-1.26353">
        <ele>40.348</ele>
        <time>2015-09-11T13:07:25.171Z</time>
      </trkpt>
      <trkpt lat="47.06383" lon="-1.26357">
        <ele>40.287</ele>
        <time>2015-09-11T13:07:26.141Z</time>
      </trkpt>
      <trkpt lat="47.06389" lon="-1.26364">
        <ele>40.222</ele>
        <time>2015-09-11T13:07:29.334Z</time>
      </trkpt>
      <trkpt lat="47.06391" lon="-1.26367">
        <ele>40.41</ele>
        <time>2015-09-11T13:07:30.136Z</time>
      </trkpt>
      <trkpt lat="47.06395" lon="-1.26374">
        <ele>40.914</ele>
        <time>2015-09-11T13:07:32.349Z</time>
      </trkpt>
      <trkpt lat="47.06397" lon="-1.26378">
        <ele>41.202</ele>
        <time>2015-09-11T13:07:33.266Z</time>
      </trkpt>
      <trkpt lat="47.06401" lon="-1.26385">
        <ele>41.713</ele>
        <time>2015-09-11T13:07:35.167Z</time>
      </trkpt>
      <trkpt lat="47.06404" lon="-1.26387">
        <ele>41.878</ele>
        <time>2015-09-11T13:07:36.14Z</time>
      </trkpt>
      <trkpt lat="47.06412" lon="-1.26389">
        <ele>42</ele>
        <time>2015-09-11T13:07:43.391Z</time>
      </trkpt>
      <trkpt lat="47.06414" lon="-1.26386">
        <ele>41.806</ele>
        <time>2015-09-11T13:07:44.136Z</time>
      </trkpt>
      <trkpt lat="47.06416" lon="-1.26377">
        <ele>41.137</ele>
        <time>2015-09-11T13:07:46.169Z</time>
      </trkpt>
      <trkpt lat="47.06416" lon="-1.26372">
        <ele>40.791</ele>
        <time>2015-09-11T13:07:47.138Z</time>
      </trkpt>
      <trkpt lat="47.06416" lon="-1.26363">
        <ele>40.15</ele>
        <time>2015-09-11T13:07:49.324Z</time>
      </trkpt>
      <trkpt lat="47.06415" lon="-1.26359">
        <ele>39.996</ele>
        <time>2015-09-11T13:07:50.134Z</time>
      </trkpt>
      <trkpt lat="47.06414" lon="-1.26349">
        <ele>39.963</ele>
        <time>2015-09-11T13:07:52.41Z</time>
      </trkpt>
      <trkpt lat="47.06414" lon="-1.26345">
        <ele>39.932</ele>
        <time>2015-09-11T13:07:53.137Z</time>
      </trkpt>
      <trkpt lat="47.06412" lon="-1.26334">
        <ele>39.834</ele>
        <time>2015-09-11T13:07:55.353Z</time>
      </trkpt>
      <trkpt lat="47.06412" lon="-1.26329">
        <ele>39.693</ele>
        <time>2015-09-11T13:07:56.139Z</time>
      </trkpt>
      <trkpt lat="47.06411" lon="-1.26318">
        <ele>39.351</ele>
        <time>2015-09-11T13:07:58.349Z</time>
      </trkpt>
      <trkpt lat="47.0641" lon="-1.26309">
        <ele>39.084</ele>
        <time>2015-09-11T13:07:59.171Z</time>
      </trkpt>
      <trkpt lat="47.06409" lon="-1.26301">
        <ele>38.961</ele>
        <time>2015-09-11T13:08:00.335Z</time>
      </trkpt>
      <trkpt lat="47.06408" lon="-1.26294">
        <ele>38.87</ele>
        <time>2015-09-11T13:08:01.132Z</time>
      </trkpt>
      <trkpt lat="47.06407" lon="-1.26285">
        <ele>38.75</ele>
        <time>2015-09-11T13:08:02.346Z</time>
      </trkpt>
      <trkpt lat="47.06406" lon="-1.26278">
        <ele>38.627</ele>
        <time>2015-09-11T13:08:03.141Z</time>
      </trkpt>
      <trkpt lat="47.06405" lon="-1.2627">
        <ele>38.594</ele>
        <time>2015-09-11T13:08:04.866Z</time>
      </trkpt>
      <trkpt lat="47.06404" lon="-1.26261">
        <ele>38.544</ele>
        <time>2015-09-11T13:08:05.111Z</time>
      </trkpt>
      <trkpt lat="47.06404" lon="-1.26252">
        <ele>38.537</ele>
        <time>2015-09-11T13:08:06.161Z</time>
      </trkpt>
      <trkpt lat="47.06404" lon="-1.26243">
        <ele>38.657</ele>
        <time>2015-09-11T13:08:07.135Z</time>
      </trkpt>
      <trkpt lat="47.06403" lon="-1.26233">
        <ele>38.81</ele>
        <time>2015-09-11T13:08:08.338Z</time>
      </trkpt>
      <trkpt lat="47.06404" lon="-1.26224">
        <ele>38.966</ele>
        <time>2015-09-11T13:08:09.193Z</time>
      </trkpt>
      <trkpt lat="47.06403" lon="-1.26216">
        <ele>39</ele>
        <time>2015-09-11T13:08:10.332Z</time>
      </trkpt>
      <trkpt lat="47.06402" lon="-1.26207">
        <ele>39</ele>
        <time>2015-09-11T13:08:11.14Z</time>
      </trkpt>
      <trkpt lat="47.06402" lon="-1.26198">
        <ele>39</ele>
        <time>2015-09-11T13:08:12.162Z</time>
      </trkpt>
      <trkpt lat="47.06402" lon="-1.26189">
        <ele>39</ele>
        <time>2015-09-11T13:08:13.107Z</time>
      </trkpt>
      <trkpt lat="47.06402" lon="-1.26181">
        <ele>39</ele>
        <time>2015-09-11T13:08:14.445Z</time>
      </trkpt>
      <trkpt lat="47.06402" lon="-1.26174">
        <ele>39</ele>
        <time>2015-09-11T13:08:15.105Z</time>
      </trkpt>
      <trkpt lat="47.06403" lon="-1.26165">
        <ele>39</ele>
        <time>2015-09-11T13:08:16.166Z</time>
      </trkpt>
      <trkpt lat="47.06403" lon="-1.26155">
        <ele>39</ele>
        <time>2015-09-11T13:08:17.139Z</time>
      </trkpt>
      <trkpt lat="47.06404" lon="-1.26146">
        <ele>39</ele>
        <time>2015-09-11T13:08:18.422Z</time>
      </trkpt>
      <trkpt lat="47.06404" lon="-1.26138">
        <ele>38.982</ele>
        <time>2015-09-11T13:08:19.127Z</time>
      </trkpt>
      <trkpt lat="47.06403" lon="-1.26132">
        <ele>38.888</ele>
        <time>2015-09-11T13:08:20.338Z</time>
      </trkpt>
      <trkpt lat="47.06404" lon="-1.26123">
        <ele>38.737</ele>
        <time>2015-09-11T13:08:21.147Z</time>
      </trkpt>
      <trkpt lat="47.06406" lon="-1.26112">
        <ele>38.611</ele>
        <time>2015-09-11T13:08:22.423Z</time>
      </trkpt>
      <trkpt lat="47.06406" lon="-1.26104">
        <ele>38.5</ele>
        <time>2015-09-11T13:08:23.131Z</time>
      </trkpt>
      <trkpt lat="47.06406" lon="-1.26096">
        <ele>38.396</ele>
        <time>2015-09-11T13:08:24.328Z</time>
      </trkpt>
      <trkpt lat="47.06407" lon="-1.26086">
        <ele>38.308</ele>
        <time>2015-09-11T13:08:25.152Z</time>
      </trkpt>
      <trkpt lat="47.06406" lon="-1.26078">
        <ele>37.912</ele>
        <time>2015-09-11T13:08:26.558Z</time>
      </trkpt>
      <trkpt lat="47.06406" lon="-1.26069">
        <ele>37.348</ele>
        <time>2015-09-11T13:08:27.105Z</time>
      </trkpt>
      <trkpt lat="47.06406" lon="-1.2606">
        <ele>36.882</ele>
        <time>2015-09-11T13:08:28.182Z</time>
      </trkpt>
      <trkpt lat="47.06408" lon="-1.26052">
        <ele>36.494</ele>
        <time>2015-09-11T13:08:29.138Z</time>
      </trkpt>
      <trkpt lat="47.0641" lon="-1.26044">
        <ele>36.221</ele>
        <time>2015-09-11T13:08:30.18Z</time>
      </trkpt>
      <trkpt lat="47.06411" lon="-1.26037">
        <ele>36.016</ele>
        <time>2015-09-11T13:08:31.106Z</time>
      </trkpt>
      <trkpt lat="47.06414" lon="-1.26027">
        <ele>35.773</ele>
        <time>2015-09-11T13:08:32.35Z</time>
      </trkpt>
      <trkpt lat="47.06416" lon="-1.26019">
        <ele>35.622</ele>
        <time>2015-09-11T13:08:33.137Z</time>
      </trkpt>
      <trkpt lat="47.06419" lon="-1.26008">
        <ele>35.485</ele>
        <time>2015-09-11T13:08:34.195Z</time>
      </trkpt>
      <trkpt lat="47.06422" lon="-1.26">
        <ele>35.402</ele>
        <time>2015-09-11T13:08:35.108Z</time>
      </trkpt>
      <trkpt lat="47.06425" lon="-1.25991">
        <ele>35.28</ele>
        <time>2015-09-11T13:08:36.228Z</time>
      </trkpt>
      <trkpt lat="47.06429" lon="-1.25981">
        <ele>35.215</ele>
        <time>2015-09-11T13:08:37.119Z</time>
      </trkpt>
      <trkpt lat="47.06432" lon="-1.25973">
        <ele>35.125</ele>
        <time>2015-09-11T13:08:38.16Z</time>
      </trkpt>
      <trkpt lat="47.06436" lon="-1.25964">
        <ele>34.878</ele>
        <time>2015-09-11T13:08:39.123Z</time>
      </trkpt>
      <trkpt lat="47.06436" lon="-1.25964">
        <ele>34.878</ele>
        <time>2015-09-11T13:08:39.231Z</time>
      </trkpt>
      <trkpt lat="47.06442" lon="-1.25951">
        <ele>34.341</ele>
        <time>2015-09-11T13:08:40.133Z</time>
      </trkpt>
      <trkpt lat="47.06447" lon="-1.25944">
        <ele>33.986</ele>
        <time>2015-09-11T13:08:41.348Z</time>
      </trkpt>
      <trkpt lat="47.06453" lon="-1.25936">
        <ele>33.618</ele>
        <time>2015-09-11T13:08:42.133Z</time>
      </trkpt>
      <trkpt lat="47.06453" lon="-1.25936">
        <ele>33.618</ele>
        <time>2015-09-11T13:08:42.503Z</time>
      </trkpt>
      <trkpt lat="47.06461" lon="-1.25928">
        <ele>33.028</ele>
        <time>2015-09-11T13:08:43.151Z</time>
      </trkpt>
      <trkpt lat="47.06469" lon="-1.25922">
        <ele>32.476</ele>
        <time>2015-09-11T13:08:44.332Z</time>
      </trkpt>
      <trkpt lat="47.06475" lon="-1.25916">
        <ele>32.097</ele>
        <time>2015-09-11T13:08:45.132Z</time>
      </trkpt>
      <trkpt lat="47.06482" lon="-1.25911">
        <ele>32.263</ele>
        <time>2015-09-11T13:08:46.167Z</time>
      </trkpt>
      <trkpt lat="47.06488" lon="-1.25905">
        <ele>32.311</ele>
        <time>2015-09-11T13:08:47.107Z</time>
      </trkpt>
      <trkpt lat="47.06492" lon="-1.25896">
        <ele>32.184</ele>
        <time>2015-09-11T13:08:48.352Z</time>
      </trkpt>
      <trkpt lat="47.06494" lon="-1.25888">
        <ele>32</ele>
        <time>2015-09-11T13:08:49.129Z</time>
      </trkpt>
      <trkpt lat="47.06492" lon="-1.2588">
        <ele>32</ele>
        <time>2015-09-11T13:08:50.341Z</time>
      </trkpt>
      <trkpt lat="47.0649" lon="-1.25873">
        <ele>32</ele>
        <time>2015-09-11T13:08:51.144Z</time>
      </trkpt>
      <trkpt lat="47.06487" lon="-1.25867">
        <ele>32</ele>
        <time>2015-09-11T13:08:52.156Z</time>
      </trkpt>
      <trkpt lat="47.06484" lon="-1.25859">
        <ele>32.143</ele>
        <time>2015-09-11T13:08:53.104Z</time>
      </trkpt>
      <trkpt lat="47.06482" lon="-1.25851">
        <ele>32.629</ele>
        <time>2015-09-11T13:08:54.377Z</time>
      </trkpt>
      <trkpt lat="47.0648" lon="-1.25844">
        <ele>33.089</ele>
        <time>2015-09-11T13:08:55.151Z</time>
      </trkpt>
      <trkpt lat="47.06478" lon="-1.25837">
        <ele>33.543</ele>
        <time>2015-09-11T13:08:56.278Z</time>
      </trkpt>
      <trkpt lat="47.06476" lon="-1.25831">
        <ele>33.955</ele>
        <time>2015-09-11T13:08:57.103Z</time>
      </trkpt>
      <trkpt lat="47.06472" lon="-1.25821">
        <ele>34.462</ele>
        <time>2015-09-11T13:08:59.745Z</time>
      </trkpt>
      <trkpt lat="47.0647" lon="-1.25814">
        <ele>34.692</ele>
        <time>2015-09-11T13:09:00.106Z</time>
      </trkpt>
      <trkpt lat="47.06466" lon="-1.25804">
        <ele>35.009</ele>
        <time>2015-09-11T13:09:02.379Z</time>
      </trkpt>
      <trkpt lat="47.06464" lon="-1.258">
        <ele>35.06</ele>
        <time>2015-09-11T13:09:03.135Z</time>
      </trkpt>
      <trkpt lat="47.06461" lon="-1.25793">
        <ele>35.195</ele>
        <time>2015-09-11T13:09:05.396Z</time>
      </trkpt>
      <trkpt lat="47.06459" lon="-1.25787">
        <ele>35.319</ele>
        <time>2015-09-11T13:09:06.202Z</time>
      </trkpt>
      <trkpt lat="47.06455" lon="-1.25779">
        <ele>35.585</ele>
        <time>2015-09-11T13:09:08.161Z</time>
      </trkpt>
      <trkpt lat="47.06453" lon="-1.25775">
        <ele>35.826</ele>
        <time>2015-09-11T13:09:09.133Z</time>
      </trkpt>
      <trkpt lat="47.06448" lon="-1.25767">
        <ele>36.306</ele>
        <time>2015-09-11T13:09:11.419Z</time>
      </trkpt>
      <trkpt lat="47.06446" lon="-1.25764">
        <ele>36.488</ele>
        <time>2015-09-11T13:09:12.14Z</time>
      </trkpt>
      <trkpt lat="47.06441" lon="-1.25758">
        <ele>36.812</ele>
        <time>2015-09-11T13:09:14.334Z</time>
      </trkpt>
      <trkpt lat="47.06438" lon="-1.25755">
        <ele>36.994</ele>
        <time>2015-09-11T13:09:15.178Z</time>
      </trkpt>
      <trkpt lat="47.06431" lon="-1.25748">
        <ele>37.657</ele>
        <time>2015-09-11T13:09:18.397Z</time>
      </trkpt>
      <trkpt lat="47.06429" lon="-1.25745">
        <ele>37.891</ele>
        <time>2015-09-11T13:09:19.133Z</time>
      </trkpt>
      <trkpt lat="47.06422" lon="-1.25738">
        <ele>38.661</ele>
        <time>2015-09-11T13:09:22.375Z</time>
      </trkpt>
      <trkpt lat="47.0642" lon="-1.25738">
        <ele>38.787</ele>
        <time>2015-09-11T13:09:23.139Z</time>
      </trkpt>
      <trkpt lat="47.06411" lon="-1.25734">
        <ele>39.23</ele>
        <time>2015-09-11T13:09:26.16Z</time>
      </trkpt>
      <trkpt lat="47.06408" lon="-1.25733">
        <ele>39.356</ele>
        <time>2015-09-11T13:09:27.139Z</time>
      </trkpt>
      <trkpt lat="47.06402" lon="-1.25731">
        <ele>39.55</ele>
        <time>2015-09-11T13:09:29.166Z</time>
      </trkpt>
      <trkpt lat="47.06399" lon="-1.2573">
        <ele>39.629</ele>
        <time>2015-09-11T13:09:30.147Z</time>
      </trkpt>
      <trkpt lat="47.06393" lon="-1.25728">
        <ele>39.755</ele>
        <time>2015-09-11T13:09:32.164Z</time>
      </trkpt>
      <trkpt lat="47.06389" lon="-1.25727">
        <ele>39.825</ele>
        <time>2015-09-11T13:09:33.138Z</time>
      </trkpt>
      <trkpt lat="47.06383" lon="-1.25725">
        <ele>39.897</ele>
        <time>2015-09-11T13:09:35.168Z</time>
      </trkpt>
      <trkpt lat="47.0638" lon="-1.25723">
        <ele>39.954</ele>
        <time>2015-09-11T13:09:36.107Z</time>
      </trkpt>
      <trkpt lat="47.06374" lon="-1.25721">
        <ele>40.09</ele>
        <time>2015-09-11T13:09:38.342Z</time>
      </trkpt>
      <trkpt lat="47.06371" lon="-1.25719">
        <ele>40.146</ele>
        <time>2015-09-11T13:09:39.209Z</time>
      </trkpt>
      <trkpt lat="47.06364" lon="-1.25717">
        <ele>40.223</ele>
        <time>2015-09-11T13:09:41.163Z</time>
      </trkpt>
      <trkpt lat="47.06361" lon="-1.25715">
        <ele>40.229</ele>
        <time>2015-09-11T13:09:42.105Z</time>
      </trkpt>
      <trkpt lat="47.06353" lon="-1.25713">
        <ele>40.147</ele>
        <time>2015-09-11T13:09:44.164Z</time>
      </trkpt>
      <trkpt lat="47.0635" lon="-1.25712">
        <ele>40.121</ele>
        <time>2015-09-11T13:09:45.109Z</time>
      </trkpt>
      <trkpt lat="47.06343" lon="-1.25709">
        <ele>40.129</ele>
        <time>2015-09-11T13:09:47.169Z</time>
      </trkpt>
      <trkpt lat="47.06339" lon="-1.25707">
        <ele>40.174</ele>
        <time>2015-09-11T13:09:48.134Z</time>
      </trkpt>
      <trkpt lat="47.06333" lon="-1.25704">
        <ele>40.342</ele>
        <time>2015-09-11T13:09:50.151Z</time>
      </trkpt>
      <trkpt lat="47.06329" lon="-1.25703">
        <ele>40.569</ele>
        <time>2015-09-11T13:09:51.107Z</time>
      </trkpt>
      <trkpt lat="47.06322" lon="-1.257">
        <ele>41.001</ele>
        <time>2015-09-11T13:09:53.161Z</time>
      </trkpt>
      <trkpt lat="47.06318" lon="-1.25699">
        <ele>41.238</ele>
        <time>2015-09-11T13:09:54.105Z</time>
      </trkpt>
      <trkpt lat="47.06311" lon="-1.25696">
        <ele>41.706</ele>
        <time>2015-09-11T13:09:56.367Z</time>
      </trkpt>
      <trkpt lat="47.06308" lon="-1.25694">
        <ele>41.925</ele>
        <time>2015-09-11T13:09:57.113Z</time>
      </trkpt>
      <trkpt lat="47.06301" lon="-1.25692">
        <ele>42.247</ele>
        <time>2015-09-11T13:09:59.499Z</time>
      </trkpt>
      <trkpt lat="47.06297" lon="-1.25691">
        <ele>42.394</ele>
        <time>2015-09-11T13:10:00.106Z</time>
      </trkpt>
      <trkpt lat="47.0629" lon="-1.25688">
        <ele>42.66</ele>
        <time>2015-09-11T13:10:02.357Z</time>
      </trkpt>
      <trkpt lat="47.06287" lon="-1.25687">
        <ele>42.774</ele>
        <time>2015-09-11T13:10:03.236Z</time>
      </trkpt>
      <trkpt lat="47.06279" lon="-1.25684">
        <ele>42.966</ele>
        <time>2015-09-11T13:10:05.16Z</time>
      </trkpt>
      <trkpt lat="47.06276" lon="-1.25683">
        <ele>43.03</ele>
        <time>2015-09-11T13:10:06.136Z</time>
      </trkpt>
      <trkpt lat="47.06268" lon="-1.2568">
        <ele>43.177</ele>
        <time>2015-09-11T13:10:08.475Z</time>
      </trkpt>
      <trkpt lat="47.06265" lon="-1.25679">
        <ele>43.264</ele>
        <time>2015-09-11T13:10:09.106Z</time>
      </trkpt>
      <trkpt lat="47.06257" lon="-1.25677">
        <ele>43.479</ele>
        <time>2015-09-11T13:10:11.383Z</time>
      </trkpt>
      <trkpt lat="47.06254" lon="-1.25675">
        <ele>43.606</ele>
        <time>2015-09-11T13:10:12.106Z</time>
      </trkpt>
      <trkpt lat="47.06246" lon="-1.25672">
        <ele>43.804</ele>
        <time>2015-09-11T13:10:14.5Z</time>
      </trkpt>
      <trkpt lat="47.06243" lon="-1.25671">
        <ele>43.862</ele>
        <time>2015-09-11T13:10:15.111Z</time>
      </trkpt>
      <trkpt lat="47.06236" lon="-1.25668">
        <ele>43.97</ele>
        <time>2015-09-11T13:10:17.148Z</time>
      </trkpt>
      <trkpt lat="47.06231" lon="-1.25667">
        <ele>44</ele>
        <time>2015-09-11T13:10:18.106Z</time>
      </trkpt>
      <trkpt lat="47.06223" lon="-1.25664">
        <ele>44</ele>
        <time>2015-09-11T13:10:20.164Z</time>
      </trkpt>
      <trkpt lat="47.06219" lon="-1.25662">
        <ele>44.119</ele>
        <time>2015-09-11T13:10:21.107Z</time>
      </trkpt>
      <trkpt lat="47.06212" lon="-1.25659">
        <ele>44.492</ele>
        <time>2015-09-11T13:10:23.418Z</time>
      </trkpt>
      <trkpt lat="47.06208" lon="-1.25657">
        <ele>44.703</ele>
        <time>2015-09-11T13:10:24.141Z</time>
      </trkpt>
      <trkpt lat="47.062" lon="-1.25654">
        <ele>45.167</ele>
        <time>2015-09-11T13:10:26.283Z</time>
      </trkpt>
      <trkpt lat="47.06196" lon="-1.25653">
        <ele>45.408</ele>
        <time>2015-09-11T13:10:27.135Z</time>
      </trkpt>
      <trkpt lat="47.06188" lon="-1.2565">
        <ele>45.726</ele>
        <time>2015-09-11T13:10:29.341Z</time>
      </trkpt>
      <trkpt lat="47.06185" lon="-1.25649">
        <ele>45.864</ele>
        <time>2015-09-11T13:10:30.135Z</time>
      </trkpt>
      <trkpt lat="47.06177" lon="-1.25646">
        <ele>46.206</ele>
        <time>2015-09-11T13:10:32.338Z</time>
      </trkpt>
      <trkpt lat="47.06174" lon="-1.25644">
        <ele>46.419</ele>
        <time>2015-09-11T13:10:33.134Z</time>
      </trkpt>
      <trkpt lat="47.06166" lon="-1.25641">
        <ele>46.848</ele>
        <time>2015-09-11T13:10:35.174Z</time>
      </trkpt>
      <trkpt lat="47.06163" lon="-1.25639">
        <ele>46.834</ele>
        <time>2015-09-11T13:10:36.108Z</time>
      </trkpt>
      <trkpt lat="47.06155" lon="-1.25636">
        <ele>46.667</ele>
        <time>2015-09-11T13:10:38.346Z</time>
      </trkpt>
      <trkpt lat="47.06152" lon="-1.25635">
        <ele>46.612</ele>
        <time>2015-09-11T13:10:39.25Z</time>
      </trkpt>
      <trkpt lat="47.06145" lon="-1.25633">
        <ele>46.563</ele>
        <time>2015-09-11T13:10:41.165Z</time>
      </trkpt>
      <trkpt lat="47.06141" lon="-1.25631">
        <ele>46.571</ele>
        <time>2015-09-11T13:10:42.139Z</time>
      </trkpt>
      <trkpt lat="47.06134" lon="-1.25629">
        <ele>46.841</ele>
        <time>2015-09-11T13:10:44.164Z</time>
      </trkpt>
      <trkpt lat="47.0613" lon="-1.25628">
        <ele>46.99</ele>
        <time>2015-09-11T13:10:45.122Z</time>
      </trkpt>
      <trkpt lat="47.06123" lon="-1.25626">
        <ele>47.224</ele>
        <time>2015-09-11T13:10:47.346Z</time>
      </trkpt>
      <trkpt lat="47.0612" lon="-1.25626">
        <ele>47.303</ele>
        <time>2015-09-11T13:10:48.154Z</time>
      </trkpt>
      <trkpt lat="47.06112" lon="-1.25627">
        <ele>47.389</ele>
        <time>2015-09-11T13:10:50.164Z</time>
      </trkpt>
      <trkpt lat="47.06109" lon="-1.25628">
        <ele>47.385</ele>
        <time>2015-09-11T13:10:51.135Z</time>
      </trkpt>
      <trkpt lat="47.06102" lon="-1.25627">
        <ele>47.424</ele>
        <time>2015-09-11T13:10:53.369Z</time>
      </trkpt>
      <trkpt lat="47.06098" lon="-1.25624">
        <ele>47.529</ele>
        <time>2015-09-11T13:10:54.105Z</time>
      </trkpt>
      <trkpt lat="47.06093" lon="-1.25616">
        <ele>47.828</ele>
        <time>2015-09-11T13:10:56.396Z</time>
      </trkpt>
      <trkpt lat="47.0609" lon="-1.25612">
        <ele>47.954</ele>
        <time>2015-09-11T13:10:57.15Z</time>
      </trkpt>
      <trkpt lat="47.06082" lon="-1.25609">
        <ele>48.031</ele>
        <time>2015-09-11T13:10:59.171Z</time>
      </trkpt>
      <trkpt lat="47.06079" lon="-1.25608">
        <ele>48.152</ele>
        <time>2015-09-11T13:11:00.109Z</time>
      </trkpt>
      <trkpt lat="47.06071" lon="-1.25606">
        <ele>48.357</ele>
        <time>2015-09-11T13:11:02.299Z</time>
      </trkpt>
      <trkpt lat="47.06067" lon="-1.25604">
        <ele>48.436</ele>
        <time>2015-09-11T13:11:03.137Z</time>
      </trkpt>
      <trkpt lat="47.0606" lon="-1.25601">
        <ele>48.545</ele>
        <time>2015-09-11T13:11:05.169Z</time>
      </trkpt>
      <trkpt lat="47.06056" lon="-1.25599">
        <ele>48.569</ele>
        <time>2015-09-11T13:11:06.157Z</time>
      </trkpt>
      <trkpt lat="47.06049" lon="-1.25596">
        <ele>48.71</ele>
        <time>2015-09-11T13:11:08.163Z</time>
      </trkpt>
      <trkpt lat="47.06045" lon="-1.25594">
        <ele>48.789</ele>
        <time>2015-09-11T13:11:09.227Z</time>
      </trkpt>
      <trkpt lat="47.06037" lon="-1.25592">
        <ele>48.973</ele>
        <time>2015-09-11T13:11:11.164Z</time>
      </trkpt>
      <trkpt lat="47.06033" lon="-1.25591">
        <ele>49.07</ele>
        <time>2015-09-11T13:11:12.136Z</time>
      </trkpt>
      <trkpt lat="47.06025" lon="-1.25588">
        <ele>49.258</ele>
        <time>2015-09-11T13:11:14.478Z</time>
      </trkpt>
      <trkpt lat="47.06021" lon="-1.25587">
        <ele>49.334</ele>
        <time>2015-09-11T13:11:15.135Z</time>
      </trkpt>
      <trkpt lat="47.06013" lon="-1.25583">
        <ele>49.533</ele>
        <time>2015-09-11T13:11:17.444Z</time>
      </trkpt>
      <trkpt lat="47.06009" lon="-1.25582">
        <ele>49.647</ele>
        <time>2015-09-11T13:11:18.105Z</time>
      </trkpt>
      <trkpt lat="47.06002" lon="-1.25579">
        <ele>49.933</ele>
        <time>2015-09-11T13:11:20.161Z</time>
      </trkpt>
      <trkpt lat="47.05998" lon="-1.25577">
        <ele>50</ele>
        <time>2015-09-11T13:11:21.108Z</time>
      </trkpt>
      <trkpt lat="47.0599" lon="-1.25574">
        <ele>50</ele>
        <time>2015-09-11T13:11:23.161Z</time>
      </trkpt>
      <trkpt lat="47.05985" lon="-1.25573">
        <ele>50</ele>
        <time>2015-09-11T13:11:24.142Z</time>
      </trkpt>
      <trkpt lat="47.05977" lon="-1.25569">
        <ele>50</ele>
        <time>2015-09-11T13:11:26.163Z</time>
      </trkpt>
      <trkpt lat="47.05973" lon="-1.25567">
        <ele>50</ele>
        <time>2015-09-11T13:11:27.137Z</time>
      </trkpt>
      <trkpt lat="47.05965" lon="-1.25564">
        <ele>50</ele>
        <time>2015-09-11T13:11:29.16Z</time>
      </trkpt>
      <trkpt lat="47.0596" lon="-1.25563">
        <ele>50</ele>
        <time>2015-09-11T13:11:30.135Z</time>
      </trkpt>
      <trkpt lat="47.05952" lon="-1.25559">
        <ele>50</ele>
        <time>2015-09-11T13:11:32.159Z</time>
      </trkpt>
      <trkpt lat="47.05947" lon="-1.25557">
        <ele>50</ele>
        <time>2015-09-11T13:11:33.149Z</time>
      </trkpt>
      <trkpt lat="47.05939" lon="-1.25554">
        <ele>50.259</ele>
        <time>2015-09-11T13:11:35.159Z</time>
      </trkpt>
      <trkpt lat="47.05932" lon="-1.25552">
        <ele>50.516</ele>
        <time>2015-09-11T13:11:36.131Z</time>
      </trkpt>
      <trkpt lat="47.05928" lon="-1.2555">
        <ele>50.688</ele>
        <time>2015-09-11T13:11:37.166Z</time>
      </trkpt>
      <trkpt lat="47.05923" lon="-1.25548">
        <ele>50.834</ele>
        <time>2015-09-11T13:11:38.107Z</time>
      </trkpt>
      <trkpt lat="47.05914" lon="-1.25546">
        <ele>50.915</ele>
        <time>2015-09-11T13:11:40.394Z</time>
      </trkpt>
      <trkpt lat="47.05909" lon="-1.25544">
        <ele>50.724</ele>
        <time>2015-09-11T13:11:41.137Z</time>
      </trkpt>
      <trkpt lat="47.05905" lon="-1.25542">
        <ele>50.573</ele>
        <time>2015-09-11T13:11:42.345Z</time>
      </trkpt>
      <trkpt lat="47.059" lon="-1.25541">
        <ele>50.407</ele>
        <time>2015-09-11T13:11:43.138Z</time>
      </trkpt>
      <trkpt lat="47.05896" lon="-1.25539">
        <ele>50.249</ele>
        <time>2015-09-11T13:11:44.177Z</time>
      </trkpt>
      <trkpt lat="47.05892" lon="-1.25535">
        <ele>50.105</ele>
        <time>2015-09-11T13:11:45.11Z</time>
      </trkpt>
      <trkpt lat="47.05883" lon="-1.25533">
        <ele>49.59</ele>
        <time>2015-09-11T13:11:47.765Z</time>
      </trkpt>
      <trkpt lat="47.05879" lon="-1.25531">
        <ele>49.252</ele>
        <time>2015-09-11T13:11:48.106Z</time>
      </trkpt>
      <trkpt lat="47.05872" lon="-1.25524">
        <ele>48.701</ele>
        <time>2015-09-11T13:11:50.333Z</time>
      </trkpt>
      <trkpt lat="47.05869" lon="-1.25522">
        <ele>48.487</ele>
        <time>2015-09-11T13:11:51.138Z</time>
      </trkpt>
      <trkpt lat="47.05865" lon="-1.25512">
        <ele>48.194</ele>
        <time>2015-09-11T13:12:10.155Z</time>
      </trkpt>
      <trkpt lat="47.05865" lon="-1.25509">
        <ele>48.202</ele>
        <time>2015-09-11T13:12:11.104Z</time>
      </trkpt>
      <trkpt lat="47.05863" lon="-1.25501">
        <ele>48.077</ele>
        <time>2015-09-11T13:12:13.165Z</time>
      </trkpt>
      <trkpt lat="47.05862" lon="-1.25496">
        <ele>48.018</ele>
        <time>2015-09-11T13:12:14.141Z</time>
      </trkpt>
      <trkpt lat="47.05858" lon="-1.25485">
        <ele>48.112</ele>
        <time>2015-09-11T13:12:16.16Z</time>
      </trkpt>
      <trkpt lat="47.05856" lon="-1.2548">
        <ele>48.177</ele>
        <time>2015-09-11T13:12:17.14Z</time>
      </trkpt>
      <trkpt lat="47.05854" lon="-1.25473">
        <ele>48.245</ele>
        <time>2015-09-11T13:12:18.16Z</time>
      </trkpt>
      <trkpt lat="47.05853" lon="-1.25467">
        <ele>48.306</ele>
        <time>2015-09-11T13:12:19.107Z</time>
      </trkpt>
      <trkpt lat="47.0585" lon="-1.25457">
        <ele>48.411</ele>
        <time>2015-09-11T13:12:20.261Z</time>
      </trkpt>
      <trkpt lat="47.05848" lon="-1.25451">
        <ele>48.472</ele>
        <time>2015-09-11T13:12:21.107Z</time>
      </trkpt>
      <trkpt lat="47.05845" lon="-1.2544">
        <ele>48.566</ele>
        <time>2015-09-11T13:12:23.162Z</time>
      </trkpt>
      <trkpt lat="47.05844" lon="-1.25434">
        <ele>48.62</ele>
        <time>2015-09-11T13:12:24.111Z</time>
      </trkpt>
      <trkpt lat="47.0584" lon="-1.25426">
        <ele>48.764</ele>
        <time>2015-09-11T13:12:26.512Z</time>
      </trkpt>
      <trkpt lat="47.05837" lon="-1.25422">
        <ele>48.882</ele>
        <time>2015-09-11T13:12:27.137Z</time>
      </trkpt>
      <trkpt lat="47.05833" lon="-1.25412">
        <ele>48.849</ele>
        <time>2015-09-11T13:12:29.174Z</time>
      </trkpt>
      <trkpt lat="47.05831" lon="-1.25407">
        <ele>48.82</ele>
        <time>2015-09-11T13:12:30.135Z</time>
      </trkpt>
      <trkpt lat="47.05828" lon="-1.25397">
        <ele>48.644</ele>
        <time>2015-09-11T13:12:32.654Z</time>
      </trkpt>
      <trkpt lat="47.05827" lon="-1.25391">
        <ele>48.55</ele>
        <time>2015-09-11T13:12:33.105Z</time>
      </trkpt>
      <trkpt lat="47.05823" lon="-1.2538">
        <ele>48.73</ele>
        <time>2015-09-11T13:12:35.284Z</time>
      </trkpt>
      <trkpt lat="47.05821" lon="-1.25375">
        <ele>48.881</ele>
        <time>2015-09-11T13:12:36.129Z</time>
      </trkpt>
      <trkpt lat="47.05817" lon="-1.25364">
        <ele>49.147</ele>
        <time>2015-09-11T13:12:38.354Z</time>
      </trkpt>
      <trkpt lat="47.05816" lon="-1.25359">
        <ele>49.257</ele>
        <time>2015-09-11T13:12:39.14Z</time>
      </trkpt>
      <trkpt lat="47.05815" lon="-1.25348">
        <ele>49.165</ele>
        <time>2015-09-11T13:12:41.161Z</time>
      </trkpt>
      <trkpt lat="47.05816" lon="-1.25344">
        <ele>49.08</ele>
        <time>2015-09-11T13:12:42.12Z</time>
      </trkpt>
      <trkpt lat="47.05814" lon="-1.25332">
        <ele>49.019</ele>
        <time>2015-09-11T13:12:45.333Z</time>
      </trkpt>
      <trkpt lat="47.05813" lon="-1.25328">
        <ele>49.051</ele>
        <time>2015-09-11T13:12:46.213Z</time>
      </trkpt>
      <trkpt lat="47.0581" lon="-1.25319">
        <ele>49.073</ele>
        <time>2015-09-11T13:12:48.177Z</time>
      </trkpt>
      <trkpt lat="47.05808" lon="-1.25315">
        <ele>49.054</ele>
        <time>2015-09-11T13:12:49.18Z</time>
      </trkpt>
      <trkpt lat="47.05804" lon="-1.25305">
        <ele>49</ele>
        <time>2015-09-11T13:12:51.161Z</time>
      </trkpt>
      <trkpt lat="47.05803" lon="-1.253">
        <ele>49</ele>
        <time>2015-09-11T13:12:52.14Z</time>
      </trkpt>
      <trkpt lat="47.05801" lon="-1.25288">
        <ele>49</ele>
        <time>2015-09-11T13:12:54.165Z</time>
      </trkpt>
      <trkpt lat="47.05799" lon="-1.25283">
        <ele>49</ele>
        <time>2015-09-11T13:12:55.134Z</time>
      </trkpt>
      <trkpt lat="47.05796" lon="-1.25273">
        <ele>48.936</ele>
        <time>2015-09-11T13:12:57.161Z</time>
      </trkpt>
      <trkpt lat="47.05794" lon="-1.25268">
        <ele>48.843</ele>
        <time>2015-09-11T13:12:58.147Z</time>
      </trkpt>
      <trkpt lat="47.05792" lon="-1.25262">
        <ele>48.723</ele>
        <time>2015-09-11T13:12:59.167Z</time>
      </trkpt>
      <trkpt lat="47.05789" lon="-1.25252">
        <ele>48.454</ele>
        <time>2015-09-11T13:13:00.105Z</time>
      </trkpt>
      <trkpt lat="47.05788" lon="-1.25244">
        <ele>48.357</ele>
        <time>2015-09-11T13:13:01.291Z</time>
      </trkpt>
      <trkpt lat="47.05785" lon="-1.2524">
        <ele>48.242</ele>
        <time>2015-09-11T13:13:02.197Z</time>
      </trkpt>
      <trkpt lat="47.0578" lon="-1.2523">
        <ele>48.087</ele>
        <time>2015-09-11T13:13:04.439Z</time>
      </trkpt>
      <trkpt lat="47.05779" lon="-1.25225">
        <ele>48.026</ele>
        <time>2015-09-11T13:13:05.328Z</time>
      </trkpt>
      <trkpt lat="47.05776" lon="-1.25214">
        <ele>48.314</ele>
        <time>2015-09-11T13:13:07.184Z</time>
      </trkpt>
      <trkpt lat="47.05774" lon="-1.25208">
        <ele>48.516</ele>
        <time>2015-09-11T13:13:08.141Z</time>
      </trkpt>
      <trkpt lat="47.05771" lon="-1.25198">
        <ele>48.886</ele>
        <time>2015-09-11T13:13:10.206Z</time>
      </trkpt>
      <trkpt lat="47.05769" lon="-1.25194">
        <ele>49</ele>
        <time>2015-09-11T13:13:11.147Z</time>
      </trkpt>
      <trkpt lat="47.05765" lon="-1.25186">
        <ele>49</ele>
        <time>2015-09-11T13:13:13.16Z</time>
      </trkpt>
      <trkpt lat="47.05763" lon="-1.2518">
        <ele>49</ele>
        <time>2015-09-11T13:13:14.126Z</time>
      </trkpt>
      <trkpt lat="47.05761" lon="-1.25174">
        <ele>49</ele>
        <time>2015-09-11T13:13:15.331Z</time>
      </trkpt>
      <trkpt lat="47.0576" lon="-1.25168">
        <ele>49</ele>
        <time>2015-09-11T13:13:16.141Z</time>
      </trkpt>
      <trkpt lat="47.05759" lon="-1.25161">
        <ele>49.068</ele>
        <time>2015-09-11T13:13:17.153Z</time>
      </trkpt>
      <trkpt lat="47.05757" lon="-1.25154">
        <ele>49.117</ele>
        <time>2015-09-11T13:13:18.123Z</time>
      </trkpt>
      <trkpt lat="47.05755" lon="-1.25148">
        <ele>49.133</ele>
        <time>2015-09-11T13:13:19.289Z</time>
      </trkpt>
      <trkpt lat="47.05754" lon="-1.25141">
        <ele>49.121</ele>
        <time>2015-09-11T13:13:20.153Z</time>
      </trkpt>
      <trkpt lat="47.05752" lon="-1.25135">
        <ele>49.218</ele>
        <time>2015-09-11T13:13:21.468Z</time>
      </trkpt>
      <trkpt lat="47.05751" lon="-1.25128">
        <ele>49.417</ele>
        <time>2015-09-11T13:13:22.107Z</time>
      </trkpt>
      <trkpt lat="47.05749" lon="-1.25121">
        <ele>49.647</ele>
        <time>2015-09-11T13:13:23.175Z</time>
      </trkpt>
      <trkpt lat="47.05748" lon="-1.25114">
        <ele>49.917</ele>
        <time>2015-09-11T13:13:24.132Z</time>
      </trkpt>
      <trkpt lat="47.05748" lon="-1.25114">
        <ele>49.917</ele>
        <time>2015-09-11T13:13:24.553Z</time>
      </trkpt>
      <trkpt lat="47.05749" lon="-1.25094">
        <ele>50</ele>
        <time>2015-09-11T13:13:25.105Z</time>
      </trkpt>
      <trkpt lat="47.05746" lon="-1.25083">
        <ele>50</ele>
        <time>2015-09-11T13:13:27.359Z</time>
      </trkpt>
      <trkpt lat="47.05745" lon="-1.25077">
        <ele>49.814</ele>
        <time>2015-09-11T13:13:28.141Z</time>
      </trkpt>
      <trkpt lat="47.05742" lon="-1.25073">
        <ele>49.721</ele>
        <time>2015-09-11T13:13:29.362Z</time>
      </trkpt>
      <trkpt lat="47.0574" lon="-1.25065">
        <ele>49.585</ele>
        <time>2015-09-11T13:13:30.133Z</time>
      </trkpt>
      <trkpt lat="47.05739" lon="-1.25058">
        <ele>49.451</ele>
        <time>2015-09-11T13:13:31.357Z</time>
      </trkpt>
      <trkpt lat="47.05738" lon="-1.25051">
        <ele>49.52</ele>
        <time>2015-09-11T13:13:32.148Z</time>
      </trkpt>
      <trkpt lat="47.05734" lon="-1.25042">
        <ele>49.779</ele>
        <time>2015-09-11T13:13:34.5Z</time>
      </trkpt>
      <trkpt lat="47.05733" lon="-1.25037">
        <ele>49.876</ele>
        <time>2015-09-11T13:13:35.105Z</time>
      </trkpt>
      <trkpt lat="47.05728" lon="-1.25027">
        <ele>50.017</ele>
        <time>2015-09-11T13:13:37.384Z</time>
      </trkpt>
      <trkpt lat="47.05727" lon="-1.25021">
        <ele>50.219</ele>
        <time>2015-09-11T13:13:38.112Z</time>
      </trkpt>
      <trkpt lat="47.05723" lon="-1.2501">
        <ele>50.623</ele>
        <time>2015-09-11T13:13:40.312Z</time>
      </trkpt>
      <trkpt lat="47.05722" lon="-1.25001">
        <ele>50.949</ele>
        <time>2015-09-11T13:13:41.172Z</time>
      </trkpt>
      <trkpt lat="47.0572" lon="-1.24994">
        <ele>50.943</ele>
        <time>2015-09-11T13:13:42.169Z</time>
      </trkpt>
      <trkpt lat="47.05719" lon="-1.24986">
        <ele>50.942</ele>
        <time>2015-09-11T13:13:43.112Z</time>
      </trkpt>
      <trkpt lat="47.05717" lon="-1.24975">
        <ele>50.983</ele>
        <time>2015-09-11T13:13:45.384Z</time>
      </trkpt>
      <trkpt lat="47.05715" lon="-1.2497">
        <ele>51.073</ele>
        <time>2015-09-11T13:13:46.521Z</time>
      </trkpt>
      <trkpt lat="47.0571" lon="-1.24964">
        <ele>51.282</ele>
        <time>2015-09-11T13:13:49.452Z</time>
      </trkpt>
      <trkpt lat="47.05708" lon="-1.24961">
        <ele>51.39</ele>
        <time>2015-09-11T13:13:50.141Z</time>
      </trkpt>
      <trkpt lat="47.057" lon="-1.24955">
        <ele>51.627</ele>
        <time>2015-09-11T13:13:53.159Z</time>
      </trkpt>
      <trkpt lat="47.05698" lon="-1.24952">
        <ele>51.735</ele>
        <time>2015-09-11T13:13:54.131Z</time>
      </trkpt>
      <trkpt lat="47.05694" lon="-1.24944">
        <ele>51.963</ele>
        <time>2015-09-11T13:13:56.16Z</time>
      </trkpt>
      <trkpt lat="47.05692" lon="-1.2494">
        <ele>51.661</ele>
        <time>2015-09-11T13:13:57.149Z</time>
      </trkpt>
      <trkpt lat="47.05686" lon="-1.24933">
        <ele>51.128</ele>
        <time>2015-09-11T13:13:59.163Z</time>
      </trkpt>
      <trkpt lat="47.05683" lon="-1.2493">
        <ele>50.881</ele>
        <time>2015-09-11T13:14:00.124Z</time>
      </trkpt>
      <trkpt lat="47.05677" lon="-1.24922">
        <ele>50.44</ele>
        <time>2015-09-11T13:14:02.369Z</time>
      </trkpt>
      <trkpt lat="47.05672" lon="-1.24917">
        <ele>50.186</ele>
        <time>2015-09-11T13:14:03.132Z</time>
      </trkpt>
      <trkpt lat="47.05668" lon="-1.24913">
        <ele>49.909</ele>
        <time>2015-09-11T13:14:04.38Z</time>
      </trkpt>
      <trkpt lat="47.05664" lon="-1.24909">
        <ele>49.72</ele>
        <time>2015-09-11T13:14:05.134Z</time>
      </trkpt>
      <trkpt lat="47.05657" lon="-1.24902">
        <ele>49.454</ele>
        <time>2015-09-11T13:14:07.158Z</time>
      </trkpt>
      <trkpt lat="47.05653" lon="-1.24898">
        <ele>49.332</ele>
        <time>2015-09-11T13:14:08.113Z</time>
      </trkpt>
      <trkpt lat="47.05646" lon="-1.24891">
        <ele>49.08</ele>
        <time>2015-09-11T13:14:10.384Z</time>
      </trkpt>
      <trkpt lat="47.05643" lon="-1.24888">
        <ele>48.994</ele>
        <time>2015-09-11T13:14:11.105Z</time>
      </trkpt>
      <trkpt lat="47.05636" lon="-1.24879">
        <ele>49.246</ele>
        <time>2015-09-11T13:14:13.342Z</time>
      </trkpt>
      <trkpt lat="47.05633" lon="-1.24875">
        <ele>49.56</ele>
        <time>2015-09-11T13:14:14.134Z</time>
      </trkpt>
      <trkpt lat="47.05626" lon="-1.24867">
        <ele>50.041</ele>
        <time>2015-09-11T13:14:16.168Z</time>
      </trkpt>
      <trkpt lat="47.05622" lon="-1.24864">
        <ele>50.246</ele>
        <time>2015-09-11T13:14:17.141Z</time>
      </trkpt>
      <trkpt lat="47.05619" lon="-1.24859">
        <ele>50.406</ele>
        <time>2015-09-11T13:14:18.373Z</time>
      </trkpt>
      <trkpt lat="47.05615" lon="-1.24855">
        <ele>50.511</ele>
        <time>2015-09-11T13:14:19.113Z</time>
      </trkpt>
      <trkpt lat="47.05608" lon="-1.24847">
        <ele>50.608</ele>
        <time>2015-09-11T13:14:21.184Z</time>
      </trkpt>
      <trkpt lat="47.05605" lon="-1.24844">
        <ele>50.604</ele>
        <time>2015-09-11T13:14:22.113Z</time>
      </trkpt>
      <trkpt lat="47.05598" lon="-1.24836">
        <ele>50.557</ele>
        <time>2015-09-11T13:14:24.335Z</time>
      </trkpt>
      <trkpt lat="47.05594" lon="-1.24832">
        <ele>50.572</ele>
        <time>2015-09-11T13:14:25.132Z</time>
      </trkpt>
      <trkpt lat="47.05587" lon="-1.24824">
        <ele>50.514</ele>
        <time>2015-09-11T13:14:27.419Z</time>
      </trkpt>
      <trkpt lat="47.05584" lon="-1.2482">
        <ele>50.51</ele>
        <time>2015-09-11T13:14:28.137Z</time>
      </trkpt>
      <trkpt lat="47.05578" lon="-1.24811">
        <ele>49.972</ele>
        <time>2015-09-11T13:14:30.353Z</time>
      </trkpt>
      <trkpt lat="47.05574" lon="-1.24806">
        <ele>49.684</ele>
        <time>2015-09-11T13:14:31.131Z</time>
      </trkpt>
      <trkpt lat="47.05568" lon="-1.24799">
        <ele>49.575</ele>
        <time>2015-09-11T13:14:33.352Z</time>
      </trkpt>
      <trkpt lat="47.05565" lon="-1.24795">
        <ele>49.587</ele>
        <time>2015-09-11T13:14:34.6Z</time>
      </trkpt>
      <trkpt lat="47.05558" lon="-1.24787">
        <ele>49.694</ele>
        <time>2015-09-11T13:14:36.164Z</time>
      </trkpt>
      <trkpt lat="47.05555" lon="-1.24783">
        <ele>49.877</ele>
        <time>2015-09-11T13:14:37.135Z</time>
      </trkpt>
      <trkpt lat="47.05551" lon="-1.24779">
        <ele>50.28</ele>
        <time>2015-09-11T13:14:38.174Z</time>
      </trkpt>
      <trkpt lat="47.05547" lon="-1.24775">
        <ele>50.66</ele>
        <time>2015-09-11T13:14:39.114Z</time>
      </trkpt>
      <trkpt lat="47.05541" lon="-1.24767">
        <ele>51.245</ele>
        <time>2015-09-11T13:14:41.161Z</time>
      </trkpt>
      <trkpt lat="47.05537" lon="-1.24763">
        <ele>51.502</ele>
        <time>2015-09-11T13:14:42.196Z</time>
      </trkpt>
      <trkpt lat="47.0553" lon="-1.24755">
        <ele>51.898</ele>
        <time>2015-09-11T13:14:44.159Z</time>
      </trkpt>
      <trkpt lat="47.05526" lon="-1.24751">
        <ele>52.098</ele>
        <time>2015-09-11T13:14:45.127Z</time>
      </trkpt>
      <trkpt lat="47.05523" lon="-1.24745">
        <ele>52.373</ele>
        <time>2015-09-11T13:14:46.365Z</time>
      </trkpt>
      <trkpt lat="47.05519" lon="-1.24741">
        <ele>52.632</ele>
        <time>2015-09-11T13:14:47.136Z</time>
      </trkpt>
      <trkpt lat="47.05512" lon="-1.24734">
        <ele>53.158</ele>
        <time>2015-09-11T13:14:49.173Z</time>
      </trkpt>
      <trkpt lat="47.05508" lon="-1.2473">
        <ele>53.41</ele>
        <time>2015-09-11T13:14:50.105Z</time>
      </trkpt>
      <trkpt lat="47.05501" lon="-1.24722">
        <ele>53.906</ele>
        <time>2015-09-11T13:14:52.16Z</time>
      </trkpt>
      <trkpt lat="47.05497" lon="-1.24719">
        <ele>53.866</ele>
        <time>2015-09-11T13:14:53.106Z</time>
      </trkpt>
      <trkpt lat="47.05492" lon="-1.24716">
        <ele>53.78</ele>
        <time>2015-09-11T13:14:54.663Z</time>
      </trkpt>
      <trkpt lat="47.05488" lon="-1.24714">
        <ele>53.693</ele>
        <time>2015-09-11T13:14:55.107Z</time>
      </trkpt>
      <trkpt lat="47.05483" lon="-1.24711">
        <ele>53.589</ele>
        <time>2015-09-11T13:14:56.164Z</time>
      </trkpt>
      <trkpt lat="47.05479" lon="-1.24708">
        <ele>53.474</ele>
        <time>2015-09-11T13:14:57.127Z</time>
      </trkpt>
      <trkpt lat="47.05475" lon="-1.24704">
        <ele>53.351</ele>
        <time>2015-09-11T13:14:58.166Z</time>
      </trkpt>
      <trkpt lat="47.05471" lon="-1.24701">
        <ele>53.16</ele>
        <time>2015-09-11T13:14:59.109Z</time>
      </trkpt>
      <trkpt lat="47.05466" lon="-1.24698">
        <ele>52.897</ele>
        <time>2015-09-11T13:15:00.158Z</time>
      </trkpt>
      <trkpt lat="47.05462" lon="-1.24694">
        <ele>52.587</ele>
        <time>2015-09-11T13:15:01.111Z</time>
      </trkpt>
      <trkpt lat="47.05457" lon="-1.2469">
        <ele>52.306</ele>
        <time>2015-09-11T13:15:02.695Z</time>
      </trkpt>
      <trkpt lat="47.05454" lon="-1.24686">
        <ele>52.015</ele>
        <time>2015-09-11T13:15:03.099Z</time>
      </trkpt>
      <trkpt lat="47.0545" lon="-1.24681">
        <ele>51.727</ele>
        <time>2015-09-11T13:15:04.159Z</time>
      </trkpt>
      <trkpt lat="47.05446" lon="-1.24678">
        <ele>51.442</ele>
        <time>2015-09-11T13:15:05.159Z</time>
      </trkpt>
      <trkpt lat="47.05441" lon="-1.24675">
        <ele>51.372</ele>
        <time>2015-09-11T13:15:06.161Z</time>
      </trkpt>
      <trkpt lat="47.05437" lon="-1.24671">
        <ele>51.379</ele>
        <time>2015-09-11T13:15:07.108Z</time>
      </trkpt>
      <trkpt lat="47.0543" lon="-1.24664">
        <ele>51.583</ele>
        <time>2015-09-11T13:15:09.16Z</time>
      </trkpt>
      <trkpt lat="47.05426" lon="-1.24659">
        <ele>51.829</ele>
        <time>2015-09-11T13:15:10.149Z</time>
      </trkpt>
      <trkpt lat="47.05423" lon="-1.24655">
        <ele>52.12</ele>
        <time>2015-09-11T13:15:11.175Z</time>
      </trkpt>
      <trkpt lat="47.05419" lon="-1.2465">
        <ele>52.467</ele>
        <time>2015-09-11T13:15:12.113Z</time>
      </trkpt>
      <trkpt lat="47.05415" lon="-1.24645">
        <ele>52.918</ele>
        <time>2015-09-11T13:15:13.175Z</time>
      </trkpt>
      <trkpt lat="47.05411" lon="-1.24641">
        <ele>53.343</ele>
        <time>2015-09-11T13:15:14.218Z</time>
      </trkpt>
      <trkpt lat="47.05407" lon="-1.24637">
        <ele>53.696</ele>
        <time>2015-09-11T13:15:15.361Z</time>
      </trkpt>
      <trkpt lat="47.05403" lon="-1.24634">
        <ele>53.984</ele>
        <time>2015-09-11T13:15:16.14Z</time>
      </trkpt>
      <trkpt lat="47.05397" lon="-1.24626">
        <ele>54.394</ele>
        <time>2015-09-11T13:15:18.175Z</time>
      </trkpt>
      <trkpt lat="47.05394" lon="-1.24622">
        <ele>54.639</ele>
        <time>2015-09-11T13:15:19.141Z</time>
      </trkpt>
      <trkpt lat="47.05388" lon="-1.24616">
        <ele>55.093</ele>
        <time>2015-09-11T13:15:21.34Z</time>
      </trkpt>
      <trkpt lat="47.05384" lon="-1.24613">
        <ele>55.381</ele>
        <time>2015-09-11T13:15:22.13Z</time>
      </trkpt>
      <trkpt lat="47.05377" lon="-1.24605">
        <ele>55.885</ele>
        <time>2015-09-11T13:15:24.371Z</time>
      </trkpt>
      <trkpt lat="47.05373" lon="-1.24599">
        <ele>56.158</ele>
        <time>2015-09-11T13:15:25.205Z</time>
      </trkpt>
      <trkpt lat="47.05369" lon="-1.24588">
        <ele>56.446</ele>
        <time>2015-09-11T13:15:27.167Z</time>
      </trkpt>
      <trkpt lat="47.05365" lon="-1.24585">
        <ele>56.698</ele>
        <time>2015-09-11T13:15:28.104Z</time>
      </trkpt>
      <trkpt lat="47.05362" lon="-1.24574">
        <ele>56.579</ele>
        <time>2015-09-11T13:15:30.456Z</time>
      </trkpt>
      <trkpt lat="47.0536" lon="-1.24567">
        <ele>56.426</ele>
        <time>2015-09-11T13:15:31.111Z</time>
      </trkpt>
      <trkpt lat="47.05358" lon="-1.24562">
        <ele>56.214</ele>
        <time>2015-09-11T13:15:32.155Z</time>
      </trkpt>
      <trkpt lat="47.05355" lon="-1.24557">
        <ele>56.034</ele>
        <time>2015-09-11T13:15:33.131Z</time>
      </trkpt>
      <trkpt lat="47.05353" lon="-1.2455">
        <ele>56</ele>
        <time>2015-09-11T13:15:34.163Z</time>
      </trkpt>
      <trkpt lat="47.05351" lon="-1.24544">
        <ele>56</ele>
        <time>2015-09-11T13:15:35.103Z</time>
      </trkpt>
      <trkpt lat="47.05348" lon="-1.24538">
        <ele>56</ele>
        <time>2015-09-11T13:15:36.43Z</time>
      </trkpt>
      <trkpt lat="47.05345" lon="-1.24533">
        <ele>56</ele>
        <time>2015-09-11T13:15:37.112Z</time>
      </trkpt>
      <trkpt lat="47.05344" lon="-1.24526">
        <ele>55.969</ele>
        <time>2015-09-11T13:15:38.159Z</time>
      </trkpt>
      <trkpt lat="47.05343" lon="-1.24519">
        <ele>55.792</ele>
        <time>2015-09-11T13:15:39.137Z</time>
      </trkpt>
      <trkpt lat="47.05339" lon="-1.24508">
        <ele>55.427</ele>
        <time>2015-09-11T13:15:41.162Z</time>
      </trkpt>
      <trkpt lat="47.05337" lon="-1.24501">
        <ele>55.186</ele>
        <time>2015-09-11T13:15:42.137Z</time>
      </trkpt>
      <trkpt lat="47.05334" lon="-1.2449">
        <ele>55.02</ele>
        <time>2015-09-11T13:15:44.166Z</time>
      </trkpt>
      <trkpt lat="47.05333" lon="-1.24485">
        <ele>55.014</ele>
        <time>2015-09-11T13:15:45.107Z</time>
      </trkpt>
      <trkpt lat="47.05329" lon="-1.24474">
        <ele>55.141</ele>
        <time>2015-09-11T13:15:47.411Z</time>
      </trkpt>
      <trkpt lat="47.05328" lon="-1.24468">
        <ele>55.243</ele>
        <time>2015-09-11T13:15:48.137Z</time>
      </trkpt>
      <trkpt lat="47.05324" lon="-1.24456">
        <ele>55.523</ele>
        <time>2015-09-11T13:15:50.159Z</time>
      </trkpt>
      <trkpt lat="47.05323" lon="-1.2445">
        <ele>55.691</ele>
        <time>2015-09-11T13:15:51.132Z</time>
      </trkpt>
      <trkpt lat="47.05319" lon="-1.24438">
        <ele>56.01</ele>
        <time>2015-09-11T13:15:53.161Z</time>
      </trkpt>
      <trkpt lat="47.05318" lon="-1.24431">
        <ele>56.104</ele>
        <time>2015-09-11T13:15:54.137Z</time>
      </trkpt>
      <trkpt lat="47.05315" lon="-1.2442">
        <ele>56.306</ele>
        <time>2015-09-11T13:15:56.161Z</time>
      </trkpt>
      <trkpt lat="47.05313" lon="-1.24413">
        <ele>56.442</ele>
        <time>2015-09-11T13:15:57.135Z</time>
      </trkpt>
      <trkpt lat="47.05312" lon="-1.24406">
        <ele>56.514</ele>
        <time>2015-09-11T13:15:58.346Z</time>
      </trkpt>
      <trkpt lat="47.0531" lon="-1.244">
        <ele>56.666</ele>
        <time>2015-09-11T13:15:59.141Z</time>
      </trkpt>
      <trkpt lat="47.05308" lon="-1.24389">
        <ele>56.86</ele>
        <time>2015-09-11T13:16:01.149Z</time>
      </trkpt>
      <trkpt lat="47.05305" lon="-1.24384">
        <ele>57.005</ele>
        <time>2015-09-11T13:16:02.144Z</time>
      </trkpt>
      <trkpt lat="47.05304" lon="-1.24371">
        <ele>57.021</ele>
        <time>2015-09-11T13:16:04.279Z</time>
      </trkpt>
      <trkpt lat="47.05302" lon="-1.24365">
        <ele>57.02</ele>
        <time>2015-09-11T13:16:05.125Z</time>
      </trkpt>
      <trkpt lat="47.05299" lon="-1.24354">
        <ele>57</ele>
        <time>2015-09-11T13:16:07.168Z</time>
      </trkpt>
      <trkpt lat="47.05297" lon="-1.24347">
        <ele>57</ele>
        <time>2015-09-11T13:16:08.136Z</time>
      </trkpt>
      <trkpt lat="47.05294" lon="-1.24336">
        <ele>57</ele>
        <time>2015-09-11T13:16:10.175Z</time>
      </trkpt>
      <trkpt lat="47.05294" lon="-1.24329">
        <ele>57</ele>
        <time>2015-09-11T13:16:11.111Z</time>
      </trkpt>
      <trkpt lat="47.05291" lon="-1.24317">
        <ele>57</ele>
        <time>2015-09-11T13:16:13.166Z</time>
      </trkpt>
      <trkpt lat="47.0529" lon="-1.2431">
        <ele>57</ele>
        <time>2015-09-11T13:16:14.106Z</time>
      </trkpt>
      <trkpt lat="47.05287" lon="-1.24299">
        <ele>57</ele>
        <time>2015-09-11T13:16:16.154Z</time>
      </trkpt>
      <trkpt lat="47.05285" lon="-1.24294">
        <ele>57</ele>
        <time>2015-09-11T13:16:17.106Z</time>
      </trkpt>
      <trkpt lat="47.05284" lon="-1.24286">
        <ele>57</ele>
        <time>2015-09-11T13:16:18.431Z</time>
      </trkpt>
      <trkpt lat="47.05282" lon="-1.2428">
        <ele>57</ele>
        <time>2015-09-11T13:16:19.107Z</time>
      </trkpt>
      <trkpt lat="47.05279" lon="-1.24268">
        <ele>56.652</ele>
        <time>2015-09-11T13:16:21.42Z</time>
      </trkpt>
      <trkpt lat="47.05278" lon="-1.24261">
        <ele>56.393</ele>
        <time>2015-09-11T13:16:22.181Z</time>
      </trkpt>
      <trkpt lat="47.05275" lon="-1.24249">
        <ele>55.896</ele>
        <time>2015-09-11T13:16:24.159Z</time>
      </trkpt>
      <trkpt lat="47.05273" lon="-1.24243">
        <ele>55.778</ele>
        <time>2015-09-11T13:16:25.125Z</time>
      </trkpt>
      <trkpt lat="47.05269" lon="-1.24232">
        <ele>55.462</ele>
        <time>2015-09-11T13:16:27.16Z</time>
      </trkpt>
      <trkpt lat="47.05267" lon="-1.24225">
        <ele>55.281</ele>
        <time>2015-09-11T13:16:28.133Z</time>
      </trkpt>
      <trkpt lat="47.05264" lon="-1.24214">
        <ele>54.862</ele>
        <time>2015-09-11T13:16:30.159Z</time>
      </trkpt>
      <trkpt lat="47.05263" lon="-1.24206">
        <ele>54.681</ele>
        <time>2015-09-11T13:16:31.137Z</time>
      </trkpt>
      <trkpt lat="47.0526" lon="-1.24194">
        <ele>54.374</ele>
        <time>2015-09-11T13:16:33.372Z</time>
      </trkpt>
      <trkpt lat="47.05259" lon="-1.24188">
        <ele>54.331</ele>
        <time>2015-09-11T13:16:34.111Z</time>
      </trkpt>
      <trkpt lat="47.05257" lon="-1.24183">
        <ele>54.263</ele>
        <time>2015-09-11T13:16:35.162Z</time>
      </trkpt>
      <trkpt lat="47.05255" lon="-1.24176">
        <ele>54.191</ele>
        <time>2015-09-11T13:16:36.132Z</time>
      </trkpt>
      <trkpt lat="47.05252" lon="-1.24163">
        <ele>54.194</ele>
        <time>2015-09-11T13:16:38.159Z</time>
      </trkpt>
      <trkpt lat="47.0525" lon="-1.24157">
        <ele>54.373</ele>
        <time>2015-09-11T13:16:39.132Z</time>
      </trkpt>
      <trkpt lat="47.05247" lon="-1.24144">
        <ele>54.913</ele>
        <time>2015-09-11T13:16:41.165Z</time>
      </trkpt>
      <trkpt lat="47.05246" lon="-1.24137">
        <ele>55.198</ele>
        <time>2015-09-11T13:16:42.194Z</time>
      </trkpt>
      <trkpt lat="47.05243" lon="-1.2413">
        <ele>55.561</ele>
        <time>2015-09-11T13:16:44.16Z</time>
      </trkpt>
      <trkpt lat="47.05242" lon="-1.24124">
        <ele>55.853</ele>
        <time>2015-09-11T13:16:45.105Z</time>
      </trkpt>
      <trkpt lat="47.05239" lon="-1.24117">
        <ele>56.177</ele>
        <time>2015-09-11T13:16:46.338Z</time>
      </trkpt>
      <trkpt lat="47.05238" lon="-1.24111">
        <ele>56.45</ele>
        <time>2015-09-11T13:16:47.133Z</time>
      </trkpt>
      <trkpt lat="47.05236" lon="-1.24104">
        <ele>56.504</ele>
        <time>2015-09-11T13:16:48.16Z</time>
      </trkpt>
      <trkpt lat="47.05235" lon="-1.24097">
        <ele>56.554</ele>
        <time>2015-09-11T13:16:49.105Z</time>
      </trkpt>
      <trkpt lat="47.05233" lon="-1.24086">
        <ele>56.598</ele>
        <time>2015-09-11T13:16:51.362Z</time>
      </trkpt>
      <trkpt lat="47.05232" lon="-1.24079">
        <ele>56.599</ele>
        <time>2015-09-11T13:16:52.141Z</time>
      </trkpt>
      <trkpt lat="47.0523" lon="-1.24072">
        <ele>56.54</ele>
        <time>2015-09-11T13:16:53.164Z</time>
      </trkpt>
      <trkpt lat="47.05229" lon="-1.24066">
        <ele>56.438</ele>
        <time>2015-09-11T13:16:54.112Z</time>
      </trkpt>
      <trkpt lat="47.05226" lon="-1.24054">
        <ele>56.147</ele>
        <time>2015-09-11T13:16:56.339Z</time>
      </trkpt>
      <trkpt lat="47.05225" lon="-1.24048">
        <ele>56.096</ele>
        <time>2015-09-11T13:16:57.133Z</time>
      </trkpt>
      <trkpt lat="47.05224" lon="-1.2404">
        <ele>56.057</ele>
        <time>2015-09-11T13:16:58.412Z</time>
      </trkpt>
      <trkpt lat="47.05223" lon="-1.24034">
        <ele>56.017</ele>
        <time>2015-09-11T13:16:59.143Z</time>
      </trkpt>
      <trkpt lat="47.05221" lon="-1.24022">
        <ele>56.044</ele>
        <time>2015-09-11T13:17:01.166Z</time>
      </trkpt>
      <trkpt lat="47.0522" lon="-1.24015">
        <ele>56.073</ele>
        <time>2015-09-11T13:17:02.134Z</time>
      </trkpt>
      <trkpt lat="47.05219" lon="-1.24008">
        <ele>56.134</ele>
        <time>2015-09-11T13:17:03.351Z</time>
      </trkpt>
      <trkpt lat="47.05217" lon="-1.24">
        <ele>56.174</ele>
        <time>2015-09-11T13:17:04.134Z</time>
      </trkpt>
      <trkpt lat="47.05217" lon="-1.23991">
        <ele>56.192</ele>
        <time>2015-09-11T13:17:05.345Z</time>
      </trkpt>
      <trkpt lat="47.05216" lon="-1.23983">
        <ele>56.228</ele>
        <time>2015-09-11T13:17:06.28Z</time>
      </trkpt>
      <trkpt lat="47.05215" lon="-1.23975">
        <ele>56.26</ele>
        <time>2015-09-11T13:17:07.328Z</time>
      </trkpt>
      <trkpt lat="47.05214" lon="-1.2397">
        <ele>56.362</ele>
        <time>2015-09-11T13:17:08.189Z</time>
      </trkpt>
      <trkpt lat="47.05212" lon="-1.23959">
        <ele>56.667</ele>
        <time>2015-09-11T13:17:10.415Z</time>
      </trkpt>
      <trkpt lat="47.05211" lon="-1.23953">
        <ele>56.812</ele>
        <time>2015-09-11T13:17:11.106Z</time>
      </trkpt>
      <trkpt lat="47.0521" lon="-1.2394">
        <ele>56.931</ele>
        <time>2015-09-11T13:17:13.387Z</time>
      </trkpt>
      <trkpt lat="47.05209" lon="-1.23933">
        <ele>56.815</ele>
        <time>2015-09-11T13:17:14.106Z</time>
      </trkpt>
      <trkpt lat="47.05209" lon="-1.23926">
        <ele>56.678</ele>
        <time>2015-09-11T13:17:15.171Z</time>
      </trkpt>
      <trkpt lat="47.05207" lon="-1.2392">
        <ele>56.516</ele>
        <time>2015-09-11T13:17:16.137Z</time>
      </trkpt>
      <trkpt lat="47.05206" lon="-1.23913">
        <ele>56.512</ele>
        <time>2015-09-11T13:17:17.336Z</time>
      </trkpt>
      <trkpt lat="47.05206" lon="-1.23905">
        <ele>56.657</ele>
        <time>2015-09-11T13:17:18.134Z</time>
      </trkpt>
      <trkpt lat="47.05204" lon="-1.23893">
        <ele>56.9</ele>
        <time>2015-09-11T13:17:20.162Z</time>
      </trkpt>
      <trkpt lat="47.05203" lon="-1.23888">
        <ele>57.01</ele>
        <time>2015-09-11T13:17:21.111Z</time>
      </trkpt>
      <trkpt lat="47.05202" lon="-1.23882">
        <ele>57.06</ele>
        <time>2015-09-11T13:17:22.168Z</time>
      </trkpt>
      <trkpt lat="47.05201" lon="-1.23874">
        <ele>57.134</ele>
        <time>2015-09-11T13:17:23.135Z</time>
      </trkpt>
      <trkpt lat="47.05201" lon="-1.23868">
        <ele>57.166</ele>
        <time>2015-09-11T13:17:24.162Z</time>
      </trkpt>
      <trkpt lat="47.05199" lon="-1.2386">
        <ele>57.168</ele>
        <time>2015-09-11T13:17:25.106Z</time>
      </trkpt>
      <trkpt lat="47.05196" lon="-1.23849">
        <ele>57.07</ele>
        <time>2015-09-11T13:17:27.358Z</time>
      </trkpt>
      <trkpt lat="47.05196" lon="-1.23843">
        <ele>57.052</ele>
        <time>2015-09-11T13:17:28.141Z</time>
      </trkpt>
      <trkpt lat="47.05195" lon="-1.23833">
        <ele>57.013</ele>
        <time>2015-09-11T13:17:30.16Z</time>
      </trkpt>
      <trkpt lat="47.05193" lon="-1.23828">
        <ele>56.962</ele>
        <time>2015-09-11T13:17:31.106Z</time>
      </trkpt>
      <trkpt lat="47.05193" lon="-1.23821">
        <ele>56.937</ele>
        <time>2015-09-11T13:17:32.158Z</time>
      </trkpt>
      <trkpt lat="47.05192" lon="-1.23815">
        <ele>56.912</ele>
        <time>2015-09-11T13:17:33.133Z</time>
      </trkpt>
      <trkpt lat="47.05189" lon="-1.23803">
        <ele>56.844</ele>
        <time>2015-09-11T13:17:35.167Z</time>
      </trkpt>
      <trkpt lat="47.05188" lon="-1.23797">
        <ele>56.921</ele>
        <time>2015-09-11T13:17:36.129Z</time>
      </trkpt>
      <trkpt lat="47.05186" lon="-1.23784">
        <ele>57.17</ele>
        <time>2015-09-11T13:17:38.165Z</time>
      </trkpt>
      <trkpt lat="47.05185" lon="-1.23779">
        <ele>57.333</ele>
        <time>2015-09-11T13:17:39.14Z</time>
      </trkpt>
      <trkpt lat="47.05183" lon="-1.23772">
        <ele>57.401</ele>
        <time>2015-09-11T13:17:40.159Z</time>
      </trkpt>
      <trkpt lat="47.05182" lon="-1.23766">
        <ele>57.444</ele>
        <time>2015-09-11T13:17:41.105Z</time>
      </trkpt>
      <trkpt lat="47.0518" lon="-1.23753">
        <ele>57.516</ele>
        <time>2015-09-11T13:17:43.339Z</time>
      </trkpt>
      <trkpt lat="47.05179" lon="-1.23743">
        <ele>57.669</ele>
        <time>2015-09-11T13:17:44.189Z</time>
      </trkpt>
      <trkpt lat="47.05178" lon="-1.23737">
        <ele>57.795</ele>
        <time>2015-09-11T13:17:45.16Z</time>
      </trkpt>
      <trkpt lat="47.05177" lon="-1.23728">
        <ele>57.92</ele>
        <time>2015-09-11T13:17:46.104Z</time>
      </trkpt>
      <trkpt lat="47.05174" lon="-1.23718">
        <ele>58.127</ele>
        <time>2015-09-11T13:17:48.348Z</time>
      </trkpt>
      <trkpt lat="47.05173" lon="-1.23711">
        <ele>58.333</ele>
        <time>2015-09-11T13:17:49.129Z</time>
      </trkpt>
      <trkpt lat="47.05172" lon="-1.23704">
        <ele>58.547</ele>
        <time>2015-09-11T13:17:50.339Z</time>
      </trkpt>
      <trkpt lat="47.0517" lon="-1.23697">
        <ele>58.822</ele>
        <time>2015-09-11T13:17:51.126Z</time>
      </trkpt>
      <trkpt lat="47.05166" lon="-1.23685">
        <ele>59</ele>
        <time>2015-09-11T13:17:53.367Z</time>
      </trkpt>
      <trkpt lat="47.05163" lon="-1.2368">
        <ele>59</ele>
        <time>2015-09-11T13:17:54.14Z</time>
      </trkpt>
      <trkpt lat="47.05158" lon="-1.23669">
        <ele>59</ele>
        <time>2015-09-11T13:17:56.329Z</time>
      </trkpt>
      <trkpt lat="47.05156" lon="-1.23664">
        <ele>59</ele>
        <time>2015-09-11T13:17:57.133Z</time>
      </trkpt>
      <trkpt lat="47.05151" lon="-1.23653">
        <ele>59</ele>
        <time>2015-09-11T13:17:59.441Z</time>
      </trkpt>
      <trkpt lat="47.05148" lon="-1.23648">
        <ele>59</ele>
        <time>2015-09-11T13:18:00.112Z</time>
      </trkpt>
      <trkpt lat="47.05146" lon="-1.23642">
        <ele>59</ele>
        <time>2015-09-11T13:18:01.16Z</time>
      </trkpt>
      <trkpt lat="47.05143" lon="-1.23637">
        <ele>58.921</ele>
        <time>2015-09-11T13:18:02.134Z</time>
      </trkpt>
      <trkpt lat="47.0514" lon="-1.23631">
        <ele>58.702</ele>
        <time>2015-09-11T13:18:03.394Z</time>
      </trkpt>
      <trkpt lat="47.05137" lon="-1.23626">
        <ele>58.487</ele>
        <time>2015-09-11T13:18:04.141Z</time>
      </trkpt>
      <trkpt lat="47.05134" lon="-1.2362">
        <ele>58.252</ele>
        <time>2015-09-11T13:18:05.162Z</time>
      </trkpt>
      <trkpt lat="47.05131" lon="-1.23614">
        <ele>58.086</ele>
        <time>2015-09-11T13:18:06.105Z</time>
      </trkpt>
      <trkpt lat="47.05129" lon="-1.23609">
        <ele>58</ele>
        <time>2015-09-11T13:18:07.328Z</time>
      </trkpt>
      <trkpt lat="47.05127" lon="-1.23602">
        <ele>58</ele>
        <time>2015-09-11T13:18:08.104Z</time>
      </trkpt>
      <trkpt lat="47.05125" lon="-1.23596">
        <ele>58</ele>
        <time>2015-09-11T13:18:09.167Z</time>
      </trkpt>
      <trkpt lat="47.05122" lon="-1.23591">
        <ele>58</ele>
        <time>2015-09-11T13:18:10.198Z</time>
      </trkpt>
      <trkpt lat="47.0512" lon="-1.23584">
        <ele>58</ele>
        <time>2015-09-11T13:18:11.164Z</time>
      </trkpt>
      <trkpt lat="47.05118" lon="-1.23578">
        <ele>58.134</ele>
        <time>2015-09-11T13:18:12.105Z</time>
      </trkpt>
      <trkpt lat="47.05116" lon="-1.23572">
        <ele>58.348</ele>
        <time>2015-09-11T13:18:13.151Z</time>
      </trkpt>
      <trkpt lat="47.05113" lon="-1.23565">
        <ele>58.599</ele>
        <time>2015-09-11T13:18:14.111Z</time>
      </trkpt>
      <trkpt lat="47.05109" lon="-1.23554">
        <ele>58.925</ele>
        <time>2015-09-11T13:18:16.185Z</time>
      </trkpt>
      <trkpt lat="47.05106" lon="-1.23549">
        <ele>58.868</ele>
        <time>2015-09-11T13:18:17.105Z</time>
      </trkpt>
      <trkpt lat="47.05101" lon="-1.23538">
        <ele>58.871</ele>
        <time>2015-09-11T13:18:19.414Z</time>
      </trkpt>
      <trkpt lat="47.051" lon="-1.23533">
        <ele>58.929</ele>
        <time>2015-09-11T13:18:20.106Z</time>
      </trkpt>
      <trkpt lat="47.05094" lon="-1.23523">
        <ele>59</ele>
        <time>2015-09-11T13:18:22.337Z</time>
      </trkpt>
      <trkpt lat="47.05092" lon="-1.23518">
        <ele>59</ele>
        <time>2015-09-11T13:18:23.139Z</time>
      </trkpt>
      <trkpt lat="47.05089" lon="-1.23513">
        <ele>59</ele>
        <time>2015-09-11T13:18:24.16Z</time>
      </trkpt>
      <trkpt lat="47.05086" lon="-1.23506">
        <ele>59</ele>
        <time>2015-09-11T13:18:25.105Z</time>
      </trkpt>
      <trkpt lat="47.05084" lon="-1.235">
        <ele>59</ele>
        <time>2015-09-11T13:18:26.512Z</time>
      </trkpt>
      <trkpt lat="47.05082" lon="-1.23493">
        <ele>59.103</ele>
        <time>2015-09-11T13:18:27.104Z</time>
      </trkpt>
      <trkpt lat="47.05077" lon="-1.23482">
        <ele>59.478</ele>
        <time>2015-09-11T13:18:29.644Z</time>
      </trkpt>
      <trkpt lat="47.05074" lon="-1.23477">
        <ele>59.672</ele>
        <time>2015-09-11T13:18:30.108Z</time>
      </trkpt>
      <trkpt lat="47.05069" lon="-1.23466">
        <ele>59.946</ele>
        <time>2015-09-11T13:18:32.348Z</time>
      </trkpt>
      <trkpt lat="47.05067" lon="-1.23461">
        <ele>59.948</ele>
        <time>2015-09-11T13:18:33.132Z</time>
      </trkpt>
      <trkpt lat="47.05063" lon="-1.23452">
        <ele>59.952</ele>
        <time>2015-09-11T13:18:35.164Z</time>
      </trkpt>
      <trkpt lat="47.05061" lon="-1.23447">
        <ele>59.874</ele>
        <time>2015-09-11T13:18:36.215Z</time>
      </trkpt>
      <trkpt lat="47.05059" lon="-1.23442">
        <ele>59.862</ele>
        <time>2015-09-11T13:18:37.174Z</time>
      </trkpt>
      <trkpt lat="47.05057" lon="-1.23434">
        <ele>59.962</ele>
        <time>2015-09-11T13:18:38.107Z</time>
      </trkpt>
      <trkpt lat="47.05051" lon="-1.23424">
        <ele>60.157</ele>
        <time>2015-09-11T13:18:40.158Z</time>
      </trkpt>
      <trkpt lat="47.05049" lon="-1.23418">
        <ele>60.243</ele>
        <time>2015-09-11T13:18:41.147Z</time>
      </trkpt>
      <trkpt lat="47.05044" lon="-1.23407">
        <ele>60.416</ele>
        <time>2015-09-11T13:18:43.399Z</time>
      </trkpt>
      <trkpt lat="47.05042" lon="-1.23402">
        <ele>60.499</ele>
        <time>2015-09-11T13:18:44.105Z</time>
      </trkpt>
      <trkpt lat="47.05038" lon="-1.23392">
        <ele>60.65</ele>
        <time>2015-09-11T13:18:46.378Z</time>
      </trkpt>
      <trkpt lat="47.05035" lon="-1.23386">
        <ele>60.761</ele>
        <time>2015-09-11T13:18:47.105Z</time>
      </trkpt>
      <trkpt lat="47.05031" lon="-1.23376">
        <ele>60.938</ele>
        <time>2015-09-11T13:18:49.341Z</time>
      </trkpt>
      <trkpt lat="47.05029" lon="-1.2337">
        <ele>60.987</ele>
        <time>2015-09-11T13:18:50.134Z</time>
      </trkpt>
      <trkpt lat="47.05024" lon="-1.2336">
        <ele>61.172</ele>
        <time>2015-09-11T13:18:52.166Z</time>
      </trkpt>
      <trkpt lat="47.05022" lon="-1.23355">
        <ele>61.442</ele>
        <time>2015-09-11T13:18:53.195Z</time>
      </trkpt>
      <trkpt lat="47.05017" lon="-1.23345">
        <ele>61.986</ele>
        <time>2015-09-11T13:18:55.159Z</time>
      </trkpt>
      <trkpt lat="47.05015" lon="-1.23339">
        <ele>62.263</ele>
        <time>2015-09-11T13:18:56.137Z</time>
      </trkpt>
      <trkpt lat="47.0501" lon="-1.23328">
        <ele>62.57</ele>
        <time>2015-09-11T13:18:58.161Z</time>
      </trkpt>
      <trkpt lat="47.05008" lon="-1.23323">
        <ele>62.611</ele>
        <time>2015-09-11T13:18:59.105Z</time>
      </trkpt>
      <trkpt lat="47.05004" lon="-1.23311">
        <ele>62.775</ele>
        <time>2015-09-11T13:19:01.329Z</time>
      </trkpt>
      <trkpt lat="47.05003" lon="-1.23305">
        <ele>62.78</ele>
        <time>2015-09-11T13:19:02.137Z</time>
      </trkpt>
      <trkpt lat="47.04999" lon="-1.23293">
        <ele>62.595</ele>
        <time>2015-09-11T13:19:04.4Z</time>
      </trkpt>
      <trkpt lat="47.04996" lon="-1.23286">
        <ele>62.447</ele>
        <time>2015-09-11T13:19:05.104Z</time>
      </trkpt>
      <trkpt lat="47.04993" lon="-1.2328">
        <ele>62.332</ele>
        <time>2015-09-11T13:19:06.156Z</time>
      </trkpt>
      <trkpt lat="47.04991" lon="-1.23274">
        <ele>62.192</ele>
        <time>2015-09-11T13:19:07.13Z</time>
      </trkpt>
      <trkpt lat="47.04987" lon="-1.23262">
        <ele>61.911</ele>
        <time>2015-09-11T13:19:09.171Z</time>
      </trkpt>
      <trkpt lat="47.04985" lon="-1.23258">
        <ele>61.828</ele>
        <time>2015-09-11T13:19:10.138Z</time>
      </trkpt>
      <trkpt lat="47.04982" lon="-1.23253">
        <ele>61.738</ele>
        <time>2015-09-11T13:19:11.166Z</time>
      </trkpt>
      <trkpt lat="47.0498" lon="-1.23247">
        <ele>61.727</ele>
        <time>2015-09-11T13:19:12.105Z</time>
      </trkpt>
      <trkpt lat="47.04975" lon="-1.23239">
        <ele>61.911</ele>
        <time>2015-09-11T13:19:14.183Z</time>
      </trkpt>
      <trkpt lat="47.04971" lon="-1.23234">
        <ele>62</ele>
        <time>2015-09-11T13:19:15.126Z</time>
      </trkpt>
      <trkpt lat="47.04966" lon="-1.23224">
        <ele>62</ele>
        <time>2015-09-11T13:19:17.167Z</time>
      </trkpt>
      <trkpt lat="47.04963" lon="-1.23217">
        <ele>62</ele>
        <time>2015-09-11T13:19:18.144Z</time>
      </trkpt>
      <trkpt lat="47.04962" lon="-1.23212">
        <ele>62</ele>
        <time>2015-09-11T13:19:19.293Z</time>
      </trkpt>
      <trkpt lat="47.0496" lon="-1.23205">
        <ele>62</ele>
        <time>2015-09-11T13:19:20.106Z</time>
      </trkpt>
      <trkpt lat="47.04958" lon="-1.23197">
        <ele>62</ele>
        <time>2015-09-11T13:19:21.368Z</time>
      </trkpt>
      <trkpt lat="47.04955" lon="-1.23193">
        <ele>62.038</ele>
        <time>2015-09-11T13:19:22.104Z</time>
      </trkpt>
      <trkpt lat="47.04952" lon="-1.23182">
        <ele>62.322</ele>
        <time>2015-09-11T13:19:24.402Z</time>
      </trkpt>
      <trkpt lat="47.0495" lon="-1.23177">
        <ele>62.5</ele>
        <time>2015-09-11T13:19:25.142Z</time>
      </trkpt>
      <trkpt lat="47.04947" lon="-1.23167">
        <ele>62.915</ele>
        <time>2015-09-11T13:19:27.167Z</time>
      </trkpt>
      <trkpt lat="47.04945" lon="-1.23161">
        <ele>62.98</ele>
        <time>2015-09-11T13:19:28.137Z</time>
      </trkpt>
      <trkpt lat="47.04943" lon="-1.23151">
        <ele>63.021</ele>
        <time>2015-09-11T13:19:29.505Z</time>
      </trkpt>
      <trkpt lat="47.04942" lon="-1.23145">
        <ele>63.079</ele>
        <time>2015-09-11T13:19:30.112Z</time>
      </trkpt>
      <trkpt lat="47.04938" lon="-1.23135">
        <ele>63.243</ele>
        <time>2015-09-11T13:19:32.166Z</time>
      </trkpt>
      <trkpt lat="47.04936" lon="-1.2313">
        <ele>63.315</ele>
        <time>2015-09-11T13:19:33.109Z</time>
      </trkpt>
      <trkpt lat="47.0493" lon="-1.2312">
        <ele>63.506</ele>
        <time>2015-09-11T13:19:35.161Z</time>
      </trkpt>
      <trkpt lat="47.04929" lon="-1.23116">
        <ele>63.574</ele>
        <time>2015-09-11T13:19:36.135Z</time>
      </trkpt>
      <trkpt lat="47.04925" lon="-1.23104">
        <ele>63.7</ele>
        <time>2015-09-11T13:19:40.741Z</time>
      </trkpt>
      <trkpt lat="47.04924" lon="-1.23102">
        <ele>63.754</ele>
        <time>2015-09-11T13:19:41.111Z</time>
      </trkpt>
      <trkpt lat="47.0492" lon="-1.23092">
        <ele>63.887</ele>
        <time>2015-09-11T13:19:44.161Z</time>
      </trkpt>
      <trkpt lat="47.04918" lon="-1.23088">
        <ele>63.938</ele>
        <time>2015-09-11T13:19:45.104Z</time>
      </trkpt>
      <trkpt lat="47.04916" lon="-1.2308">
        <ele>63.895</ele>
        <time>2015-09-11T13:19:47.335Z</time>
      </trkpt>
      <trkpt lat="47.04914" lon="-1.23076">
        <ele>63.766</ele>
        <time>2015-09-11T13:19:48.13Z</time>
      </trkpt>
      <trkpt lat="47.04911" lon="-1.23068">
        <ele>63.548</ele>
        <time>2015-09-11T13:19:50.412Z</time>
      </trkpt>
      <trkpt lat="47.04909" lon="-1.23063">
        <ele>63.462</ele>
        <time>2015-09-11T13:19:51.1Z</time>
      </trkpt>
      <trkpt lat="47.04906" lon="-1.23053">
        <ele>63.377</ele>
        <time>2015-09-11T13:19:53.359Z</time>
      </trkpt>
      <trkpt lat="47.04905" lon="-1.23047">
        <ele>63.431</ele>
        <time>2015-09-11T13:19:54.103Z</time>
      </trkpt>
      <trkpt lat="47.04902" lon="-1.23036">
        <ele>63.542</ele>
        <time>2015-09-11T13:19:56.348Z</time>
      </trkpt>
      <trkpt lat="47.04898" lon="-1.23024">
        <ele>63.877</ele>
        <time>2015-09-11T13:19:57.106Z</time>
      </trkpt>
      <trkpt lat="47.04895" lon="-1.23016">
        <ele>64.306</ele>
        <time>2015-09-11T13:19:58.161Z</time>
      </trkpt>
      <trkpt lat="47.04893" lon="-1.23009">
        <ele>64.636</ele>
        <time>2015-09-11T13:19:59.128Z</time>
      </trkpt>
      <trkpt lat="47.04892" lon="-1.23001">
        <ele>64.98</ele>
        <time>2015-09-11T13:20:00.178Z</time>
      </trkpt>
      <trkpt lat="47.04891" lon="-1.22989">
        <ele>65.382</ele>
        <time>2015-09-11T13:20:01.105Z</time>
      </trkpt>
      <trkpt lat="47.04887" lon="-1.22978">
        <ele>65.729</ele>
        <time>2015-09-11T13:20:03.344Z</time>
      </trkpt>
      <trkpt lat="47.04886" lon="-1.22971">
        <ele>65.903</ele>
        <time>2015-09-11T13:20:04.105Z</time>
      </trkpt>
      <trkpt lat="47.04883" lon="-1.22959">
        <ele>65.777</ele>
        <time>2015-09-11T13:20:06.162Z</time>
      </trkpt>
      <trkpt lat="47.04882" lon="-1.22953">
        <ele>65.745</ele>
        <time>2015-09-11T13:20:07.106Z</time>
      </trkpt>
      <trkpt lat="47.04877" lon="-1.22941">
        <ele>65.583</ele>
        <time>2015-09-11T13:20:09.168Z</time>
      </trkpt>
      <trkpt lat="47.04876" lon="-1.22935">
        <ele>65.518</ele>
        <time>2015-09-11T13:20:10.106Z</time>
      </trkpt>
      <trkpt lat="47.04874" lon="-1.22929">
        <ele>65.457</ele>
        <time>2015-09-11T13:20:11.184Z</time>
      </trkpt>
      <trkpt lat="47.04872" lon="-1.22923">
        <ele>65.381</ele>
        <time>2015-09-11T13:20:12.538Z</time>
      </trkpt>
      <trkpt lat="47.0487" lon="-1.22916">
        <ele>65.313</ele>
        <time>2015-09-11T13:20:13.166Z</time>
      </trkpt>
      <trkpt lat="47.04869" lon="-1.2291">
        <ele>65.266</ele>
        <time>2015-09-11T13:20:14.106Z</time>
      </trkpt>
      <trkpt lat="47.04867" lon="-1.22904">
        <ele>65.216</ele>
        <time>2015-09-11T13:20:15.177Z</time>
      </trkpt>
      <trkpt lat="47.04865" lon="-1.22897">
        <ele>65.147</ele>
        <time>2015-09-11T13:20:16.127Z</time>
      </trkpt>
      <trkpt lat="47.04864" lon="-1.22891">
        <ele>65.104</ele>
        <time>2015-09-11T13:20:17.159Z</time>
      </trkpt>
      <trkpt lat="47.04862" lon="-1.22883">
        <ele>65.037</ele>
        <time>2015-09-11T13:20:18.108Z</time>
      </trkpt>
      <trkpt lat="47.04861" lon="-1.22876">
        <ele>65.005</ele>
        <time>2015-09-11T13:20:19.347Z</time>
      </trkpt>
      <trkpt lat="47.0486" lon="-1.22869">
        <ele>64.984</ele>
        <time>2015-09-11T13:20:20.105Z</time>
      </trkpt>
      <trkpt lat="47.04857" lon="-1.22858">
        <ele>65.126</ele>
        <time>2015-09-11T13:20:22.43Z</time>
      </trkpt>
      <trkpt lat="47.04856" lon="-1.22852">
        <ele>65.324</ele>
        <time>2015-09-11T13:20:23.108Z</time>
      </trkpt>
      <trkpt lat="47.04851" lon="-1.22841">
        <ele>65.728</ele>
        <time>2015-09-11T13:20:25.16Z</time>
      </trkpt>
      <trkpt lat="47.04849" lon="-1.22836">
        <ele>65.922</ele>
        <time>2015-09-11T13:20:26.105Z</time>
      </trkpt>
      <trkpt lat="47.04845" lon="-1.22824">
        <ele>66</ele>
        <time>2015-09-11T13:20:28.164Z</time>
      </trkpt>
      <trkpt lat="47.04844" lon="-1.22817">
        <ele>66</ele>
        <time>2015-09-11T13:20:29.112Z</time>
      </trkpt>
      <trkpt lat="47.04842" lon="-1.22811">
        <ele>66</ele>
        <time>2015-09-11T13:20:30.347Z</time>
      </trkpt>
      <trkpt lat="47.0484" lon="-1.22805">
        <ele>66.024</ele>
        <time>2015-09-11T13:20:31.154Z</time>
      </trkpt>
      <trkpt lat="47.04837" lon="-1.22798">
        <ele>66.248</ele>
        <time>2015-09-11T13:20:32.161Z</time>
      </trkpt>
      <trkpt lat="47.04836" lon="-1.22791">
        <ele>66.468</ele>
        <time>2015-09-11T13:20:33.107Z</time>
      </trkpt>
      <trkpt lat="47.04834" lon="-1.22785">
        <ele>66.728</ele>
        <time>2015-09-11T13:20:34.44Z</time>
      </trkpt>
      <trkpt lat="47.04833" lon="-1.22776">
        <ele>66.922</ele>
        <time>2015-09-11T13:20:35.134Z</time>
      </trkpt>
      <trkpt lat="47.04829" lon="-1.22765">
        <ele>66.446</ele>
        <time>2015-09-11T13:20:37.202Z</time>
      </trkpt>
      <trkpt lat="47.04827" lon="-1.22758">
        <ele>66.232</ele>
        <time>2015-09-11T13:20:38.199Z</time>
      </trkpt>
      <trkpt lat="47.04822" lon="-1.22748">
        <ele>65.949</ele>
        <time>2015-09-11T13:20:40.168Z</time>
      </trkpt>
      <trkpt lat="47.0482" lon="-1.2274">
        <ele>65.813</ele>
        <time>2015-09-11T13:20:41.131Z</time>
      </trkpt>
      <trkpt lat="47.04818" lon="-1.22733">
        <ele>65.731</ele>
        <time>2015-09-11T13:20:42.39Z</time>
      </trkpt>
      <trkpt lat="47.04817" lon="-1.22727">
        <ele>65.645</ele>
        <time>2015-09-11T13:20:43.132Z</time>
      </trkpt>
      <trkpt lat="47.04816" lon="-1.22719">
        <ele>65.62</ele>
        <time>2015-09-11T13:20:44.349Z</time>
      </trkpt>
      <trkpt lat="47.04815" lon="-1.22713">
        <ele>65.674</ele>
        <time>2015-09-11T13:20:45.151Z</time>
      </trkpt>
      <trkpt lat="47.04814" lon="-1.22706">
        <ele>65.696</ele>
        <time>2015-09-11T13:20:46.815Z</time>
      </trkpt>
      <trkpt lat="47.04814" lon="-1.22699">
        <ele>65.71</ele>
        <time>2015-09-11T13:20:47.105Z</time>
      </trkpt>
      <trkpt lat="47.04813" lon="-1.22692">
        <ele>65.745</ele>
        <time>2015-09-11T13:20:48.16Z</time>
      </trkpt>
      <trkpt lat="47.04813" lon="-1.22684">
        <ele>65.821</ele>
        <time>2015-09-11T13:20:49.148Z</time>
      </trkpt>
      <trkpt lat="47.04813" lon="-1.22677">
        <ele>65.903</ele>
        <time>2015-09-11T13:20:50.169Z</time>
      </trkpt>
      <trkpt lat="47.04812" lon="-1.22669">
        <ele>65.977</ele>
        <time>2015-09-11T13:20:51.104Z</time>
      </trkpt>
      <trkpt lat="47.04813" lon="-1.22661">
        <ele>66</ele>
        <time>2015-09-11T13:20:52.251Z</time>
      </trkpt>
      <trkpt lat="47.04813" lon="-1.22654">
        <ele>66</ele>
        <time>2015-09-11T13:20:53.124Z</time>
      </trkpt>
      <trkpt lat="47.04813" lon="-1.22643">
        <ele>66</ele>
        <time>2015-09-11T13:20:54.197Z</time>
      </trkpt>
      <trkpt lat="47.04813" lon="-1.22637">
        <ele>66</ele>
        <time>2015-09-11T13:20:55.104Z</time>
      </trkpt>
      <trkpt lat="47.04812" lon="-1.22627">
        <ele>66</ele>
        <time>2015-09-11T13:20:57.169Z</time>
      </trkpt>
      <trkpt lat="47.04813" lon="-1.22621">
        <ele>66</ele>
        <time>2015-09-11T13:20:58.105Z</time>
      </trkpt>
      <trkpt lat="47.04814" lon="-1.22613">
        <ele>66</ele>
        <time>2015-09-11T13:20:59.429Z</time>
      </trkpt>
      <trkpt lat="47.04814" lon="-1.22607">
        <ele>65.897</ele>
        <time>2015-09-11T13:21:00.106Z</time>
      </trkpt>
      <trkpt lat="47.04814" lon="-1.22594">
        <ele>65.573</ele>
        <time>2015-09-11T13:21:02.337Z</time>
      </trkpt>
      <trkpt lat="47.04814" lon="-1.22587">
        <ele>65.383</ele>
        <time>2015-09-11T13:21:03.111Z</time>
      </trkpt>
      <trkpt lat="47.04813" lon="-1.22581">
        <ele>65.282</ele>
        <time>2015-09-11T13:21:04.159Z</time>
      </trkpt>
      <trkpt lat="47.04814" lon="-1.22574">
        <ele>65.286</ele>
        <time>2015-09-11T13:21:05.148Z</time>
      </trkpt>
      <trkpt lat="47.04813" lon="-1.22561">
        <ele>65.261</ele>
        <time>2015-09-11T13:21:07.304Z</time>
      </trkpt>
      <trkpt lat="47.04813" lon="-1.22554">
        <ele>65.268</ele>
        <time>2015-09-11T13:21:08.123Z</time>
      </trkpt>
      <trkpt lat="47.04812" lon="-1.22545">
        <ele>65.246</ele>
        <time>2015-09-11T13:21:09.161Z</time>
      </trkpt>
      <trkpt lat="47.04813" lon="-1.22538">
        <ele>65.257</ele>
        <time>2015-09-11T13:21:10.126Z</time>
      </trkpt>
      <trkpt lat="47.04812" lon="-1.22525">
        <ele>65.215</ele>
        <time>2015-09-11T13:21:12.167Z</time>
      </trkpt>
      <trkpt lat="47.04811" lon="-1.22518">
        <ele>65.126</ele>
        <time>2015-09-11T13:21:13.106Z</time>
      </trkpt>
      <trkpt lat="47.04809" lon="-1.22511">
        <ele>65.051</ele>
        <time>2015-09-11T13:21:14.355Z</time>
      </trkpt>
      <trkpt lat="47.0481" lon="-1.22504">
        <ele>65.02</ele>
        <time>2015-09-11T13:21:15.111Z</time>
      </trkpt>
      <trkpt lat="47.04809" lon="-1.22497">
        <ele>65</ele>
        <time>2015-09-11T13:21:16.16Z</time>
      </trkpt>
      <trkpt lat="47.04809" lon="-1.22489">
        <ele>65</ele>
        <time>2015-09-11T13:21:17.137Z</time>
      </trkpt>
      <trkpt lat="47.04809" lon="-1.22482">
        <ele>65</ele>
        <time>2015-09-11T13:21:18.201Z</time>
      </trkpt>
      <trkpt lat="47.04809" lon="-1.22476">
        <ele>65</ele>
        <time>2015-09-11T13:21:19.112Z</time>
      </trkpt>
      <trkpt lat="47.04807" lon="-1.22465">
        <ele>64.729</ele>
        <time>2015-09-11T13:21:21.18Z</time>
      </trkpt>
      <trkpt lat="47.04805" lon="-1.22457">
        <ele>64.452</ele>
        <time>2015-09-11T13:21:22.106Z</time>
      </trkpt>
      <trkpt lat="47.04801" lon="-1.22453">
        <ele>64.251</ele>
        <time>2015-09-11T13:21:24.164Z</time>
      </trkpt>
      <trkpt lat="47.04798" lon="-1.22446">
        <ele>64.049</ele>
        <time>2015-09-11T13:21:25.135Z</time>
      </trkpt>
      <trkpt lat="47.04793" lon="-1.22437">
        <ele>63.884</ele>
        <time>2015-09-11T13:21:27.162Z</time>
      </trkpt>
      <trkpt lat="47.0479" lon="-1.22432">
        <ele>63.749</ele>
        <time>2015-09-11T13:21:28.139Z</time>
      </trkpt>
      <trkpt lat="47.04784" lon="-1.22423">
        <ele>63.395</ele>
        <time>2015-09-11T13:21:30.167Z</time>
      </trkpt>
      <trkpt lat="47.0478" lon="-1.22414">
        <ele>63.085</ele>
        <time>2015-09-11T13:21:31.124Z</time>
      </trkpt>
      <trkpt lat="47.04778" lon="-1.22407">
        <ele>63</ele>
        <time>2015-09-11T13:21:32.406Z</time>
      </trkpt>
      <trkpt lat="47.04776" lon="-1.22399">
        <ele>63</ele>
        <time>2015-09-11T13:21:33.11Z</time>
      </trkpt>
      <trkpt lat="47.04777" lon="-1.22389">
        <ele>63</ele>
        <time>2015-09-11T13:21:35.362Z</time>
      </trkpt>
      <trkpt lat="47.0478" lon="-1.22384">
        <ele>63</ele>
        <time>2015-09-11T13:21:36.123Z</time>
      </trkpt>
      <trkpt lat="47.04784" lon="-1.22379">
        <ele>63</ele>
        <time>2015-09-11T13:21:37.158Z</time>
      </trkpt>
      <trkpt lat="47.04787" lon="-1.22375">
        <ele>63</ele>
        <time>2015-09-11T13:21:38.118Z</time>
      </trkpt>
      <trkpt lat="47.04792" lon="-1.22368">
        <ele>63</ele>
        <time>2015-09-11T13:21:40.162Z</time>
      </trkpt>
      <trkpt lat="47.04794" lon="-1.22366">
        <ele>63</ele>
        <time>2015-09-11T13:21:41.131Z</time>
      </trkpt>
      <trkpt lat="47.04801" lon="-1.22362">
        <ele>63</ele>
        <time>2015-09-11T13:21:43.158Z</time>
      </trkpt>
      <trkpt lat="47.04808" lon="-1.22362">
        <ele>63.077</ele>
        <time>2015-09-11T13:21:44.14Z</time>
      </trkpt>
      <trkpt lat="47.04812" lon="-1.22366">
        <ele>63.232</ele>
        <time>2015-09-11T13:21:45.168Z</time>
      </trkpt>
      <trkpt lat="47.04815" lon="-1.22371">
        <ele>63.354</ele>
        <time>2015-09-11T13:21:46.107Z</time>
      </trkpt>
      <trkpt lat="47.04819" lon="-1.22375">
        <ele>63.495</ele>
        <time>2015-09-11T13:21:47.353Z</time>
      </trkpt>
      <trkpt lat="47.04823" lon="-1.22379">
        <ele>63.621</ele>
        <time>2015-09-11T13:21:48.139Z</time>
      </trkpt>
      <trkpt lat="47.04827" lon="-1.22384">
        <ele>63.786</ele>
        <time>2015-09-11T13:21:49.166Z</time>
      </trkpt>
      <trkpt lat="47.04832" lon="-1.22389">
        <ele>63.935</ele>
        <time>2015-09-11T13:21:50.107Z</time>
      </trkpt>
      <trkpt lat="47.04835" lon="-1.22395">
        <ele>64.074</ele>
        <time>2015-09-11T13:21:51.2Z</time>
      </trkpt>
      <trkpt lat="47.04839" lon="-1.224">
        <ele>64.215</ele>
        <time>2015-09-11T13:21:52.104Z</time>
      </trkpt>
      <trkpt lat="47.04844" lon="-1.22405">
        <ele>64.377</ele>
        <time>2015-09-11T13:21:53.343Z</time>
      </trkpt>
      <trkpt lat="47.04849" lon="-1.22411">
        <ele>64.56</ele>
        <time>2015-09-11T13:21:54.108Z</time>
      </trkpt>
      <trkpt lat="47.04854" lon="-1.22417">
        <ele>64.737</ele>
        <time>2015-09-11T13:21:55.204Z</time>
      </trkpt>
      <trkpt lat="47.04859" lon="-1.22424">
        <ele>64.913</ele>
        <time>2015-09-11T13:21:56.107Z</time>
      </trkpt>
      <trkpt lat="47.04863" lon="-1.2243">
        <ele>65</ele>
        <time>2015-09-11T13:21:57.441Z</time>
      </trkpt>
      <trkpt lat="47.04868" lon="-1.22435">
        <ele>65</ele>
        <time>2015-09-11T13:21:58.127Z</time>
      </trkpt>
      <trkpt lat="47.04873" lon="-1.22441">
        <ele>65</ele>
        <time>2015-09-11T13:21:59.167Z</time>
      </trkpt>
      <trkpt lat="47.04877" lon="-1.22447">
        <ele>65</ele>
        <time>2015-09-11T13:22:00.122Z</time>
      </trkpt>
      <trkpt lat="47.04883" lon="-1.22454">
        <ele>65</ele>
        <time>2015-09-11T13:22:01.417Z</time>
      </trkpt>
      <trkpt lat="47.04888" lon="-1.22461">
        <ele>65</ele>
        <time>2015-09-11T13:22:02.125Z</time>
      </trkpt>
      <trkpt lat="47.04892" lon="-1.22466">
        <ele>64.908</ele>
        <time>2015-09-11T13:22:03.209Z</time>
      </trkpt>
      <trkpt lat="47.04897" lon="-1.22472">
        <ele>64.708</ele>
        <time>2015-09-11T13:22:04.105Z</time>
      </trkpt>
      <trkpt lat="47.04903" lon="-1.22477">
        <ele>64.492</ele>
        <time>2015-09-11T13:22:05.39Z</time>
      </trkpt>
      <trkpt lat="47.04907" lon="-1.22482">
        <ele>64.337</ele>
        <time>2015-09-11T13:22:06.105Z</time>
      </trkpt>
      <trkpt lat="47.04912" lon="-1.22488">
        <ele>64.154</ele>
        <time>2015-09-11T13:22:07.158Z</time>
      </trkpt>
      <trkpt lat="47.04916" lon="-1.22495">
        <ele>64.01</ele>
        <time>2015-09-11T13:22:08.131Z</time>
      </trkpt>
      <trkpt lat="47.04921" lon="-1.22501">
        <ele>63.968</ele>
        <time>2015-09-11T13:22:09.173Z</time>
      </trkpt>
      <trkpt lat="47.04926" lon="-1.22508">
        <ele>63.716</ele>
        <time>2015-09-11T13:22:10.108Z</time>
      </trkpt>
      <trkpt lat="47.04931" lon="-1.22515">
        <ele>63.464</ele>
        <time>2015-09-11T13:22:11.441Z</time>
      </trkpt>
      <trkpt lat="47.04936" lon="-1.22522">
        <ele>63.222</ele>
        <time>2015-09-11T13:22:12.111Z</time>
      </trkpt>
      <trkpt lat="47.04941" lon="-1.22528">
        <ele>63.003</ele>
        <time>2015-09-11T13:22:13.175Z</time>
      </trkpt>
      <trkpt lat="47.04946" lon="-1.22532">
        <ele>63.203</ele>
        <time>2015-09-11T13:22:14.139Z</time>
      </trkpt>
      <trkpt lat="47.04952" lon="-1.22539">
        <ele>63.56</ele>
        <time>2015-09-11T13:22:15.168Z</time>
      </trkpt>
      <trkpt lat="47.04958" lon="-1.22546">
        <ele>63.808</ele>
        <time>2015-09-11T13:22:16.106Z</time>
      </trkpt>
      <trkpt lat="47.04963" lon="-1.22552">
        <ele>63.954</ele>
        <time>2015-09-11T13:22:17.328Z</time>
      </trkpt>
      <trkpt lat="47.04969" lon="-1.22557">
        <ele>64.066</ele>
        <time>2015-09-11T13:22:18.133Z</time>
      </trkpt>
      <trkpt lat="47.04974" lon="-1.22563">
        <ele>64.249</ele>
        <time>2015-09-11T13:22:19.164Z</time>
      </trkpt>
      <trkpt lat="47.0498" lon="-1.2257">
        <ele>64.374</ele>
        <time>2015-09-11T13:22:20.109Z</time>
      </trkpt>
      <trkpt lat="47.04985" lon="-1.22577">
        <ele>64.416</ele>
        <time>2015-09-11T13:22:21.178Z</time>
      </trkpt>
      <trkpt lat="47.04991" lon="-1.22584">
        <ele>64.338</ele>
        <time>2015-09-11T13:22:22.106Z</time>
      </trkpt>
      <trkpt lat="47.04995" lon="-1.22589">
        <ele>64.166</ele>
        <time>2015-09-11T13:22:23.354Z</time>
      </trkpt>
      <trkpt lat="47.05001" lon="-1.22596">
        <ele>63.95</ele>
        <time>2015-09-11T13:22:24.112Z</time>
      </trkpt>
      <trkpt lat="47.05007" lon="-1.22603">
        <ele>63.525</ele>
        <time>2015-09-11T13:22:25.161Z</time>
      </trkpt>
      <trkpt lat="47.05012" lon="-1.22609">
        <ele>63.143</ele>
        <time>2015-09-11T13:22:26.131Z</time>
      </trkpt>
      <trkpt lat="47.05018" lon="-1.22615">
        <ele>62.675</ele>
        <time>2015-09-11T13:22:27.173Z</time>
      </trkpt>
      <trkpt lat="47.05023" lon="-1.22621">
        <ele>62.344</ele>
        <time>2015-09-11T13:22:28.109Z</time>
      </trkpt>
      <trkpt lat="47.05028" lon="-1.22628">
        <ele>61.978</ele>
        <time>2015-09-11T13:22:29.355Z</time>
      </trkpt>
      <trkpt lat="47.05033" lon="-1.22635">
        <ele>61.801</ele>
        <time>2015-09-11T13:22:30.107Z</time>
      </trkpt>
      <trkpt lat="47.05038" lon="-1.22642">
        <ele>61.625</ele>
        <time>2015-09-11T13:22:31.16Z</time>
      </trkpt>
      <trkpt lat="47.05044" lon="-1.22647">
        <ele>61.427</ele>
        <time>2015-09-11T13:22:32.111Z</time>
      </trkpt>
      <trkpt lat="47.05049" lon="-1.22653">
        <ele>61.247</ele>
        <time>2015-09-11T13:22:33.179Z</time>
      </trkpt>
      <trkpt lat="47.05054" lon="-1.22661">
        <ele>61.063</ele>
        <time>2015-09-11T13:22:34.184Z</time>
      </trkpt>
      <trkpt lat="47.05059" lon="-1.22667">
        <ele>60.998</ele>
        <time>2015-09-11T13:22:35.176Z</time>
      </trkpt>
      <trkpt lat="47.05065" lon="-1.22674">
        <ele>60.915</ele>
        <time>2015-09-11T13:22:36.105Z</time>
      </trkpt>
      <trkpt lat="47.05071" lon="-1.22681">
        <ele>60.715</ele>
        <time>2015-09-11T13:22:37.336Z</time>
      </trkpt>
      <trkpt lat="47.05077" lon="-1.22688">
        <ele>60.404</ele>
        <time>2015-09-11T13:22:38.111Z</time>
      </trkpt>
      <trkpt lat="47.05082" lon="-1.22695">
        <ele>60.058</ele>
        <time>2015-09-11T13:22:39.16Z</time>
      </trkpt>
      <trkpt lat="47.05087" lon="-1.22701">
        <ele>59.882</ele>
        <time>2015-09-11T13:22:40.156Z</time>
      </trkpt>
      <trkpt lat="47.05092" lon="-1.22708">
        <ele>59.681</ele>
        <time>2015-09-11T13:22:41.178Z</time>
      </trkpt>
      <trkpt lat="47.05098" lon="-1.22715">
        <ele>59.49</ele>
        <time>2015-09-11T13:22:42.801Z</time>
      </trkpt>
      <trkpt lat="47.05102" lon="-1.22722">
        <ele>59.317</ele>
        <time>2015-09-11T13:22:43.173Z</time>
      </trkpt>
      <trkpt lat="47.05106" lon="-1.22726">
        <ele>59.18</ele>
        <time>2015-09-11T13:22:44.104Z</time>
      </trkpt>
      <trkpt lat="47.05111" lon="-1.22716">
        <ele>59.011</ele>
        <time>2015-09-11T13:22:48.707Z</time>
      </trkpt>
      <trkpt lat="47.05108" lon="-1.22707">
        <ele>59.098</ele>
        <time>2015-09-11T13:22:49.106Z</time>
      </trkpt>
      <trkpt lat="47.05106" lon="-1.227">
        <ele>59.188</ele>
        <time>2015-09-11T13:22:50.159Z</time>
      </trkpt>
      <trkpt lat="47.05104" lon="-1.22693">
        <ele>59.287</ele>
        <time>2015-09-11T13:22:51.125Z</time>
      </trkpt>
      <trkpt lat="47.05101" lon="-1.22685">
        <ele>59.479</ele>
        <time>2015-09-11T13:22:52.503Z</time>
      </trkpt>
      <trkpt lat="47.05098" lon="-1.22679">
        <ele>59.768</ele>
        <time>2015-09-11T13:22:53.525Z</time>
      </trkpt>
      <trkpt lat="47.05093" lon="-1.22667">
        <ele>60.287</ele>
        <time>2015-09-11T13:22:55.162Z</time>
      </trkpt>
      <trkpt lat="47.05093" lon="-1.22659">
        <ele>60.311</ele>
        <time>2015-09-11T13:22:56.101Z</time>
      </trkpt>
      <trkpt lat="47.0509" lon="-1.22648">
        <ele>60.527</ele>
        <time>2015-09-11T13:22:58.761Z</time>
      </trkpt>
      <trkpt lat="47.05088" lon="-1.22641">
        <ele>60.642</ele>
        <time>2015-09-11T13:22:59.105Z</time>
      </trkpt>
      <trkpt lat="47.05088" lon="-1.22634">
        <ele>60.481</ele>
        <time>2015-09-11T13:23:00.159Z</time>
      </trkpt>
      <trkpt lat="47.05087" lon="-1.22627">
        <ele>60.355</ele>
        <time>2015-09-11T13:23:01.105Z</time>
      </trkpt>
      <trkpt lat="47.05085" lon="-1.22621">
        <ele>60.207</ele>
        <time>2015-09-11T13:23:02.165Z</time>
      </trkpt>
      <trkpt lat="47.05081" lon="-1.22614">
        <ele>60.173</ele>
        <time>2015-09-11T13:23:03.135Z</time>
      </trkpt>
      <trkpt lat="47.05079" lon="-1.22607">
        <ele>60.145</ele>
        <time>2015-09-11T13:23:05.089Z</time>
      </trkpt>
      <trkpt lat="47.05075" lon="-1.22593">
        <ele>60.304</ele>
        <time>2015-09-11T13:23:06.566Z</time>
      </trkpt>
      <trkpt lat="47.05073" lon="-1.22586">
        <ele>60.361</ele>
        <time>2015-09-11T13:23:07.769Z</time>
      </trkpt>
      <trkpt lat="47.0507" lon="-1.22578">
        <ele>60.466</ele>
        <time>2015-09-11T13:23:08.104Z</time>
      </trkpt>
      <trkpt lat="47.05068" lon="-1.2257">
        <ele>60.538</ele>
        <time>2015-09-11T13:23:09.4Z</time>
      </trkpt>
      <trkpt lat="47.05067" lon="-1.22563">
        <ele>60.584</ele>
        <time>2015-09-11T13:23:10.103Z</time>
      </trkpt>
      <trkpt lat="47.05065" lon="-1.22557">
        <ele>60.667</ele>
        <time>2015-09-11T13:23:11.175Z</time>
      </trkpt>
      <trkpt lat="47.05062" lon="-1.2255">
        <ele>60.917</ele>
        <time>2015-09-11T13:23:12.108Z</time>
      </trkpt>
      <trkpt lat="47.0506" lon="-1.22544">
        <ele>61.218</ele>
        <time>2015-09-11T13:23:13.297Z</time>
      </trkpt>
      <trkpt lat="47.05057" lon="-1.22537">
        <ele>61.567</ele>
        <time>2015-09-11T13:23:14.103Z</time>
      </trkpt>
      <trkpt lat="47.05056" lon="-1.2253">
        <ele>61.935</ele>
        <time>2015-09-11T13:23:15.169Z</time>
      </trkpt>
      <trkpt lat="47.05053" lon="-1.22523">
        <ele>62.264</ele>
        <time>2015-09-11T13:23:16.101Z</time>
      </trkpt>
      <trkpt lat="47.0505" lon="-1.2251">
        <ele>62.707</ele>
        <time>2015-09-11T13:23:18.35Z</time>
      </trkpt>
      <trkpt lat="47.05047" lon="-1.22505">
        <ele>62.867</ele>
        <time>2015-09-11T13:23:19.134Z</time>
      </trkpt>
      <trkpt lat="47.05045" lon="-1.22499">
        <ele>63</ele>
        <time>2015-09-11T13:23:20.181Z</time>
      </trkpt>
      <trkpt lat="47.05044" lon="-1.22491">
        <ele>63</ele>
        <time>2015-09-11T13:23:21.108Z</time>
      </trkpt>
      <trkpt lat="47.0504" lon="-1.2248">
        <ele>63</ele>
        <time>2015-09-11T13:23:23.643Z</time>
      </trkpt>
      <trkpt lat="47.05039" lon="-1.22474">
        <ele>63</ele>
        <time>2015-09-11T13:23:24.107Z</time>
      </trkpt>
      <trkpt lat="47.05036" lon="-1.22467">
        <ele>63</ele>
        <time>2015-09-11T13:23:26.337Z</time>
      </trkpt>
      <trkpt lat="47.05034" lon="-1.22463">
        <ele>63</ele>
        <time>2015-09-11T13:23:27.105Z</time>
      </trkpt>
      <trkpt lat="47.05032" lon="-1.22452">
        <ele>63</ele>
        <time>2015-09-11T13:23:29.273Z</time>
      </trkpt>
      <trkpt lat="47.05031" lon="-1.22447">
        <ele>63</ele>
        <time>2015-09-11T13:23:30.138Z</time>
      </trkpt>
      <trkpt lat="47.05028" lon="-1.22439">
        <ele>63</ele>
        <time>2015-09-11T13:23:32.161Z</time>
      </trkpt>
      <trkpt lat="47.05027" lon="-1.22434">
        <ele>63.029</ele>
        <time>2015-09-11T13:23:33.135Z</time>
      </trkpt>
      <trkpt lat="47.05024" lon="-1.22425">
        <ele>63.044</ele>
        <time>2015-09-11T13:23:35.161Z</time>
      </trkpt>
      <trkpt lat="47.05023" lon="-1.22421">
        <ele>63.026</ele>
        <time>2015-09-11T13:23:36.12Z</time>
      </trkpt>
      <trkpt lat="47.0502" lon="-1.22411">
        <ele>62.851</ele>
        <time>2015-09-11T13:23:38.165Z</time>
      </trkpt>
      <trkpt lat="47.05019" lon="-1.22406">
        <ele>62.746</ele>
        <time>2015-09-11T13:23:39.105Z</time>
      </trkpt>
      <trkpt lat="47.05017" lon="-1.22397">
        <ele>62.577</ele>
        <time>2015-09-11T13:23:41.171Z</time>
      </trkpt>
      <trkpt lat="47.05015" lon="-1.22392">
        <ele>62.504</ele>
        <time>2015-09-11T13:23:42.111Z</time>
      </trkpt>
      <trkpt lat="47.05013" lon="-1.22381">
        <ele>62.374</ele>
        <time>2015-09-11T13:23:44.672Z</time>
      </trkpt>
      <trkpt lat="47.05012" lon="-1.22375">
        <ele>62.288</ele>
        <time>2015-09-11T13:23:45.108Z</time>
      </trkpt>
      <trkpt lat="47.05011" lon="-1.22363">
        <ele>62.042</ele>
        <time>2015-09-11T13:23:47.295Z</time>
      </trkpt>
      <trkpt lat="47.0501" lon="-1.22357">
        <ele>62</ele>
        <time>2015-09-11T13:23:48.14Z</time>
      </trkpt>
      <trkpt lat="47.05009" lon="-1.2235">
        <ele>62</ele>
        <time>2015-09-11T13:23:49.164Z</time>
      </trkpt>
      <trkpt lat="47.05008" lon="-1.22337">
        <ele>62</ele>
        <time>2015-09-11T13:23:50.109Z</time>
      </trkpt>
      <trkpt lat="47.05007" lon="-1.22329">
        <ele>61.875</ele>
        <time>2015-09-11T13:23:51.538Z</time>
      </trkpt>
      <trkpt lat="47.05005" lon="-1.22322">
        <ele>61.664</ele>
        <time>2015-09-11T13:23:52.108Z</time>
      </trkpt>
      <trkpt lat="47.05003" lon="-1.2231">
        <ele>61.245</ele>
        <time>2015-09-11T13:23:54.621Z</time>
      </trkpt>
      <trkpt lat="47.05" lon="-1.22306">
        <ele>61.014</ele>
        <time>2015-09-11T13:23:55.105Z</time>
      </trkpt>
      <trkpt lat="47.04999" lon="-1.22299">
        <ele>61.035</ele>
        <time>2015-09-11T13:23:56.179Z</time>
      </trkpt>
      <trkpt lat="47.04997" lon="-1.22291">
        <ele>61.047</ele>
        <time>2015-09-11T13:23:57.109Z</time>
      </trkpt>
      <trkpt lat="47.04996" lon="-1.22285">
        <ele>61.04</ele>
        <time>2015-09-11T13:23:58.348Z</time>
      </trkpt>
      <trkpt lat="47.04994" lon="-1.22277">
        <ele>61.005</ele>
        <time>2015-09-11T13:23:59.109Z</time>
      </trkpt>
      <trkpt lat="47.04992" lon="-1.22265">
        <ele>61.125</ele>
        <time>2015-09-11T13:24:01.48Z</time>
      </trkpt>
      <trkpt lat="47.04992" lon="-1.22257">
        <ele>61.224</ele>
        <time>2015-09-11T13:24:02.107Z</time>
      </trkpt>
      <trkpt lat="47.04991" lon="-1.22248">
        <ele>61.324</ele>
        <time>2015-09-11T13:24:03.161Z</time>
      </trkpt>
      <trkpt lat="47.0499" lon="-1.22241">
        <ele>61.367</ele>
        <time>2015-09-11T13:24:04.138Z</time>
      </trkpt>
      <trkpt lat="47.04988" lon="-1.22229">
        <ele>61.421</ele>
        <time>2015-09-11T13:24:06.171Z</time>
      </trkpt>
      <trkpt lat="47.04987" lon="-1.22222">
        <ele>61.475</ele>
        <time>2015-09-11T13:24:07.601Z</time>
      </trkpt>
      <trkpt lat="47.04986" lon="-1.2221">
        <ele>61.508</ele>
        <time>2015-09-11T13:24:09.169Z</time>
      </trkpt>
      <trkpt lat="47.04985" lon="-1.22204">
        <ele>61.529</ele>
        <time>2015-09-11T13:24:10.135Z</time>
      </trkpt>
      <trkpt lat="47.04985" lon="-1.22197">
        <ele>61.536</ele>
        <time>2015-09-11T13:24:11.173Z</time>
      </trkpt>
      <trkpt lat="47.04986" lon="-1.2219">
        <ele>61.441</ele>
        <time>2015-09-11T13:24:12.106Z</time>
      </trkpt>
      <trkpt lat="47.04986" lon="-1.22183">
        <ele>61.289</ele>
        <time>2015-09-11T13:24:13.357Z</time>
      </trkpt>
      <trkpt lat="47.04986" lon="-1.22176">
        <ele>61.166</ele>
        <time>2015-09-11T13:24:14.134Z</time>
      </trkpt>
      <trkpt lat="47.04986" lon="-1.22169">
        <ele>61.045</ele>
        <time>2015-09-11T13:24:15.38Z</time>
      </trkpt>
      <trkpt lat="47.04985" lon="-1.22163">
        <ele>60.854</ele>
        <time>2015-09-11T13:24:16.147Z</time>
      </trkpt>
      <trkpt lat="47.04985" lon="-1.22155">
        <ele>60.591</ele>
        <time>2015-09-11T13:24:17.331Z</time>
      </trkpt>
      <trkpt lat="47.04985" lon="-1.22148">
        <ele>60.342</ele>
        <time>2015-09-11T13:24:18.196Z</time>
      </trkpt>
      <trkpt lat="47.04984" lon="-1.2214">
        <ele>60.026</ele>
        <time>2015-09-11T13:24:19.166Z</time>
      </trkpt>
      <trkpt lat="47.04984" lon="-1.22134">
        <ele>60</ele>
        <time>2015-09-11T13:24:20.103Z</time>
      </trkpt>
      <trkpt lat="47.04986" lon="-1.22125">
        <ele>60</ele>
        <time>2015-09-11T13:24:21.28Z</time>
      </trkpt>
      <trkpt lat="47.04985" lon="-1.22119">
        <ele>60</ele>
        <time>2015-09-11T13:24:22.135Z</time>
      </trkpt>
      <trkpt lat="47.04984" lon="-1.22112">
        <ele>60</ele>
        <time>2015-09-11T13:24:23.161Z</time>
      </trkpt>
      <trkpt lat="47.04985" lon="-1.22105">
        <ele>59.873</ele>
        <time>2015-09-11T13:24:24.112Z</time>
      </trkpt>
      <trkpt lat="47.04985" lon="-1.22092">
        <ele>59.621</ele>
        <time>2015-09-11T13:24:26.207Z</time>
      </trkpt>
      <trkpt lat="47.04985" lon="-1.22085">
        <ele>59.501</ele>
        <time>2015-09-11T13:24:27.104Z</time>
      </trkpt>
      <trkpt lat="47.04986" lon="-1.22077">
        <ele>59.482</ele>
        <time>2015-09-11T13:24:28.167Z</time>
      </trkpt>
      <trkpt lat="47.04986" lon="-1.2207">
        <ele>59.489</ele>
        <time>2015-09-11T13:24:29.102Z</time>
      </trkpt>
      <trkpt lat="47.04986" lon="-1.22064">
        <ele>59.496</ele>
        <time>2015-09-11T13:24:30.167Z</time>
      </trkpt>
      <trkpt lat="47.04986" lon="-1.22055">
        <ele>59.51</ele>
        <time>2015-09-11T13:24:31.099Z</time>
      </trkpt>
      <trkpt lat="47.04988" lon="-1.22042">
        <ele>59.561</ele>
        <time>2015-09-11T13:24:33.164Z</time>
      </trkpt>
      <trkpt lat="47.04988" lon="-1.22035">
        <ele>59.582</ele>
        <time>2015-09-11T13:24:34.115Z</time>
      </trkpt>
      <trkpt lat="47.0499" lon="-1.22027">
        <ele>59.624</ele>
        <time>2015-09-11T13:24:35.184Z</time>
      </trkpt>
      <trkpt lat="47.04991" lon="-1.2202">
        <ele>59.58</ele>
        <time>2015-09-11T13:24:36.109Z</time>
      </trkpt>
      <trkpt lat="47.04991" lon="-1.22012">
        <ele>59.498</ele>
        <time>2015-09-11T13:24:37.334Z</time>
      </trkpt>
      <trkpt lat="47.04993" lon="-1.22002">
        <ele>59.479</ele>
        <time>2015-09-11T13:24:38.11Z</time>
      </trkpt>
      <trkpt lat="47.04995" lon="-1.21993">
        <ele>59.411</ele>
        <time>2015-09-11T13:24:39.162Z</time>
      </trkpt>
      <trkpt lat="47.04995" lon="-1.21986">
        <ele>59.233</ele>
        <time>2015-09-11T13:24:40.123Z</time>
      </trkpt>
      <trkpt lat="47.04997" lon="-1.21977">
        <ele>59.067</ele>
        <time>2015-09-11T13:24:41.165Z</time>
      </trkpt>
      <trkpt lat="47.04998" lon="-1.21971">
        <ele>58.884</ele>
        <time>2015-09-11T13:24:42.106Z</time>
      </trkpt>
      <trkpt lat="47.04999" lon="-1.21961">
        <ele>58.571</ele>
        <time>2015-09-11T13:24:44.337Z</time>
      </trkpt>
      <trkpt lat="47.05001" lon="-1.21958">
        <ele>58.477</ele>
        <time>2015-09-11T13:24:45.186Z</time>
      </trkpt>
      <trkpt lat="47.05008" lon="-1.21951">
        <ele>58.24</ele>
        <time>2015-09-11T13:24:48.341Z</time>
      </trkpt>
      <trkpt lat="47.05012" lon="-1.21949">
        <ele>58.168</ele>
        <time>2015-09-11T13:24:49.105Z</time>
      </trkpt>
      <trkpt lat="47.05017" lon="-1.21946">
        <ele>58.045</ele>
        <time>2015-09-11T13:24:50.16Z</time>
      </trkpt>
      <trkpt lat="47.0502" lon="-1.21943">
        <ele>57.941</ele>
        <time>2015-09-11T13:24:51.113Z</time>
      </trkpt>
      <trkpt lat="47.05026" lon="-1.21938">
        <ele>57.75</ele>
        <time>2015-09-11T13:24:53.325Z</time>
      </trkpt>
      <trkpt lat="47.05029" lon="-1.21935">
        <ele>57.616</ele>
        <time>2015-09-11T13:24:54.132Z</time>
      </trkpt>
      <trkpt lat="47.05038" lon="-1.21932">
        <ele>57.184</ele>
        <time>2015-09-11T13:24:57.37Z</time>
      </trkpt>
      <trkpt lat="47.05041" lon="-1.21931">
        <ele>57.022</ele>
        <time>2015-09-11T13:24:58.165Z</time>
      </trkpt>
      <trkpt lat="47.05046" lon="-1.21922">
        <ele>56.514</ele>
        <time>2015-09-11T13:25:02.336Z</time>
      </trkpt>
      <trkpt lat="47.05047" lon="-1.21918">
        <ele>56.356</ele>
        <time>2015-09-11T13:25:03.109Z</time>
      </trkpt>
      <trkpt lat="47.0505" lon="-1.21911">
        <ele>56.392</ele>
        <time>2015-09-11T13:25:05.339Z</time>
      </trkpt>
      <trkpt lat="47.05054" lon="-1.21908">
        <ele>56.35</ele>
        <time>2015-09-11T13:25:06.111Z</time>
      </trkpt>
      <trkpt lat="47.05061" lon="-1.21905">
        <ele>55.854</ele>
        <time>2015-09-11T13:25:08.342Z</time>
      </trkpt>
      <trkpt lat="47.05072" lon="-1.21904">
        <ele>54.705</ele>
        <time>2015-09-11T13:25:09.139Z</time>
      </trkpt>
      <trkpt lat="47.05078" lon="-1.21902">
        <ele>54.133</ele>
        <time>2015-09-11T13:25:10.161Z</time>
      </trkpt>
      <trkpt lat="47.05087" lon="-1.21901">
        <ele>53.24</ele>
        <time>2015-09-11T13:25:11.112Z</time>
      </trkpt>
      <trkpt lat="47.05093" lon="-1.21898">
        <ele>52.624</ele>
        <time>2015-09-11T13:25:12.322Z</time>
      </trkpt>
      <trkpt lat="47.05099" lon="-1.21896">
        <ele>52.012</ele>
        <time>2015-09-11T13:25:13.103Z</time>
      </trkpt>
      <trkpt lat="47.051" lon="-1.21893">
        <ele>52.045</ele>
        <time>2015-09-11T13:25:14.161Z</time>
      </trkpt>
      <trkpt lat="47.05109" lon="-1.21891">
        <ele>51.148</ele>
        <time>2015-09-11T13:25:15.14Z</time>
      </trkpt>
      <trkpt lat="47.05115" lon="-1.21886">
        <ele>50.881</ele>
        <time>2015-09-11T13:25:16.442Z</time>
      </trkpt>
      <trkpt lat="47.05122" lon="-1.21888">
        <ele>49.931</ele>
        <time>2015-09-11T13:25:17.126Z</time>
      </trkpt>
      <trkpt lat="47.05128" lon="-1.21889">
        <ele>49.196</ele>
        <time>2015-09-11T13:25:18.344Z</time>
      </trkpt>
      <trkpt lat="47.05134" lon="-1.21889">
        <ele>48.571</ele>
        <time>2015-09-11T13:25:19.125Z</time>
      </trkpt>
      <trkpt lat="47.05137" lon="-1.21892">
        <ele>48.063</ele>
        <time>2015-09-11T13:25:20.868Z</time>
      </trkpt>
      <trkpt lat="47.05143" lon="-1.21893">
        <ele>47.432</ele>
        <time>2015-09-11T13:25:21.22Z</time>
      </trkpt>
      <trkpt lat="47.05149" lon="-1.21895">
        <ele>46.881</ele>
        <time>2015-09-11T13:25:22.16Z</time>
      </trkpt>
      <trkpt lat="47.05154" lon="-1.21897">
        <ele>46.427</ele>
        <time>2015-09-11T13:25:23.114Z</time>
      </trkpt>
      <trkpt lat="47.0516" lon="-1.21897">
        <ele>45.866</ele>
        <time>2015-09-11T13:25:24.438Z</time>
      </trkpt>
      <trkpt lat="47.05168" lon="-1.21897">
        <ele>45.069</ele>
        <time>2015-09-11T13:25:25.105Z</time>
      </trkpt>
      <trkpt lat="47.05174" lon="-1.21895">
        <ele>44.134</ele>
        <time>2015-09-11T13:25:26.165Z</time>
      </trkpt>
      <trkpt lat="47.05181" lon="-1.21887">
        <ele>43.072</ele>
        <time>2015-09-11T13:25:27.202Z</time>
      </trkpt>
      <trkpt lat="47.05186" lon="-1.21882">
        <ele>42.413</ele>
        <time>2015-09-11T13:25:28.172Z</time>
      </trkpt>
      <trkpt lat="47.05194" lon="-1.21874">
        <ele>41.081</ele>
        <time>2015-09-11T13:25:29.104Z</time>
      </trkpt>
      <trkpt lat="47.052" lon="-1.21865">
        <ele>40.24</ele>
        <time>2015-09-11T13:25:32.16Z</time>
      </trkpt>
      <trkpt lat="47.052" lon="-1.21861">
        <ele>40.232</ele>
        <time>2015-09-11T13:25:33.129Z</time>
      </trkpt>
      <trkpt lat="47.05199" lon="-1.21854">
        <ele>40.377</ele>
        <time>2015-09-11T13:25:34.17Z</time>
      </trkpt>
      <trkpt lat="47.05195" lon="-1.21846">
        <ele>41.506</ele>
        <time>2015-09-11T13:25:35.115Z</time>
      </trkpt>
      <trkpt lat="47.05195" lon="-1.21839">
        <ele>41.767</ele>
        <time>2015-09-11T13:25:36.408Z</time>
      </trkpt>
      <trkpt lat="47.05194" lon="-1.21832">
        <ele>42.023</ele>
        <time>2015-09-11T13:25:37.107Z</time>
      </trkpt>
      <trkpt lat="47.05192" lon="-1.21823">
        <ele>41.958</ele>
        <time>2015-09-11T13:25:39.433Z</time>
      </trkpt>
      <trkpt lat="47.05188" lon="-1.21819">
        <ele>42.672</ele>
        <time>2015-09-11T13:25:40.105Z</time>
      </trkpt>
      <trkpt lat="47.05191" lon="-1.21809">
        <ele>41.106</ele>
        <time>2015-09-11T13:25:43.173Z</time>
      </trkpt>
      <trkpt lat="47.05191" lon="-1.21806">
        <ele>41.1</ele>
        <time>2015-09-11T13:25:44.141Z</time>
      </trkpt>
      <trkpt lat="47.05186" lon="-1.21795">
        <ele>41.983</ele>
        <time>2015-09-11T13:25:49.165Z</time>
      </trkpt>
      <trkpt lat="47.05184" lon="-1.21793">
        <ele>42.287</ele>
        <time>2015-09-11T13:25:50.611Z</time>
      </trkpt>
      <trkpt lat="47.05181" lon="-1.21784">
        <ele>42.622</ele>
        <time>2015-09-11T13:25:53.419Z</time>
      </trkpt>
      <trkpt lat="47.0518" lon="-1.21778">
        <ele>42.568</ele>
        <time>2015-09-11T13:25:54.108Z</time>
      </trkpt>
      <trkpt lat="47.05179" lon="-1.21767">
        <ele>42.435</ele>
        <time>2015-09-11T13:25:56.437Z</time>
      </trkpt>
      <trkpt lat="47.05179" lon="-1.21761">
        <ele>42.333</ele>
        <time>2015-09-11T13:25:57.102Z</time>
      </trkpt>
      <trkpt lat="47.05179" lon="-1.21749">
        <ele>41.885</ele>
        <time>2015-09-11T13:26:01.159Z</time>
      </trkpt>
      <trkpt lat="47.05179" lon="-1.21747">
        <ele>41.968</ele>
        <time>2015-09-11T13:26:02.116Z</time>
      </trkpt>
      <trkpt lat="47.05181" lon="-1.21735">
        <ele>40.823</ele>
        <time>2015-09-11T13:26:06.391Z</time>
      </trkpt>
      <trkpt lat="47.05183" lon="-1.21733">
        <ele>40.247</ele>
        <time>2015-09-11T13:26:07.11Z</time>
      </trkpt>
      <trkpt lat="47.05184" lon="-1.21722">
        <ele>39.403</ele>
        <time>2015-09-11T13:26:10.462Z</time>
      </trkpt>
      <trkpt lat="47.05183" lon="-1.21718">
        <ele>39.424</ele>
        <time>2015-09-11T13:26:11.106Z</time>
      </trkpt>
      <trkpt lat="47.05181" lon="-1.21706">
        <ele>39.534</ele>
        <time>2015-09-11T13:26:16.342Z</time>
      </trkpt>
      <trkpt lat="47.0518" lon="-1.21704">
        <ele>39.661</ele>
        <time>2015-09-11T13:26:17.104Z</time>
      </trkpt>
      <trkpt lat="47.0518" lon="-1.21694">
        <ele>39.366</ele>
        <time>2015-09-11T13:26:20.432Z</time>
      </trkpt>
      <trkpt lat="47.05179" lon="-1.21691">
        <ele>39.433</ele>
        <time>2015-09-11T13:26:21.105Z</time>
      </trkpt>
      <trkpt lat="47.05177" lon="-1.21679">
        <ele>39.279</ele>
        <time>2015-09-11T13:26:25.163Z</time>
      </trkpt>
      <trkpt lat="47.05177" lon="-1.21676">
        <ele>39.29</ele>
        <time>2015-09-11T13:26:26.106Z</time>
      </trkpt>
      <trkpt lat="47.05172" lon="-1.21667">
        <ele>40.449</ele>
        <time>2015-09-11T13:26:31.355Z</time>
      </trkpt>
      <trkpt lat="47.0517" lon="-1.21666">
        <ele>40.771</ele>
        <time>2015-09-11T13:26:32.101Z</time>
      </trkpt>
      <trkpt lat="47.05168" lon="-1.21655">
        <ele>40.672</ele>
        <time>2015-09-11T13:26:36.162Z</time>
      </trkpt>
      <trkpt lat="47.05167" lon="-1.21653">
        <ele>40.867</ele>
        <time>2015-09-11T13:26:37.108Z</time>
      </trkpt>
      <trkpt lat="47.05167" lon="-1.2164">
        <ele>40.092</ele>
        <time>2015-09-11T13:26:40.159Z</time>
      </trkpt>
      <trkpt lat="47.05167" lon="-1.21637">
        <ele>39.733</ele>
        <time>2015-09-11T13:26:41.111Z</time>
      </trkpt>
      <trkpt lat="47.05166" lon="-1.21626">
        <ele>38.802</ele>
        <time>2015-09-11T13:26:44.911Z</time>
      </trkpt>
      <trkpt lat="47.05164" lon="-1.21621">
        <ele>38.717</ele>
        <time>2015-09-11T13:26:45.125Z</time>
      </trkpt>
      <trkpt lat="47.05161" lon="-1.2161">
        <ele>38.54</ele>
        <time>2015-09-11T13:26:48.297Z</time>
      </trkpt>
      <trkpt lat="47.0516" lon="-1.21606">
        <ele>38.413</ele>
        <time>2015-09-11T13:26:49.129Z</time>
      </trkpt>
      <trkpt lat="47.05152" lon="-1.21599">
        <ele>39.295</ele>
        <time>2015-09-11T13:26:52.319Z</time>
      </trkpt>
      <trkpt lat="47.0515" lon="-1.21596">
        <ele>39.536</ele>
        <time>2015-09-11T13:26:53.142Z</time>
      </trkpt>
      <trkpt lat="47.05144" lon="-1.2159">
        <ele>40.074</ele>
        <time>2015-09-11T13:26:55.222Z</time>
      </trkpt>
      <trkpt lat="47.0514" lon="-1.21587">
        <ele>40.374</ele>
        <time>2015-09-11T13:26:56.126Z</time>
      </trkpt>
      <trkpt lat="47.05134" lon="-1.21578">
        <ele>39.64</ele>
        <time>2015-09-11T13:26:58.647Z</time>
      </trkpt>
      <trkpt lat="47.05131" lon="-1.21575">
        <ele>39.288</ele>
        <time>2015-09-11T13:26:59.103Z</time>
      </trkpt>
      <trkpt lat="47.05128" lon="-1.21565">
        <ele>37.382</ele>
        <time>2015-09-11T13:27:01.35Z</time>
      </trkpt>
      <trkpt lat="47.05127" lon="-1.21563">
        <ele>37.053</ele>
        <time>2015-09-11T13:27:02.11Z</time>
      </trkpt>
      <trkpt lat="47.05122" lon="-1.21557">
        <ele>36.116</ele>
        <time>2015-09-11T13:27:05.175Z</time>
      </trkpt>
      <trkpt lat="47.0512" lon="-1.21554">
        <ele>35.858</ele>
        <time>2015-09-11T13:27:06.104Z</time>
      </trkpt>
      <trkpt lat="47.05113" lon="-1.21549">
        <ele>35.926</ele>
        <time>2015-09-11T13:27:10.478Z</time>
      </trkpt>
      <trkpt lat="47.05111" lon="-1.21548">
        <ele>35.857</ele>
        <time>2015-09-11T13:27:11.106Z</time>
      </trkpt>
      <trkpt lat="47.05106" lon="-1.21538">
        <ele>35.547</ele>
        <time>2015-09-11T13:27:15.539Z</time>
      </trkpt>
      <trkpt lat="47.05105" lon="-1.21534">
        <ele>35.144</ele>
        <time>2015-09-11T13:27:16.108Z</time>
      </trkpt>
      <trkpt lat="47.05111" lon="-1.21525">
        <ele>32.916</ele>
        <time>2015-09-11T13:27:47.598Z</time>
      </trkpt>
      <trkpt lat="47.05112" lon="-1.21523">
        <ele>32.639</ele>
        <time>2015-09-11T13:27:48.105Z</time>
      </trkpt>
      <trkpt lat="47.05118" lon="-1.21516">
        <ele>31.746</ele>
        <time>2015-09-11T13:27:52.159Z</time>
      </trkpt>
      <trkpt lat="47.05118" lon="-1.21512">
        <ele>31.5</ele>
        <time>2015-09-11T13:27:53.106Z</time>
      </trkpt>
      <trkpt lat="47.05116" lon="-1.21501">
        <ele>30.898</ele>
        <time>2015-09-11T13:27:56.334Z</time>
      </trkpt>
      <trkpt lat="47.05114" lon="-1.21498">
        <ele>30.897</ele>
        <time>2015-09-11T13:27:57.506Z</time>
      </trkpt>
      <trkpt lat="47.05111" lon="-1.21489">
        <ele>31.101</ele>
        <time>2015-09-11T13:28:00.511Z</time>
      </trkpt>
      <trkpt lat="47.0511" lon="-1.21485">
        <ele>31.258</ele>
        <time>2015-09-11T13:28:01.259Z</time>
      </trkpt>
      <trkpt lat="47.05106" lon="-1.21475">
        <ele>31.711</ele>
        <time>2015-09-11T13:28:03.156Z</time>
      </trkpt>
      <trkpt lat="47.05105" lon="-1.21471">
        <ele>31.981</ele>
        <time>2015-09-11T13:28:04.132Z</time>
      </trkpt>
      <trkpt lat="47.051" lon="-1.21462">
        <ele>32.687</ele>
        <time>2015-09-11T13:28:06.157Z</time>
      </trkpt>
      <trkpt lat="47.05097" lon="-1.21459">
        <ele>33.025</ele>
        <time>2015-09-11T13:28:07.104Z</time>
      </trkpt>
      <trkpt lat="47.05089" lon="-1.21455">
        <ele>33.862</ele>
        <time>2015-09-11T13:28:10.323Z</time>
      </trkpt>
      <trkpt lat="47.05086" lon="-1.21453">
        <ele>34.088</ele>
        <time>2015-09-11T13:28:11.13Z</time>
      </trkpt>
      <trkpt lat="47.0508" lon="-1.21451">
        <ele>35.662</ele>
        <time>2015-09-11T13:28:13.201Z</time>
      </trkpt>
      <trkpt lat="47.05077" lon="-1.21449">
        <ele>36.561</ele>
        <time>2015-09-11T13:28:14.131Z</time>
      </trkpt>
      <trkpt lat="47.05071" lon="-1.21444">
        <ele>38.288</ele>
        <time>2015-09-11T13:28:16.165Z</time>
      </trkpt>
      <trkpt lat="47.05069" lon="-1.21441">
        <ele>39.153</ele>
        <time>2015-09-11T13:28:17.126Z</time>
      </trkpt>
      <trkpt lat="47.05063" lon="-1.21433">
        <ele>40.399</ele>
        <time>2015-09-11T13:28:19.158Z</time>
      </trkpt>
      <trkpt lat="47.05059" lon="-1.21419">
        <ele>40.331</ele>
        <time>2015-09-11T13:28:20.125Z</time>
      </trkpt>
      <trkpt lat="47.05055" lon="-1.21412">
        <ele>40.661</ele>
        <time>2015-09-11T13:28:21.397Z</time>
      </trkpt>
      <trkpt lat="47.05051" lon="-1.21405">
        <ele>41.205</ele>
        <time>2015-09-11T13:28:22.126Z</time>
      </trkpt>
      <trkpt lat="47.05044" lon="-1.21396">
        <ele>42.059</ele>
        <time>2015-09-11T13:28:24.156Z</time>
      </trkpt>
      <trkpt lat="47.0504" lon="-1.21387">
        <ele>42.315</ele>
        <time>2015-09-11T13:28:25.104Z</time>
      </trkpt>
      <trkpt lat="47.05037" lon="-1.2138">
        <ele>42.408</ele>
        <time>2015-09-11T13:28:26.162Z</time>
      </trkpt>
      <trkpt lat="47.05033" lon="-1.21373">
        <ele>43.001</ele>
        <time>2015-09-11T13:28:27.105Z</time>
      </trkpt>
      <trkpt lat="47.05031" lon="-1.21363">
        <ele>42.251</ele>
        <time>2015-09-11T13:28:28.337Z</time>
      </trkpt>
      <trkpt lat="47.0503" lon="-1.21353">
        <ele>41.271</ele>
        <time>2015-09-11T13:28:29.189Z</time>
      </trkpt>
      <trkpt lat="47.05026" lon="-1.21346">
        <ele>41.295</ele>
        <time>2015-09-11T13:28:30.333Z</time>
      </trkpt>
      <trkpt lat="47.05022" lon="-1.21341">
        <ele>41.144</ele>
        <time>2015-09-11T13:28:31.139Z</time>
      </trkpt>
      <trkpt lat="47.05017" lon="-1.2133">
        <ele>40.811</ele>
        <time>2015-09-11T13:28:33.329Z</time>
      </trkpt>
      <trkpt lat="47.05016" lon="-1.21322">
        <ele>40.134</ele>
        <time>2015-09-11T13:28:34.139Z</time>
      </trkpt>
      <trkpt lat="47.05013" lon="-1.21311">
        <ele>39.453</ele>
        <time>2015-09-11T13:28:36.368Z</time>
      </trkpt>
      <trkpt lat="47.05011" lon="-1.21304">
        <ele>39.02</ele>
        <time>2015-09-11T13:28:37.131Z</time>
      </trkpt>
      <trkpt lat="47.05007" lon="-1.21299">
        <ele>39.267</ele>
        <time>2015-09-11T13:28:38.336Z</time>
      </trkpt>
      <trkpt lat="47.05006" lon="-1.21293">
        <ele>38.846</ele>
        <time>2015-09-11T13:28:39.137Z</time>
      </trkpt>
      <trkpt lat="47.05004" lon="-1.21286">
        <ele>38.318</ele>
        <time>2015-09-11T13:28:40.497Z</time>
      </trkpt>
      <trkpt lat="47.05001" lon="-1.2128">
        <ele>38.121</ele>
        <time>2015-09-11T13:28:41.137Z</time>
      </trkpt>
      <trkpt lat="47.04994" lon="-1.21276">
        <ele>39.992</ele>
        <time>2015-09-11T13:28:42.16Z</time>
      </trkpt>
      <trkpt lat="47.04994" lon="-1.21271">
        <ele>39.783</ele>
        <time>2015-09-11T13:28:43.105Z</time>
      </trkpt>
      <trkpt lat="47.04991" lon="-1.21259">
        <ele>40.283</ele>
        <time>2015-09-11T13:28:45.161Z</time>
      </trkpt>
      <trkpt lat="47.04991" lon="-1.21256">
        <ele>40.262</ele>
        <time>2015-09-11T13:28:46.104Z</time>
      </trkpt>
      <trkpt lat="47.04986" lon="-1.21246">
        <ele>41.392</ele>
        <time>2015-09-11T13:28:49.159Z</time>
      </trkpt>
      <trkpt lat="47.04983" lon="-1.21244">
        <ele>42.155</ele>
        <time>2015-09-11T13:28:50.13Z</time>
      </trkpt>
      <trkpt lat="47.04978" lon="-1.21236">
        <ele>43.631</ele>
        <time>2015-09-11T13:28:53.357Z</time>
      </trkpt>
      <trkpt lat="47.04977" lon="-1.21233">
        <ele>43.764</ele>
        <time>2015-09-11T13:28:54.126Z</time>
      </trkpt>
      <trkpt lat="47.04976" lon="-1.2122">
        <ele>43.919</ele>
        <time>2015-09-11T13:28:58.333Z</time>
      </trkpt>
      <trkpt lat="47.04976" lon="-1.21217">
        <ele>43.981</ele>
        <time>2015-09-11T13:28:59.126Z</time>
      </trkpt>
      <trkpt lat="47.04977" lon="-1.21207">
        <ele>44.198</ele>
        <time>2015-09-11T13:29:02.16Z</time>
      </trkpt>
      <trkpt lat="47.04977" lon="-1.21203">
        <ele>44.349</ele>
        <time>2015-09-11T13:29:03.131Z</time>
      </trkpt>
      <trkpt lat="47.0498" lon="-1.21192">
        <ele>43.896</ele>
        <time>2015-09-11T13:29:06.443Z</time>
      </trkpt>
      <trkpt lat="47.0499" lon="-1.21178">
        <ele>41.627</ele>
        <time>2015-09-11T13:29:07.126Z</time>
      </trkpt>
      <trkpt lat="47.04993" lon="-1.21171">
        <ele>41.228</ele>
        <time>2015-09-11T13:29:08.339Z</time>
      </trkpt>
      <trkpt lat="47.04999" lon="-1.21157">
        <ele>40.606</ele>
        <time>2015-09-11T13:29:09.132Z</time>
      </trkpt>
      <trkpt lat="47.04999" lon="-1.21157">
        <ele>40.606</ele>
        <time>2015-09-11T13:29:09.472Z</time>
      </trkpt>
      <trkpt lat="47.05003" lon="-1.21144">
        <ele>40.316</ele>
        <time>2015-09-11T13:29:10.126Z</time>
      </trkpt>
      <trkpt lat="47.05008" lon="-1.21133">
        <ele>39.596</ele>
        <time>2015-09-11T13:29:11.415Z</time>
      </trkpt>
      <trkpt lat="47.05012" lon="-1.21122">
        <ele>38.84</ele>
        <time>2015-09-11T13:29:12.125Z</time>
      </trkpt>
      <trkpt lat="47.05017" lon="-1.21115">
        <ele>37.94</ele>
        <time>2015-09-11T13:29:13.147Z</time>
      </trkpt>
      <trkpt lat="47.05021" lon="-1.21112">
        <ele>37.256</ele>
        <time>2015-09-11T13:29:14.103Z</time>
      </trkpt>
      <trkpt lat="47.05024" lon="-1.21108">
        <ele>36.629</ele>
        <time>2015-09-11T13:29:15.765Z</time>
      </trkpt>
      <trkpt lat="47.05031" lon="-1.21109">
        <ele>35.782</ele>
        <time>2015-09-11T13:29:16.104Z</time>
      </trkpt>
      <trkpt lat="47.05039" lon="-1.21106">
        <ele>35.17</ele>
        <time>2015-09-11T13:29:18.442Z</time>
      </trkpt>
      <trkpt lat="47.05042" lon="-1.21105">
        <ele>34.998</ele>
        <time>2015-09-11T13:29:19.104Z</time>
      </trkpt>
      <trkpt lat="47.0505" lon="-1.21104">
        <ele>34.386</ele>
        <time>2015-09-11T13:29:23.369Z</time>
      </trkpt>
      <trkpt lat="47.05054" lon="-1.21103">
        <ele>34.105</ele>
        <time>2015-09-11T13:29:24.125Z</time>
      </trkpt>
      <trkpt lat="47.05062" lon="-1.21103">
        <ele>34.612</ele>
        <time>2015-09-11T13:29:27.165Z</time>
      </trkpt>
      <trkpt lat="47.05065" lon="-1.21104">
        <ele>34.94</ele>
        <time>2015-09-11T13:29:28.104Z</time>
      </trkpt>
      <trkpt lat="47.05072" lon="-1.21104">
        <ele>35.591</ele>
        <time>2015-09-11T13:29:30.16Z</time>
      </trkpt>
      <trkpt lat="47.05075" lon="-1.21104">
        <ele>35.891</ele>
        <time>2015-09-11T13:29:31.103Z</time>
      </trkpt>
      <trkpt lat="47.05083" lon="-1.21103">
        <ele>36.653</ele>
        <time>2015-09-11T13:29:34.17Z</time>
      </trkpt>
      <trkpt lat="47.05084" lon="-1.21103">
        <ele>36.812</ele>
        <time>2015-09-11T13:29:35.144Z</time>
      </trkpt>
      <trkpt lat="47.05086" lon="-1.21113">
        <ele>37.57</ele>
        <time>2015-09-11T13:29:41.157Z</time>
      </trkpt>
      <trkpt lat="47.05085" lon="-1.21117">
        <ele>37.685</ele>
        <time>2015-09-11T13:29:42.103Z</time>
      </trkpt>
      <trkpt lat="47.05086" lon="-1.21129">
        <ele>38.621</ele>
        <time>2015-09-11T13:29:46.181Z</time>
      </trkpt>
      <trkpt lat="47.05087" lon="-1.21132">
        <ele>38.895</ele>
        <time>2015-09-11T13:29:47.148Z</time>
      </trkpt>
      <trkpt lat="47.05087" lon="-1.21144">
        <ele>39.199</ele>
        <time>2015-09-11T13:29:50.166Z</time>
      </trkpt>
      <trkpt lat="47.05087" lon="-1.21149">
        <ele>39.047</ele>
        <time>2015-09-11T13:29:51.181Z</time>
      </trkpt>
      <trkpt lat="47.05086" lon="-1.21161">
        <ele>38.623</ele>
        <time>2015-09-11T13:29:54.281Z</time>
      </trkpt>
      <trkpt lat="47.05087" lon="-1.21165">
        <ele>38.536</ele>
        <time>2015-09-11T13:29:55.137Z</time>
      </trkpt>
      <trkpt lat="47.05086" lon="-1.21178">
        <ele>38.034</ele>
        <time>2015-09-11T13:30:00.164Z</time>
      </trkpt>
      <trkpt lat="47.05086" lon="-1.21179">
        <ele>37.908</ele>
        <time>2015-09-11T13:30:01.105Z</time>
      </trkpt>
      <trkpt lat="47.05087" lon="-1.21191">
        <ele>37.616</ele>
        <time>2015-09-11T13:30:07.147Z</time>
      </trkpt>
      <trkpt lat="47.05087" lon="-1.21193">
        <ele>37.638</ele>
        <time>2015-09-11T13:30:08.105Z</time>
      </trkpt>
      <trkpt lat="47.05091" lon="-1.21205">
        <ele>37.537</ele>
        <time>2015-09-11T13:30:13.585Z</time>
      </trkpt>
      <trkpt lat="47.05091" lon="-1.21208">
        <ele>37.474</ele>
        <time>2015-09-11T13:30:14.105Z</time>
      </trkpt>
      <trkpt lat="47.05094" lon="-1.2122">
        <ele>37.323</ele>
        <time>2015-09-11T13:30:18.18Z</time>
      </trkpt>
      <trkpt lat="47.05094" lon="-1.21224">
        <ele>37.404</ele>
        <time>2015-09-11T13:30:19.104Z</time>
      </trkpt>
      <trkpt lat="47.05095" lon="-1.21235">
        <ele>37.994</ele>
        <time>2015-09-11T13:30:22.502Z</time>
      </trkpt>
      <trkpt lat="47.05095" lon="-1.21238">
        <ele>38.041</ele>
        <time>2015-09-11T13:30:23.106Z</time>
      </trkpt>
      <trkpt lat="47.05092" lon="-1.21248">
        <ele>37.886</ele>
        <time>2015-09-11T13:30:26.161Z</time>
      </trkpt>
      <trkpt lat="47.05093" lon="-1.21252">
        <ele>38.131</ele>
        <time>2015-09-11T13:30:27.365Z</time>
      </trkpt>
      <trkpt lat="47.05095" lon="-1.21263">
        <ele>38.585</ele>
        <time>2015-09-11T13:30:30.51Z</time>
      </trkpt>
      <trkpt lat="47.05097" lon="-1.21267">
        <ele>38.844</ele>
        <time>2015-09-11T13:30:31.103Z</time>
      </trkpt>
      <trkpt lat="47.05102" lon="-1.21273">
        <ele>40.032</ele>
        <time>2015-09-11T13:30:34.384Z</time>
      </trkpt>
      <trkpt lat="47.05104" lon="-1.21276">
        <ele>40.356</ele>
        <time>2015-09-11T13:30:35.133Z</time>
      </trkpt>
      <trkpt lat="47.05107" lon="-1.21287">
        <ele>40.507</ele>
        <time>2015-09-11T13:30:38.357Z</time>
      </trkpt>
      <trkpt lat="47.05107" lon="-1.21292">
        <ele>40.258</ele>
        <time>2015-09-11T13:30:39.131Z</time>
      </trkpt>
      <trkpt lat="47.05109" lon="-1.21304">
        <ele>39.755</ele>
        <time>2015-09-11T13:30:43.449Z</time>
      </trkpt>
      <trkpt lat="47.0511" lon="-1.21307">
        <ele>39.594</ele>
        <time>2015-09-11T13:30:44.13Z</time>
      </trkpt>
      <trkpt lat="47.05113" lon="-1.21317">
        <ele>38.811</ele>
        <time>2015-09-11T13:30:47.359Z</time>
      </trkpt>
      <trkpt lat="47.05114" lon="-1.21321">
        <ele>38.486</ele>
        <time>2015-09-11T13:30:48.103Z</time>
      </trkpt>
      <trkpt lat="47.05117" lon="-1.21332">
        <ele>37.752</ele>
        <time>2015-09-11T13:30:51.159Z</time>
      </trkpt>
      <trkpt lat="47.05119" lon="-1.21336">
        <ele>37.635</ele>
        <time>2015-09-11T13:30:52.105Z</time>
      </trkpt>
      <trkpt lat="47.05122" lon="-1.21343">
        <ele>37.419</ele>
        <time>2015-09-11T13:30:54.328Z</time>
      </trkpt>
      <trkpt lat="47.05123" lon="-1.21347">
        <ele>37.355</ele>
        <time>2015-09-11T13:30:55.182Z</time>
      </trkpt>
      <trkpt lat="47.05127" lon="-1.21355">
        <ele>37.24</ele>
        <time>2015-09-11T13:30:57.163Z</time>
      </trkpt>
      <trkpt lat="47.05129" lon="-1.21359">
        <ele>37.18</ele>
        <time>2015-09-11T13:30:58.115Z</time>
      </trkpt>
      <trkpt lat="47.05134" lon="-1.21368">
        <ele>37.458</ele>
        <time>2015-09-11T13:31:00.219Z</time>
      </trkpt>
      <trkpt lat="47.05138" lon="-1.21377">
        <ele>37.741</ele>
        <time>2015-09-11T13:31:01.132Z</time>
      </trkpt>
      <trkpt lat="47.05141" lon="-1.21383">
        <ele>38.115</ele>
        <time>2015-09-11T13:31:02.577Z</time>
      </trkpt>
      <trkpt lat="47.05143" lon="-1.21388">
        <ele>38.376</ele>
        <time>2015-09-11T13:31:03.104Z</time>
      </trkpt>
      <trkpt lat="47.05147" lon="-1.21394">
        <ele>38.844</ele>
        <time>2015-09-11T13:31:04.292Z</time>
      </trkpt>
      <trkpt lat="47.05148" lon="-1.21399">
        <ele>39.016</ele>
        <time>2015-09-11T13:31:05.126Z</time>
      </trkpt>
      <trkpt lat="47.0515" lon="-1.21408">
        <ele>38.783</ele>
        <time>2015-09-11T13:31:07.159Z</time>
      </trkpt>
      <trkpt lat="47.05152" lon="-1.21411">
        <ele>38.792</ele>
        <time>2015-09-11T13:31:08.142Z</time>
      </trkpt>
      <trkpt lat="47.05158" lon="-1.21419">
        <ele>39.118</ele>
        <time>2015-09-11T13:31:11.33Z</time>
      </trkpt>
      <trkpt lat="47.0516" lon="-1.2142">
        <ele>39.225</ele>
        <time>2015-09-11T13:31:12.138Z</time>
      </trkpt>
      <trkpt lat="47.05167" lon="-1.21427">
        <ele>39.137</ele>
        <time>2015-09-11T13:31:29.377Z</time>
      </trkpt>
      <trkpt lat="47.05168" lon="-1.21428">
        <ele>39.052</ele>
        <time>2015-09-11T13:31:30.126Z</time>
      </trkpt>
      <trkpt lat="47.05175" lon="-1.21434">
        <ele>38.987</ele>
        <time>2015-09-11T13:31:43.384Z</time>
      </trkpt>
      <trkpt lat="47.05176" lon="-1.21434">
        <ele>39.065</ele>
        <time>2015-09-11T13:31:44.122Z</time>
      </trkpt>
      <trkpt lat="47.05183" lon="-1.21439">
        <ele>38.808</ele>
        <time>2015-09-11T13:32:00.156Z</time>
      </trkpt>
      <trkpt lat="47.05185" lon="-1.21443">
        <ele>38.23</ele>
        <time>2015-09-11T13:32:01.11Z</time>
      </trkpt>
      <trkpt lat="47.0519" lon="-1.21449">
        <ele>37.617</ele>
        <time>2015-09-11T13:32:03.317Z</time>
      </trkpt>
      <trkpt lat="47.05193" lon="-1.21451">
        <ele>37.657</ele>
        <time>2015-09-11T13:32:04.144Z</time>
      </trkpt>
      <trkpt lat="47.05199" lon="-1.21453">
        <ele>37.792</ele>
        <time>2015-09-11T13:32:07.275Z</time>
      </trkpt>
      <trkpt lat="47.05202" lon="-1.21454">
        <ele>37.723</ele>
        <time>2015-09-11T13:32:08.105Z</time>
      </trkpt>
      <trkpt lat="47.05207" lon="-1.21457">
        <ele>37.712</ele>
        <time>2015-09-11T13:32:10.326Z</time>
      </trkpt>
      <trkpt lat="47.0521" lon="-1.21457">
        <ele>37.817</ele>
        <time>2015-09-11T13:32:11.164Z</time>
      </trkpt>
      <trkpt lat="47.05217" lon="-1.21457">
        <ele>38.375</ele>
        <time>2015-09-11T13:32:13.154Z</time>
      </trkpt>
      <trkpt lat="47.0522" lon="-1.21456">
        <ele>38.8</ele>
        <time>2015-09-11T13:32:14.157Z</time>
      </trkpt>
      <trkpt lat="47.05228" lon="-1.21454">
        <ele>39.641</ele>
        <time>2015-09-11T13:32:17.154Z</time>
      </trkpt>
      <trkpt lat="47.05231" lon="-1.21453">
        <ele>39.854</ele>
        <time>2015-09-11T13:32:18.125Z</time>
      </trkpt>
      <trkpt lat="47.05238" lon="-1.21451">
        <ele>40.499</ele>
        <time>2015-09-11T13:32:21.457Z</time>
      </trkpt>
      <trkpt lat="47.05241" lon="-1.21451">
        <ele>40.678</ele>
        <time>2015-09-11T13:32:22.148Z</time>
      </trkpt>
      <trkpt lat="47.05249" lon="-1.2145">
        <ele>41.211</ele>
        <time>2015-09-11T13:32:25.371Z</time>
      </trkpt>
      <trkpt lat="47.05252" lon="-1.21449">
        <ele>41.29</ele>
        <time>2015-09-11T13:32:26.105Z</time>
      </trkpt>
      <trkpt lat="47.05259" lon="-1.21448">
        <ele>41.193</ele>
        <time>2015-09-11T13:32:30.166Z</time>
      </trkpt>
      <trkpt lat="47.05261" lon="-1.21447">
        <ele>41.218</ele>
        <time>2015-09-11T13:32:31.139Z</time>
      </trkpt>
      <trkpt lat="47.05268" lon="-1.21444">
        <ele>41.477</ele>
        <time>2015-09-11T13:32:36.161Z</time>
      </trkpt>
      <trkpt lat="47.05269" lon="-1.21443">
        <ele>41.497</ele>
        <time>2015-09-11T13:32:37.137Z</time>
      </trkpt>
      <trkpt lat="47.05277" lon="-1.21435">
        <ele>42.039</ele>
        <time>2015-09-11T13:32:43.156Z</time>
      </trkpt>
      <trkpt lat="47.05278" lon="-1.21434">
        <ele>42.071</ele>
        <time>2015-09-11T13:32:44.105Z</time>
      </trkpt>
      <trkpt lat="47.05284" lon="-1.21426">
        <ele>42.035</ele>
        <time>2015-09-11T13:32:49.155Z</time>
      </trkpt>
      <trkpt lat="47.05285" lon="-1.21425">
        <ele>42.046</ele>
        <time>2015-09-11T13:32:50.139Z</time>
      </trkpt>
      <trkpt lat="47.05292" lon="-1.21417">
        <ele>41.923</ele>
        <time>2015-09-11T13:32:55.313Z</time>
      </trkpt>
      <trkpt lat="47.05293" lon="-1.21416">
        <ele>41.999</ele>
        <time>2015-09-11T13:32:56.13Z</time>
      </trkpt>
      <trkpt lat="47.05298" lon="-1.21407">
        <ele>42.769</ele>
        <time>2015-09-11T13:33:00.397Z</time>
      </trkpt>
      <trkpt lat="47.05299" lon="-1.21405">
        <ele>43.035</ele>
        <time>2015-09-11T13:33:01.103Z</time>
      </trkpt>
      <trkpt lat="47.05303" lon="-1.21396">
        <ele>44.073</ele>
        <time>2015-09-11T13:33:05.16Z</time>
      </trkpt>
      <trkpt lat="47.05304" lon="-1.21393">
        <ele>44.365</ele>
        <time>2015-09-11T13:33:06.136Z</time>
      </trkpt>
      <trkpt lat="47.05307" lon="-1.21384">
        <ele>45.185</ele>
        <time>2015-09-11T13:33:10.312Z</time>
      </trkpt>
      <trkpt lat="47.05308" lon="-1.21381">
        <ele>45.315</ele>
        <time>2015-09-11T13:33:11.127Z</time>
      </trkpt>
      <trkpt lat="47.0531" lon="-1.21369">
        <ele>45.938</ele>
        <time>2015-09-11T13:33:15.389Z</time>
      </trkpt>
      <trkpt lat="47.0531" lon="-1.21366">
        <ele>46.103</ele>
        <time>2015-09-11T13:33:16.136Z</time>
      </trkpt>
      <trkpt lat="47.05311" lon="-1.21354">
        <ele>46.668</ele>
        <time>2015-09-11T13:33:20.178Z</time>
      </trkpt>
      <trkpt lat="47.05311" lon="-1.21352">
        <ele>46.812</ele>
        <time>2015-09-11T13:33:21.104Z</time>
      </trkpt>
      <trkpt lat="47.0531" lon="-1.21341">
        <ele>47.312</ele>
        <time>2015-09-11T13:33:25.17Z</time>
      </trkpt>
      <trkpt lat="47.05309" lon="-1.21338">
        <ele>47.424</ele>
        <time>2015-09-11T13:33:26.135Z</time>
      </trkpt>
      <trkpt lat="47.05308" lon="-1.21327">
        <ele>47.714</ele>
        <time>2015-09-11T13:33:30.149Z</time>
      </trkpt>
      <trkpt lat="47.05308" lon="-1.21324">
        <ele>47.747</ele>
        <time>2015-09-11T13:33:31.103Z</time>
      </trkpt>
      <trkpt lat="47.05307" lon="-1.21313">
        <ele>47.887</ele>
        <time>2015-09-11T13:33:35.36Z</time>
      </trkpt>
      <trkpt lat="47.05306" lon="-1.2131">
        <ele>47.952</ele>
        <time>2015-09-11T13:33:36.17Z</time>
      </trkpt>
      <trkpt lat="47.05305" lon="-1.21297">
        <ele>48.152</ele>
        <time>2015-09-11T13:33:41.372Z</time>
      </trkpt>
      <trkpt lat="47.05304" lon="-1.21295">
        <ele>48.166</ele>
        <time>2015-09-11T13:33:42.13Z</time>
      </trkpt>
      <trkpt lat="47.05303" lon="-1.21284">
        <ele>48.339</ele>
        <time>2015-09-11T13:33:46.152Z</time>
      </trkpt>
      <trkpt lat="47.05303" lon="-1.21282">
        <ele>48.411</ele>
        <time>2015-09-11T13:33:47.103Z</time>
      </trkpt>
      <trkpt lat="47.05301" lon="-1.21269">
        <ele>48.883</ele>
        <time>2015-09-11T13:33:51.376Z</time>
      </trkpt>
      <trkpt lat="47.05301" lon="-1.21267">
        <ele>48.995</ele>
        <time>2015-09-11T13:33:52.334Z</time>
      </trkpt>
      <trkpt lat="47.05301" lon="-1.21255">
        <ele>49.388</ele>
        <time>2015-09-11T13:33:57.572Z</time>
      </trkpt>
      <trkpt lat="47.05302" lon="-1.21253">
        <ele>49.315</ele>
        <time>2015-09-11T13:33:58.376Z</time>
      </trkpt>
      <trkpt lat="47.05305" lon="-1.21242">
        <ele>49.367</ele>
        <time>2015-09-11T13:34:03.554Z</time>
      </trkpt>
      <trkpt lat="47.05305" lon="-1.2124">
        <ele>49.464</ele>
        <time>2015-09-11T13:34:04.344Z</time>
      </trkpt>
      <trkpt lat="47.05304" lon="-1.21229">
        <ele>49.872</ele>
        <time>2015-09-11T13:34:08.383Z</time>
      </trkpt>
      <trkpt lat="47.05304" lon="-1.21226">
        <ele>49.974</ele>
        <time>2015-09-11T13:34:09.376Z</time>
      </trkpt>
      <trkpt lat="47.05305" lon="-1.21215">
        <ele>50.549</ele>
        <time>2015-09-11T13:34:12.535Z</time>
      </trkpt>
      <trkpt lat="47.05305" lon="-1.21211">
        <ele>50.788</ele>
        <time>2015-09-11T13:34:13.337Z</time>
      </trkpt>
      <trkpt lat="47.05306" lon="-1.212">
        <ele>51.629</ele>
        <time>2015-09-11T13:34:16.612Z</time>
      </trkpt>
      <trkpt lat="47.05307" lon="-1.21196">
        <ele>51.917</ele>
        <time>2015-09-11T13:34:17.367Z</time>
      </trkpt>
      <trkpt lat="47.05307" lon="-1.21187">
        <ele>52.269</ele>
        <time>2015-09-11T13:34:19.503Z</time>
      </trkpt>
      <trkpt lat="47.05307" lon="-1.21182">
        <ele>52.411</ele>
        <time>2015-09-11T13:34:20.343Z</time>
      </trkpt>
      <trkpt lat="47.05309" lon="-1.2117">
        <ele>52.758</ele>
        <time>2015-09-11T13:34:23.524Z</time>
      </trkpt>
      <trkpt lat="47.05309" lon="-1.21166">
        <ele>52.863</ele>
        <time>2015-09-11T13:34:24.385Z</time>
      </trkpt>
      <trkpt lat="47.05308" lon="-1.21154">
        <ele>52.949</ele>
        <time>2015-09-11T13:34:27.587Z</time>
      </trkpt>
      <trkpt lat="47.05307" lon="-1.21151">
        <ele>52.975</ele>
        <time>2015-09-11T13:34:28.362Z</time>
      </trkpt>
      <trkpt lat="47.05305" lon="-1.2114">
        <ele>53.036</ele>
        <time>2015-09-11T13:34:31.594Z</time>
      </trkpt>
      <trkpt lat="47.05304" lon="-1.21137">
        <ele>53.07</ele>
        <time>2015-09-11T13:34:32.357Z</time>
      </trkpt>
      <trkpt lat="47.05301" lon="-1.21127">
        <ele>53.168</ele>
        <time>2015-09-11T13:34:35.537Z</time>
      </trkpt>
      <trkpt lat="47.053" lon="-1.21123">
        <ele>53.186</ele>
        <time>2015-09-11T13:34:36.362Z</time>
      </trkpt>
      <trkpt lat="47.05307" lon="-1.21118">
        <ele>53</ele>
        <time>2015-09-11T13:34:41.533Z</time>
      </trkpt>
      <trkpt lat="47.0531" lon="-1.21119">
        <ele>53</ele>
        <time>2015-09-11T13:34:42.338Z</time>
      </trkpt>
      <trkpt lat="47.05316" lon="-1.21125">
        <ele>53</ele>
        <time>2015-09-11T13:34:45.533Z</time>
      </trkpt>
      <trkpt lat="47.0532" lon="-1.21128">
        <ele>53</ele>
        <time>2015-09-11T13:34:46.428Z</time>
      </trkpt>
      <trkpt lat="47.05328" lon="-1.21133">
        <ele>53</ele>
        <time>2015-09-11T13:34:48.402Z</time>
      </trkpt>
      <trkpt lat="47.05332" lon="-1.21135">
        <ele>53</ele>
        <time>2015-09-11T13:34:49.362Z</time>
      </trkpt>
      <trkpt lat="47.05339" lon="-1.21136">
        <ele>53</ele>
        <time>2015-09-11T13:34:50.385Z</time>
      </trkpt>
      <trkpt lat="47.05343" lon="-1.21134">
        <ele>53</ele>
        <time>2015-09-11T13:34:51.339Z</time>
      </trkpt>
      <trkpt lat="47.05345" lon="-1.21121">
        <ele>53</ele>
        <time>2015-09-11T13:34:54.56Z</time>
      </trkpt>
      <trkpt lat="47.05346" lon="-1.21117">
        <ele>53</ele>
        <time>2015-09-11T13:34:55.357Z</time>
      </trkpt>
      <trkpt lat="47.05348" lon="-1.21107">
        <ele>53.082</ele>
        <time>2015-09-11T13:34:57.386Z</time>
      </trkpt>
      <trkpt lat="47.0535" lon="-1.21103">
        <ele>53.17</ele>
        <time>2015-09-11T13:34:58.336Z</time>
      </trkpt>
      <trkpt lat="47.05354" lon="-1.21097">
        <ele>53.397</ele>
        <time>2015-09-11T13:35:00.548Z</time>
      </trkpt>
      <trkpt lat="47.05356" lon="-1.21093">
        <ele>53.529</ele>
        <time>2015-09-11T13:35:01.358Z</time>
      </trkpt>
      <trkpt lat="47.05363" lon="-1.21085">
        <ele>53.894</ele>
        <time>2015-09-11T13:35:04.563Z</time>
      </trkpt>
      <trkpt lat="47.05365" lon="-1.21081">
        <ele>53.922</ele>
        <time>2015-09-11T13:35:05.704Z</time>
      </trkpt>
      <trkpt lat="47.05369" lon="-1.21074">
        <ele>53.935</ele>
        <time>2015-09-11T13:35:07.385Z</time>
      </trkpt>
      <trkpt lat="47.05372" lon="-1.2107">
        <ele>53.909</ele>
        <time>2015-09-11T13:35:08.369Z</time>
      </trkpt>
      <trkpt lat="47.05376" lon="-1.21063">
        <ele>53.794</ele>
        <time>2015-09-11T13:35:10.672Z</time>
      </trkpt>
      <trkpt lat="47.05378" lon="-1.21059">
        <ele>53.71</ele>
        <time>2015-09-11T13:35:11.352Z</time>
      </trkpt>
      <trkpt lat="47.05383" lon="-1.21051">
        <ele>53.617</ele>
        <time>2015-09-11T13:35:13.382Z</time>
      </trkpt>
      <trkpt lat="47.05385" lon="-1.21047">
        <ele>53.606</ele>
        <time>2015-09-11T13:35:14.363Z</time>
      </trkpt>
      <trkpt lat="47.05389" lon="-1.21039">
        <ele>53.624</ele>
        <time>2015-09-11T13:35:16.385Z</time>
      </trkpt>
      <trkpt lat="47.0539" lon="-1.21035">
        <ele>53.714</ele>
        <time>2015-09-11T13:35:17.409Z</time>
      </trkpt>
      <trkpt lat="47.05392" lon="-1.21026">
        <ele>53.97</ele>
        <time>2015-09-11T13:35:19.386Z</time>
      </trkpt>
      <trkpt lat="47.05392" lon="-1.21021">
        <ele>54.128</ele>
        <time>2015-09-11T13:35:20.363Z</time>
      </trkpt>
      <trkpt lat="47.05391" lon="-1.21012">
        <ele>54.488</ele>
        <time>2015-09-11T13:35:22.388Z</time>
      </trkpt>
      <trkpt lat="47.05391" lon="-1.21007">
        <ele>54.672</ele>
        <time>2015-09-11T13:35:23.336Z</time>
      </trkpt>
      <trkpt lat="47.0539" lon="-1.20998">
        <ele>54.953</ele>
        <time>2015-09-11T13:35:25.384Z</time>
      </trkpt>
      <trkpt lat="47.0539" lon="-1.20993">
        <ele>54.973</ele>
        <time>2015-09-11T13:35:26.341Z</time>
      </trkpt>
      <trkpt lat="47.05389" lon="-1.20984">
        <ele>54.998</ele>
        <time>2015-09-11T13:35:28.528Z</time>
      </trkpt>
      <trkpt lat="47.05388" lon="-1.2098">
        <ele>55.05</ele>
        <time>2015-09-11T13:35:29.358Z</time>
      </trkpt>
      <trkpt lat="47.05386" lon="-1.20967">
        <ele>55.428</ele>
        <time>2015-09-11T13:35:32.523Z</time>
      </trkpt>
      <trkpt lat="47.05385" lon="-1.20963">
        <ele>55.623</ele>
        <time>2015-09-11T13:35:33.354Z</time>
      </trkpt>
      <trkpt lat="47.05382" lon="-1.20951">
        <ele>56.285</ele>
        <time>2015-09-11T13:35:36.394Z</time>
      </trkpt>
      <trkpt lat="47.05381" lon="-1.20947">
        <ele>56.512</ele>
        <time>2015-09-11T13:35:37.331Z</time>
      </trkpt>
      <trkpt lat="47.05378" lon="-1.20935">
        <ele>56.762</ele>
        <time>2015-09-11T13:35:40.372Z</time>
      </trkpt>
      <trkpt lat="47.05378" lon="-1.2093">
        <ele>56.806</ele>
        <time>2015-09-11T13:35:41.368Z</time>
      </trkpt>
      <trkpt lat="47.05375" lon="-1.20919">
        <ele>57.022</ele>
        <time>2015-09-11T13:35:45.024Z</time>
      </trkpt>
      <trkpt lat="47.05374" lon="-1.20915">
        <ele>57.135</ele>
        <time>2015-09-11T13:35:45.333Z</time>
      </trkpt>
      <trkpt lat="47.05369" lon="-1.20904">
        <ele>57.541</ele>
        <time>2015-09-11T13:35:48.523Z</time>
      </trkpt>
      <trkpt lat="47.05368" lon="-1.20901">
        <ele>57.653</ele>
        <time>2015-09-11T13:35:49.36Z</time>
      </trkpt>
      <trkpt lat="47.05363" lon="-1.20891">
        <ele>57.92</ele>
        <time>2015-09-11T13:35:52.384Z</time>
      </trkpt>
      <trkpt lat="47.05361" lon="-1.20887">
        <ele>57.99</ele>
        <time>2015-09-11T13:35:53.354Z</time>
      </trkpt>
      <trkpt lat="47.05356" lon="-1.20878">
        <ele>58.191</ele>
        <time>2015-09-11T13:35:56.587Z</time>
      </trkpt>
      <trkpt lat="47.05354" lon="-1.20875">
        <ele>58.256</ele>
        <time>2015-09-11T13:35:57.411Z</time>
      </trkpt>
      <trkpt lat="47.0535" lon="-1.20865">
        <ele>58.407</ele>
        <time>2015-09-11T13:36:00.76Z</time>
      </trkpt>
      <trkpt lat="47.05348" lon="-1.20861">
        <ele>58.462</ele>
        <time>2015-09-11T13:36:01.337Z</time>
      </trkpt>
      <trkpt lat="47.05344" lon="-1.2085">
        <ele>58.761</ele>
        <time>2015-09-11T13:36:04.533Z</time>
      </trkpt>
      <trkpt lat="47.05343" lon="-1.20846">
        <ele>58.836</ele>
        <time>2015-09-11T13:36:05.36Z</time>
      </trkpt>
      <trkpt lat="47.0534" lon="-1.20835">
        <ele>58.989</ele>
        <time>2015-09-11T13:36:08.596Z</time>
      </trkpt>
      <trkpt lat="47.05339" lon="-1.20831">
        <ele>58.924</ele>
        <time>2015-09-11T13:36:09.362Z</time>
      </trkpt>
      <trkpt lat="47.05338" lon="-1.20822">
        <ele>58.656</ele>
        <time>2015-09-11T13:36:11.383Z</time>
      </trkpt>
      <trkpt lat="47.05339" lon="-1.20817">
        <ele>58.526</ele>
        <time>2015-09-11T13:36:12.363Z</time>
      </trkpt>
      <trkpt lat="47.05339" lon="-1.20804">
        <ele>58.228</ele>
        <time>2015-09-11T13:36:15.618Z</time>
      </trkpt>
      <trkpt lat="47.0534" lon="-1.208">
        <ele>58.275</ele>
        <time>2015-09-11T13:36:16.358Z</time>
      </trkpt>
      <trkpt lat="47.05341" lon="-1.20787">
        <ele>58.47</ele>
        <time>2015-09-11T13:36:19.522Z</time>
      </trkpt>
      <trkpt lat="47.05342" lon="-1.20783">
        <ele>58.546</ele>
        <time>2015-09-11T13:36:20.792Z</time>
      </trkpt>
      <trkpt lat="47.05343" lon="-1.20772">
        <ele>58.951</ele>
        <time>2015-09-11T13:36:23.526Z</time>
      </trkpt>
      <trkpt lat="47.05344" lon="-1.20768">
        <ele>59.131</ele>
        <time>2015-09-11T13:36:24.369Z</time>
      </trkpt>
      <trkpt lat="47.05345" lon="-1.20757">
        <ele>59.635</ele>
        <time>2015-09-11T13:36:27.636Z</time>
      </trkpt>
      <trkpt lat="47.05346" lon="-1.20752">
        <ele>59.797</ele>
        <time>2015-09-11T13:36:28.359Z</time>
      </trkpt>
      <trkpt lat="47.05346" lon="-1.2074">
        <ele>60.11</ele>
        <time>2015-09-11T13:36:31.384Z</time>
      </trkpt>
      <trkpt lat="47.05346" lon="-1.20735">
        <ele>60.186</ele>
        <time>2015-09-11T13:36:32.366Z</time>
      </trkpt>
      <trkpt lat="47.05345" lon="-1.20726">
        <ele>60.345</ele>
        <time>2015-09-11T13:36:34.403Z</time>
      </trkpt>
      <trkpt lat="47.05345" lon="-1.20722">
        <ele>60.442</ele>
        <time>2015-09-11T13:36:35.336Z</time>
      </trkpt>
      <trkpt lat="47.05344" lon="-1.20712">
        <ele>60.748</ele>
        <time>2015-09-11T13:36:37.374Z</time>
      </trkpt>
      <trkpt lat="47.05344" lon="-1.20708">
        <ele>60.892</ele>
        <time>2015-09-11T13:36:38.336Z</time>
      </trkpt>
      <trkpt lat="47.05343" lon="-1.20697">
        <ele>61.224</ele>
        <time>2015-09-11T13:36:40.383Z</time>
      </trkpt>
      <trkpt lat="47.05343" lon="-1.20692">
        <ele>61.231</ele>
        <time>2015-09-11T13:36:41.347Z</time>
      </trkpt>
      <trkpt lat="47.05343" lon="-1.20681">
        <ele>60.832</ele>
        <time>2015-09-11T13:36:43.797Z</time>
      </trkpt>
      <trkpt lat="47.05342" lon="-1.20675">
        <ele>60.619</ele>
        <time>2015-09-11T13:36:44.335Z</time>
      </trkpt>
      <trkpt lat="47.05341" lon="-1.20664">
        <ele>60.191</ele>
        <time>2015-09-11T13:36:46.953Z</time>
      </trkpt>
      <trkpt lat="47.05341" lon="-1.20659">
        <ele>59.975</ele>
        <time>2015-09-11T13:36:47.363Z</time>
      </trkpt>
      <trkpt lat="47.0534" lon="-1.20646">
        <ele>59.471</ele>
        <time>2015-09-11T13:36:49.386Z</time>
      </trkpt>
      <trkpt lat="47.05339" lon="-1.20633">
        <ele>59.193</ele>
        <time>2015-09-11T13:36:50.396Z</time>
      </trkpt>
      <trkpt lat="47.05339" lon="-1.20624">
        <ele>59.197</ele>
        <time>2015-09-11T13:36:51.589Z</time>
      </trkpt>
      <trkpt lat="47.05339" lon="-1.20615">
        <ele>59.2</ele>
        <time>2015-09-11T13:36:52.363Z</time>
      </trkpt>
      <trkpt lat="47.05338" lon="-1.20607">
        <ele>59.264</ele>
        <time>2015-09-11T13:36:53.384Z</time>
      </trkpt>
      <trkpt lat="47.05335" lon="-1.20599">
        <ele>59.453</ele>
        <time>2015-09-11T13:36:54.337Z</time>
      </trkpt>
      <trkpt lat="47.05334" lon="-1.20589">
        <ele>59.798</ele>
        <time>2015-09-11T13:36:55.602Z</time>
      </trkpt>
      <trkpt lat="47.05333" lon="-1.2058">
        <ele>59.876</ele>
        <time>2015-09-11T13:36:56.365Z</time>
      </trkpt>
      <trkpt lat="47.05333" lon="-1.20572">
        <ele>59.581</ele>
        <time>2015-09-11T13:36:57.569Z</time>
      </trkpt>
      <trkpt lat="47.05333" lon="-1.20563">
        <ele>59.254</ele>
        <time>2015-09-11T13:36:58.338Z</time>
      </trkpt>
      <trkpt lat="47.05332" lon="-1.20555">
        <ele>58.976</ele>
        <time>2015-09-11T13:36:59.383Z</time>
      </trkpt>
      <trkpt lat="47.0533" lon="-1.20546">
        <ele>58.645</ele>
        <time>2015-09-11T13:37:00.334Z</time>
      </trkpt>
      <trkpt lat="47.05329" lon="-1.20536">
        <ele>58.296</ele>
        <time>2015-09-11T13:37:01.922Z</time>
      </trkpt>
      <trkpt lat="47.05329" lon="-1.20528">
        <ele>57.997</ele>
        <time>2015-09-11T13:37:02.333Z</time>
      </trkpt>
      <trkpt lat="47.05327" lon="-1.20519">
        <ele>57.698</ele>
        <time>2015-09-11T13:37:03.453Z</time>
      </trkpt>
      <trkpt lat="47.05327" lon="-1.20512">
        <ele>57.418</ele>
        <time>2015-09-11T13:37:04.333Z</time>
      </trkpt>
      <trkpt lat="47.05326" lon="-1.20503">
        <ele>57.119</ele>
        <time>2015-09-11T13:37:05.384Z</time>
      </trkpt>
      <trkpt lat="47.05324" lon="-1.20495">
        <ele>56.871</ele>
        <time>2015-09-11T13:37:06.333Z</time>
      </trkpt>
      <trkpt lat="47.05324" lon="-1.20486">
        <ele>56.684</ele>
        <time>2015-09-11T13:37:07.382Z</time>
      </trkpt>
      <trkpt lat="47.05322" lon="-1.20479">
        <ele>56.539</ele>
        <time>2015-09-11T13:37:08.334Z</time>
      </trkpt>
      <trkpt lat="47.05321" lon="-1.20469">
        <ele>56.448</ele>
        <time>2015-09-11T13:37:09.371Z</time>
      </trkpt>
      <trkpt lat="47.0532" lon="-1.20458">
        <ele>56.491</ele>
        <time>2015-09-11T13:37:10.334Z</time>
      </trkpt>
      <trkpt lat="47.05318" lon="-1.20447">
        <ele>56.548</ele>
        <time>2015-09-11T13:37:11.369Z</time>
      </trkpt>
      <trkpt lat="47.05317" lon="-1.20436">
        <ele>56.599</ele>
        <time>2015-09-11T13:37:12.338Z</time>
      </trkpt>
      <trkpt lat="47.05316" lon="-1.20425">
        <ele>56.638</ele>
        <time>2015-09-11T13:37:13.459Z</time>
      </trkpt>
      <trkpt lat="47.05314" lon="-1.20414">
        <ele>56.682</ele>
        <time>2015-09-11T13:37:14.359Z</time>
      </trkpt>
      <trkpt lat="47.05313" lon="-1.20405">
        <ele>56.736</ele>
        <time>2015-09-11T13:37:15.597Z</time>
      </trkpt>
      <trkpt lat="47.05312" lon="-1.20394">
        <ele>56.757</ele>
        <time>2015-09-11T13:37:16.397Z</time>
      </trkpt>
      <trkpt lat="47.05311" lon="-1.20385">
        <ele>56.768</ele>
        <time>2015-09-11T13:37:17.385Z</time>
      </trkpt>
      <trkpt lat="47.0531" lon="-1.20376">
        <ele>56.767</ele>
        <time>2015-09-11T13:37:18.336Z</time>
      </trkpt>
      <trkpt lat="47.05308" lon="-1.20367">
        <ele>56.837</ele>
        <time>2015-09-11T13:37:19.44Z</time>
      </trkpt>
      <trkpt lat="47.05306" lon="-1.20359">
        <ele>56.969</ele>
        <time>2015-09-11T13:37:20.365Z</time>
      </trkpt>
      <trkpt lat="47.05305" lon="-1.20352">
        <ele>57.039</ele>
        <time>2015-09-11T13:37:21.376Z</time>
      </trkpt>
      <trkpt lat="47.05305" lon="-1.20343">
        <ele>57.032</ele>
        <time>2015-09-11T13:37:22.338Z</time>
      </trkpt>
      <trkpt lat="47.05305" lon="-1.20335">
        <ele>57.041</ele>
        <time>2015-09-11T13:37:23.562Z</time>
      </trkpt>
      <trkpt lat="47.05303" lon="-1.20328">
        <ele>57.285</ele>
        <time>2015-09-11T13:37:24.336Z</time>
      </trkpt>
      <trkpt lat="47.05303" lon="-1.2032">
        <ele>57.543</ele>
        <time>2015-09-11T13:37:25.372Z</time>
      </trkpt>
      <trkpt lat="47.05302" lon="-1.20313">
        <ele>57.766</ele>
        <time>2015-09-11T13:37:26.333Z</time>
      </trkpt>
      <trkpt lat="47.05301" lon="-1.20306">
        <ele>57.99</ele>
        <time>2015-09-11T13:37:27.38Z</time>
      </trkpt>
      <trkpt lat="47.053" lon="-1.20298">
        <ele>58</ele>
        <time>2015-09-11T13:37:28.333Z</time>
      </trkpt>
      <trkpt lat="47.053" lon="-1.20291">
        <ele>58</ele>
        <time>2015-09-11T13:37:29.381Z</time>
      </trkpt>
      <trkpt lat="47.05299" lon="-1.20284">
        <ele>58</ele>
        <time>2015-09-11T13:37:30.363Z</time>
      </trkpt>
      <trkpt lat="47.05298" lon="-1.20278">
        <ele>57.997</ele>
        <time>2015-09-11T13:37:31.38Z</time>
      </trkpt>
      <trkpt lat="47.05297" lon="-1.2027">
        <ele>57.918</ele>
        <time>2015-09-11T13:37:32.339Z</time>
      </trkpt>
      <trkpt lat="47.05296" lon="-1.20264">
        <ele>57.837</ele>
        <time>2015-09-11T13:37:33.422Z</time>
      </trkpt>
      <trkpt lat="47.05295" lon="-1.20257">
        <ele>57.719</ele>
        <time>2015-09-11T13:37:34.384Z</time>
      </trkpt>
      <trkpt lat="47.05294" lon="-1.2025">
        <ele>57.595</ele>
        <time>2015-09-11T13:37:35.544Z</time>
      </trkpt>
      <trkpt lat="47.05293" lon="-1.20243">
        <ele>57.682</ele>
        <time>2015-09-11T13:37:36.363Z</time>
      </trkpt>
      <trkpt lat="47.05292" lon="-1.20236">
        <ele>57.761</ele>
        <time>2015-09-11T13:37:37.405Z</time>
      </trkpt>
      <trkpt lat="47.05291" lon="-1.2023">
        <ele>57.816</ele>
        <time>2015-09-11T13:37:38.336Z</time>
      </trkpt>
      <trkpt lat="47.0529" lon="-1.20224">
        <ele>57.871</ele>
        <time>2015-09-11T13:37:39.521Z</time>
      </trkpt>
      <trkpt lat="47.05289" lon="-1.20216">
        <ele>57.954</ele>
        <time>2015-09-11T13:37:40.366Z</time>
      </trkpt>
      <trkpt lat="47.05289" lon="-1.20209">
        <ele>58.084</ele>
        <time>2015-09-11T13:37:41.521Z</time>
      </trkpt>
      <trkpt lat="47.05288" lon="-1.20202">
        <ele>58.212</ele>
        <time>2015-09-11T13:37:42.358Z</time>
      </trkpt>
      <trkpt lat="47.05286" lon="-1.20189">
        <ele>58.492</ele>
        <time>2015-09-11T13:37:44.383Z</time>
      </trkpt>
      <trkpt lat="47.05286" lon="-1.20183">
        <ele>58.715</ele>
        <time>2015-09-11T13:37:45.361Z</time>
      </trkpt>
      <trkpt lat="47.05284" lon="-1.20176">
        <ele>58.884</ele>
        <time>2015-09-11T13:37:46.384Z</time>
      </trkpt>
      <trkpt lat="47.05283" lon="-1.20167">
        <ele>59.165</ele>
        <time>2015-09-11T13:37:47.337Z</time>
      </trkpt>
      <trkpt lat="47.05283" lon="-1.20161">
        <ele>59.417</ele>
        <time>2015-09-11T13:37:48.532Z</time>
      </trkpt>
      <trkpt lat="47.05282" lon="-1.20154">
        <ele>59.659</ele>
        <time>2015-09-11T13:37:49.387Z</time>
      </trkpt>
      <trkpt lat="47.05282" lon="-1.20146">
        <ele>60.024</ele>
        <time>2015-09-11T13:37:50.377Z</time>
      </trkpt>
      <trkpt lat="47.05281" lon="-1.20139">
        <ele>60.238</ele>
        <time>2015-09-11T13:37:51.336Z</time>
      </trkpt>
      <trkpt lat="47.05281" lon="-1.20132">
        <ele>60.484</ele>
        <time>2015-09-11T13:37:52.378Z</time>
      </trkpt>
      <trkpt lat="47.0528" lon="-1.20124">
        <ele>60.71</ele>
        <time>2015-09-11T13:37:53.335Z</time>
      </trkpt>
      <trkpt lat="47.05279" lon="-1.20112">
        <ele>61.063</ele>
        <time>2015-09-11T13:37:55.559Z</time>
      </trkpt>
      <trkpt lat="47.05278" lon="-1.20104">
        <ele>61.03</ele>
        <time>2015-09-11T13:37:56.436Z</time>
      </trkpt>
      <trkpt lat="47.05276" lon="-1.20093">
        <ele>60.901</ele>
        <time>2015-09-11T13:37:58.387Z</time>
      </trkpt>
      <trkpt lat="47.05277" lon="-1.20086">
        <ele>60.915</ele>
        <time>2015-09-11T13:37:59.368Z</time>
      </trkpt>
      <trkpt lat="47.05275" lon="-1.20073">
        <ele>60.824</ele>
        <time>2015-09-11T13:38:01.385Z</time>
      </trkpt>
      <trkpt lat="47.05274" lon="-1.20068">
        <ele>60.798</ele>
        <time>2015-09-11T13:38:02.362Z</time>
      </trkpt>
      <trkpt lat="47.05273" lon="-1.20061">
        <ele>60.805</ele>
        <time>2015-09-11T13:38:03.385Z</time>
      </trkpt>
      <trkpt lat="47.05272" lon="-1.20055">
        <ele>60.837</ele>
        <time>2015-09-11T13:38:04.343Z</time>
      </trkpt>
      <trkpt lat="47.05271" lon="-1.20043">
        <ele>61.208</ele>
        <time>2015-09-11T13:38:06.666Z</time>
      </trkpt>
      <trkpt lat="47.05269" lon="-1.20038">
        <ele>61.345</ele>
        <time>2015-09-11T13:38:07.357Z</time>
      </trkpt>
      <trkpt lat="47.05268" lon="-1.20025">
        <ele>61.7</ele>
        <time>2015-09-11T13:38:09.379Z</time>
      </trkpt>
      <trkpt lat="47.05269" lon="-1.20019">
        <ele>61.773</ele>
        <time>2015-09-11T13:38:10.361Z</time>
      </trkpt>
      <trkpt lat="47.05269" lon="-1.20007">
        <ele>61.919</ele>
        <time>2015-09-11T13:38:12.378Z</time>
      </trkpt>
      <trkpt lat="47.0527" lon="-1.20003">
        <ele>61.974</ele>
        <time>2015-09-11T13:38:13.371Z</time>
      </trkpt>
      <trkpt lat="47.05275" lon="-1.19993">
        <ele>62.027</ele>
        <time>2015-09-11T13:38:15.49Z</time>
      </trkpt>
      <trkpt lat="47.05277" lon="-1.19989">
        <ele>62.008</ele>
        <time>2015-09-11T13:38:16.357Z</time>
      </trkpt>
      <trkpt lat="47.05282" lon="-1.19985">
        <ele>62</ele>
        <time>2015-09-11T13:38:17.515Z</time>
      </trkpt>
      <trkpt lat="47.05285" lon="-1.19982">
        <ele>62</ele>
        <time>2015-09-11T13:38:18.434Z</time>
      </trkpt>
      <trkpt lat="47.05289" lon="-1.19977">
        <ele>62</ele>
        <time>2015-09-11T13:38:19.38Z</time>
      </trkpt>
      <trkpt lat="47.05293" lon="-1.19972">
        <ele>62</ele>
        <time>2015-09-11T13:38:20.343Z</time>
      </trkpt>
      <trkpt lat="47.053" lon="-1.19964">
        <ele>62.065</ele>
        <time>2015-09-11T13:38:22.54Z</time>
      </trkpt>
      <trkpt lat="47.05303" lon="-1.19959">
        <ele>62.051</ele>
        <time>2015-09-11T13:38:23.368Z</time>
      </trkpt>
      <trkpt lat="47.05306" lon="-1.19955">
        <ele>62.012</ele>
        <time>2015-09-11T13:38:24.593Z</time>
      </trkpt>
      <trkpt lat="47.0531" lon="-1.19951">
        <ele>62.125</ele>
        <time>2015-09-11T13:38:25.375Z</time>
      </trkpt>
      <trkpt lat="47.05317" lon="-1.19943">
        <ele>62.398</ele>
        <time>2015-09-11T13:38:27.517Z</time>
      </trkpt>
      <trkpt lat="47.0532" lon="-1.19939">
        <ele>62.506</ele>
        <time>2015-09-11T13:38:28.361Z</time>
      </trkpt>
      <trkpt lat="47.05324" lon="-1.19935">
        <ele>62.653</ele>
        <time>2015-09-11T13:38:29.535Z</time>
      </trkpt>
      <trkpt lat="47.05327" lon="-1.1993">
        <ele>62.779</ele>
        <time>2015-09-11T13:38:30.36Z</time>
      </trkpt>
      <trkpt lat="47.05331" lon="-1.19925">
        <ele>62.92</ele>
        <time>2015-09-11T13:38:31.521Z</time>
      </trkpt>
      <trkpt lat="47.05335" lon="-1.19921">
        <ele>63.053</ele>
        <time>2015-09-11T13:38:32.342Z</time>
      </trkpt>
      <trkpt lat="47.05341" lon="-1.19914">
        <ele>63.254</ele>
        <time>2015-09-11T13:38:34.58Z</time>
      </trkpt>
      <trkpt lat="47.05344" lon="-1.1991">
        <ele>63.304</ele>
        <time>2015-09-11T13:38:35.337Z</time>
      </trkpt>
      <trkpt lat="47.05351" lon="-1.19903">
        <ele>63.32</ele>
        <time>2015-09-11T13:38:37.544Z</time>
      </trkpt>
      <trkpt lat="47.05354" lon="-1.199">
        <ele>63.302</ele>
        <time>2015-09-11T13:38:38.335Z</time>
      </trkpt>
      <trkpt lat="47.05358" lon="-1.19898">
        <ele>63.298</ele>
        <time>2015-09-11T13:38:39.4Z</time>
      </trkpt>
      <trkpt lat="47.05363" lon="-1.19896">
        <ele>63.281</ele>
        <time>2015-09-11T13:38:40.369Z</time>
      </trkpt>
      <trkpt lat="47.05372" lon="-1.19894">
        <ele>63.433</ele>
        <time>2015-09-11T13:38:42.428Z</time>
      </trkpt>
      <trkpt lat="47.05377" lon="-1.19893">
        <ele>63.547</ele>
        <time>2015-09-11T13:38:43.351Z</time>
      </trkpt>
      <trkpt lat="47.05385" lon="-1.19894">
        <ele>63.732</ele>
        <time>2015-09-11T13:38:45.366Z</time>
      </trkpt>
      <trkpt lat="47.05387" lon="-1.19898">
        <ele>63.637</ele>
        <time>2015-09-11T13:38:46.331Z</time>
      </trkpt>
      <trkpt lat="47.05392" lon="-1.19901">
        <ele>63.507</ele>
        <time>2015-09-11T13:38:47.38Z</time>
      </trkpt>
      <trkpt lat="47.05396" lon="-1.19904">
        <ele>63.344</ele>
        <time>2015-09-11T13:38:48.347Z</time>
      </trkpt>
      <trkpt lat="47.05403" lon="-1.19912">
        <ele>63.078</ele>
        <time>2015-09-11T13:38:50.386Z</time>
      </trkpt>
      <trkpt lat="47.05405" lon="-1.19917">
        <ele>63.016</ele>
        <time>2015-09-11T13:38:51.356Z</time>
      </trkpt>
      <trkpt lat="47.05411" lon="-1.19925">
        <ele>63.311</ele>
        <time>2015-09-11T13:38:53.554Z</time>
      </trkpt>
      <trkpt lat="47.05413" lon="-1.1993">
        <ele>63.473</ele>
        <time>2015-09-11T13:38:54.367Z</time>
      </trkpt>
      <trkpt lat="47.05417" lon="-1.19934">
        <ele>63.638</ele>
        <time>2015-09-11T13:38:55.638Z</time>
      </trkpt>
      <trkpt lat="47.0542" lon="-1.19939">
        <ele>63.815</ele>
        <time>2015-09-11T13:38:56.358Z</time>
      </trkpt>
      <trkpt lat="47.05424" lon="-1.19944">
        <ele>63.995</ele>
        <time>2015-09-11T13:38:57.377Z</time>
      </trkpt>
      <trkpt lat="47.05427" lon="-1.19951">
        <ele>64.085</ele>
        <time>2015-09-11T13:38:58.338Z</time>
      </trkpt>
      <trkpt lat="47.05431" lon="-1.19957">
        <ele>64.24</ele>
        <time>2015-09-11T13:39:00.621Z</time>
      </trkpt>
      <trkpt lat="47.05434" lon="-1.19964">
        <ele>64.435</ele>
        <time>2015-09-11T13:39:01.367Z</time>
      </trkpt>
      <trkpt lat="47.05437" lon="-1.19969">
        <ele>64.642</ele>
        <time>2015-09-11T13:39:02.381Z</time>
      </trkpt>
      <trkpt lat="47.05439" lon="-1.19977">
        <ele>64.808</ele>
        <time>2015-09-11T13:39:03.338Z</time>
      </trkpt>
      <trkpt lat="47.05442" lon="-1.19985">
        <ele>64.905</ele>
        <time>2015-09-11T13:39:04.534Z</time>
      </trkpt>
      <trkpt lat="47.05444" lon="-1.19993">
        <ele>64.991</ele>
        <time>2015-09-11T13:39:05.361Z</time>
      </trkpt>
      <trkpt lat="47.05447" lon="-1.20002">
        <ele>64.932</ele>
        <time>2015-09-11T13:39:06.516Z</time>
      </trkpt>
      <trkpt lat="47.05449" lon="-1.20011">
        <ele>64.608</ele>
        <time>2015-09-11T13:39:07.358Z</time>
      </trkpt>
      <trkpt lat="47.05452" lon="-1.20021">
        <ele>64.255</ele>
        <time>2015-09-11T13:39:08.383Z</time>
      </trkpt>
      <trkpt lat="47.05456" lon="-1.20031">
        <ele>63.804</ele>
        <time>2015-09-11T13:39:09.336Z</time>
      </trkpt>
      <trkpt lat="47.05456" lon="-1.20031">
        <ele>63.804</ele>
        <time>2015-09-11T13:39:09.454Z</time>
      </trkpt>
      <trkpt lat="47.05462" lon="-1.20042">
        <ele>62.998</ele>
        <time>2015-09-11T13:39:10.363Z</time>
      </trkpt>
      <trkpt lat="47.05462" lon="-1.20042">
        <ele>62.998</ele>
        <time>2015-09-11T13:39:10.716Z</time>
      </trkpt>
      <trkpt lat="47.05469" lon="-1.20053">
        <ele>62.213</ele>
        <time>2015-09-11T13:39:11.385Z</time>
      </trkpt>
      <trkpt lat="47.05469" lon="-1.20053">
        <ele>62.213</ele>
        <time>2015-09-11T13:39:11.679Z</time>
      </trkpt>
      <trkpt lat="47.05477" lon="-1.20062">
        <ele>61.772</ele>
        <time>2015-09-11T13:39:12.362Z</time>
      </trkpt>
      <trkpt lat="47.05477" lon="-1.20062">
        <ele>61.772</ele>
        <time>2015-09-11T13:39:12.68Z</time>
      </trkpt>
      <trkpt lat="47.05489" lon="-1.2007">
        <ele>61.48</ele>
        <time>2015-09-11T13:39:13.365Z</time>
      </trkpt>
      <trkpt lat="47.05489" lon="-1.2007">
        <ele>61.48</ele>
        <time>2015-09-11T13:39:13.692Z</time>
      </trkpt>
      <trkpt lat="47.055" lon="-1.20076">
        <ele>61.26</ele>
        <time>2015-09-11T13:39:14.365Z</time>
      </trkpt>
      <trkpt lat="47.055" lon="-1.20076">
        <ele>61.26</ele>
        <time>2015-09-11T13:39:14.695Z</time>
      </trkpt>
      <trkpt lat="47.05511" lon="-1.20082">
        <ele>61.033</ele>
        <time>2015-09-11T13:39:15.371Z</time>
      </trkpt>
      <trkpt lat="47.05511" lon="-1.20082">
        <ele>61.033</ele>
        <time>2015-09-11T13:39:15.704Z</time>
      </trkpt>
      <trkpt lat="47.05523" lon="-1.20087">
        <ele>61.097</ele>
        <time>2015-09-11T13:39:16.359Z</time>
      </trkpt>
      <trkpt lat="47.05523" lon="-1.20087">
        <ele>61.097</ele>
        <time>2015-09-11T13:39:16.706Z</time>
      </trkpt>
      <trkpt lat="47.05533" lon="-1.20093">
        <ele>61.621</ele>
        <time>2015-09-11T13:39:17.364Z</time>
      </trkpt>
      <trkpt lat="47.05533" lon="-1.20093">
        <ele>61.621</ele>
        <time>2015-09-11T13:39:17.662Z</time>
      </trkpt>
      <trkpt lat="47.05543" lon="-1.20099">
        <ele>62.438</ele>
        <time>2015-09-11T13:39:18.336Z</time>
      </trkpt>
      <trkpt lat="47.05543" lon="-1.20099">
        <ele>62.438</ele>
        <time>2015-09-11T13:39:18.423Z</time>
      </trkpt>
      <trkpt lat="47.05552" lon="-1.20107">
        <ele>63.414</ele>
        <time>2015-09-11T13:39:19.338Z</time>
      </trkpt>
      <trkpt lat="47.05552" lon="-1.20107">
        <ele>63.414</ele>
        <time>2015-09-11T13:39:19.425Z</time>
      </trkpt>
      <trkpt lat="47.05558" lon="-1.20116">
        <ele>64.338</ele>
        <time>2015-09-11T13:39:20.351Z</time>
      </trkpt>
      <trkpt lat="47.05558" lon="-1.20116">
        <ele>64.338</ele>
        <time>2015-09-11T13:39:20.745Z</time>
      </trkpt>
      <trkpt lat="47.05564" lon="-1.20126">
        <ele>65.13</ele>
        <time>2015-09-11T13:39:21.336Z</time>
      </trkpt>
      <trkpt lat="47.05569" lon="-1.20135">
        <ele>65.832</ele>
        <time>2015-09-11T13:39:22.38Z</time>
      </trkpt>
      <trkpt lat="47.05572" lon="-1.20142">
        <ele>66.308</ele>
        <time>2015-09-11T13:39:23.359Z</time>
      </trkpt>
      <trkpt lat="47.05576" lon="-1.20149">
        <ele>66.918</ele>
        <time>2015-09-11T13:39:24.624Z</time>
      </trkpt>
      <trkpt lat="47.05579" lon="-1.20155">
        <ele>67.386</ele>
        <time>2015-09-11T13:39:25.36Z</time>
      </trkpt>
      <trkpt lat="47.05586" lon="-1.20164">
        <ele>67.913</ele>
        <time>2015-09-11T13:39:27.394Z</time>
      </trkpt>
      <trkpt lat="47.05588" lon="-1.20168">
        <ele>68.048</ele>
        <time>2015-09-11T13:39:28.771Z</time>
      </trkpt>
      <trkpt lat="47.05595" lon="-1.20177">
        <ele>68.219</ele>
        <time>2015-09-11T13:39:31.686Z</time>
      </trkpt>
      <trkpt lat="47.05596" lon="-1.2018">
        <ele>68.26</ele>
        <time>2015-09-11T13:39:32.354Z</time>
      </trkpt>
      <trkpt lat="47.056" lon="-1.20189">
        <ele>68.329</ele>
        <time>2015-09-11T13:39:34.532Z</time>
      </trkpt>
      <trkpt lat="47.05602" lon="-1.20194">
        <ele>68.324</ele>
        <time>2015-09-11T13:39:35.334Z</time>
      </trkpt>
      <trkpt lat="47.05606" lon="-1.20203">
        <ele>68.18</ele>
        <time>2015-09-11T13:39:37.514Z</time>
      </trkpt>
      <trkpt lat="47.05608" lon="-1.20208">
        <ele>68.108</ele>
        <time>2015-09-11T13:39:38.366Z</time>
      </trkpt>
      <trkpt lat="47.05612" lon="-1.20219">
        <ele>67.964</ele>
        <time>2015-09-11T13:39:40.5Z</time>
      </trkpt>
      <trkpt lat="47.05614" lon="-1.20224">
        <ele>67.896</ele>
        <time>2015-09-11T13:39:41.338Z</time>
      </trkpt>
      <trkpt lat="47.05618" lon="-1.20235">
        <ele>67.741</ele>
        <time>2015-09-11T13:39:43.506Z</time>
      </trkpt>
      <trkpt lat="47.05621" lon="-1.2024">
        <ele>67.662</ele>
        <time>2015-09-11T13:39:44.356Z</time>
      </trkpt>
      <trkpt lat="47.05623" lon="-1.20249">
        <ele>67.565</ele>
        <time>2015-09-11T13:39:45.581Z</time>
      </trkpt>
      <trkpt lat="47.05626" lon="-1.20257">
        <ele>67.605</ele>
        <time>2015-09-11T13:39:46.37Z</time>
      </trkpt>
      <trkpt lat="47.05628" lon="-1.20266">
        <ele>67.753</ele>
        <time>2015-09-11T13:39:47.623Z</time>
      </trkpt>
      <trkpt lat="47.05631" lon="-1.20274">
        <ele>67.9</ele>
        <time>2015-09-11T13:39:48.358Z</time>
      </trkpt>
      <trkpt lat="47.05633" lon="-1.20282">
        <ele>67.971</ele>
        <time>2015-09-11T13:39:49.943Z</time>
      </trkpt>
      <trkpt lat="47.05634" lon="-1.20291">
        <ele>67.92</ele>
        <time>2015-09-11T13:39:50.334Z</time>
      </trkpt>
      <trkpt lat="47.05636" lon="-1.20299">
        <ele>67.927</ele>
        <time>2015-09-11T13:39:51.396Z</time>
      </trkpt>
      <trkpt lat="47.05638" lon="-1.20307">
        <ele>67.948</ele>
        <time>2015-09-11T13:39:52.336Z</time>
      </trkpt>
      <trkpt lat="47.05638" lon="-1.20316">
        <ele>67.976</ele>
        <time>2015-09-11T13:39:53.382Z</time>
      </trkpt>
      <trkpt lat="47.0564" lon="-1.20326">
        <ele>68</ele>
        <time>2015-09-11T13:39:54.335Z</time>
      </trkpt>
      <trkpt lat="47.05642" lon="-1.20335">
        <ele>67.935</ele>
        <time>2015-09-11T13:39:55.517Z</time>
      </trkpt>
      <trkpt lat="47.05643" lon="-1.20345">
        <ele>67.66</ele>
        <time>2015-09-11T13:39:56.371Z</time>
      </trkpt>
      <trkpt lat="47.05645" lon="-1.20352">
        <ele>67.455</ele>
        <time>2015-09-11T13:39:57.503Z</time>
      </trkpt>
      <trkpt lat="47.05646" lon="-1.20361">
        <ele>67.265</ele>
        <time>2015-09-11T13:39:58.359Z</time>
      </trkpt>
      <trkpt lat="47.05648" lon="-1.20369">
        <ele>67.314</ele>
        <time>2015-09-11T13:39:59.527Z</time>
      </trkpt>
      <trkpt lat="47.05649" lon="-1.20377">
        <ele>67.364</ele>
        <time>2015-09-11T13:40:00.343Z</time>
      </trkpt>
      <trkpt lat="47.0565" lon="-1.20386">
        <ele>67.4</ele>
        <time>2015-09-11T13:40:01.366Z</time>
      </trkpt>
      <trkpt lat="47.05651" lon="-1.20394">
        <ele>67.447</ele>
        <time>2015-09-11T13:40:02.355Z</time>
      </trkpt>
      <trkpt lat="47.05653" lon="-1.20401">
        <ele>67.508</ele>
        <time>2015-09-11T13:40:03.396Z</time>
      </trkpt>
      <trkpt lat="47.05655" lon="-1.20408">
        <ele>67.566</ele>
        <time>2015-09-11T13:40:04.338Z</time>
      </trkpt>
      <trkpt lat="47.05656" lon="-1.20414">
        <ele>67.602</ele>
        <time>2015-09-11T13:40:05.373Z</time>
      </trkpt>
      <trkpt lat="47.05657" lon="-1.20421">
        <ele>67.582</ele>
        <time>2015-09-11T13:40:06.337Z</time>
      </trkpt>
      <trkpt lat="47.05659" lon="-1.20433">
        <ele>67.559</ele>
        <time>2015-09-11T13:40:08.592Z</time>
      </trkpt>
      <trkpt lat="47.0566" lon="-1.20439">
        <ele>67.583</ele>
        <time>2015-09-11T13:40:09.356Z</time>
      </trkpt>
      <trkpt lat="47.05664" lon="-1.20451">
        <ele>67.801</ele>
        <time>2015-09-11T13:40:11.561Z</time>
      </trkpt>
      <trkpt lat="47.05666" lon="-1.20458">
        <ele>67.959</ele>
        <time>2015-09-11T13:40:12.362Z</time>
      </trkpt>
      <trkpt lat="47.05669" lon="-1.2047">
        <ele>68</ele>
        <time>2015-09-11T13:40:14.536Z</time>
      </trkpt>
      <trkpt lat="47.05671" lon="-1.20478">
        <ele>68</ele>
        <time>2015-09-11T13:40:15.369Z</time>
      </trkpt>
      <trkpt lat="47.05671" lon="-1.20485">
        <ele>68</ele>
        <time>2015-09-11T13:40:16.378Z</time>
      </trkpt>
      <trkpt lat="47.05675" lon="-1.20492">
        <ele>68</ele>
        <time>2015-09-11T13:40:17.34Z</time>
      </trkpt>
      <trkpt lat="47.05679" lon="-1.20498">
        <ele>68</ele>
        <time>2015-09-11T13:40:18.512Z</time>
      </trkpt>
      <trkpt lat="47.05682" lon="-1.20505">
        <ele>67.816</ele>
        <time>2015-09-11T13:40:19.392Z</time>
      </trkpt>
      <trkpt lat="47.05685" lon="-1.20513">
        <ele>67.528</ele>
        <time>2015-09-11T13:40:20.378Z</time>
      </trkpt>
      <trkpt lat="47.05688" lon="-1.20521">
        <ele>67.244</ele>
        <time>2015-09-11T13:40:21.342Z</time>
      </trkpt>
      <trkpt lat="47.05691" lon="-1.20528">
        <ele>66.968</ele>
        <time>2015-09-11T13:40:22.516Z</time>
      </trkpt>
      <trkpt lat="47.05695" lon="-1.20536">
        <ele>66.405</ele>
        <time>2015-09-11T13:40:23.357Z</time>
      </trkpt>
      <trkpt lat="47.05698" lon="-1.20544">
        <ele>65.624</ele>
        <time>2015-09-11T13:40:24.646Z</time>
      </trkpt>
      <trkpt lat="47.05701" lon="-1.20552">
        <ele>64.998</ele>
        <time>2015-09-11T13:40:25.361Z</time>
      </trkpt>
      <trkpt lat="47.05705" lon="-1.20561">
        <ele>64.384</ele>
        <time>2015-09-11T13:40:26.531Z</time>
      </trkpt>
      <trkpt lat="47.05709" lon="-1.20571">
        <ele>63.946</ele>
        <time>2015-09-11T13:40:27.417Z</time>
      </trkpt>
      <trkpt lat="47.05714" lon="-1.2058">
        <ele>63.761</ele>
        <time>2015-09-11T13:40:28.566Z</time>
      </trkpt>
      <trkpt lat="47.05718" lon="-1.20587">
        <ele>63.723</ele>
        <time>2015-09-11T13:40:29.359Z</time>
      </trkpt>
      <trkpt lat="47.05722" lon="-1.20592">
        <ele>63.666</ele>
        <time>2015-09-11T13:40:30.533Z</time>
      </trkpt>
      <trkpt lat="47.05726" lon="-1.20597">
        <ele>63.589</ele>
        <time>2015-09-11T13:40:31.37Z</time>
      </trkpt>
      <trkpt lat="47.05731" lon="-1.20605">
        <ele>63.463</ele>
        <time>2015-09-11T13:40:33.096Z</time>
      </trkpt>
      <trkpt lat="47.05734" lon="-1.20613">
        <ele>63.393</ele>
        <time>2015-09-11T13:40:33.332Z</time>
      </trkpt>
      <trkpt lat="47.05738" lon="-1.20619">
        <ele>63.417</ele>
        <time>2015-09-11T13:40:34.368Z</time>
      </trkpt>
      <trkpt lat="47.05742" lon="-1.20628">
        <ele>63.272</ele>
        <time>2015-09-11T13:40:35.339Z</time>
      </trkpt>
      <trkpt lat="47.05746" lon="-1.20638">
        <ele>63.021</ele>
        <time>2015-09-11T13:40:36.372Z</time>
      </trkpt>
      <trkpt lat="47.05748" lon="-1.20647">
        <ele>62.976</ele>
        <time>2015-09-11T13:40:37.332Z</time>
      </trkpt>
      <trkpt lat="47.0575" lon="-1.20656">
        <ele>63</ele>
        <time>2015-09-11T13:40:38.368Z</time>
      </trkpt>
      <trkpt lat="47.05752" lon="-1.20666">
        <ele>63</ele>
        <time>2015-09-11T13:40:39.336Z</time>
      </trkpt>
      <trkpt lat="47.05754" lon="-1.20674">
        <ele>62.788</ele>
        <time>2015-09-11T13:40:41.192Z</time>
      </trkpt>
      <trkpt lat="47.05756" lon="-1.20681">
        <ele>62.585</ele>
        <time>2015-09-11T13:40:41.334Z</time>
      </trkpt>
      <trkpt lat="47.05762" lon="-1.20687">
        <ele>62.577</ele>
        <time>2015-09-11T13:40:42.38Z</time>
      </trkpt>
      <trkpt lat="47.05765" lon="-1.20691">
        <ele>62.607</ele>
        <time>2015-09-11T13:40:43.354Z</time>
      </trkpt>
      <trkpt lat="47.05769" lon="-1.20696">
        <ele>62.68</ele>
        <time>2015-09-11T13:40:44.54Z</time>
      </trkpt>
      <trkpt lat="47.05772" lon="-1.20703">
        <ele>62.796</ele>
        <time>2015-09-11T13:40:45.413Z</time>
      </trkpt>
      <trkpt lat="47.05777" lon="-1.20707">
        <ele>62.965</ele>
        <time>2015-09-11T13:40:46.57Z</time>
      </trkpt>
      <trkpt lat="47.0578" lon="-1.20711">
        <ele>63.084</ele>
        <time>2015-09-11T13:40:47.37Z</time>
      </trkpt>
      <trkpt lat="47.05784" lon="-1.20716">
        <ele>63.238</ele>
        <time>2015-09-11T13:40:48.387Z</time>
      </trkpt>
      <trkpt lat="47.05788" lon="-1.20723">
        <ele>63.355</ele>
        <time>2015-09-11T13:40:49.342Z</time>
      </trkpt>
      <trkpt lat="47.05792" lon="-1.20729">
        <ele>63.374</ele>
        <time>2015-09-11T13:40:50.588Z</time>
      </trkpt>
      <trkpt lat="47.05794" lon="-1.20736">
        <ele>63.363</ele>
        <time>2015-09-11T13:40:51.371Z</time>
      </trkpt>
      <trkpt lat="47.05797" lon="-1.20742">
        <ele>63.451</ele>
        <time>2015-09-11T13:40:52.381Z</time>
      </trkpt>
      <trkpt lat="47.05799" lon="-1.20748">
        <ele>63.552</ele>
        <time>2015-09-11T13:40:53.341Z</time>
      </trkpt>
      <trkpt lat="47.05801" lon="-1.20754">
        <ele>63.565</ele>
        <time>2015-09-11T13:40:54.535Z</time>
      </trkpt>
      <trkpt lat="47.05804" lon="-1.20762">
        <ele>63.491</ele>
        <time>2015-09-11T13:40:55.367Z</time>
      </trkpt>
      <trkpt lat="47.05809" lon="-1.20771">
        <ele>63.258</ele>
        <time>2015-09-11T13:40:56.386Z</time>
      </trkpt>
      <trkpt lat="47.05813" lon="-1.20782">
        <ele>62.689</ele>
        <time>2015-09-11T13:40:57.336Z</time>
      </trkpt>
      <trkpt lat="47.05817" lon="-1.20792">
        <ele>61.976</ele>
        <time>2015-09-11T13:40:58.52Z</time>
      </trkpt>
      <trkpt lat="47.05818" lon="-1.20804">
        <ele>61.148</ele>
        <time>2015-09-11T13:40:59.37Z</time>
      </trkpt>
      <trkpt lat="47.05822" lon="-1.20814">
        <ele>60.582</ele>
        <time>2015-09-11T13:41:00.379Z</time>
      </trkpt>
      <trkpt lat="47.05828" lon="-1.20826">
        <ele>60.15</ele>
        <time>2015-09-11T13:41:01.334Z</time>
      </trkpt>
      <trkpt lat="47.05828" lon="-1.20826">
        <ele>60.15</ele>
        <time>2015-09-11T13:41:01.422Z</time>
      </trkpt>
      <trkpt lat="47.05834" lon="-1.20838">
        <ele>59.799</ele>
        <time>2015-09-11T13:41:02.696Z</time>
      </trkpt>
      <trkpt lat="47.05839" lon="-1.20843">
        <ele>59.383</ele>
        <time>2015-09-11T13:41:03.383Z</time>
      </trkpt>
      <trkpt lat="47.05843" lon="-1.20846">
        <ele>59.053</ele>
        <time>2015-09-11T13:41:04.338Z</time>
      </trkpt>
      <trkpt lat="47.05847" lon="-1.2085">
        <ele>58.608</ele>
        <time>2015-09-11T13:41:05.561Z</time>
      </trkpt>
      <trkpt lat="47.05851" lon="-1.20852">
        <ele>58.223</ele>
        <time>2015-09-11T13:41:06.415Z</time>
      </trkpt>
      <trkpt lat="47.05857" lon="-1.20859">
        <ele>57.43</ele>
        <time>2015-09-11T13:41:08.385Z</time>
      </trkpt>
      <trkpt lat="47.05858" lon="-1.20862">
        <ele>57.105</ele>
        <time>2015-09-11T13:41:09.365Z</time>
      </trkpt>
      <trkpt lat="47.05863" lon="-1.20869">
        <ele>56.403</ele>
        <time>2015-09-11T13:41:11.592Z</time>
      </trkpt>
      <trkpt lat="47.05868" lon="-1.2087">
        <ele>56.189</ele>
        <time>2015-09-11T13:41:12.371Z</time>
      </trkpt>
      <trkpt lat="47.05874" lon="-1.20878">
        <ele>55.621</ele>
        <time>2015-09-11T13:41:16.533Z</time>
      </trkpt>
      <trkpt lat="47.05878" lon="-1.20882">
        <ele>55.373</ele>
        <time>2015-09-11T13:41:17.363Z</time>
      </trkpt>
      <trkpt lat="47.05882" lon="-1.20887">
        <ele>55.079</ele>
        <time>2015-09-11T13:41:19.548Z</time>
      </trkpt>
      <trkpt lat="47.05889" lon="-1.20903">
        <ele>55</ele>
        <time>2015-09-11T13:41:20.362Z</time>
      </trkpt>
      <trkpt lat="47.05889" lon="-1.20903">
        <ele>55</ele>
        <time>2015-09-11T13:41:20.741Z</time>
      </trkpt>
      <trkpt lat="47.05896" lon="-1.20917">
        <ele>55.001</ele>
        <time>2015-09-11T13:41:21.36Z</time>
      </trkpt>
      <trkpt lat="47.05899" lon="-1.20928">
        <ele>55.145</ele>
        <time>2015-09-11T13:41:22.517Z</time>
      </trkpt>
      <trkpt lat="47.05903" lon="-1.20935">
        <ele>55.327</ele>
        <time>2015-09-11T13:41:23.358Z</time>
      </trkpt>
      <trkpt lat="47.05909" lon="-1.20943">
        <ele>55.685</ele>
        <time>2015-09-11T13:41:25.98Z</time>
      </trkpt>
      <trkpt lat="47.05912" lon="-1.20947">
        <ele>55.944</ele>
        <time>2015-09-11T13:41:26.363Z</time>
      </trkpt>
      <trkpt lat="47.05919" lon="-1.2095">
        <ele>56.182</ele>
        <time>2015-09-11T13:41:28.519Z</time>
      </trkpt>
      <trkpt lat="47.05921" lon="-1.20954">
        <ele>56.34</ele>
        <time>2015-09-11T13:41:29.367Z</time>
      </trkpt>
      <trkpt lat="47.05926" lon="-1.20961">
        <ele>56.607</ele>
        <time>2015-09-11T13:41:31.377Z</time>
      </trkpt>
      <trkpt lat="47.05929" lon="-1.20963">
        <ele>56.675</ele>
        <time>2015-09-11T13:41:32.427Z</time>
      </trkpt>
      <trkpt lat="47.05934" lon="-1.20972">
        <ele>56.992</ele>
        <time>2015-09-11T13:41:36.769Z</time>
      </trkpt>
      <trkpt lat="47.05935" lon="-1.20975">
        <ele>57.119</ele>
        <time>2015-09-11T13:41:37.403Z</time>
      </trkpt>
      <trkpt lat="47.05941" lon="-1.20984">
        <ele>57.461</ele>
        <time>2015-09-11T13:41:40.531Z</time>
      </trkpt>
      <trkpt lat="47.05943" lon="-1.20987">
        <ele>57.548</ele>
        <time>2015-09-11T13:41:41.369Z</time>
      </trkpt>
      <trkpt lat="47.05948" lon="-1.20995">
        <ele>57.692</ele>
        <time>2015-09-11T13:41:43.382Z</time>
      </trkpt>
      <trkpt lat="47.05951" lon="-1.21">
        <ele>57.789</ele>
        <time>2015-09-11T13:41:44.354Z</time>
      </trkpt>
      <trkpt lat="47.05956" lon="-1.21011">
        <ele>58.354</ele>
        <time>2015-09-11T13:41:46.38Z</time>
      </trkpt>
      <trkpt lat="47.05958" lon="-1.21015">
        <ele>58.567</ele>
        <time>2015-09-11T13:41:47.37Z</time>
      </trkpt>
      <trkpt lat="47.05963" lon="-1.21023">
        <ele>58.988</ele>
        <time>2015-09-11T13:41:49.376Z</time>
      </trkpt>
      <trkpt lat="47.05965" lon="-1.21028">
        <ele>59.268</ele>
        <time>2015-09-11T13:41:50.372Z</time>
      </trkpt>
      <trkpt lat="47.05968" lon="-1.21038">
        <ele>59.513</ele>
        <time>2015-09-11T13:41:52.383Z</time>
      </trkpt>
      <trkpt lat="47.0597" lon="-1.21043">
        <ele>59.628</ele>
        <time>2015-09-11T13:41:53.354Z</time>
      </trkpt>
      <trkpt lat="47.05973" lon="-1.21051">
        <ele>59.836</ele>
        <time>2015-09-11T13:41:55.573Z</time>
      </trkpt>
      <trkpt lat="47.05975" lon="-1.21055">
        <ele>59.994</ele>
        <time>2015-09-11T13:41:56.386Z</time>
      </trkpt>
      <trkpt lat="47.05978" lon="-1.21064">
        <ele>60.311</ele>
        <time>2015-09-11T13:41:58.377Z</time>
      </trkpt>
      <trkpt lat="47.0598" lon="-1.21069">
        <ele>60.48</ele>
        <time>2015-09-11T13:41:59.404Z</time>
      </trkpt>
      <trkpt lat="47.05983" lon="-1.21078">
        <ele>60.808</ele>
        <time>2015-09-11T13:42:01.515Z</time>
      </trkpt>
      <trkpt lat="47.05984" lon="-1.21083">
        <ele>60.97</ele>
        <time>2015-09-11T13:42:02.358Z</time>
      </trkpt>
      <trkpt lat="47.05988" lon="-1.21093">
        <ele>61</ele>
        <time>2015-09-11T13:42:04.636Z</time>
      </trkpt>
      <trkpt lat="47.0599" lon="-1.21098">
        <ele>61</ele>
        <time>2015-09-11T13:42:05.373Z</time>
      </trkpt>
      <trkpt lat="47.05994" lon="-1.21108">
        <ele>61</ele>
        <time>2015-09-11T13:42:07.372Z</time>
      </trkpt>
      <trkpt lat="47.05996" lon="-1.21114">
        <ele>61.09</ele>
        <time>2015-09-11T13:42:08.361Z</time>
      </trkpt>
      <trkpt lat="47.06001" lon="-1.21124">
        <ele>61.46</ele>
        <time>2015-09-11T13:42:10.535Z</time>
      </trkpt>
      <trkpt lat="47.06003" lon="-1.21128">
        <ele>61.655</ele>
        <time>2015-09-11T13:42:11.359Z</time>
      </trkpt>
      <trkpt lat="47.06007" lon="-1.21137">
        <ele>61.958</ele>
        <time>2015-09-11T13:42:13.522Z</time>
      </trkpt>
      <trkpt lat="47.06009" lon="-1.21142">
        <ele>62</ele>
        <time>2015-09-11T13:42:14.369Z</time>
      </trkpt>
      <trkpt lat="47.06014" lon="-1.21151">
        <ele>62</ele>
        <time>2015-09-11T13:42:16.375Z</time>
      </trkpt>
      <trkpt lat="47.06016" lon="-1.21155">
        <ele>62</ele>
        <time>2015-09-11T13:42:17.354Z</time>
      </trkpt>
      <trkpt lat="47.0602" lon="-1.21163">
        <ele>62</ele>
        <time>2015-09-11T13:42:19.539Z</time>
      </trkpt>
      <trkpt lat="47.06021" lon="-1.21167">
        <ele>62</ele>
        <time>2015-09-11T13:42:20.36Z</time>
      </trkpt>
      <trkpt lat="47.06021" lon="-1.21176">
        <ele>62</ele>
        <time>2015-09-11T13:42:22.527Z</time>
      </trkpt>
      <trkpt lat="47.06018" lon="-1.2118">
        <ele>62</ele>
        <time>2015-09-11T13:42:23.361Z</time>
      </trkpt>
      <trkpt lat="47.06012" lon="-1.21185">
        <ele>62</ele>
        <time>2015-09-11T13:42:25.375Z</time>
      </trkpt>
      <trkpt lat="47.06008" lon="-1.21187">
        <ele>62</ele>
        <time>2015-09-11T13:42:26.374Z</time>
      </trkpt>
      <trkpt lat="47.06002" lon="-1.21193">
        <ele>62</ele>
        <time>2015-09-11T13:42:28.544Z</time>
      </trkpt>
      <trkpt lat="47.05998" lon="-1.21197">
        <ele>62.061</ele>
        <time>2015-09-11T13:42:29.353Z</time>
      </trkpt>
      <trkpt lat="47.05992" lon="-1.21206">
        <ele>62.281</ele>
        <time>2015-09-11T13:42:31.517Z</time>
      </trkpt>
      <trkpt lat="47.05989" lon="-1.2121">
        <ele>62.382</ele>
        <time>2015-09-11T13:42:32.364Z</time>
      </trkpt>
      <trkpt lat="47.05984" lon="-1.21219">
        <ele>62.569</ele>
        <time>2015-09-11T13:42:34.548Z</time>
      </trkpt>
      <trkpt lat="47.05982" lon="-1.21225">
        <ele>62.69</ele>
        <time>2015-09-11T13:42:35.371Z</time>
      </trkpt>
      <trkpt lat="47.05979" lon="-1.2123">
        <ele>62.817</ele>
        <time>2015-09-11T13:42:36.391Z</time>
      </trkpt>
      <trkpt lat="47.05975" lon="-1.2124">
        <ele>62.971</ele>
        <time>2015-09-11T13:42:37.342Z</time>
      </trkpt>
      <trkpt lat="47.05972" lon="-1.21247">
        <ele>63.019</ele>
        <time>2015-09-11T13:42:38.511Z</time>
      </trkpt>
      <trkpt lat="47.05969" lon="-1.21254">
        <ele>63.097</ele>
        <time>2015-09-11T13:42:39.354Z</time>
      </trkpt>
      <trkpt lat="47.05967" lon="-1.2126">
        <ele>63.121</ele>
        <time>2015-09-11T13:42:40.52Z</time>
      </trkpt>
      <trkpt lat="47.05964" lon="-1.21266">
        <ele>63.139</ele>
        <time>2015-09-11T13:42:41.37Z</time>
      </trkpt>
      <trkpt lat="47.05959" lon="-1.21276">
        <ele>63.037</ele>
        <time>2015-09-11T13:42:43.729Z</time>
      </trkpt>
      <trkpt lat="47.05958" lon="-1.21282">
        <ele>62.841</ele>
        <time>2015-09-11T13:42:44.335Z</time>
      </trkpt>
      <trkpt lat="47.05954" lon="-1.21294">
        <ele>62.423</ele>
        <time>2015-09-11T13:42:46.519Z</time>
      </trkpt>
      <trkpt lat="47.05952" lon="-1.21301">
        <ele>62.182</ele>
        <time>2015-09-11T13:42:47.373Z</time>
      </trkpt>
      <trkpt lat="47.05948" lon="-1.21306">
        <ele>61.98</ele>
        <time>2015-09-11T13:42:48.61Z</time>
      </trkpt>
      <trkpt lat="47.05943" lon="-1.21311">
        <ele>61.813</ele>
        <time>2015-09-11T13:42:49.343Z</time>
      </trkpt>
      <trkpt lat="47.05938" lon="-1.21316">
        <ele>61.709</ele>
        <time>2015-09-11T13:42:50.378Z</time>
      </trkpt>
      <trkpt lat="47.05934" lon="-1.21319">
        <ele>61.709</ele>
        <time>2015-09-11T13:42:51.422Z</time>
      </trkpt>
      <trkpt lat="47.05929" lon="-1.2132">
        <ele>61.78</ele>
        <time>2015-09-11T13:42:52.597Z</time>
      </trkpt>
      <trkpt lat="47.05922" lon="-1.21319">
        <ele>61.912</ele>
        <time>2015-09-11T13:42:53.365Z</time>
      </trkpt>
      <trkpt lat="47.05918" lon="-1.21315">
        <ele>61.98</ele>
        <time>2015-09-11T13:42:54.512Z</time>
      </trkpt>
      <trkpt lat="47.05913" lon="-1.21313">
        <ele>62.146</ele>
        <time>2015-09-11T13:42:55.355Z</time>
      </trkpt>
      <trkpt lat="47.05908" lon="-1.21311">
        <ele>62.319</ele>
        <time>2015-09-11T13:42:56.566Z</time>
      </trkpt>
      <trkpt lat="47.05895" lon="-1.21302">
        <ele>62.798</ele>
        <time>2015-09-11T13:42:59.338Z</time>
      </trkpt>
      <trkpt lat="47.05889" lon="-1.21302">
        <ele>62.987</ele>
        <time>2015-09-11T13:43:00.723Z</time>
      </trkpt>
      <trkpt lat="47.05885" lon="-1.21297">
        <ele>62.962</ele>
        <time>2015-09-11T13:43:01.341Z</time>
      </trkpt>
      <trkpt lat="47.05877" lon="-1.21293">
        <ele>62.81</ele>
        <time>2015-09-11T13:43:03.377Z</time>
      </trkpt>
      <trkpt lat="47.05872" lon="-1.21289">
        <ele>62.622</ele>
        <time>2015-09-11T13:43:04.483Z</time>
      </trkpt>
      <trkpt lat="47.05867" lon="-1.21286">
        <ele>62.448</ele>
        <time>2015-09-11T13:43:05.614Z</time>
      </trkpt>
      <trkpt lat="47.05862" lon="-1.21281">
        <ele>62.158</ele>
        <time>2015-09-11T13:43:06.337Z</time>
      </trkpt>
      <trkpt lat="47.05857" lon="-1.2128">
        <ele>62.079</ele>
        <time>2015-09-11T13:43:07.398Z</time>
      </trkpt>
      <trkpt lat="47.05851" lon="-1.21277">
        <ele>62</ele>
        <time>2015-09-11T13:43:08.337Z</time>
      </trkpt>
      <trkpt lat="47.05843" lon="-1.21279">
        <ele>62.013</ele>
        <time>2015-09-11T13:43:09.378Z</time>
      </trkpt>
      <trkpt lat="47.05841" lon="-1.21273">
        <ele>62</ele>
        <time>2015-09-11T13:43:10.447Z</time>
      </trkpt>
      <trkpt lat="47.05835" lon="-1.21271">
        <ele>62</ele>
        <time>2015-09-11T13:43:11.385Z</time>
      </trkpt>
      <trkpt lat="47.05837" lon="-1.21256">
        <ele>62</ele>
        <time>2015-09-11T13:43:12.338Z</time>
      </trkpt>
      <trkpt lat="47.05834" lon="-1.21252">
        <ele>62</ele>
        <time>2015-09-11T13:43:13.573Z</time>
      </trkpt>
      <trkpt lat="47.05829" lon="-1.21248">
        <ele>62</ele>
        <time>2015-09-11T13:43:14.368Z</time>
      </trkpt>
      <trkpt lat="47.05825" lon="-1.21243">
        <ele>62</ele>
        <time>2015-09-11T13:43:15.512Z</time>
      </trkpt>
      <trkpt lat="47.05821" lon="-1.2124">
        <ele>62</ele>
        <time>2015-09-11T13:43:16.366Z</time>
      </trkpt>
      <trkpt lat="47.05816" lon="-1.21236">
        <ele>62</ele>
        <time>2015-09-11T13:43:17.596Z</time>
      </trkpt>
      <trkpt lat="47.05811" lon="-1.21231">
        <ele>62</ele>
        <time>2015-09-11T13:43:18.338Z</time>
      </trkpt>
      <trkpt lat="47.05806" lon="-1.21227">
        <ele>62</ele>
        <time>2015-09-11T13:43:19.378Z</time>
      </trkpt>
      <trkpt lat="47.05801" lon="-1.21221">
        <ele>62.164</ele>
        <time>2015-09-11T13:43:20.358Z</time>
      </trkpt>
      <trkpt lat="47.05797" lon="-1.21216">
        <ele>62.252</ele>
        <time>2015-09-11T13:43:21.375Z</time>
      </trkpt>
      <trkpt lat="47.05791" lon="-1.21213">
        <ele>62.335</ele>
        <time>2015-09-11T13:43:22.336Z</time>
      </trkpt>
      <trkpt lat="47.05785" lon="-1.2121">
        <ele>62.415</ele>
        <time>2015-09-11T13:43:23.618Z</time>
      </trkpt>
      <trkpt lat="47.05778" lon="-1.21208">
        <ele>62.467</ele>
        <time>2015-09-11T13:43:24.369Z</time>
      </trkpt>
      <trkpt lat="47.05773" lon="-1.21206">
        <ele>62.35</ele>
        <time>2015-09-11T13:43:25.519Z</time>
      </trkpt>
      <trkpt lat="47.05767" lon="-1.21204">
        <ele>62.2</ele>
        <time>2015-09-11T13:43:26.367Z</time>
      </trkpt>
      <trkpt lat="47.0576" lon="-1.21203">
        <ele>62.104</ele>
        <time>2015-09-11T13:43:27.531Z</time>
      </trkpt>
      <trkpt lat="47.05755" lon="-1.21201">
        <ele>62.042</ele>
        <time>2015-09-11T13:43:28.423Z</time>
      </trkpt>
      <trkpt lat="47.05748" lon="-1.21199">
        <ele>61.914</ele>
        <time>2015-09-11T13:43:29.534Z</time>
      </trkpt>
      <trkpt lat="47.05741" lon="-1.21196">
        <ele>61.69</ele>
        <time>2015-09-11T13:43:30.365Z</time>
      </trkpt>
      <trkpt lat="47.05735" lon="-1.21194">
        <ele>61.44</ele>
        <time>2015-09-11T13:43:31.526Z</time>
      </trkpt>
      <trkpt lat="47.0573" lon="-1.21194">
        <ele>61.257</ele>
        <time>2015-09-11T13:43:32.374Z</time>
      </trkpt>
      <trkpt lat="47.05723" lon="-1.21194">
        <ele>61.037</ele>
        <time>2015-09-11T13:43:33.974Z</time>
      </trkpt>
      <trkpt lat="47.05718" lon="-1.21193">
        <ele>60.968</ele>
        <time>2015-09-11T13:43:34.364Z</time>
      </trkpt>
      <trkpt lat="47.05712" lon="-1.21192">
        <ele>60.939</ele>
        <time>2015-09-11T13:43:35.525Z</time>
      </trkpt>
      <trkpt lat="47.05706" lon="-1.2119">
        <ele>60.931</ele>
        <time>2015-09-11T13:43:36.367Z</time>
      </trkpt>
      <trkpt lat="47.05701" lon="-1.21187">
        <ele>60.945</ele>
        <time>2015-09-11T13:43:37.499Z</time>
      </trkpt>
      <trkpt lat="47.05697" lon="-1.21185">
        <ele>60.974</ele>
        <time>2015-09-11T13:43:38.36Z</time>
      </trkpt>
      <trkpt lat="47.05693" lon="-1.21182">
        <ele>61</ele>
        <time>2015-09-11T13:43:39.386Z</time>
      </trkpt>
      <trkpt lat="47.05686" lon="-1.21182">
        <ele>61</ele>
        <time>2015-09-11T13:43:40.338Z</time>
      </trkpt>
      <trkpt lat="47.05681" lon="-1.21179">
        <ele>61</ele>
        <time>2015-09-11T13:43:41.375Z</time>
      </trkpt>
      <trkpt lat="47.05677" lon="-1.21177">
        <ele>61</ele>
        <time>2015-09-11T13:43:42.336Z</time>
      </trkpt>
      <trkpt lat="47.05672" lon="-1.21177">
        <ele>61</ele>
        <time>2015-09-11T13:43:43.399Z</time>
      </trkpt>
      <trkpt lat="47.05667" lon="-1.21176">
        <ele>61.002</ele>
        <time>2015-09-11T13:43:44.365Z</time>
      </trkpt>
      <trkpt lat="47.0566" lon="-1.21176">
        <ele>61.233</ele>
        <time>2015-09-11T13:43:46.386Z</time>
      </trkpt>
      <trkpt lat="47.05657" lon="-1.21182">
        <ele>61.359</ele>
        <time>2015-09-11T13:43:47.363Z</time>
      </trkpt>
      <trkpt lat="47.05655" lon="-1.2119">
        <ele>61.438</ele>
        <time>2015-09-11T13:43:48.379Z</time>
      </trkpt>
      <trkpt lat="47.05654" lon="-1.21197">
        <ele>61.47</ele>
        <time>2015-09-11T13:43:49.336Z</time>
      </trkpt>
      <trkpt lat="47.05653" lon="-1.21204">
        <ele>61.503</ele>
        <time>2015-09-11T13:43:50.543Z</time>
      </trkpt>
      <trkpt lat="47.05651" lon="-1.2121">
        <ele>61.568</ele>
        <time>2015-09-11T13:43:51.374Z</time>
      </trkpt>
      <trkpt lat="47.05648" lon="-1.21223">
        <ele>61.662</ele>
        <time>2015-09-11T13:43:53.382Z</time>
      </trkpt>
      <trkpt lat="47.05645" lon="-1.21227">
        <ele>61.615</ele>
        <time>2015-09-11T13:43:54.369Z</time>
      </trkpt>
      <trkpt lat="47.05642" lon="-1.21239">
        <ele>61.291</ele>
        <time>2015-09-11T13:43:56.372Z</time>
      </trkpt>
      <trkpt lat="47.05642" lon="-1.21248">
        <ele>60.974</ele>
        <time>2015-09-11T13:43:57.338Z</time>
      </trkpt>
      <trkpt lat="47.05642" lon="-1.21256">
        <ele>60.462</ele>
        <time>2015-09-11T13:43:58.504Z</time>
      </trkpt>
      <trkpt lat="47.05642" lon="-1.21265">
        <ele>59.896</ele>
        <time>2015-09-11T13:43:59.365Z</time>
      </trkpt>
      <trkpt lat="47.05641" lon="-1.21273">
        <ele>59.322</ele>
        <time>2015-09-11T13:44:00.587Z</time>
      </trkpt>
      <trkpt lat="47.05644" lon="-1.21281">
        <ele>58.664</ele>
        <time>2015-09-11T13:44:01.374Z</time>
      </trkpt>
      <trkpt lat="47.05648" lon="-1.2129">
        <ele>57.869</ele>
        <time>2015-09-11T13:44:02.374Z</time>
      </trkpt>
      <trkpt lat="47.05651" lon="-1.21298">
        <ele>57.126</ele>
        <time>2015-09-11T13:44:03.351Z</time>
      </trkpt>
      <trkpt lat="47.05656" lon="-1.21306">
        <ele>56.61</ele>
        <time>2015-09-11T13:44:04.373Z</time>
      </trkpt>
      <trkpt lat="47.05662" lon="-1.21314">
        <ele>56.2</ele>
        <time>2015-09-11T13:44:05.335Z</time>
      </trkpt>
      <trkpt lat="47.05668" lon="-1.21322">
        <ele>55.869</ele>
        <time>2015-09-11T13:44:06.527Z</time>
      </trkpt>
      <trkpt lat="47.05672" lon="-1.21332">
        <ele>55.43</ele>
        <time>2015-09-11T13:44:07.364Z</time>
      </trkpt>
      <trkpt lat="47.05673" lon="-1.21343">
        <ele>54.818</ele>
        <time>2015-09-11T13:44:08.387Z</time>
      </trkpt>
      <trkpt lat="47.05673" lon="-1.21355">
        <ele>53.889</ele>
        <time>2015-09-11T13:44:09.335Z</time>
      </trkpt>
      <trkpt lat="47.05674" lon="-1.21367">
        <ele>53.356</ele>
        <time>2015-09-11T13:44:10.635Z</time>
      </trkpt>
      <trkpt lat="47.05675" lon="-1.21379">
        <ele>53.159</ele>
        <time>2015-09-11T13:44:11.372Z</time>
      </trkpt>
      <trkpt lat="47.05676" lon="-1.21391">
        <ele>52.907</ele>
        <time>2015-09-11T13:44:12.373Z</time>
      </trkpt>
      <trkpt lat="47.05677" lon="-1.21402">
        <ele>52.579</ele>
        <time>2015-09-11T13:44:13.338Z</time>
      </trkpt>
      <trkpt lat="47.05677" lon="-1.21412">
        <ele>52.252</ele>
        <time>2015-09-11T13:44:14.535Z</time>
      </trkpt>
      <trkpt lat="47.05677" lon="-1.21421">
        <ele>52.045</ele>
        <time>2015-09-11T13:44:15.357Z</time>
      </trkpt>
      <trkpt lat="47.05679" lon="-1.21432">
        <ele>51.995</ele>
        <time>2015-09-11T13:44:16.373Z</time>
      </trkpt>
      <trkpt lat="47.05681" lon="-1.21442">
        <ele>52.156</ele>
        <time>2015-09-11T13:44:17.336Z</time>
      </trkpt>
      <trkpt lat="47.05684" lon="-1.21454">
        <ele>52.275</ele>
        <time>2015-09-11T13:44:18.648Z</time>
      </trkpt>
      <trkpt lat="47.05685" lon="-1.21466">
        <ele>52.158</ele>
        <time>2015-09-11T13:44:19.336Z</time>
      </trkpt>
      <trkpt lat="47.05686" lon="-1.21478">
        <ele>51.963</ele>
        <time>2015-09-11T13:44:20.374Z</time>
      </trkpt>
      <trkpt lat="47.05686" lon="-1.2149">
        <ele>51.689</ele>
        <time>2015-09-11T13:44:21.364Z</time>
      </trkpt>
      <trkpt lat="47.05686" lon="-1.2149">
        <ele>51.689</ele>
        <time>2015-09-11T13:44:21.673Z</time>
      </trkpt>
      <trkpt lat="47.05687" lon="-1.21503">
        <ele>51.462</ele>
        <time>2015-09-11T13:44:22.335Z</time>
      </trkpt>
      <trkpt lat="47.05685" lon="-1.21514">
        <ele>51.496</ele>
        <time>2015-09-11T13:44:23.376Z</time>
      </trkpt>
      <trkpt lat="47.05683" lon="-1.21524">
        <ele>51.538</ele>
        <time>2015-09-11T13:44:24.367Z</time>
      </trkpt>
      <trkpt lat="47.05681" lon="-1.21534">
        <ele>51.747</ele>
        <time>2015-09-11T13:44:25.51Z</time>
      </trkpt>
      <trkpt lat="47.05679" lon="-1.21544">
        <ele>52.032</ele>
        <time>2015-09-11T13:44:26.433Z</time>
      </trkpt>
      <trkpt lat="47.05678" lon="-1.21553">
        <ele>52.338</ele>
        <time>2015-09-11T13:44:27.501Z</time>
      </trkpt>
      <trkpt lat="47.05678" lon="-1.21565">
        <ele>52.813</ele>
        <time>2015-09-11T13:44:28.384Z</time>
      </trkpt>
      <trkpt lat="47.05677" lon="-1.21575">
        <ele>53.259</ele>
        <time>2015-09-11T13:44:29.503Z</time>
      </trkpt>
      <trkpt lat="47.05679" lon="-1.21583">
        <ele>53.536</ele>
        <time>2015-09-11T13:44:30.772Z</time>
      </trkpt>
      <trkpt lat="47.05678" lon="-1.21593">
        <ele>54.009</ele>
        <time>2015-09-11T13:44:31.374Z</time>
      </trkpt>
      <trkpt lat="47.05677" lon="-1.21604">
        <ele>54.554</ele>
        <time>2015-09-11T13:44:32.336Z</time>
      </trkpt>
      <trkpt lat="47.05677" lon="-1.21614">
        <ele>54.992</ele>
        <time>2015-09-11T13:44:33.524Z</time>
      </trkpt>
      <trkpt lat="47.05677" lon="-1.21621">
        <ele>55.251</ele>
        <time>2015-09-11T13:44:34.37Z</time>
      </trkpt>
      <trkpt lat="47.05677" lon="-1.21632">
        <ele>55.65</ele>
        <time>2015-09-11T13:44:36.376Z</time>
      </trkpt>
      <trkpt lat="47.05678" lon="-1.21635">
        <ele>55.614</ele>
        <time>2015-09-11T13:44:37.42Z</time>
      </trkpt>
      <trkpt lat="47.05683" lon="-1.21646">
        <ele>55.434</ele>
        <time>2015-09-11T13:44:43.37Z</time>
      </trkpt>
      <trkpt lat="47.05684" lon="-1.2165">
        <ele>55.51</ele>
        <time>2015-09-11T13:44:44.335Z</time>
      </trkpt>
      <trkpt lat="47.05685" lon="-1.21658">
        <ele>55.676</ele>
        <time>2015-09-11T13:44:46.513Z</time>
      </trkpt>
      <trkpt lat="47.05686" lon="-1.21663">
        <ele>55.758</ele>
        <time>2015-09-11T13:44:47.374Z</time>
      </trkpt>
      <trkpt lat="47.05687" lon="-1.21672">
        <ele>55.939</ele>
        <time>2015-09-11T13:44:49.373Z</time>
      </trkpt>
      <trkpt lat="47.05687" lon="-1.21676">
        <ele>56.022</ele>
        <time>2015-09-11T13:44:50.375Z</time>
      </trkpt>
      <trkpt lat="47.05689" lon="-1.21685">
        <ele>56.13</ele>
        <time>2015-09-11T13:44:52.5Z</time>
      </trkpt>
      <trkpt lat="47.0569" lon="-1.2169">
        <ele>56.209</ele>
        <time>2015-09-11T13:44:53.368Z</time>
      </trkpt>
      <trkpt lat="47.05691" lon="-1.21701">
        <ele>56.196</ele>
        <time>2015-09-11T13:44:55.374Z</time>
      </trkpt>
      <trkpt lat="47.05692" lon="-1.21707">
        <ele>56.102</ele>
        <time>2015-09-11T13:44:56.338Z</time>
      </trkpt>
      <trkpt lat="47.05694" lon="-1.21719">
        <ele>56.003</ele>
        <time>2015-09-11T13:44:58.416Z</time>
      </trkpt>
      <trkpt lat="47.05696" lon="-1.21724">
        <ele>55.849</ele>
        <time>2015-09-11T13:44:59.337Z</time>
      </trkpt>
      <trkpt lat="47.05697" lon="-1.21731">
        <ele>55.52</ele>
        <time>2015-09-11T13:45:00.372Z</time>
      </trkpt>
      <trkpt lat="47.05698" lon="-1.21737">
        <ele>55.257</ele>
        <time>2015-09-11T13:45:01.362Z</time>
      </trkpt>
      <trkpt lat="47.05699" lon="-1.21744">
        <ele>55.017</ele>
        <time>2015-09-11T13:45:02.517Z</time>
      </trkpt>
      <trkpt lat="47.057" lon="-1.21751">
        <ele>54.79</ele>
        <time>2015-09-11T13:45:03.674Z</time>
      </trkpt>
      <trkpt lat="47.05702" lon="-1.21758">
        <ele>54.59</ele>
        <time>2015-09-11T13:45:04.373Z</time>
      </trkpt>
      <trkpt lat="47.05704" lon="-1.21766">
        <ele>54.477</ele>
        <time>2015-09-11T13:45:05.339Z</time>
      </trkpt>
      <trkpt lat="47.05705" lon="-1.21779">
        <ele>54.391</ele>
        <time>2015-09-11T13:45:07.523Z</time>
      </trkpt>
      <trkpt lat="47.05706" lon="-1.21785">
        <ele>54.409</ele>
        <time>2015-09-11T13:45:08.418Z</time>
      </trkpt>
      <trkpt lat="47.05707" lon="-1.21792">
        <ele>54.456</ele>
        <time>2015-09-11T13:45:09.527Z</time>
      </trkpt>
      <trkpt lat="47.05709" lon="-1.21798">
        <ele>54.51</ele>
        <time>2015-09-11T13:45:10.367Z</time>
      </trkpt>
      <trkpt lat="47.0571" lon="-1.21805">
        <ele>54.542</ele>
        <time>2015-09-11T13:45:11.516Z</time>
      </trkpt>
      <trkpt lat="47.05711" lon="-1.21811">
        <ele>54.607</ele>
        <time>2015-09-11T13:45:12.357Z</time>
      </trkpt>
      <trkpt lat="47.05713" lon="-1.21818">
        <ele>54.661</ele>
        <time>2015-09-11T13:45:13.382Z</time>
      </trkpt>
      <trkpt lat="47.05715" lon="-1.21824">
        <ele>54.722</ele>
        <time>2015-09-11T13:45:14.335Z</time>
      </trkpt>
      <trkpt lat="47.05716" lon="-1.2183">
        <ele>54.79</ele>
        <time>2015-09-11T13:45:15.374Z</time>
      </trkpt>
      <trkpt lat="47.05718" lon="-1.21836">
        <ele>54.748</ele>
        <time>2015-09-11T13:45:16.339Z</time>
      </trkpt>
      <trkpt lat="47.05719" lon="-1.21843">
        <ele>54.558</ele>
        <time>2015-09-11T13:45:17.517Z</time>
      </trkpt>
      <trkpt lat="47.05719" lon="-1.2185">
        <ele>54.376</ele>
        <time>2015-09-11T13:45:18.409Z</time>
      </trkpt>
      <trkpt lat="47.05723" lon="-1.21861">
        <ele>54.031</ele>
        <time>2015-09-11T13:45:20.371Z</time>
      </trkpt>
      <trkpt lat="47.05725" lon="-1.21868">
        <ele>54.071</ele>
        <time>2015-09-11T13:45:21.366Z</time>
      </trkpt>
      <trkpt lat="47.05725" lon="-1.21879">
        <ele>54.031</ele>
        <time>2015-09-11T13:45:24.424Z</time>
      </trkpt>
      <trkpt lat="47.05726" lon="-1.21882">
        <ele>54.039</ele>
        <time>2015-09-11T13:45:25.339Z</time>
      </trkpt>
      <trkpt lat="47.05729" lon="-1.21894">
        <ele>53.834</ele>
        <time>2015-09-11T13:45:27.547Z</time>
      </trkpt>
      <trkpt lat="47.05729" lon="-1.21902">
        <ele>53.532</ele>
        <time>2015-09-11T13:45:28.334Z</time>
      </trkpt>
      <trkpt lat="47.0573" lon="-1.21909">
        <ele>53.294</ele>
        <time>2015-09-11T13:45:29.379Z</time>
      </trkpt>
      <trkpt lat="47.05731" lon="-1.21915">
        <ele>53.067</ele>
        <time>2015-09-11T13:45:30.36Z</time>
      </trkpt>
      <trkpt lat="47.05732" lon="-1.21922">
        <ele>53</ele>
        <time>2015-09-11T13:45:31.367Z</time>
      </trkpt>
      <trkpt lat="47.05733" lon="-1.2193">
        <ele>53</ele>
        <time>2015-09-11T13:45:32.335Z</time>
      </trkpt>
      <trkpt lat="47.05734" lon="-1.21938">
        <ele>53</ele>
        <time>2015-09-11T13:45:33.496Z</time>
      </trkpt>
      <trkpt lat="47.05735" lon="-1.21946">
        <ele>53</ele>
        <time>2015-09-11T13:45:34.766Z</time>
      </trkpt>
      <trkpt lat="47.05736" lon="-1.21953">
        <ele>53</ele>
        <time>2015-09-11T13:45:35.369Z</time>
      </trkpt>
      <trkpt lat="47.05737" lon="-1.2196">
        <ele>53</ele>
        <time>2015-09-11T13:45:36.334Z</time>
      </trkpt>
      <trkpt lat="47.05737" lon="-1.21967">
        <ele>53</ele>
        <time>2015-09-11T13:45:37.466Z</time>
      </trkpt>
      <trkpt lat="47.05738" lon="-1.21973">
        <ele>52.986</ele>
        <time>2015-09-11T13:45:38.367Z</time>
      </trkpt>
      <trkpt lat="47.0574" lon="-1.21979">
        <ele>52.851</ele>
        <time>2015-09-11T13:45:39.588Z</time>
      </trkpt>
      <trkpt lat="47.05742" lon="-1.21986">
        <ele>52.634</ele>
        <time>2015-09-11T13:45:40.393Z</time>
      </trkpt>
      <trkpt lat="47.05745" lon="-1.21997">
        <ele>52.247</ele>
        <time>2015-09-11T13:45:42.386Z</time>
      </trkpt>
      <trkpt lat="47.05747" lon="-1.22004">
        <ele>52.094</ele>
        <time>2015-09-11T13:45:43.38Z</time>
      </trkpt>
      <trkpt lat="47.0575" lon="-1.2201">
        <ele>52.018</ele>
        <time>2015-09-11T13:45:44.395Z</time>
      </trkpt>
      <trkpt lat="47.05753" lon="-1.22017">
        <ele>51.929</ele>
        <time>2015-09-11T13:45:45.335Z</time>
      </trkpt>
      <trkpt lat="47.05756" lon="-1.22024">
        <ele>51.823</ele>
        <time>2015-09-11T13:45:46.515Z</time>
      </trkpt>
      <trkpt lat="47.05758" lon="-1.22033">
        <ele>51.716</ele>
        <time>2015-09-11T13:45:47.364Z</time>
      </trkpt>
      <trkpt lat="47.05759" lon="-1.22042">
        <ele>51.665</ele>
        <time>2015-09-11T13:45:48.499Z</time>
      </trkpt>
      <trkpt lat="47.05762" lon="-1.22051">
        <ele>51.582</ele>
        <time>2015-09-11T13:45:49.386Z</time>
      </trkpt>
      <trkpt lat="47.05765" lon="-1.22058">
        <ele>51.438</ele>
        <time>2015-09-11T13:45:50.58Z</time>
      </trkpt>
      <trkpt lat="47.05768" lon="-1.22065">
        <ele>51.225</ele>
        <time>2015-09-11T13:45:51.365Z</time>
      </trkpt>
      <trkpt lat="47.05772" lon="-1.22073">
        <ele>51.071</ele>
        <time>2015-09-11T13:45:52.565Z</time>
      </trkpt>
      <trkpt lat="47.05775" lon="-1.22083">
        <ele>51.003</ele>
        <time>2015-09-11T13:45:53.365Z</time>
      </trkpt>
      <trkpt lat="47.05779" lon="-1.22089">
        <ele>50.806</ele>
        <time>2015-09-11T13:45:54.672Z</time>
      </trkpt>
      <trkpt lat="47.05784" lon="-1.22094">
        <ele>50.783</ele>
        <time>2015-09-11T13:45:55.374Z</time>
      </trkpt>
      <trkpt lat="47.0579" lon="-1.22099">
        <ele>50.925</ele>
        <time>2015-09-11T13:45:56.372Z</time>
      </trkpt>
      <trkpt lat="47.05796" lon="-1.22104">
        <ele>51.217</ele>
        <time>2015-09-11T13:45:57.336Z</time>
      </trkpt>
      <trkpt lat="47.05801" lon="-1.22108">
        <ele>51.61</ele>
        <time>2015-09-11T13:45:58.575Z</time>
      </trkpt>
      <trkpt lat="47.05807" lon="-1.22114">
        <ele>51.956</ele>
        <time>2015-09-11T13:45:59.336Z</time>
      </trkpt>
      <trkpt lat="47.05813" lon="-1.22118">
        <ele>51.808</ele>
        <time>2015-09-11T13:46:00.372Z</time>
      </trkpt>
      <trkpt lat="47.05817" lon="-1.22123">
        <ele>51.766</ele>
        <time>2015-09-11T13:46:01.336Z</time>
      </trkpt>
      <trkpt lat="47.05823" lon="-1.22125">
        <ele>51.689</ele>
        <time>2015-09-11T13:46:02.374Z</time>
      </trkpt>
      <trkpt lat="47.05829" lon="-1.22128">
        <ele>51.663</ele>
        <time>2015-09-11T13:46:03.33Z</time>
      </trkpt>
      <trkpt lat="47.05833" lon="-1.22133">
        <ele>51.775</ele>
        <time>2015-09-11T13:46:04.374Z</time>
      </trkpt>
      <trkpt lat="47.05838" lon="-1.22137">
        <ele>52.077</ele>
        <time>2015-09-11T13:46:05.331Z</time>
      </trkpt>
      <trkpt lat="47.05842" lon="-1.2214">
        <ele>52.363</ele>
        <time>2015-09-11T13:46:06.37Z</time>
      </trkpt>
      <trkpt lat="47.05847" lon="-1.22143">
        <ele>52.644</ele>
        <time>2015-09-11T13:46:07.332Z</time>
      </trkpt>
      <trkpt lat="47.05851" lon="-1.22146">
        <ele>52.903</ele>
        <time>2015-09-11T13:46:08.377Z</time>
      </trkpt>
      <trkpt lat="47.05856" lon="-1.22148">
        <ele>53.148</ele>
        <time>2015-09-11T13:46:09.357Z</time>
      </trkpt>
      <trkpt lat="47.05861" lon="-1.22151">
        <ele>53.41</ele>
        <time>2015-09-11T13:46:10.49Z</time>
      </trkpt>
      <trkpt lat="47.05866" lon="-1.22153">
        <ele>53.431</ele>
        <time>2015-09-11T13:46:11.375Z</time>
      </trkpt>
      <trkpt lat="47.0587" lon="-1.22155">
        <ele>53.391</ele>
        <time>2015-09-11T13:46:12.532Z</time>
      </trkpt>
      <trkpt lat="47.05875" lon="-1.22157">
        <ele>53.316</ele>
        <time>2015-09-11T13:46:13.361Z</time>
      </trkpt>
      <trkpt lat="47.05881" lon="-1.22159">
        <ele>53.22</ele>
        <time>2015-09-11T13:46:14.369Z</time>
      </trkpt>
      <trkpt lat="47.05886" lon="-1.22161">
        <ele>53.081</ele>
        <time>2015-09-11T13:46:15.335Z</time>
      </trkpt>
      <trkpt lat="47.05891" lon="-1.22163">
        <ele>52.938</ele>
        <time>2015-09-11T13:46:16.516Z</time>
      </trkpt>
      <trkpt lat="47.05896" lon="-1.22166">
        <ele>52.73</ele>
        <time>2015-09-11T13:46:17.357Z</time>
      </trkpt>
      <trkpt lat="47.05902" lon="-1.22168">
        <ele>52.513</ele>
        <time>2015-09-11T13:46:18.368Z</time>
      </trkpt>
      <trkpt lat="47.05907" lon="-1.2217">
        <ele>52.262</ele>
        <time>2015-09-11T13:46:19.336Z</time>
      </trkpt>
      <trkpt lat="47.05913" lon="-1.22173">
        <ele>51.939</ele>
        <time>2015-09-11T13:46:20.512Z</time>
      </trkpt>
      <trkpt lat="47.05922" lon="-1.22176">
        <ele>51.344</ele>
        <time>2015-09-11T13:46:21.359Z</time>
      </trkpt>
      <trkpt lat="47.05927" lon="-1.22178">
        <ele>51.005</ele>
        <time>2015-09-11T13:46:22.373Z</time>
      </trkpt>
      <trkpt lat="47.05933" lon="-1.22179">
        <ele>50.652</ele>
        <time>2015-09-11T13:46:23.339Z</time>
      </trkpt>
      <trkpt lat="47.05939" lon="-1.2218">
        <ele>50.322</ele>
        <time>2015-09-11T13:46:24.497Z</time>
      </trkpt>
      <trkpt lat="47.05945" lon="-1.22181">
        <ele>49.973</ele>
        <time>2015-09-11T13:46:25.369Z</time>
      </trkpt>
      <trkpt lat="47.05952" lon="-1.22184">
        <ele>49.735</ele>
        <time>2015-09-11T13:46:26.373Z</time>
      </trkpt>
      <trkpt lat="47.05959" lon="-1.22185">
        <ele>49.487</ele>
        <time>2015-09-11T13:46:27.336Z</time>
      </trkpt>
      <trkpt lat="47.05966" lon="-1.22187">
        <ele>49.228</ele>
        <time>2015-09-11T13:46:28.501Z</time>
      </trkpt>
      <trkpt lat="47.05971" lon="-1.22188">
        <ele>49.048</ele>
        <time>2015-09-11T13:46:29.357Z</time>
      </trkpt>
      <trkpt lat="47.05976" lon="-1.22188">
        <ele>49</ele>
        <time>2015-09-11T13:46:30.505Z</time>
      </trkpt>
      <trkpt lat="47.05981" lon="-1.22187">
        <ele>49</ele>
        <time>2015-09-11T13:46:31.367Z</time>
      </trkpt>
      <trkpt lat="47.0599" lon="-1.22186">
        <ele>49</ele>
        <time>2015-09-11T13:46:34.485Z</time>
      </trkpt>
      <trkpt lat="47.05991" lon="-1.22186">
        <ele>49</ele>
        <time>2015-09-11T13:46:35.357Z</time>
      </trkpt>
      <trkpt lat="47.05998" lon="-1.22186">
        <ele>49</ele>
        <time>2015-09-11T13:46:40.517Z</time>
      </trkpt>
      <trkpt lat="47.06001" lon="-1.22186">
        <ele>49</ele>
        <time>2015-09-11T13:46:41.738Z</time>
      </trkpt>
      <trkpt lat="47.06009" lon="-1.22181">
        <ele>49</ele>
        <time>2015-09-11T13:46:44.495Z</time>
      </trkpt>
      <trkpt lat="47.06012" lon="-1.2218">
        <ele>49</ele>
        <time>2015-09-11T13:46:45.357Z</time>
      </trkpt>
      <trkpt lat="47.0602" lon="-1.22175">
        <ele>49</ele>
        <time>2015-09-11T13:46:48.639Z</time>
      </trkpt>
      <trkpt lat="47.06023" lon="-1.22174">
        <ele>49</ele>
        <time>2015-09-11T13:46:49.341Z</time>
      </trkpt>
      <trkpt lat="47.06028" lon="-1.22171">
        <ele>49.039</ele>
        <time>2015-09-11T13:46:51.77Z</time>
      </trkpt>
      <trkpt lat="47.06032" lon="-1.22169">
        <ele>49.246</ele>
        <time>2015-09-11T13:46:52.335Z</time>
      </trkpt>
      <trkpt lat="47.06038" lon="-1.22165">
        <ele>49.813</ele>
        <time>2015-09-11T13:46:54.508Z</time>
      </trkpt>
      <trkpt lat="47.06041" lon="-1.22163">
        <ele>50.142</ele>
        <time>2015-09-11T13:46:55.354Z</time>
      </trkpt>
      <trkpt lat="47.06048" lon="-1.2216">
        <ele>50.767</ele>
        <time>2015-09-11T13:46:57.588Z</time>
      </trkpt>
      <trkpt lat="47.06051" lon="-1.22158">
        <ele>51.07</ele>
        <time>2015-09-11T13:46:58.342Z</time>
      </trkpt>
      <trkpt lat="47.06058" lon="-1.22154">
        <ele>51.479</ele>
        <time>2015-09-11T13:47:00.484Z</time>
      </trkpt>
      <trkpt lat="47.06062" lon="-1.22151">
        <ele>51.529</ele>
        <time>2015-09-11T13:47:01.637Z</time>
      </trkpt>
      <trkpt lat="47.06069" lon="-1.22147">
        <ele>51.504</ele>
        <time>2015-09-11T13:47:03.376Z</time>
      </trkpt>
      <trkpt lat="47.06073" lon="-1.22145">
        <ele>51.431</ele>
        <time>2015-09-11T13:47:04.367Z</time>
      </trkpt>
      <trkpt lat="47.0608" lon="-1.2214">
        <ele>51.146</ele>
        <time>2015-09-11T13:47:06.514Z</time>
      </trkpt>
      <trkpt lat="47.06084" lon="-1.22138">
        <ele>50.99</ele>
        <time>2015-09-11T13:47:07.364Z</time>
      </trkpt>
      <trkpt lat="47.06092" lon="-1.22133">
        <ele>50.896</ele>
        <time>2015-09-11T13:47:09.503Z</time>
      </trkpt>
      <trkpt lat="47.06096" lon="-1.2213">
        <ele>50.86</ele>
        <time>2015-09-11T13:47:10.362Z</time>
      </trkpt>
      <trkpt lat="47.06104" lon="-1.22124">
        <ele>50.803</ele>
        <time>2015-09-11T13:47:12.371Z</time>
      </trkpt>
      <trkpt lat="47.06108" lon="-1.22121">
        <ele>50.785</ele>
        <time>2015-09-11T13:47:13.372Z</time>
      </trkpt>
      <trkpt lat="47.06115" lon="-1.22113">
        <ele>50.921</ele>
        <time>2015-09-11T13:47:15.511Z</time>
      </trkpt>
      <trkpt lat="47.06118" lon="-1.22109">
        <ele>51.072</ele>
        <time>2015-09-11T13:47:16.356Z</time>
      </trkpt>
      <trkpt lat="47.06121" lon="-1.22105">
        <ele>51.22</ele>
        <time>2015-09-11T13:47:17.513Z</time>
      </trkpt>
      <trkpt lat="47.06125" lon="-1.221">
        <ele>51.393</ele>
        <time>2015-09-11T13:47:18.37Z</time>
      </trkpt>
      <trkpt lat="47.0613" lon="-1.22092">
        <ele>51.699</ele>
        <time>2015-09-11T13:47:21.017Z</time>
      </trkpt>
      <trkpt lat="47.06133" lon="-1.22087">
        <ele>51.868</ele>
        <time>2015-09-11T13:47:21.334Z</time>
      </trkpt>
      <trkpt lat="47.06138" lon="-1.22078">
        <ele>52.183</ele>
        <time>2015-09-11T13:47:23.494Z</time>
      </trkpt>
      <trkpt lat="47.0614" lon="-1.22074">
        <ele>52.376</ele>
        <time>2015-09-11T13:47:24.359Z</time>
      </trkpt>
      <trkpt lat="47.06145" lon="-1.22066">
        <ele>52.83</ele>
        <time>2015-09-11T13:47:26.517Z</time>
      </trkpt>
      <trkpt lat="47.06147" lon="-1.22062">
        <ele>53.053</ele>
        <time>2015-09-11T13:47:27.359Z</time>
      </trkpt>
      <trkpt lat="47.06151" lon="-1.22054">
        <ele>53.496</ele>
        <time>2015-09-11T13:47:29.372Z</time>
      </trkpt>
      <trkpt lat="47.06153" lon="-1.2205">
        <ele>53.701</ele>
        <time>2015-09-11T13:47:30.776Z</time>
      </trkpt>
      <trkpt lat="47.06158" lon="-1.22039">
        <ele>54.273</ele>
        <time>2015-09-11T13:47:33.498Z</time>
      </trkpt>
      <trkpt lat="47.0616" lon="-1.22035">
        <ele>54.478</ele>
        <time>2015-09-11T13:47:34.337Z</time>
      </trkpt>
      <trkpt lat="47.06164" lon="-1.22028">
        <ele>54.893</ele>
        <time>2015-09-11T13:47:36.522Z</time>
      </trkpt>
      <trkpt lat="47.06166" lon="-1.22024">
        <ele>54.976</ele>
        <time>2015-09-11T13:47:37.366Z</time>
      </trkpt>
      <trkpt lat="47.0617" lon="-1.22016">
        <ele>55.058</ele>
        <time>2015-09-11T13:47:39.537Z</time>
      </trkpt>
      <trkpt lat="47.06173" lon="-1.22012">
        <ele>55.129</ele>
        <time>2015-09-11T13:47:40.35Z</time>
      </trkpt>
      <trkpt lat="47.06177" lon="-1.22003">
        <ele>55.341</ele>
        <time>2015-09-11T13:47:42.384Z</time>
      </trkpt>
      <trkpt lat="47.0618" lon="-1.21999">
        <ele>55.485</ele>
        <time>2015-09-11T13:47:43.336Z</time>
      </trkpt>
      <trkpt lat="47.06184" lon="-1.2199">
        <ele>55.764</ele>
        <time>2015-09-11T13:47:45.567Z</time>
      </trkpt>
      <trkpt lat="47.06187" lon="-1.21986">
        <ele>55.862</ele>
        <time>2015-09-11T13:47:46.334Z</time>
      </trkpt>
      <trkpt lat="47.06191" lon="-1.21977">
        <ele>55.979</ele>
        <time>2015-09-11T13:47:48.529Z</time>
      </trkpt>
      <trkpt lat="47.06193" lon="-1.21973">
        <ele>55.999</ele>
        <time>2015-09-11T13:47:49.357Z</time>
      </trkpt>
      <trkpt lat="47.06198" lon="-1.21964">
        <ele>56.386</ele>
        <time>2015-09-11T13:47:51.54Z</time>
      </trkpt>
      <trkpt lat="47.06201" lon="-1.2196">
        <ele>56.574</ele>
        <time>2015-09-11T13:47:52.386Z</time>
      </trkpt>
      <trkpt lat="47.06206" lon="-1.21951">
        <ele>56.857</ele>
        <time>2015-09-11T13:47:54.374Z</time>
      </trkpt>
      <trkpt lat="47.06208" lon="-1.21947">
        <ele>56.958</ele>
        <time>2015-09-11T13:47:55.369Z</time>
      </trkpt>
      <trkpt lat="47.06212" lon="-1.21939">
        <ele>57.207</ele>
        <time>2015-09-11T13:47:57.37Z</time>
      </trkpt>
      <trkpt lat="47.06215" lon="-1.21935">
        <ele>57.344</ele>
        <time>2015-09-11T13:47:58.34Z</time>
      </trkpt>
      <trkpt lat="47.06219" lon="-1.21928">
        <ele>57.585</ele>
        <time>2015-09-11T13:48:00.513Z</time>
      </trkpt>
      <trkpt lat="47.06221" lon="-1.21925">
        <ele>57.714</ele>
        <time>2015-09-11T13:48:01.36Z</time>
      </trkpt>
      <trkpt lat="47.06226" lon="-1.21917">
        <ele>57.867</ele>
        <time>2015-09-11T13:48:03.5Z</time>
      </trkpt>
      <trkpt lat="47.06228" lon="-1.21913">
        <ele>57.931</ele>
        <time>2015-09-11T13:48:04.366Z</time>
      </trkpt>
      <trkpt lat="47.06232" lon="-1.21905">
        <ele>58.054</ele>
        <time>2015-09-11T13:48:06.367Z</time>
      </trkpt>
      <trkpt lat="47.06235" lon="-1.21901">
        <ele>58.115</ele>
        <time>2015-09-11T13:48:07.369Z</time>
      </trkpt>
      <trkpt lat="47.06239" lon="-1.21893">
        <ele>58.255</ele>
        <time>2015-09-11T13:48:09.38Z</time>
      </trkpt>
      <trkpt lat="47.06241" lon="-1.21888">
        <ele>58.338</ele>
        <time>2015-09-11T13:48:10.369Z</time>
      </trkpt>
      <trkpt lat="47.06245" lon="-1.2188">
        <ele>58.511</ele>
        <time>2015-09-11T13:48:12.563Z</time>
      </trkpt>
      <trkpt lat="47.06247" lon="-1.21876">
        <ele>58.586</ele>
        <time>2015-09-11T13:48:13.417Z</time>
      </trkpt>
      <trkpt lat="47.06251" lon="-1.21868">
        <ele>58.752</ele>
        <time>2015-09-11T13:48:15.378Z</time>
      </trkpt>
      <trkpt lat="47.06252" lon="-1.21865">
        <ele>58.878</ele>
        <time>2015-09-11T13:48:16.419Z</time>
      </trkpt>
      <trkpt lat="47.06259" lon="-1.21861">
        <ele>58.997</ele>
        <time>2015-09-11T13:48:19.518Z</time>
      </trkpt>
      <trkpt lat="47.06262" lon="-1.21864">
        <ele>58.91</ele>
        <time>2015-09-11T13:48:20.357Z</time>
      </trkpt>
      <trkpt lat="47.06266" lon="-1.21873">
        <ele>58.579</ele>
        <time>2015-09-11T13:48:22.368Z</time>
      </trkpt>
      <trkpt lat="47.06267" lon="-1.21878">
        <ele>58.381</ele>
        <time>2015-09-11T13:48:23.362Z</time>
      </trkpt>
      <trkpt lat="47.06271" lon="-1.2189">
        <ele>57.994</ele>
        <time>2015-09-11T13:48:25.369Z</time>
      </trkpt>
      <trkpt lat="47.06274" lon="-1.21898">
        <ele>57.955</ele>
        <time>2015-09-11T13:48:26.367Z</time>
      </trkpt>
      <trkpt lat="47.06276" lon="-1.21903">
        <ele>57.962</ele>
        <time>2015-09-11T13:48:27.371Z</time>
      </trkpt>
      <trkpt lat="47.06279" lon="-1.21914">
        <ele>58.04</ele>
        <time>2015-09-11T13:48:28.335Z</time>
      </trkpt>
      <trkpt lat="47.06283" lon="-1.21926">
        <ele>58.177</ele>
        <time>2015-09-11T13:48:30.493Z</time>
      </trkpt>
      <trkpt lat="47.06285" lon="-1.21931">
        <ele>58.256</ele>
        <time>2015-09-11T13:48:31.36Z</time>
      </trkpt>
      <trkpt lat="47.06289" lon="-1.2194">
        <ele>58.386</ele>
        <time>2015-09-11T13:48:32.53Z</time>
      </trkpt>
      <trkpt lat="47.06292" lon="-1.21948">
        <ele>58.38</ele>
        <time>2015-09-11T13:48:33.362Z</time>
      </trkpt>
      <trkpt lat="47.06294" lon="-1.21955">
        <ele>58.208</ele>
        <time>2015-09-11T13:48:34.372Z</time>
      </trkpt>
      <trkpt lat="47.06298" lon="-1.21964">
        <ele>58.017</ele>
        <time>2015-09-11T13:48:35.339Z</time>
      </trkpt>
      <trkpt lat="47.063" lon="-1.21972">
        <ele>57.815</ele>
        <time>2015-09-11T13:48:36.513Z</time>
      </trkpt>
      <trkpt lat="47.06303" lon="-1.2198">
        <ele>57.646</ele>
        <time>2015-09-11T13:48:37.362Z</time>
      </trkpt>
      <trkpt lat="47.06305" lon="-1.21986">
        <ele>57.477</ele>
        <time>2015-09-11T13:48:38.377Z</time>
      </trkpt>
      <trkpt lat="47.06307" lon="-1.21994">
        <ele>57.223</ele>
        <time>2015-09-11T13:48:39.334Z</time>
      </trkpt>
      <trkpt lat="47.06309" lon="-1.22002">
        <ele>56.907</ele>
        <time>2015-09-11T13:48:40.517Z</time>
      </trkpt>
      <trkpt lat="47.06311" lon="-1.22011">
        <ele>56.386</ele>
        <time>2015-09-11T13:48:41.367Z</time>
      </trkpt>
      <trkpt lat="47.06314" lon="-1.22019">
        <ele>56.028</ele>
        <time>2015-09-11T13:48:42.387Z</time>
      </trkpt>
      <trkpt lat="47.06315" lon="-1.22027">
        <ele>55.757</ele>
        <time>2015-09-11T13:48:43.338Z</time>
      </trkpt>
      <trkpt lat="47.06318" lon="-1.22034">
        <ele>55.767</ele>
        <time>2015-09-11T13:48:44.481Z</time>
      </trkpt>
      <trkpt lat="47.06318" lon="-1.22042">
        <ele>55.688</ele>
        <time>2015-09-11T13:48:45.361Z</time>
      </trkpt>
      <trkpt lat="47.06319" lon="-1.2205">
        <ele>55.583</ele>
        <time>2015-09-11T13:48:46.369Z</time>
      </trkpt>
      <trkpt lat="47.0632" lon="-1.22058">
        <ele>55.506</ele>
        <time>2015-09-11T13:48:47.334Z</time>
      </trkpt>
      <trkpt lat="47.0632" lon="-1.22066">
        <ele>55.527</ele>
        <time>2015-09-11T13:48:48.507Z</time>
      </trkpt>
      <trkpt lat="47.0632" lon="-1.22074">
        <ele>55.524</ele>
        <time>2015-09-11T13:48:49.353Z</time>
      </trkpt>
      <trkpt lat="47.06321" lon="-1.22082">
        <ele>55.538</ele>
        <time>2015-09-11T13:48:50.371Z</time>
      </trkpt>
      <trkpt lat="47.06321" lon="-1.22089">
        <ele>55.567</ele>
        <time>2015-09-11T13:48:51.335Z</time>
      </trkpt>
      <trkpt lat="47.06321" lon="-1.22099">
        <ele>55.563</ele>
        <time>2015-09-11T13:48:52.569Z</time>
      </trkpt>
      <trkpt lat="47.06321" lon="-1.22108">
        <ele>55.556</ele>
        <time>2015-09-11T13:48:53.36Z</time>
      </trkpt>
      <trkpt lat="47.06323" lon="-1.22117">
        <ele>55.617</ele>
        <time>2015-09-11T13:48:54.367Z</time>
      </trkpt>
      <trkpt lat="47.06324" lon="-1.22124">
        <ele>55.664</ele>
        <time>2015-09-11T13:48:55.337Z</time>
      </trkpt>
      <trkpt lat="47.06325" lon="-1.22131">
        <ele>55.682</ele>
        <time>2015-09-11T13:48:56.507Z</time>
      </trkpt>
      <trkpt lat="47.06324" lon="-1.22141">
        <ele>55.615</ele>
        <time>2015-09-11T13:48:57.336Z</time>
      </trkpt>
      <trkpt lat="47.06323" lon="-1.22149">
        <ele>55.413</ele>
        <time>2015-09-11T13:48:58.369Z</time>
      </trkpt>
      <trkpt lat="47.06324" lon="-1.22158">
        <ele>55.216</ele>
        <time>2015-09-11T13:48:59.36Z</time>
      </trkpt>
      <trkpt lat="47.06324" lon="-1.22167">
        <ele>55.004</ele>
        <time>2015-09-11T13:49:00.37Z</time>
      </trkpt>
      <trkpt lat="47.06325" lon="-1.22175">
        <ele>55</ele>
        <time>2015-09-11T13:49:01.335Z</time>
      </trkpt>
      <trkpt lat="47.06326" lon="-1.22185">
        <ele>55</ele>
        <time>2015-09-11T13:49:02.506Z</time>
      </trkpt>
      <trkpt lat="47.06327" lon="-1.22193">
        <ele>55</ele>
        <time>2015-09-11T13:49:03.421Z</time>
      </trkpt>
      <trkpt lat="47.06329" lon="-1.22201">
        <ele>55.203</ele>
        <time>2015-09-11T13:49:04.368Z</time>
      </trkpt>
      <trkpt lat="47.06329" lon="-1.2221">
        <ele>55.475</ele>
        <time>2015-09-11T13:49:05.338Z</time>
      </trkpt>
      <trkpt lat="47.06331" lon="-1.22218">
        <ele>55.765</ele>
        <time>2015-09-11T13:49:06.504Z</time>
      </trkpt>
      <trkpt lat="47.06333" lon="-1.22224">
        <ele>55.988</ele>
        <time>2015-09-11T13:49:07.38Z</time>
      </trkpt>
      <trkpt lat="47.06333" lon="-1.22232">
        <ele>56.005</ele>
        <time>2015-09-11T13:49:08.491Z</time>
      </trkpt>
      <trkpt lat="47.06333" lon="-1.22242">
        <ele>55.999</ele>
        <time>2015-09-11T13:49:09.338Z</time>
      </trkpt>
      <trkpt lat="47.06335" lon="-1.22248">
        <ele>56.113</ele>
        <time>2015-09-11T13:49:10.503Z</time>
      </trkpt>
      <trkpt lat="47.06337" lon="-1.22255">
        <ele>56.221</ele>
        <time>2015-09-11T13:49:11.366Z</time>
      </trkpt>
      <trkpt lat="47.06337" lon="-1.22265">
        <ele>56.189</ele>
        <time>2015-09-11T13:49:12.373Z</time>
      </trkpt>
      <trkpt lat="47.06339" lon="-1.22272">
        <ele>56.241</ele>
        <time>2015-09-11T13:49:13.349Z</time>
      </trkpt>
      <trkpt lat="47.06341" lon="-1.22278">
        <ele>56.268</ele>
        <time>2015-09-11T13:49:14.493Z</time>
      </trkpt>
      <trkpt lat="47.06343" lon="-1.22284">
        <ele>56.102</ele>
        <time>2015-09-11T13:49:15.372Z</time>
      </trkpt>
      <trkpt lat="47.06344" lon="-1.22292">
        <ele>55.879</ele>
        <time>2015-09-11T13:49:16.503Z</time>
      </trkpt>
      <trkpt lat="47.06347" lon="-1.223">
        <ele>55.681</ele>
        <time>2015-09-11T13:49:17.374Z</time>
      </trkpt>
      <trkpt lat="47.06349" lon="-1.2231">
        <ele>55.478</ele>
        <time>2015-09-11T13:49:18.626Z</time>
      </trkpt>
      <trkpt lat="47.06351" lon="-1.22317">
        <ele>55.367</ele>
        <time>2015-09-11T13:49:19.41Z</time>
      </trkpt>
      <trkpt lat="47.06355" lon="-1.22324">
        <ele>55.257</ele>
        <time>2015-09-11T13:49:20.372Z</time>
      </trkpt>
      <trkpt lat="47.06358" lon="-1.2233">
        <ele>55.105</ele>
        <time>2015-09-11T13:49:21.345Z</time>
      </trkpt>
      <trkpt lat="47.06359" lon="-1.22334">
        <ele>54.926</ele>
        <time>2015-09-11T13:49:22.54Z</time>
      </trkpt>
      <trkpt lat="47.06363" lon="-1.22342">
        <ele>54.42</ele>
        <time>2015-09-11T13:49:23.375Z</time>
      </trkpt>
      <trkpt lat="47.06366" lon="-1.22347">
        <ele>54.107</ele>
        <time>2015-09-11T13:49:24.552Z</time>
      </trkpt>
      <trkpt lat="47.06368" lon="-1.22356">
        <ele>53.57</ele>
        <time>2015-09-11T13:49:25.367Z</time>
      </trkpt>
      <trkpt lat="47.0637" lon="-1.22362">
        <ele>53.327</ele>
        <time>2015-09-11T13:49:26.549Z</time>
      </trkpt>
      <trkpt lat="47.06373" lon="-1.22368">
        <ele>53.435</ele>
        <time>2015-09-11T13:49:27.364Z</time>
      </trkpt>
      <trkpt lat="47.06376" lon="-1.22377">
        <ele>53.543</ele>
        <time>2015-09-11T13:49:28.495Z</time>
      </trkpt>
      <trkpt lat="47.0638" lon="-1.22389">
        <ele>53.687</ele>
        <time>2015-09-11T13:49:29.364Z</time>
      </trkpt>
      <trkpt lat="47.06383" lon="-1.22394">
        <ele>53.777</ele>
        <time>2015-09-11T13:49:30.507Z</time>
      </trkpt>
      <trkpt lat="47.06387" lon="-1.22404">
        <ele>53.914</ele>
        <time>2015-09-11T13:49:31.339Z</time>
      </trkpt>
      <trkpt lat="47.06388" lon="-1.22411">
        <ele>53.961</ele>
        <time>2015-09-11T13:49:32.502Z</time>
      </trkpt>
      <trkpt lat="47.0639" lon="-1.22419">
        <ele>54.143</ele>
        <time>2015-09-11T13:49:33.37Z</time>
      </trkpt>
      <trkpt lat="47.06391" lon="-1.22425">
        <ele>54.454</ele>
        <time>2015-09-11T13:49:34.502Z</time>
      </trkpt>
      <trkpt lat="47.06395" lon="-1.22431">
        <ele>54.829</ele>
        <time>2015-09-11T13:49:35.368Z</time>
      </trkpt>
      <trkpt lat="47.06396" lon="-1.2244">
        <ele>55.16</ele>
        <time>2015-09-11T13:49:37.547Z</time>
      </trkpt>
      <trkpt lat="47.06398" lon="-1.22447">
        <ele>55.324</ele>
        <time>2015-09-11T13:49:38.373Z</time>
      </trkpt>
      <trkpt lat="47.06406" lon="-1.2245">
        <ele>55.63</ele>
        <time>2015-09-11T13:49:41.51Z</time>
      </trkpt>
      <trkpt lat="47.06408" lon="-1.22448">
        <ele>55.681</ele>
        <time>2015-09-11T13:49:42.336Z</time>
      </trkpt>
      <trkpt lat="47.06413" lon="-1.22439">
        <ele>55.844</ele>
        <time>2015-09-11T13:49:45.571Z</time>
      </trkpt>
      <trkpt lat="47.06415" lon="-1.22435">
        <ele>55.915</ele>
        <time>2015-09-11T13:49:46.364Z</time>
      </trkpt>
      <trkpt lat="47.06419" lon="-1.22429">
        <ele>56.048</ele>
        <time>2015-09-11T13:49:48.38Z</time>
      </trkpt>
      <trkpt lat="47.06421" lon="-1.22425">
        <ele>56.108</ele>
        <time>2015-09-11T13:49:49.357Z</time>
      </trkpt>
      <trkpt lat="47.06425" lon="-1.22418">
        <ele>56.291</ele>
        <time>2015-09-11T13:49:51.369Z</time>
      </trkpt>
      <trkpt lat="47.06427" lon="-1.22415">
        <ele>56.413</ele>
        <time>2015-09-11T13:49:52.363Z</time>
      </trkpt>
      <trkpt lat="47.06432" lon="-1.22407">
        <ele>56.724</ele>
        <time>2015-09-11T13:49:54.502Z</time>
      </trkpt>
      <trkpt lat="47.06434" lon="-1.22403">
        <ele>56.907</ele>
        <time>2015-09-11T13:49:55.371Z</time>
      </trkpt>
      <trkpt lat="47.06438" lon="-1.22395">
        <ele>57.355</ele>
        <time>2015-09-11T13:49:57.377Z</time>
      </trkpt>
      <trkpt lat="47.0644" lon="-1.22391">
        <ele>57.614</ele>
        <time>2015-09-11T13:49:58.418Z</time>
      </trkpt>
      <trkpt lat="47.06445" lon="-1.22383">
        <ele>58.214</ele>
        <time>2015-09-11T13:50:00.372Z</time>
      </trkpt>
      <trkpt lat="47.06447" lon="-1.22379">
        <ele>58.448</ele>
        <time>2015-09-11T13:50:01.363Z</time>
      </trkpt>
      <trkpt lat="47.06452" lon="-1.22371">
        <ele>58.894</ele>
        <time>2015-09-11T13:50:03.371Z</time>
      </trkpt>
      <trkpt lat="47.06454" lon="-1.22367">
        <ele>59.143</ele>
        <time>2015-09-11T13:50:04.344Z</time>
      </trkpt>
      <trkpt lat="47.06459" lon="-1.22358">
        <ele>59.524</ele>
        <time>2015-09-11T13:50:06.373Z</time>
      </trkpt>
      <trkpt lat="47.06462" lon="-1.22354">
        <ele>59.614</ele>
        <time>2015-09-11T13:50:07.363Z</time>
      </trkpt>
      <trkpt lat="47.06466" lon="-1.22345">
        <ele>59.787</ele>
        <time>2015-09-11T13:50:09.492Z</time>
      </trkpt>
      <trkpt lat="47.06469" lon="-1.22341">
        <ele>59.88</ele>
        <time>2015-09-11T13:50:10.361Z</time>
      </trkpt>
      <trkpt lat="47.06474" lon="-1.22333">
        <ele>60.071</ele>
        <time>2015-09-11T13:50:12.59Z</time>
      </trkpt>
      <trkpt lat="47.06477" lon="-1.22329">
        <ele>60.154</ele>
        <time>2015-09-11T13:50:13.365Z</time>
      </trkpt>
      <trkpt lat="47.06484" lon="-1.22326">
        <ele>60.438</ele>
        <time>2015-09-11T13:50:16.609Z</time>
      </trkpt>
      <trkpt lat="47.06487" lon="-1.22329">
        <ele>60.528</ele>
        <time>2015-09-11T13:50:17.354Z</time>
      </trkpt>
      <trkpt lat="47.06491" lon="-1.22338">
        <ele>60.669</ele>
        <time>2015-09-11T13:50:19.368Z</time>
      </trkpt>
      <trkpt lat="47.06493" lon="-1.22342">
        <ele>60.748</ele>
        <time>2015-09-11T13:50:20.36Z</time>
      </trkpt>
      <trkpt lat="47.06497" lon="-1.22349">
        <ele>60.892</ele>
        <time>2015-09-11T13:50:22.499Z</time>
      </trkpt>
      <trkpt lat="47.06499" lon="-1.22352">
        <ele>60.971</ele>
        <time>2015-09-11T13:50:23.381Z</time>
      </trkpt>
      <trkpt lat="47.06504" lon="-1.22359">
        <ele>61.164</ele>
        <time>2015-09-11T13:50:25.486Z</time>
      </trkpt>
      <trkpt lat="47.06507" lon="-1.22363">
        <ele>61.228</ele>
        <time>2015-09-11T13:50:26.774Z</time>
      </trkpt>
      <trkpt lat="47.06513" lon="-1.22367">
        <ele>61.365</ele>
        <time>2015-09-11T13:50:28.371Z</time>
      </trkpt>
      <trkpt lat="47.06516" lon="-1.22367">
        <ele>61.457</ele>
        <time>2015-09-11T13:50:29.355Z</time>
      </trkpt>
      <trkpt lat="47.06523" lon="-1.2236">
        <ele>61.876</ele>
        <time>2015-09-11T13:50:32.576Z</time>
      </trkpt>
      <trkpt lat="47.06525" lon="-1.22357">
        <ele>62.058</ele>
        <time>2015-09-11T13:50:33.474Z</time>
      </trkpt>
      <trkpt lat="47.06529" lon="-1.22349">
        <ele>62.466</ele>
        <time>2015-09-11T13:50:35.501Z</time>
      </trkpt>
      <trkpt lat="47.06531" lon="-1.22346">
        <ele>62.717</ele>
        <time>2015-09-11T13:50:36.372Z</time>
      </trkpt>
      <trkpt lat="47.06535" lon="-1.22339">
        <ele>63.242</ele>
        <time>2015-09-11T13:50:38.622Z</time>
      </trkpt>
      <trkpt lat="47.06537" lon="-1.22336">
        <ele>63.521</ele>
        <time>2015-09-11T13:50:39.334Z</time>
      </trkpt>
      <trkpt lat="47.06541" lon="-1.22325">
        <ele>64.559</ele>
        <time>2015-09-11T13:50:42.659Z</time>
      </trkpt>
      <trkpt lat="47.06543" lon="-1.22322">
        <ele>64.912</ele>
        <time>2015-09-11T13:50:43.375Z</time>
      </trkpt>
      <trkpt lat="47.06548" lon="-1.22312">
        <ele>66.021</ele>
        <time>2015-09-11T13:50:46.496Z</time>
      </trkpt>
      <trkpt lat="47.0655" lon="-1.22308">
        <ele>66.41</ele>
        <time>2015-09-11T13:50:47.388Z</time>
      </trkpt>
      <trkpt lat="47.06554" lon="-1.22301">
        <ele>67.176</ele>
        <time>2015-09-11T13:50:49.367Z</time>
      </trkpt>
      <trkpt lat="47.06556" lon="-1.22298">
        <ele>67.566</ele>
        <time>2015-09-11T13:50:50.353Z</time>
      </trkpt>
      <trkpt lat="47.06559" lon="-1.2229">
        <ele>68.098</ele>
        <time>2015-09-11T13:50:52.507Z</time>
      </trkpt>
      <trkpt lat="47.06562" lon="-1.22286">
        <ele>68.386</ele>
        <time>2015-09-11T13:50:53.436Z</time>
      </trkpt>
      <trkpt lat="47.06567" lon="-1.22277">
        <ele>69.042</ele>
        <time>2015-09-11T13:50:56.508Z</time>
      </trkpt>
      <trkpt lat="47.06568" lon="-1.22274">
        <ele>69.272</ele>
        <time>2015-09-11T13:50:57.36Z</time>
      </trkpt>
      <trkpt lat="47.06574" lon="-1.22264">
        <ele>69.999</ele>
        <time>2015-09-11T13:51:00.487Z</time>
      </trkpt>
      <trkpt lat="47.06575" lon="-1.22261">
        <ele>70.244</ele>
        <time>2015-09-11T13:51:01.365Z</time>
      </trkpt>
      <trkpt lat="47.06581" lon="-1.22252">
        <ele>70.87</ele>
        <time>2015-09-11T13:51:04.554Z</time>
      </trkpt>
      <trkpt lat="47.06583" lon="-1.22249">
        <ele>71.032</ele>
        <time>2015-09-11T13:51:05.356Z</time>
      </trkpt>
      <trkpt lat="47.06588" lon="-1.22238">
        <ele>70.953</ele>
        <time>2015-09-11T13:51:08.479Z</time>
      </trkpt>
      <trkpt lat="47.06589" lon="-1.22235">
        <ele>70.906</ele>
        <time>2015-09-11T13:51:09.359Z</time>
      </trkpt>
      <trkpt lat="47.06594" lon="-1.22224">
        <ele>70.77</ele>
        <time>2015-09-11T13:51:12.507Z</time>
      </trkpt>
      <trkpt lat="47.06596" lon="-1.22221">
        <ele>70.69</ele>
        <time>2015-09-11T13:51:13.364Z</time>
      </trkpt>
      <trkpt lat="47.066" lon="-1.22213">
        <ele>70.449</ele>
        <time>2015-09-11T13:51:15.492Z</time>
      </trkpt>
      <trkpt lat="47.06602" lon="-1.22209">
        <ele>70.361</ele>
        <time>2015-09-11T13:51:16.364Z</time>
      </trkpt>
      <trkpt lat="47.06606" lon="-1.22199">
        <ele>70.27</ele>
        <time>2015-09-11T13:51:18.485Z</time>
      </trkpt>
      <trkpt lat="47.06608" lon="-1.22194">
        <ele>70.238</ele>
        <time>2015-09-11T13:51:19.363Z</time>
      </trkpt>
      <trkpt lat="47.06611" lon="-1.22189">
        <ele>70.04</ele>
        <time>2015-09-11T13:51:20.547Z</time>
      </trkpt>
      <trkpt lat="47.06613" lon="-1.22183">
        <ele>69.857</ele>
        <time>2015-09-11T13:51:21.335Z</time>
      </trkpt>
      <trkpt lat="47.06616" lon="-1.22178">
        <ele>69.662</ele>
        <time>2015-09-11T13:51:22.41Z</time>
      </trkpt>
      <trkpt lat="47.06619" lon="-1.22172">
        <ele>69.461</ele>
        <time>2015-09-11T13:51:23.369Z</time>
      </trkpt>
      <trkpt lat="47.06622" lon="-1.22167">
        <ele>69.252</ele>
        <time>2015-09-11T13:51:24.484Z</time>
      </trkpt>
      <trkpt lat="47.06625" lon="-1.22161">
        <ele>69.129</ele>
        <time>2015-09-11T13:51:25.354Z</time>
      </trkpt>
      <trkpt lat="47.06627" lon="-1.22156">
        <ele>69.058</ele>
        <time>2015-09-11T13:51:26.548Z</time>
      </trkpt>
      <trkpt lat="47.0663" lon="-1.22151">
        <ele>69.023</ele>
        <time>2015-09-11T13:51:27.367Z</time>
      </trkpt>
      <trkpt lat="47.06636" lon="-1.22141">
        <ele>69.065</ele>
        <time>2015-09-11T13:51:29.885Z</time>
      </trkpt>
      <trkpt lat="47.06638" lon="-1.22136">
        <ele>69.119</ele>
        <time>2015-09-11T13:51:30.365Z</time>
      </trkpt>
      <trkpt lat="47.06644" lon="-1.22127">
        <ele>69.258</ele>
        <time>2015-09-11T13:51:32.494Z</time>
      </trkpt>
      <trkpt lat="47.06646" lon="-1.22122">
        <ele>69.33</ele>
        <time>2015-09-11T13:51:33.359Z</time>
      </trkpt>
      <trkpt lat="47.06651" lon="-1.22113">
        <ele>69.51</ele>
        <time>2015-09-11T13:51:35.367Z</time>
      </trkpt>
      <trkpt lat="47.06653" lon="-1.22108">
        <ele>69.554</ele>
        <time>2015-09-11T13:51:36.46Z</time>
      </trkpt>
      <trkpt lat="47.06658" lon="-1.22098">
        <ele>69.641</ele>
        <time>2015-09-11T13:51:38.375Z</time>
      </trkpt>
      <trkpt lat="47.0666" lon="-1.22094">
        <ele>69.711</ele>
        <time>2015-09-11T13:51:39.354Z</time>
      </trkpt>
      <trkpt lat="47.06665" lon="-1.22086">
        <ele>69.917</ele>
        <time>2015-09-11T13:51:41.379Z</time>
      </trkpt>
      <trkpt lat="47.06668" lon="-1.22083">
        <ele>69.92</ele>
        <time>2015-09-11T13:51:42.36Z</time>
      </trkpt>
      <trkpt lat="47.06674" lon="-1.22078">
        <ele>69.514</ele>
        <time>2015-09-11T13:51:44.369Z</time>
      </trkpt>
      <trkpt lat="47.06677" lon="-1.22076">
        <ele>69.389</ele>
        <time>2015-09-11T13:51:45.365Z</time>
      </trkpt>
      <trkpt lat="47.06681" lon="-1.22066">
        <ele>69.308</ele>
        <time>2015-09-11T13:51:48.488Z</time>
      </trkpt>
      <trkpt lat="47.06683" lon="-1.22063">
        <ele>69.281</ele>
        <time>2015-09-11T13:51:49.334Z</time>
      </trkpt>
      <trkpt lat="47.06687" lon="-1.22055">
        <ele>69.277</ele>
        <time>2015-09-11T13:51:51.557Z</time>
      </trkpt>
      <trkpt lat="47.06689" lon="-1.22051">
        <ele>69.316</ele>
        <time>2015-09-11T13:51:52.372Z</time>
      </trkpt>
      <trkpt lat="47.06694" lon="-1.22042">
        <ele>69.483</ele>
        <time>2015-09-11T13:51:54.511Z</time>
      </trkpt>
      <trkpt lat="47.06698" lon="-1.22036">
        <ele>69.576</ele>
        <time>2015-09-11T13:51:55.359Z</time>
      </trkpt>
      <trkpt lat="47.06702" lon="-1.22031">
        <ele>69.616</ele>
        <time>2015-09-11T13:51:56.493Z</time>
      </trkpt>
      <trkpt lat="47.06706" lon="-1.22025">
        <ele>69.67</ele>
        <time>2015-09-11T13:51:57.362Z</time>
      </trkpt>
      <trkpt lat="47.06708" lon="-1.22019">
        <ele>69.807</ele>
        <time>2015-09-11T13:51:58.918Z</time>
      </trkpt>
      <trkpt lat="47.06711" lon="-1.22013">
        <ele>70.03</ele>
        <time>2015-09-11T13:51:59.339Z</time>
      </trkpt>
      <trkpt lat="47.06715" lon="-1.22009">
        <ele>70.282</ele>
        <time>2015-09-11T13:52:00.369Z</time>
      </trkpt>
      <trkpt lat="47.06717" lon="-1.22003">
        <ele>70.63</ele>
        <time>2015-09-11T13:52:01.342Z</time>
      </trkpt>
      <trkpt lat="47.06721" lon="-1.21995">
        <ele>70.782</ele>
        <time>2015-09-11T13:52:02.489Z</time>
      </trkpt>
      <trkpt lat="47.06724" lon="-1.21989">
        <ele>70.559</ele>
        <time>2015-09-11T13:52:03.432Z</time>
      </trkpt>
      <trkpt lat="47.06728" lon="-1.21983">
        <ele>70.319</ele>
        <time>2015-09-11T13:52:04.489Z</time>
      </trkpt>
      <trkpt lat="47.06731" lon="-1.21978">
        <ele>70.145</ele>
        <time>2015-09-11T13:52:05.359Z</time>
      </trkpt>
      <trkpt lat="47.06734" lon="-1.21972">
        <ele>69.989</ele>
        <time>2015-09-11T13:52:06.497Z</time>
      </trkpt>
      <trkpt lat="47.06736" lon="-1.21966">
        <ele>69.877</ele>
        <time>2015-09-11T13:52:07.373Z</time>
      </trkpt>
      <trkpt lat="47.06739" lon="-1.2196">
        <ele>69.727</ele>
        <time>2015-09-11T13:52:08.504Z</time>
      </trkpt>
      <trkpt lat="47.06742" lon="-1.21951">
        <ele>69.453</ele>
        <time>2015-09-11T13:52:09.362Z</time>
      </trkpt>
      <trkpt lat="47.06744" lon="-1.21944">
        <ele>69.225</ele>
        <time>2015-09-11T13:52:10.409Z</time>
      </trkpt>
      <trkpt lat="47.06745" lon="-1.21938">
        <ele>69.148</ele>
        <time>2015-09-11T13:52:11.335Z</time>
      </trkpt>
      <trkpt lat="47.0675" lon="-1.21929">
        <ele>68.998</ele>
        <time>2015-09-11T13:52:13.371Z</time>
      </trkpt>
      <trkpt lat="47.06753" lon="-1.21924">
        <ele>68.909</ele>
        <time>2015-09-11T13:52:14.333Z</time>
      </trkpt>
      <trkpt lat="47.06758" lon="-1.21915">
        <ele>68.653</ele>
        <time>2015-09-11T13:52:16.503Z</time>
      </trkpt>
      <trkpt lat="47.06761" lon="-1.21911">
        <ele>68.481</ele>
        <time>2015-09-11T13:52:17.369Z</time>
      </trkpt>
      <trkpt lat="47.06767" lon="-1.21903">
        <ele>68.203</ele>
        <time>2015-09-11T13:52:19.49Z</time>
      </trkpt>
      <trkpt lat="47.06771" lon="-1.21902">
        <ele>68.113</ele>
        <time>2015-09-11T13:52:20.363Z</time>
      </trkpt>
      <trkpt lat="47.0678" lon="-1.21905">
        <ele>67.931</ele>
        <time>2015-09-11T13:52:22.376Z</time>
      </trkpt>
      <trkpt lat="47.06783" lon="-1.21909">
        <ele>67.805</ele>
        <time>2015-09-11T13:52:23.363Z</time>
      </trkpt>
      <trkpt lat="47.06789" lon="-1.2192">
        <ele>67.716</ele>
        <time>2015-09-11T13:52:25.493Z</time>
      </trkpt>
      <trkpt lat="47.06792" lon="-1.21924">
        <ele>67.756</ele>
        <time>2015-09-11T13:52:26.37Z</time>
      </trkpt>
      <trkpt lat="47.06796" lon="-1.2193">
        <ele>67.824</ele>
        <time>2015-09-11T13:52:27.483Z</time>
      </trkpt>
      <trkpt lat="47.06799" lon="-1.21935">
        <ele>67.889</ele>
        <time>2015-09-11T13:52:28.437Z</time>
      </trkpt>
      <trkpt lat="47.06803" lon="-1.2194">
        <ele>67.932</ele>
        <time>2015-09-11T13:52:29.492Z</time>
      </trkpt>
      <trkpt lat="47.06806" lon="-1.21945">
        <ele>67.939</ele>
        <time>2015-09-11T13:52:30.369Z</time>
      </trkpt>
      <trkpt lat="47.0681" lon="-1.21951">
        <ele>67.658</ele>
        <time>2015-09-11T13:52:31.374Z</time>
      </trkpt>
      <trkpt lat="47.06815" lon="-1.21956">
        <ele>67.313</ele>
        <time>2015-09-11T13:52:32.334Z</time>
      </trkpt>
      <trkpt lat="47.06819" lon="-1.21963">
        <ele>67.01</ele>
        <time>2015-09-11T13:52:33.786Z</time>
      </trkpt>
      <trkpt lat="47.06823" lon="-1.21969">
        <ele>66.715</ele>
        <time>2015-09-11T13:52:34.334Z</time>
      </trkpt>
      <trkpt lat="47.06828" lon="-1.21974">
        <ele>66.39</ele>
        <time>2015-09-11T13:52:35.369Z</time>
      </trkpt>
      <trkpt lat="47.06832" lon="-1.21981">
        <ele>66.057</ele>
        <time>2015-09-11T13:52:36.36Z</time>
      </trkpt>
      <trkpt lat="47.06837" lon="-1.21987">
        <ele>66</ele>
        <time>2015-09-11T13:52:37.501Z</time>
      </trkpt>
      <trkpt lat="47.06841" lon="-1.21994">
        <ele>66</ele>
        <time>2015-09-11T13:52:38.364Z</time>
      </trkpt>
      <trkpt lat="47.06845" lon="-1.22">
        <ele>66</ele>
        <time>2015-09-11T13:52:39.503Z</time>
      </trkpt>
      <trkpt lat="47.06849" lon="-1.22007">
        <ele>65.855</ele>
        <time>2015-09-11T13:52:40.363Z</time>
      </trkpt>
      <trkpt lat="47.06854" lon="-1.22014">
        <ele>65.631</ele>
        <time>2015-09-11T13:52:41.708Z</time>
      </trkpt>
      <trkpt lat="47.06858" lon="-1.22021">
        <ele>65.336</ele>
        <time>2015-09-11T13:52:42.335Z</time>
      </trkpt>
      <trkpt lat="47.06861" lon="-1.22027">
        <ele>65.042</ele>
        <time>2015-09-11T13:52:43.368Z</time>
      </trkpt>
      <trkpt lat="47.06865" lon="-1.22033">
        <ele>64.837</ele>
        <time>2015-09-11T13:52:44.353Z</time>
      </trkpt>
      <trkpt lat="47.06869" lon="-1.22039">
        <ele>64.708</ele>
        <time>2015-09-11T13:52:45.487Z</time>
      </trkpt>
      <trkpt lat="47.06871" lon="-1.22044">
        <ele>64.632</ele>
        <time>2015-09-11T13:52:46.362Z</time>
      </trkpt>
      <trkpt lat="47.06875" lon="-1.22051">
        <ele>64.598</ele>
        <time>2015-09-11T13:52:47.356Z</time>
      </trkpt>
      <trkpt lat="47.06879" lon="-1.22055">
        <ele>64.644</ele>
        <time>2015-09-11T13:52:48.334Z</time>
      </trkpt>
      <trkpt lat="47.06882" lon="-1.2206">
        <ele>64.618</ele>
        <time>2015-09-11T13:52:49.591Z</time>
      </trkpt>
      <trkpt lat="47.06885" lon="-1.22066">
        <ele>64.538</ele>
        <time>2015-09-11T13:52:50.361Z</time>
      </trkpt>
      <trkpt lat="47.06892" lon="-1.22075">
        <ele>64.282</ele>
        <time>2015-09-11T13:52:52.516Z</time>
      </trkpt>
      <trkpt lat="47.06895" lon="-1.22079">
        <ele>64.125</ele>
        <time>2015-09-11T13:52:53.366Z</time>
      </trkpt>
      <trkpt lat="47.069" lon="-1.22089">
        <ele>63.879</ele>
        <time>2015-09-11T13:52:55.375Z</time>
      </trkpt>
      <trkpt lat="47.06904" lon="-1.22096">
        <ele>63.795</ele>
        <time>2015-09-11T13:52:56.362Z</time>
      </trkpt>
      <trkpt lat="47.06907" lon="-1.22102">
        <ele>63.776</ele>
        <time>2015-09-11T13:52:57.5Z</time>
      </trkpt>
      <trkpt lat="47.06909" lon="-1.22107">
        <ele>63.782</ele>
        <time>2015-09-11T13:52:58.38Z</time>
      </trkpt>
      <trkpt lat="47.06915" lon="-1.22116">
        <ele>63.79</ele>
        <time>2015-09-11T13:53:00.5Z</time>
      </trkpt>
      <trkpt lat="47.06919" lon="-1.22121">
        <ele>63.604</ele>
        <time>2015-09-11T13:53:01.362Z</time>
      </trkpt>
      <trkpt lat="47.06921" lon="-1.22126">
        <ele>63.385</ele>
        <time>2015-09-11T13:53:02.501Z</time>
      </trkpt>
      <trkpt lat="47.06923" lon="-1.22135">
        <ele>63.122</ele>
        <time>2015-09-11T13:53:03.358Z</time>
      </trkpt>
      <trkpt lat="47.06923" lon="-1.22144">
        <ele>63</ele>
        <time>2015-09-11T13:53:04.889Z</time>
      </trkpt>
      <trkpt lat="47.06923" lon="-1.22153">
        <ele>63</ele>
        <time>2015-09-11T13:53:05.433Z</time>
      </trkpt>
      <trkpt lat="47.06924" lon="-1.22165">
        <ele>63</ele>
        <time>2015-09-11T13:53:06.489Z</time>
      </trkpt>
      <trkpt lat="47.06923" lon="-1.22175">
        <ele>62.711</ele>
        <time>2015-09-11T13:53:07.36Z</time>
      </trkpt>
      <trkpt lat="47.06922" lon="-1.22182">
        <ele>62.441</ele>
        <time>2015-09-11T13:53:08.596Z</time>
      </trkpt>
      <trkpt lat="47.06922" lon="-1.22191">
        <ele>62.142</ele>
        <time>2015-09-11T13:53:09.338Z</time>
      </trkpt>
      <trkpt lat="47.06921" lon="-1.22199">
        <ele>61.825</ele>
        <time>2015-09-11T13:53:10.371Z</time>
      </trkpt>
      <trkpt lat="47.0692" lon="-1.22208">
        <ele>61.512</ele>
        <time>2015-09-11T13:53:11.371Z</time>
      </trkpt>
      <trkpt lat="47.06919" lon="-1.22217">
        <ele>61.184</ele>
        <time>2015-09-11T13:53:12.37Z</time>
      </trkpt>
      <trkpt lat="47.06918" lon="-1.22227">
        <ele>61</ele>
        <time>2015-09-11T13:53:13.336Z</time>
      </trkpt>
      <trkpt lat="47.06917" lon="-1.22235">
        <ele>61</ele>
        <time>2015-09-11T13:53:14.842Z</time>
      </trkpt>
      <trkpt lat="47.06916" lon="-1.22244">
        <ele>61.042</ele>
        <time>2015-09-11T13:53:15.336Z</time>
      </trkpt>
      <trkpt lat="47.06915" lon="-1.22252">
        <ele>60.999</ele>
        <time>2015-09-11T13:53:16.384Z</time>
      </trkpt>
      <trkpt lat="47.06915" lon="-1.2226">
        <ele>60.696</ele>
        <time>2015-09-11T13:53:17.363Z</time>
      </trkpt>
      <trkpt lat="47.06916" lon="-1.22271">
        <ele>60.282</ele>
        <time>2015-09-11T13:53:19.369Z</time>
      </trkpt>
      <trkpt lat="47.06917" lon="-1.22274">
        <ele>60.142</ele>
        <time>2015-09-11T13:53:20.336Z</time>
      </trkpt>
      <trkpt lat="47.06924" lon="-1.22279">
        <ele>60.278</ele>
        <time>2015-09-11T13:53:24.481Z</time>
      </trkpt>
      <trkpt lat="47.06926" lon="-1.22276">
        <ele>60.383</ele>
        <time>2015-09-11T13:53:25.382Z</time>
      </trkpt>
      <trkpt lat="47.06935" lon="-1.2228">
        <ele>60.646</ele>
        <time>2015-09-11T13:53:30.513Z</time>
      </trkpt>
      <trkpt lat="47.06935" lon="-1.22283">
        <ele>60.642</ele>
        <time>2015-09-11T13:53:31.363Z</time>
      </trkpt>
      <trkpt lat="47.06927" lon="-1.22286">
        <ele>60.386</ele>
        <time>2015-09-11T13:53:34.491Z</time>
      </trkpt>
      <trkpt lat="47.06924" lon="-1.22287">
        <ele>60.271</ele>
        <time>2015-09-11T13:53:35.356Z</time>
      </trkpt>
      <trkpt lat="47.06918" lon="-1.22293">
        <ele>60.034</ele>
        <time>2015-09-11T13:53:37.367Z</time>
      </trkpt>
      <trkpt lat="47.06915" lon="-1.22297">
        <ele>60.06</ele>
        <time>2015-09-11T13:53:38.353Z</time>
      </trkpt>
      <trkpt lat="47.06912" lon="-1.22303">
        <ele>60.164</ele>
        <time>2015-09-11T13:53:39.456Z</time>
      </trkpt>
      <trkpt lat="47.06912" lon="-1.22316">
        <ele>60.481</ele>
        <time>2015-09-11T13:53:40.37Z</time>
      </trkpt>
      <trkpt lat="47.06911" lon="-1.22323">
        <ele>60.712</ele>
        <time>2015-09-11T13:53:41.783Z</time>
      </trkpt>
      <trkpt lat="47.0691" lon="-1.22331">
        <ele>60.928</ele>
        <time>2015-09-11T13:53:42.334Z</time>
      </trkpt>
      <trkpt lat="47.0691" lon="-1.22339">
        <ele>61.148</ele>
        <time>2015-09-11T13:53:43.369Z</time>
      </trkpt>
      <trkpt lat="47.06909" lon="-1.22347">
        <ele>61.354</ele>
        <time>2015-09-11T13:53:44.353Z</time>
      </trkpt>
      <trkpt lat="47.06909" lon="-1.22354">
        <ele>61.533</ele>
        <time>2015-09-11T13:53:45.372Z</time>
      </trkpt>
      <trkpt lat="47.06909" lon="-1.22361">
        <ele>61.724</ele>
        <time>2015-09-11T13:53:46.336Z</time>
      </trkpt>
      <trkpt lat="47.06909" lon="-1.2237">
        <ele>61.728</ele>
        <time>2015-09-11T13:53:47.502Z</time>
      </trkpt>
      <trkpt lat="47.06909" lon="-1.22378">
        <ele>61.71</ele>
        <time>2015-09-11T13:53:48.371Z</time>
      </trkpt>
      <trkpt lat="47.06907" lon="-1.22384">
        <ele>61.663</ele>
        <time>2015-09-11T13:53:49.487Z</time>
      </trkpt>
      <trkpt lat="47.06907" lon="-1.22392">
        <ele>61.638</ele>
        <time>2015-09-11T13:53:50.365Z</time>
      </trkpt>
      <trkpt lat="47.06906" lon="-1.22398">
        <ele>61.609</ele>
        <time>2015-09-11T13:53:51.368Z</time>
      </trkpt>
      <trkpt lat="47.06905" lon="-1.22406">
        <ele>61.58</ele>
        <time>2015-09-11T13:53:52.338Z</time>
      </trkpt>
      <trkpt lat="47.06904" lon="-1.22414">
        <ele>61.548</ele>
        <time>2015-09-11T13:53:53.542Z</time>
      </trkpt>
      <trkpt lat="47.06905" lon="-1.22421">
        <ele>61.424</ele>
        <time>2015-09-11T13:53:54.367Z</time>
      </trkpt>
      <trkpt lat="47.06905" lon="-1.2243">
        <ele>61.1</ele>
        <time>2015-09-11T13:53:55.884Z</time>
      </trkpt>
      <trkpt lat="47.06905" lon="-1.22439">
        <ele>60.769</ele>
        <time>2015-09-11T13:53:56.335Z</time>
      </trkpt>
      <trkpt lat="47.06904" lon="-1.22449">
        <ele>60.384</ele>
        <time>2015-09-11T13:53:57.369Z</time>
      </trkpt>
      <trkpt lat="47.06902" lon="-1.22458">
        <ele>60.006</ele>
        <time>2015-09-11T13:53:58.369Z</time>
      </trkpt>
      <trkpt lat="47.06902" lon="-1.22467">
        <ele>59.664</ele>
        <time>2015-09-11T13:53:59.519Z</time>
      </trkpt>
      <trkpt lat="47.06901" lon="-1.22475">
        <ele>59.256</ele>
        <time>2015-09-11T13:54:00.37Z</time>
      </trkpt>
      <trkpt lat="47.069" lon="-1.22485">
        <ele>58.789</ele>
        <time>2015-09-11T13:54:01.507Z</time>
      </trkpt>
      <trkpt lat="47.06898" lon="-1.22491">
        <ele>58.451</ele>
        <time>2015-09-11T13:54:02.367Z</time>
      </trkpt>
      <trkpt lat="47.06898" lon="-1.225">
        <ele>58.005</ele>
        <time>2015-09-11T13:54:03.539Z</time>
      </trkpt>
      <trkpt lat="47.06895" lon="-1.2251">
        <ele>57.651</ele>
        <time>2015-09-11T13:54:04.362Z</time>
      </trkpt>
      <trkpt lat="47.06895" lon="-1.22519">
        <ele>57.32</ele>
        <time>2015-09-11T13:54:05.501Z</time>
      </trkpt>
      <trkpt lat="47.06895" lon="-1.22526">
        <ele>57.053</ele>
        <time>2015-09-11T13:54:06.362Z</time>
      </trkpt>
      <trkpt lat="47.06895" lon="-1.22536">
        <ele>57</ele>
        <time>2015-09-11T13:54:07.367Z</time>
      </trkpt>
      <trkpt lat="47.06895" lon="-1.22546">
        <ele>57</ele>
        <time>2015-09-11T13:54:08.335Z</time>
      </trkpt>
      <trkpt lat="47.06894" lon="-1.22558">
        <ele>56.923</ele>
        <time>2015-09-11T13:54:09.533Z</time>
      </trkpt>
      <trkpt lat="47.06892" lon="-1.22569">
        <ele>56.58</ele>
        <time>2015-09-11T13:54:10.371Z</time>
      </trkpt>
      <trkpt lat="47.06892" lon="-1.2258">
        <ele>56.212</ele>
        <time>2015-09-11T13:54:11.517Z</time>
      </trkpt>
      <trkpt lat="47.06891" lon="-1.2259">
        <ele>55.809</ele>
        <time>2015-09-11T13:54:12.379Z</time>
      </trkpt>
      <trkpt lat="47.0689" lon="-1.22599">
        <ele>55.444</ele>
        <time>2015-09-11T13:54:13.36Z</time>
      </trkpt>
      <trkpt lat="47.0689" lon="-1.22609">
        <ele>55.075</ele>
        <time>2015-09-11T13:54:14.335Z</time>
      </trkpt>
      <trkpt lat="47.06888" lon="-1.22619">
        <ele>54.659</ele>
        <time>2015-09-11T13:54:15.5Z</time>
      </trkpt>
      <trkpt lat="47.06885" lon="-1.2263">
        <ele>54.157</ele>
        <time>2015-09-11T13:54:16.366Z</time>
      </trkpt>
      <trkpt lat="47.06883" lon="-1.22641">
        <ele>53.733</ele>
        <time>2015-09-11T13:54:17.96Z</time>
      </trkpt>
      <trkpt lat="47.06882" lon="-1.22652">
        <ele>53.392</ele>
        <time>2015-09-11T13:54:18.339Z</time>
      </trkpt>
      <trkpt lat="47.06879" lon="-1.22663">
        <ele>53.086</ele>
        <time>2015-09-11T13:54:19.367Z</time>
      </trkpt>
      <trkpt lat="47.06877" lon="-1.22673">
        <ele>52.649</ele>
        <time>2015-09-11T13:54:20.366Z</time>
      </trkpt>
      <trkpt lat="47.06875" lon="-1.22684">
        <ele>52.082</ele>
        <time>2015-09-11T13:54:21.495Z</time>
      </trkpt>
      <trkpt lat="47.06873" lon="-1.22693">
        <ele>51.484</ele>
        <time>2015-09-11T13:54:22.383Z</time>
      </trkpt>
      <trkpt lat="47.06871" lon="-1.22704">
        <ele>51.012</ele>
        <time>2015-09-11T13:54:23.366Z</time>
      </trkpt>
      <trkpt lat="47.06868" lon="-1.22712">
        <ele>50.638</ele>
        <time>2015-09-11T13:54:24.331Z</time>
      </trkpt>
      <trkpt lat="47.06865" lon="-1.22721">
        <ele>50.198</ele>
        <time>2015-09-11T13:54:25.561Z</time>
      </trkpt>
      <trkpt lat="47.06863" lon="-1.22729">
        <ele>49.827</ele>
        <time>2015-09-11T13:54:26.355Z</time>
      </trkpt>
      <trkpt lat="47.06861" lon="-1.22738">
        <ele>49.414</ele>
        <time>2015-09-11T13:54:27.554Z</time>
      </trkpt>
      <trkpt lat="47.06859" lon="-1.22748">
        <ele>49.007</ele>
        <time>2015-09-11T13:54:28.357Z</time>
      </trkpt>
      <trkpt lat="47.06856" lon="-1.22757">
        <ele>48.789</ele>
        <time>2015-09-11T13:54:29.37Z</time>
      </trkpt>
      <trkpt lat="47.06855" lon="-1.22767">
        <ele>48.621</ele>
        <time>2015-09-11T13:54:30.335Z</time>
      </trkpt>
      <trkpt lat="47.06852" lon="-1.22777">
        <ele>48.358</ele>
        <time>2015-09-11T13:54:31.509Z</time>
      </trkpt>
      <trkpt lat="47.0685" lon="-1.22786">
        <ele>48.043</ele>
        <time>2015-09-11T13:54:32.355Z</time>
      </trkpt>
      <trkpt lat="47.06848" lon="-1.22797">
        <ele>47.686</ele>
        <time>2015-09-11T13:54:33.384Z</time>
      </trkpt>
      <trkpt lat="47.06843" lon="-1.2281">
        <ele>47.234</ele>
        <time>2015-09-11T13:54:34.337Z</time>
      </trkpt>
      <trkpt lat="47.06839" lon="-1.22819">
        <ele>46.816</ele>
        <time>2015-09-11T13:54:35.503Z</time>
      </trkpt>
      <trkpt lat="47.06834" lon="-1.22828">
        <ele>46.269</ele>
        <time>2015-09-11T13:54:36.444Z</time>
      </trkpt>
      <trkpt lat="47.0683" lon="-1.22837">
        <ele>45.741</ele>
        <time>2015-09-11T13:54:37.477Z</time>
      </trkpt>
      <trkpt lat="47.06828" lon="-1.22847">
        <ele>45.323</ele>
        <time>2015-09-11T13:54:38.365Z</time>
      </trkpt>
      <trkpt lat="47.06826" lon="-1.22857">
        <ele>44.873</ele>
        <time>2015-09-11T13:54:39.366Z</time>
      </trkpt>
      <trkpt lat="47.0682" lon="-1.22867">
        <ele>44.304</ele>
        <time>2015-09-11T13:54:40.333Z</time>
      </trkpt>
      <trkpt lat="47.06813" lon="-1.22874">
        <ele>43.804</ele>
        <time>2015-09-11T13:54:41.786Z</time>
      </trkpt>
      <trkpt lat="47.06804" lon="-1.22877">
        <ele>43.386</ele>
        <time>2015-09-11T13:54:42.334Z</time>
      </trkpt>
      <trkpt lat="47.06795" lon="-1.22879">
        <ele>42.998</ele>
        <time>2015-09-11T13:54:43.372Z</time>
      </trkpt>
      <trkpt lat="47.06787" lon="-1.2288">
        <ele>42.681</ele>
        <time>2015-09-11T13:54:44.358Z</time>
      </trkpt>
      <trkpt lat="47.06779" lon="-1.22881">
        <ele>42.335</ele>
        <time>2015-09-11T13:54:45.553Z</time>
      </trkpt>
      <trkpt lat="47.0677" lon="-1.22882">
        <ele>42.043</ele>
        <time>2015-09-11T13:54:46.366Z</time>
      </trkpt>
      <trkpt lat="47.06762" lon="-1.22886">
        <ele>41.6</ele>
        <time>2015-09-11T13:54:47.373Z</time>
      </trkpt>
      <trkpt lat="47.06756" lon="-1.22891">
        <ele>41.093</ele>
        <time>2015-09-11T13:54:48.334Z</time>
      </trkpt>
      <trkpt lat="47.06749" lon="-1.22897">
        <ele>40.43</ele>
        <time>2015-09-11T13:54:49.49Z</time>
      </trkpt>
      <trkpt lat="47.06743" lon="-1.22904">
        <ele>39.883</ele>
        <time>2015-09-11T13:54:50.356Z</time>
      </trkpt>
      <trkpt lat="47.06737" lon="-1.22912">
        <ele>39.329</ele>
        <time>2015-09-11T13:54:51.959Z</time>
      </trkpt>
      <trkpt lat="47.0673" lon="-1.2292">
        <ele>38.794</ele>
        <time>2015-09-11T13:54:52.336Z</time>
      </trkpt>
      <trkpt lat="47.06724" lon="-1.22929">
        <ele>38.131</ele>
        <time>2015-09-11T13:54:53.368Z</time>
      </trkpt>
      <trkpt lat="47.06719" lon="-1.22939">
        <ele>37.385</ele>
        <time>2015-09-11T13:54:54.364Z</time>
      </trkpt>
      <trkpt lat="47.06713" lon="-1.22947">
        <ele>36.901</ele>
        <time>2015-09-11T13:54:55.37Z</time>
      </trkpt>
      <trkpt lat="47.06706" lon="-1.22955">
        <ele>36.627</ele>
        <time>2015-09-11T13:54:56.333Z</time>
      </trkpt>
      <trkpt lat="47.067" lon="-1.22962">
        <ele>36.368</ele>
        <time>2015-09-11T13:54:57.374Z</time>
      </trkpt>
      <trkpt lat="47.06694" lon="-1.22969">
        <ele>36.136</ele>
        <time>2015-09-11T13:54:58.334Z</time>
      </trkpt>
      <trkpt lat="47.06691" lon="-1.22974">
        <ele>36.124</ele>
        <time>2015-09-11T13:54:59.48Z</time>
      </trkpt>
      <trkpt lat="47.06688" lon="-1.2298">
        <ele>36.173</ele>
        <time>2015-09-11T13:55:00.351Z</time>
      </trkpt>
      <trkpt lat="47.06686" lon="-1.22986">
        <ele>36.15</ele>
        <time>2015-09-11T13:55:01.368Z</time>
      </trkpt>
      <trkpt lat="47.06687" lon="-1.22994">
        <ele>36.057</ele>
        <time>2015-09-11T13:55:02.353Z</time>
      </trkpt>
      <trkpt lat="47.06685" lon="-1.23003">
        <ele>36</ele>
        <time>2015-09-11T13:55:03.501Z</time>
      </trkpt>
      <trkpt lat="47.06683" lon="-1.23012">
        <ele>36</ele>
        <time>2015-09-11T13:55:04.358Z</time>
      </trkpt>
      <trkpt lat="47.0668" lon="-1.23022">
        <ele>36</ele>
        <time>2015-09-11T13:55:05.499Z</time>
      </trkpt>
      <trkpt lat="47.06675" lon="-1.23029">
        <ele>35.96</ele>
        <time>2015-09-11T13:55:06.374Z</time>
      </trkpt>
      <trkpt lat="47.06669" lon="-1.23036">
        <ele>35.697</ele>
        <time>2015-09-11T13:55:07.605Z</time>
      </trkpt>
      <trkpt lat="47.06664" lon="-1.23043">
        <ele>35.345</ele>
        <time>2015-09-11T13:55:08.359Z</time>
      </trkpt>
      <trkpt lat="47.06658" lon="-1.23047">
        <ele>34.989</ele>
        <time>2015-09-11T13:55:09.591Z</time>
      </trkpt>
      <trkpt lat="47.06653" lon="-1.23055">
        <ele>34.542</ele>
        <time>2015-09-11T13:55:10.355Z</time>
      </trkpt>
      <trkpt lat="47.06648" lon="-1.23063">
        <ele>34.071</ele>
        <time>2015-09-11T13:55:11.562Z</time>
      </trkpt>
      <trkpt lat="47.06644" lon="-1.2307">
        <ele>33.657</ele>
        <time>2015-09-11T13:55:12.356Z</time>
      </trkpt>
      <trkpt lat="47.06639" lon="-1.23077">
        <ele>33.243</ele>
        <time>2015-09-11T13:55:13.487Z</time>
      </trkpt>
      <trkpt lat="47.06636" lon="-1.23084">
        <ele>33</ele>
        <time>2015-09-11T13:55:14.362Z</time>
      </trkpt>
      <trkpt lat="47.06632" lon="-1.2309">
        <ele>33</ele>
        <time>2015-09-11T13:55:15.519Z</time>
      </trkpt>
      <trkpt lat="47.06628" lon="-1.23096">
        <ele>33</ele>
        <time>2015-09-11T13:55:16.36Z</time>
      </trkpt>
      <trkpt lat="47.06624" lon="-1.23105">
        <ele>33</ele>
        <time>2015-09-11T13:55:18.487Z</time>
      </trkpt>
      <trkpt lat="47.06624" lon="-1.23111">
        <ele>33</ele>
        <time>2015-09-11T13:55:19.356Z</time>
      </trkpt>
      <trkpt lat="47.06624" lon="-1.23117">
        <ele>32.792</ele>
        <time>2015-09-11T13:55:20.366Z</time>
      </trkpt>
      <trkpt lat="47.06626" lon="-1.23125">
        <ele>32.493</ele>
        <time>2015-09-11T13:55:21.334Z</time>
      </trkpt>
      <trkpt lat="47.06624" lon="-1.23132">
        <ele>32.234</ele>
        <time>2015-09-11T13:55:22.559Z</time>
      </trkpt>
      <trkpt lat="47.06625" lon="-1.23142">
        <ele>32</ele>
        <time>2015-09-11T13:55:23.405Z</time>
      </trkpt>
      <trkpt lat="47.06626" lon="-1.23152">
        <ele>32</ele>
        <time>2015-09-11T13:55:24.748Z</time>
      </trkpt>
      <trkpt lat="47.06626" lon="-1.2316">
        <ele>32</ele>
        <time>2015-09-11T13:55:25.334Z</time>
      </trkpt>
      <trkpt lat="47.06624" lon="-1.2317">
        <ele>32.061</ele>
        <time>2015-09-11T13:55:26.423Z</time>
      </trkpt>
      <trkpt lat="47.06623" lon="-1.23178">
        <ele>32.178</ele>
        <time>2015-09-11T13:55:27.361Z</time>
      </trkpt>
      <trkpt lat="47.06626" lon="-1.23185">
        <ele>32.362</ele>
        <time>2015-09-11T13:55:28.434Z</time>
      </trkpt>
      <trkpt lat="47.06628" lon="-1.23194">
        <ele>32.576</ele>
        <time>2015-09-11T13:55:29.334Z</time>
      </trkpt>
      <trkpt lat="47.0663" lon="-1.23202">
        <ele>32.673</ele>
        <time>2015-09-11T13:55:30.499Z</time>
      </trkpt>
      <trkpt lat="47.06633" lon="-1.23208">
        <ele>32.788</ele>
        <time>2015-09-11T13:55:31.36Z</time>
      </trkpt>
      <trkpt lat="47.06637" lon="-1.23216">
        <ele>32.914</ele>
        <time>2015-09-11T13:55:32.379Z</time>
      </trkpt>
      <trkpt lat="47.0664" lon="-1.23224">
        <ele>32.965</ele>
        <time>2015-09-11T13:55:33.339Z</time>
      </trkpt>
      <trkpt lat="47.06643" lon="-1.23232">
        <ele>32.825</ele>
        <time>2015-09-11T13:55:34.515Z</time>
      </trkpt>
      <trkpt lat="47.06647" lon="-1.23238">
        <ele>32.699</ele>
        <time>2015-09-11T13:55:35.334Z</time>
      </trkpt>
      <trkpt lat="47.0665" lon="-1.23248">
        <ele>32.476</ele>
        <time>2015-09-11T13:55:36.373Z</time>
      </trkpt>
      <trkpt lat="47.0665" lon="-1.23255">
        <ele>32.22</ele>
        <time>2015-09-11T13:55:37.365Z</time>
      </trkpt>
      <trkpt lat="47.06653" lon="-1.23265">
        <ele>31.964</ele>
        <time>2015-09-11T13:55:38.626Z</time>
      </trkpt>
      <trkpt lat="47.06655" lon="-1.23273">
        <ele>31.738</ele>
        <time>2015-09-11T13:55:39.334Z</time>
      </trkpt>
      <trkpt lat="47.06656" lon="-1.23281">
        <ele>31.525</ele>
        <time>2015-09-11T13:55:40.367Z</time>
      </trkpt>
      <trkpt lat="47.06658" lon="-1.23286">
        <ele>31.367</ele>
        <time>2015-09-11T13:55:41.365Z</time>
      </trkpt>
      <trkpt lat="47.0666" lon="-1.23294">
        <ele>31.165</ele>
        <time>2015-09-11T13:55:42.358Z</time>
      </trkpt>
      <trkpt lat="47.06662" lon="-1.23303">
        <ele>30.924</ele>
        <time>2015-09-11T13:55:43.333Z</time>
      </trkpt>
      <trkpt lat="47.06664" lon="-1.23312">
        <ele>30.89</ele>
        <time>2015-09-11T13:55:44.559Z</time>
      </trkpt>
      <trkpt lat="47.06667" lon="-1.23323">
        <ele>31.029</ele>
        <time>2015-09-11T13:55:45.359Z</time>
      </trkpt>
      <trkpt lat="47.06668" lon="-1.23331">
        <ele>31.085</ele>
        <time>2015-09-11T13:55:46.492Z</time>
      </trkpt>
      <trkpt lat="47.0667" lon="-1.23339">
        <ele>31.211</ele>
        <time>2015-09-11T13:55:47.36Z</time>
      </trkpt>
      <trkpt lat="47.06671" lon="-1.23349">
        <ele>31.305</ele>
        <time>2015-09-11T13:55:48.85Z</time>
      </trkpt>
      <trkpt lat="47.06672" lon="-1.23358">
        <ele>31.377</ele>
        <time>2015-09-11T13:55:49.359Z</time>
      </trkpt>
      <trkpt lat="47.06673" lon="-1.23366">
        <ele>31.317</ele>
        <time>2015-09-11T13:55:50.492Z</time>
      </trkpt>
      <trkpt lat="47.06674" lon="-1.23375">
        <ele>31.146</ele>
        <time>2015-09-11T13:55:51.365Z</time>
      </trkpt>
      <trkpt lat="47.06675" lon="-1.23383">
        <ele>31.081</ele>
        <time>2015-09-11T13:55:53.223Z</time>
      </trkpt>
      <trkpt lat="47.06677" lon="-1.23391">
        <ele>31.073</ele>
        <time>2015-09-11T13:55:53.335Z</time>
      </trkpt>
      <trkpt lat="47.06679" lon="-1.234">
        <ele>31.181</ele>
        <time>2015-09-11T13:55:54.461Z</time>
      </trkpt>
      <trkpt lat="47.06681" lon="-1.23405">
        <ele>31.217</ele>
        <time>2015-09-11T13:55:55.371Z</time>
      </trkpt>
      <trkpt lat="47.06682" lon="-1.23414">
        <ele>31.173</ele>
        <time>2015-09-11T13:55:56.492Z</time>
      </trkpt>
      <trkpt lat="47.06684" lon="-1.23421">
        <ele>31.157</ele>
        <time>2015-09-11T13:55:57.401Z</time>
      </trkpt>
      <trkpt lat="47.06686" lon="-1.23429">
        <ele>31.095</ele>
        <time>2015-09-11T13:55:58.369Z</time>
      </trkpt>
      <trkpt lat="47.06689" lon="-1.23438">
        <ele>31.019</ele>
        <time>2015-09-11T13:55:59.337Z</time>
      </trkpt>
      <trkpt lat="47.06693" lon="-1.23445">
        <ele>30.928</ele>
        <time>2015-09-11T13:56:00.565Z</time>
      </trkpt>
      <trkpt lat="47.06698" lon="-1.23454">
        <ele>30.788</ele>
        <time>2015-09-11T13:56:01.358Z</time>
      </trkpt>
      <trkpt lat="47.06702" lon="-1.23463">
        <ele>30.618</ele>
        <time>2015-09-11T13:56:02.961Z</time>
      </trkpt>
      <trkpt lat="47.06706" lon="-1.23472">
        <ele>30.435</ele>
        <time>2015-09-11T13:56:03.331Z</time>
      </trkpt>
      <trkpt lat="47.06711" lon="-1.2348">
        <ele>30.418</ele>
        <time>2015-09-11T13:56:04.383Z</time>
      </trkpt>
      <trkpt lat="47.06718" lon="-1.23487">
        <ele>30.407</ele>
        <time>2015-09-11T13:56:05.355Z</time>
      </trkpt>
      <trkpt lat="47.06723" lon="-1.23494">
        <ele>30.251</ele>
        <time>2015-09-11T13:56:06.507Z</time>
      </trkpt>
      <trkpt lat="47.0673" lon="-1.23499">
        <ele>30.309</ele>
        <time>2015-09-11T13:56:07.366Z</time>
      </trkpt>
      <trkpt lat="47.06732" lon="-1.23505">
        <ele>30.352</ele>
        <time>2015-09-11T13:56:08.37Z</time>
      </trkpt>
      <trkpt lat="47.06738" lon="-1.23513">
        <ele>30.579</ele>
        <time>2015-09-11T13:56:09.334Z</time>
      </trkpt>
      <trkpt lat="47.06743" lon="-1.23519">
        <ele>30.755</ele>
        <time>2015-09-11T13:56:10.512Z</time>
      </trkpt>
      <trkpt lat="47.06746" lon="-1.23526">
        <ele>30.87</ele>
        <time>2015-09-11T13:56:11.364Z</time>
      </trkpt>
      <trkpt lat="47.06751" lon="-1.23533">
        <ele>31.231</ele>
        <time>2015-09-11T13:56:12.503Z</time>
      </trkpt>
      <trkpt lat="47.06755" lon="-1.2354">
        <ele>31.613</ele>
        <time>2015-09-11T13:56:13.388Z</time>
      </trkpt>
      <trkpt lat="47.06758" lon="-1.23546">
        <ele>31.94</ele>
        <time>2015-09-11T13:56:14.367Z</time>
      </trkpt>
      <trkpt lat="47.06761" lon="-1.23552">
        <ele>32.279</ele>
        <time>2015-09-11T13:56:15.341Z</time>
      </trkpt>
      <trkpt lat="47.06764" lon="-1.23561">
        <ele>32.588</ele>
        <time>2015-09-11T13:56:17.58Z</time>
      </trkpt>
      <trkpt lat="47.06766" lon="-1.23567">
        <ele>32.798</ele>
        <time>2015-09-11T13:56:18.375Z</time>
      </trkpt>
      <trkpt lat="47.0677" lon="-1.23577">
        <ele>33.258</ele>
        <time>2015-09-11T13:56:20.535Z</time>
      </trkpt>
      <trkpt lat="47.06772" lon="-1.2358">
        <ele>33.484</ele>
        <time>2015-09-11T13:56:21.371Z</time>
      </trkpt>
      <trkpt lat="47.06778" lon="-1.23586">
        <ele>34.133</ele>
        <time>2015-09-11T13:56:24.377Z</time>
      </trkpt>
      <trkpt lat="47.06781" lon="-1.23587">
        <ele>34.248</ele>
        <time>2015-09-11T13:56:25.335Z</time>
      </trkpt>
      <trkpt lat="47.06786" lon="-1.23596">
        <ele>34.716</ele>
        <time>2015-09-11T13:56:27.507Z</time>
      </trkpt>
      <trkpt lat="47.06787" lon="-1.23598">
        <ele>34.874</ele>
        <time>2015-09-11T13:56:28.369Z</time>
      </trkpt>
      <trkpt lat="47.06793" lon="-1.23604">
        <ele>35.317</ele>
        <time>2015-09-11T13:56:31.527Z</time>
      </trkpt>
      <trkpt lat="47.06797" lon="-1.23607">
        <ele>35.515</ele>
        <time>2015-09-11T13:56:32.433Z</time>
      </trkpt>
      <trkpt lat="47.06804" lon="-1.23614">
        <ele>36.03</ele>
        <time>2015-09-11T13:56:34.56Z</time>
      </trkpt>
      <trkpt lat="47.06806" lon="-1.23616">
        <ele>36.184</ele>
        <time>2015-09-11T13:56:35.374Z</time>
      </trkpt>
      <trkpt lat="47.06811" lon="-1.23623">
        <ele>36.72</ele>
        <time>2015-09-11T13:56:37.366Z</time>
      </trkpt>
      <trkpt lat="47.06813" lon="-1.23626">
        <ele>36.942</ele>
        <time>2015-09-11T13:56:38.366Z</time>
      </trkpt>
      <trkpt lat="47.0682" lon="-1.23633">
        <ele>37.429</ele>
        <time>2015-09-11T13:56:41.367Z</time>
      </trkpt>
      <trkpt lat="47.06822" lon="-1.23636">
        <ele>37.555</ele>
        <time>2015-09-11T13:56:42.374Z</time>
      </trkpt>
      <trkpt lat="47.06829" lon="-1.23643">
        <ele>37.799</ele>
        <time>2015-09-11T13:56:45.505Z</time>
      </trkpt>
      <trkpt lat="47.0683" lon="-1.23646">
        <ele>37.866</ele>
        <time>2015-09-11T13:56:46.364Z</time>
      </trkpt>
      <trkpt lat="47.06834" lon="-1.23654">
        <ele>37.969</ele>
        <time>2015-09-11T13:56:48.38Z</time>
      </trkpt>
      <trkpt lat="47.06836" lon="-1.23657">
        <ele>37.897</ele>
        <time>2015-09-11T13:56:49.365Z</time>
      </trkpt>
      <trkpt lat="47.0684" lon="-1.23664">
        <ele>37.746</ele>
        <time>2015-09-11T13:56:51.367Z</time>
      </trkpt>
      <trkpt lat="47.06843" lon="-1.23667">
        <ele>37.646</ele>
        <time>2015-09-11T13:56:52.363Z</time>
      </trkpt>
      <trkpt lat="47.06847" lon="-1.23673">
        <ele>37.153</ele>
        <time>2015-09-11T13:56:54.415Z</time>
      </trkpt>
      <trkpt lat="47.0685" lon="-1.23677">
        <ele>36.891</ele>
        <time>2015-09-11T13:56:55.335Z</time>
      </trkpt>
      <trkpt lat="47.06854" lon="-1.23686">
        <ele>36.402</ele>
        <time>2015-09-11T13:56:57.526Z</time>
      </trkpt>
      <trkpt lat="47.06857" lon="-1.2369">
        <ele>36.191</ele>
        <time>2015-09-11T13:56:58.378Z</time>
      </trkpt>
      <trkpt lat="47.06859" lon="-1.23694">
        <ele>36.002</ele>
        <time>2015-09-11T13:56:59.497Z</time>
      </trkpt>
      <trkpt lat="47.06862" lon="-1.23701">
        <ele>35.937</ele>
        <time>2015-09-11T13:57:00.414Z</time>
      </trkpt>
      <trkpt lat="47.06867" lon="-1.23711">
        <ele>35.684</ele>
        <time>2015-09-11T13:57:02.368Z</time>
      </trkpt>
      <trkpt lat="47.06871" lon="-1.23719">
        <ele>35.604</ele>
        <time>2015-09-11T13:57:03.454Z</time>
      </trkpt>
      <trkpt lat="47.06874" lon="-1.23725">
        <ele>35.478</ele>
        <time>2015-09-11T13:57:04.507Z</time>
      </trkpt>
      <trkpt lat="47.06878" lon="-1.23733">
        <ele>35.234</ele>
        <time>2015-09-11T13:57:05.369Z</time>
      </trkpt>
      <trkpt lat="47.06882" lon="-1.23741">
        <ele>35.081</ele>
        <time>2015-09-11T13:57:06.371Z</time>
      </trkpt>
      <trkpt lat="47.06886" lon="-1.23749">
        <ele>35.005</ele>
        <time>2015-09-11T13:57:07.334Z</time>
      </trkpt>
      <trkpt lat="47.0689" lon="-1.23759">
        <ele>34.676</ele>
        <time>2015-09-11T13:57:08.514Z</time>
      </trkpt>
      <trkpt lat="47.06893" lon="-1.23768">
        <ele>34.295</ele>
        <time>2015-09-11T13:57:09.363Z</time>
      </trkpt>
      <trkpt lat="47.06896" lon="-1.23778">
        <ele>34.007</ele>
        <time>2015-09-11T13:57:10.499Z</time>
      </trkpt>
      <trkpt lat="47.06899" lon="-1.23787">
        <ele>33.449</ele>
        <time>2015-09-11T13:57:11.373Z</time>
      </trkpt>
      <trkpt lat="47.06903" lon="-1.23799">
        <ele>32.871</ele>
        <time>2015-09-11T13:57:13.072Z</time>
      </trkpt>
      <trkpt lat="47.06908" lon="-1.23809">
        <ele>32.426</ele>
        <time>2015-09-11T13:57:13.334Z</time>
      </trkpt>
      <trkpt lat="47.06912" lon="-1.23819">
        <ele>31.907</ele>
        <time>2015-09-11T13:57:14.368Z</time>
      </trkpt>
      <trkpt lat="47.06917" lon="-1.23829">
        <ele>31.335</ele>
        <time>2015-09-11T13:57:15.36Z</time>
      </trkpt>
      <trkpt lat="47.06921" lon="-1.2384">
        <ele>31.076</ele>
        <time>2015-09-11T13:57:16.37Z</time>
      </trkpt>
      <trkpt lat="47.06925" lon="-1.23849">
        <ele>31.029</ele>
        <time>2015-09-11T13:57:17.335Z</time>
      </trkpt>
      <trkpt lat="47.06931" lon="-1.23856">
        <ele>31.184</ele>
        <time>2015-09-11T13:57:18.497Z</time>
      </trkpt>
      <trkpt lat="47.06937" lon="-1.23863">
        <ele>31.384</ele>
        <time>2015-09-11T13:57:19.43Z</time>
      </trkpt>
      <trkpt lat="47.06943" lon="-1.23866">
        <ele>31.688</ele>
        <time>2015-09-11T13:57:20.367Z</time>
      </trkpt>
      <trkpt lat="47.06948" lon="-1.23872">
        <ele>31.815</ele>
        <time>2015-09-11T13:57:21.338Z</time>
      </trkpt>
      <trkpt lat="47.06954" lon="-1.23878">
        <ele>31.926</ele>
        <time>2015-09-11T13:57:22.447Z</time>
      </trkpt>
      <trkpt lat="47.06958" lon="-1.23882">
        <ele>32.122</ele>
        <time>2015-09-11T13:57:23.361Z</time>
      </trkpt>
      <trkpt lat="47.06964" lon="-1.23889">
        <ele>32.408</ele>
        <time>2015-09-11T13:57:24.368Z</time>
      </trkpt>
      <trkpt lat="47.06968" lon="-1.23895">
        <ele>32.667</ele>
        <time>2015-09-11T13:57:25.335Z</time>
      </trkpt>
      <trkpt lat="47.0697" lon="-1.23903">
        <ele>32.869</ele>
        <time>2015-09-11T13:57:26.514Z</time>
      </trkpt>
      <trkpt lat="47.06973" lon="-1.23911">
        <ele>33.014</ele>
        <time>2015-09-11T13:57:27.382Z</time>
      </trkpt>
      <trkpt lat="47.06974" lon="-1.23918">
        <ele>33.083</ele>
        <time>2015-09-11T13:57:28.368Z</time>
      </trkpt>
      <trkpt lat="47.06976" lon="-1.23925">
        <ele>33.172</ele>
        <time>2015-09-11T13:57:29.334Z</time>
      </trkpt>
      <trkpt lat="47.06978" lon="-1.23932">
        <ele>33.308</ele>
        <time>2015-09-11T13:57:30.605Z</time>
      </trkpt>
      <trkpt lat="47.06979" lon="-1.23938">
        <ele>33.433</ele>
        <time>2015-09-11T13:57:31.386Z</time>
      </trkpt>
      <trkpt lat="47.06981" lon="-1.2395">
        <ele>33.807</ele>
        <time>2015-09-11T13:57:34.498Z</time>
      </trkpt>
      <trkpt lat="47.06982" lon="-1.23955">
        <ele>34.091</ele>
        <time>2015-09-11T13:57:35.382Z</time>
      </trkpt>
      <trkpt lat="47.06986" lon="-1.23966">
        <ele>34.736</ele>
        <time>2015-09-11T13:57:37.369Z</time>
      </trkpt>
      <trkpt lat="47.06987" lon="-1.23969">
        <ele>34.955</ele>
        <time>2015-09-11T13:57:38.367Z</time>
      </trkpt>
      <trkpt lat="47.06992" lon="-1.2398">
        <ele>35.486</ele>
        <time>2015-09-11T13:57:43.599Z</time>
      </trkpt>
      <trkpt lat="47.06993" lon="-1.23982">
        <ele>35.603</ele>
        <time>2015-09-11T13:57:44.363Z</time>
      </trkpt>
      <trkpt lat="47.06998" lon="-1.23991">
        <ele>35.879</ele>
        <time>2015-09-11T13:57:47.499Z</time>
      </trkpt>
      <trkpt lat="47.06999" lon="-1.23993">
        <ele>35.951</ele>
        <time>2015-09-11T13:57:48.37Z</time>
      </trkpt>
      <trkpt lat="47.07004" lon="-1.23999">
        <ele>36.158</ele>
        <time>2015-09-11T13:57:51.61Z</time>
      </trkpt>
      <trkpt lat="47.07006" lon="-1.24001">
        <ele>36.274</ele>
        <time>2015-09-11T13:57:52.374Z</time>
      </trkpt>
      <trkpt lat="47.07012" lon="-1.2401">
        <ele>36.792</ele>
        <time>2015-09-11T13:57:55.549Z</time>
      </trkpt>
      <trkpt lat="47.07015" lon="-1.24014">
        <ele>37.012</ele>
        <time>2015-09-11T13:57:56.366Z</time>
      </trkpt>
      <trkpt lat="47.07019" lon="-1.24021">
        <ele>37.44</ele>
        <time>2015-09-11T13:57:58.494Z</time>
      </trkpt>
      <trkpt lat="47.07021" lon="-1.24025">
        <ele>37.663</ele>
        <time>2015-09-11T13:57:59.368Z</time>
      </trkpt>
      <trkpt lat="47.07025" lon="-1.24034">
        <ele>37.923</ele>
        <time>2015-09-11T13:58:01.369Z</time>
      </trkpt>
      <trkpt lat="47.07027" lon="-1.24038">
        <ele>37.98</ele>
        <time>2015-09-11T13:58:02.334Z</time>
      </trkpt>
      <trkpt lat="47.07031" lon="-1.24047">
        <ele>38.083</ele>
        <time>2015-09-11T13:58:04.488Z</time>
      </trkpt>
      <trkpt lat="47.07033" lon="-1.24051">
        <ele>38.166</ele>
        <time>2015-09-11T13:58:05.372Z</time>
      </trkpt>
      <trkpt lat="47.07037" lon="-1.24059">
        <ele>38.46</ele>
        <time>2015-09-11T13:58:07.382Z</time>
      </trkpt>
      <trkpt lat="47.07039" lon="-1.24063">
        <ele>38.686</ele>
        <time>2015-09-11T13:58:08.334Z</time>
      </trkpt>
      <trkpt lat="47.07043" lon="-1.24072">
        <ele>39.118</ele>
        <time>2015-09-11T13:58:10.369Z</time>
      </trkpt>
      <trkpt lat="47.07045" lon="-1.24076">
        <ele>39.324</ele>
        <time>2015-09-11T13:58:11.332Z</time>
      </trkpt>
      <trkpt lat="47.07049" lon="-1.24084">
        <ele>39.755</ele>
        <time>2015-09-11T13:58:13.496Z</time>
      </trkpt>
      <trkpt lat="47.07051" lon="-1.24088">
        <ele>39.853</ele>
        <time>2015-09-11T13:58:14.367Z</time>
      </trkpt>
      <trkpt lat="47.07055" lon="-1.24096">
        <ele>39.983</ele>
        <time>2015-09-11T13:58:16.377Z</time>
      </trkpt>
      <trkpt lat="47.07057" lon="-1.24101">
        <ele>40.028</ele>
        <time>2015-09-11T13:58:17.363Z</time>
      </trkpt>
      <trkpt lat="47.07061" lon="-1.24109">
        <ele>40.179</ele>
        <time>2015-09-11T13:58:19.368Z</time>
      </trkpt>
      <trkpt lat="47.07063" lon="-1.24113">
        <ele>40.279</ele>
        <time>2015-09-11T13:58:20.332Z</time>
      </trkpt>
      <trkpt lat="47.07068" lon="-1.2412">
        <ele>40.459</ele>
        <time>2015-09-11T13:58:22.506Z</time>
      </trkpt>
      <trkpt lat="47.07071" lon="-1.24124">
        <ele>40.545</ele>
        <time>2015-09-11T13:58:23.465Z</time>
      </trkpt>
      <trkpt lat="47.07076" lon="-1.24132">
        <ele>40.725</ele>
        <time>2015-09-11T13:58:25.501Z</time>
      </trkpt>
      <trkpt lat="47.07078" lon="-1.24136">
        <ele>40.815</ele>
        <time>2015-09-11T13:58:26.371Z</time>
      </trkpt>
      <trkpt lat="47.07083" lon="-1.24143">
        <ele>41.154</ele>
        <time>2015-09-11T13:58:28.372Z</time>
      </trkpt>
      <trkpt lat="47.07085" lon="-1.24147">
        <ele>41.356</ele>
        <time>2015-09-11T13:58:29.362Z</time>
      </trkpt>
      <trkpt lat="47.0709" lon="-1.24155">
        <ele>41.693</ele>
        <time>2015-09-11T13:58:31.524Z</time>
      </trkpt>
      <trkpt lat="47.07093" lon="-1.2416">
        <ele>41.83</ele>
        <time>2015-09-11T13:58:32.371Z</time>
      </trkpt>
      <trkpt lat="47.07097" lon="-1.24168">
        <ele>42</ele>
        <time>2015-09-11T13:58:34.491Z</time>
      </trkpt>
      <trkpt lat="47.071" lon="-1.24172">
        <ele>42</ele>
        <time>2015-09-11T13:58:35.387Z</time>
      </trkpt>
      <trkpt lat="47.07105" lon="-1.24181">
        <ele>42</ele>
        <time>2015-09-11T13:58:37.544Z</time>
      </trkpt>
      <trkpt lat="47.07107" lon="-1.24185">
        <ele>42</ele>
        <time>2015-09-11T13:58:38.335Z</time>
      </trkpt>
      <trkpt lat="47.07112" lon="-1.24193">
        <ele>41.909</ele>
        <time>2015-09-11T13:58:40.538Z</time>
      </trkpt>
      <trkpt lat="47.07115" lon="-1.24198">
        <ele>41.734</ele>
        <time>2015-09-11T13:58:41.375Z</time>
      </trkpt>
      <trkpt lat="47.0712" lon="-1.24207">
        <ele>41.396</ele>
        <time>2015-09-11T13:58:43.549Z</time>
      </trkpt>
      <trkpt lat="47.07122" lon="-1.24212">
        <ele>41.216</ele>
        <time>2015-09-11T13:58:44.376Z</time>
      </trkpt>
      <trkpt lat="47.07126" lon="-1.24222">
        <ele>40.906</ele>
        <time>2015-09-11T13:58:46.498Z</time>
      </trkpt>
      <trkpt lat="47.07128" lon="-1.24226">
        <ele>40.862</ele>
        <time>2015-09-11T13:58:47.359Z</time>
      </trkpt>
      <trkpt lat="47.07129" lon="-1.24232">
        <ele>40.952</ele>
        <time>2015-09-11T13:58:48.36Z</time>
      </trkpt>
      <trkpt lat="47.07126" lon="-1.24243">
        <ele>41.33</ele>
        <time>2015-09-11T13:58:49.333Z</time>
      </trkpt>
      <trkpt lat="47.07123" lon="-1.24248">
        <ele>41.55</ele>
        <time>2015-09-11T13:58:50.505Z</time>
      </trkpt>
      <trkpt lat="47.07119" lon="-1.24253">
        <ele>41.776</ele>
        <time>2015-09-11T13:58:51.362Z</time>
      </trkpt>
      <trkpt lat="47.07112" lon="-1.2426">
        <ele>42.319</ele>
        <time>2015-09-11T13:58:53.519Z</time>
      </trkpt>
      <trkpt lat="47.07108" lon="-1.24264">
        <ele>42.515</ele>
        <time>2015-09-11T13:58:54.363Z</time>
      </trkpt>
      <trkpt lat="47.07101" lon="-1.24269">
        <ele>42.691</ele>
        <time>2015-09-11T13:58:56.375Z</time>
      </trkpt>
      <trkpt lat="47.07097" lon="-1.24275">
        <ele>42.889</ele>
        <time>2015-09-11T13:58:57.364Z</time>
      </trkpt>
      <trkpt lat="47.07094" lon="-1.24282">
        <ele>42.946</ele>
        <time>2015-09-11T13:58:58.77Z</time>
      </trkpt>
      <trkpt lat="47.07091" lon="-1.24289">
        <ele>42.888</ele>
        <time>2015-09-11T13:58:59.354Z</time>
      </trkpt>
      <trkpt lat="47.07089" lon="-1.24295">
        <ele>42.876</ele>
        <time>2015-09-11T13:59:00.372Z</time>
      </trkpt>
      <trkpt lat="47.07086" lon="-1.24303">
        <ele>42.914</ele>
        <time>2015-09-11T13:59:01.368Z</time>
      </trkpt>
      <trkpt lat="47.07082" lon="-1.24314">
        <ele>43</ele>
        <time>2015-09-11T13:59:03.66Z</time>
      </trkpt>
      <trkpt lat="47.07079" lon="-1.2432">
        <ele>43</ele>
        <time>2015-09-11T13:59:04.365Z</time>
      </trkpt>
      <trkpt lat="47.07077" lon="-1.24327">
        <ele>43</ele>
        <time>2015-09-11T13:59:05.489Z</time>
      </trkpt>
      <trkpt lat="47.07074" lon="-1.24333">
        <ele>43</ele>
        <time>2015-09-11T13:59:06.366Z</time>
      </trkpt>
      <trkpt lat="47.07072" lon="-1.24339">
        <ele>42.807</ele>
        <time>2015-09-11T13:59:07.516Z</time>
      </trkpt>
      <trkpt lat="47.0707" lon="-1.24345">
        <ele>42.58</ele>
        <time>2015-09-11T13:59:08.363Z</time>
      </trkpt>
      <trkpt lat="47.07066" lon="-1.24355">
        <ele>42.22</ele>
        <time>2015-09-11T13:59:10.367Z</time>
      </trkpt>
      <trkpt lat="47.07064" lon="-1.24361">
        <ele>42.008</ele>
        <time>2015-09-11T13:59:11.329Z</time>
      </trkpt>
      <trkpt lat="47.07061" lon="-1.24366">
        <ele>41.677</ele>
        <time>2015-09-11T13:59:12.414Z</time>
      </trkpt>
      <trkpt lat="47.07057" lon="-1.24372">
        <ele>41.202</ele>
        <time>2015-09-11T13:59:13.349Z</time>
      </trkpt>
      <trkpt lat="47.07054" lon="-1.24378">
        <ele>40.71</ele>
        <time>2015-09-11T13:59:14.369Z</time>
      </trkpt>
      <trkpt lat="47.0705" lon="-1.24385">
        <ele>40.109</ele>
        <time>2015-09-11T13:59:15.333Z</time>
      </trkpt>
      <trkpt lat="47.07046" lon="-1.24392">
        <ele>39.483</ele>
        <time>2015-09-11T13:59:16.515Z</time>
      </trkpt>
      <trkpt lat="47.07043" lon="-1.244">
        <ele>38.933</ele>
        <time>2015-09-11T13:59:17.425Z</time>
      </trkpt>
      <trkpt lat="47.0704" lon="-1.24409">
        <ele>38.41</ele>
        <time>2015-09-11T13:59:18.486Z</time>
      </trkpt>
      <trkpt lat="47.07036" lon="-1.24419">
        <ele>37.854</ele>
        <time>2015-09-11T13:59:19.361Z</time>
      </trkpt>
      <trkpt lat="47.07032" lon="-1.24429">
        <ele>37.134</ele>
        <time>2015-09-11T13:59:20.594Z</time>
      </trkpt>
      <trkpt lat="47.07028" lon="-1.24438">
        <ele>36.435</ele>
        <time>2015-09-11T13:59:21.369Z</time>
      </trkpt>
      <trkpt lat="47.07024" lon="-1.24449">
        <ele>35.843</ele>
        <time>2015-09-11T13:59:22.512Z</time>
      </trkpt>
      <trkpt lat="47.0702" lon="-1.24459">
        <ele>35.469</ele>
        <time>2015-09-11T13:59:23.359Z</time>
      </trkpt>
      <trkpt lat="47.07015" lon="-1.2447">
        <ele>35.073</ele>
        <time>2015-09-11T13:59:24.503Z</time>
      </trkpt>
      <trkpt lat="47.0701" lon="-1.24482">
        <ele>35</ele>
        <time>2015-09-11T13:59:25.368Z</time>
      </trkpt>
      <trkpt lat="47.07006" lon="-1.24492">
        <ele>35</ele>
        <time>2015-09-11T13:59:26.506Z</time>
      </trkpt>
      <trkpt lat="47.07003" lon="-1.24503">
        <ele>34.99</ele>
        <time>2015-09-11T13:59:27.379Z</time>
      </trkpt>
      <trkpt lat="47.07" lon="-1.24513">
        <ele>34.997</ele>
        <time>2015-09-11T13:59:28.562Z</time>
      </trkpt>
      <trkpt lat="47.06997" lon="-1.24522">
        <ele>34.907</ele>
        <time>2015-09-11T13:59:29.381Z</time>
      </trkpt>
      <trkpt lat="47.06994" lon="-1.24532">
        <ele>34.644</ele>
        <time>2015-09-11T13:59:30.368Z</time>
      </trkpt>
      <trkpt lat="47.0699" lon="-1.24542">
        <ele>34.32</ele>
        <time>2015-09-11T13:59:31.333Z</time>
      </trkpt>
      <trkpt lat="47.06987" lon="-1.2455">
        <ele>34.097</ele>
        <time>2015-09-11T13:59:32.515Z</time>
      </trkpt>
      <trkpt lat="47.06983" lon="-1.2456">
        <ele>33.912</ele>
        <time>2015-09-11T13:59:33.362Z</time>
      </trkpt>
      <trkpt lat="47.06979" lon="-1.24568">
        <ele>33.662</ele>
        <time>2015-09-11T13:59:34.487Z</time>
      </trkpt>
      <trkpt lat="47.06975" lon="-1.24577">
        <ele>33.308</ele>
        <time>2015-09-11T13:59:35.359Z</time>
      </trkpt>
      <trkpt lat="47.06972" lon="-1.24585">
        <ele>32.924</ele>
        <time>2015-09-11T13:59:36.553Z</time>
      </trkpt>
      <trkpt lat="47.0697" lon="-1.24594">
        <ele>32.505</ele>
        <time>2015-09-11T13:59:37.354Z</time>
      </trkpt>
      <trkpt lat="47.06966" lon="-1.24602">
        <ele>31.979</ele>
        <time>2015-09-11T13:59:38.366Z</time>
      </trkpt>
      <trkpt lat="47.06964" lon="-1.2461">
        <ele>31.425</ele>
        <time>2015-09-11T13:59:39.332Z</time>
      </trkpt>
      <trkpt lat="47.06962" lon="-1.24618">
        <ele>31.136</ele>
        <time>2015-09-11T13:59:40.358Z</time>
      </trkpt>
      <trkpt lat="47.0696" lon="-1.24625">
        <ele>30.881</ele>
        <time>2015-09-11T13:59:41.335Z</time>
      </trkpt>
      <trkpt lat="47.0696" lon="-1.24633">
        <ele>30.75</ele>
        <time>2015-09-11T13:59:43.51Z</time>
      </trkpt>
      <trkpt lat="47.06964" lon="-1.24637">
        <ele>31.122</ele>
        <time>2015-09-11T13:59:44.363Z</time>
      </trkpt>
      <trkpt lat="47.06968" lon="-1.24638">
        <ele>31.582</ele>
        <time>2015-09-11T13:59:45.493Z</time>
      </trkpt>
      <trkpt lat="47.06974" lon="-1.2464">
        <ele>31.978</ele>
        <time>2015-09-11T13:59:46.354Z</time>
      </trkpt>
      <trkpt lat="47.0698" lon="-1.2464">
        <ele>31.946</ele>
        <time>2015-09-11T13:59:47.598Z</time>
      </trkpt>
      <trkpt lat="47.06985" lon="-1.24642">
        <ele>31.892</ele>
        <time>2015-09-11T13:59:48.359Z</time>
      </trkpt>
      <trkpt lat="47.0699" lon="-1.24643">
        <ele>31.838</ele>
        <time>2015-09-11T13:59:49.488Z</time>
      </trkpt>
      <trkpt lat="47.06997" lon="-1.24645">
        <ele>31.798</ele>
        <time>2015-09-11T13:59:50.364Z</time>
      </trkpt>
      <trkpt lat="47.07003" lon="-1.24646">
        <ele>31.73</ele>
        <time>2015-09-11T13:59:52.27Z</time>
      </trkpt>
      <trkpt lat="47.07009" lon="-1.24647">
        <ele>31.704</ele>
        <time>2015-09-11T13:59:52.338Z</time>
      </trkpt>
      <trkpt lat="47.07016" lon="-1.24648">
        <ele>31.665</ele>
        <time>2015-09-11T13:59:53.42Z</time>
      </trkpt>
      <trkpt lat="47.07022" lon="-1.2465">
        <ele>31.614</ele>
        <time>2015-09-11T13:59:54.357Z</time>
      </trkpt>
      <trkpt lat="47.07029" lon="-1.24652">
        <ele>31.539</ele>
        <time>2015-09-11T13:59:55.497Z</time>
      </trkpt>
      <trkpt lat="47.07036" lon="-1.24653">
        <ele>31.503</ele>
        <time>2015-09-11T13:59:56.375Z</time>
      </trkpt>
      <trkpt lat="47.07042" lon="-1.24654">
        <ele>31.467</ele>
        <time>2015-09-11T13:59:57.546Z</time>
      </trkpt>
      <trkpt lat="47.07048" lon="-1.24653">
        <ele>31.485</ele>
        <time>2015-09-11T13:59:58.363Z</time>
      </trkpt>
      <trkpt lat="47.07055" lon="-1.24655">
        <ele>31.431</ele>
        <time>2015-09-11T13:59:59.68Z</time>
      </trkpt>
      <trkpt lat="47.07062" lon="-1.24657">
        <ele>31.5</ele>
        <time>2015-09-11T14:00:00.342Z</time>
      </trkpt>
      <trkpt lat="47.07069" lon="-1.24657">
        <ele>31.657</ele>
        <time>2015-09-11T14:00:01.368Z</time>
      </trkpt>
      <trkpt lat="47.07075" lon="-1.24659">
        <ele>31.788</ele>
        <time>2015-09-11T14:00:02.363Z</time>
      </trkpt>
      <trkpt lat="47.07082" lon="-1.24662">
        <ele>31.946</ele>
        <time>2015-09-11T14:00:03.482Z</time>
      </trkpt>
      <trkpt lat="47.07087" lon="-1.24665">
        <ele>32</ele>
        <time>2015-09-11T14:00:04.367Z</time>
      </trkpt>
      <trkpt lat="47.07092" lon="-1.2467">
        <ele>31.909</ele>
        <time>2015-09-11T14:00:05.543Z</time>
      </trkpt>
      <trkpt lat="47.07097" lon="-1.24677">
        <ele>31.814</ele>
        <time>2015-09-11T14:00:06.36Z</time>
      </trkpt>
      <trkpt lat="47.07101" lon="-1.24683">
        <ele>31.792</ele>
        <time>2015-09-11T14:00:07.636Z</time>
      </trkpt>
      <trkpt lat="47.07107" lon="-1.2469">
        <ele>31.859</ele>
        <time>2015-09-11T14:00:08.362Z</time>
      </trkpt>
      <trkpt lat="47.07111" lon="-1.24697">
        <ele>31.989</ele>
        <time>2015-09-11T14:00:09.529Z</time>
      </trkpt>
      <trkpt lat="47.07114" lon="-1.24702">
        <ele>32.08</ele>
        <time>2015-09-11T14:00:10.368Z</time>
      </trkpt>
      <trkpt lat="47.07117" lon="-1.24708">
        <ele>32.107</ele>
        <time>2015-09-11T14:00:11.367Z</time>
      </trkpt>
      <trkpt lat="47.0712" lon="-1.24717">
        <ele>32.066</ele>
        <time>2015-09-11T14:00:12.335Z</time>
      </trkpt>
      <trkpt lat="47.07123" lon="-1.24723">
        <ele>32.018</ele>
        <time>2015-09-11T14:00:13.577Z</time>
      </trkpt>
      <trkpt lat="47.07126" lon="-1.2473">
        <ele>32.137</ele>
        <time>2015-09-11T14:00:14.366Z</time>
      </trkpt>
      <trkpt lat="47.07128" lon="-1.24737">
        <ele>32.207</ele>
        <time>2015-09-11T14:00:15.373Z</time>
      </trkpt>
      <trkpt lat="47.0713" lon="-1.24743">
        <ele>32.235</ele>
        <time>2015-09-11T14:00:16.336Z</time>
      </trkpt>
      <trkpt lat="47.07132" lon="-1.2475">
        <ele>32.252</ele>
        <time>2015-09-11T14:00:17.37Z</time>
      </trkpt>
      <trkpt lat="47.07134" lon="-1.24756">
        <ele>32.194</ele>
        <time>2015-09-11T14:00:18.333Z</time>
      </trkpt>
      <trkpt lat="47.07135" lon="-1.24762">
        <ele>32.126</ele>
        <time>2015-09-11T14:00:19.494Z</time>
      </trkpt>
      <trkpt lat="47.07138" lon="-1.24768">
        <ele>32.025</ele>
        <time>2015-09-11T14:00:20.361Z</time>
      </trkpt>
      <trkpt lat="47.07141" lon="-1.24778">
        <ele>32.087</ele>
        <time>2015-09-11T14:00:22.909Z</time>
      </trkpt>
      <trkpt lat="47.07144" lon="-1.24785">
        <ele>32.166</ele>
        <time>2015-09-11T14:00:23.357Z</time>
      </trkpt>
      <trkpt lat="47.07146" lon="-1.2479">
        <ele>32.252</ele>
        <time>2015-09-11T14:00:24.363Z</time>
      </trkpt>
      <trkpt lat="47.07149" lon="-1.24796">
        <ele>32.364</ele>
        <time>2015-09-11T14:00:25.335Z</time>
      </trkpt>
      <trkpt lat="47.07152" lon="-1.24802">
        <ele>32.465</ele>
        <time>2015-09-11T14:00:26.501Z</time>
      </trkpt>
      <trkpt lat="47.07155" lon="-1.24808">
        <ele>32.561</ele>
        <time>2015-09-11T14:00:27.366Z</time>
      </trkpt>
      <trkpt lat="47.07157" lon="-1.24814">
        <ele>32.57</ele>
        <time>2015-09-11T14:00:28.363Z</time>
      </trkpt>
      <trkpt lat="47.0716" lon="-1.24821">
        <ele>32.48</ele>
        <time>2015-09-11T14:00:29.335Z</time>
      </trkpt>
      <trkpt lat="47.07161" lon="-1.24828">
        <ele>32.324</ele>
        <time>2015-09-11T14:00:30.378Z</time>
      </trkpt>
      <trkpt lat="47.07163" lon="-1.24834">
        <ele>32.117</ele>
        <time>2015-09-11T14:00:31.335Z</time>
      </trkpt>
      <trkpt lat="47.07166" lon="-1.2484">
        <ele>32.013</ele>
        <time>2015-09-11T14:00:32.489Z</time>
      </trkpt>
      <trkpt lat="47.07169" lon="-1.24846">
        <ele>32.103</ele>
        <time>2015-09-11T14:00:33.366Z</time>
      </trkpt>
      <trkpt lat="47.07171" lon="-1.24851">
        <ele>32.213</ele>
        <time>2015-09-11T14:00:34.384Z</time>
      </trkpt>
      <trkpt lat="47.07174" lon="-1.24856">
        <ele>32.31</ele>
        <time>2015-09-11T14:00:35.338Z</time>
      </trkpt>
      <trkpt lat="47.07178" lon="-1.24862">
        <ele>32.372</ele>
        <time>2015-09-11T14:00:36.487Z</time>
      </trkpt>
      <trkpt lat="47.07181" lon="-1.24867">
        <ele>32.308</ele>
        <time>2015-09-11T14:00:37.369Z</time>
      </trkpt>
      <trkpt lat="47.07184" lon="-1.24872">
        <ele>32.228</ele>
        <time>2015-09-11T14:00:38.495Z</time>
      </trkpt>
      <trkpt lat="47.07188" lon="-1.24878">
        <ele>32.171</ele>
        <time>2015-09-11T14:00:39.367Z</time>
      </trkpt>
      <trkpt lat="47.07192" lon="-1.24882">
        <ele>32.146</ele>
        <time>2015-09-11T14:00:40.555Z</time>
      </trkpt>
      <trkpt lat="47.07196" lon="-1.24886">
        <ele>32.154</ele>
        <time>2015-09-11T14:00:41.368Z</time>
      </trkpt>
      <trkpt lat="47.072" lon="-1.2489">
        <ele>32.171</ele>
        <time>2015-09-11T14:00:42.493Z</time>
      </trkpt>
      <trkpt lat="47.07204" lon="-1.24891">
        <ele>32.286</ele>
        <time>2015-09-11T14:00:43.374Z</time>
      </trkpt>
      <trkpt lat="47.07209" lon="-1.24894">
        <ele>32.369</ele>
        <time>2015-09-11T14:00:44.492Z</time>
      </trkpt>
      <trkpt lat="47.07214" lon="-1.24896">
        <ele>32.437</ele>
        <time>2015-09-11T14:00:45.369Z</time>
      </trkpt>
      <trkpt lat="47.07221" lon="-1.24899">
        <ele>32.596</ele>
        <time>2015-09-11T14:00:47.469Z</time>
      </trkpt>
      <trkpt lat="47.07224" lon="-1.249">
        <ele>32.621</ele>
        <time>2015-09-11T14:00:48.369Z</time>
      </trkpt>
      <trkpt lat="47.07232" lon="-1.24905">
        <ele>32.543</ele>
        <time>2015-09-11T14:00:50.368Z</time>
      </trkpt>
      <trkpt lat="47.07237" lon="-1.24908">
        <ele>32.483</ele>
        <time>2015-09-11T14:00:51.396Z</time>
      </trkpt>
      <trkpt lat="47.07241" lon="-1.2491">
        <ele>32.377</ele>
        <time>2015-09-11T14:00:52.367Z</time>
      </trkpt>
      <trkpt lat="47.07246" lon="-1.24914">
        <ele>32.196</ele>
        <time>2015-09-11T14:00:53.336Z</time>
      </trkpt>
      <trkpt lat="47.0725" lon="-1.24917">
        <ele>31.942</ele>
        <time>2015-09-11T14:00:54.481Z</time>
      </trkpt>
      <trkpt lat="47.07252" lon="-1.24924">
        <ele>31.247</ele>
        <time>2015-09-11T14:00:55.369Z</time>
      </trkpt>
      <trkpt lat="47.07251" lon="-1.24932">
        <ele>30.355</ele>
        <time>2015-09-11T14:00:56.367Z</time>
      </trkpt>
      <trkpt lat="47.07248" lon="-1.2494">
        <ele>29.542</ele>
        <time>2015-09-11T14:00:57.334Z</time>
      </trkpt>
      <trkpt lat="47.07246" lon="-1.24949">
        <ele>28.843</ele>
        <time>2015-09-11T14:00:58.484Z</time>
      </trkpt>
      <trkpt lat="47.07243" lon="-1.24958">
        <ele>28.374</ele>
        <time>2015-09-11T14:00:59.36Z</time>
      </trkpt>
      <trkpt lat="47.07241" lon="-1.24969">
        <ele>27.791</ele>
        <time>2015-09-11T14:01:00.558Z</time>
      </trkpt>
      <trkpt lat="47.0724" lon="-1.24981">
        <ele>27.287</ele>
        <time>2015-09-11T14:01:01.376Z</time>
      </trkpt>
      <trkpt lat="47.07241" lon="-1.24993">
        <ele>26.68</ele>
        <time>2015-09-11T14:01:02.368Z</time>
      </trkpt>
      <trkpt lat="47.07243" lon="-1.25006">
        <ele>26.093</ele>
        <time>2015-09-11T14:01:03.336Z</time>
      </trkpt>
      <trkpt lat="47.07248" lon="-1.25017">
        <ele>25.534</ele>
        <time>2015-09-11T14:01:04.504Z</time>
      </trkpt>
      <trkpt lat="47.07255" lon="-1.25025">
        <ele>25.099</ele>
        <time>2015-09-11T14:01:05.363Z</time>
      </trkpt>
      <trkpt lat="47.07261" lon="-1.25034">
        <ele>24.912</ele>
        <time>2015-09-11T14:01:06.491Z</time>
      </trkpt>
      <trkpt lat="47.07264" lon="-1.25044">
        <ele>24.719</ele>
        <time>2015-09-11T14:01:07.335Z</time>
      </trkpt>
      <trkpt lat="47.07267" lon="-1.25049">
        <ele>24.526</ele>
        <time>2015-09-11T14:01:08.494Z</time>
      </trkpt>
      <trkpt lat="47.0727" lon="-1.25053">
        <ele>24.336</ele>
        <time>2015-09-11T14:01:09.375Z</time>
      </trkpt>
      <trkpt lat="47.07275" lon="-1.25061">
        <ele>23.934</ele>
        <time>2015-09-11T14:01:11.37Z</time>
      </trkpt>
      <trkpt lat="47.07278" lon="-1.25065">
        <ele>23.674</ele>
        <time>2015-09-11T14:01:12.371Z</time>
      </trkpt>
      <trkpt lat="47.07283" lon="-1.25075">
        <ele>23.296</ele>
        <time>2015-09-11T14:01:14.376Z</time>
      </trkpt>
      <trkpt lat="47.07287" lon="-1.2508">
        <ele>23.12</ele>
        <time>2015-09-11T14:01:15.36Z</time>
      </trkpt>
      <trkpt lat="47.0729" lon="-1.25085">
        <ele>22.98</ele>
        <time>2015-09-11T14:01:16.384Z</time>
      </trkpt>
      <trkpt lat="47.07294" lon="-1.25089">
        <ele>22.875</ele>
        <time>2015-09-11T14:01:17.334Z</time>
      </trkpt>
      <trkpt lat="47.07297" lon="-1.25094">
        <ele>22.739</ele>
        <time>2015-09-11T14:01:18.888Z</time>
      </trkpt>
      <trkpt lat="47.07301" lon="-1.25098">
        <ele>22.558</ele>
        <time>2015-09-11T14:01:19.332Z</time>
      </trkpt>
      <trkpt lat="47.07304" lon="-1.25103">
        <ele>22.358</ele>
        <time>2015-09-11T14:01:20.378Z</time>
      </trkpt>
      <trkpt lat="47.07307" lon="-1.25108">
        <ele>22.116</ele>
        <time>2015-09-11T14:01:21.369Z</time>
      </trkpt>
      <trkpt lat="47.0731" lon="-1.25113">
        <ele>22</ele>
        <time>2015-09-11T14:01:22.368Z</time>
      </trkpt>
      <trkpt lat="47.07314" lon="-1.25119">
        <ele>22</ele>
        <time>2015-09-11T14:01:23.335Z</time>
      </trkpt>
      <trkpt lat="47.07317" lon="-1.25124">
        <ele>22</ele>
        <time>2015-09-11T14:01:24.549Z</time>
      </trkpt>
      <trkpt lat="47.0732" lon="-1.2513">
        <ele>22</ele>
        <time>2015-09-11T14:01:25.36Z</time>
      </trkpt>
      <trkpt lat="47.07323" lon="-1.25135">
        <ele>22</ele>
        <time>2015-09-11T14:01:26.367Z</time>
      </trkpt>
      <trkpt lat="47.07327" lon="-1.25141">
        <ele>22</ele>
        <time>2015-09-11T14:01:27.335Z</time>
      </trkpt>
      <trkpt lat="47.07329" lon="-1.25147">
        <ele>22</ele>
        <time>2015-09-11T14:01:28.509Z</time>
      </trkpt>
      <trkpt lat="47.07334" lon="-1.25153">
        <ele>22.017</ele>
        <time>2015-09-11T14:01:29.357Z</time>
      </trkpt>
      <trkpt lat="47.07339" lon="-1.25156">
        <ele>22.208</ele>
        <time>2015-09-11T14:01:30.36Z</time>
      </trkpt>
      <trkpt lat="47.07344" lon="-1.25155">
        <ele>22.38</ele>
        <time>2015-09-11T14:01:31.333Z</time>
      </trkpt>
      <trkpt lat="47.07349" lon="-1.25153">
        <ele>22.575</ele>
        <time>2015-09-11T14:01:32.563Z</time>
      </trkpt>
      <trkpt lat="47.07355" lon="-1.25151">
        <ele>22.766</ele>
        <time>2015-09-11T14:01:33.365Z</time>
      </trkpt>
      <trkpt lat="47.07359" lon="-1.25149">
        <ele>22.935</ele>
        <time>2015-09-11T14:01:34.514Z</time>
      </trkpt>
      <trkpt lat="47.07365" lon="-1.25147">
        <ele>23.211</ele>
        <time>2015-09-11T14:01:35.362Z</time>
      </trkpt>
      <trkpt lat="47.07369" lon="-1.25144">
        <ele>23.522</ele>
        <time>2015-09-11T14:01:36.501Z</time>
      </trkpt>
      <trkpt lat="47.07373" lon="-1.25138">
        <ele>23.878</ele>
        <time>2015-09-11T14:01:37.361Z</time>
      </trkpt>
      <trkpt lat="47.07375" lon="-1.25132">
        <ele>24.234</ele>
        <time>2015-09-11T14:01:38.525Z</time>
      </trkpt>
      <trkpt lat="47.07378" lon="-1.25126">
        <ele>24.731</ele>
        <time>2015-09-11T14:01:39.369Z</time>
      </trkpt>
      <trkpt lat="47.07382" lon="-1.25123">
        <ele>25.358</ele>
        <time>2015-09-11T14:01:40.489Z</time>
      </trkpt>
      <trkpt lat="47.07385" lon="-1.25118">
        <ele>26.007</ele>
        <time>2015-09-11T14:01:41.332Z</time>
      </trkpt>
      <trkpt lat="47.07392" lon="-1.25111">
        <ele>27.237</ele>
        <time>2015-09-11T14:01:43.601Z</time>
      </trkpt>
      <trkpt lat="47.07395" lon="-1.25108">
        <ele>27.508</ele>
        <time>2015-09-11T14:01:44.364Z</time>
      </trkpt>
      <trkpt lat="47.07401" lon="-1.25102">
        <ele>28.067</ele>
        <time>2015-09-11T14:01:46.566Z</time>
      </trkpt>
      <trkpt lat="47.07405" lon="-1.25103">
        <ele>28.272</ele>
        <time>2015-09-11T14:01:47.367Z</time>
      </trkpt>
      <trkpt lat="47.07412" lon="-1.25109">
        <ele>28.699</ele>
        <time>2015-09-11T14:01:50.542Z</time>
      </trkpt>
      <trkpt lat="47.07414" lon="-1.25111">
        <ele>28.78</ele>
        <time>2015-09-11T14:01:51.367Z</time>
      </trkpt>
      <trkpt lat="47.07421" lon="-1.25118">
        <ele>28.518</ele>
        <time>2015-09-11T14:01:59.632Z</time>
      </trkpt>
      <trkpt lat="47.07423" lon="-1.2512">
        <ele>28.382</ele>
        <time>2015-09-11T14:02:00.372Z</time>
      </trkpt>
      <trkpt lat="47.07428" lon="-1.25124">
        <ele>28.05</ele>
        <time>2015-09-11T14:02:03.551Z</time>
      </trkpt>
      <trkpt lat="47.0743" lon="-1.25128">
        <ele>27.77</ele>
        <time>2015-09-11T14:02:04.364Z</time>
      </trkpt>
      <trkpt lat="47.07434" lon="-1.25133">
        <ele>27.431</ele>
        <time>2015-09-11T14:02:05.495Z</time>
      </trkpt>
      <trkpt lat="47.07445" lon="-1.2515">
        <ele>26.596</ele>
        <time>2015-09-11T14:02:06.445Z</time>
      </trkpt>
      <trkpt lat="47.07449" lon="-1.25155">
        <ele>26.409</ele>
        <time>2015-09-11T14:02:07.368Z</time>
      </trkpt>
      <trkpt lat="47.07453" lon="-1.25159">
        <ele>26.272</ele>
        <time>2015-09-11T14:02:08.334Z</time>
      </trkpt>
      <trkpt lat="47.07456" lon="-1.25164">
        <ele>26.092</ele>
        <time>2015-09-11T14:02:09.473Z</time>
      </trkpt>
      <trkpt lat="47.0746" lon="-1.25169">
        <ele>25.902</ele>
        <time>2015-09-11T14:02:10.366Z</time>
      </trkpt>
      <trkpt lat="47.07463" lon="-1.25174">
        <ele>25.732</ele>
        <time>2015-09-11T14:02:11.376Z</time>
      </trkpt>
      <trkpt lat="47.07467" lon="-1.25178">
        <ele>25.585</ele>
        <time>2015-09-11T14:02:12.336Z</time>
      </trkpt>
      <trkpt lat="47.07473" lon="-1.25179">
        <ele>25.526</ele>
        <time>2015-09-11T14:02:14.494Z</time>
      </trkpt>
      <trkpt lat="47.07478" lon="-1.2518">
        <ele>25.412</ele>
        <time>2015-09-11T14:02:15.435Z</time>
      </trkpt>
      <trkpt lat="47.07486" lon="-1.25182">
        <ele>25.186</ele>
        <time>2015-09-11T14:02:17.49Z</time>
      </trkpt>
      <trkpt lat="47.0749" lon="-1.25182">
        <ele>25.114</ele>
        <time>2015-09-11T14:02:18.367Z</time>
      </trkpt>
      <trkpt lat="47.07496" lon="-1.25188">
        <ele>24.588</ele>
        <time>2015-09-11T14:02:20.6Z</time>
      </trkpt>
      <trkpt lat="47.07499" lon="-1.25192">
        <ele>24.226</ele>
        <time>2015-09-11T14:02:21.41Z</time>
      </trkpt>
      <trkpt lat="47.07505" lon="-1.252">
        <ele>23.965</ele>
        <time>2015-09-11T14:02:23.367Z</time>
      </trkpt>
      <trkpt lat="47.07509" lon="-1.25203">
        <ele>23.904</ele>
        <time>2015-09-11T14:02:24.366Z</time>
      </trkpt>
      <trkpt lat="47.07516" lon="-1.25211">
        <ele>23.669</ele>
        <time>2015-09-11T14:02:26.563Z</time>
      </trkpt>
      <trkpt lat="47.07519" lon="-1.25215">
        <ele>23.501</ele>
        <time>2015-09-11T14:02:27.37Z</time>
      </trkpt>
      <trkpt lat="47.07526" lon="-1.25223">
        <ele>23.07</ele>
        <time>2015-09-11T14:02:29.875Z</time>
      </trkpt>
      <trkpt lat="47.07529" lon="-1.25226">
        <ele>23.063</ele>
        <time>2015-09-11T14:02:30.382Z</time>
      </trkpt>
      <trkpt lat="47.07536" lon="-1.25234">
        <ele>23.412</ele>
        <time>2015-09-11T14:02:32.541Z</time>
      </trkpt>
      <trkpt lat="47.07539" lon="-1.25238">
        <ele>23.64</ele>
        <time>2015-09-11T14:02:33.471Z</time>
      </trkpt>
      <trkpt lat="47.07546" lon="-1.25245">
        <ele>24.17</ele>
        <time>2015-09-11T14:02:35.371Z</time>
      </trkpt>
      <trkpt lat="47.07549" lon="-1.25249">
        <ele>24.478</ele>
        <time>2015-09-11T14:02:36.336Z</time>
      </trkpt>
      <trkpt lat="47.07555" lon="-1.25257">
        <ele>24.946</ele>
        <time>2015-09-11T14:02:38.962Z</time>
      </trkpt>
      <trkpt lat="47.07558" lon="-1.25261">
        <ele>25.112</ele>
        <time>2015-09-11T14:02:39.334Z</time>
      </trkpt>
      <trkpt lat="47.07563" lon="-1.25268">
        <ele>25.459</ele>
        <time>2015-09-11T14:02:41.597Z</time>
      </trkpt>
      <trkpt lat="47.07566" lon="-1.25272">
        <ele>25.67</ele>
        <time>2015-09-11T14:02:42.356Z</time>
      </trkpt>
      <trkpt lat="47.07571" lon="-1.25279">
        <ele>26.155</ele>
        <time>2015-09-11T14:02:44.368Z</time>
      </trkpt>
      <trkpt lat="47.07574" lon="-1.25283">
        <ele>26.374</ele>
        <time>2015-09-11T14:02:45.372Z</time>
      </trkpt>
      <trkpt lat="47.07575" lon="-1.25293">
        <ele>26.582</ele>
        <time>2015-09-11T14:02:47.366Z</time>
      </trkpt>
      <trkpt lat="47.07574" lon="-1.25298">
        <ele>26.591</ele>
        <time>2015-09-11T14:02:48.359Z</time>
      </trkpt>
      <trkpt lat="47.07572" lon="-1.25308">
        <ele>26.699</ele>
        <time>2015-09-11T14:02:50.365Z</time>
      </trkpt>
      <trkpt lat="47.0757" lon="-1.25312">
        <ele>26.876</ele>
        <time>2015-09-11T14:02:51.367Z</time>
      </trkpt>
      <trkpt lat="47.07567" lon="-1.2532">
        <ele>27.135</ele>
        <time>2015-09-11T14:02:53.49Z</time>
      </trkpt>
      <trkpt lat="47.07565" lon="-1.25324">
        <ele>27.199</ele>
        <time>2015-09-11T14:02:54.362Z</time>
      </trkpt>
      <trkpt lat="47.07561" lon="-1.25331">
        <ele>27.265</ele>
        <time>2015-09-11T14:02:56.682Z</time>
      </trkpt>
      <trkpt lat="47.07559" lon="-1.25334">
        <ele>27.306</ele>
        <time>2015-09-11T14:02:57.357Z</time>
      </trkpt>
      <trkpt lat="47.07555" lon="-1.25341">
        <ele>27.565</ele>
        <time>2015-09-11T14:02:59.367Z</time>
      </trkpt>
      <trkpt lat="47.07552" lon="-1.25345">
        <ele>27.765</ele>
        <time>2015-09-11T14:03:00.382Z</time>
      </trkpt>
      <trkpt lat="47.07548" lon="-1.25351">
        <ele>28.122</ele>
        <time>2015-09-11T14:03:02.532Z</time>
      </trkpt>
      <trkpt lat="47.07546" lon="-1.25355">
        <ele>28.286</ele>
        <time>2015-09-11T14:03:03.365Z</time>
      </trkpt>
      <trkpt lat="47.07541" lon="-1.25364">
        <ele>28.58</ele>
        <time>2015-09-11T14:03:05.5Z</time>
      </trkpt>
      <trkpt lat="47.07539" lon="-1.25369">
        <ele>28.688</ele>
        <time>2015-09-11T14:03:06.409Z</time>
      </trkpt>
      <trkpt lat="47.07537" lon="-1.2538">
        <ele>29.008</ele>
        <time>2015-09-11T14:03:08.378Z</time>
      </trkpt>
      <trkpt lat="47.07538" lon="-1.25385">
        <ele>29.224</ele>
        <time>2015-09-11T14:03:09.335Z</time>
      </trkpt>
      <trkpt lat="47.0754" lon="-1.25397">
        <ele>29.591</ele>
        <time>2015-09-11T14:03:11.58Z</time>
      </trkpt>
      <trkpt lat="47.07541" lon="-1.25403">
        <ele>29.731</ele>
        <time>2015-09-11T14:03:12.37Z</time>
      </trkpt>
      <trkpt lat="47.07544" lon="-1.25414">
        <ele>29.965</ele>
        <time>2015-09-11T14:03:14.38Z</time>
      </trkpt>
      <trkpt lat="47.07545" lon="-1.2542">
        <ele>29.954</ele>
        <time>2015-09-11T14:03:15.361Z</time>
      </trkpt>
      <trkpt lat="47.07548" lon="-1.25432">
        <ele>29.849</ele>
        <time>2015-09-11T14:03:17.37Z</time>
      </trkpt>
      <trkpt lat="47.07549" lon="-1.25438">
        <ele>29.819</ele>
        <time>2015-09-11T14:03:18.39Z</time>
      </trkpt>
      <trkpt lat="47.0755" lon="-1.25444">
        <ele>29.812</ele>
        <time>2015-09-11T14:03:19.515Z</time>
      </trkpt>
      <trkpt lat="47.07553" lon="-1.25451">
        <ele>29.638</ele>
        <time>2015-09-11T14:03:20.36Z</time>
      </trkpt>
      <trkpt lat="47.07556" lon="-1.25463">
        <ele>29.418</ele>
        <time>2015-09-11T14:03:22.554Z</time>
      </trkpt>
      <trkpt lat="47.07558" lon="-1.25469">
        <ele>29.39</ele>
        <time>2015-09-11T14:03:23.355Z</time>
      </trkpt>
      <trkpt lat="47.07561" lon="-1.25479">
        <ele>29.597</ele>
        <time>2015-09-11T14:03:25.966Z</time>
      </trkpt>
      <trkpt lat="47.07563" lon="-1.25484">
        <ele>29.703</ele>
        <time>2015-09-11T14:03:26.371Z</time>
      </trkpt>
      <trkpt lat="47.07567" lon="-1.25494">
        <ele>30.135</ele>
        <time>2015-09-11T14:03:28.381Z</time>
      </trkpt>
      <trkpt lat="47.0757" lon="-1.25498">
        <ele>30.562</ele>
        <time>2015-09-11T14:03:29.337Z</time>
      </trkpt>
      <trkpt lat="47.07576" lon="-1.25505">
        <ele>31.489</ele>
        <time>2015-09-11T14:03:31.508Z</time>
      </trkpt>
      <trkpt lat="47.07579" lon="-1.25508">
        <ele>31.918</ele>
        <time>2015-09-11T14:03:32.364Z</time>
      </trkpt>
      <trkpt lat="47.07586" lon="-1.25515">
        <ele>32.602</ele>
        <time>2015-09-11T14:03:34.379Z</time>
      </trkpt>
      <trkpt lat="47.07589" lon="-1.25519">
        <ele>32.713</ele>
        <time>2015-09-11T14:03:35.343Z</time>
      </trkpt>
      <trkpt lat="47.07595" lon="-1.25527">
        <ele>32.897</ele>
        <time>2015-09-11T14:03:37.537Z</time>
      </trkpt>
      <trkpt lat="47.07598" lon="-1.25532">
        <ele>32.853</ele>
        <time>2015-09-11T14:03:38.364Z</time>
      </trkpt>
      <trkpt lat="47.07601" lon="-1.25537">
        <ele>32.772</ele>
        <time>2015-09-11T14:03:39.491Z</time>
      </trkpt>
      <trkpt lat="47.07603" lon="-1.25546">
        <ele>32.578</ele>
        <time>2015-09-11T14:03:40.371Z</time>
      </trkpt>
      <trkpt lat="47.07604" lon="-1.25552">
        <ele>32.43</ele>
        <time>2015-09-11T14:03:41.506Z</time>
      </trkpt>
      <trkpt lat="47.07605" lon="-1.2556">
        <ele>32.286</ele>
        <time>2015-09-11T14:03:42.364Z</time>
      </trkpt>
      <trkpt lat="47.07606" lon="-1.25566">
        <ele>32.238</ele>
        <time>2015-09-11T14:03:43.368Z</time>
      </trkpt>
      <trkpt lat="47.07603" lon="-1.25574">
        <ele>31.797</ele>
        <time>2015-09-11T14:03:44.334Z</time>
      </trkpt>
      <trkpt lat="47.07602" lon="-1.25582">
        <ele>31.296</ele>
        <time>2015-09-11T14:03:45.481Z</time>
      </trkpt>
      <trkpt lat="47.076" lon="-1.25588">
        <ele>30.936</ele>
        <time>2015-09-11T14:03:46.361Z</time>
      </trkpt>
      <trkpt lat="47.07598" lon="-1.256">
        <ele>30.305</ele>
        <time>2015-09-11T14:03:48.493Z</time>
      </trkpt>
      <trkpt lat="47.07597" lon="-1.25607">
        <ele>30.073</ele>
        <time>2015-09-11T14:03:49.417Z</time>
      </trkpt>
      <trkpt lat="47.07595" lon="-1.25614">
        <ele>29.477</ele>
        <time>2015-09-11T14:03:50.503Z</time>
      </trkpt>
      <trkpt lat="47.07595" lon="-1.25622">
        <ele>29.056</ele>
        <time>2015-09-11T14:03:51.368Z</time>
      </trkpt>
      <trkpt lat="47.07594" lon="-1.25628">
        <ele>28.667</ele>
        <time>2015-09-11T14:03:52.502Z</time>
      </trkpt>
      <trkpt lat="47.07593" lon="-1.25636">
        <ele>28.188</ele>
        <time>2015-09-11T14:03:53.378Z</time>
      </trkpt>
      <trkpt lat="47.07592" lon="-1.25644">
        <ele>27.821</ele>
        <time>2015-09-11T14:03:54.591Z</time>
      </trkpt>
      <trkpt lat="47.07591" lon="-1.25651">
        <ele>27.801</ele>
        <time>2015-09-11T14:03:55.358Z</time>
      </trkpt>
      <trkpt lat="47.07592" lon="-1.25658">
        <ele>28.088</ele>
        <time>2015-09-11T14:03:56.368Z</time>
      </trkpt>
      <trkpt lat="47.07592" lon="-1.25667">
        <ele>28.082</ele>
        <time>2015-09-11T14:03:57.336Z</time>
      </trkpt>
      <trkpt lat="47.07591" lon="-1.25675">
        <ele>27.73</ele>
        <time>2015-09-11T14:03:58.572Z</time>
      </trkpt>
      <trkpt lat="47.07591" lon="-1.25682">
        <ele>27.715</ele>
        <time>2015-09-11T14:03:59.367Z</time>
      </trkpt>
      <trkpt lat="47.0759" lon="-1.25688">
        <ele>27.494</ele>
        <time>2015-09-11T14:04:00.366Z</time>
      </trkpt>
      <trkpt lat="47.07589" lon="-1.25694">
        <ele>27.203</ele>
        <time>2015-09-11T14:04:01.335Z</time>
      </trkpt>
      <trkpt lat="47.07588" lon="-1.25702">
        <ele>27.201</ele>
        <time>2015-09-11T14:04:02.547Z</time>
      </trkpt>
      <trkpt lat="47.07588" lon="-1.25708">
        <ele>27.396</ele>
        <time>2015-09-11T14:04:03.363Z</time>
      </trkpt>
      <trkpt lat="47.07589" lon="-1.25716">
        <ele>27.601</ele>
        <time>2015-09-11T14:04:04.512Z</time>
      </trkpt>
      <trkpt lat="47.07588" lon="-1.25722">
        <ele>27.662</ele>
        <time>2015-09-11T14:04:05.359Z</time>
      </trkpt>
      <trkpt lat="47.07588" lon="-1.25729">
        <ele>27.864</ele>
        <time>2015-09-11T14:04:06.514Z</time>
      </trkpt>
      <trkpt lat="47.07588" lon="-1.25736">
        <ele>28.042</ele>
        <time>2015-09-11T14:04:07.377Z</time>
      </trkpt>
      <trkpt lat="47.07589" lon="-1.25743">
        <ele>28.225</ele>
        <time>2015-09-11T14:04:08.365Z</time>
      </trkpt>
      <trkpt lat="47.0759" lon="-1.25751">
        <ele>28.497</ele>
        <time>2015-09-11T14:04:09.334Z</time>
      </trkpt>
      <trkpt lat="47.07592" lon="-1.25761">
        <ele>28.469</ele>
        <time>2015-09-11T14:04:11.485Z</time>
      </trkpt>
      <trkpt lat="47.07594" lon="-1.25765">
        <ele>28.565</ele>
        <time>2015-09-11T14:04:12.358Z</time>
      </trkpt>
      <trkpt lat="47.07597" lon="-1.25773">
        <ele>28.564</ele>
        <time>2015-09-11T14:04:13.513Z</time>
      </trkpt>
      <trkpt lat="47.076" lon="-1.25778">
        <ele>28.585</ele>
        <time>2015-09-11T14:04:14.371Z</time>
      </trkpt>
      <trkpt lat="47.07604" lon="-1.25783">
        <ele>28.556</ele>
        <time>2015-09-11T14:04:16.087Z</time>
      </trkpt>
      <trkpt lat="47.07608" lon="-1.25794">
        <ele>28.315</ele>
        <time>2015-09-11T14:04:17.26Z</time>
      </trkpt>
      <trkpt lat="47.07611" lon="-1.25801">
        <ele>28.146</ele>
        <time>2015-09-11T14:04:17.548Z</time>
      </trkpt>
      <trkpt lat="47.07614" lon="-1.25809">
        <ele>28.005</ele>
        <time>2015-09-11T14:04:18.528Z</time>
      </trkpt>
      <trkpt lat="47.07617" lon="-1.25818">
        <ele>27.875</ele>
        <time>2015-09-11T14:04:19.681Z</time>
      </trkpt>
      <trkpt lat="47.07621" lon="-1.25826">
        <ele>27.876</ele>
        <time>2015-09-11T14:04:20.56Z</time>
      </trkpt>
      <trkpt lat="47.07624" lon="-1.25833">
        <ele>27.926</ele>
        <time>2015-09-11T14:04:21.547Z</time>
      </trkpt>
      <trkpt lat="47.07627" lon="-1.25838">
        <ele>27.983</ele>
        <time>2015-09-11T14:04:22.529Z</time>
      </trkpt>
      <trkpt lat="47.0763" lon="-1.2585">
        <ele>27.807</ele>
        <time>2015-09-11T14:04:23.61Z</time>
      </trkpt>
      <trkpt lat="47.07633" lon="-1.2586">
        <ele>27.645</ele>
        <time>2015-09-11T14:04:24.556Z</time>
      </trkpt>
      <trkpt lat="47.07636" lon="-1.25868">
        <ele>27.53</ele>
        <time>2015-09-11T14:04:25.697Z</time>
      </trkpt>
      <trkpt lat="47.07642" lon="-1.25877">
        <ele>27.695</ele>
        <time>2015-09-11T14:04:26.557Z</time>
      </trkpt>
      <trkpt lat="47.07644" lon="-1.25886">
        <ele>27.643</ele>
        <time>2015-09-11T14:04:27.726Z</time>
      </trkpt>
      <trkpt lat="47.07647" lon="-1.25895">
        <ele>27.577</ele>
        <time>2015-09-11T14:04:28.555Z</time>
      </trkpt>
      <trkpt lat="47.07652" lon="-1.259">
        <ele>27.837</ele>
        <time>2015-09-11T14:04:29.677Z</time>
      </trkpt>
      <trkpt lat="47.07656" lon="-1.25909">
        <ele>27.714</ele>
        <time>2015-09-11T14:04:30.565Z</time>
      </trkpt>
      <trkpt lat="47.07661" lon="-1.25915">
        <ele>27.699</ele>
        <time>2015-09-11T14:04:31.8Z</time>
      </trkpt>
      <trkpt lat="47.07664" lon="-1.2592">
        <ele>27.539</ele>
        <time>2015-09-11T14:04:32.559Z</time>
      </trkpt>
      <trkpt lat="47.0767" lon="-1.25928">
        <ele>27.268</ele>
        <time>2015-09-11T14:04:33.558Z</time>
      </trkpt>
      <trkpt lat="47.07678" lon="-1.2594">
        <ele>26.735</ele>
        <time>2015-09-11T14:04:34.526Z</time>
      </trkpt>
      <trkpt lat="47.07686" lon="-1.25943">
        <ele>26.796</ele>
        <time>2015-09-11T14:04:35.676Z</time>
      </trkpt>
      <trkpt lat="47.07692" lon="-1.25947">
        <ele>26.706</ele>
        <time>2015-09-11T14:04:36.553Z</time>
      </trkpt>
      <trkpt lat="47.07698" lon="-1.2595">
        <ele>26.629</ele>
        <time>2015-09-11T14:04:37.791Z</time>
      </trkpt>
      <trkpt lat="47.07705" lon="-1.25952">
        <ele>26.492</ele>
        <time>2015-09-11T14:04:38.524Z</time>
      </trkpt>
      <trkpt lat="47.07711" lon="-1.25955">
        <ele>26.233</ele>
        <time>2015-09-11T14:04:39.608Z</time>
      </trkpt>
      <trkpt lat="47.07718" lon="-1.25958">
        <ele>26.046</ele>
        <time>2015-09-11T14:04:40.551Z</time>
      </trkpt>
      <trkpt lat="47.07721" lon="-1.25962">
        <ele>25.772</ele>
        <time>2015-09-11T14:04:41.691Z</time>
      </trkpt>
      <trkpt lat="47.07724" lon="-1.25967">
        <ele>25.497</ele>
        <time>2015-09-11T14:04:42.553Z</time>
      </trkpt>
      <trkpt lat="47.07724" lon="-1.25975">
        <ele>24.958</ele>
        <time>2015-09-11T14:04:43.552Z</time>
      </trkpt>
      <trkpt lat="47.07723" lon="-1.25981">
        <ele>24.452</ele>
        <time>2015-09-11T14:04:44.524Z</time>
      </trkpt>
      <trkpt lat="47.07728" lon="-1.25991">
        <ele>23.978</ele>
        <time>2015-09-11T14:04:48.558Z</time>
      </trkpt>
      <trkpt lat="47.0773" lon="-1.25992">
        <ele>23.971</ele>
        <time>2015-09-11T14:04:49.527Z</time>
      </trkpt>
      <trkpt lat="47.07738" lon="-1.25993">
        <ele>24.206</ele>
        <time>2015-09-11T14:04:52.558Z</time>
      </trkpt>
      <trkpt lat="47.07741" lon="-1.25993">
        <ele>24.417</ele>
        <time>2015-09-11T14:04:53.525Z</time>
      </trkpt>
      <trkpt lat="47.07745" lon="-1.25992">
        <ele>24.63</ele>
        <time>2015-09-11T14:04:54.646Z</time>
      </trkpt>
      <trkpt lat="47.07752" lon="-1.25993">
        <ele>24.868</ele>
        <time>2015-09-11T14:04:55.559Z</time>
      </trkpt>
      <trkpt lat="47.07758" lon="-1.25996">
        <ele>24.745</ele>
        <time>2015-09-11T14:04:57.686Z</time>
      </trkpt>
      <trkpt lat="47.07762" lon="-1.25997">
        <ele>24.767</ele>
        <time>2015-09-11T14:04:58.626Z</time>
      </trkpt>
      <trkpt lat="47.07768" lon="-1.26001">
        <ele>24.547</ele>
        <time>2015-09-11T14:05:00.558Z</time>
      </trkpt>
      <trkpt lat="47.07772" lon="-1.26002">
        <ele>24.576</ele>
        <time>2015-09-11T14:05:01.608Z</time>
      </trkpt>
      <trkpt lat="47.0778" lon="-1.26005">
        <ele>24.49</ele>
        <time>2015-09-11T14:05:03.557Z</time>
      </trkpt>
      <trkpt lat="47.07783" lon="-1.26007">
        <ele>24.407</ele>
        <time>2015-09-11T14:05:04.553Z</time>
      </trkpt>
      <trkpt lat="47.0779" lon="-1.26007">
        <ele>24.731</ele>
        <time>2015-09-11T14:05:06.688Z</time>
      </trkpt>
      <trkpt lat="47.07793" lon="-1.26006">
        <ele>24.911</ele>
        <time>2015-09-11T14:05:07.563Z</time>
      </trkpt>
      <trkpt lat="47.07799" lon="-1.26002">
        <ele>25.555</ele>
        <time>2015-09-11T14:05:09.684Z</time>
      </trkpt>
      <trkpt lat="47.07801" lon="-1.26">
        <ele>25.874</ele>
        <time>2015-09-11T14:05:10.55Z</time>
      </trkpt>
      <trkpt lat="47.07807" lon="-1.25997">
        <ele>26.496</ele>
        <time>2015-09-11T14:05:12.74Z</time>
      </trkpt>
      <trkpt lat="47.0781" lon="-1.25996">
        <ele>26.747</ele>
        <time>2015-09-11T14:05:13.553Z</time>
      </trkpt>
      <trkpt lat="47.07817" lon="-1.25994">
        <ele>27.15</ele>
        <time>2015-09-11T14:05:15.557Z</time>
      </trkpt>
      <trkpt lat="47.0782" lon="-1.25993">
        <ele>27.364</ele>
        <time>2015-09-11T14:05:16.548Z</time>
      </trkpt>
      <trkpt lat="47.07826" lon="-1.2599">
        <ele>27.857</ele>
        <time>2015-09-11T14:05:18.682Z</time>
      </trkpt>
      <trkpt lat="47.07829" lon="-1.25989">
        <ele>28.114</ele>
        <time>2015-09-11T14:05:19.559Z</time>
      </trkpt>
      <trkpt lat="47.07837" lon="-1.25985">
        <ele>28.423</ele>
        <time>2015-09-11T14:05:21.686Z</time>
      </trkpt>
      <trkpt lat="47.07841" lon="-1.25984">
        <ele>28.297</ele>
        <time>2015-09-11T14:05:22.553Z</time>
      </trkpt>
      <trkpt lat="47.07849" lon="-1.25984">
        <ele>27.837</ele>
        <time>2015-09-11T14:05:24.576Z</time>
      </trkpt>
      <trkpt lat="47.07853" lon="-1.25984">
        <ele>27.582</ele>
        <time>2015-09-11T14:05:25.552Z</time>
      </trkpt>
      <trkpt lat="47.07861" lon="-1.25984">
        <ele>27.193</ele>
        <time>2015-09-11T14:05:28.05Z</time>
      </trkpt>
      <trkpt lat="47.07865" lon="-1.25982">
        <ele>27.009</ele>
        <time>2015-09-11T14:05:28.526Z</time>
      </trkpt>
      <trkpt lat="47.07873" lon="-1.25981">
        <ele>26.49</ele>
        <time>2015-09-11T14:05:30.766Z</time>
      </trkpt>
      <trkpt lat="47.07877" lon="-1.25982">
        <ele>26.188</ele>
        <time>2015-09-11T14:05:31.557Z</time>
      </trkpt>
      <trkpt lat="47.07885" lon="-1.25982">
        <ele>25.547</ele>
        <time>2015-09-11T14:05:33.679Z</time>
      </trkpt>
      <trkpt lat="47.0789" lon="-1.25983">
        <ele>25.305</ele>
        <time>2015-09-11T14:05:34.553Z</time>
      </trkpt>
      <trkpt lat="47.07897" lon="-1.25982">
        <ele>25.726</ele>
        <time>2015-09-11T14:05:36.559Z</time>
      </trkpt>
      <trkpt lat="47.079" lon="-1.25981">
        <ele>25.889</ele>
        <time>2015-09-11T14:05:37.562Z</time>
      </trkpt>
      <trkpt lat="47.07909" lon="-1.25979">
        <ele>26.394</ele>
        <time>2015-09-11T14:05:39.691Z</time>
      </trkpt>
      <trkpt lat="47.07912" lon="-1.25978">
        <ele>26.594</ele>
        <time>2015-09-11T14:05:40.524Z</time>
      </trkpt>
      <trkpt lat="47.0792" lon="-1.25979">
        <ele>27.079</ele>
        <time>2015-09-11T14:05:42.696Z</time>
      </trkpt>
      <trkpt lat="47.07924" lon="-1.25978">
        <ele>27.519</ele>
        <time>2015-09-11T14:05:43.602Z</time>
      </trkpt>
      <trkpt lat="47.07932" lon="-1.25976">
        <ele>28.466</ele>
        <time>2015-09-11T14:05:46.695Z</time>
      </trkpt>
      <trkpt lat="47.07935" lon="-1.25978">
        <ele>28.673</ele>
        <time>2015-09-11T14:05:47.553Z</time>
      </trkpt>
      <trkpt lat="47.0794" lon="-1.25986">
        <ele>28.604</ele>
        <time>2015-09-11T14:05:49.697Z</time>
      </trkpt>
      <trkpt lat="47.07941" lon="-1.2599">
        <ele>28.461</ele>
        <time>2015-09-11T14:05:50.612Z</time>
      </trkpt>
      <trkpt lat="47.07944" lon="-1.25999">
        <ele>28.061</ele>
        <time>2015-09-11T14:05:52.56Z</time>
      </trkpt>
      <trkpt lat="47.07945" lon="-1.26003">
        <ele>28.12</ele>
        <time>2015-09-11T14:05:53.522Z</time>
      </trkpt>
      <trkpt lat="47.07949" lon="-1.26013">
        <ele>28.579</ele>
        <time>2015-09-11T14:05:56.657Z</time>
      </trkpt>
      <trkpt lat="47.07951" lon="-1.26016">
        <ele>28.749</ele>
        <time>2015-09-11T14:05:57.525Z</time>
      </trkpt>
      <trkpt lat="47.07956" lon="-1.26024">
        <ele>29.346</ele>
        <time>2015-09-11T14:06:00.702Z</time>
      </trkpt>
      <trkpt lat="47.07958" lon="-1.26028">
        <ele>29.426</ele>
        <time>2015-09-11T14:06:01.553Z</time>
      </trkpt>
      <trkpt lat="47.0796" lon="-1.2604">
        <ele>29.44</ele>
        <time>2015-09-11T14:06:04.56Z</time>
      </trkpt>
      <trkpt lat="47.0796" lon="-1.26044">
        <ele>29.444</ele>
        <time>2015-09-11T14:06:05.521Z</time>
      </trkpt>
      <trkpt lat="47.07969" lon="-1.26042">
        <ele>30.532</ele>
        <time>2015-09-11T14:06:11.558Z</time>
      </trkpt>
      <trkpt lat="47.0797" lon="-1.26039">
        <ele>30.703</ele>
        <time>2015-09-11T14:06:12.537Z</time>
      </trkpt>
      <trkpt lat="47.07975" lon="-1.2603">
        <ele>31.283</ele>
        <time>2015-09-11T14:06:16.771Z</time>
      </trkpt>
      <trkpt lat="47.07976" lon="-1.26027">
        <ele>31.434</ele>
        <time>2015-09-11T14:06:17.525Z</time>
      </trkpt>
      <trkpt lat="47.07983" lon="-1.26024">
        <ele>32.204</ele>
        <time>2015-09-11T14:06:20.558Z</time>
      </trkpt>
      <trkpt lat="47.07985" lon="-1.26025">
        <ele>32.481</ele>
        <time>2015-09-11T14:06:21.557Z</time>
      </trkpt>
      <trkpt lat="47.07994" lon="-1.26029">
        <ele>33.321</ele>
        <time>2015-09-11T14:06:24.685Z</time>
      </trkpt>
      <trkpt lat="47.07997" lon="-1.2603">
        <ele>33.597</ele>
        <time>2015-09-11T14:06:25.646Z</time>
      </trkpt>
      <trkpt lat="47.08004" lon="-1.26032">
        <ele>33.981</ele>
        <time>2015-09-11T14:06:27.558Z</time>
      </trkpt>
      <trkpt lat="47.08007" lon="-1.26033">
        <ele>34.09</ele>
        <time>2015-09-11T14:06:28.521Z</time>
      </trkpt>
      <trkpt lat="47.08013" lon="-1.26035">
        <ele>34.333</ele>
        <time>2015-09-11T14:06:30.567Z</time>
      </trkpt>
      <trkpt lat="47.08016" lon="-1.26036">
        <ele>34.465</ele>
        <time>2015-09-11T14:06:31.521Z</time>
      </trkpt>
      <trkpt lat="47.08023" lon="-1.26038">
        <ele>34.752</ele>
        <time>2015-09-11T14:06:33.559Z</time>
      </trkpt>
      <trkpt lat="47.08026" lon="-1.2604">
        <ele>34.909</ele>
        <time>2015-09-11T14:06:34.52Z</time>
      </trkpt>
      <trkpt lat="47.08032" lon="-1.26042">
        <ele>35.078</ele>
        <time>2015-09-11T14:06:36.627Z</time>
      </trkpt>
      <trkpt lat="47.08038" lon="-1.26044">
        <ele>35.154</ele>
        <time>2015-09-11T14:06:39.1Z</time>
      </trkpt>
      <trkpt lat="47.08045" lon="-1.26047">
        <ele>35.191</ele>
        <time>2015-09-11T14:06:40.562Z</time>
      </trkpt>
      <trkpt lat="47.08048" lon="-1.26048">
        <ele>35.192</ele>
        <time>2015-09-11T14:06:41.527Z</time>
      </trkpt>
      <trkpt lat="47.08054" lon="-1.26052">
        <ele>35.134</ele>
        <time>2015-09-11T14:06:43.555Z</time>
      </trkpt>
      <trkpt lat="47.08057" lon="-1.26054">
        <ele>35.108</ele>
        <time>2015-09-11T14:06:44.518Z</time>
      </trkpt>
      <trkpt lat="47.08063" lon="-1.26058">
        <ele>35.176</ele>
        <time>2015-09-11T14:06:46.561Z</time>
      </trkpt>
      <trkpt lat="47.08068" lon="-1.26061">
        <ele>35.23</ele>
        <time>2015-09-11T14:06:47.519Z</time>
      </trkpt>
      <trkpt lat="47.08073" lon="-1.26066">
        <ele>35.252</ele>
        <time>2015-09-11T14:06:48.557Z</time>
      </trkpt>
      <trkpt lat="47.08078" lon="-1.2607">
        <ele>35.277</ele>
        <time>2015-09-11T14:06:49.539Z</time>
      </trkpt>
      <trkpt lat="47.08085" lon="-1.26076">
        <ele>35.358</ele>
        <time>2015-09-11T14:06:51.567Z</time>
      </trkpt>
      <trkpt lat="47.08089" lon="-1.26078">
        <ele>35.453</ele>
        <time>2015-09-11T14:06:52.625Z</time>
      </trkpt>
      <trkpt lat="47.08093" lon="-1.26081">
        <ele>35.489</ele>
        <time>2015-09-11T14:06:53.577Z</time>
      </trkpt>
      <trkpt lat="47.08097" lon="-1.26085">
        <ele>35.473</ele>
        <time>2015-09-11T14:06:54.524Z</time>
      </trkpt>
      <trkpt lat="47.08104" lon="-1.26089">
        <ele>35.69</ele>
        <time>2015-09-11T14:06:56.561Z</time>
      </trkpt>
      <trkpt lat="47.08109" lon="-1.26091">
        <ele>35.907</ele>
        <time>2015-09-11T14:06:57.646Z</time>
      </trkpt>
      <trkpt lat="47.08114" lon="-1.26093">
        <ele>36.208</ele>
        <time>2015-09-11T14:06:59.037Z</time>
      </trkpt>
      <trkpt lat="47.08119" lon="-1.26096">
        <ele>36.554</ele>
        <time>2015-09-11T14:06:59.52Z</time>
      </trkpt>
      <trkpt lat="47.08124" lon="-1.26099">
        <ele>36.906</ele>
        <time>2015-09-11T14:07:00.56Z</time>
      </trkpt>
      <trkpt lat="47.08128" lon="-1.26102">
        <ele>37.216</ele>
        <time>2015-09-11T14:07:01.521Z</time>
      </trkpt>
      <trkpt lat="47.08132" lon="-1.26106">
        <ele>37.482</ele>
        <time>2015-09-11T14:07:02.556Z</time>
      </trkpt>
      <trkpt lat="47.08136" lon="-1.26109">
        <ele>37.806</ele>
        <time>2015-09-11T14:07:03.579Z</time>
      </trkpt>
      <trkpt lat="47.08141" lon="-1.26112">
        <ele>38</ele>
        <time>2015-09-11T14:07:04.559Z</time>
      </trkpt>
      <trkpt lat="47.08145" lon="-1.26116">
        <ele>38</ele>
        <time>2015-09-11T14:07:05.528Z</time>
      </trkpt>
      <trkpt lat="47.08149" lon="-1.26121">
        <ele>38</ele>
        <time>2015-09-11T14:07:06.726Z</time>
      </trkpt>
      <trkpt lat="47.08152" lon="-1.26125">
        <ele>38</ele>
        <time>2015-09-11T14:07:07.561Z</time>
      </trkpt>
      <trkpt lat="47.08159" lon="-1.26134">
        <ele>38</ele>
        <time>2015-09-11T14:07:09.62Z</time>
      </trkpt>
      <trkpt lat="47.08162" lon="-1.26136">
        <ele>38</ele>
        <time>2015-09-11T14:07:10.554Z</time>
      </trkpt>
      <trkpt lat="47.08169" lon="-1.26143">
        <ele>37.987</ele>
        <time>2015-09-11T14:07:12.57Z</time>
      </trkpt>
      <trkpt lat="47.08173" lon="-1.26147">
        <ele>37.941</ele>
        <time>2015-09-11T14:07:13.601Z</time>
      </trkpt>
      <trkpt lat="47.08181" lon="-1.26141">
        <ele>37.957</ele>
        <time>2015-09-11T14:07:19.559Z</time>
      </trkpt>
      <trkpt lat="47.08182" lon="-1.26141">
        <ele>37.963</ele>
        <time>2015-09-11T14:07:20.521Z</time>
      </trkpt>
      <trkpt lat="47.0819" lon="-1.26143">
        <ele>37.872</ele>
        <time>2015-09-11T14:07:22.557Z</time>
      </trkpt>
      <trkpt lat="47.08195" lon="-1.26147">
        <ele>37.71</ele>
        <time>2015-09-11T14:07:23.557Z</time>
      </trkpt>
      <trkpt lat="47.082" lon="-1.26151">
        <ele>37.653</ele>
        <time>2015-09-11T14:07:24.568Z</time>
      </trkpt>
      <trkpt lat="47.08209" lon="-1.26163">
        <ele>37.597</ele>
        <time>2015-09-11T14:07:25.525Z</time>
      </trkpt>
      <trkpt lat="47.08214" lon="-1.26166">
        <ele>37.718</ele>
        <time>2015-09-11T14:07:26.788Z</time>
      </trkpt>
      <trkpt lat="47.08221" lon="-1.2617">
        <ele>37.945</ele>
        <time>2015-09-11T14:07:27.525Z</time>
      </trkpt>
      <trkpt lat="47.08226" lon="-1.26172">
        <ele>38.118</ele>
        <time>2015-09-11T14:07:28.568Z</time>
      </trkpt>
      <trkpt lat="47.08235" lon="-1.26183">
        <ele>38.467</ele>
        <time>2015-09-11T14:07:29.554Z</time>
      </trkpt>
      <trkpt lat="47.0824" lon="-1.26184">
        <ele>38.644</ele>
        <time>2015-09-11T14:07:30.567Z</time>
      </trkpt>
      <trkpt lat="47.08244" lon="-1.26182">
        <ele>38.798</ele>
        <time>2015-09-11T14:07:31.525Z</time>
      </trkpt>
      <trkpt lat="47.08249" lon="-1.26183">
        <ele>38.968</ele>
        <time>2015-09-11T14:07:32.773Z</time>
      </trkpt>
      <trkpt lat="47.08254" lon="-1.26182">
        <ele>39.14</ele>
        <time>2015-09-11T14:07:33.524Z</time>
      </trkpt>
      <trkpt lat="47.08263" lon="-1.26182">
        <ele>39.45</ele>
        <time>2015-09-11T14:07:35.699Z</time>
      </trkpt>
      <trkpt lat="47.08266" lon="-1.26181">
        <ele>39.583</ele>
        <time>2015-09-11T14:07:36.559Z</time>
      </trkpt>
      <trkpt lat="47.08273" lon="-1.26185">
        <ele>39.817</ele>
        <time>2015-09-11T14:07:38.681Z</time>
      </trkpt>
      <trkpt lat="47.08275" lon="-1.26189">
        <ele>39.914</ele>
        <time>2015-09-11T14:07:39.557Z</time>
      </trkpt>
      <trkpt lat="47.08281" lon="-1.26198">
        <ele>40</ele>
        <time>2015-09-11T14:07:41.562Z</time>
      </trkpt>
      <trkpt lat="47.08284" lon="-1.26207">
        <ele>40</ele>
        <time>2015-09-11T14:07:42.557Z</time>
      </trkpt>
      <trkpt lat="47.08286" lon="-1.26213">
        <ele>40</ele>
        <time>2015-09-11T14:07:43.684Z</time>
      </trkpt>
      <trkpt lat="47.08289" lon="-1.26219">
        <ele>40</ele>
        <time>2015-09-11T14:07:44.897Z</time>
      </trkpt>
      <trkpt lat="47.08292" lon="-1.26227">
        <ele>39.846</ele>
        <time>2015-09-11T14:07:45.562Z</time>
      </trkpt>
      <trkpt lat="47.08295" lon="-1.2623">
        <ele>39.709</ele>
        <time>2015-09-11T14:07:46.525Z</time>
      </trkpt>
      <trkpt lat="47.08299" lon="-1.26235">
        <ele>39.526</ele>
        <time>2015-09-11T14:07:47.698Z</time>
      </trkpt>
      <trkpt lat="47.08303" lon="-1.26239">
        <ele>39.41</ele>
        <time>2015-09-11T14:07:48.565Z</time>
      </trkpt>
      <trkpt lat="47.08307" lon="-1.26241">
        <ele>39.268</ele>
        <time>2015-09-11T14:07:49.562Z</time>
      </trkpt>
      <trkpt lat="47.08312" lon="-1.26243">
        <ele>39.027</ele>
        <time>2015-09-11T14:07:50.526Z</time>
      </trkpt>
      <trkpt lat="47.08317" lon="-1.26246">
        <ele>38.721</ele>
        <time>2015-09-11T14:07:51.561Z</time>
      </trkpt>
      <trkpt lat="47.08322" lon="-1.26251">
        <ele>38.383</ele>
        <time>2015-09-11T14:07:52.527Z</time>
      </trkpt>
      <trkpt lat="47.08328" lon="-1.26254">
        <ele>37.954</ele>
        <time>2015-09-11T14:07:53.686Z</time>
      </trkpt>
      <trkpt lat="47.08332" lon="-1.26255">
        <ele>37.645</ele>
        <time>2015-09-11T14:07:54.523Z</time>
      </trkpt>
      <trkpt lat="47.08338" lon="-1.26258">
        <ele>37.293</ele>
        <time>2015-09-11T14:07:55.576Z</time>
      </trkpt>
      <trkpt lat="47.08345" lon="-1.26264">
        <ele>36.778</ele>
        <time>2015-09-11T14:07:56.572Z</time>
      </trkpt>
      <trkpt lat="47.0835" lon="-1.26269">
        <ele>36.454</ele>
        <time>2015-09-11T14:07:57.56Z</time>
      </trkpt>
      <trkpt lat="47.08356" lon="-1.26273">
        <ele>36.219</ele>
        <time>2015-09-11T14:07:58.527Z</time>
      </trkpt>
      <trkpt lat="47.08361" lon="-1.26277">
        <ele>36.004</ele>
        <time>2015-09-11T14:07:59.561Z</time>
      </trkpt>
      <trkpt lat="47.08367" lon="-1.26284">
        <ele>35.356</ele>
        <time>2015-09-11T14:08:00.525Z</time>
      </trkpt>
      <trkpt lat="47.08373" lon="-1.2629">
        <ele>34.711</ele>
        <time>2015-09-11T14:08:01.693Z</time>
      </trkpt>
      <trkpt lat="47.08379" lon="-1.26298">
        <ele>34.016</ele>
        <time>2015-09-11T14:08:02.553Z</time>
      </trkpt>
      <trkpt lat="47.08385" lon="-1.26305">
        <ele>33.322</ele>
        <time>2015-09-11T14:08:03.56Z</time>
      </trkpt>
      <trkpt lat="47.08392" lon="-1.26312">
        <ele>32.696</ele>
        <time>2015-09-11T14:08:04.525Z</time>
      </trkpt>
      <trkpt lat="47.08398" lon="-1.2632">
        <ele>32.32</ele>
        <time>2015-09-11T14:08:05.763Z</time>
      </trkpt>
      <trkpt lat="47.08405" lon="-1.2633">
        <ele>32.055</ele>
        <time>2015-09-11T14:08:06.581Z</time>
      </trkpt>
      <trkpt lat="47.08411" lon="-1.26338">
        <ele>31.965</ele>
        <time>2015-09-11T14:08:07.566Z</time>
      </trkpt>
      <trkpt lat="47.08418" lon="-1.26347">
        <ele>32.155</ele>
        <time>2015-09-11T14:08:08.527Z</time>
      </trkpt>
      <trkpt lat="47.08418" lon="-1.26347">
        <ele>32.155</ele>
        <time>2015-09-11T14:08:08.615Z</time>
      </trkpt>
      <trkpt lat="47.08425" lon="-1.26356">
        <ele>32.822</ele>
        <time>2015-09-11T14:08:09.56Z</time>
      </trkpt>
      <trkpt lat="47.08431" lon="-1.26363">
        <ele>33.638</ele>
        <time>2015-09-11T14:08:10.732Z</time>
      </trkpt>
      <trkpt lat="47.08436" lon="-1.2637">
        <ele>34.433</ele>
        <time>2015-09-11T14:08:11.552Z</time>
      </trkpt>
      <trkpt lat="47.08443" lon="-1.26376">
        <ele>35.438</ele>
        <time>2015-09-11T14:08:14.692Z</time>
      </trkpt>
      <trkpt lat="47.08444" lon="-1.26376">
        <ele>35.52</ele>
        <time>2015-09-11T14:08:15.552Z</time>
      </trkpt>
      <trkpt lat="47.08451" lon="-1.26369">
        <ele>35.685</ele>
        <time>2015-09-11T14:08:58.564Z</time>
      </trkpt>
      <trkpt lat="47.08452" lon="-1.26368">
        <ele>35.716</ele>
        <time>2015-09-11T14:08:59.524Z</time>
      </trkpt>
      <trkpt lat="47.08457" lon="-1.2636">
        <ele>35.875</ele>
        <time>2015-09-11T14:09:06.564Z</time>
      </trkpt>
      <trkpt lat="47.08458" lon="-1.26358">
        <ele>35.857</ele>
        <time>2015-09-11T14:09:07.537Z</time>
      </trkpt>
      <trkpt lat="47.08462" lon="-1.2635">
        <ele>35.85</ele>
        <time>2015-09-11T14:09:10.749Z</time>
      </trkpt>
      <trkpt lat="47.08463" lon="-1.26347">
        <ele>35.864</ele>
        <time>2015-09-11T14:09:11.524Z</time>
      </trkpt>
      <trkpt lat="47.08468" lon="-1.26339">
        <ele>35.936</ele>
        <time>2015-09-11T14:09:14.561Z</time>
      </trkpt>
      <trkpt lat="47.0847" lon="-1.26336">
        <ele>35.965</ele>
        <time>2015-09-11T14:09:15.528Z</time>
      </trkpt>
      <trkpt lat="47.08476" lon="-1.26328">
        <ele>36.26</ele>
        <time>2015-09-11T14:09:18.558Z</time>
      </trkpt>
      <trkpt lat="47.08477" lon="-1.26325">
        <ele>36.421</ele>
        <time>2015-09-11T14:09:19.525Z</time>
      </trkpt>
      <trkpt lat="47.08483" lon="-1.26317">
        <ele>36.999</ele>
        <time>2015-09-11T14:09:22.697Z</time>
      </trkpt>
      <trkpt lat="47.08485" lon="-1.26314">
        <ele>37.19</ele>
        <time>2015-09-11T14:09:23.56Z</time>
      </trkpt>
      <trkpt lat="47.08492" lon="-1.26312">
        <ele>37.944</ele>
        <time>2015-09-11T14:09:27.558Z</time>
      </trkpt>
      <trkpt lat="47.08494" lon="-1.26314">
        <ele>38.147</ele>
        <time>2015-09-11T14:09:28.553Z</time>
      </trkpt>
      <trkpt lat="47.08498" lon="-1.26322">
        <ele>38.276</ele>
        <time>2015-09-11T14:09:30.721Z</time>
      </trkpt>
      <trkpt lat="47.085" lon="-1.26327">
        <ele>38.234</ele>
        <time>2015-09-11T14:09:31.525Z</time>
      </trkpt>
      <trkpt lat="47.08503" lon="-1.26336">
        <ele>38.112</ele>
        <time>2015-09-11T14:09:33.68Z</time>
      </trkpt>
      <trkpt lat="47.08505" lon="-1.26341">
        <ele>38.176</ele>
        <time>2015-09-11T14:09:34.558Z</time>
      </trkpt>
      <trkpt lat="47.08508" lon="-1.26351">
        <ele>38.292</ele>
        <time>2015-09-11T14:09:36.558Z</time>
      </trkpt>
      <trkpt lat="47.0851" lon="-1.26357">
        <ele>38.364</ele>
        <time>2015-09-11T14:09:37.525Z</time>
      </trkpt>
      <trkpt lat="47.08512" lon="-1.26363">
        <ele>38.514</ele>
        <time>2015-09-11T14:09:38.74Z</time>
      </trkpt>
      <trkpt lat="47.08514" lon="-1.26371">
        <ele>38.871</ele>
        <time>2015-09-11T14:09:39.553Z</time>
      </trkpt>
      <trkpt lat="47.08516" lon="-1.26377">
        <ele>39.166</ele>
        <time>2015-09-11T14:09:40.723Z</time>
      </trkpt>
      <trkpt lat="47.08519" lon="-1.26384">
        <ele>39.479</ele>
        <time>2015-09-11T14:09:41.558Z</time>
      </trkpt>
      <trkpt lat="47.08521" lon="-1.2639">
        <ele>39.758</ele>
        <time>2015-09-11T14:09:42.72Z</time>
      </trkpt>
      <trkpt lat="47.08523" lon="-1.26396">
        <ele>39.86</ele>
        <time>2015-09-11T14:09:43.524Z</time>
      </trkpt>
      <trkpt lat="47.08526" lon="-1.26408">
        <ele>39.978</ele>
        <time>2015-09-11T14:09:45.727Z</time>
      </trkpt>
      <trkpt lat="47.08527" lon="-1.26414">
        <ele>39.998</ele>
        <time>2015-09-11T14:09:46.563Z</time>
      </trkpt>
      <trkpt lat="47.08531" lon="-1.26425">
        <ele>39.725</ele>
        <time>2015-09-11T14:09:48.854Z</time>
      </trkpt>
      <trkpt lat="47.08533" lon="-1.26432">
        <ele>39.568</ele>
        <time>2015-09-11T14:09:49.524Z</time>
      </trkpt>
      <trkpt lat="47.08535" lon="-1.26438">
        <ele>39.453</ele>
        <time>2015-09-11T14:09:50.58Z</time>
      </trkpt>
      <trkpt lat="47.08537" lon="-1.26444">
        <ele>39.369</ele>
        <time>2015-09-11T14:09:51.556Z</time>
      </trkpt>
      <trkpt lat="47.08539" lon="-1.26449">
        <ele>39.129</ele>
        <time>2015-09-11T14:09:52.688Z</time>
      </trkpt>
      <trkpt lat="47.08541" lon="-1.26456">
        <ele>38.885</ele>
        <time>2015-09-11T14:09:53.524Z</time>
      </trkpt>
      <trkpt lat="47.08543" lon="-1.26462">
        <ele>38.68</ele>
        <time>2015-09-11T14:09:54.563Z</time>
      </trkpt>
      <trkpt lat="47.08546" lon="-1.26468">
        <ele>38.499</ele>
        <time>2015-09-11T14:09:55.56Z</time>
      </trkpt>
      <trkpt lat="47.08547" lon="-1.26474">
        <ele>38.345</ele>
        <time>2015-09-11T14:09:56.61Z</time>
      </trkpt>
      <trkpt lat="47.08549" lon="-1.2648">
        <ele>38.248</ele>
        <time>2015-09-11T14:09:57.525Z</time>
      </trkpt>
      <trkpt lat="47.08551" lon="-1.26487">
        <ele>38.154</ele>
        <time>2015-09-11T14:09:58.719Z</time>
      </trkpt>
      <trkpt lat="47.08553" lon="-1.26493">
        <ele>38.036</ele>
        <time>2015-09-11T14:09:59.557Z</time>
      </trkpt>
      <trkpt lat="47.08555" lon="-1.26499">
        <ele>37.967</ele>
        <time>2015-09-11T14:10:00.557Z</time>
      </trkpt>
      <trkpt lat="47.08557" lon="-1.26506">
        <ele>38.043</ele>
        <time>2015-09-11T14:10:01.524Z</time>
      </trkpt>
      <trkpt lat="47.08559" lon="-1.26513">
        <ele>38.072</ele>
        <time>2015-09-11T14:10:02.727Z</time>
      </trkpt>
      <trkpt lat="47.08561" lon="-1.26519">
        <ele>38.065</ele>
        <time>2015-09-11T14:10:03.546Z</time>
      </trkpt>
      <trkpt lat="47.08564" lon="-1.26526">
        <ele>38.023</ele>
        <time>2015-09-11T14:10:04.682Z</time>
      </trkpt>
      <trkpt lat="47.08566" lon="-1.26532">
        <ele>37.848</ele>
        <time>2015-09-11T14:10:05.559Z</time>
      </trkpt>
      <trkpt lat="47.08568" lon="-1.26539">
        <ele>37.6</ele>
        <time>2015-09-11T14:10:06.944Z</time>
      </trkpt>
      <trkpt lat="47.0857" lon="-1.26545">
        <ele>37.373</ele>
        <time>2015-09-11T14:10:07.523Z</time>
      </trkpt>
      <trkpt lat="47.08576" lon="-1.2655">
        <ele>37.207</ele>
        <time>2015-09-11T14:10:09.675Z</time>
      </trkpt>
      <trkpt lat="47.0858" lon="-1.26548">
        <ele>37.276</ele>
        <time>2015-09-11T14:10:10.523Z</time>
      </trkpt>
      <trkpt lat="47.08585" lon="-1.26547">
        <ele>37.315</ele>
        <time>2015-09-11T14:10:11.572Z</time>
      </trkpt>
      <trkpt lat="47.08589" lon="-1.26543">
        <ele>37.441</ele>
        <time>2015-09-11T14:10:12.577Z</time>
      </trkpt>
      <trkpt lat="47.08593" lon="-1.26539">
        <ele>37.596</ele>
        <time>2015-09-11T14:10:13.681Z</time>
      </trkpt>
      <trkpt lat="47.08597" lon="-1.26535">
        <ele>37.729</ele>
        <time>2015-09-11T14:10:14.547Z</time>
      </trkpt>
      <trkpt lat="47.08602" lon="-1.26539">
        <ele>37.589</ele>
        <time>2015-09-11T14:10:15.697Z</time>
      </trkpt>
      <trkpt lat="47.08606" lon="-1.26547">
        <ele>37.308</ele>
        <time>2015-09-11T14:10:16.552Z</time>
      </trkpt>
      <trkpt lat="47.08608" lon="-1.26556">
        <ele>37</ele>
        <time>2015-09-11T14:10:17.699Z</time>
      </trkpt>
      <trkpt lat="47.08608" lon="-1.26562">
        <ele>37</ele>
        <time>2015-09-11T14:10:18.549Z</time>
      </trkpt>
      <trkpt lat="47.08607" lon="-1.2657">
        <ele>37</ele>
        <time>2015-09-11T14:10:19.557Z</time>
      </trkpt>
      <trkpt lat="47.08606" lon="-1.26577">
        <ele>37</ele>
        <time>2015-09-11T14:10:20.524Z</time>
      </trkpt>
      <trkpt lat="47.08607" lon="-1.26585">
        <ele>37.06</ele>
        <time>2015-09-11T14:10:21.718Z</time>
      </trkpt>
      <trkpt lat="47.08607" lon="-1.26594">
        <ele>37.373</ele>
        <time>2015-09-11T14:10:22.562Z</time>
      </trkpt>
      <trkpt lat="47.08608" lon="-1.26602">
        <ele>37.686</ele>
        <time>2015-09-11T14:10:23.709Z</time>
      </trkpt>
      <trkpt lat="47.08608" lon="-1.26612">
        <ele>38.012</ele>
        <time>2015-09-11T14:10:24.558Z</time>
      </trkpt>
      <trkpt lat="47.08608" lon="-1.2662">
        <ele>38.279</ele>
        <time>2015-09-11T14:10:25.879Z</time>
      </trkpt>
      <trkpt lat="47.08609" lon="-1.26627">
        <ele>38.536</ele>
        <time>2015-09-11T14:10:26.525Z</time>
      </trkpt>
      <trkpt lat="47.0861" lon="-1.26635">
        <ele>38.817</ele>
        <time>2015-09-11T14:10:27.558Z</time>
      </trkpt>
      <trkpt lat="47.0861" lon="-1.26643">
        <ele>38.823</ele>
        <time>2015-09-11T14:10:28.529Z</time>
      </trkpt>
      <trkpt lat="47.08611" lon="-1.26651">
        <ele>38.567</ele>
        <time>2015-09-11T14:10:29.555Z</time>
      </trkpt>
      <trkpt lat="47.0862" lon="-1.26671">
        <ele>38.279</ele>
        <time>2015-09-11T14:10:32.624Z</time>
      </trkpt>
      <trkpt lat="47.08621" lon="-1.2668">
        <ele>38.185</ele>
        <time>2015-09-11T14:10:33.558Z</time>
      </trkpt>
      <trkpt lat="47.08623" lon="-1.26685">
        <ele>38.15</ele>
        <time>2015-09-11T14:10:34.524Z</time>
      </trkpt>
      <trkpt lat="47.08624" lon="-1.26695">
        <ele>37.997</ele>
        <time>2015-09-11T14:10:35.728Z</time>
      </trkpt>
      <trkpt lat="47.08626" lon="-1.26698">
        <ele>37.946</ele>
        <time>2015-09-11T14:10:36.558Z</time>
      </trkpt>
      <trkpt lat="47.08626" lon="-1.26709">
        <ele>37.764</ele>
        <time>2015-09-11T14:10:37.789Z</time>
      </trkpt>
      <trkpt lat="47.08628" lon="-1.26716">
        <ele>37.693</ele>
        <time>2015-09-11T14:10:38.525Z</time>
      </trkpt>
      <trkpt lat="47.08632" lon="-1.26724">
        <ele>37.671</ele>
        <time>2015-09-11T14:10:39.559Z</time>
      </trkpt>
      <trkpt lat="47.0864" lon="-1.26738">
        <ele>36.88</ele>
        <time>2015-09-11T14:10:40.562Z</time>
      </trkpt>
      <trkpt lat="47.08641" lon="-1.2674">
        <ele>36.787</ele>
        <time>2015-09-11T14:10:41.56Z</time>
      </trkpt>
      <trkpt lat="47.08652" lon="-1.26753">
        <ele>36.468</ele>
        <time>2015-09-11T14:10:42.532Z</time>
      </trkpt>
      <trkpt lat="47.08652" lon="-1.26753">
        <ele>36.468</ele>
        <time>2015-09-11T14:10:42.616Z</time>
      </trkpt>
      <trkpt lat="47.08657" lon="-1.26764">
        <ele>36.645</ele>
        <time>2015-09-11T14:10:43.553Z</time>
      </trkpt>
      <trkpt lat="47.08665" lon="-1.26759">
        <ele>36.944</ele>
        <time>2015-09-11T14:10:45.564Z</time>
      </trkpt>
      <trkpt lat="47.08671" lon="-1.26762">
        <ele>37</ele>
        <time>2015-09-11T14:10:46.557Z</time>
      </trkpt>
      <trkpt lat="47.08677" lon="-1.26768">
        <ele>37</ele>
        <time>2015-09-11T14:10:47.745Z</time>
      </trkpt>
      <trkpt lat="47.08679" lon="-1.26775">
        <ele>37</ele>
        <time>2015-09-11T14:10:48.605Z</time>
      </trkpt>
      <trkpt lat="47.08683" lon="-1.26781">
        <ele>37</ele>
        <time>2015-09-11T14:10:49.687Z</time>
      </trkpt>
      <trkpt lat="47.08686" lon="-1.26784">
        <ele>37</ele>
        <time>2015-09-11T14:10:50.558Z</time>
      </trkpt>
      <trkpt lat="47.0869" lon="-1.26783">
        <ele>37</ele>
        <time>2015-09-11T14:10:51.698Z</time>
      </trkpt>
      <trkpt lat="47.08694" lon="-1.26777">
        <ele>37</ele>
        <time>2015-09-11T14:10:52.562Z</time>
      </trkpt>
      <trkpt lat="47.08696" lon="-1.2677">
        <ele>36.933</ele>
        <time>2015-09-11T14:10:53.555Z</time>
      </trkpt>
      <trkpt lat="47.08699" lon="-1.26763">
        <ele>36.822</ele>
        <time>2015-09-11T14:10:54.532Z</time>
      </trkpt>
      <trkpt lat="47.08703" lon="-1.26757">
        <ele>36.688</ele>
        <time>2015-09-11T14:10:55.621Z</time>
      </trkpt>
      <trkpt lat="47.08706" lon="-1.26751">
        <ele>36.57</ele>
        <time>2015-09-11T14:10:56.52Z</time>
      </trkpt>
      <trkpt lat="47.0871" lon="-1.26744">
        <ele>36.44</ele>
        <time>2015-09-11T14:10:57.558Z</time>
      </trkpt>
      <trkpt lat="47.08714" lon="-1.26738">
        <ele>36.289</ele>
        <time>2015-09-11T14:10:58.519Z</time>
      </trkpt>
      <trkpt lat="47.08718" lon="-1.26732">
        <ele>36.159</ele>
        <time>2015-09-11T14:10:59.556Z</time>
      </trkpt>
      <trkpt lat="47.08722" lon="-1.26725">
        <ele>36.015</ele>
        <time>2015-09-11T14:11:00.523Z</time>
      </trkpt>
      <trkpt lat="47.08725" lon="-1.26719">
        <ele>35.994</ele>
        <time>2015-09-11T14:11:01.557Z</time>
      </trkpt>
      <trkpt lat="47.08729" lon="-1.26712">
        <ele>36.106</ele>
        <time>2015-09-11T14:11:02.524Z</time>
      </trkpt>
      <trkpt lat="47.08733" lon="-1.26706">
        <ele>36.196</ele>
        <time>2015-09-11T14:11:03.558Z</time>
      </trkpt>
      <trkpt lat="47.08736" lon="-1.267">
        <ele>36.29</ele>
        <time>2015-09-11T14:11:04.557Z</time>
      </trkpt>
      <trkpt lat="47.0874" lon="-1.26695">
        <ele>36.369</ele>
        <time>2015-09-11T14:11:05.709Z</time>
      </trkpt>
      <trkpt lat="47.08743" lon="-1.26689">
        <ele>36.393</ele>
        <time>2015-09-11T14:11:06.557Z</time>
      </trkpt>
      <trkpt lat="47.08747" lon="-1.26683">
        <ele>36.489</ele>
        <time>2015-09-11T14:11:07.721Z</time>
      </trkpt>
      <trkpt lat="47.0875" lon="-1.26677">
        <ele>36.632</ele>
        <time>2015-09-11T14:11:08.557Z</time>
      </trkpt>
      <trkpt lat="47.08753" lon="-1.26671">
        <ele>36.839</ele>
        <time>2015-09-11T14:11:09.582Z</time>
      </trkpt>
      <trkpt lat="47.08757" lon="-1.26665">
        <ele>37</ele>
        <time>2015-09-11T14:11:10.524Z</time>
      </trkpt>
      <trkpt lat="47.0876" lon="-1.2666">
        <ele>37</ele>
        <time>2015-09-11T14:11:11.687Z</time>
      </trkpt>
      <trkpt lat="47.08765" lon="-1.26651">
        <ele>37</ele>
        <time>2015-09-11T14:11:12.557Z</time>
      </trkpt>
      <trkpt lat="47.08769" lon="-1.26644">
        <ele>37</ele>
        <time>2015-09-11T14:11:13.558Z</time>
      </trkpt>
      <trkpt lat="47.08773" lon="-1.26637">
        <ele>37.047</ele>
        <time>2015-09-11T14:11:14.523Z</time>
      </trkpt>
      <trkpt lat="47.08776" lon="-1.26631">
        <ele>37.265</ele>
        <time>2015-09-11T14:11:15.734Z</time>
      </trkpt>
      <trkpt lat="47.0878" lon="-1.26623">
        <ele>37.558</ele>
        <time>2015-09-11T14:11:16.549Z</time>
      </trkpt>
      <trkpt lat="47.08784" lon="-1.26617">
        <ele>37.788</ele>
        <time>2015-09-11T14:11:18.472Z</time>
      </trkpt>
      <trkpt lat="47.08789" lon="-1.26609">
        <ele>38</ele>
        <time>2015-09-11T14:11:18.521Z</time>
      </trkpt>
      <trkpt lat="47.08794" lon="-1.26602">
        <ele>38</ele>
        <time>2015-09-11T14:11:19.558Z</time>
      </trkpt>
      <trkpt lat="47.08798" lon="-1.26596">
        <ele>38</ele>
        <time>2015-09-11T14:11:20.543Z</time>
      </trkpt>
      <trkpt lat="47.08802" lon="-1.2659">
        <ele>38</ele>
        <time>2015-09-11T14:11:21.556Z</time>
      </trkpt>
      <trkpt lat="47.08807" lon="-1.26582">
        <ele>37.978</ele>
        <time>2015-09-11T14:11:22.524Z</time>
      </trkpt>
      <trkpt lat="47.08812" lon="-1.26577">
        <ele>38.021</ele>
        <time>2015-09-11T14:11:23.792Z</time>
      </trkpt>
      <trkpt lat="47.08817" lon="-1.26571">
        <ele>38.05</ele>
        <time>2015-09-11T14:11:24.552Z</time>
      </trkpt>
      <trkpt lat="47.08821" lon="-1.26567">
        <ele>38.032</ele>
        <time>2015-09-11T14:11:25.574Z</time>
      </trkpt>
      <trkpt lat="47.08826" lon="-1.26561">
        <ele>38.057</ele>
        <time>2015-09-11T14:11:26.524Z</time>
      </trkpt>
      <trkpt lat="47.08831" lon="-1.26557">
        <ele>38.061</ele>
        <time>2015-09-11T14:11:27.689Z</time>
      </trkpt>
      <trkpt lat="47.08835" lon="-1.26551">
        <ele>37.959</ele>
        <time>2015-09-11T14:11:28.553Z</time>
      </trkpt>
      <trkpt lat="47.08839" lon="-1.26546">
        <ele>37.872</ele>
        <time>2015-09-11T14:11:29.557Z</time>
      </trkpt>
      <trkpt lat="47.08842" lon="-1.26541">
        <ele>37.852</ele>
        <time>2015-09-11T14:11:30.523Z</time>
      </trkpt>
      <trkpt lat="47.08848" lon="-1.26534">
        <ele>37.882</ele>
        <time>2015-09-11T14:11:31.724Z</time>
      </trkpt>
      <trkpt lat="47.08852" lon="-1.26528">
        <ele>37.985</ele>
        <time>2015-09-11T14:11:32.554Z</time>
      </trkpt>
      <trkpt lat="47.08857" lon="-1.26519">
        <ele>38</ele>
        <time>2015-09-11T14:11:33.704Z</time>
      </trkpt>
      <trkpt lat="47.08861" lon="-1.26512">
        <ele>38</ele>
        <time>2015-09-11T14:11:34.559Z</time>
      </trkpt>
      <trkpt lat="47.08863" lon="-1.26506">
        <ele>37.983</ele>
        <time>2015-09-11T14:11:35.694Z</time>
      </trkpt>
      <trkpt lat="47.08868" lon="-1.26499">
        <ele>38</ele>
        <time>2015-09-11T14:11:36.524Z</time>
      </trkpt>
      <trkpt lat="47.08869" lon="-1.26491">
        <ele>38</ele>
        <time>2015-09-11T14:11:37.716Z</time>
      </trkpt>
      <trkpt lat="47.08872" lon="-1.26486">
        <ele>38</ele>
        <time>2015-09-11T14:11:38.522Z</time>
      </trkpt>
      <trkpt lat="47.08875" lon="-1.26478">
        <ele>38</ele>
        <time>2015-09-11T14:11:39.557Z</time>
      </trkpt>
      <trkpt lat="47.08878" lon="-1.26469">
        <ele>37.936</ele>
        <time>2015-09-11T14:11:40.563Z</time>
      </trkpt>
      <trkpt lat="47.08879" lon="-1.26464">
        <ele>37.8</ele>
        <time>2015-09-11T14:11:41.698Z</time>
      </trkpt>
      <trkpt lat="47.08885" lon="-1.26456">
        <ele>37.505</ele>
        <time>2015-09-11T14:11:42.562Z</time>
      </trkpt>
      <trkpt lat="47.0889" lon="-1.2645">
        <ele>37.159</ele>
        <time>2015-09-11T14:11:43.69Z</time>
      </trkpt>
      <trkpt lat="47.08893" lon="-1.26444">
        <ele>36.685</ele>
        <time>2015-09-11T14:11:44.552Z</time>
      </trkpt>
      <trkpt lat="47.08897" lon="-1.26438">
        <ele>36.484</ele>
        <time>2015-09-11T14:11:45.699Z</time>
      </trkpt>
      <trkpt lat="47.08901" lon="-1.26432">
        <ele>36.313</ele>
        <time>2015-09-11T14:11:46.556Z</time>
      </trkpt>
      <trkpt lat="47.08904" lon="-1.26424">
        <ele>36.301</ele>
        <time>2015-09-11T14:11:47.571Z</time>
      </trkpt>
      <trkpt lat="47.08907" lon="-1.2642">
        <ele>36.283</ele>
        <time>2015-09-11T14:11:48.53Z</time>
      </trkpt>
      <trkpt lat="47.08911" lon="-1.26414">
        <ele>36.296</ele>
        <time>2015-09-11T14:11:49.665Z</time>
      </trkpt>
      <trkpt lat="47.08915" lon="-1.2641">
        <ele>36.296</ele>
        <time>2015-09-11T14:11:50.553Z</time>
      </trkpt>
      <trkpt lat="47.08918" lon="-1.26405">
        <ele>36.369</ele>
        <time>2015-09-11T14:11:52.079Z</time>
      </trkpt>
      <trkpt lat="47.08923" lon="-1.26399">
        <ele>36.349</ele>
        <time>2015-09-11T14:11:52.526Z</time>
      </trkpt>
      <trkpt lat="47.08927" lon="-1.26392">
        <ele>36.48</ele>
        <time>2015-09-11T14:11:53.672Z</time>
      </trkpt>
      <trkpt lat="47.08929" lon="-1.26385">
        <ele>36.692</ele>
        <time>2015-09-11T14:11:54.552Z</time>
      </trkpt>
      <trkpt lat="47.08934" lon="-1.26376">
        <ele>36.851</ele>
        <time>2015-09-11T14:11:56.561Z</time>
      </trkpt>
      <trkpt lat="47.08938" lon="-1.26371">
        <ele>36.88</ele>
        <time>2015-09-11T14:11:57.526Z</time>
      </trkpt>
      <trkpt lat="47.08943" lon="-1.26368">
        <ele>36.826</ele>
        <time>2015-09-11T14:11:58.745Z</time>
      </trkpt>
      <trkpt lat="47.08948" lon="-1.26367">
        <ele>36.397</ele>
        <time>2015-09-11T14:11:59.523Z</time>
      </trkpt>
      <trkpt lat="47.08953" lon="-1.26368">
        <ele>35.806</ele>
        <time>2015-09-11T14:12:00.56Z</time>
      </trkpt>
      <trkpt lat="47.08959" lon="-1.2637">
        <ele>35.148</ele>
        <time>2015-09-11T14:12:01.539Z</time>
      </trkpt>
      <trkpt lat="47.08964" lon="-1.26372">
        <ele>34.471</ele>
        <time>2015-09-11T14:12:02.694Z</time>
      </trkpt>
      <trkpt lat="47.0897" lon="-1.26374">
        <ele>33.776</ele>
        <time>2015-09-11T14:12:03.553Z</time>
      </trkpt>
      <trkpt lat="47.08976" lon="-1.26376">
        <ele>32.949</ele>
        <time>2015-09-11T14:12:04.673Z</time>
      </trkpt>
      <trkpt lat="47.08982" lon="-1.26377">
        <ele>32.027</ele>
        <time>2015-09-11T14:12:05.561Z</time>
      </trkpt>
      <trkpt lat="47.08988" lon="-1.26379">
        <ele>31.07</ele>
        <time>2015-09-11T14:12:06.573Z</time>
      </trkpt>
      <trkpt lat="47.08995" lon="-1.26382">
        <ele>30.022</ele>
        <time>2015-09-11T14:12:07.524Z</time>
      </trkpt>
      <trkpt lat="47.09003" lon="-1.26384">
        <ele>28.656</ele>
        <time>2015-09-11T14:12:08.763Z</time>
      </trkpt>
      <trkpt lat="47.0901" lon="-1.26384">
        <ele>27.437</ele>
        <time>2015-09-11T14:12:09.549Z</time>
      </trkpt>
      <trkpt lat="47.09015" lon="-1.26386">
        <ele>26.418</ele>
        <time>2015-09-11T14:12:10.719Z</time>
      </trkpt>
      <trkpt lat="47.09021" lon="-1.2639">
        <ele>25.252</ele>
        <time>2015-09-11T14:12:11.551Z</time>
      </trkpt>
      <trkpt lat="47.09025" lon="-1.26395">
        <ele>24.38</ele>
        <time>2015-09-11T14:12:12.779Z</time>
      </trkpt>
      <trkpt lat="47.09027" lon="-1.264">
        <ele>23.728</ele>
        <time>2015-09-11T14:12:13.553Z</time>
      </trkpt>
      <trkpt lat="47.0903" lon="-1.26408">
        <ele>22.862</ele>
        <time>2015-09-11T14:12:15.674Z</time>
      </trkpt>
      <trkpt lat="47.09032" lon="-1.26411">
        <ele>22.357</ele>
        <time>2015-09-11T14:12:16.555Z</time>
      </trkpt>
      <trkpt lat="47.09038" lon="-1.26416">
        <ele>21.15</ele>
        <time>2015-09-11T14:12:18.557Z</time>
      </trkpt>
      <trkpt lat="47.0904" lon="-1.26418">
        <ele>20.78</ele>
        <time>2015-09-11T14:12:19.554Z</time>
      </trkpt>
      <trkpt lat="47.09049" lon="-1.26413">
        <ele>19.246</ele>
        <time>2015-09-11T14:12:23.681Z</time>
      </trkpt>
      <trkpt lat="47.09051" lon="-1.26411">
        <ele>18.777</ele>
        <time>2015-09-11T14:12:24.551Z</time>
      </trkpt>
      <trkpt lat="47.09056" lon="-1.26404">
        <ele>18.002</ele>
        <time>2015-09-11T14:12:26.558Z</time>
      </trkpt>
      <trkpt lat="47.09057" lon="-1.26399">
        <ele>18.045</ele>
        <time>2015-09-11T14:12:27.525Z</time>
      </trkpt>
      <trkpt lat="47.09058" lon="-1.26388">
        <ele>18.176</ele>
        <time>2015-09-11T14:12:30.702Z</time>
      </trkpt>
      <trkpt lat="47.09059" lon="-1.26386">
        <ele>18.298</ele>
        <time>2015-09-11T14:12:31.634Z</time>
      </trkpt>
      <trkpt lat="47.09067" lon="-1.26389">
        <ele>18.405</ele>
        <time>2015-09-11T14:12:39.695Z</time>
      </trkpt>
      <trkpt lat="47.09068" lon="-1.2639">
        <ele>18.452</ele>
        <time>2015-09-11T14:12:40.56Z</time>
      </trkpt>
      <trkpt lat="47.09074" lon="-1.26398">
        <ele>18.678</ele>
        <time>2015-09-11T14:13:40.762Z</time>
      </trkpt>
      <trkpt lat="47.09075" lon="-1.26399">
        <ele>18.704</ele>
        <time>2015-09-11T14:13:41.548Z</time>
      </trkpt>
      <trkpt lat="47.09083" lon="-1.26399">
        <ele>19.006</ele>
        <time>2015-09-11T14:13:53.685Z</time>
      </trkpt>
      <trkpt lat="47.09086" lon="-1.26401">
        <ele>19.229</ele>
        <time>2015-09-11T14:13:54.553Z</time>
      </trkpt>
      <trkpt lat="47.09089" lon="-1.26402">
        <ele>19.54</ele>
        <time>2015-09-11T14:13:55.558Z</time>
      </trkpt>
      <trkpt lat="47.09095" lon="-1.26405">
        <ele>20</ele>
        <time>2015-09-11T14:13:56.538Z</time>
      </trkpt>
      <trkpt lat="47.091" lon="-1.26407">
        <ele>20.398</ele>
        <time>2015-09-11T14:13:57.712Z</time>
      </trkpt>
      <trkpt lat="47.09104" lon="-1.2641">
        <ele>20.712</ele>
        <time>2015-09-11T14:13:58.557Z</time>
      </trkpt>
      <trkpt lat="47.09111" lon="-1.26415">
        <ele>21.044</ele>
        <time>2015-09-11T14:14:00.557Z</time>
      </trkpt>
      <trkpt lat="47.09113" lon="-1.26417">
        <ele>21.158</ele>
        <time>2015-09-11T14:14:01.62Z</time>
      </trkpt>
      <trkpt lat="47.09121" lon="-1.26423">
        <ele>21.69</ele>
        <time>2015-09-11T14:14:04.678Z</time>
      </trkpt>
      <trkpt lat="47.09123" lon="-1.26422">
        <ele>21.856</ele>
        <time>2015-09-11T14:14:05.563Z</time>
      </trkpt>
      <trkpt lat="47.09131" lon="-1.26422">
        <ele>22.418</ele>
        <time>2015-09-11T14:14:09.711Z</time>
      </trkpt>
      <trkpt lat="47.09132" lon="-1.26425">
        <ele>22.49</ele>
        <time>2015-09-11T14:14:10.578Z</time>
      </trkpt>
      <trkpt lat="47.09135" lon="-1.26436">
        <ele>22.698</ele>
        <time>2015-09-11T14:14:14.678Z</time>
      </trkpt>
      <trkpt lat="47.09135" lon="-1.26438">
        <ele>22.706</ele>
        <time>2015-09-11T14:14:15.552Z</time>
      </trkpt>
      <trkpt lat="47.09141" lon="-1.26447">
        <ele>23.145</ele>
        <time>2015-09-11T14:14:29.559Z</time>
      </trkpt>
      <trkpt lat="47.09141" lon="-1.26448">
        <ele>23.152</ele>
        <time>2015-09-11T14:14:30.558Z</time>
      </trkpt>
      <trkpt lat="47.09145" lon="-1.26457">
        <ele>23.447</ele>
        <time>2015-09-11T14:15:27.699Z</time>
      </trkpt>
      <trkpt lat="47.09146" lon="-1.2646">
        <ele>23.483</ele>
        <time>2015-09-11T14:15:28.557Z</time>
      </trkpt>
      <trkpt lat="47.09148" lon="-1.26472">
        <ele>23.642</ele>
        <time>2015-09-11T14:15:34.694Z</time>
      </trkpt>
      <trkpt lat="47.09148" lon="-1.26474">
        <ele>23.686</ele>
        <time>2015-09-11T14:15:35.557Z</time>
      </trkpt>
      <trkpt lat="47.09152" lon="-1.26485">
        <ele>24.137</ele>
        <time>2015-09-11T14:15:41.635Z</time>
      </trkpt>
      <trkpt lat="47.09153" lon="-1.26487">
        <ele>24.27</ele>
        <time>2015-09-11T14:15:42.546Z</time>
      </trkpt>
      <trkpt lat="47.09158" lon="-1.26495">
        <ele>24.907</ele>
        <time>2015-09-11T14:15:46.788Z</time>
      </trkpt>
      <trkpt lat="47.09159" lon="-1.26497">
        <ele>25.091</ele>
        <time>2015-09-11T14:15:47.555Z</time>
      </trkpt>
      <trkpt lat="47.09162" lon="-1.26508">
        <ele>25.697</ele>
        <time>2015-09-11T14:15:51.56Z</time>
      </trkpt>
      <trkpt lat="47.09162" lon="-1.26511">
        <ele>25.792</ele>
        <time>2015-09-11T14:15:52.522Z</time>
      </trkpt>
      <trkpt lat="47.09161" lon="-1.26522">
        <ele>26.054</ele>
        <time>2015-09-11T14:15:56.035Z</time>
      </trkpt>
      <trkpt lat="47.09161" lon="-1.26527">
        <ele>26.133</ele>
        <time>2015-09-11T14:15:56.522Z</time>
      </trkpt>
      <trkpt lat="47.09161" lon="-1.26538">
        <ele>26.231</ele>
        <time>2015-09-11T14:15:58.981Z</time>
      </trkpt>
      <trkpt lat="47.09161" lon="-1.26543">
        <ele>26.286</ele>
        <time>2015-09-11T14:15:59.522Z</time>
      </trkpt>
      <trkpt lat="47.09161" lon="-1.26556">
        <ele>26.359</ele>
        <time>2015-09-11T14:16:01.55Z</time>
      </trkpt>
      <trkpt lat="47.09161" lon="-1.26562">
        <ele>26.248</ele>
        <time>2015-09-11T14:16:02.518Z</time>
      </trkpt>
      <trkpt lat="47.09165" lon="-1.26573">
        <ele>26.247</ele>
        <time>2015-09-11T14:16:05.124Z</time>
      </trkpt>
      <trkpt lat="47.09168" lon="-1.26578">
        <ele>26.324</ele>
        <time>2015-09-11T14:16:05.523Z</time>
      </trkpt>
      <trkpt lat="47.09174" lon="-1.26587">
        <ele>26.782</ele>
        <time>2015-09-11T14:16:07.686Z</time>
      </trkpt>
      <trkpt lat="47.09177" lon="-1.26591">
        <ele>27.165</ele>
        <time>2015-09-11T14:16:08.553Z</time>
      </trkpt>
      <trkpt lat="47.09183" lon="-1.266">
        <ele>28.115</ele>
        <time>2015-09-11T14:16:10.703Z</time>
      </trkpt>
      <trkpt lat="47.09185" lon="-1.26604">
        <ele>28.527</ele>
        <time>2015-09-11T14:16:11.562Z</time>
      </trkpt>
      <trkpt lat="47.0919" lon="-1.26613">
        <ele>29.446</ele>
        <time>2015-09-11T14:16:13.556Z</time>
      </trkpt>
      <trkpt lat="47.09192" lon="-1.26618">
        <ele>29.914</ele>
        <time>2015-09-11T14:16:14.578Z</time>
      </trkpt>
      <trkpt lat="47.09197" lon="-1.26627">
        <ele>30.664</ele>
        <time>2015-09-11T14:16:16.861Z</time>
      </trkpt>
      <trkpt lat="47.09199" lon="-1.26631">
        <ele>30.905</ele>
        <time>2015-09-11T14:16:17.558Z</time>
      </trkpt>
      <trkpt lat="47.09203" lon="-1.26639">
        <ele>31.289</ele>
        <time>2015-09-11T14:16:19.677Z</time>
      </trkpt>
      <trkpt lat="47.09205" lon="-1.26643">
        <ele>31.317</ele>
        <time>2015-09-11T14:16:20.561Z</time>
      </trkpt>
      <trkpt lat="47.09209" lon="-1.2665">
        <ele>31.311</ele>
        <time>2015-09-11T14:16:22.585Z</time>
      </trkpt>
      <trkpt lat="47.09211" lon="-1.26655">
        <ele>31.265</ele>
        <time>2015-09-11T14:16:23.556Z</time>
      </trkpt>
      <trkpt lat="47.09214" lon="-1.26661">
        <ele>31.141</ele>
        <time>2015-09-11T14:16:24.567Z</time>
      </trkpt>
      <trkpt lat="47.09217" lon="-1.26668">
        <ele>30.952</ele>
        <time>2015-09-11T14:16:25.524Z</time>
      </trkpt>
      <trkpt lat="47.0922" lon="-1.26675">
        <ele>30.711</ele>
        <time>2015-09-11T14:16:26.693Z</time>
      </trkpt>
      <trkpt lat="47.09222" lon="-1.26682">
        <ele>30.459</ele>
        <time>2015-09-11T14:16:27.549Z</time>
      </trkpt>
      <trkpt lat="47.09225" lon="-1.26689">
        <ele>30.273</ele>
        <time>2015-09-11T14:16:28.777Z</time>
      </trkpt>
      <trkpt lat="47.09228" lon="-1.26696">
        <ele>30.241</ele>
        <time>2015-09-11T14:16:29.552Z</time>
      </trkpt>
      <trkpt lat="47.09232" lon="-1.26703">
        <ele>30.54</ele>
        <time>2015-09-11T14:16:30.725Z</time>
      </trkpt>
      <trkpt lat="47.09235" lon="-1.26709">
        <ele>30.741</ele>
        <time>2015-09-11T14:16:31.555Z</time>
      </trkpt>
      <trkpt lat="47.09238" lon="-1.26715">
        <ele>30.891</ele>
        <time>2015-09-11T14:16:32.697Z</time>
      </trkpt>
      <trkpt lat="47.09241" lon="-1.26721">
        <ele>30.988</ele>
        <time>2015-09-11T14:16:33.557Z</time>
      </trkpt>
      <trkpt lat="47.09246" lon="-1.26731">
        <ele>31.044</ele>
        <time>2015-09-11T14:16:35.577Z</time>
      </trkpt>
      <trkpt lat="47.09249" lon="-1.26736">
        <ele>31.027</ele>
        <time>2015-09-11T14:16:36.561Z</time>
      </trkpt>
      <trkpt lat="47.09253" lon="-1.26746">
        <ele>31.018</ele>
        <time>2015-09-11T14:16:38.679Z</time>
      </trkpt>
      <trkpt lat="47.09256" lon="-1.2675">
        <ele>31.003</ele>
        <time>2015-09-11T14:16:39.565Z</time>
      </trkpt>
      <trkpt lat="47.09261" lon="-1.26756">
        <ele>31.043</ele>
        <time>2015-09-11T14:16:41.555Z</time>
      </trkpt>
      <trkpt lat="47.09264" lon="-1.26759">
        <ele>31.002</ele>
        <time>2015-09-11T14:16:42.548Z</time>
      </trkpt>
      <trkpt lat="47.0927" lon="-1.26758">
        <ele>30.863</ele>
        <time>2015-09-11T14:16:44.77Z</time>
      </trkpt>
      <trkpt lat="47.09273" lon="-1.26756">
        <ele>30.864</ele>
        <time>2015-09-11T14:16:45.555Z</time>
      </trkpt>
      <trkpt lat="47.09279" lon="-1.26748">
        <ele>31.11</ele>
        <time>2015-09-11T14:16:47.556Z</time>
      </trkpt>
      <trkpt lat="47.09281" lon="-1.26743">
        <ele>31.334</ele>
        <time>2015-09-11T14:16:48.555Z</time>
      </trkpt>
      <trkpt lat="47.09286" lon="-1.26733">
        <ele>31.719</ele>
        <time>2015-09-11T14:16:50.555Z</time>
      </trkpt>
      <trkpt lat="47.09288" lon="-1.26729">
        <ele>31.854</ele>
        <time>2015-09-11T14:16:51.541Z</time>
      </trkpt>
      <trkpt lat="47.09293" lon="-1.26718">
        <ele>31.94</ele>
        <time>2015-09-11T14:16:53.688Z</time>
      </trkpt>
      <trkpt lat="47.09296" lon="-1.26713">
        <ele>31.891</ele>
        <time>2015-09-11T14:16:54.577Z</time>
      </trkpt>
      <trkpt lat="47.093" lon="-1.26706">
        <ele>31.894</ele>
        <time>2015-09-11T14:16:55.782Z</time>
      </trkpt>
      <trkpt lat="47.09303" lon="-1.26701">
        <ele>31.932</ele>
        <time>2015-09-11T14:16:56.554Z</time>
      </trkpt>
      <trkpt lat="47.09306" lon="-1.26695">
        <ele>31.981</ele>
        <time>2015-09-11T14:16:58.156Z</time>
      </trkpt>
      <trkpt lat="47.0931" lon="-1.2669">
        <ele>31.7</ele>
        <time>2015-09-11T14:16:58.528Z</time>
      </trkpt>
      <trkpt lat="47.09314" lon="-1.26686">
        <ele>31.489</ele>
        <time>2015-09-11T14:16:59.56Z</time>
      </trkpt>
      <trkpt lat="47.09317" lon="-1.2668">
        <ele>31.281</ele>
        <time>2015-09-11T14:17:00.551Z</time>
      </trkpt>
      <trkpt lat="47.0932" lon="-1.26675">
        <ele>31.144</ele>
        <time>2015-09-11T14:17:01.689Z</time>
      </trkpt>
      <trkpt lat="47.09323" lon="-1.26669">
        <ele>31.038</ele>
        <time>2015-09-11T14:17:02.555Z</time>
      </trkpt>
      <trkpt lat="47.09325" lon="-1.26662">
        <ele>31</ele>
        <time>2015-09-11T14:17:03.556Z</time>
      </trkpt>
      <trkpt lat="47.09328" lon="-1.26657">
        <ele>31</ele>
        <time>2015-09-11T14:17:04.523Z</time>
      </trkpt>
      <trkpt lat="47.09333" lon="-1.26648">
        <ele>31</ele>
        <time>2015-09-11T14:17:06.674Z</time>
      </trkpt>
      <trkpt lat="47.09336" lon="-1.26645">
        <ele>31</ele>
        <time>2015-09-11T14:17:07.557Z</time>
      </trkpt>
      <trkpt lat="47.0934" lon="-1.2664">
        <ele>31</ele>
        <time>2015-09-11T14:17:08.564Z</time>
      </trkpt>
      <trkpt lat="47.09345" lon="-1.26636">
        <ele>31</ele>
        <time>2015-09-11T14:17:09.528Z</time>
      </trkpt>
      <trkpt lat="47.0935" lon="-1.26631">
        <ele>31</ele>
        <time>2015-09-11T14:17:10.607Z</time>
      </trkpt>
      <trkpt lat="47.09355" lon="-1.26625">
        <ele>31</ele>
        <time>2015-09-11T14:17:11.535Z</time>
      </trkpt>
      <trkpt lat="47.0936" lon="-1.26616">
        <ele>31</ele>
        <time>2015-09-11T14:17:13.678Z</time>
      </trkpt>
      <trkpt lat="47.09362" lon="-1.26615">
        <ele>31.021</ele>
        <time>2015-09-11T14:17:14.545Z</time>
      </trkpt>
      <trkpt lat="47.09369" lon="-1.26623">
        <ele>31.273</ele>
        <time>2015-09-11T14:17:26.795Z</time>
      </trkpt>
      <trkpt lat="47.0937" lon="-1.26624">
        <ele>31.324</ele>
        <time>2015-09-11T14:17:27.59Z</time>
      </trkpt>
      <trkpt lat="47.09375" lon="-1.2663">
        <ele>31.496</ele>
        <time>2015-09-11T14:17:29.555Z</time>
      </trkpt>
      <trkpt lat="47.09379" lon="-1.26635">
        <ele>31.63</ele>
        <time>2015-09-11T14:17:30.559Z</time>
      </trkpt>
      <trkpt lat="47.09383" lon="-1.26639">
        <ele>31.77</ele>
        <time>2015-09-11T14:17:31.906Z</time>
      </trkpt>
      <trkpt lat="47.09386" lon="-1.26642">
        <ele>31.896</ele>
        <time>2015-09-11T14:17:32.548Z</time>
      </trkpt>
      <trkpt lat="47.09389" lon="-1.26646">
        <ele>32.015</ele>
        <time>2015-09-11T14:17:33.549Z</time>
      </trkpt>
      <trkpt lat="47.09394" lon="-1.2665">
        <ele>32.17</ele>
        <time>2015-09-11T14:17:34.527Z</time>
      </trkpt>
      <trkpt lat="47.094" lon="-1.26656">
        <ele>32.386</ele>
        <time>2015-09-11T14:17:36.71Z</time>
      </trkpt>
      <trkpt lat="47.09402" lon="-1.26658">
        <ele>32.472</ele>
        <time>2015-09-11T14:17:37.546Z</time>
      </trkpt>
      <trkpt lat="47.09408" lon="-1.26665">
        <ele>32.695</ele>
        <time>2015-09-11T14:17:40.678Z</time>
      </trkpt>
      <trkpt lat="47.0941" lon="-1.26667">
        <ele>32.736</ele>
        <time>2015-09-11T14:17:41.584Z</time>
      </trkpt>
      <trkpt lat="47.09416" lon="-1.26676">
        <ele>32.645</ele>
        <time>2015-09-11T14:17:45.695Z</time>
      </trkpt>
      <trkpt lat="47.09418" lon="-1.26678">
        <ele>32.601</ele>
        <time>2015-09-11T14:17:46.559Z</time>
      </trkpt>
      <trkpt lat="47.09423" lon="-1.26685">
        <ele>32.494</ele>
        <time>2015-09-11T14:17:49.674Z</time>
      </trkpt>
      <trkpt lat="47.09425" lon="-1.26687">
        <ele>32.48</ele>
        <time>2015-09-11T14:17:50.575Z</time>
      </trkpt>
      <trkpt lat="47.09431" lon="-1.26694">
        <ele>32.506</ele>
        <time>2015-09-11T14:17:53.708Z</time>
      </trkpt>
      <trkpt lat="47.09432" lon="-1.26697">
        <ele>32.566</ele>
        <time>2015-09-11T14:17:54.548Z</time>
      </trkpt>
      <trkpt lat="47.09438" lon="-1.26706">
        <ele>32.768</ele>
        <time>2015-09-11T14:17:57.691Z</time>
      </trkpt>
      <trkpt lat="47.0944" lon="-1.26709">
        <ele>32.836</ele>
        <time>2015-09-11T14:17:58.624Z</time>
      </trkpt>
      <trkpt lat="47.09446" lon="-1.26718">
        <ele>33.103</ele>
        <time>2015-09-11T14:18:01.842Z</time>
      </trkpt>
      <trkpt lat="47.09448" lon="-1.26721">
        <ele>33.257</ele>
        <time>2015-09-11T14:18:02.555Z</time>
      </trkpt>
      <trkpt lat="47.09453" lon="-1.26727">
        <ele>33.766</ele>
        <time>2015-09-11T14:18:04.675Z</time>
      </trkpt>
      <trkpt lat="47.09455" lon="-1.26731">
        <ele>34.036</ele>
        <time>2015-09-11T14:18:05.556Z</time>
      </trkpt>
      <trkpt lat="47.09461" lon="-1.2674">
        <ele>34.818</ele>
        <time>2015-09-11T14:18:08.729Z</time>
      </trkpt>
      <trkpt lat="47.09463" lon="-1.26744">
        <ele>35.084</ele>
        <time>2015-09-11T14:18:09.55Z</time>
      </trkpt>
      <trkpt lat="47.09467" lon="-1.26751">
        <ele>35.617</ele>
        <time>2015-09-11T14:18:11.569Z</time>
      </trkpt>
      <trkpt lat="47.09469" lon="-1.26754">
        <ele>35.883</ele>
        <time>2015-09-11T14:18:12.547Z</time>
      </trkpt>
      <trkpt lat="47.09472" lon="-1.26761">
        <ele>36.403</ele>
        <time>2015-09-11T14:18:14.556Z</time>
      </trkpt>
      <trkpt lat="47.09474" lon="-1.26765">
        <ele>36.566</ele>
        <time>2015-09-11T14:18:15.529Z</time>
      </trkpt>
      <trkpt lat="47.09478" lon="-1.26772">
        <ele>36.842</ele>
        <time>2015-09-11T14:18:17.684Z</time>
      </trkpt>
      <trkpt lat="47.0948" lon="-1.26776">
        <ele>36.952</ele>
        <time>2015-09-11T14:18:18.933Z</time>
      </trkpt>
      <trkpt lat="47.09484" lon="-1.26784">
        <ele>37.09</ele>
        <time>2015-09-11T14:18:20.564Z</time>
      </trkpt>
      <trkpt lat="47.09486" lon="-1.26787">
        <ele>37.171</ele>
        <time>2015-09-11T14:18:21.558Z</time>
      </trkpt>
      <trkpt lat="47.0949" lon="-1.26795">
        <ele>37.401</ele>
        <time>2015-09-11T14:18:23.682Z</time>
      </trkpt>
      <trkpt lat="47.09492" lon="-1.26799">
        <ele>37.555</ele>
        <time>2015-09-11T14:18:24.556Z</time>
      </trkpt>
      <trkpt lat="47.09497" lon="-1.26808">
        <ele>37.874</ele>
        <time>2015-09-11T14:18:26.722Z</time>
      </trkpt>
      <trkpt lat="47.09499" lon="-1.26812">
        <ele>37.946</ele>
        <time>2015-09-11T14:18:27.552Z</time>
      </trkpt>
      <trkpt lat="47.09503" lon="-1.2682">
        <ele>38.049</ele>
        <time>2015-09-11T14:18:29.57Z</time>
      </trkpt>
      <trkpt lat="47.09505" lon="-1.26824">
        <ele>38.112</ele>
        <time>2015-09-11T14:18:30.552Z</time>
      </trkpt>
      <trkpt lat="47.09509" lon="-1.26833">
        <ele>38.305</ele>
        <time>2015-09-11T14:18:32.83Z</time>
      </trkpt>
      <trkpt lat="47.09511" lon="-1.26837">
        <ele>38.385</ele>
        <time>2015-09-11T14:18:33.549Z</time>
      </trkpt>
      <trkpt lat="47.09515" lon="-1.26845">
        <ele>38.533</ele>
        <time>2015-09-11T14:18:35.701Z</time>
      </trkpt>
      <trkpt lat="47.09518" lon="-1.26851">
        <ele>38.637</ele>
        <time>2015-09-11T14:18:36.552Z</time>
      </trkpt>
      <trkpt lat="47.09523" lon="-1.26861">
        <ele>38.828</ele>
        <time>2015-09-11T14:18:37.562Z</time>
      </trkpt>
      <trkpt lat="47.09526" lon="-1.26868">
        <ele>38.932</ele>
        <time>2015-09-11T14:18:38.527Z</time>
      </trkpt>
      <trkpt lat="47.0953" lon="-1.26875">
        <ele>38.938</ele>
        <time>2015-09-11T14:18:39.67Z</time>
      </trkpt>
      <trkpt lat="47.09533" lon="-1.26882">
        <ele>38.826</ele>
        <time>2015-09-11T14:18:40.556Z</time>
      </trkpt>
      <trkpt lat="47.09536" lon="-1.26889">
        <ele>38.704</ele>
        <time>2015-09-11T14:18:41.691Z</time>
      </trkpt>
      <trkpt lat="47.09539" lon="-1.26896">
        <ele>38.592</ele>
        <time>2015-09-11T14:18:42.547Z</time>
      </trkpt>
      <trkpt lat="47.09542" lon="-1.26903">
        <ele>38.502</ele>
        <time>2015-09-11T14:18:43.713Z</time>
      </trkpt>
      <trkpt lat="47.09545" lon="-1.26909">
        <ele>38.398</ele>
        <time>2015-09-11T14:18:44.549Z</time>
      </trkpt>
      <trkpt lat="47.09548" lon="-1.26915">
        <ele>38.29</ele>
        <time>2015-09-11T14:18:45.751Z</time>
      </trkpt>
      <trkpt lat="47.09551" lon="-1.26921">
        <ele>38.182</ele>
        <time>2015-09-11T14:18:46.548Z</time>
      </trkpt>
      <trkpt lat="47.09556" lon="-1.26927">
        <ele>37.991</ele>
        <time>2015-09-11T14:18:47.74Z</time>
      </trkpt>
      <trkpt lat="47.09559" lon="-1.26934">
        <ele>37.876</ele>
        <time>2015-09-11T14:18:48.555Z</time>
      </trkpt>
      <trkpt lat="47.09562" lon="-1.2694">
        <ele>37.761</ele>
        <time>2015-09-11T14:18:49.555Z</time>
      </trkpt>
      <trkpt lat="47.09565" lon="-1.26945">
        <ele>37.698</ele>
        <time>2015-09-11T14:18:50.526Z</time>
      </trkpt>
      <trkpt lat="47.09568" lon="-1.26951">
        <ele>37.792</ele>
        <time>2015-09-11T14:18:51.719Z</time>
      </trkpt>
      <trkpt lat="47.09571" lon="-1.26957">
        <ele>37.903</ele>
        <time>2015-09-11T14:18:52.554Z</time>
      </trkpt>
      <trkpt lat="47.09573" lon="-1.26962">
        <ele>38.004</ele>
        <time>2015-09-11T14:18:53.557Z</time>
      </trkpt>
      <trkpt lat="47.09576" lon="-1.26968">
        <ele>38.094</ele>
        <time>2015-09-11T14:18:54.525Z</time>
      </trkpt>
      <trkpt lat="47.0958" lon="-1.26973">
        <ele>38.139</ele>
        <time>2015-09-11T14:18:55.78Z</time>
      </trkpt>
      <trkpt lat="47.09582" lon="-1.26978">
        <ele>38.05</ele>
        <time>2015-09-11T14:18:56.559Z</time>
      </trkpt>
      <trkpt lat="47.09585" lon="-1.26984">
        <ele>38.031</ele>
        <time>2015-09-11T14:18:57.688Z</time>
      </trkpt>
      <trkpt lat="47.09588" lon="-1.2699">
        <ele>38.113</ele>
        <time>2015-09-11T14:18:58.558Z</time>
      </trkpt>
      <trkpt lat="47.09591" lon="-1.26996">
        <ele>38.249</ele>
        <time>2015-09-11T14:18:59.61Z</time>
      </trkpt>
      <trkpt lat="47.09595" lon="-1.27003">
        <ele>38.469</ele>
        <time>2015-09-11T14:19:00.523Z</time>
      </trkpt>
      <trkpt lat="47.09597" lon="-1.27008">
        <ele>38.627</ele>
        <time>2015-09-11T14:19:01.687Z</time>
      </trkpt>
      <trkpt lat="47.09599" lon="-1.27016">
        <ele>38.82</ele>
        <time>2015-09-11T14:19:02.556Z</time>
      </trkpt>
      <trkpt lat="47.09599" lon="-1.27023">
        <ele>38.926</ele>
        <time>2015-09-11T14:19:03.696Z</time>
      </trkpt>
      <trkpt lat="47.096" lon="-1.27031">
        <ele>39</ele>
        <time>2015-09-11T14:19:04.551Z</time>
      </trkpt>
      <trkpt lat="47.09599" lon="-1.27039">
        <ele>39</ele>
        <time>2015-09-11T14:19:05.712Z</time>
      </trkpt>
      <trkpt lat="47.096" lon="-1.27046">
        <ele>39</ele>
        <time>2015-09-11T14:19:06.617Z</time>
      </trkpt>
      <trkpt lat="47.09601" lon="-1.27053">
        <ele>39</ele>
        <time>2015-09-11T14:19:07.692Z</time>
      </trkpt>
      <trkpt lat="47.09603" lon="-1.27059">
        <ele>39</ele>
        <time>2015-09-11T14:19:08.556Z</time>
      </trkpt>
      <trkpt lat="47.09607" lon="-1.27065">
        <ele>39</ele>
        <time>2015-09-11T14:19:09.718Z</time>
      </trkpt>
      <trkpt lat="47.09611" lon="-1.27069">
        <ele>39</ele>
        <time>2015-09-11T14:19:10.557Z</time>
      </trkpt>
      <trkpt lat="47.09615" lon="-1.27075">
        <ele>39.126</ele>
        <time>2015-09-11T14:19:11.558Z</time>
      </trkpt>
      <trkpt lat="47.09618" lon="-1.27081">
        <ele>39.252</ele>
        <time>2015-09-11T14:19:12.525Z</time>
      </trkpt>
      <trkpt lat="47.09621" lon="-1.27087">
        <ele>39.278</ele>
        <time>2015-09-11T14:19:13.711Z</time>
      </trkpt>
      <trkpt lat="47.09624" lon="-1.27093">
        <ele>39.292</ele>
        <time>2015-09-11T14:19:14.55Z</time>
      </trkpt>
      <trkpt lat="47.09627" lon="-1.27099">
        <ele>39.349</ele>
        <time>2015-09-11T14:19:15.699Z</time>
      </trkpt>
      <trkpt lat="47.0963" lon="-1.27105">
        <ele>39.455</ele>
        <time>2015-09-11T14:19:16.556Z</time>
      </trkpt>
      <trkpt lat="47.09633" lon="-1.2711">
        <ele>39.589</ele>
        <time>2015-09-11T14:19:17.823Z</time>
      </trkpt>
      <trkpt lat="47.09636" lon="-1.27116">
        <ele>39.651</ele>
        <time>2015-09-11T14:19:18.552Z</time>
      </trkpt>
      <trkpt lat="47.09639" lon="-1.27122">
        <ele>39.618</ele>
        <time>2015-09-11T14:19:19.679Z</time>
      </trkpt>
      <trkpt lat="47.09642" lon="-1.27129">
        <ele>39.534</ele>
        <time>2015-09-11T14:19:20.554Z</time>
      </trkpt>
      <trkpt lat="47.09645" lon="-1.27136">
        <ele>39.518</ele>
        <time>2015-09-11T14:19:21.769Z</time>
      </trkpt>
      <trkpt lat="47.09647" lon="-1.27143">
        <ele>39.606</ele>
        <time>2015-09-11T14:19:22.557Z</time>
      </trkpt>
      <trkpt lat="47.09649" lon="-1.2715">
        <ele>39.706</ele>
        <time>2015-09-11T14:19:23.684Z</time>
      </trkpt>
      <trkpt lat="47.0965" lon="-1.27157">
        <ele>39.778</ele>
        <time>2015-09-11T14:19:24.551Z</time>
      </trkpt>
      <trkpt lat="47.09647" lon="-1.27169">
        <ele>39.669</ele>
        <time>2015-09-11T14:19:26.697Z</time>
      </trkpt>
      <trkpt lat="47.09647" lon="-1.27177">
        <ele>39.811</ele>
        <time>2015-09-11T14:19:27.557Z</time>
      </trkpt>
      <trkpt lat="47.09643" lon="-1.27188">
        <ele>39.949</ele>
        <time>2015-09-11T14:19:29.557Z</time>
      </trkpt>
      <trkpt lat="47.09642" lon="-1.27193">
        <ele>40.075</ele>
        <time>2015-09-11T14:19:30.562Z</time>
      </trkpt>
      <trkpt lat="47.09643" lon="-1.27205">
        <ele>40.542</ele>
        <time>2015-09-11T14:19:39.717Z</time>
      </trkpt>
      <trkpt lat="47.09644" lon="-1.27206">
        <ele>40.596</ele>
        <time>2015-09-11T14:19:40.552Z</time>
      </trkpt>
      <trkpt lat="47.09651" lon="-1.27212">
        <ele>41.043</ele>
        <time>2015-09-11T14:19:52.719Z</time>
      </trkpt>
      <trkpt lat="47.09651" lon="-1.27213">
        <ele>41.115</ele>
        <time>2015-09-11T14:19:53.544Z</time>
      </trkpt>
      <trkpt lat="47.0966" lon="-1.27218">
        <ele>41.583</ele>
        <time>2015-09-11T14:20:00.557Z</time>
      </trkpt>
      <trkpt lat="47.09661" lon="-1.27217">
        <ele>41.583</ele>
        <time>2015-09-11T14:20:01.565Z</time>
      </trkpt>
      <trkpt lat="47.09665" lon="-1.2721">
        <ele>41.489</ele>
        <time>2015-09-11T14:20:08.689Z</time>
      </trkpt>
      <trkpt lat="47.09667" lon="-1.27206">
        <ele>41.42</ele>
        <time>2015-09-11T14:20:09.543Z</time>
      </trkpt>
      <trkpt lat="47.09671" lon="-1.27199">
        <ele>41.148</ele>
        <time>2015-09-11T14:20:11.724Z</time>
      </trkpt>
      <trkpt lat="47.09673" lon="-1.27195">
        <ele>41.024</ele>
        <time>2015-09-11T14:20:12.569Z</time>
      </trkpt>
      <trkpt lat="47.09677" lon="-1.27185">
        <ele>41</ele>
        <time>2015-09-11T14:20:14.556Z</time>
      </trkpt>
      <trkpt lat="47.09679" lon="-1.27179">
        <ele>41</ele>
        <time>2015-09-11T14:20:15.525Z</time>
      </trkpt>
      <trkpt lat="47.09682" lon="-1.27167">
        <ele>41</ele>
        <time>2015-09-11T14:20:17.705Z</time>
      </trkpt>
      <trkpt lat="47.09684" lon="-1.27161">
        <ele>41</ele>
        <time>2015-09-11T14:20:18.556Z</time>
      </trkpt>
      <trkpt lat="47.09687" lon="-1.27156">
        <ele>41</ele>
        <time>2015-09-11T14:20:19.556Z</time>
      </trkpt>
      <trkpt lat="47.09692" lon="-1.27152">
        <ele>41</ele>
        <time>2015-09-11T14:20:20.539Z</time>
      </trkpt>
      <trkpt lat="47.09696" lon="-1.2715">
        <ele>40.974</ele>
        <time>2015-09-11T14:20:21.702Z</time>
      </trkpt>
      <trkpt lat="47.09701" lon="-1.27149">
        <ele>40.92</ele>
        <time>2015-09-11T14:20:22.556Z</time>
      </trkpt>
      <trkpt lat="47.09706" lon="-1.27147">
        <ele>40.876</ele>
        <time>2015-09-11T14:20:23.56Z</time>
      </trkpt>
      <trkpt lat="47.09711" lon="-1.27147">
        <ele>40.818</ele>
        <time>2015-09-11T14:20:24.522Z</time>
      </trkpt>
      <trkpt lat="47.09717" lon="-1.27146">
        <ele>40.788</ele>
        <time>2015-09-11T14:20:25.738Z</time>
      </trkpt>
      <trkpt lat="47.09723" lon="-1.27145">
        <ele>40.767</ele>
        <time>2015-09-11T14:20:26.556Z</time>
      </trkpt>
      <trkpt lat="47.09728" lon="-1.27142">
        <ele>40.528</ele>
        <time>2015-09-11T14:20:27.557Z</time>
      </trkpt>
      <trkpt lat="47.09733" lon="-1.27138">
        <ele>40.213</ele>
        <time>2015-09-11T14:20:28.528Z</time>
      </trkpt>
      <trkpt lat="47.09739" lon="-1.27136">
        <ele>39.786</ele>
        <time>2015-09-11T14:20:29.702Z</time>
      </trkpt>
      <trkpt lat="47.09745" lon="-1.27136">
        <ele>39.372</ele>
        <time>2015-09-11T14:20:30.558Z</time>
      </trkpt>
      <trkpt lat="47.09751" lon="-1.27139">
        <ele>38.961</ele>
        <time>2015-09-11T14:20:31.559Z</time>
      </trkpt>
      <trkpt lat="47.09756" lon="-1.27144">
        <ele>38.87</ele>
        <time>2015-09-11T14:20:32.524Z</time>
      </trkpt>
      <trkpt lat="47.0976" lon="-1.27152">
        <ele>38.988</ele>
        <time>2015-09-11T14:20:33.673Z</time>
      </trkpt>
      <trkpt lat="47.09761" lon="-1.2716">
        <ele>39.213</ele>
        <time>2015-09-11T14:20:34.521Z</time>
      </trkpt>
      <trkpt lat="47.09759" lon="-1.27167">
        <ele>39.322</ele>
        <time>2015-09-11T14:20:35.554Z</time>
      </trkpt>
      <trkpt lat="47.09757" lon="-1.27173">
        <ele>39.294</ele>
        <time>2015-09-11T14:20:36.532Z</time>
      </trkpt>
      <trkpt lat="47.09754" lon="-1.27179">
        <ele>39.199</ele>
        <time>2015-09-11T14:20:37.701Z</time>
      </trkpt>
      <trkpt lat="47.09751" lon="-1.27185">
        <ele>39.03</ele>
        <time>2015-09-11T14:20:38.552Z</time>
      </trkpt>
      <trkpt lat="47.09747" lon="-1.2719">
        <ele>39.097</ele>
        <time>2015-09-11T14:20:39.74Z</time>
      </trkpt>
      <trkpt lat="47.09746" lon="-1.27197">
        <ele>39.211</ele>
        <time>2015-09-11T14:20:40.55Z</time>
      </trkpt>
      <trkpt lat="47.09749" lon="-1.27209">
        <ele>39.533</ele>
        <time>2015-09-11T14:20:42.562Z</time>
      </trkpt>
      <trkpt lat="47.09751" lon="-1.27214">
        <ele>39.762</ele>
        <time>2015-09-11T14:20:43.549Z</time>
      </trkpt>
      <trkpt lat="47.09756" lon="-1.27225">
        <ele>40.293</ele>
        <time>2015-09-11T14:20:46.082Z</time>
      </trkpt>
      <trkpt lat="47.09758" lon="-1.2723">
        <ele>40.493</ele>
        <time>2015-09-11T14:20:46.528Z</time>
      </trkpt>
      <trkpt lat="47.09761" lon="-1.27236">
        <ele>40.691</ele>
        <time>2015-09-11T14:20:47.55Z</time>
      </trkpt>
      <trkpt lat="47.09764" lon="-1.27242">
        <ele>40.866</ele>
        <time>2015-09-11T14:20:48.556Z</time>
      </trkpt>
      <trkpt lat="47.09767" lon="-1.27248">
        <ele>40.974</ele>
        <time>2015-09-11T14:20:49.681Z</time>
      </trkpt>
      <trkpt lat="47.09771" lon="-1.27254">
        <ele>40.963</ele>
        <time>2015-09-11T14:20:50.581Z</time>
      </trkpt>
      <trkpt lat="47.09773" lon="-1.2726">
        <ele>40.941</ele>
        <time>2015-09-11T14:20:51.756Z</time>
      </trkpt>
      <trkpt lat="47.09776" lon="-1.27265">
        <ele>40.957</ele>
        <time>2015-09-11T14:20:52.583Z</time>
      </trkpt>
      <trkpt lat="47.09778" lon="-1.27272">
        <ele>41.004</ele>
        <time>2015-09-11T14:20:53.781Z</time>
      </trkpt>
      <trkpt lat="47.09782" lon="-1.27277">
        <ele>41.002</ele>
        <time>2015-09-11T14:20:54.553Z</time>
      </trkpt>
      <trkpt lat="47.09785" lon="-1.27283">
        <ele>40.698</ele>
        <time>2015-09-11T14:20:55.685Z</time>
      </trkpt>
      <trkpt lat="47.09788" lon="-1.2729">
        <ele>40.445</ele>
        <time>2015-09-11T14:20:56.671Z</time>
      </trkpt>
      <trkpt lat="47.09791" lon="-1.27295">
        <ele>40.35</ele>
        <time>2015-09-11T14:20:57.554Z</time>
      </trkpt>
      <trkpt lat="47.09794" lon="-1.27301">
        <ele>40.329</ele>
        <time>2015-09-11T14:20:58.523Z</time>
      </trkpt>
      <trkpt lat="47.09798" lon="-1.27305">
        <ele>40.482</ele>
        <time>2015-09-11T14:20:59.568Z</time>
      </trkpt>
      <trkpt lat="47.09801" lon="-1.2731">
        <ele>40.519</ele>
        <time>2015-09-11T14:21:00.526Z</time>
      </trkpt>
      <trkpt lat="47.09808" lon="-1.2732">
        <ele>40.67</ele>
        <time>2015-09-11T14:21:02.714Z</time>
      </trkpt>
      <trkpt lat="47.09811" lon="-1.27325">
        <ele>40.794</ele>
        <time>2015-09-11T14:21:03.524Z</time>
      </trkpt>
      <trkpt lat="47.09814" lon="-1.27337">
        <ele>40.733</ele>
        <time>2015-09-11T14:21:05.978Z</time>
      </trkpt>
      <trkpt lat="47.09814" lon="-1.27343">
        <ele>40.611</ele>
        <time>2015-09-11T14:21:06.565Z</time>
      </trkpt>
      <trkpt lat="47.09813" lon="-1.27355">
        <ele>40.01</ele>
        <time>2015-09-11T14:21:08.6Z</time>
      </trkpt>
      <trkpt lat="47.09815" lon="-1.2736">
        <ele>40.024</ele>
        <time>2015-09-11T14:21:09.583Z</time>
      </trkpt>
      <trkpt lat="47.09821" lon="-1.27363">
        <ele>40.698</ele>
        <time>2015-09-11T14:21:11.722Z</time>
      </trkpt>
      <trkpt lat="47.09824" lon="-1.27364">
        <ele>41.063</ele>
        <time>2015-09-11T14:21:12.523Z</time>
      </trkpt>
      <trkpt lat="47.09832" lon="-1.27366">
        <ele>41.864</ele>
        <time>2015-09-11T14:21:14.675Z</time>
      </trkpt>
      <trkpt lat="47.09836" lon="-1.27367">
        <ele>42.192</ele>
        <time>2015-09-11T14:21:15.522Z</time>
      </trkpt>
      <trkpt lat="47.09844" lon="-1.2737">
        <ele>42.775</ele>
        <time>2015-09-11T14:21:17.623Z</time>
      </trkpt>
      <trkpt lat="47.09848" lon="-1.27371">
        <ele>43.063</ele>
        <time>2015-09-11T14:21:18.545Z</time>
      </trkpt>
      <trkpt lat="47.09856" lon="-1.27376">
        <ele>43.646</ele>
        <time>2015-09-11T14:21:20.561Z</time>
      </trkpt>
      <trkpt lat="47.0986" lon="-1.27378">
        <ele>43.934</ele>
        <time>2015-09-11T14:21:21.521Z</time>
      </trkpt>
      <trkpt lat="47.09868" lon="-1.2738">
        <ele>43.766</ele>
        <time>2015-09-11T14:21:23.563Z</time>
      </trkpt>
      <trkpt lat="47.09872" lon="-1.27381">
        <ele>43.619</ele>
        <time>2015-09-11T14:21:24.527Z</time>
      </trkpt>
      <trkpt lat="47.09878" lon="-1.27385">
        <ele>43.385</ele>
        <time>2015-09-11T14:21:26.739Z</time>
      </trkpt>
      <trkpt lat="47.09882" lon="-1.27388">
        <ele>43.237</ele>
        <time>2015-09-11T14:21:27.557Z</time>
      </trkpt>
      <trkpt lat="47.09886" lon="-1.2739">
        <ele>43.087</ele>
        <time>2015-09-11T14:21:28.573Z</time>
      </trkpt>
      <trkpt lat="47.09891" lon="-1.27392">
        <ele>42.913</ele>
        <time>2015-09-11T14:21:29.522Z</time>
      </trkpt>
      <trkpt lat="47.09896" lon="-1.27394">
        <ele>42.762</ele>
        <time>2015-09-11T14:21:30.557Z</time>
      </trkpt>
      <trkpt lat="47.099" lon="-1.27398">
        <ele>42.586</ele>
        <time>2015-09-11T14:21:31.525Z</time>
      </trkpt>
      <trkpt lat="47.09905" lon="-1.27401">
        <ele>42.434</ele>
        <time>2015-09-11T14:21:32.569Z</time>
      </trkpt>
      <trkpt lat="47.09909" lon="-1.27403">
        <ele>42.287</ele>
        <time>2015-09-11T14:21:33.522Z</time>
      </trkpt>
      <trkpt lat="47.09917" lon="-1.27407">
        <ele>42</ele>
        <time>2015-09-11T14:21:35.556Z</time>
      </trkpt>
      <trkpt lat="47.09922" lon="-1.27409">
        <ele>42</ele>
        <time>2015-09-11T14:21:36.528Z</time>
      </trkpt>
      <trkpt lat="47.0993" lon="-1.27413">
        <ele>42</ele>
        <time>2015-09-11T14:21:38.732Z</time>
      </trkpt>
      <trkpt lat="47.09934" lon="-1.27415">
        <ele>42</ele>
        <time>2015-09-11T14:21:39.9Z</time>
      </trkpt>
      <trkpt lat="47.09942" lon="-1.2742">
        <ele>42</ele>
        <time>2015-09-11T14:21:41.56Z</time>
      </trkpt>
      <trkpt lat="47.09946" lon="-1.27422">
        <ele>41.942</ele>
        <time>2015-09-11T14:21:42.557Z</time>
      </trkpt>
      <trkpt lat="47.09951" lon="-1.27424">
        <ele>41.833</ele>
        <time>2015-09-11T14:21:43.68Z</time>
      </trkpt>
      <trkpt lat="47.09956" lon="-1.27426">
        <ele>41.723</ele>
        <time>2015-09-11T14:21:44.547Z</time>
      </trkpt>
      <trkpt lat="47.09961" lon="-1.27429">
        <ele>41.662</ele>
        <time>2015-09-11T14:21:45.758Z</time>
      </trkpt>
      <trkpt lat="47.09966" lon="-1.27431">
        <ele>41.637</ele>
        <time>2015-09-11T14:21:46.556Z</time>
      </trkpt>
      <trkpt lat="47.0997" lon="-1.27434">
        <ele>41.65</ele>
        <time>2015-09-11T14:21:47.67Z</time>
      </trkpt>
      <trkpt lat="47.09976" lon="-1.27436">
        <ele>41.689</ele>
        <time>2015-09-11T14:21:48.595Z</time>
      </trkpt>
      <trkpt lat="47.0998" lon="-1.27438">
        <ele>41.75</ele>
        <time>2015-09-11T14:21:49.703Z</time>
      </trkpt>
      <trkpt lat="47.09984" lon="-1.2744">
        <ele>41.84</ele>
        <time>2015-09-11T14:21:50.551Z</time>
      </trkpt>
      <trkpt lat="47.09989" lon="-1.27443">
        <ele>41.944</ele>
        <time>2015-09-11T14:21:51.559Z</time>
      </trkpt>
      <trkpt lat="47.09993" lon="-1.27445">
        <ele>41.977</ele>
        <time>2015-09-11T14:21:52.525Z</time>
      </trkpt>
      <trkpt lat="47.09998" lon="-1.27447">
        <ele>41.917</ele>
        <time>2015-09-11T14:21:53.693Z</time>
      </trkpt>
      <trkpt lat="47.10003" lon="-1.27449">
        <ele>41.737</ele>
        <time>2015-09-11T14:21:54.558Z</time>
      </trkpt>
      <trkpt lat="47.10008" lon="-1.27451">
        <ele>41.531</ele>
        <time>2015-09-11T14:21:55.83Z</time>
      </trkpt>
      <trkpt lat="47.10013" lon="-1.27454">
        <ele>41.348</ele>
        <time>2015-09-11T14:21:56.563Z</time>
      </trkpt>
      <trkpt lat="47.10018" lon="-1.27456">
        <ele>41.197</ele>
        <time>2015-09-11T14:21:57.692Z</time>
      </trkpt>
      <trkpt lat="47.10023" lon="-1.27458">
        <ele>41.082</ele>
        <time>2015-09-11T14:21:58.544Z</time>
      </trkpt>
      <trkpt lat="47.10028" lon="-1.27461">
        <ele>40.997</ele>
        <time>2015-09-11T14:21:59.746Z</time>
      </trkpt>
      <trkpt lat="47.10034" lon="-1.27464">
        <ele>40.846</ele>
        <time>2015-09-11T14:22:00.565Z</time>
      </trkpt>
      <trkpt lat="47.10038" lon="-1.27467">
        <ele>40.695</ele>
        <time>2015-09-11T14:22:01.556Z</time>
      </trkpt>
      <trkpt lat="47.10043" lon="-1.27468">
        <ele>40.549</ele>
        <time>2015-09-11T14:22:02.522Z</time>
      </trkpt>
      <trkpt lat="47.10046" lon="-1.2747">
        <ele>40.387</ele>
        <time>2015-09-11T14:22:03.688Z</time>
      </trkpt>
      <trkpt lat="47.10051" lon="-1.27472">
        <ele>40.167</ele>
        <time>2015-09-11T14:22:04.563Z</time>
      </trkpt>
      <trkpt lat="47.10056" lon="-1.27474">
        <ele>40</ele>
        <time>2015-09-11T14:22:05.698Z</time>
      </trkpt>
      <trkpt lat="47.1006" lon="-1.27476">
        <ele>40</ele>
        <time>2015-09-11T14:22:06.562Z</time>
      </trkpt>
      <trkpt lat="47.10064" lon="-1.27479">
        <ele>40</ele>
        <time>2015-09-11T14:22:07.7Z</time>
      </trkpt>
      <trkpt lat="47.10069" lon="-1.27481">
        <ele>40</ele>
        <time>2015-09-11T14:22:08.552Z</time>
      </trkpt>
      <trkpt lat="47.10074" lon="-1.27483">
        <ele>40</ele>
        <time>2015-09-11T14:22:09.739Z</time>
      </trkpt>
      <trkpt lat="47.10078" lon="-1.27485">
        <ele>40</ele>
        <time>2015-09-11T14:22:10.557Z</time>
      </trkpt>
      <trkpt lat="47.10083" lon="-1.27486">
        <ele>40</ele>
        <time>2015-09-11T14:22:11.556Z</time>
      </trkpt>
      <trkpt lat="47.10088" lon="-1.27487">
        <ele>40</ele>
        <time>2015-09-11T14:22:12.525Z</time>
      </trkpt>
      <trkpt lat="47.10093" lon="-1.27488">
        <ele>40</ele>
        <time>2015-09-11T14:22:13.678Z</time>
      </trkpt>
      <trkpt lat="47.10097" lon="-1.2749">
        <ele>40</ele>
        <time>2015-09-11T14:22:14.553Z</time>
      </trkpt>
      <trkpt lat="47.10101" lon="-1.275">
        <ele>40.009</ele>
        <time>2015-09-11T14:22:16.697Z</time>
      </trkpt>
      <trkpt lat="47.10101" lon="-1.27507">
        <ele>40.164</ele>
        <time>2015-09-11T14:22:17.561Z</time>
      </trkpt>
      <trkpt lat="47.101" lon="-1.27519">
        <ele>40.427</ele>
        <time>2015-09-11T14:22:19.682Z</time>
      </trkpt>
      <trkpt lat="47.101" lon="-1.27526">
        <ele>40.538</ele>
        <time>2015-09-11T14:22:20.547Z</time>
      </trkpt>
      <trkpt lat="47.10098" lon="-1.27538">
        <ele>40.688</ele>
        <time>2015-09-11T14:22:22.556Z</time>
      </trkpt>
      <trkpt lat="47.10096" lon="-1.27544">
        <ele>40.775</ele>
        <time>2015-09-11T14:22:23.63Z</time>
      </trkpt>
      <trkpt lat="47.10095" lon="-1.27551">
        <ele>40.895</ele>
        <time>2015-09-11T14:22:24.59Z</time>
      </trkpt>
      <trkpt lat="47.10095" lon="-1.27558">
        <ele>41</ele>
        <time>2015-09-11T14:22:25.523Z</time>
      </trkpt>
      <trkpt lat="47.10094" lon="-1.27571">
        <ele>41</ele>
        <time>2015-09-11T14:22:27.743Z</time>
      </trkpt>
      <trkpt lat="47.10092" lon="-1.27577">
        <ele>41</ele>
        <time>2015-09-11T14:22:28.561Z</time>
      </trkpt>
      <trkpt lat="47.10088" lon="-1.2758">
        <ele>41</ele>
        <time>2015-09-11T14:22:29.683Z</time>
      </trkpt>
      <trkpt lat="47.10082" lon="-1.2758">
        <ele>40.945</ele>
        <time>2015-09-11T14:22:30.558Z</time>
      </trkpt>
      <trkpt lat="47.10077" lon="-1.27583">
        <ele>40.779</ele>
        <time>2015-09-11T14:22:31.806Z</time>
      </trkpt>
      <trkpt lat="47.10073" lon="-1.27584">
        <ele>40.6</ele>
        <time>2015-09-11T14:22:32.55Z</time>
      </trkpt>
      <trkpt lat="47.10069" lon="-1.27587">
        <ele>40.356</ele>
        <time>2015-09-11T14:22:33.68Z</time>
      </trkpt>
      <trkpt lat="47.10064" lon="-1.2759">
        <ele>40.082</ele>
        <time>2015-09-11T14:22:34.558Z</time>
      </trkpt>
      <trkpt lat="47.10059" lon="-1.27591">
        <ele>39.834</ele>
        <time>2015-09-11T14:22:35.678Z</time>
      </trkpt>
      <trkpt lat="47.10054" lon="-1.27594">
        <ele>39.62</ele>
        <time>2015-09-11T14:22:36.525Z</time>
      </trkpt>
      <trkpt lat="47.10049" lon="-1.27596">
        <ele>39.555</ele>
        <time>2015-09-11T14:22:37.69Z</time>
      </trkpt>
      <trkpt lat="47.10044" lon="-1.27598">
        <ele>39.465</ele>
        <time>2015-09-11T14:22:38.553Z</time>
      </trkpt>
      <trkpt lat="47.10041" lon="-1.27601">
        <ele>39.35</ele>
        <time>2015-09-11T14:22:39.557Z</time>
      </trkpt>
      <trkpt lat="47.10036" lon="-1.27605">
        <ele>39.227</ele>
        <time>2015-09-11T14:22:40.528Z</time>
      </trkpt>
      <trkpt lat="47.10028" lon="-1.2761">
        <ele>39.036</ele>
        <time>2015-09-11T14:22:42.774Z</time>
      </trkpt>
      <trkpt lat="47.10024" lon="-1.27613">
        <ele>39.114</ele>
        <time>2015-09-11T14:22:43.547Z</time>
      </trkpt>
      <trkpt lat="47.10021" lon="-1.27616">
        <ele>39.212</ele>
        <time>2015-09-11T14:22:44.555Z</time>
      </trkpt>
      <trkpt lat="47.10016" lon="-1.2762">
        <ele>39.278</ele>
        <time>2015-09-11T14:22:45.528Z</time>
      </trkpt>
      <trkpt lat="47.10009" lon="-1.27627">
        <ele>39.295</ele>
        <time>2015-09-11T14:22:47.752Z</time>
      </trkpt>
      <trkpt lat="47.10005" lon="-1.2763">
        <ele>39.259</ele>
        <time>2015-09-11T14:22:48.55Z</time>
      </trkpt>
      <trkpt lat="47.09998" lon="-1.27637">
        <ele>39.082</ele>
        <time>2015-09-11T14:22:50.763Z</time>
      </trkpt>
      <trkpt lat="47.09994" lon="-1.27638">
        <ele>39.021</ele>
        <time>2015-09-11T14:22:51.557Z</time>
      </trkpt>
      <trkpt lat="47.09989" lon="-1.27642">
        <ele>38.937</ele>
        <time>2015-09-11T14:22:52.73Z</time>
      </trkpt>
      <trkpt lat="47.09986" lon="-1.27645">
        <ele>38.893</ele>
        <time>2015-09-11T14:22:53.546Z</time>
      </trkpt>
      <trkpt lat="47.09982" lon="-1.27657">
        <ele>38.774</ele>
        <time>2015-09-11T14:22:57.154Z</time>
      </trkpt>
      <trkpt lat="47.09984" lon="-1.27662">
        <ele>38.647</ele>
        <time>2015-09-11T14:22:57.554Z</time>
      </trkpt>
      <trkpt lat="47.09989" lon="-1.27672">
        <ele>38.51</ele>
        <time>2015-09-11T14:22:59.564Z</time>
      </trkpt>
      <trkpt lat="47.09991" lon="-1.27678">
        <ele>38.608</ele>
        <time>2015-09-11T14:23:00.553Z</time>
      </trkpt>
      <trkpt lat="47.09992" lon="-1.27684">
        <ele>38.727</ele>
        <time>2015-09-11T14:23:01.696Z</time>
      </trkpt>
      <trkpt lat="47.09993" lon="-1.27691">
        <ele>38.909</ele>
        <time>2015-09-11T14:23:02.553Z</time>
      </trkpt>
      <trkpt lat="47.09993" lon="-1.277">
        <ele>39.051</ele>
        <time>2015-09-11T14:23:03.778Z</time>
      </trkpt>
      <trkpt lat="47.09993" lon="-1.27709">
        <ele>39.121</ele>
        <time>2015-09-11T14:23:04.555Z</time>
      </trkpt>
      <trkpt lat="47.09994" lon="-1.27718">
        <ele>39.182</ele>
        <time>2015-09-11T14:23:05.678Z</time>
      </trkpt>
      <trkpt lat="47.09995" lon="-1.27727">
        <ele>39.198</ele>
        <time>2015-09-11T14:23:06.557Z</time>
      </trkpt>
      <trkpt lat="47.09995" lon="-1.27727">
        <ele>39.198</ele>
        <time>2015-09-11T14:23:06.963Z</time>
      </trkpt>
      <trkpt lat="47.10005" lon="-1.27731">
        <ele>38.942</ele>
        <time>2015-09-11T14:23:07.523Z</time>
      </trkpt>
      <trkpt lat="47.10011" lon="-1.27735">
        <ele>38.814</ele>
        <time>2015-09-11T14:23:08.556Z</time>
      </trkpt>
      <trkpt lat="47.10017" lon="-1.27738">
        <ele>38.644</ele>
        <time>2015-09-11T14:23:09.572Z</time>
      </trkpt>
      <trkpt lat="47.10024" lon="-1.2774">
        <ele>38.474</ele>
        <time>2015-09-11T14:23:10.684Z</time>
      </trkpt>
      <trkpt lat="47.10029" lon="-1.27741">
        <ele>38.328</ele>
        <time>2015-09-11T14:23:11.551Z</time>
      </trkpt>
      <trkpt lat="47.10036" lon="-1.27745">
        <ele>38.198</ele>
        <time>2015-09-11T14:23:12.693Z</time>
      </trkpt>
      <trkpt lat="47.10043" lon="-1.27748">
        <ele>38.058</ele>
        <time>2015-09-11T14:23:13.549Z</time>
      </trkpt>
      <trkpt lat="47.10049" lon="-1.27752">
        <ele>37.933</ele>
        <time>2015-09-11T14:23:14.677Z</time>
      </trkpt>
      <trkpt lat="47.10055" lon="-1.27756">
        <ele>37.78</ele>
        <time>2015-09-11T14:23:15.558Z</time>
      </trkpt>
      <trkpt lat="47.10061" lon="-1.27759">
        <ele>37.894</ele>
        <time>2015-09-11T14:23:16.696Z</time>
      </trkpt>
      <trkpt lat="47.10067" lon="-1.27764">
        <ele>37.894</ele>
        <time>2015-09-11T14:23:17.566Z</time>
      </trkpt>
      <trkpt lat="47.10074" lon="-1.27771">
        <ele>37.904</ele>
        <time>2015-09-11T14:23:18.554Z</time>
      </trkpt>
      <trkpt lat="47.10081" lon="-1.27777">
        <ele>37.948</ele>
        <time>2015-09-11T14:23:19.522Z</time>
      </trkpt>
      <trkpt lat="47.10086" lon="-1.27781">
        <ele>38.212</ele>
        <time>2015-09-11T14:23:20.665Z</time>
      </trkpt>
      <trkpt lat="47.10092" lon="-1.27786">
        <ele>38.601</ele>
        <time>2015-09-11T14:23:21.56Z</time>
      </trkpt>
      <trkpt lat="47.10098" lon="-1.27791">
        <ele>38.99</ele>
        <time>2015-09-11T14:23:22.7Z</time>
      </trkpt>
      <trkpt lat="47.10101" lon="-1.27796">
        <ele>39.299</ele>
        <time>2015-09-11T14:23:23.547Z</time>
      </trkpt>
      <trkpt lat="47.10106" lon="-1.27801">
        <ele>39.666</ele>
        <time>2015-09-11T14:23:24.732Z</time>
      </trkpt>
      <trkpt lat="47.1011" lon="-1.27805">
        <ele>39.936</ele>
        <time>2015-09-11T14:23:25.56Z</time>
      </trkpt>
      <trkpt lat="47.10115" lon="-1.2781">
        <ele>40.143</ele>
        <time>2015-09-11T14:23:26.703Z</time>
      </trkpt>
      <trkpt lat="47.1012" lon="-1.27814">
        <ele>40.203</ele>
        <time>2015-09-11T14:23:27.554Z</time>
      </trkpt>
      <trkpt lat="47.10126" lon="-1.27818">
        <ele>40.218</ele>
        <time>2015-09-11T14:23:28.678Z</time>
      </trkpt>
      <trkpt lat="47.10131" lon="-1.27824">
        <ele>40.196</ele>
        <time>2015-09-11T14:23:29.528Z</time>
      </trkpt>
      <trkpt lat="47.10136" lon="-1.27827">
        <ele>40.096</ele>
        <time>2015-09-11T14:23:30.695Z</time>
      </trkpt>
      <trkpt lat="47.10141" lon="-1.27831">
        <ele>39.942</ele>
        <time>2015-09-11T14:23:31.556Z</time>
      </trkpt>
      <trkpt lat="47.10145" lon="-1.27835">
        <ele>39.773</ele>
        <time>2015-09-11T14:23:32.692Z</time>
      </trkpt>
      <trkpt lat="47.10149" lon="-1.27839">
        <ele>39.622</ele>
        <time>2015-09-11T14:23:33.553Z</time>
      </trkpt>
      <trkpt lat="47.10154" lon="-1.27843">
        <ele>39.456</ele>
        <time>2015-09-11T14:23:34.557Z</time>
      </trkpt>
      <trkpt lat="47.10157" lon="-1.27848">
        <ele>39.334</ele>
        <time>2015-09-11T14:23:35.528Z</time>
      </trkpt>
      <trkpt lat="47.10161" lon="-1.27854">
        <ele>39.222</ele>
        <time>2015-09-11T14:23:36.692Z</time>
      </trkpt>
      <trkpt lat="47.10162" lon="-1.2786">
        <ele>39.154</ele>
        <time>2015-09-11T14:23:37.552Z</time>
      </trkpt>
      <trkpt lat="47.10166" lon="-1.27866">
        <ele>39.21</ele>
        <time>2015-09-11T14:23:38.709Z</time>
      </trkpt>
      <trkpt lat="47.10168" lon="-1.27871">
        <ele>39.37</ele>
        <time>2015-09-11T14:23:39.547Z</time>
      </trkpt>
      <trkpt lat="47.1017" lon="-1.27877">
        <ele>39.614</ele>
        <time>2015-09-11T14:23:40.563Z</time>
      </trkpt>
      <trkpt lat="47.10173" lon="-1.27882">
        <ele>39.808</ele>
        <time>2015-09-11T14:23:41.525Z</time>
      </trkpt>
      <trkpt lat="47.10177" lon="-1.27887">
        <ele>39.955</ele>
        <time>2015-09-11T14:23:42.747Z</time>
      </trkpt>
      <trkpt lat="47.1018" lon="-1.27893">
        <ele>40.067</ele>
        <time>2015-09-11T14:23:43.552Z</time>
      </trkpt>
      <trkpt lat="47.10183" lon="-1.27897">
        <ele>40.162</ele>
        <time>2015-09-11T14:23:44.552Z</time>
      </trkpt>
      <trkpt lat="47.10186" lon="-1.27902">
        <ele>40.339</ele>
        <time>2015-09-11T14:23:45.522Z</time>
      </trkpt>
      <trkpt lat="47.1019" lon="-1.27912">
        <ele>40.711</ele>
        <time>2015-09-11T14:23:47.728Z</time>
      </trkpt>
      <trkpt lat="47.10192" lon="-1.27918">
        <ele>40.916</ele>
        <time>2015-09-11T14:23:48.551Z</time>
      </trkpt>
      <trkpt lat="47.10198" lon="-1.27928">
        <ele>40.956</ele>
        <time>2015-09-11T14:23:50.792Z</time>
      </trkpt>
      <trkpt lat="47.10201" lon="-1.27932">
        <ele>40.877</ele>
        <time>2015-09-11T14:23:51.527Z</time>
      </trkpt>
      <trkpt lat="47.10203" lon="-1.27937">
        <ele>40.771</ele>
        <time>2015-09-11T14:23:52.556Z</time>
      </trkpt>
      <trkpt lat="47.10206" lon="-1.27943">
        <ele>40.613</ele>
        <time>2015-09-11T14:23:53.548Z</time>
      </trkpt>
      <trkpt lat="47.10208" lon="-1.2795">
        <ele>40.498</ele>
        <time>2015-09-11T14:23:54.679Z</time>
      </trkpt>
      <trkpt lat="47.10211" lon="-1.27956">
        <ele>40.411</ele>
        <time>2015-09-11T14:23:55.548Z</time>
      </trkpt>
      <trkpt lat="47.10214" lon="-1.27964">
        <ele>40.292</ele>
        <time>2015-09-11T14:23:56.71Z</time>
      </trkpt>
      <trkpt lat="47.10217" lon="-1.2797">
        <ele>40.195</ele>
        <time>2015-09-11T14:23:57.552Z</time>
      </trkpt>
      <trkpt lat="47.1022" lon="-1.27977">
        <ele>39.925</ele>
        <time>2015-09-11T14:23:58.667Z</time>
      </trkpt>
      <trkpt lat="47.10223" lon="-1.27983">
        <ele>39.586</ele>
        <time>2015-09-11T14:23:59.55Z</time>
      </trkpt>
      <trkpt lat="47.10224" lon="-1.27991">
        <ele>39.208</ele>
        <time>2015-09-11T14:24:00.558Z</time>
      </trkpt>
      <trkpt lat="47.10227" lon="-1.27998">
        <ele>38.742</ele>
        <time>2015-09-11T14:24:01.522Z</time>
      </trkpt>
      <trkpt lat="47.1023" lon="-1.28004">
        <ele>38.44</ele>
        <time>2015-09-11T14:24:02.691Z</time>
      </trkpt>
      <trkpt lat="47.10233" lon="-1.28011">
        <ele>38.195</ele>
        <time>2015-09-11T14:24:03.544Z</time>
      </trkpt>
      <trkpt lat="47.10237" lon="-1.28018">
        <ele>37.914</ele>
        <time>2015-09-11T14:24:04.804Z</time>
      </trkpt>
      <trkpt lat="47.10242" lon="-1.28025">
        <ele>37.612</ele>
        <time>2015-09-11T14:24:05.551Z</time>
      </trkpt>
      <trkpt lat="47.10245" lon="-1.28032">
        <ele>37.177</ele>
        <time>2015-09-11T14:24:06.767Z</time>
      </trkpt>
      <trkpt lat="47.10249" lon="-1.28041">
        <ele>36.597</ele>
        <time>2015-09-11T14:24:07.55Z</time>
      </trkpt>
      <trkpt lat="47.10254" lon="-1.2805">
        <ele>36.211</ele>
        <time>2015-09-11T14:24:08.673Z</time>
      </trkpt>
      <trkpt lat="47.10258" lon="-1.28059">
        <ele>35.73</ele>
        <time>2015-09-11T14:24:09.547Z</time>
      </trkpt>
      <trkpt lat="47.10263" lon="-1.28069">
        <ele>35.054</ele>
        <time>2015-09-11T14:24:10.687Z</time>
      </trkpt>
      <trkpt lat="47.10267" lon="-1.28078">
        <ele>34.384</ele>
        <time>2015-09-11T14:24:11.552Z</time>
      </trkpt>
      <trkpt lat="47.10271" lon="-1.28088">
        <ele>33.73</ele>
        <time>2015-09-11T14:24:12.605Z</time>
      </trkpt>
      <trkpt lat="47.10273" lon="-1.281">
        <ele>32.925</ele>
        <time>2015-09-11T14:24:13.527Z</time>
      </trkpt>
      <trkpt lat="47.10273" lon="-1.281">
        <ele>32.925</ele>
        <time>2015-09-11T14:24:13.609Z</time>
      </trkpt>
      <trkpt lat="47.10275" lon="-1.28113">
        <ele>31.928</ele>
        <time>2015-09-11T14:24:14.529Z</time>
      </trkpt>
      <trkpt lat="47.10275" lon="-1.28126">
        <ele>31.057</ele>
        <time>2015-09-11T14:24:15.685Z</time>
      </trkpt>
      <trkpt lat="47.10272" lon="-1.28139">
        <ele>30.193</ele>
        <time>2015-09-11T14:24:16.552Z</time>
      </trkpt>
      <trkpt lat="47.10272" lon="-1.28139">
        <ele>30.193</ele>
        <time>2015-09-11T14:24:17.037Z</time>
      </trkpt>
      <trkpt lat="47.10269" lon="-1.28152">
        <ele>29.851</ele>
        <time>2015-09-11T14:24:17.553Z</time>
      </trkpt>
      <trkpt lat="47.10268" lon="-1.28162">
        <ele>29.531</ele>
        <time>2015-09-11T14:24:18.559Z</time>
      </trkpt>
      <trkpt lat="47.10265" lon="-1.28173">
        <ele>29.101</ele>
        <time>2015-09-11T14:24:19.522Z</time>
      </trkpt>
      <trkpt lat="47.10262" lon="-1.28185">
        <ele>28.643</ele>
        <time>2015-09-11T14:24:20.718Z</time>
      </trkpt>
      <trkpt lat="47.10262" lon="-1.28193">
        <ele>28.256</ele>
        <time>2015-09-11T14:24:21.551Z</time>
      </trkpt>
      <trkpt lat="47.10266" lon="-1.28202">
        <ele>27.354</ele>
        <time>2015-09-11T14:24:23.558Z</time>
      </trkpt>
      <trkpt lat="47.1027" lon="-1.28201">
        <ele>27.088</ele>
        <time>2015-09-11T14:24:24.55Z</time>
      </trkpt>
      <trkpt lat="47.10276" lon="-1.282">
        <ele>26.778</ele>
        <time>2015-09-11T14:24:25.75Z</time>
      </trkpt>
      <trkpt lat="47.10281" lon="-1.28198">
        <ele>26.624</ele>
        <time>2015-09-11T14:24:26.58Z</time>
      </trkpt>
      <trkpt lat="47.10288" lon="-1.28198">
        <ele>26.412</ele>
        <time>2015-09-11T14:24:27.554Z</time>
      </trkpt>
      <trkpt lat="47.10296" lon="-1.28198">
        <ele>26.092</ele>
        <time>2015-09-11T14:24:28.528Z</time>
      </trkpt>
      <trkpt lat="47.10303" lon="-1.282">
        <ele>25.681</ele>
        <time>2015-09-11T14:24:29.722Z</time>
      </trkpt>
      <trkpt lat="47.10311" lon="-1.28203">
        <ele>25.555</ele>
        <time>2015-09-11T14:24:30.55Z</time>
      </trkpt>
      <trkpt lat="47.10318" lon="-1.28206">
        <ele>25.62</ele>
        <time>2015-09-11T14:24:31.713Z</time>
      </trkpt>
      <trkpt lat="47.10325" lon="-1.28208">
        <ele>25.731</ele>
        <time>2015-09-11T14:24:32.614Z</time>
      </trkpt>
      <trkpt lat="47.10333" lon="-1.28209">
        <ele>25.951</ele>
        <time>2015-09-11T14:24:33.562Z</time>
      </trkpt>
      <trkpt lat="47.10342" lon="-1.28209">
        <ele>25.79</ele>
        <time>2015-09-11T14:24:34.522Z</time>
      </trkpt>
      <trkpt lat="47.1035" lon="-1.28209">
        <ele>25.679</ele>
        <time>2015-09-11T14:24:35.673Z</time>
      </trkpt>
      <trkpt lat="47.10359" lon="-1.28208">
        <ele>25.58</ele>
        <time>2015-09-11T14:24:36.552Z</time>
      </trkpt>
      <trkpt lat="47.10367" lon="-1.28207">
        <ele>25.656</ele>
        <time>2015-09-11T14:24:37.751Z</time>
      </trkpt>
      <trkpt lat="47.10376" lon="-1.28206">
        <ele>25.913</ele>
        <time>2015-09-11T14:24:38.557Z</time>
      </trkpt>
      <trkpt lat="47.10376" lon="-1.28206">
        <ele>25.913</ele>
        <time>2015-09-11T14:24:39.008Z</time>
      </trkpt>
      <trkpt lat="47.10386" lon="-1.28206">
        <ele>26.104</ele>
        <time>2015-09-11T14:24:39.528Z</time>
      </trkpt>
      <trkpt lat="47.10386" lon="-1.28206">
        <ele>26.104</ele>
        <time>2015-09-11T14:24:39.606Z</time>
      </trkpt>
      <trkpt lat="47.10395" lon="-1.28206">
        <ele>25.88</ele>
        <time>2015-09-11T14:24:40.522Z</time>
      </trkpt>
      <trkpt lat="47.10395" lon="-1.28206">
        <ele>25.88</ele>
        <time>2015-09-11T14:24:40.588Z</time>
      </trkpt>
      <trkpt lat="47.10405" lon="-1.28204">
        <ele>25.504</ele>
        <time>2015-09-11T14:24:41.53Z</time>
      </trkpt>
      <trkpt lat="47.10405" lon="-1.28204">
        <ele>25.504</ele>
        <time>2015-09-11T14:24:41.825Z</time>
      </trkpt>
      <trkpt lat="47.10415" lon="-1.282">
        <ele>25.453</ele>
        <time>2015-09-11T14:24:42.553Z</time>
      </trkpt>
      <trkpt lat="47.10415" lon="-1.282">
        <ele>25.453</ele>
        <time>2015-09-11T14:24:42.915Z</time>
      </trkpt>
      <trkpt lat="47.10424" lon="-1.28197">
        <ele>25.243</ele>
        <time>2015-09-11T14:24:43.522Z</time>
      </trkpt>
      <trkpt lat="47.10424" lon="-1.28197">
        <ele>25.243</ele>
        <time>2015-09-11T14:24:43.6Z</time>
      </trkpt>
      <trkpt lat="47.10434" lon="-1.28194">
        <ele>24.77</ele>
        <time>2015-09-11T14:24:44.524Z</time>
      </trkpt>
      <trkpt lat="47.10434" lon="-1.28194">
        <ele>24.77</ele>
        <time>2015-09-11T14:24:44.603Z</time>
      </trkpt>
      <trkpt lat="47.10443" lon="-1.28192">
        <ele>24.287</ele>
        <time>2015-09-11T14:24:45.534Z</time>
      </trkpt>
      <trkpt lat="47.10451" lon="-1.28188">
        <ele>23.886</ele>
        <time>2015-09-11T14:24:46.7Z</time>
      </trkpt>
      <trkpt lat="47.1046" lon="-1.28184">
        <ele>23.404</ele>
        <time>2015-09-11T14:24:47.556Z</time>
      </trkpt>
      <trkpt lat="47.1046" lon="-1.28184">
        <ele>23.404</ele>
        <time>2015-09-11T14:24:47.85Z</time>
      </trkpt>
      <trkpt lat="47.10469" lon="-1.28183">
        <ele>22.694</ele>
        <time>2015-09-11T14:24:48.554Z</time>
      </trkpt>
      <trkpt lat="47.10469" lon="-1.28183">
        <ele>22.694</ele>
        <time>2015-09-11T14:24:48.812Z</time>
      </trkpt>
      <trkpt lat="47.10479" lon="-1.28183">
        <ele>22.2</ele>
        <time>2015-09-11T14:24:49.556Z</time>
      </trkpt>
      <trkpt lat="47.10487" lon="-1.28186">
        <ele>21.804</ele>
        <time>2015-09-11T14:24:50.688Z</time>
      </trkpt>
      <trkpt lat="47.10494" lon="-1.28189">
        <ele>21.412</ele>
        <time>2015-09-11T14:24:51.568Z</time>
      </trkpt>
      <trkpt lat="47.105" lon="-1.28194">
        <ele>21.012</ele>
        <time>2015-09-11T14:24:52.554Z</time>
      </trkpt>
      <trkpt lat="47.10504" lon="-1.28198">
        <ele>20.845</ele>
        <time>2015-09-11T14:24:53.527Z</time>
      </trkpt>
      <trkpt lat="47.10505" lon="-1.2821">
        <ele>20.838</ele>
        <time>2015-09-11T14:24:56.685Z</time>
      </trkpt>
      <trkpt lat="47.10502" lon="-1.28214">
        <ele>20.917</ele>
        <time>2015-09-11T14:24:57.552Z</time>
      </trkpt>
      <trkpt lat="47.10498" lon="-1.28225">
        <ele>21.077</ele>
        <time>2015-09-11T14:25:06.695Z</time>
      </trkpt>
      <trkpt lat="47.10497" lon="-1.28229">
        <ele>21.077</ele>
        <time>2015-09-11T14:25:07.553Z</time>
      </trkpt>
      <trkpt lat="47.10496" lon="-1.28241">
        <ele>21.045</ele>
        <time>2015-09-11T14:25:10.877Z</time>
      </trkpt>
      <trkpt lat="47.10495" lon="-1.28245">
        <ele>21.029</ele>
        <time>2015-09-11T14:25:11.521Z</time>
      </trkpt>
      <trkpt lat="47.10492" lon="-1.28249">
        <ele>21.015</ele>
        <time>2015-09-11T14:25:12.555Z</time>
      </trkpt>
      <trkpt lat="47.10483" lon="-1.28248">
        <ele>21.039</ele>
        <time>2015-09-11T14:25:13.604Z</time>
      </trkpt>
      <trkpt lat="47.10478" lon="-1.28251">
        <ele>21.006</ele>
        <time>2015-09-11T14:25:14.56Z</time>
      </trkpt>
      <trkpt lat="47.10472" lon="-1.28256">
        <ele>20.977</ele>
        <time>2015-09-11T14:25:15.522Z</time>
      </trkpt>
      <trkpt lat="47.10467" lon="-1.28265">
        <ele>20.715</ele>
        <time>2015-09-11T14:25:16.722Z</time>
      </trkpt>
      <trkpt lat="47.10465" lon="-1.28275">
        <ele>20.503</ele>
        <time>2015-09-11T14:25:17.549Z</time>
      </trkpt>
      <trkpt lat="47.10464" lon="-1.28284">
        <ele>20.437</ele>
        <time>2015-09-11T14:25:18.787Z</time>
      </trkpt>
      <trkpt lat="47.10464" lon="-1.28293">
        <ele>20.394</ele>
        <time>2015-09-11T14:25:19.522Z</time>
      </trkpt>
      <trkpt lat="47.10464" lon="-1.28304">
        <ele>20.422</ele>
        <time>2015-09-11T14:25:21.688Z</time>
      </trkpt>
      <trkpt lat="47.10464" lon="-1.2831">
        <ele>20.394</ele>
        <time>2015-09-11T14:25:22.556Z</time>
      </trkpt>
      <trkpt lat="47.10464" lon="-1.2832">
        <ele>20.422</ele>
        <time>2015-09-11T14:25:24.57Z</time>
      </trkpt>
      <trkpt lat="47.10464" lon="-1.28324">
        <ele>20.386</ele>
        <time>2015-09-11T14:25:25.532Z</time>
      </trkpt>
      <trkpt lat="47.10461" lon="-1.28334">
        <ele>20.194</ele>
        <time>2015-09-11T14:25:27.69Z</time>
      </trkpt>
      <trkpt lat="47.1046" lon="-1.28339">
        <ele>20.445</ele>
        <time>2015-09-11T14:25:28.522Z</time>
      </trkpt>
      <trkpt lat="47.10458" lon="-1.2835">
        <ele>20.847</ele>
        <time>2015-09-11T14:25:30.693Z</time>
      </trkpt>
      <trkpt lat="47.10458" lon="-1.28354">
        <ele>21.069</ele>
        <time>2015-09-11T14:25:31.561Z</time>
      </trkpt>
      <trkpt lat="47.10456" lon="-1.28364">
        <ele>21.377</ele>
        <time>2015-09-11T14:25:33.672Z</time>
      </trkpt>
      <trkpt lat="47.10455" lon="-1.28372">
        <ele>21.655</ele>
        <time>2015-09-11T14:25:35.522Z</time>
      </trkpt>
      <trkpt lat="47.10454" lon="-1.28381">
        <ele>21.98</ele>
        <time>2015-09-11T14:25:37.727Z</time>
      </trkpt>
      <trkpt lat="47.10453" lon="-1.28386">
        <ele>22.172</ele>
        <time>2015-09-11T14:25:38.555Z</time>
      </trkpt>
      <trkpt lat="47.10453" lon="-1.28395">
        <ele>22.524</ele>
        <time>2015-09-11T14:25:40.701Z</time>
      </trkpt>
      <trkpt lat="47.10453" lon="-1.284">
        <ele>22.686</ele>
        <time>2015-09-11T14:25:41.586Z</time>
      </trkpt>
      <trkpt lat="47.10452" lon="-1.28408">
        <ele>22.964</ele>
        <time>2015-09-11T14:25:43.831Z</time>
      </trkpt>
      <trkpt lat="47.1045" lon="-1.28413">
        <ele>23.054</ele>
        <time>2015-09-11T14:25:44.524Z</time>
      </trkpt>
      <trkpt lat="47.10443" lon="-1.28421">
        <ele>23.025</ele>
        <time>2015-09-11T14:25:46.572Z</time>
      </trkpt>
      <trkpt lat="47.10436" lon="-1.28425">
        <ele>22.523</ele>
        <time>2015-09-11T14:25:47.522Z</time>
      </trkpt>
      <trkpt lat="47.10431" lon="-1.28431">
        <ele>22.305</ele>
        <time>2015-09-11T14:25:48.759Z</time>
      </trkpt>
      <trkpt lat="47.10426" lon="-1.28436">
        <ele>22.187</ele>
        <time>2015-09-11T14:25:49.553Z</time>
      </trkpt>
      <trkpt lat="47.1042" lon="-1.28441">
        <ele>21.971</ele>
        <time>2015-09-11T14:25:50.752Z</time>
      </trkpt>
      <trkpt lat="47.10414" lon="-1.28446">
        <ele>21.902</ele>
        <time>2015-09-11T14:25:51.546Z</time>
      </trkpt>
      <trkpt lat="47.10407" lon="-1.28451">
        <ele>21.707</ele>
        <time>2015-09-11T14:25:52.559Z</time>
      </trkpt>
      <trkpt lat="47.10401" lon="-1.28456">
        <ele>21.588</ele>
        <time>2015-09-11T14:25:53.521Z</time>
      </trkpt>
      <trkpt lat="47.10395" lon="-1.28461">
        <ele>21.491</ele>
        <time>2015-09-11T14:25:54.684Z</time>
      </trkpt>
      <trkpt lat="47.10389" lon="-1.28465">
        <ele>21.264</ele>
        <time>2015-09-11T14:25:55.552Z</time>
      </trkpt>
      <trkpt lat="47.10383" lon="-1.28469">
        <ele>21.278</ele>
        <time>2015-09-11T14:25:56.69Z</time>
      </trkpt>
      <trkpt lat="47.10378" lon="-1.28474">
        <ele>21.471</ele>
        <time>2015-09-11T14:25:57.56Z</time>
      </trkpt>
      <trkpt lat="47.10374" lon="-1.28478">
        <ele>21.773</ele>
        <time>2015-09-11T14:25:58.555Z</time>
      </trkpt>
      <trkpt lat="47.1037" lon="-1.28482">
        <ele>21.928</ele>
        <time>2015-09-11T14:25:59.523Z</time>
      </trkpt>
      <trkpt lat="47.10365" lon="-1.28488">
        <ele>22.073</ele>
        <time>2015-09-11T14:26:00.675Z</time>
      </trkpt>
      <trkpt lat="47.10359" lon="-1.28493">
        <ele>22.021</ele>
        <time>2015-09-11T14:26:01.55Z</time>
      </trkpt>
      <trkpt lat="47.10355" lon="-1.28498">
        <ele>21.877</ele>
        <time>2015-09-11T14:26:03Z</time>
      </trkpt>
      <trkpt lat="47.1035" lon="-1.28502">
        <ele>21.727</ele>
        <time>2015-09-11T14:26:03.521Z</time>
      </trkpt>
      <trkpt lat="47.10343" lon="-1.28504">
        <ele>21.078</ele>
        <time>2015-09-11T14:26:04.564Z</time>
      </trkpt>
      <trkpt lat="47.10339" lon="-1.28506">
        <ele>20.664</ele>
        <time>2015-09-11T14:26:05.553Z</time>
      </trkpt>
      <trkpt lat="47.10335" lon="-1.28508">
        <ele>20.377</ele>
        <time>2015-09-11T14:26:06.913Z</time>
      </trkpt>
      <trkpt lat="47.10329" lon="-1.28511">
        <ele>20.002</ele>
        <time>2015-09-11T14:26:07.522Z</time>
      </trkpt>
      <trkpt lat="47.10323" lon="-1.28514">
        <ele>19.751</ele>
        <time>2015-09-11T14:26:08.56Z</time>
      </trkpt>
      <trkpt lat="47.10318" lon="-1.28518">
        <ele>19.513</ele>
        <time>2015-09-11T14:26:09.548Z</time>
      </trkpt>
      <trkpt lat="47.10312" lon="-1.2852">
        <ele>19.085</ele>
        <time>2015-09-11T14:26:10.716Z</time>
      </trkpt>
      <trkpt lat="47.10306" lon="-1.28524">
        <ele>18.672</ele>
        <time>2015-09-11T14:26:11.556Z</time>
      </trkpt>
      <trkpt lat="47.103" lon="-1.28528">
        <ele>18.376</ele>
        <time>2015-09-11T14:26:12.597Z</time>
      </trkpt>
      <trkpt lat="47.10294" lon="-1.28532">
        <ele>18.248</ele>
        <time>2015-09-11T14:26:13.526Z</time>
      </trkpt>
      <trkpt lat="47.10294" lon="-1.28532">
        <ele>18.248</ele>
        <time>2015-09-11T14:26:13.607Z</time>
      </trkpt>
      <trkpt lat="47.10284" lon="-1.28533">
        <ele>17.232</ele>
        <time>2015-09-11T14:26:14.556Z</time>
      </trkpt>
      <trkpt lat="47.1028" lon="-1.28537">
        <ele>17.271</ele>
        <time>2015-09-11T14:26:15.692Z</time>
      </trkpt>
      <trkpt lat="47.10274" lon="-1.28541">
        <ele>17.405</ele>
        <time>2015-09-11T14:26:16.617Z</time>
      </trkpt>
      <trkpt lat="47.10268" lon="-1.28543">
        <ele>17.592</ele>
        <time>2015-09-11T14:26:17.553Z</time>
      </trkpt>
      <trkpt lat="47.10264" lon="-1.28543">
        <ele>17.604</ele>
        <time>2015-09-11T14:26:18.528Z</time>
      </trkpt>
      <trkpt lat="47.10257" lon="-1.28546">
        <ele>17.736</ele>
        <time>2015-09-11T14:26:19.744Z</time>
      </trkpt>
      <trkpt lat="47.1025" lon="-1.28551">
        <ele>17.826</ele>
        <time>2015-09-11T14:26:20.555Z</time>
      </trkpt>
      <trkpt lat="47.10242" lon="-1.28553">
        <ele>17.962</ele>
        <time>2015-09-11T14:26:21.741Z</time>
      </trkpt>
      <trkpt lat="47.10236" lon="-1.28558">
        <ele>17.868</ele>
        <time>2015-09-11T14:26:22.551Z</time>
      </trkpt>
      <trkpt lat="47.10231" lon="-1.28565">
        <ele>17.44</ele>
        <time>2015-09-11T14:26:23.713Z</time>
      </trkpt>
      <trkpt lat="47.10224" lon="-1.28571">
        <ele>16.896</ele>
        <time>2015-09-11T14:26:24.555Z</time>
      </trkpt>
      <trkpt lat="47.10219" lon="-1.28577">
        <ele>16.645</ele>
        <time>2015-09-11T14:26:25.556Z</time>
      </trkpt>
      <trkpt lat="47.10214" lon="-1.28582">
        <ele>16.637</ele>
        <time>2015-09-11T14:26:26.521Z</time>
      </trkpt>
      <trkpt lat="47.10206" lon="-1.28582">
        <ele>17.223</ele>
        <time>2015-09-11T14:26:29.691Z</time>
      </trkpt>
      <trkpt lat="47.10204" lon="-1.28582">
        <ele>17.321</ele>
        <time>2015-09-11T14:26:30.552Z</time>
      </trkpt>
      <trkpt lat="47.10198" lon="-1.28577">
        <ele>17.822</ele>
        <time>2015-09-11T14:26:33.556Z</time>
      </trkpt>
      <trkpt lat="47.10196" lon="-1.28575">
        <ele>17.936</ele>
        <time>2015-09-11T14:26:34.523Z</time>
      </trkpt>
      <trkpt lat="47.10189" lon="-1.28578">
        <ele>18.169</ele>
        <time>2015-09-11T14:26:38.708Z</time>
      </trkpt>
      <trkpt lat="47.10186" lon="-1.28578">
        <ele>18.233</ele>
        <time>2015-09-11T14:26:39.556Z</time>
      </trkpt>
      <trkpt lat="47.10179" lon="-1.28583">
        <ele>18.555</ele>
        <time>2015-09-11T14:26:43.764Z</time>
      </trkpt>
      <trkpt lat="47.10178" lon="-1.28586">
        <ele>18.571</ele>
        <time>2015-09-11T14:26:44.553Z</time>
      </trkpt>
      <trkpt lat="47.10173" lon="-1.28596">
        <ele>18.645</ele>
        <time>2015-09-11T14:26:48.695Z</time>
      </trkpt>
      <trkpt lat="47.10172" lon="-1.28599">
        <ele>18.689</ele>
        <time>2015-09-11T14:26:49.555Z</time>
      </trkpt>
      <trkpt lat="47.10167" lon="-1.28609">
        <ele>18.984</ele>
        <time>2015-09-11T14:26:53.757Z</time>
      </trkpt>
      <trkpt lat="47.10165" lon="-1.28611">
        <ele>19.001</ele>
        <time>2015-09-11T14:26:54.552Z</time>
      </trkpt>
      <trkpt lat="47.10161" lon="-1.28619">
        <ele>19.131</ele>
        <time>2015-09-11T14:26:57.697Z</time>
      </trkpt>
      <trkpt lat="47.10159" lon="-1.28622">
        <ele>19.213</ele>
        <time>2015-09-11T14:26:58.541Z</time>
      </trkpt>
      <trkpt lat="47.10156" lon="-1.28631">
        <ele>19.566</ele>
        <time>2015-09-11T14:27:02.241Z</time>
      </trkpt>
      <trkpt lat="47.10155" lon="-1.28634">
        <ele>19.719</ele>
        <time>2015-09-11T14:27:02.522Z</time>
      </trkpt>
      <trkpt lat="47.10153" lon="-1.28645">
        <ele>20.366</ele>
        <time>2015-09-11T14:27:05.692Z</time>
      </trkpt>
      <trkpt lat="47.10152" lon="-1.28647">
        <ele>20.677</ele>
        <time>2015-09-11T14:27:06.56Z</time>
      </trkpt>
      <trkpt lat="47.10148" lon="-1.28656">
        <ele>21.751</ele>
        <time>2015-09-11T14:27:09.732Z</time>
      </trkpt>
      <trkpt lat="47.10147" lon="-1.28659">
        <ele>22.109</ele>
        <time>2015-09-11T14:27:10.561Z</time>
      </trkpt>
      <trkpt lat="47.10145" lon="-1.28669">
        <ele>23.268</ele>
        <time>2015-09-11T14:27:13.553Z</time>
      </trkpt>
      <trkpt lat="47.10144" lon="-1.28672">
        <ele>23.54</ele>
        <time>2015-09-11T14:27:14.553Z</time>
      </trkpt>
      <trkpt lat="47.10141" lon="-1.28682">
        <ele>24.734</ele>
        <time>2015-09-11T14:27:17.751Z</time>
      </trkpt>
      <trkpt lat="47.1014" lon="-1.28685">
        <ele>25.231</ele>
        <time>2015-09-11T14:27:18.558Z</time>
      </trkpt>
      <trkpt lat="47.10136" lon="-1.28697">
        <ele>26.059</ele>
        <time>2015-09-11T14:27:22.248Z</time>
      </trkpt>
      <trkpt lat="47.10134" lon="-1.287">
        <ele>26.032</ele>
        <time>2015-09-11T14:27:22.525Z</time>
      </trkpt>
      <trkpt lat="47.1013" lon="-1.28711">
        <ele>26.076</ele>
        <time>2015-09-11T14:27:25.692Z</time>
      </trkpt>
      <trkpt lat="47.10129" lon="-1.28715">
        <ele>26.123</ele>
        <time>2015-09-11T14:27:26.548Z</time>
      </trkpt>
      <trkpt lat="47.10126" lon="-1.28724">
        <ele>26.317</ele>
        <time>2015-09-11T14:27:28.557Z</time>
      </trkpt>
      <trkpt lat="47.10124" lon="-1.28728">
        <ele>26.35</ele>
        <time>2015-09-11T14:27:29.555Z</time>
      </trkpt>
      <trkpt lat="47.10121" lon="-1.28738">
        <ele>26.353</ele>
        <time>2015-09-11T14:27:32.558Z</time>
      </trkpt>
      <trkpt lat="47.1012" lon="-1.2874">
        <ele>26.36</ele>
        <time>2015-09-11T14:27:33.522Z</time>
      </trkpt>
      <trkpt lat="47.10118" lon="-1.28751">
        <ele>26.271</ele>
        <time>2015-09-11T14:27:37.697Z</time>
      </trkpt>
      <trkpt lat="47.10117" lon="-1.28754">
        <ele>26.303</ele>
        <time>2015-09-11T14:27:38.554Z</time>
      </trkpt>
      <trkpt lat="47.10114" lon="-1.28766">
        <ele>26.592</ele>
        <time>2015-09-11T14:27:43.691Z</time>
      </trkpt>
      <trkpt lat="47.10113" lon="-1.28767">
        <ele>26.753</ele>
        <time>2015-09-11T14:27:44.572Z</time>
      </trkpt>
      <trkpt lat="47.10109" lon="-1.28777">
        <ele>27.217</ele>
        <time>2015-09-11T14:27:48.672Z</time>
      </trkpt>
      <trkpt lat="47.10108" lon="-1.28779">
        <ele>27.361</ele>
        <time>2015-09-11T14:27:49.555Z</time>
      </trkpt>
      <trkpt lat="47.10105" lon="-1.2879">
        <ele>27.889</ele>
        <time>2015-09-11T14:27:53.856Z</time>
      </trkpt>
      <trkpt lat="47.10105" lon="-1.28792">
        <ele>27.942</ele>
        <time>2015-09-11T14:27:54.553Z</time>
      </trkpt>
      <trkpt lat="47.10107" lon="-1.28801">
        <ele>28.047</ele>
        <time>2015-09-11T14:27:57.691Z</time>
      </trkpt>
      <trkpt lat="47.10108" lon="-1.28806">
        <ele>28.102</ele>
        <time>2015-09-11T14:27:58.551Z</time>
      </trkpt>
      <trkpt lat="47.10113" lon="-1.28814">
        <ele>27.998</ele>
        <time>2015-09-11T14:28:00.554Z</time>
      </trkpt>
      <trkpt lat="47.10115" lon="-1.28818">
        <ele>27.757</ele>
        <time>2015-09-11T14:28:01.558Z</time>
      </trkpt>
      <trkpt lat="47.10119" lon="-1.28826">
        <ele>27.505</ele>
        <time>2015-09-11T14:28:03.699Z</time>
      </trkpt>
      <trkpt lat="47.10121" lon="-1.28831">
        <ele>27.438</ele>
        <time>2015-09-11T14:28:04.574Z</time>
      </trkpt>
      <trkpt lat="47.10125" lon="-1.28842">
        <ele>27.125</ele>
        <time>2015-09-11T14:28:06.75Z</time>
      </trkpt>
      <trkpt lat="47.10129" lon="-1.28853">
        <ele>27.094</ele>
        <time>2015-09-11T14:28:07.562Z</time>
      </trkpt>
      <trkpt lat="47.10134" lon="-1.2886">
        <ele>27.127</ele>
        <time>2015-09-11T14:28:08.741Z</time>
      </trkpt>
      <trkpt lat="47.10139" lon="-1.28867">
        <ele>26.814</ele>
        <time>2015-09-11T14:28:09.559Z</time>
      </trkpt>
      <trkpt lat="47.10143" lon="-1.28871">
        <ele>25.807</ele>
        <time>2015-09-11T14:28:10.546Z</time>
      </trkpt>
      <trkpt lat="47.10148" lon="-1.28876">
        <ele>24.917</ele>
        <time>2015-09-11T14:28:11.522Z</time>
      </trkpt>
      <trkpt lat="47.10152" lon="-1.2888">
        <ele>24.163</ele>
        <time>2015-09-11T14:28:12.694Z</time>
      </trkpt>
      <trkpt lat="47.10157" lon="-1.28887">
        <ele>23.321</ele>
        <time>2015-09-11T14:28:13.555Z</time>
      </trkpt>
      <trkpt lat="47.10164" lon="-1.28892">
        <ele>22.319</ele>
        <time>2015-09-11T14:28:14.68Z</time>
      </trkpt>
      <trkpt lat="47.1017" lon="-1.28897">
        <ele>21.308</ele>
        <time>2015-09-11T14:28:15.553Z</time>
      </trkpt>
      <trkpt lat="47.10176" lon="-1.28901">
        <ele>20.513</ele>
        <time>2015-09-11T14:28:16.697Z</time>
      </trkpt>
      <trkpt lat="47.10184" lon="-1.28907">
        <ele>19.516</ele>
        <time>2015-09-11T14:28:17.609Z</time>
      </trkpt>
      <trkpt lat="47.10191" lon="-1.2891">
        <ele>18.641</ele>
        <time>2015-09-11T14:28:18.556Z</time>
      </trkpt>
      <trkpt lat="47.10199" lon="-1.28915">
        <ele>17.756</ele>
        <time>2015-09-11T14:28:19.522Z</time>
      </trkpt>
      <trkpt lat="47.10207" lon="-1.28918">
        <ele>17.103</ele>
        <time>2015-09-11T14:28:20.692Z</time>
      </trkpt>
      <trkpt lat="47.10216" lon="-1.28923">
        <ele>16.484</ele>
        <time>2015-09-11T14:28:21.551Z</time>
      </trkpt>
      <trkpt lat="47.10216" lon="-1.28923">
        <ele>16.484</ele>
        <time>2015-09-11T14:28:21.958Z</time>
      </trkpt>
      <trkpt lat="47.10224" lon="-1.28928">
        <ele>16</ele>
        <time>2015-09-11T14:28:22.561Z</time>
      </trkpt>
      <trkpt lat="47.10224" lon="-1.28928">
        <ele>16</ele>
        <time>2015-09-11T14:28:22.911Z</time>
      </trkpt>
      <trkpt lat="47.10233" lon="-1.28934">
        <ele>16</ele>
        <time>2015-09-11T14:28:23.555Z</time>
      </trkpt>
      <trkpt lat="47.10239" lon="-1.28942">
        <ele>16</ele>
        <time>2015-09-11T14:28:24.692Z</time>
      </trkpt>
      <trkpt lat="47.10244" lon="-1.2895">
        <ele>16</ele>
        <time>2015-09-11T14:28:25.562Z</time>
      </trkpt>
      <trkpt lat="47.10249" lon="-1.28958">
        <ele>16</ele>
        <time>2015-09-11T14:28:26.694Z</time>
      </trkpt>
      <trkpt lat="47.10252" lon="-1.28968">
        <ele>16.086</ele>
        <time>2015-09-11T14:28:27.557Z</time>
      </trkpt>
      <trkpt lat="47.10256" lon="-1.28978">
        <ele>16.359</ele>
        <time>2015-09-11T14:28:28.554Z</time>
      </trkpt>
      <trkpt lat="47.10256" lon="-1.28985">
        <ele>16.592</ele>
        <time>2015-09-11T14:28:29.522Z</time>
      </trkpt>
      <trkpt lat="47.10257" lon="-1.28996">
        <ele>16.884</ele>
        <time>2015-09-11T14:28:30.682Z</time>
      </trkpt>
      <trkpt lat="47.10256" lon="-1.29004">
        <ele>17.033</ele>
        <time>2015-09-11T14:28:31.522Z</time>
      </trkpt>
      <trkpt lat="47.10257" lon="-1.29013">
        <ele>17.107</ele>
        <time>2015-09-11T14:28:32.556Z</time>
      </trkpt>
      <trkpt lat="47.10258" lon="-1.29022">
        <ele>17.237</ele>
        <time>2015-09-11T14:28:33.552Z</time>
      </trkpt>
      <trkpt lat="47.10261" lon="-1.29031">
        <ele>17.382</ele>
        <time>2015-09-11T14:28:34.678Z</time>
      </trkpt>
      <trkpt lat="47.10261" lon="-1.29038">
        <ele>17.396</ele>
        <time>2015-09-11T14:28:35.559Z</time>
      </trkpt>
      <trkpt lat="47.1026" lon="-1.29048">
        <ele>17.367</ele>
        <time>2015-09-11T14:28:36.682Z</time>
      </trkpt>
      <trkpt lat="47.1026" lon="-1.29055">
        <ele>17.349</ele>
        <time>2015-09-11T14:28:37.571Z</time>
      </trkpt>
      <trkpt lat="47.1026" lon="-1.29062">
        <ele>17.212</ele>
        <time>2015-09-11T14:28:38.573Z</time>
      </trkpt>
      <trkpt lat="47.1026" lon="-1.2907">
        <ele>17.055</ele>
        <time>2015-09-11T14:28:39.522Z</time>
      </trkpt>
      <trkpt lat="47.10259" lon="-1.29078">
        <ele>16.813</ele>
        <time>2015-09-11T14:28:40.694Z</time>
      </trkpt>
      <trkpt lat="47.10259" lon="-1.29086">
        <ele>16.563</ele>
        <time>2015-09-11T14:28:41.572Z</time>
      </trkpt>
      <trkpt lat="47.10257" lon="-1.29095">
        <ele>16.102</ele>
        <time>2015-09-11T14:28:42.555Z</time>
      </trkpt>
      <trkpt lat="47.10256" lon="-1.29103">
        <ele>15.72</ele>
        <time>2015-09-11T14:28:43.532Z</time>
      </trkpt>
      <trkpt lat="47.10256" lon="-1.29112">
        <ele>15.429</ele>
        <time>2015-09-11T14:28:44.678Z</time>
      </trkpt>
      <trkpt lat="47.10255" lon="-1.2912">
        <ele>15.427</ele>
        <time>2015-09-11T14:28:45.565Z</time>
      </trkpt>
      <trkpt lat="47.10255" lon="-1.29129">
        <ele>15.502</ele>
        <time>2015-09-11T14:28:46.577Z</time>
      </trkpt>
      <trkpt lat="47.10256" lon="-1.29137">
        <ele>15.633</ele>
        <time>2015-09-11T14:28:47.522Z</time>
      </trkpt>
      <trkpt lat="47.10256" lon="-1.29144">
        <ele>15.943</ele>
        <time>2015-09-11T14:28:48.807Z</time>
      </trkpt>
      <trkpt lat="47.10256" lon="-1.29152">
        <ele>16.425</ele>
        <time>2015-09-11T14:28:49.522Z</time>
      </trkpt>
      <trkpt lat="47.10255" lon="-1.2916">
        <ele>16.935</ele>
        <time>2015-09-11T14:28:50.555Z</time>
      </trkpt>
      <trkpt lat="47.10255" lon="-1.29168">
        <ele>17.353</ele>
        <time>2015-09-11T14:28:51.575Z</time>
      </trkpt>
      <trkpt lat="47.10254" lon="-1.29175">
        <ele>17.366</ele>
        <time>2015-09-11T14:28:52.697Z</time>
      </trkpt>
      <trkpt lat="47.10252" lon="-1.29182">
        <ele>17.237</ele>
        <time>2015-09-11T14:28:53.553Z</time>
      </trkpt>
      <trkpt lat="47.10252" lon="-1.29189">
        <ele>17.222</ele>
        <time>2015-09-11T14:28:54.558Z</time>
      </trkpt>
      <trkpt lat="47.10251" lon="-1.29196">
        <ele>17.072</ele>
        <time>2015-09-11T14:28:55.522Z</time>
      </trkpt>
      <trkpt lat="47.10251" lon="-1.29202">
        <ele>17.13</ele>
        <time>2015-09-11T14:28:56.992Z</time>
      </trkpt>
      <trkpt lat="47.1025" lon="-1.2921">
        <ele>17.029</ele>
        <time>2015-09-11T14:28:57.522Z</time>
      </trkpt>
      <trkpt lat="47.10251" lon="-1.29222">
        <ele>17.173</ele>
        <time>2015-09-11T14:28:59.707Z</time>
      </trkpt>
      <trkpt lat="47.10252" lon="-1.29229">
        <ele>17.015</ele>
        <time>2015-09-11T14:29:00.576Z</time>
      </trkpt>
      <trkpt lat="47.10253" lon="-1.29236">
        <ele>16.979</ele>
        <time>2015-09-11T14:29:01.556Z</time>
      </trkpt>
      <trkpt lat="47.10254" lon="-1.29242">
        <ele>16.828</ele>
        <time>2015-09-11T14:29:02.523Z</time>
      </trkpt>
      <trkpt lat="47.10255" lon="-1.29249">
        <ele>16.788</ele>
        <time>2015-09-11T14:29:03.703Z</time>
      </trkpt>
      <trkpt lat="47.10256" lon="-1.29255">
        <ele>16.698</ele>
        <time>2015-09-11T14:29:04.638Z</time>
      </trkpt>
      <trkpt lat="47.10258" lon="-1.29262">
        <ele>16.688</ele>
        <time>2015-09-11T14:29:05.554Z</time>
      </trkpt>
      <trkpt lat="47.1026" lon="-1.29268">
        <ele>16.796</ele>
        <time>2015-09-11T14:29:06.521Z</time>
      </trkpt>
      <trkpt lat="47.10264" lon="-1.2928">
        <ele>16.974</ele>
        <time>2015-09-11T14:29:08.679Z</time>
      </trkpt>
      <trkpt lat="47.10267" lon="-1.29283">
        <ele>17.067</ele>
        <time>2015-09-11T14:29:09.552Z</time>
      </trkpt>
      <trkpt lat="47.1027" lon="-1.29294">
        <ele>16.944</ele>
        <time>2015-09-11T14:29:12.556Z</time>
      </trkpt>
      <trkpt lat="47.10273" lon="-1.29298">
        <ele>16.969</ele>
        <time>2015-09-11T14:29:13.528Z</time>
      </trkpt>
      <trkpt lat="47.10279" lon="-1.29305">
        <ele>17.177</ele>
        <time>2015-09-11T14:29:15.697Z</time>
      </trkpt>
      <trkpt lat="47.10281" lon="-1.29309">
        <ele>17.5</ele>
        <time>2015-09-11T14:29:16.564Z</time>
      </trkpt>
      <trkpt lat="47.10287" lon="-1.29317">
        <ele>18.097</ele>
        <time>2015-09-11T14:29:18.752Z</time>
      </trkpt>
      <trkpt lat="47.1029" lon="-1.2932">
        <ele>18.414</ele>
        <time>2015-09-11T14:29:19.556Z</time>
      </trkpt>
      <trkpt lat="47.10293" lon="-1.29324">
        <ele>18.755</ele>
        <time>2015-09-11T14:29:20.697Z</time>
      </trkpt>
      <trkpt lat="47.10298" lon="-1.29328">
        <ele>19.202</ele>
        <time>2015-09-11T14:29:21.556Z</time>
      </trkpt>
      <trkpt lat="47.10302" lon="-1.29332">
        <ele>19.67</ele>
        <time>2015-09-11T14:29:22.702Z</time>
      </trkpt>
      <trkpt lat="47.10306" lon="-1.29336">
        <ele>19.813</ele>
        <time>2015-09-11T14:29:23.521Z</time>
      </trkpt>
      <trkpt lat="47.1031" lon="-1.29339">
        <ele>20.227</ele>
        <time>2015-09-11T14:29:24.679Z</time>
      </trkpt>
      <trkpt lat="47.10315" lon="-1.29343">
        <ele>20.546</ele>
        <time>2015-09-11T14:29:25.555Z</time>
      </trkpt>
      <trkpt lat="47.10319" lon="-1.29346">
        <ele>20.806</ele>
        <time>2015-09-11T14:29:26.694Z</time>
      </trkpt>
      <trkpt lat="47.10324" lon="-1.2935">
        <ele>21.089</ele>
        <time>2015-09-11T14:29:27.567Z</time>
      </trkpt>
      <trkpt lat="47.10327" lon="-1.29353">
        <ele>21.107</ele>
        <time>2015-09-11T14:29:28.558Z</time>
      </trkpt>
      <trkpt lat="47.10333" lon="-1.29359">
        <ele>21.234</ele>
        <time>2015-09-11T14:29:29.523Z</time>
      </trkpt>
      <trkpt lat="47.10338" lon="-1.29365">
        <ele>20.862</ele>
        <time>2015-09-11T14:29:30.738Z</time>
      </trkpt>
      <trkpt lat="47.10343" lon="-1.29369">
        <ele>20.634</ele>
        <time>2015-09-11T14:29:31.567Z</time>
      </trkpt>
      <trkpt lat="47.10349" lon="-1.2937">
        <ele>20.987</ele>
        <time>2015-09-11T14:29:32.556Z</time>
      </trkpt>
      <trkpt lat="47.10351" lon="-1.29374">
        <ele>20.753</ele>
        <time>2015-09-11T14:29:33.523Z</time>
      </trkpt>
      <trkpt lat="47.10356" lon="-1.29378">
        <ele>20.763</ele>
        <time>2015-09-11T14:29:34.716Z</time>
      </trkpt>
      <trkpt lat="47.10361" lon="-1.29382">
        <ele>20.691</ele>
        <time>2015-09-11T14:29:35.547Z</time>
      </trkpt>
      <trkpt lat="47.10365" lon="-1.29386">
        <ele>20.841</ele>
        <time>2015-09-11T14:29:36.561Z</time>
      </trkpt>
      <trkpt lat="47.1037" lon="-1.29389">
        <ele>21.221</ele>
        <time>2015-09-11T14:29:37.522Z</time>
      </trkpt>
      <trkpt lat="47.10375" lon="-1.29393">
        <ele>21.606</ele>
        <time>2015-09-11T14:29:38.787Z</time>
      </trkpt>
      <trkpt lat="47.10379" lon="-1.29397">
        <ele>21.915</ele>
        <time>2015-09-11T14:29:39.55Z</time>
      </trkpt>
      <trkpt lat="47.10383" lon="-1.29401">
        <ele>22.204</ele>
        <time>2015-09-11T14:29:40.556Z</time>
      </trkpt>
      <trkpt lat="47.10387" lon="-1.29406">
        <ele>22.478</ele>
        <time>2015-09-11T14:29:41.522Z</time>
      </trkpt>
      <trkpt lat="47.10391" lon="-1.29411">
        <ele>22.743</ele>
        <time>2015-09-11T14:29:42.691Z</time>
      </trkpt>
      <trkpt lat="47.10394" lon="-1.29416">
        <ele>23.048</ele>
        <time>2015-09-11T14:29:43.575Z</time>
      </trkpt>
      <trkpt lat="47.10398" lon="-1.29421">
        <ele>23.215</ele>
        <time>2015-09-11T14:29:44.555Z</time>
      </trkpt>
      <trkpt lat="47.10402" lon="-1.29426">
        <ele>23.269</ele>
        <time>2015-09-11T14:29:45.522Z</time>
      </trkpt>
      <trkpt lat="47.10405" lon="-1.29432">
        <ele>23.111</ele>
        <time>2015-09-11T14:29:46.752Z</time>
      </trkpt>
      <trkpt lat="47.10406" lon="-1.2944">
        <ele>22.582</ele>
        <time>2015-09-11T14:29:47.575Z</time>
      </trkpt>
      <trkpt lat="47.10409" lon="-1.29446">
        <ele>22.314</ele>
        <time>2015-09-11T14:29:48.557Z</time>
      </trkpt>
      <trkpt lat="47.1041" lon="-1.29454">
        <ele>21.664</ele>
        <time>2015-09-11T14:29:49.521Z</time>
      </trkpt>
      <trkpt lat="47.10413" lon="-1.2946">
        <ele>21.262</ele>
        <time>2015-09-11T14:29:50.695Z</time>
      </trkpt>
      <trkpt lat="47.10418" lon="-1.29466">
        <ele>21.126</ele>
        <time>2015-09-11T14:29:51.555Z</time>
      </trkpt>
      <trkpt lat="47.10422" lon="-1.29471">
        <ele>21.012</ele>
        <time>2015-09-11T14:29:52.555Z</time>
      </trkpt>
      <trkpt lat="47.10426" lon="-1.29476">
        <ele>20.993</ele>
        <time>2015-09-11T14:29:53.522Z</time>
      </trkpt>
      <trkpt lat="47.1043" lon="-1.29481">
        <ele>21.114</ele>
        <time>2015-09-11T14:29:54.656Z</time>
      </trkpt>
      <trkpt lat="47.10435" lon="-1.29487">
        <ele>21.285</ele>
        <time>2015-09-11T14:29:55.56Z</time>
      </trkpt>
      <trkpt lat="47.10441" lon="-1.29494">
        <ele>21.227</ele>
        <time>2015-09-11T14:29:57.556Z</time>
      </trkpt>
      <trkpt lat="47.10446" lon="-1.29499">
        <ele>21.46</ele>
        <time>2015-09-11T14:29:58.551Z</time>
      </trkpt>
      <trkpt lat="47.1045" lon="-1.29503">
        <ele>21.669</ele>
        <time>2015-09-11T14:29:59.556Z</time>
      </trkpt>
      <trkpt lat="47.10455" lon="-1.29508">
        <ele>22.036</ele>
        <time>2015-09-11T14:30:00.522Z</time>
      </trkpt>
      <trkpt lat="47.10462" lon="-1.29515">
        <ele>22.446</ele>
        <time>2015-09-11T14:30:02.778Z</time>
      </trkpt>
      <trkpt lat="47.10465" lon="-1.29519">
        <ele>22.641</ele>
        <time>2015-09-11T14:30:03.555Z</time>
      </trkpt>
      <trkpt lat="47.10472" lon="-1.29525">
        <ele>23.195</ele>
        <time>2015-09-11T14:30:05.705Z</time>
      </trkpt>
      <trkpt lat="47.10475" lon="-1.2953">
        <ele>23.215</ele>
        <time>2015-09-11T14:30:06.561Z</time>
      </trkpt>
      <trkpt lat="47.10481" lon="-1.29539">
        <ele>22.833</ele>
        <time>2015-09-11T14:30:08.862Z</time>
      </trkpt>
      <trkpt lat="47.10484" lon="-1.29544">
        <ele>22.391</ele>
        <time>2015-09-11T14:30:09.555Z</time>
      </trkpt>
      <trkpt lat="47.10487" lon="-1.29547">
        <ele>22.504</ele>
        <time>2015-09-11T14:30:10.735Z</time>
      </trkpt>
      <trkpt lat="47.10491" lon="-1.29554">
        <ele>22.32</ele>
        <time>2015-09-11T14:30:11.556Z</time>
      </trkpt>
      <trkpt lat="47.10494" lon="-1.29559">
        <ele>22.25</ele>
        <time>2015-09-11T14:30:12.695Z</time>
      </trkpt>
      <trkpt lat="47.10498" lon="-1.29564">
        <ele>22.555</ele>
        <time>2015-09-11T14:30:13.58Z</time>
      </trkpt>
      <trkpt lat="47.10503" lon="-1.29572">
        <ele>23.119</ele>
        <time>2015-09-11T14:30:14.565Z</time>
      </trkpt>
      <trkpt lat="47.10504" lon="-1.29576">
        <ele>22.696</ele>
        <time>2015-09-11T14:30:15.522Z</time>
      </trkpt>
      <trkpt lat="47.10508" lon="-1.29587">
        <ele>22.546</ele>
        <time>2015-09-11T14:30:17.784Z</time>
      </trkpt>
      <trkpt lat="47.10512" lon="-1.29595">
        <ele>22.621</ele>
        <time>2015-09-11T14:30:18.559Z</time>
      </trkpt>
      <trkpt lat="47.10516" lon="-1.29602">
        <ele>22.586</ele>
        <time>2015-09-11T14:30:20.569Z</time>
      </trkpt>
      <trkpt lat="47.10519" lon="-1.29608">
        <ele>22.507</ele>
        <time>2015-09-11T14:30:21.555Z</time>
      </trkpt>
      <trkpt lat="47.10522" lon="-1.29614">
        <ele>22.329</ele>
        <time>2015-09-11T14:30:22.753Z</time>
      </trkpt>
      <trkpt lat="47.10526" lon="-1.29621">
        <ele>22.193</ele>
        <time>2015-09-11T14:30:23.551Z</time>
      </trkpt>
      <trkpt lat="47.10531" lon="-1.29629">
        <ele>22.128</ele>
        <time>2015-09-11T14:30:24.674Z</time>
      </trkpt>
      <trkpt lat="47.10535" lon="-1.29635">
        <ele>22.04</ele>
        <time>2015-09-11T14:30:25.558Z</time>
      </trkpt>
      <trkpt lat="47.10537" lon="-1.29642">
        <ele>21.727</ele>
        <time>2015-09-11T14:30:26.749Z</time>
      </trkpt>
      <trkpt lat="47.1054" lon="-1.2965">
        <ele>21.575</ele>
        <time>2015-09-11T14:30:27.562Z</time>
      </trkpt>
      <trkpt lat="47.10542" lon="-1.29656">
        <ele>21.527</ele>
        <time>2015-09-11T14:30:28.579Z</time>
      </trkpt>
      <trkpt lat="47.10544" lon="-1.29664">
        <ele>21.159</ele>
        <time>2015-09-11T14:30:29.521Z</time>
      </trkpt>
      <trkpt lat="47.10543" lon="-1.29671">
        <ele>20.369</ele>
        <time>2015-09-11T14:30:30.696Z</time>
      </trkpt>
      <trkpt lat="47.10547" lon="-1.29681">
        <ele>19.811</ele>
        <time>2015-09-11T14:30:31.555Z</time>
      </trkpt>
      <trkpt lat="47.1055" lon="-1.2969">
        <ele>19.451</ele>
        <time>2015-09-11T14:30:32.559Z</time>
      </trkpt>
      <trkpt lat="47.10554" lon="-1.29699">
        <ele>19.268</ele>
        <time>2015-09-11T14:30:33.522Z</time>
      </trkpt>
      <trkpt lat="47.10555" lon="-1.29704">
        <ele>18.818</ele>
        <time>2015-09-11T14:30:34.62Z</time>
      </trkpt>
      <trkpt lat="47.1056" lon="-1.29712">
        <ele>19.098</ele>
        <time>2015-09-11T14:30:35.561Z</time>
      </trkpt>
      <trkpt lat="47.10562" lon="-1.2972">
        <ele>18.767</ele>
        <time>2015-09-11T14:30:36.952Z</time>
      </trkpt>
      <trkpt lat="47.10563" lon="-1.29726">
        <ele>18.495</ele>
        <time>2015-09-11T14:30:37.521Z</time>
      </trkpt>
      <trkpt lat="47.10566" lon="-1.29733">
        <ele>18.651</ele>
        <time>2015-09-11T14:30:38.555Z</time>
      </trkpt>
      <trkpt lat="47.10569" lon="-1.2974">
        <ele>18.343</ele>
        <time>2015-09-11T14:30:39.553Z</time>
      </trkpt>
      <trkpt lat="47.10569" lon="-1.29752">
        <ele>17.188</ele>
        <time>2015-09-11T14:30:40.828Z</time>
      </trkpt>
      <trkpt lat="47.10571" lon="-1.29761">
        <ele>16.853</ele>
        <time>2015-09-11T14:30:41.555Z</time>
      </trkpt>
      <trkpt lat="47.10573" lon="-1.29768">
        <ele>16.516</ele>
        <time>2015-09-11T14:30:42.567Z</time>
      </trkpt>
      <trkpt lat="47.10577" lon="-1.29775">
        <ele>16.281</ele>
        <time>2015-09-11T14:30:43.522Z</time>
      </trkpt>
      <trkpt lat="47.1058" lon="-1.29781">
        <ele>16.281</ele>
        <time>2015-09-11T14:30:44.792Z</time>
      </trkpt>
      <trkpt lat="47.1058" lon="-1.29789">
        <ele>15.792</ele>
        <time>2015-09-11T14:30:45.557Z</time>
      </trkpt>
      <trkpt lat="47.10583" lon="-1.29799">
        <ele>15.391</ele>
        <time>2015-09-11T14:30:46.676Z</time>
      </trkpt>
      <trkpt lat="47.10586" lon="-1.29807">
        <ele>15.451</ele>
        <time>2015-09-11T14:30:47.523Z</time>
      </trkpt>
      <trkpt lat="47.1059" lon="-1.29817">
        <ele>15.727</ele>
        <time>2015-09-11T14:30:48.682Z</time>
      </trkpt>
      <trkpt lat="47.10594" lon="-1.29825">
        <ele>16.013</ele>
        <time>2015-09-11T14:30:49.551Z</time>
      </trkpt>
      <trkpt lat="47.10599" lon="-1.29831">
        <ele>16.342</ele>
        <time>2015-09-11T14:30:50.557Z</time>
      </trkpt>
      <trkpt lat="47.10602" lon="-1.29836">
        <ele>16.442</ele>
        <time>2015-09-11T14:30:51.522Z</time>
      </trkpt>
      <trkpt lat="47.10606" lon="-1.29841">
        <ele>16.45</ele>
        <time>2015-09-11T14:30:52.557Z</time>
      </trkpt>
      <trkpt lat="47.10609" lon="-1.29845">
        <ele>16.4</ele>
        <time>2015-09-11T14:30:53.522Z</time>
      </trkpt>
      <trkpt lat="47.10614" lon="-1.29855">
        <ele>16.054</ele>
        <time>2015-09-11T14:30:55.73Z</time>
      </trkpt>
      <trkpt lat="47.10615" lon="-1.29861">
        <ele>15.594</ele>
        <time>2015-09-11T14:30:56.522Z</time>
      </trkpt>
      <trkpt lat="47.10616" lon="-1.29867">
        <ele>15.302</ele>
        <time>2015-09-11T14:30:57.554Z</time>
      </trkpt>
      <trkpt lat="47.10618" lon="-1.29873">
        <ele>15.136</ele>
        <time>2015-09-11T14:30:58.517Z</time>
      </trkpt>
      <trkpt lat="47.1062" lon="-1.2988">
        <ele>14.97</ele>
        <time>2015-09-11T14:30:59.565Z</time>
      </trkpt>
      <trkpt lat="47.10622" lon="-1.29887">
        <ele>14.704</ele>
        <time>2015-09-11T14:31:00.555Z</time>
      </trkpt>
      <trkpt lat="47.10624" lon="-1.29894">
        <ele>14.568</ele>
        <time>2015-09-11T14:31:01.559Z</time>
      </trkpt>
      <trkpt lat="47.10626" lon="-1.299">
        <ele>14.552</ele>
        <time>2015-09-11T14:31:02.522Z</time>
      </trkpt>
      <trkpt lat="47.10629" lon="-1.29907">
        <ele>14.474</ele>
        <time>2015-09-11T14:31:03.665Z</time>
      </trkpt>
      <trkpt lat="47.10631" lon="-1.29913">
        <ele>14.411</ele>
        <time>2015-09-11T14:31:04.55Z</time>
      </trkpt>
      <trkpt lat="47.10637" lon="-1.29923">
        <ele>14.537</ele>
        <time>2015-09-11T14:31:06.558Z</time>
      </trkpt>
      <trkpt lat="47.10639" lon="-1.29929">
        <ele>14.551</ele>
        <time>2015-09-11T14:31:07.587Z</time>
      </trkpt>
      <trkpt lat="47.10641" lon="-1.29936">
        <ele>14.756</ele>
        <time>2015-09-11T14:31:08.693Z</time>
      </trkpt>
      <trkpt lat="47.10643" lon="-1.29941">
        <ele>14.925</ele>
        <time>2015-09-11T14:31:09.554Z</time>
      </trkpt>
      <trkpt lat="47.10646" lon="-1.29953">
        <ele>15.27</ele>
        <time>2015-09-11T14:31:11.556Z</time>
      </trkpt>
      <trkpt lat="47.10648" lon="-1.29959">
        <ele>15.441</ele>
        <time>2015-09-11T14:31:12.533Z</time>
      </trkpt>
      <trkpt lat="47.1065" lon="-1.29965">
        <ele>15.641</ele>
        <time>2015-09-11T14:31:13.555Z</time>
      </trkpt>
      <trkpt lat="47.1065" lon="-1.29973">
        <ele>15.678</ele>
        <time>2015-09-11T14:31:14.521Z</time>
      </trkpt>
      <trkpt lat="47.10653" lon="-1.29985">
        <ele>16.506</ele>
        <time>2015-09-11T14:31:16.56Z</time>
      </trkpt>
      <trkpt lat="47.10654" lon="-1.29991">
        <ele>16.877</ele>
        <time>2015-09-11T14:31:17.521Z</time>
      </trkpt>
      <trkpt lat="47.10657" lon="-1.30001">
        <ele>17.642</ele>
        <time>2015-09-11T14:31:19.556Z</time>
      </trkpt>
      <trkpt lat="47.10659" lon="-1.30006">
        <ele>17.77</ele>
        <time>2015-09-11T14:31:20.522Z</time>
      </trkpt>
      <trkpt lat="47.10661" lon="-1.30012">
        <ele>17.79</ele>
        <time>2015-09-11T14:31:21.556Z</time>
      </trkpt>
      <trkpt lat="47.1066" lon="-1.3002">
        <ele>17.534</ele>
        <time>2015-09-11T14:31:22.522Z</time>
      </trkpt>
      <trkpt lat="47.10661" lon="-1.30033">
        <ele>17.073</ele>
        <time>2015-09-11T14:31:24.675Z</time>
      </trkpt>
      <trkpt lat="47.10663" lon="-1.30039">
        <ele>16.774</ele>
        <time>2015-09-11T14:31:25.553Z</time>
      </trkpt>
      <trkpt lat="47.10665" lon="-1.3005">
        <ele>16.256</ele>
        <time>2015-09-11T14:31:27.555Z</time>
      </trkpt>
      <trkpt lat="47.10666" lon="-1.30056">
        <ele>15.914</ele>
        <time>2015-09-11T14:31:28.522Z</time>
      </trkpt>
      <trkpt lat="47.10668" lon="-1.30066">
        <ele>15.534</ele>
        <time>2015-09-11T14:31:30.695Z</time>
      </trkpt>
      <trkpt lat="47.1067" lon="-1.30072">
        <ele>15.238</ele>
        <time>2015-09-11T14:31:31.559Z</time>
      </trkpt>
      <trkpt lat="47.10672" lon="-1.30084">
        <ele>14.669</ele>
        <time>2015-09-11T14:31:33.675Z</time>
      </trkpt>
      <trkpt lat="47.10672" lon="-1.30089">
        <ele>14.553</ele>
        <time>2015-09-11T14:31:34.552Z</time>
      </trkpt>
      <trkpt lat="47.10674" lon="-1.301">
        <ele>14.347</ele>
        <time>2015-09-11T14:31:36.689Z</time>
      </trkpt>
      <trkpt lat="47.10675" lon="-1.30107">
        <ele>14.134</ele>
        <time>2015-09-11T14:31:37.559Z</time>
      </trkpt>
      <trkpt lat="47.10674" lon="-1.30117">
        <ele>13.835</ele>
        <time>2015-09-11T14:31:38.698Z</time>
      </trkpt>
      <trkpt lat="47.10675" lon="-1.30124">
        <ele>13.922</ele>
        <time>2015-09-11T14:31:39.522Z</time>
      </trkpt>
      <trkpt lat="47.10677" lon="-1.30136">
        <ele>14.094</ele>
        <time>2015-09-11T14:31:41.788Z</time>
      </trkpt>
      <trkpt lat="47.10678" lon="-1.30143">
        <ele>14.376</ele>
        <time>2015-09-11T14:31:42.553Z</time>
      </trkpt>
      <trkpt lat="47.1068" lon="-1.30151">
        <ele>14.926</ele>
        <time>2015-09-11T14:31:43.681Z</time>
      </trkpt>
      <trkpt lat="47.10682" lon="-1.30157">
        <ele>15.276</ele>
        <time>2015-09-11T14:31:44.55Z</time>
      </trkpt>
      <trkpt lat="47.10684" lon="-1.30163">
        <ele>15.715</ele>
        <time>2015-09-11T14:31:45.756Z</time>
      </trkpt>
      <trkpt lat="47.10687" lon="-1.30168">
        <ele>16.201</ele>
        <time>2015-09-11T14:31:46.556Z</time>
      </trkpt>
      <trkpt lat="47.10686" lon="-1.30179">
        <ele>16.543</ele>
        <time>2015-09-11T14:31:48.679Z</time>
      </trkpt>
      <trkpt lat="47.10688" lon="-1.30186">
        <ele>16.993</ele>
        <time>2015-09-11T14:31:49.55Z</time>
      </trkpt>
      <trkpt lat="47.10689" lon="-1.30196">
        <ele>17.334</ele>
        <time>2015-09-11T14:31:51.692Z</time>
      </trkpt>
      <trkpt lat="47.1069" lon="-1.30201">
        <ele>17.266</ele>
        <time>2015-09-11T14:31:52.515Z</time>
      </trkpt>
      <trkpt lat="47.10695" lon="-1.30211">
        <ele>17.496</ele>
        <time>2015-09-11T14:31:53.556Z</time>
      </trkpt>
      <trkpt lat="47.10698" lon="-1.30218">
        <ele>17.725</ele>
        <time>2015-09-11T14:31:54.518Z</time>
      </trkpt>
      <trkpt lat="47.10699" lon="-1.30225">
        <ele>17.664</ele>
        <time>2015-09-11T14:31:56.258Z</time>
      </trkpt>
      <trkpt lat="47.10702" lon="-1.30233">
        <ele>17.495</ele>
        <time>2015-09-11T14:31:56.516Z</time>
      </trkpt>
      <trkpt lat="47.10704" lon="-1.30239">
        <ele>17.334</ele>
        <time>2015-09-11T14:31:57.579Z</time>
      </trkpt>
      <trkpt lat="47.10708" lon="-1.30247">
        <ele>17.28</ele>
        <time>2015-09-11T14:31:58.525Z</time>
      </trkpt>
      <trkpt lat="47.10711" lon="-1.30255">
        <ele>17.082</ele>
        <time>2015-09-11T14:31:59.557Z</time>
      </trkpt>
      <trkpt lat="47.10714" lon="-1.30262">
        <ele>16.909</ele>
        <time>2015-09-11T14:32:00.518Z</time>
      </trkpt>
      <trkpt lat="47.10716" lon="-1.30269">
        <ele>16.758</ele>
        <time>2015-09-11T14:32:01.556Z</time>
      </trkpt>
      <trkpt lat="47.10719" lon="-1.30275">
        <ele>16.786</ele>
        <time>2015-09-11T14:32:02.528Z</time>
      </trkpt>
      <trkpt lat="47.10722" lon="-1.30282">
        <ele>16.616</ele>
        <time>2015-09-11T14:32:03.687Z</time>
      </trkpt>
      <trkpt lat="47.10725" lon="-1.30289">
        <ele>16.498</ele>
        <time>2015-09-11T14:32:04.522Z</time>
      </trkpt>
      <trkpt lat="47.10728" lon="-1.30295">
        <ele>16.572</ele>
        <time>2015-09-11T14:32:05.558Z</time>
      </trkpt>
      <trkpt lat="47.10731" lon="-1.30302">
        <ele>16.668</ele>
        <time>2015-09-11T14:32:06.582Z</time>
      </trkpt>
      <trkpt lat="47.10734" lon="-1.30308">
        <ele>16.705</ele>
        <time>2015-09-11T14:32:07.572Z</time>
      </trkpt>
      <trkpt lat="47.10736" lon="-1.30315">
        <ele>16.689</ele>
        <time>2015-09-11T14:32:08.522Z</time>
      </trkpt>
      <trkpt lat="47.10739" lon="-1.30322">
        <ele>16.576</ele>
        <time>2015-09-11T14:32:09.694Z</time>
      </trkpt>
      <trkpt lat="47.10742" lon="-1.30328">
        <ele>16.687</ele>
        <time>2015-09-11T14:32:10.551Z</time>
      </trkpt>
      <trkpt lat="47.10744" lon="-1.30335">
        <ele>16.597</ele>
        <time>2015-09-11T14:32:11.831Z</time>
      </trkpt>
      <trkpt lat="47.10747" lon="-1.30342">
        <ele>16.7</ele>
        <time>2015-09-11T14:32:12.553Z</time>
      </trkpt>
      <trkpt lat="47.1075" lon="-1.30348">
        <ele>16.897</ele>
        <time>2015-09-11T14:32:13.556Z</time>
      </trkpt>
      <trkpt lat="47.10753" lon="-1.30354">
        <ele>16.883</ele>
        <time>2015-09-11T14:32:14.521Z</time>
      </trkpt>
      <trkpt lat="47.10755" lon="-1.3036">
        <ele>16.871</ele>
        <time>2015-09-11T14:32:15.649Z</time>
      </trkpt>
      <trkpt lat="47.10758" lon="-1.30365">
        <ele>16.967</ele>
        <time>2015-09-11T14:32:17.011Z</time>
      </trkpt>
      <trkpt lat="47.10762" lon="-1.30374">
        <ele>17.035</ele>
        <time>2015-09-11T14:32:18.559Z</time>
      </trkpt>
      <trkpt lat="47.10764" lon="-1.30378">
        <ele>17.037</ele>
        <time>2015-09-11T14:32:19.568Z</time>
      </trkpt>
      <trkpt lat="47.10768" lon="-1.3039">
        <ele>16.944</ele>
        <time>2015-09-11T14:32:23.691Z</time>
      </trkpt>
      <trkpt lat="47.10769" lon="-1.30391">
        <ele>16.972</ele>
        <time>2015-09-11T14:32:24.554Z</time>
      </trkpt>
      <trkpt lat="47.10768" lon="-1.30403">
        <ele>16.425</ele>
        <time>2015-09-11T14:32:29.693Z</time>
      </trkpt>
      <trkpt lat="47.10766" lon="-1.30409">
        <ele>15.968</ele>
        <time>2015-09-11T14:32:30.551Z</time>
      </trkpt>
      <trkpt lat="47.10762" lon="-1.30413">
        <ele>15.428</ele>
        <time>2015-09-11T14:32:31.853Z</time>
      </trkpt>
      <trkpt lat="47.10757" lon="-1.30416">
        <ele>14.838</ele>
        <time>2015-09-11T14:32:32.582Z</time>
      </trkpt>
      <trkpt lat="47.10749" lon="-1.30417">
        <ele>13.89</ele>
        <time>2015-09-11T14:32:33.583Z</time>
      </trkpt>
      <trkpt lat="47.10743" lon="-1.30419">
        <ele>13.149</ele>
        <time>2015-09-11T14:32:34.516Z</time>
      </trkpt>
      <trkpt lat="47.10738" lon="-1.30421">
        <ele>12.488</ele>
        <time>2015-09-11T14:32:35.555Z</time>
      </trkpt>
      <trkpt lat="47.10731" lon="-1.30423">
        <ele>11.836</ele>
        <time>2015-09-11T14:32:36.518Z</time>
      </trkpt>
      <trkpt lat="47.10725" lon="-1.30425">
        <ele>11.239</ele>
        <time>2015-09-11T14:32:37.557Z</time>
      </trkpt>
      <trkpt lat="47.10719" lon="-1.30427">
        <ele>10.873</ele>
        <time>2015-09-11T14:32:38.517Z</time>
      </trkpt>
      <trkpt lat="47.10714" lon="-1.3043">
        <ele>10.697</ele>
        <time>2015-09-11T14:32:39.554Z</time>
      </trkpt>
      <trkpt lat="47.10707" lon="-1.30432">
        <ele>10.434</ele>
        <time>2015-09-11T14:32:40.516Z</time>
      </trkpt>
      <trkpt lat="47.10701" lon="-1.30435">
        <ele>10.222</ele>
        <time>2015-09-11T14:32:41.556Z</time>
      </trkpt>
      <trkpt lat="47.10695" lon="-1.30437">
        <ele>10.013</ele>
        <time>2015-09-11T14:32:42.521Z</time>
      </trkpt>
      <trkpt lat="47.10689" lon="-1.30439">
        <ele>9.808</ele>
        <time>2015-09-11T14:32:43.798Z</time>
      </trkpt>
      <trkpt lat="47.10682" lon="-1.30442">
        <ele>9.566</ele>
        <time>2015-09-11T14:32:44.669Z</time>
      </trkpt>
      <trkpt lat="47.10677" lon="-1.30444">
        <ele>9.368</ele>
        <time>2015-09-11T14:32:45.559Z</time>
      </trkpt>
      <trkpt lat="47.10671" lon="-1.30446">
        <ele>9.167</ele>
        <time>2015-09-11T14:32:46.516Z</time>
      </trkpt>
      <trkpt lat="47.10664" lon="-1.30448">
        <ele>9</ele>
        <time>2015-09-11T14:32:47.551Z</time>
      </trkpt>
      <trkpt lat="47.10659" lon="-1.30451">
        <ele>9</ele>
        <time>2015-09-11T14:32:48.519Z</time>
      </trkpt>
      <trkpt lat="47.10653" lon="-1.30453">
        <ele>9</ele>
        <time>2015-09-11T14:32:49.577Z</time>
      </trkpt>
      <trkpt lat="47.10648" lon="-1.30456">
        <ele>9</ele>
        <time>2015-09-11T14:32:50.574Z</time>
      </trkpt>
      <trkpt lat="47.10642" lon="-1.30459">
        <ele>9</ele>
        <time>2015-09-11T14:32:51.73Z</time>
      </trkpt>
      <trkpt lat="47.10636" lon="-1.30461">
        <ele>9.23</ele>
        <time>2015-09-11T14:32:52.52Z</time>
      </trkpt>
      <trkpt lat="47.1063" lon="-1.30464">
        <ele>9.633</ele>
        <time>2015-09-11T14:32:53.569Z</time>
      </trkpt>
      <trkpt lat="47.10624" lon="-1.30467">
        <ele>10.086</ele>
        <time>2015-09-11T14:32:54.557Z</time>
      </trkpt>
      <trkpt lat="47.10618" lon="-1.30468">
        <ele>10.533</ele>
        <time>2015-09-11T14:32:55.555Z</time>
      </trkpt>
      <trkpt lat="47.10612" lon="-1.30471">
        <ele>10.914</ele>
        <time>2015-09-11T14:32:56.517Z</time>
      </trkpt>
      <trkpt lat="47.10605" lon="-1.30473">
        <ele>11.411</ele>
        <time>2015-09-11T14:32:57.789Z</time>
      </trkpt>
      <trkpt lat="47.10599" lon="-1.30475">
        <ele>11.807</ele>
        <time>2015-09-11T14:32:58.547Z</time>
      </trkpt>
      <trkpt lat="47.10594" lon="-1.30476">
        <ele>12.135</ele>
        <time>2015-09-11T14:32:59.572Z</time>
      </trkpt>
      <trkpt lat="47.10588" lon="-1.30478">
        <ele>12.491</ele>
        <time>2015-09-11T14:33:00.517Z</time>
      </trkpt>
      <trkpt lat="47.10582" lon="-1.3048">
        <ele>12.83</ele>
        <time>2015-09-11T14:33:02.146Z</time>
      </trkpt>
      <trkpt lat="47.10576" lon="-1.30482">
        <ele>13.187</ele>
        <time>2015-09-11T14:33:02.516Z</time>
      </trkpt>
      <trkpt lat="47.10571" lon="-1.30483">
        <ele>13.532</ele>
        <time>2015-09-11T14:33:03.554Z</time>
      </trkpt>
      <trkpt lat="47.10567" lon="-1.30486">
        <ele>13.727</ele>
        <time>2015-09-11T14:33:04.517Z</time>
      </trkpt>
      <trkpt lat="47.10563" lon="-1.30492">
        <ele>13.741</ele>
        <time>2015-09-11T14:33:05.566Z</time>
      </trkpt>
      <trkpt lat="47.10562" lon="-1.305">
        <ele>13.511</ele>
        <time>2015-09-11T14:33:06.533Z</time>
      </trkpt>
      <trkpt lat="47.10564" lon="-1.30507">
        <ele>13.154</ele>
        <time>2015-09-11T14:33:07.56Z</time>
      </trkpt>
      <trkpt lat="47.10565" lon="-1.30515">
        <ele>12.784</ele>
        <time>2015-09-11T14:33:08.522Z</time>
      </trkpt>
      <trkpt lat="47.10567" lon="-1.30523">
        <ele>12.359</ele>
        <time>2015-09-11T14:33:09.71Z</time>
      </trkpt>
      <trkpt lat="47.10568" lon="-1.3053">
        <ele>11.995</ele>
        <time>2015-09-11T14:33:10.558Z</time>
      </trkpt>
      <trkpt lat="47.1057" lon="-1.30537">
        <ele>11.621</ele>
        <time>2015-09-11T14:33:11.555Z</time>
      </trkpt>
      <trkpt lat="47.10573" lon="-1.30543">
        <ele>11.21</ele>
        <time>2015-09-11T14:33:12.524Z</time>
      </trkpt>
      <trkpt lat="47.10575" lon="-1.30551">
        <ele>10.786</ele>
        <time>2015-09-11T14:33:13.695Z</time>
      </trkpt>
      <trkpt lat="47.10577" lon="-1.30558">
        <ele>10.415</ele>
        <time>2015-09-11T14:33:14.551Z</time>
      </trkpt>
      <trkpt lat="47.10578" lon="-1.30565">
        <ele>10.146</ele>
        <time>2015-09-11T14:33:15.561Z</time>
      </trkpt>
      <trkpt lat="47.10579" lon="-1.30573">
        <ele>9.829</ele>
        <time>2015-09-11T14:33:16.522Z</time>
      </trkpt>
      <trkpt lat="47.1058" lon="-1.3058">
        <ele>9.527</ele>
        <time>2015-09-11T14:33:17.723Z</time>
      </trkpt>
      <trkpt lat="47.10581" lon="-1.30586">
        <ele>9.416</ele>
        <time>2015-09-11T14:33:18.55Z</time>
      </trkpt>
      <trkpt lat="47.10581" lon="-1.30593">
        <ele>9.64</ele>
        <time>2015-09-11T14:33:19.706Z</time>
      </trkpt>
      <trkpt lat="47.10579" lon="-1.306">
        <ele>10.018</ele>
        <time>2015-09-11T14:33:20.541Z</time>
      </trkpt>
      <trkpt lat="47.10576" lon="-1.30611">
        <ele>10.784</ele>
        <time>2015-09-11T14:33:22.873Z</time>
      </trkpt>
      <trkpt lat="47.10575" lon="-1.30616">
        <ele>11.212</ele>
        <time>2015-09-11T14:33:23.547Z</time>
      </trkpt>
      <trkpt lat="47.10573" lon="-1.30625">
        <ele>12.13</ele>
        <time>2015-09-11T14:33:26.552Z</time>
      </trkpt>
      <trkpt lat="47.10571" lon="-1.30628">
        <ele>12.501</ele>
        <time>2015-09-11T14:33:27.52Z</time>
      </trkpt>
      <trkpt lat="47.10567" lon="-1.30636">
        <ele>13.491</ele>
        <time>2015-09-11T14:33:29.715Z</time>
      </trkpt>
      <trkpt lat="47.10566" lon="-1.30638">
        <ele>13.837</ele>
        <time>2015-09-11T14:33:30.585Z</time>
      </trkpt>
      <trkpt lat="47.10561" lon="-1.30647">
        <ele>15.007</ele>
        <time>2015-09-11T14:33:33.68Z</time>
      </trkpt>
      <trkpt lat="47.10559" lon="-1.30649">
        <ele>15.385</ele>
        <time>2015-09-11T14:33:34.548Z</time>
      </trkpt>
      <trkpt lat="47.10553" lon="-1.30657">
        <ele>16.425</ele>
        <time>2015-09-11T14:33:37.557Z</time>
      </trkpt>
      <trkpt lat="47.10551" lon="-1.30661">
        <ele>16.709</ele>
        <time>2015-09-11T14:33:38.548Z</time>
      </trkpt>
      <trkpt lat="47.10546" lon="-1.30669">
        <ele>17.508</ele>
        <time>2015-09-11T14:33:41.697Z</time>
      </trkpt>
      <trkpt lat="47.10544" lon="-1.30672">
        <ele>17.764</ele>
        <time>2015-09-11T14:33:42.548Z</time>
      </trkpt>
      <trkpt lat="47.10539" lon="-1.30679">
        <ele>18.48</ele>
        <time>2015-09-11T14:33:45.677Z</time>
      </trkpt>
      <trkpt lat="47.10538" lon="-1.30682">
        <ele>18.718</ele>
        <time>2015-09-11T14:33:46.543Z</time>
      </trkpt>
      <trkpt lat="47.10532" lon="-1.3069">
        <ele>19.56</ele>
        <time>2015-09-11T14:33:50.677Z</time>
      </trkpt>
      <trkpt lat="47.10531" lon="-1.30692">
        <ele>19.755</ele>
        <time>2015-09-11T14:33:51.636Z</time>
      </trkpt>
      <trkpt lat="47.10525" lon="-1.307">
        <ele>20.678</ele>
        <time>2015-09-11T14:33:55.767Z</time>
      </trkpt>
      <trkpt lat="47.10523" lon="-1.30702">
        <ele>20.908</ele>
        <time>2015-09-11T14:33:56.527Z</time>
      </trkpt>
      <trkpt lat="47.10517" lon="-1.30711">
        <ele>21.909</ele>
        <time>2015-09-11T14:34:01.706Z</time>
      </trkpt>
      <trkpt lat="47.10516" lon="-1.30712">
        <ele>22.073</ele>
        <time>2015-09-11T14:34:02.55Z</time>
      </trkpt>
      <trkpt lat="47.10509" lon="-1.30719">
        <ele>22.721</ele>
        <time>2015-09-11T14:34:07.777Z</time>
      </trkpt>
      <trkpt lat="47.10508" lon="-1.30721">
        <ele>22.857</ele>
        <time>2015-09-11T14:34:08.526Z</time>
      </trkpt>
      <trkpt lat="47.10503" lon="-1.30731">
        <ele>23.603</ele>
        <time>2015-09-11T14:34:14.6Z</time>
      </trkpt>
      <trkpt lat="47.10504" lon="-1.30733">
        <ele>23.762</ele>
        <time>2015-09-11T14:34:15.556Z</time>
      </trkpt>
      <trkpt lat="47.1051" lon="-1.3074">
        <ele>24.287</ele>
        <time>2015-09-11T14:34:19.704Z</time>
      </trkpt>
      <trkpt lat="47.10512" lon="-1.30741">
        <ele>24.366</ele>
        <time>2015-09-11T14:34:20.549Z</time>
      </trkpt>
      <trkpt lat="47.10518" lon="-1.30745">
        <ele>24.669</ele>
        <time>2015-09-11T14:34:23.553Z</time>
      </trkpt>
      <trkpt lat="47.1052" lon="-1.30747">
        <ele>24.791</ele>
        <time>2015-09-11T14:34:24.521Z</time>
      </trkpt>
      <trkpt lat="47.10526" lon="-1.30753">
        <ele>25.224</ele>
        <time>2015-09-11T14:34:27.842Z</time>
      </trkpt>
      <trkpt lat="47.10528" lon="-1.30755">
        <ele>25.344</ele>
        <time>2015-09-11T14:34:28.535Z</time>
      </trkpt>
      <trkpt lat="47.10535" lon="-1.30763">
        <ele>25.445</ele>
        <time>2015-09-11T14:34:31.394Z</time>
      </trkpt>
      <trkpt lat="47.10537" lon="-1.30767">
        <ele>25.524</ele>
        <time>2015-09-11T14:34:32.344Z</time>
      </trkpt>
      <trkpt lat="47.10542" lon="-1.30775">
        <ele>25.747</ele>
        <time>2015-09-11T14:34:34.383Z</time>
      </trkpt>
      <trkpt lat="47.10545" lon="-1.30779">
        <ele>25.826</ele>
        <time>2015-09-11T14:34:35.338Z</time>
      </trkpt>
      <trkpt lat="47.1055" lon="-1.30786">
        <ele>25.7</ele>
        <time>2015-09-11T14:34:37.558Z</time>
      </trkpt>
      <trkpt lat="47.10552" lon="-1.30789">
        <ele>25.635</ele>
        <time>2015-09-11T14:34:38.362Z</time>
      </trkpt>
      <trkpt lat="47.10558" lon="-1.30796">
        <ele>25.39</ele>
        <time>2015-09-11T14:34:40.38Z</time>
      </trkpt>
      <trkpt lat="47.1056" lon="-1.30799">
        <ele>25.19</ele>
        <time>2015-09-11T14:34:41.382Z</time>
      </trkpt>
      <trkpt lat="47.10565" lon="-1.30807">
        <ele>25.017</ele>
        <time>2015-09-11T14:34:43.38Z</time>
      </trkpt>
      <trkpt lat="47.10568" lon="-1.3081">
        <ele>25.064</ele>
        <time>2015-09-11T14:34:44.368Z</time>
      </trkpt>
      <trkpt lat="47.10573" lon="-1.30818">
        <ele>25.266</ele>
        <time>2015-09-11T14:34:46.574Z</time>
      </trkpt>
      <trkpt lat="47.10576" lon="-1.30822">
        <ele>25.429</ele>
        <time>2015-09-11T14:34:47.373Z</time>
      </trkpt>
      <trkpt lat="47.10581" lon="-1.3083">
        <ele>25.787</ele>
        <time>2015-09-11T14:34:49.55Z</time>
      </trkpt>
      <trkpt lat="47.10584" lon="-1.30833">
        <ele>25.976</ele>
        <time>2015-09-11T14:34:50.39Z</time>
      </trkpt>
      <trkpt lat="47.10589" lon="-1.3084">
        <ele>26.296</ele>
        <time>2015-09-11T14:34:52.388Z</time>
      </trkpt>
      <trkpt lat="47.10592" lon="-1.30843">
        <ele>26.457</ele>
        <time>2015-09-11T14:34:53.345Z</time>
      </trkpt>
      <trkpt lat="47.10598" lon="-1.30849">
        <ele>26.849</ele>
        <time>2015-09-11T14:34:55.5Z</time>
      </trkpt>
      <trkpt lat="47.10601" lon="-1.30852">
        <ele>27.095</ele>
        <time>2015-09-11T14:34:56.372Z</time>
      </trkpt>
      <trkpt lat="47.10608" lon="-1.30858">
        <ele>27.678</ele>
        <time>2015-09-11T14:34:58.581Z</time>
      </trkpt>
      <trkpt lat="47.10611" lon="-1.30861">
        <ele>28.003</ele>
        <time>2015-09-11T14:34:59.366Z</time>
      </trkpt>
      <trkpt lat="47.10617" lon="-1.30868">
        <ele>27.802</ele>
        <time>2015-09-11T14:35:02.036Z</time>
      </trkpt>
      <trkpt lat="47.1062" lon="-1.30871">
        <ele>27.702</ele>
        <time>2015-09-11T14:35:02.35Z</time>
      </trkpt>
      <trkpt lat="47.10626" lon="-1.30877">
        <ele>27.504</ele>
        <time>2015-09-11T14:35:04.498Z</time>
      </trkpt>
      <trkpt lat="47.10629" lon="-1.3088">
        <ele>27.414</ele>
        <time>2015-09-11T14:35:05.367Z</time>
      </trkpt>
      <trkpt lat="47.10634" lon="-1.30888">
        <ele>27.28</ele>
        <time>2015-09-11T14:35:07.377Z</time>
      </trkpt>
      <trkpt lat="47.10637" lon="-1.30891">
        <ele>27.198</ele>
        <time>2015-09-11T14:35:08.403Z</time>
      </trkpt>
      <trkpt lat="47.10643" lon="-1.30899">
        <ele>27.127</ele>
        <time>2015-09-11T14:35:10.529Z</time>
      </trkpt>
      <trkpt lat="47.10645" lon="-1.30903">
        <ele>27.14</ele>
        <time>2015-09-11T14:35:11.35Z</time>
      </trkpt>
      <trkpt lat="47.10651" lon="-1.30911">
        <ele>27.264</ele>
        <time>2015-09-11T14:35:13.502Z</time>
      </trkpt>
      <trkpt lat="47.10653" lon="-1.30914">
        <ele>27.353</ele>
        <time>2015-09-11T14:35:14.369Z</time>
      </trkpt>
      <trkpt lat="47.10659" lon="-1.30922">
        <ele>27.28</ele>
        <time>2015-09-11T14:35:16.7Z</time>
      </trkpt>
      <trkpt lat="47.10661" lon="-1.30925">
        <ele>27.19</ele>
        <time>2015-09-11T14:35:17.347Z</time>
      </trkpt>
      <trkpt lat="47.10666" lon="-1.30933">
        <ele>27.024</ele>
        <time>2015-09-11T14:35:19.496Z</time>
      </trkpt>
      <trkpt lat="47.10668" lon="-1.30938">
        <ele>26.897</ele>
        <time>2015-09-11T14:35:20.378Z</time>
      </trkpt>
      <trkpt lat="47.10672" lon="-1.30947">
        <ele>26.602</ele>
        <time>2015-09-11T14:35:22.383Z</time>
      </trkpt>
      <trkpt lat="47.10674" lon="-1.30951">
        <ele>26.458</ele>
        <time>2015-09-11T14:35:23.371Z</time>
      </trkpt>
      <trkpt lat="47.10678" lon="-1.30961">
        <ele>26.198</ele>
        <time>2015-09-11T14:35:25.383Z</time>
      </trkpt>
      <trkpt lat="47.1068" lon="-1.30965">
        <ele>26.069</ele>
        <time>2015-09-11T14:35:26.37Z</time>
      </trkpt>
      <trkpt lat="47.10683" lon="-1.30975">
        <ele>25.81</ele>
        <time>2015-09-11T14:35:28.489Z</time>
      </trkpt>
      <trkpt lat="47.10685" lon="-1.3098">
        <ele>25.687</ele>
        <time>2015-09-11T14:35:29.377Z</time>
      </trkpt>
      <trkpt lat="47.10688" lon="-1.3099">
        <ele>25.478</ele>
        <time>2015-09-11T14:35:31.411Z</time>
      </trkpt>
      <trkpt lat="47.1069" lon="-1.30995">
        <ele>25.356</ele>
        <time>2015-09-11T14:35:32.371Z</time>
      </trkpt>
      <trkpt lat="47.10693" lon="-1.31006">
        <ele>25.53</ele>
        <time>2015-09-11T14:35:34.503Z</time>
      </trkpt>
      <trkpt lat="47.10694" lon="-1.31011">
        <ele>25.812</ele>
        <time>2015-09-11T14:35:35.374Z</time>
      </trkpt>
      <trkpt lat="47.10697" lon="-1.31022">
        <ele>26.583</ele>
        <time>2015-09-11T14:35:37.506Z</time>
      </trkpt>
      <trkpt lat="47.10699" lon="-1.31027">
        <ele>26.962</ele>
        <time>2015-09-11T14:35:38.376Z</time>
      </trkpt>
      <trkpt lat="47.10701" lon="-1.31033">
        <ele>27.208</ele>
        <time>2015-09-11T14:35:39.947Z</time>
      </trkpt>
      <trkpt lat="47.10705" lon="-1.31039">
        <ele>27.555</ele>
        <time>2015-09-11T14:35:40.38Z</time>
      </trkpt>
      <trkpt lat="47.10709" lon="-1.31049">
        <ele>28.175</ele>
        <time>2015-09-11T14:35:42.547Z</time>
      </trkpt>
      <trkpt lat="47.1071" lon="-1.31056">
        <ele>28.594</ele>
        <time>2015-09-11T14:35:43.392Z</time>
      </trkpt>
      <trkpt lat="47.10713" lon="-1.31067">
        <ele>29.084</ele>
        <time>2015-09-11T14:35:45.508Z</time>
      </trkpt>
      <trkpt lat="47.10715" lon="-1.31073">
        <ele>29.354</ele>
        <time>2015-09-11T14:35:46.419Z</time>
      </trkpt>
      <trkpt lat="47.10717" lon="-1.31079">
        <ele>29.652</ele>
        <time>2015-09-11T14:35:47.381Z</time>
      </trkpt>
      <trkpt lat="47.10719" lon="-1.31085">
        <ele>29.88</ele>
        <time>2015-09-11T14:35:48.346Z</time>
      </trkpt>
      <trkpt lat="47.10721" lon="-1.31096">
        <ele>29.97</ele>
        <time>2015-09-11T14:35:50.387Z</time>
      </trkpt>
      <trkpt lat="47.10723" lon="-1.31102">
        <ele>30.007</ele>
        <time>2015-09-11T14:35:51.344Z</time>
      </trkpt>
      <trkpt lat="47.10726" lon="-1.31107">
        <ele>30.017</ele>
        <time>2015-09-11T14:35:52.548Z</time>
      </trkpt>
      <trkpt lat="47.10728" lon="-1.31113">
        <ele>29.95</ele>
        <time>2015-09-11T14:35:53.379Z</time>
      </trkpt>
      <trkpt lat="47.10731" lon="-1.31118">
        <ele>29.756</ele>
        <time>2015-09-11T14:35:54.521Z</time>
      </trkpt>
      <trkpt lat="47.10733" lon="-1.31124">
        <ele>29.525</ele>
        <time>2015-09-11T14:35:55.358Z</time>
      </trkpt>
      <trkpt lat="47.10738" lon="-1.31135">
        <ele>29.147</ele>
        <time>2015-09-11T14:35:57.571Z</time>
      </trkpt>
      <trkpt lat="47.1074" lon="-1.31139">
        <ele>29</ele>
        <time>2015-09-11T14:35:58.371Z</time>
      </trkpt>
      <trkpt lat="47.10742" lon="-1.31145">
        <ele>29</ele>
        <time>2015-09-11T14:35:59.379Z</time>
      </trkpt>
      <trkpt lat="47.10745" lon="-1.31151">
        <ele>29</ele>
        <time>2015-09-11T14:36:00.343Z</time>
      </trkpt>
      <trkpt lat="47.10749" lon="-1.31162">
        <ele>29</ele>
        <time>2015-09-11T14:36:02.386Z</time>
      </trkpt>
      <trkpt lat="47.10751" lon="-1.31166">
        <ele>28.969</ele>
        <time>2015-09-11T14:36:03.344Z</time>
      </trkpt>
      <trkpt lat="47.10754" lon="-1.31177">
        <ele>28.911</ele>
        <time>2015-09-11T14:36:05.379Z</time>
      </trkpt>
      <trkpt lat="47.10755" lon="-1.31183">
        <ele>28.921</ele>
        <time>2015-09-11T14:36:06.339Z</time>
      </trkpt>
      <trkpt lat="47.10758" lon="-1.31194">
        <ele>28.993</ele>
        <time>2015-09-11T14:36:08.397Z</time>
      </trkpt>
      <trkpt lat="47.1076" lon="-1.31199">
        <ele>29</ele>
        <time>2015-09-11T14:36:09.368Z</time>
      </trkpt>
      <trkpt lat="47.10763" lon="-1.31209">
        <ele>29</ele>
        <time>2015-09-11T14:36:11.378Z</time>
      </trkpt>
      <trkpt lat="47.10766" lon="-1.31214">
        <ele>29</ele>
        <time>2015-09-11T14:36:12.374Z</time>
      </trkpt>
      <trkpt lat="47.1077" lon="-1.31224">
        <ele>29.057</ele>
        <time>2015-09-11T14:36:14.496Z</time>
      </trkpt>
      <trkpt lat="47.10772" lon="-1.31229">
        <ele>29.24</ele>
        <time>2015-09-11T14:36:15.369Z</time>
      </trkpt>
      <trkpt lat="47.10775" lon="-1.3124">
        <ele>29.629</ele>
        <time>2015-09-11T14:36:17.511Z</time>
      </trkpt>
      <trkpt lat="47.10777" lon="-1.31245">
        <ele>29.827</ele>
        <time>2015-09-11T14:36:18.373Z</time>
      </trkpt>
      <trkpt lat="47.10779" lon="-1.31256">
        <ele>30.49</ele>
        <time>2015-09-11T14:36:20.515Z</time>
      </trkpt>
      <trkpt lat="47.10781" lon="-1.31261">
        <ele>30.865</ele>
        <time>2015-09-11T14:36:21.374Z</time>
      </trkpt>
      <trkpt lat="47.10785" lon="-1.3127">
        <ele>31.481</ele>
        <time>2015-09-11T14:36:23.566Z</time>
      </trkpt>
      <trkpt lat="47.10788" lon="-1.31273">
        <ele>31.741</ele>
        <time>2015-09-11T14:36:24.37Z</time>
      </trkpt>
      <trkpt lat="47.10793" lon="-1.31282">
        <ele>32</ele>
        <time>2015-09-11T14:36:26.384Z</time>
      </trkpt>
      <trkpt lat="47.10795" lon="-1.31287">
        <ele>32</ele>
        <time>2015-09-11T14:36:27.382Z</time>
      </trkpt>
      <trkpt lat="47.10799" lon="-1.31297">
        <ele>32</ele>
        <time>2015-09-11T14:36:29.376Z</time>
      </trkpt>
      <trkpt lat="47.108" lon="-1.31302">
        <ele>32</ele>
        <time>2015-09-11T14:36:30.378Z</time>
      </trkpt>
      <trkpt lat="47.10803" lon="-1.31313">
        <ele>32.027</ele>
        <time>2015-09-11T14:36:32.504Z</time>
      </trkpt>
      <trkpt lat="47.10804" lon="-1.31318">
        <ele>32.021</ele>
        <time>2015-09-11T14:36:33.365Z</time>
      </trkpt>
      <trkpt lat="47.10808" lon="-1.31328">
        <ele>32</ele>
        <time>2015-09-11T14:36:35.377Z</time>
      </trkpt>
      <trkpt lat="47.10811" lon="-1.31333">
        <ele>32</ele>
        <time>2015-09-11T14:36:36.371Z</time>
      </trkpt>
      <trkpt lat="47.10814" lon="-1.31343">
        <ele>32</ele>
        <time>2015-09-11T14:36:38.485Z</time>
      </trkpt>
      <trkpt lat="47.10816" lon="-1.31347">
        <ele>32</ele>
        <time>2015-09-11T14:36:39.35Z</time>
      </trkpt>
      <trkpt lat="47.10819" lon="-1.31356">
        <ele>32</ele>
        <time>2015-09-11T14:36:41.548Z</time>
      </trkpt>
      <trkpt lat="47.10821" lon="-1.3136">
        <ele>32</ele>
        <time>2015-09-11T14:36:42.388Z</time>
      </trkpt>
      <trkpt lat="47.10823" lon="-1.3137">
        <ele>32</ele>
        <time>2015-09-11T14:36:44.38Z</time>
      </trkpt>
      <trkpt lat="47.1082" lon="-1.31374">
        <ele>32</ele>
        <time>2015-09-11T14:36:45.375Z</time>
      </trkpt>
      <trkpt lat="47.10816" lon="-1.31382">
        <ele>32</ele>
        <time>2015-09-11T14:36:47.588Z</time>
      </trkpt>
      <trkpt lat="47.10813" lon="-1.31386">
        <ele>32</ele>
        <time>2015-09-11T14:36:48.376Z</time>
      </trkpt>
      <trkpt lat="47.10807" lon="-1.31394">
        <ele>31.988</ele>
        <time>2015-09-11T14:36:50.501Z</time>
      </trkpt>
      <trkpt lat="47.10805" lon="-1.31398">
        <ele>32.012</ele>
        <time>2015-09-11T14:36:51.372Z</time>
      </trkpt>
      <trkpt lat="47.10798" lon="-1.31405">
        <ele>32.158</ele>
        <time>2015-09-11T14:36:53.376Z</time>
      </trkpt>
      <trkpt lat="47.10794" lon="-1.31405">
        <ele>32.246</ele>
        <time>2015-09-11T14:36:54.396Z</time>
      </trkpt>
      <trkpt lat="47.10787" lon="-1.31401">
        <ele>32.288</ele>
        <time>2015-09-11T14:36:56.379Z</time>
      </trkpt>
      <trkpt lat="47.10783" lon="-1.31396">
        <ele>32.21</ele>
        <time>2015-09-11T14:36:57.345Z</time>
      </trkpt>
      <trkpt lat="47.10778" lon="-1.31387">
        <ele>32.064</ele>
        <time>2015-09-11T14:36:59.482Z</time>
      </trkpt>
      <trkpt lat="47.10775" lon="-1.31382">
        <ele>32.39</ele>
        <time>2015-09-11T14:37:00.389Z</time>
      </trkpt>
      <trkpt lat="47.10769" lon="-1.31373">
        <ele>32.836</ele>
        <time>2015-09-11T14:37:02.378Z</time>
      </trkpt>
      <trkpt lat="47.10766" lon="-1.31369">
        <ele>32.952</ele>
        <time>2015-09-11T14:37:03.363Z</time>
      </trkpt>
      <trkpt lat="47.10761" lon="-1.3136">
        <ele>32.967</ele>
        <time>2015-09-11T14:37:05.591Z</time>
      </trkpt>
      <trkpt lat="47.10758" lon="-1.31355">
        <ele>32.839</ele>
        <time>2015-09-11T14:37:06.391Z</time>
      </trkpt>
      <trkpt lat="47.10753" lon="-1.31345">
        <ele>32.482</ele>
        <time>2015-09-11T14:37:08.377Z</time>
      </trkpt>
      <trkpt lat="47.1075" lon="-1.31341">
        <ele>32.265</ele>
        <time>2015-09-11T14:37:09.366Z</time>
      </trkpt>
      <trkpt lat="47.10747" lon="-1.31336">
        <ele>32.103</ele>
        <time>2015-09-11T14:37:10.372Z</time>
      </trkpt>
      <trkpt lat="47.10743" lon="-1.3133">
        <ele>31.971</ele>
        <time>2015-09-11T14:37:11.342Z</time>
      </trkpt>
      <trkpt lat="47.10737" lon="-1.31321">
        <ele>31.792</ele>
        <time>2015-09-11T14:37:13.543Z</time>
      </trkpt>
      <trkpt lat="47.10733" lon="-1.31317">
        <ele>31.649</ele>
        <time>2015-09-11T14:37:14.376Z</time>
      </trkpt>
      <trkpt lat="47.10725" lon="-1.31311">
        <ele>31.282</ele>
        <time>2015-09-11T14:37:16.377Z</time>
      </trkpt>
      <trkpt lat="47.10721" lon="-1.31311">
        <ele>31.207</ele>
        <time>2015-09-11T14:37:17.376Z</time>
      </trkpt>
      <trkpt lat="47.10716" lon="-1.3132">
        <ele>31.502</ele>
        <time>2015-09-11T14:37:19.38Z</time>
      </trkpt>
      <trkpt lat="47.10714" lon="-1.31325">
        <ele>31.689</ele>
        <time>2015-09-11T14:37:20.405Z</time>
      </trkpt>
      <trkpt lat="47.1071" lon="-1.31335">
        <ele>32.035</ele>
        <time>2015-09-11T14:37:22.374Z</time>
      </trkpt>
      <trkpt lat="47.10707" lon="-1.3134">
        <ele>32.105</ele>
        <time>2015-09-11T14:37:23.344Z</time>
      </trkpt>
      <trkpt lat="47.10703" lon="-1.31348">
        <ele>32.172</ele>
        <time>2015-09-11T14:37:25.498Z</time>
      </trkpt>
      <trkpt lat="47.10701" lon="-1.31352">
        <ele>32.162</ele>
        <time>2015-09-11T14:37:26.344Z</time>
      </trkpt>
      <trkpt lat="47.10698" lon="-1.3136">
        <ele>32.105</ele>
        <time>2015-09-11T14:37:28.515Z</time>
      </trkpt>
      <trkpt lat="47.10696" lon="-1.31364">
        <ele>32.154</ele>
        <time>2015-09-11T14:37:29.375Z</time>
      </trkpt>
      <trkpt lat="47.10692" lon="-1.31372">
        <ele>32.124</ele>
        <time>2015-09-11T14:37:31.52Z</time>
      </trkpt>
      <trkpt lat="47.1069" lon="-1.31376">
        <ele>32.11</ele>
        <time>2015-09-11T14:37:32.384Z</time>
      </trkpt>
      <trkpt lat="47.10687" lon="-1.31385">
        <ele>32.002</ele>
        <time>2015-09-11T14:37:34.376Z</time>
      </trkpt>
      <trkpt lat="47.10684" lon="-1.31389">
        <ele>31.905</ele>
        <time>2015-09-11T14:37:35.363Z</time>
      </trkpt>
      <trkpt lat="47.1068" lon="-1.31396">
        <ele>31.689</ele>
        <time>2015-09-11T14:37:37.38Z</time>
      </trkpt>
      <trkpt lat="47.10678" lon="-1.314">
        <ele>31.592</ele>
        <time>2015-09-11T14:37:38.415Z</time>
      </trkpt>
      <trkpt lat="47.10674" lon="-1.31409">
        <ele>31.466</ele>
        <time>2015-09-11T14:37:40.39Z</time>
      </trkpt>
      <trkpt lat="47.10672" lon="-1.31414">
        <ele>31.422</ele>
        <time>2015-09-11T14:37:41.385Z</time>
      </trkpt>
      <trkpt lat="47.10667" lon="-1.31422">
        <ele>31.226</ele>
        <time>2015-09-11T14:37:43.375Z</time>
      </trkpt>
      <trkpt lat="47.10665" lon="-1.31426">
        <ele>31.167</ele>
        <time>2015-09-11T14:37:44.346Z</time>
      </trkpt>
      <trkpt lat="47.1066" lon="-1.31435">
        <ele>31.239</ele>
        <time>2015-09-11T14:37:46.379Z</time>
      </trkpt>
      <trkpt lat="47.10657" lon="-1.31439">
        <ele>31.364</ele>
        <time>2015-09-11T14:37:47.338Z</time>
      </trkpt>
      <trkpt lat="47.10653" lon="-1.31449">
        <ele>31.732</ele>
        <time>2015-09-11T14:37:49.366Z</time>
      </trkpt>
      <trkpt lat="47.1065" lon="-1.31454">
        <ele>31.936</ele>
        <time>2015-09-11T14:37:50.357Z</time>
      </trkpt>
      <trkpt lat="47.10645" lon="-1.31463">
        <ele>32.405</ele>
        <time>2015-09-11T14:37:52.373Z</time>
      </trkpt>
      <trkpt lat="47.10643" lon="-1.31468">
        <ele>32.716</ele>
        <time>2015-09-11T14:37:53.338Z</time>
      </trkpt>
      <trkpt lat="47.10638" lon="-1.31478">
        <ele>33.117</ele>
        <time>2015-09-11T14:37:55.487Z</time>
      </trkpt>
      <trkpt lat="47.10635" lon="-1.31483">
        <ele>33.146</ele>
        <time>2015-09-11T14:37:56.339Z</time>
      </trkpt>
      <trkpt lat="47.1063" lon="-1.31492">
        <ele>33.29</ele>
        <time>2015-09-11T14:37:58.376Z</time>
      </trkpt>
      <trkpt lat="47.10628" lon="-1.31497">
        <ele>33.437</ele>
        <time>2015-09-11T14:37:59.346Z</time>
      </trkpt>
      <trkpt lat="47.10625" lon="-1.31502">
        <ele>33.651</ele>
        <time>2015-09-11T14:38:00.515Z</time>
      </trkpt>
      <trkpt lat="47.10621" lon="-1.31511">
        <ele>34.13</ele>
        <time>2015-09-11T14:38:01.369Z</time>
      </trkpt>
      <trkpt lat="47.10619" lon="-1.31516">
        <ele>34.458</ele>
        <time>2015-09-11T14:38:02.396Z</time>
      </trkpt>
      <trkpt lat="47.10616" lon="-1.31522">
        <ele>34.764</ele>
        <time>2015-09-11T14:38:03.343Z</time>
      </trkpt>
      <trkpt lat="47.10613" lon="-1.31527">
        <ele>35.03</ele>
        <time>2015-09-11T14:38:04.419Z</time>
      </trkpt>
      <trkpt lat="47.10611" lon="-1.31532">
        <ele>35.306</ele>
        <time>2015-09-11T14:38:05.372Z</time>
      </trkpt>
      <trkpt lat="47.10606" lon="-1.31541">
        <ele>35.624</ele>
        <time>2015-09-11T14:38:07.514Z</time>
      </trkpt>
      <trkpt lat="47.10602" lon="-1.31546">
        <ele>35.829</ele>
        <time>2015-09-11T14:38:08.371Z</time>
      </trkpt>
      <trkpt lat="47.10596" lon="-1.31555">
        <ele>36.445</ele>
        <time>2015-09-11T14:38:10.778Z</time>
      </trkpt>
      <trkpt lat="47.10593" lon="-1.31561">
        <ele>36.33</ele>
        <time>2015-09-11T14:38:11.755Z</time>
      </trkpt>
      <trkpt lat="47.10587" lon="-1.31571">
        <ele>36.139</ele>
        <time>2015-09-11T14:38:13.927Z</time>
      </trkpt>
      <trkpt lat="47.10585" lon="-1.31576">
        <ele>36.046</ele>
        <time>2015-09-11T14:38:14.774Z</time>
      </trkpt>
      <trkpt lat="47.10581" lon="-1.31584">
        <ele>35.7</ele>
        <time>2015-09-11T14:38:16.78Z</time>
      </trkpt>
      <trkpt lat="47.10577" lon="-1.3159">
        <ele>35.459</ele>
        <time>2015-09-11T14:38:17.781Z</time>
      </trkpt>
      <trkpt lat="47.10572" lon="-1.31599">
        <ele>35.236</ele>
        <time>2015-09-11T14:38:19.788Z</time>
      </trkpt>
      <trkpt lat="47.10569" lon="-1.31603">
        <ele>35.173</ele>
        <time>2015-09-11T14:38:20.777Z</time>
      </trkpt>
      <trkpt lat="47.1056" lon="-1.31606">
        <ele>34.877</ele>
        <time>2015-09-11T14:38:22.796Z</time>
      </trkpt>
      <trkpt lat="47.10556" lon="-1.31607">
        <ele>34.703</ele>
        <time>2015-09-11T14:38:23.774Z</time>
      </trkpt>
      <trkpt lat="47.10548" lon="-1.3161">
        <ele>33.728</ele>
        <time>2015-09-11T14:38:25.919Z</time>
      </trkpt>
      <trkpt lat="47.10544" lon="-1.31612">
        <ele>33.345</ele>
        <time>2015-09-11T14:38:26.776Z</time>
      </trkpt>
      <trkpt lat="47.1054" lon="-1.31617">
        <ele>33.246</ele>
        <time>2015-09-11T14:38:27.994Z</time>
      </trkpt>
      <trkpt lat="47.10536" lon="-1.31621">
        <ele>33.167</ele>
        <time>2015-09-11T14:38:28.781Z</time>
      </trkpt>
      <trkpt lat="47.10532" lon="-1.31625">
        <ele>33.24</ele>
        <time>2015-09-11T14:38:30.303Z</time>
      </trkpt>
      <trkpt lat="47.10528" lon="-1.31628">
        <ele>33.504</ele>
        <time>2015-09-11T14:38:30.745Z</time>
      </trkpt>
      <trkpt lat="47.1052" lon="-1.31633">
        <ele>33.848</ele>
        <time>2015-09-11T14:38:32.974Z</time>
      </trkpt>
      <trkpt lat="47.10516" lon="-1.31636">
        <ele>34.1</ele>
        <time>2015-09-11T14:38:33.776Z</time>
      </trkpt>
      <trkpt lat="47.10509" lon="-1.31641">
        <ele>34.488</ele>
        <time>2015-09-11T14:38:35.923Z</time>
      </trkpt>
      <trkpt lat="47.10504" lon="-1.31644">
        <ele>34.671</ele>
        <time>2015-09-11T14:38:36.779Z</time>
      </trkpt>
      <trkpt lat="47.10497" lon="-1.31651">
        <ele>35.254</ele>
        <time>2015-09-11T14:38:38.901Z</time>
      </trkpt>
      <trkpt lat="47.10493" lon="-1.31653">
        <ele>35.567</ele>
        <time>2015-09-11T14:38:39.775Z</time>
      </trkpt>
      <trkpt lat="47.10488" lon="-1.31657">
        <ele>35.924</ele>
        <time>2015-09-11T14:38:41.119Z</time>
      </trkpt>
      <trkpt lat="47.10484" lon="-1.3166">
        <ele>36.302</ele>
        <time>2015-09-11T14:38:41.775Z</time>
      </trkpt>
      <trkpt lat="47.1048" lon="-1.31663">
        <ele>36.55</ele>
        <time>2015-09-11T14:38:42.931Z</time>
      </trkpt>
      <trkpt lat="47.10474" lon="-1.31665">
        <ele>36.863</ele>
        <time>2015-09-11T14:38:43.898Z</time>
      </trkpt>
      <trkpt lat="47.10469" lon="-1.31668">
        <ele>37.052</ele>
        <time>2015-09-11T14:38:44.936Z</time>
      </trkpt>
      <trkpt lat="47.10464" lon="-1.31671">
        <ele>37.142</ele>
        <time>2015-09-11T14:38:45.772Z</time>
      </trkpt>
      <trkpt lat="47.10459" lon="-1.31673">
        <ele>37.224</ele>
        <time>2015-09-11T14:38:46.78Z</time>
      </trkpt>
      <trkpt lat="47.10455" lon="-1.31675">
        <ele>37.304</ele>
        <time>2015-09-11T14:38:47.745Z</time>
      </trkpt>
      <trkpt lat="47.10451" lon="-1.31677">
        <ele>37.376</ele>
        <time>2015-09-11T14:38:49.001Z</time>
      </trkpt>
      <trkpt lat="47.10447" lon="-1.3168">
        <ele>37.473</ele>
        <time>2015-09-11T14:38:49.773Z</time>
      </trkpt>
      <trkpt lat="47.10443" lon="-1.31682">
        <ele>37.548</ele>
        <time>2015-09-11T14:38:50.896Z</time>
      </trkpt>
      <trkpt lat="47.10438" lon="-1.31684">
        <ele>37.638</ele>
        <time>2015-09-11T14:38:51.78Z</time>
      </trkpt>
      <trkpt lat="47.10434" lon="-1.31686">
        <ele>37.71</ele>
        <time>2015-09-11T14:38:52.808Z</time>
      </trkpt>
      <trkpt lat="47.10429" lon="-1.31688">
        <ele>37.782</ele>
        <time>2015-09-11T14:38:53.746Z</time>
      </trkpt>
      <trkpt lat="47.10424" lon="-1.3169">
        <ele>37.854</ele>
        <time>2015-09-11T14:38:54.889Z</time>
      </trkpt>
      <trkpt lat="47.10418" lon="-1.31691">
        <ele>37.88</ele>
        <time>2015-09-11T14:38:55.781Z</time>
      </trkpt>
      <trkpt lat="47.10413" lon="-1.31694">
        <ele>37.973</ele>
        <time>2015-09-11T14:38:56.921Z</time>
      </trkpt>
      <trkpt lat="47.10408" lon="-1.31696">
        <ele>38</ele>
        <time>2015-09-11T14:38:57.779Z</time>
      </trkpt>
      <trkpt lat="47.10403" lon="-1.31699">
        <ele>38</ele>
        <time>2015-09-11T14:38:58.936Z</time>
      </trkpt>
      <trkpt lat="47.10398" lon="-1.31702">
        <ele>38</ele>
        <time>2015-09-11T14:38:59.825Z</time>
      </trkpt>
      <trkpt lat="47.10394" lon="-1.31704">
        <ele>38</ele>
        <time>2015-09-11T14:39:00.778Z</time>
      </trkpt>
      <trkpt lat="47.10389" lon="-1.31707">
        <ele>38</ele>
        <time>2015-09-11T14:39:01.746Z</time>
      </trkpt>
      <trkpt lat="47.10383" lon="-1.31714">
        <ele>38.067</ele>
        <time>2015-09-11T14:39:03.778Z</time>
      </trkpt>
      <trkpt lat="47.10381" lon="-1.31719">
        <ele>38.036</ele>
        <time>2015-09-11T14:39:04.746Z</time>
      </trkpt>
      <trkpt lat="47.10379" lon="-1.31731">
        <ele>38</ele>
        <time>2015-09-11T14:39:06.931Z</time>
      </trkpt>
      <trkpt lat="47.1038" lon="-1.31738">
        <ele>38</ele>
        <time>2015-09-11T14:39:07.774Z</time>
      </trkpt>
      <trkpt lat="47.10381" lon="-1.31745">
        <ele>38</ele>
        <time>2015-09-11T14:39:08.895Z</time>
      </trkpt>
      <trkpt lat="47.1038" lon="-1.31752">
        <ele>37.978</ele>
        <time>2015-09-11T14:39:09.765Z</time>
      </trkpt>
      <trkpt lat="47.1038" lon="-1.31759">
        <ele>37.902</ele>
        <time>2015-09-11T14:39:10.914Z</time>
      </trkpt>
      <trkpt lat="47.10381" lon="-1.31766">
        <ele>37.822</ele>
        <time>2015-09-11T14:39:11.768Z</time>
      </trkpt>
      <trkpt lat="47.10382" lon="-1.31779">
        <ele>37.715</ele>
        <time>2015-09-11T14:39:13.972Z</time>
      </trkpt>
      <trkpt lat="47.10383" lon="-1.31786">
        <ele>37.546</ele>
        <time>2015-09-11T14:39:14.751Z</time>
      </trkpt>
      <trkpt lat="47.10382" lon="-1.31797">
        <ele>37.233</ele>
        <time>2015-09-11T14:39:16.947Z</time>
      </trkpt>
      <trkpt lat="47.1038" lon="-1.31802">
        <ele>37.098</ele>
        <time>2015-09-11T14:39:17.799Z</time>
      </trkpt>
      <trkpt lat="47.10371" lon="-1.31802">
        <ele>37.041</ele>
        <time>2015-09-11T14:39:19.904Z</time>
      </trkpt>
      <trkpt lat="47.10366" lon="-1.31801">
        <ele>37.029</ele>
        <time>2015-09-11T14:39:20.849Z</time>
      </trkpt>
      <trkpt lat="47.10361" lon="-1.31799">
        <ele>37.001</ele>
        <time>2015-09-11T14:39:21.915Z</time>
      </trkpt>
      <trkpt lat="47.10345" lon="-1.31793">
        <ele>36.409</ele>
        <time>2015-09-11T14:39:24.747Z</time>
      </trkpt>
      <trkpt lat="47.10337" lon="-1.31792">
        <ele>36.146</ele>
        <time>2015-09-11T14:39:26.775Z</time>
      </trkpt>
      <trkpt lat="47.10332" lon="-1.31791">
        <ele>35.952</ele>
        <time>2015-09-11T14:39:27.747Z</time>
      </trkpt>
      <trkpt lat="47.10327" lon="-1.31791">
        <ele>35.758</ele>
        <time>2015-09-11T14:39:28.811Z</time>
      </trkpt>
      <trkpt lat="47.10315" lon="-1.31788">
        <ele>35.351</ele>
        <time>2015-09-11T14:39:30.856Z</time>
      </trkpt>
      <trkpt lat="47.10315" lon="-1.31788">
        <ele>35.351</ele>
        <time>2015-09-11T14:39:31.367Z</time>
      </trkpt>
      <trkpt lat="47.10305" lon="-1.31789">
        <ele>35</ele>
        <time>2015-09-11T14:39:32.746Z</time>
      </trkpt>
      <trkpt lat="47.10301" lon="-1.31788">
        <ele>35</ele>
        <time>2015-09-11T14:39:33.872Z</time>
      </trkpt>
      <trkpt lat="47.10295" lon="-1.31788">
        <ele>35</ele>
        <time>2015-09-11T14:39:34.808Z</time>
      </trkpt>
      <trkpt lat="47.1029" lon="-1.31785">
        <ele>35</ele>
        <time>2015-09-11T14:39:35.784Z</time>
      </trkpt>
      <trkpt lat="47.10284" lon="-1.31785">
        <ele>35</ele>
        <time>2015-09-11T14:39:36.747Z</time>
      </trkpt>
      <trkpt lat="47.10278" lon="-1.31781">
        <ele>35</ele>
        <time>2015-09-11T14:39:37.783Z</time>
      </trkpt>
      <trkpt lat="47.10271" lon="-1.31782">
        <ele>34.963</ele>
        <time>2015-09-11T14:39:38.748Z</time>
      </trkpt>
      <trkpt lat="47.10265" lon="-1.31777">
        <ele>35.009</ele>
        <time>2015-09-11T14:39:39.934Z</time>
      </trkpt>
      <trkpt lat="47.10261" lon="-1.31778">
        <ele>35.001</ele>
        <time>2015-09-11T14:39:40.779Z</time>
      </trkpt>
      <trkpt lat="47.10256" lon="-1.31779">
        <ele>34.959</ele>
        <time>2015-09-11T14:39:41.788Z</time>
      </trkpt>
      <trkpt lat="47.10251" lon="-1.3178">
        <ele>34.922</ele>
        <time>2015-09-11T14:39:42.895Z</time>
      </trkpt>
      <trkpt lat="47.10245" lon="-1.31782">
        <ele>34.68</ele>
        <time>2015-09-11T14:39:43.83Z</time>
      </trkpt>
      <trkpt lat="47.10239" lon="-1.31781">
        <ele>34.535</ele>
        <time>2015-09-11T14:39:44.792Z</time>
      </trkpt>
      <trkpt lat="47.10232" lon="-1.31776">
        <ele>34.367</ele>
        <time>2015-09-11T14:39:46.787Z</time>
      </trkpt>
      <trkpt lat="47.10229" lon="-1.31778">
        <ele>34.238</ele>
        <time>2015-09-11T14:39:47.774Z</time>
      </trkpt>
      <trkpt lat="47.10222" lon="-1.31777">
        <ele>34.02</ele>
        <time>2015-09-11T14:39:51.899Z</time>
      </trkpt>
      <trkpt lat="47.10219" lon="-1.31776">
        <ele>34.176</ele>
        <time>2015-09-11T14:39:52.747Z</time>
      </trkpt>
      <trkpt lat="47.10215" lon="-1.31772">
        <ele>34.413</ele>
        <time>2015-09-11T14:39:53.778Z</time>
      </trkpt>
      <trkpt lat="47.10212" lon="-1.31766">
        <ele>34.618</ele>
        <time>2015-09-11T14:39:54.774Z</time>
      </trkpt>
      <trkpt lat="47.1021" lon="-1.31761">
        <ele>34.784</ele>
        <time>2015-09-11T14:39:55.947Z</time>
      </trkpt>
      <trkpt lat="47.10208" lon="-1.31754">
        <ele>34.928</ele>
        <time>2015-09-11T14:39:56.777Z</time>
      </trkpt>
      <trkpt lat="47.10206" lon="-1.31748">
        <ele>34.964</ele>
        <time>2015-09-11T14:39:57.972Z</time>
      </trkpt>
      <trkpt lat="47.10204" lon="-1.31742">
        <ele>34.806</ele>
        <time>2015-09-11T14:39:58.786Z</time>
      </trkpt>
      <trkpt lat="47.10202" lon="-1.31735">
        <ele>34.592</ele>
        <time>2015-09-11T14:39:59.904Z</time>
      </trkpt>
      <trkpt lat="47.102" lon="-1.31727">
        <ele>34.332</ele>
        <time>2015-09-11T14:40:00.781Z</time>
      </trkpt>
      <trkpt lat="47.10198" lon="-1.31719">
        <ele>34.117</ele>
        <time>2015-09-11T14:40:01.903Z</time>
      </trkpt>
      <trkpt lat="47.10196" lon="-1.31711">
        <ele>34.067</ele>
        <time>2015-09-11T14:40:02.78Z</time>
      </trkpt>
      <trkpt lat="47.10195" lon="-1.31703">
        <ele>34.02</ele>
        <time>2015-09-11T14:40:03.779Z</time>
      </trkpt>
      <trkpt lat="47.10193" lon="-1.31695">
        <ele>33.959</ele>
        <time>2015-09-11T14:40:04.746Z</time>
      </trkpt>
      <trkpt lat="47.10192" lon="-1.31687">
        <ele>33.701</ele>
        <time>2015-09-11T14:40:06.082Z</time>
      </trkpt>
      <trkpt lat="47.10191" lon="-1.31679">
        <ele>33.452</ele>
        <time>2015-09-11T14:40:06.78Z</time>
      </trkpt>
      <trkpt lat="47.1019" lon="-1.31671">
        <ele>33.281</ele>
        <time>2015-09-11T14:40:07.78Z</time>
      </trkpt>
      <trkpt lat="47.10187" lon="-1.31663">
        <ele>33.282</ele>
        <time>2015-09-11T14:40:08.747Z</time>
      </trkpt>
      <trkpt lat="47.10183" lon="-1.31657">
        <ele>33.419</ele>
        <time>2015-09-11T14:40:09.899Z</time>
      </trkpt>
      <trkpt lat="47.10178" lon="-1.31651">
        <ele>33.606</ele>
        <time>2015-09-11T14:40:10.779Z</time>
      </trkpt>
      <trkpt lat="47.10172" lon="-1.31649">
        <ele>33.826</ele>
        <time>2015-09-11T14:40:11.784Z</time>
      </trkpt>
      <trkpt lat="47.10166" lon="-1.31647">
        <ele>34</ele>
        <time>2015-09-11T14:40:12.749Z</time>
      </trkpt>
      <trkpt lat="47.10159" lon="-1.31646">
        <ele>34</ele>
        <time>2015-09-11T14:40:14.081Z</time>
      </trkpt>
      <trkpt lat="47.10152" lon="-1.31643">
        <ele>34</ele>
        <time>2015-09-11T14:40:14.777Z</time>
      </trkpt>
      <trkpt lat="47.10146" lon="-1.31642">
        <ele>34</ele>
        <time>2015-09-11T14:40:15.903Z</time>
      </trkpt>
      <trkpt lat="47.10139" lon="-1.3164">
        <ele>34</ele>
        <time>2015-09-11T14:40:16.774Z</time>
      </trkpt>
      <trkpt lat="47.10133" lon="-1.3164">
        <ele>34.215</ele>
        <time>2015-09-11T14:40:17.906Z</time>
      </trkpt>
      <trkpt lat="47.10126" lon="-1.3164">
        <ele>34.442</ele>
        <time>2015-09-11T14:40:18.77Z</time>
      </trkpt>
      <trkpt lat="47.1012" lon="-1.3164">
        <ele>34.641</ele>
        <time>2015-09-11T14:40:19.78Z</time>
      </trkpt>
      <trkpt lat="47.10113" lon="-1.31641">
        <ele>34.881</ele>
        <time>2015-09-11T14:40:20.745Z</time>
      </trkpt>
      <trkpt lat="47.10107" lon="-1.31641">
        <ele>34.92</ele>
        <time>2015-09-11T14:40:21.916Z</time>
      </trkpt>
      <trkpt lat="47.101" lon="-1.31642">
        <ele>34.902</ele>
        <time>2015-09-11T14:40:22.78Z</time>
      </trkpt>
      <trkpt lat="47.10094" lon="-1.31643">
        <ele>34.845</ele>
        <time>2015-09-11T14:40:24.1Z</time>
      </trkpt>
      <trkpt lat="47.10089" lon="-1.31644">
        <ele>34.809</ele>
        <time>2015-09-11T14:40:24.75Z</time>
      </trkpt>
      <trkpt lat="47.10082" lon="-1.31646">
        <ele>34.744</ele>
        <time>2015-09-11T14:40:25.779Z</time>
      </trkpt>
      <trkpt lat="47.10077" lon="-1.31648">
        <ele>34.676</ele>
        <time>2015-09-11T14:40:26.776Z</time>
      </trkpt>
      <trkpt lat="47.10073" lon="-1.31651">
        <ele>34.582</ele>
        <time>2015-09-11T14:40:27.912Z</time>
      </trkpt>
      <trkpt lat="47.10066" lon="-1.31654">
        <ele>34.445</ele>
        <time>2015-09-11T14:40:28.825Z</time>
      </trkpt>
      <trkpt lat="47.10061" lon="-1.31658">
        <ele>34.301</ele>
        <time>2015-09-11T14:40:29.779Z</time>
      </trkpt>
      <trkpt lat="47.10055" lon="-1.31663">
        <ele>34.128</ele>
        <time>2015-09-11T14:40:30.747Z</time>
      </trkpt>
      <trkpt lat="47.10049" lon="-1.31668">
        <ele>33.992</ele>
        <time>2015-09-11T14:40:31.922Z</time>
      </trkpt>
      <trkpt lat="47.10044" lon="-1.31673">
        <ele>33.913</ele>
        <time>2015-09-11T14:40:32.781Z</time>
      </trkpt>
      <trkpt lat="47.10039" lon="-1.31677">
        <ele>33.777</ele>
        <time>2015-09-11T14:40:34Z</time>
      </trkpt>
      <trkpt lat="47.10034" lon="-1.31683">
        <ele>33.539</ele>
        <time>2015-09-11T14:40:34.775Z</time>
      </trkpt>
      <trkpt lat="47.1003" lon="-1.31688">
        <ele>33.285</ele>
        <time>2015-09-11T14:40:35.774Z</time>
      </trkpt>
      <trkpt lat="47.10025" lon="-1.31695">
        <ele>32.895</ele>
        <time>2015-09-11T14:40:36.746Z</time>
      </trkpt>
      <trkpt lat="47.1002" lon="-1.31702">
        <ele>32.629</ele>
        <time>2015-09-11T14:40:37.793Z</time>
      </trkpt>
      <trkpt lat="47.10016" lon="-1.3171">
        <ele>32.344</ele>
        <time>2015-09-11T14:40:38.786Z</time>
      </trkpt>
      <trkpt lat="47.10012" lon="-1.31718">
        <ele>31.938</ele>
        <time>2015-09-11T14:40:39.9Z</time>
      </trkpt>
      <trkpt lat="47.10008" lon="-1.31727">
        <ele>31.436</ele>
        <time>2015-09-11T14:40:40.78Z</time>
      </trkpt>
      <trkpt lat="47.10005" lon="-1.31735">
        <ele>30.86</ele>
        <time>2015-09-11T14:40:41.918Z</time>
      </trkpt>
      <trkpt lat="47.10001" lon="-1.31744">
        <ele>30.32</ele>
        <time>2015-09-11T14:40:42.746Z</time>
      </trkpt>
      <trkpt lat="47.09998" lon="-1.31752">
        <ele>30.064</ele>
        <time>2015-09-11T14:40:43.791Z</time>
      </trkpt>
      <trkpt lat="47.09995" lon="-1.31761">
        <ele>30.098</ele>
        <time>2015-09-11T14:40:44.774Z</time>
      </trkpt>
      <trkpt lat="47.09994" lon="-1.31771">
        <ele>30.058</ele>
        <time>2015-09-11T14:40:46.289Z</time>
      </trkpt>
      <trkpt lat="47.09992" lon="-1.31781">
        <ele>29.93</ele>
        <time>2015-09-11T14:40:46.752Z</time>
      </trkpt>
      <trkpt lat="47.09991" lon="-1.3179">
        <ele>29.708</ele>
        <time>2015-09-11T14:40:47.78Z</time>
      </trkpt>
      <trkpt lat="47.09989" lon="-1.31799">
        <ele>29.535</ele>
        <time>2015-09-11T14:40:48.783Z</time>
      </trkpt>
      <trkpt lat="47.09988" lon="-1.31809">
        <ele>29.278</ele>
        <time>2015-09-11T14:40:49.955Z</time>
      </trkpt>
      <trkpt lat="47.09987" lon="-1.31819">
        <ele>28.761</ele>
        <time>2015-09-11T14:40:50.78Z</time>
      </trkpt>
      <trkpt lat="47.09987" lon="-1.31831">
        <ele>28.144</ele>
        <time>2015-09-11T14:40:51.914Z</time>
      </trkpt>
      <trkpt lat="47.09988" lon="-1.31844">
        <ele>27.404</ele>
        <time>2015-09-11T14:40:52.797Z</time>
      </trkpt>
      <trkpt lat="47.09988" lon="-1.31853">
        <ele>26.903</ele>
        <time>2015-09-11T14:40:53.923Z</time>
      </trkpt>
      <trkpt lat="47.09987" lon="-1.31861">
        <ele>26.454</ele>
        <time>2015-09-11T14:40:54.816Z</time>
      </trkpt>
      <trkpt lat="47.09987" lon="-1.31871">
        <ele>26.141</ele>
        <time>2015-09-11T14:40:55.784Z</time>
      </trkpt>
      <trkpt lat="47.09986" lon="-1.31881">
        <ele>25.781</ele>
        <time>2015-09-11T14:40:56.78Z</time>
      </trkpt>
      <trkpt lat="47.09985" lon="-1.3189">
        <ele>25.526</ele>
        <time>2015-09-11T14:40:57.799Z</time>
      </trkpt>
      <trkpt lat="47.09984" lon="-1.31898">
        <ele>25.576</ele>
        <time>2015-09-11T14:40:58.746Z</time>
      </trkpt>
      <trkpt lat="47.09983" lon="-1.3191">
        <ele>25.608</ele>
        <time>2015-09-11T14:40:59.905Z</time>
      </trkpt>
      <trkpt lat="47.09982" lon="-1.31919">
        <ele>25.637</ele>
        <time>2015-09-11T14:41:00.775Z</time>
      </trkpt>
      <trkpt lat="47.09981" lon="-1.31928">
        <ele>25.677</ele>
        <time>2015-09-11T14:41:01.932Z</time>
      </trkpt>
      <trkpt lat="47.0998" lon="-1.31934">
        <ele>25.731</ele>
        <time>2015-09-11T14:41:02.781Z</time>
      </trkpt>
      <trkpt lat="47.09978" lon="-1.31941">
        <ele>25.81</ele>
        <time>2015-09-11T14:41:03.782Z</time>
      </trkpt>
      <trkpt lat="47.09975" lon="-1.31947">
        <ele>25.897</ele>
        <time>2015-09-11T14:41:04.744Z</time>
      </trkpt>
      <trkpt lat="47.09973" lon="-1.31954">
        <ele>25.977</ele>
        <time>2015-09-11T14:41:05.8Z</time>
      </trkpt>
      <trkpt lat="47.0997" lon="-1.31959">
        <ele>25.931</ele>
        <time>2015-09-11T14:41:06.742Z</time>
      </trkpt>
      <trkpt lat="47.09967" lon="-1.31965">
        <ele>25.819</ele>
        <time>2015-09-11T14:41:07.774Z</time>
      </trkpt>
      <trkpt lat="47.09965" lon="-1.3197">
        <ele>25.736</ele>
        <time>2015-09-11T14:41:08.746Z</time>
      </trkpt>
      <trkpt lat="47.09959" lon="-1.31979">
        <ele>25.786</ele>
        <time>2015-09-11T14:41:10.79Z</time>
      </trkpt>
      <trkpt lat="47.09956" lon="-1.31985">
        <ele>25.872</ele>
        <time>2015-09-11T14:41:11.746Z</time>
      </trkpt>
      <trkpt lat="47.09953" lon="-1.31991">
        <ele>25.973</ele>
        <time>2015-09-11T14:41:12.975Z</time>
      </trkpt>
      <trkpt lat="47.0995" lon="-1.31996">
        <ele>26.056</ele>
        <time>2015-09-11T14:41:13.795Z</time>
      </trkpt>
      <trkpt lat="47.09946" lon="-1.32002">
        <ele>26.06</ele>
        <time>2015-09-11T14:41:14.79Z</time>
      </trkpt>
      <trkpt lat="47.09942" lon="-1.32005">
        <ele>25.941</ele>
        <time>2015-09-11T14:41:15.744Z</time>
      </trkpt>
      <trkpt lat="47.09938" lon="-1.32011">
        <ele>25.866</ele>
        <time>2015-09-11T14:41:16.87Z</time>
      </trkpt>
      <trkpt lat="47.09934" lon="-1.32015">
        <ele>25.826</ele>
        <time>2015-09-11T14:41:17.781Z</time>
      </trkpt>
      <trkpt lat="47.09928" lon="-1.32018">
        <ele>25.798</ele>
        <time>2015-09-11T14:41:18.9Z</time>
      </trkpt>
      <trkpt lat="47.09923" lon="-1.32023">
        <ele>25.858</ele>
        <time>2015-09-11T14:41:19.771Z</time>
      </trkpt>
      <trkpt lat="47.09918" lon="-1.32027">
        <ele>25.96</ele>
        <time>2015-09-11T14:41:20.967Z</time>
      </trkpt>
      <trkpt lat="47.09915" lon="-1.3203">
        <ele>26.006</ele>
        <time>2015-09-11T14:41:21.776Z</time>
      </trkpt>
      <trkpt lat="47.0991" lon="-1.32035">
        <ele>26.056</ele>
        <time>2015-09-11T14:41:22.916Z</time>
      </trkpt>
      <trkpt lat="47.09907" lon="-1.32039">
        <ele>26.146</ele>
        <time>2015-09-11T14:41:23.774Z</time>
      </trkpt>
      <trkpt lat="47.09903" lon="-1.32044">
        <ele>26.303</ele>
        <time>2015-09-11T14:41:24.9Z</time>
      </trkpt>
      <trkpt lat="47.09898" lon="-1.32051">
        <ele>26.54</ele>
        <time>2015-09-11T14:41:25.779Z</time>
      </trkpt>
      <trkpt lat="47.09896" lon="-1.32058">
        <ele>26.692</ele>
        <time>2015-09-11T14:41:26.772Z</time>
      </trkpt>
      <trkpt lat="47.09894" lon="-1.32065">
        <ele>26.529</ele>
        <time>2015-09-11T14:41:27.745Z</time>
      </trkpt>
      <trkpt lat="47.09892" lon="-1.32073">
        <ele>26.338</ele>
        <time>2015-09-11T14:41:28.917Z</time>
      </trkpt>
      <trkpt lat="47.09892" lon="-1.3208">
        <ele>26.092</ele>
        <time>2015-09-11T14:41:29.762Z</time>
      </trkpt>
      <trkpt lat="47.09893" lon="-1.32088">
        <ele>26</ele>
        <time>2015-09-11T14:41:30.951Z</time>
      </trkpt>
      <trkpt lat="47.09892" lon="-1.32096">
        <ele>26</ele>
        <time>2015-09-11T14:41:31.781Z</time>
      </trkpt>
      <trkpt lat="47.09891" lon="-1.32104">
        <ele>26</ele>
        <time>2015-09-11T14:41:32.78Z</time>
      </trkpt>
      <trkpt lat="47.0989" lon="-1.32111">
        <ele>26</ele>
        <time>2015-09-11T14:41:33.751Z</time>
      </trkpt>
      <trkpt lat="47.09889" lon="-1.32117">
        <ele>26</ele>
        <time>2015-09-11T14:41:34.923Z</time>
      </trkpt>
      <trkpt lat="47.09889" lon="-1.32125">
        <ele>26</ele>
        <time>2015-09-11T14:41:35.807Z</time>
      </trkpt>
      <trkpt lat="47.09888" lon="-1.32132">
        <ele>26</ele>
        <time>2015-09-11T14:41:36.818Z</time>
      </trkpt>
      <trkpt lat="47.09887" lon="-1.3214">
        <ele>26</ele>
        <time>2015-09-11T14:41:37.744Z</time>
      </trkpt>
      <trkpt lat="47.09886" lon="-1.32148">
        <ele>26</ele>
        <time>2015-09-11T14:41:39.079Z</time>
      </trkpt>
      <trkpt lat="47.09886" lon="-1.32156">
        <ele>26</ele>
        <time>2015-09-11T14:41:39.745Z</time>
      </trkpt>
      <trkpt lat="47.09885" lon="-1.32163">
        <ele>26</ele>
        <time>2015-09-11T14:41:40.786Z</time>
      </trkpt>
      <trkpt lat="47.09883" lon="-1.32172">
        <ele>25.822</ele>
        <time>2015-09-11T14:41:41.766Z</time>
      </trkpt>
      <trkpt lat="47.09882" lon="-1.32179">
        <ele>25.542</ele>
        <time>2015-09-11T14:41:42.778Z</time>
      </trkpt>
      <trkpt lat="47.09881" lon="-1.32188">
        <ele>25.228</ele>
        <time>2015-09-11T14:41:43.748Z</time>
      </trkpt>
      <trkpt lat="47.0988" lon="-1.32196">
        <ele>25</ele>
        <time>2015-09-11T14:41:44.894Z</time>
      </trkpt>
      <trkpt lat="47.09879" lon="-1.32204">
        <ele>25</ele>
        <time>2015-09-11T14:41:45.781Z</time>
      </trkpt>
      <trkpt lat="47.09879" lon="-1.32212">
        <ele>25</ele>
        <time>2015-09-11T14:41:46.799Z</time>
      </trkpt>
      <trkpt lat="47.09878" lon="-1.32219">
        <ele>25</ele>
        <time>2015-09-11T14:41:47.751Z</time>
      </trkpt>
      <trkpt lat="47.09876" lon="-1.32225">
        <ele>25.052</ele>
        <time>2015-09-11T14:41:48.948Z</time>
      </trkpt>
      <trkpt lat="47.09875" lon="-1.32232">
        <ele>25.173</ele>
        <time>2015-09-11T14:41:49.778Z</time>
      </trkpt>
      <trkpt lat="47.09873" lon="-1.32239">
        <ele>25.259</ele>
        <time>2015-09-11T14:41:50.92Z</time>
      </trkpt>
      <trkpt lat="47.09871" lon="-1.32245">
        <ele>25.293</ele>
        <time>2015-09-11T14:41:51.774Z</time>
      </trkpt>
      <trkpt lat="47.09866" lon="-1.32254">
        <ele>25.183</ele>
        <time>2015-09-11T14:41:53.783Z</time>
      </trkpt>
      <trkpt lat="47.09864" lon="-1.3226">
        <ele>25.086</ele>
        <time>2015-09-11T14:41:54.773Z</time>
      </trkpt>
      <trkpt lat="47.09861" lon="-1.32267">
        <ele>25</ele>
        <time>2015-09-11T14:41:55.772Z</time>
      </trkpt>
      <trkpt lat="47.09858" lon="-1.32273">
        <ele>25</ele>
        <time>2015-09-11T14:41:56.745Z</time>
      </trkpt>
      <trkpt lat="47.09856" lon="-1.32279">
        <ele>25</ele>
        <time>2015-09-11T14:41:57.856Z</time>
      </trkpt>
      <trkpt lat="47.09853" lon="-1.32285">
        <ele>25</ele>
        <time>2015-09-11T14:41:58.745Z</time>
      </trkpt>
      <trkpt lat="47.0985" lon="-1.32293">
        <ele>25</ele>
        <time>2015-09-11T14:41:59.784Z</time>
      </trkpt>
      <trkpt lat="47.09847" lon="-1.323">
        <ele>25</ele>
        <time>2015-09-11T14:42:00.769Z</time>
      </trkpt>
      <trkpt lat="47.09845" lon="-1.32306">
        <ele>25</ele>
        <time>2015-09-11T14:42:01.785Z</time>
      </trkpt>
      <trkpt lat="47.09843" lon="-1.32313">
        <ele>25</ele>
        <time>2015-09-11T14:42:02.748Z</time>
      </trkpt>
      <trkpt lat="47.0984" lon="-1.32321">
        <ele>25</ele>
        <time>2015-09-11T14:42:03.832Z</time>
      </trkpt>
      <trkpt lat="47.09838" lon="-1.32328">
        <ele>25</ele>
        <time>2015-09-11T14:42:04.764Z</time>
      </trkpt>
      <trkpt lat="47.09836" lon="-1.32335">
        <ele>25.041</ele>
        <time>2015-09-11T14:42:05.913Z</time>
      </trkpt>
      <trkpt lat="47.09834" lon="-1.32342">
        <ele>25.302</ele>
        <time>2015-09-11T14:42:06.778Z</time>
      </trkpt>
      <trkpt lat="47.09832" lon="-1.32349">
        <ele>25.642</ele>
        <time>2015-09-11T14:42:08.035Z</time>
      </trkpt>
      <trkpt lat="47.09831" lon="-1.32357">
        <ele>25.942</ele>
        <time>2015-09-11T14:42:08.744Z</time>
      </trkpt>
      <trkpt lat="47.09831" lon="-1.32364">
        <ele>26.186</ele>
        <time>2015-09-11T14:42:09.781Z</time>
      </trkpt>
      <trkpt lat="47.0983" lon="-1.32371">
        <ele>26.424</ele>
        <time>2015-09-11T14:42:10.779Z</time>
      </trkpt>
      <trkpt lat="47.09829" lon="-1.32378">
        <ele>26.667</ele>
        <time>2015-09-11T14:42:11.903Z</time>
      </trkpt>
      <trkpt lat="47.09828" lon="-1.32384">
        <ele>26.862</ele>
        <time>2015-09-11T14:42:12.783Z</time>
      </trkpt>
      <trkpt lat="47.09829" lon="-1.32392">
        <ele>27.016</ele>
        <time>2015-09-11T14:42:13.779Z</time>
      </trkpt>
      <trkpt lat="47.0983" lon="-1.324">
        <ele>27.05</ele>
        <time>2015-09-11T14:42:14.744Z</time>
      </trkpt>
      <trkpt lat="47.0983" lon="-1.32406">
        <ele>27.07</ele>
        <time>2015-09-11T14:42:15.911Z</time>
      </trkpt>
      <trkpt lat="47.09831" lon="-1.32413">
        <ele>27.062</ele>
        <time>2015-09-11T14:42:16.773Z</time>
      </trkpt>
      <trkpt lat="47.09832" lon="-1.3242">
        <ele>27.142</ele>
        <time>2015-09-11T14:42:17.785Z</time>
      </trkpt>
      <trkpt lat="47.09833" lon="-1.32427">
        <ele>27.366</ele>
        <time>2015-09-11T14:42:18.747Z</time>
      </trkpt>
      <trkpt lat="47.09834" lon="-1.32434">
        <ele>27.6</ele>
        <time>2015-09-11T14:42:19.891Z</time>
      </trkpt>
      <trkpt lat="47.09836" lon="-1.3244">
        <ele>27.772</ele>
        <time>2015-09-11T14:42:20.779Z</time>
      </trkpt>
      <trkpt lat="47.09837" lon="-1.32447">
        <ele>27.804</ele>
        <time>2015-09-11T14:42:21.951Z</time>
      </trkpt>
      <trkpt lat="47.09837" lon="-1.32454">
        <ele>27.573</ele>
        <time>2015-09-11T14:42:22.781Z</time>
      </trkpt>
      <trkpt lat="47.09837" lon="-1.32462">
        <ele>27.32</ele>
        <time>2015-09-11T14:42:23.958Z</time>
      </trkpt>
      <trkpt lat="47.09838" lon="-1.3247">
        <ele>27.066</ele>
        <time>2015-09-11T14:42:24.77Z</time>
      </trkpt>
      <trkpt lat="47.09839" lon="-1.32477">
        <ele>26.857</ele>
        <time>2015-09-11T14:42:25.919Z</time>
      </trkpt>
      <trkpt lat="47.09841" lon="-1.32483">
        <ele>26.721</ele>
        <time>2015-09-11T14:42:26.783Z</time>
      </trkpt>
      <trkpt lat="47.09843" lon="-1.3249">
        <ele>26.573</ele>
        <time>2015-09-11T14:42:27.78Z</time>
      </trkpt>
      <trkpt lat="47.09844" lon="-1.32498">
        <ele>26.436</ele>
        <time>2015-09-11T14:42:28.752Z</time>
      </trkpt>
      <trkpt lat="47.09846" lon="-1.32505">
        <ele>26.445</ele>
        <time>2015-09-11T14:42:29.898Z</time>
      </trkpt>
      <trkpt lat="47.09847" lon="-1.32511">
        <ele>26.478</ele>
        <time>2015-09-11T14:42:30.772Z</time>
      </trkpt>
      <trkpt lat="47.09848" lon="-1.3252">
        <ele>26.528</ele>
        <time>2015-09-11T14:42:31.981Z</time>
      </trkpt>
      <trkpt lat="47.09849" lon="-1.32526">
        <ele>26.575</ele>
        <time>2015-09-11T14:42:32.766Z</time>
      </trkpt>
      <trkpt lat="47.09852" lon="-1.32532">
        <ele>26.668</ele>
        <time>2015-09-11T14:42:33.974Z</time>
      </trkpt>
      <trkpt lat="47.09854" lon="-1.32539">
        <ele>26.733</ele>
        <time>2015-09-11T14:42:34.77Z</time>
      </trkpt>
      <trkpt lat="47.09855" lon="-1.32547">
        <ele>26.794</ele>
        <time>2015-09-11T14:42:35.918Z</time>
      </trkpt>
      <trkpt lat="47.09857" lon="-1.32554">
        <ele>26.856</ele>
        <time>2015-09-11T14:42:36.762Z</time>
      </trkpt>
      <trkpt lat="47.09854" lon="-1.32557">
        <ele>26.755</ele>
        <time>2015-09-11T14:42:37.936Z</time>
      </trkpt>
      <trkpt lat="47.09856" lon="-1.32574">
        <ele>26.812</ele>
        <time>2015-09-11T14:42:38.774Z</time>
      </trkpt>
      <trkpt lat="47.09858" lon="-1.32584">
        <ele>26.93</ele>
        <time>2015-09-11T14:42:41.013Z</time>
      </trkpt>
      <trkpt lat="47.09859" lon="-1.32593">
        <ele>27.24</ele>
        <time>2015-09-11T14:42:41.778Z</time>
      </trkpt>
      <trkpt lat="47.09858" lon="-1.32601">
        <ele>27.517</ele>
        <time>2015-09-11T14:42:42.921Z</time>
      </trkpt>
      <trkpt lat="47.09859" lon="-1.32606">
        <ele>27.733</ele>
        <time>2015-09-11T14:42:43.774Z</time>
      </trkpt>
      <trkpt lat="47.09859" lon="-1.32614">
        <ele>28.028</ele>
        <time>2015-09-11T14:42:44.968Z</time>
      </trkpt>
      <trkpt lat="47.09859" lon="-1.32621">
        <ele>28.284</ele>
        <time>2015-09-11T14:42:45.773Z</time>
      </trkpt>
      <trkpt lat="47.09859" lon="-1.32628">
        <ele>28.521</ele>
        <time>2015-09-11T14:42:46.78Z</time>
      </trkpt>
      <trkpt lat="47.09858" lon="-1.32635">
        <ele>28.759</ele>
        <time>2015-09-11T14:42:47.745Z</time>
      </trkpt>
      <trkpt lat="47.09859" lon="-1.32642">
        <ele>28.924</ele>
        <time>2015-09-11T14:42:48.915Z</time>
      </trkpt>
      <trkpt lat="47.09859" lon="-1.3265">
        <ele>28.917</ele>
        <time>2015-09-11T14:42:49.774Z</time>
      </trkpt>
      <trkpt lat="47.09858" lon="-1.32657">
        <ele>28.881</ele>
        <time>2015-09-11T14:42:51.139Z</time>
      </trkpt>
      <trkpt lat="47.09856" lon="-1.32665">
        <ele>28.802</ele>
        <time>2015-09-11T14:42:51.751Z</time>
      </trkpt>
      <trkpt lat="47.09855" lon="-1.32673">
        <ele>28.78</ele>
        <time>2015-09-11T14:42:52.781Z</time>
      </trkpt>
      <trkpt lat="47.09854" lon="-1.32681">
        <ele>28.748</ele>
        <time>2015-09-11T14:42:53.779Z</time>
      </trkpt>
      <trkpt lat="47.09854" lon="-1.32688">
        <ele>28.73</ele>
        <time>2015-09-11T14:42:54.976Z</time>
      </trkpt>
      <trkpt lat="47.09852" lon="-1.32696">
        <ele>28.676</ele>
        <time>2015-09-11T14:42:55.774Z</time>
      </trkpt>
      <trkpt lat="47.09852" lon="-1.32701">
        <ele>28.654</ele>
        <time>2015-09-11T14:42:56.911Z</time>
      </trkpt>
      <trkpt lat="47.0985" lon="-1.32709">
        <ele>28.611</ele>
        <time>2015-09-11T14:42:57.774Z</time>
      </trkpt>
      <trkpt lat="47.09848" lon="-1.32721">
        <ele>28.517</ele>
        <time>2015-09-11T14:42:59.898Z</time>
      </trkpt>
      <trkpt lat="47.09847" lon="-1.32728">
        <ele>28.671</ele>
        <time>2015-09-11T14:43:00.777Z</time>
      </trkpt>
      <trkpt lat="47.09846" lon="-1.32735">
        <ele>28.898</ele>
        <time>2015-09-11T14:43:01.779Z</time>
      </trkpt>
      <trkpt lat="47.09845" lon="-1.32741">
        <ele>29.107</ele>
        <time>2015-09-11T14:43:02.746Z</time>
      </trkpt>
      <trkpt lat="47.09843" lon="-1.32754">
        <ele>29.439</ele>
        <time>2015-09-11T14:43:04.896Z</time>
      </trkpt>
      <trkpt lat="47.09842" lon="-1.32761">
        <ele>29.57</ele>
        <time>2015-09-11T14:43:05.774Z</time>
      </trkpt>
      <trkpt lat="47.0984" lon="-1.32767">
        <ele>29.709</ele>
        <time>2015-09-11T14:43:06.901Z</time>
      </trkpt>
      <trkpt lat="47.09838" lon="-1.32774">
        <ele>29.888</ele>
        <time>2015-09-11T14:43:07.778Z</time>
      </trkpt>
      <trkpt lat="47.09837" lon="-1.32781">
        <ele>30.017</ele>
        <time>2015-09-11T14:43:08.924Z</time>
      </trkpt>
      <trkpt lat="47.09836" lon="-1.32788">
        <ele>30.041</ele>
        <time>2015-09-11T14:43:09.774Z</time>
      </trkpt>
      <trkpt lat="47.09836" lon="-1.32797">
        <ele>30.055</ele>
        <time>2015-09-11T14:43:10.961Z</time>
      </trkpt>
      <trkpt lat="47.09835" lon="-1.32805">
        <ele>30.04</ele>
        <time>2015-09-11T14:43:11.777Z</time>
      </trkpt>
      <trkpt lat="47.09833" lon="-1.32811">
        <ele>30.002</ele>
        <time>2015-09-11T14:43:13.063Z</time>
      </trkpt>
      <trkpt lat="47.09832" lon="-1.32819">
        <ele>29.979</ele>
        <time>2015-09-11T14:43:13.741Z</time>
      </trkpt>
      <trkpt lat="47.0983" lon="-1.32826">
        <ele>29.923</ele>
        <time>2015-09-11T14:43:14.779Z</time>
      </trkpt>
      <trkpt lat="47.09829" lon="-1.32834">
        <ele>29.845</ele>
        <time>2015-09-11T14:43:16.042Z</time>
      </trkpt>
      <trkpt lat="47.09829" lon="-1.32841">
        <ele>29.546</ele>
        <time>2015-09-11T14:43:16.783Z</time>
      </trkpt>
      <trkpt lat="47.09829" lon="-1.32848">
        <ele>29.32</ele>
        <time>2015-09-11T14:43:17.746Z</time>
      </trkpt>
      <trkpt lat="47.09828" lon="-1.32856">
        <ele>28.992</ele>
        <time>2015-09-11T14:43:18.897Z</time>
      </trkpt>
      <trkpt lat="47.09828" lon="-1.32865">
        <ele>28.701</ele>
        <time>2015-09-11T14:43:19.773Z</time>
      </trkpt>
      <trkpt lat="47.09827" lon="-1.32873">
        <ele>28.449</ele>
        <time>2015-09-11T14:43:20.906Z</time>
      </trkpt>
      <trkpt lat="47.09828" lon="-1.32881">
        <ele>28.23</ele>
        <time>2015-09-11T14:43:21.779Z</time>
      </trkpt>
      <trkpt lat="47.09828" lon="-1.32889">
        <ele>28.012</ele>
        <time>2015-09-11T14:43:22.779Z</time>
      </trkpt>
      <trkpt lat="47.09829" lon="-1.32896">
        <ele>27.954</ele>
        <time>2015-09-11T14:43:23.752Z</time>
      </trkpt>
      <trkpt lat="47.0983" lon="-1.32904">
        <ele>27.931</ele>
        <time>2015-09-11T14:43:24.875Z</time>
      </trkpt>
      <trkpt lat="47.09832" lon="-1.32911">
        <ele>27.955</ele>
        <time>2015-09-11T14:43:25.777Z</time>
      </trkpt>
      <trkpt lat="47.09834" lon="-1.32919">
        <ele>28.032</ele>
        <time>2015-09-11T14:43:26.98Z</time>
      </trkpt>
      <trkpt lat="47.09836" lon="-1.32926">
        <ele>28.158</ele>
        <time>2015-09-11T14:43:27.774Z</time>
      </trkpt>
      <trkpt lat="47.09837" lon="-1.32934">
        <ele>28.19</ele>
        <time>2015-09-11T14:43:28.778Z</time>
      </trkpt>
      <trkpt lat="47.0984" lon="-1.32941">
        <ele>28.254</ele>
        <time>2015-09-11T14:43:29.745Z</time>
      </trkpt>
      <trkpt lat="47.09842" lon="-1.32948">
        <ele>28.308</ele>
        <time>2015-09-11T14:43:30.915Z</time>
      </trkpt>
      <trkpt lat="47.09844" lon="-1.32955">
        <ele>28.395</ele>
        <time>2015-09-11T14:43:31.778Z</time>
      </trkpt>
      <trkpt lat="47.09847" lon="-1.32961">
        <ele>28.488</ele>
        <time>2015-09-11T14:43:32.911Z</time>
      </trkpt>
      <trkpt lat="47.09849" lon="-1.32968">
        <ele>28.578</ele>
        <time>2015-09-11T14:43:33.776Z</time>
      </trkpt>
      <trkpt lat="47.09853" lon="-1.32974">
        <ele>28.694</ele>
        <time>2015-09-11T14:43:34.779Z</time>
      </trkpt>
      <trkpt lat="47.09855" lon="-1.32981">
        <ele>28.784</ele>
        <time>2015-09-11T14:43:35.751Z</time>
      </trkpt>
      <trkpt lat="47.09859" lon="-1.32988">
        <ele>28.924</ele>
        <time>2015-09-11T14:43:36.913Z</time>
      </trkpt>
      <trkpt lat="47.09862" lon="-1.32994">
        <ele>29.017</ele>
        <time>2015-09-11T14:43:37.779Z</time>
      </trkpt>
      <trkpt lat="47.09864" lon="-1.32999">
        <ele>29.114</ele>
        <time>2015-09-11T14:43:38.947Z</time>
      </trkpt>
      <trkpt lat="47.09867" lon="-1.33006">
        <ele>28.982</ele>
        <time>2015-09-11T14:43:39.774Z</time>
      </trkpt>
      <trkpt lat="47.09869" lon="-1.33013">
        <ele>28.838</ele>
        <time>2015-09-11T14:43:40.916Z</time>
      </trkpt>
      <trkpt lat="47.09872" lon="-1.3302">
        <ele>28.686</ele>
        <time>2015-09-11T14:43:41.773Z</time>
      </trkpt>
      <trkpt lat="47.09874" lon="-1.33026">
        <ele>28.524</ele>
        <time>2015-09-11T14:43:43.055Z</time>
      </trkpt>
      <trkpt lat="47.09876" lon="-1.33034">
        <ele>28.443</ele>
        <time>2015-09-11T14:43:43.746Z</time>
      </trkpt>
      <trkpt lat="47.09878" lon="-1.33041">
        <ele>28.413</ele>
        <time>2015-09-11T14:43:44.778Z</time>
      </trkpt>
      <trkpt lat="47.0988" lon="-1.33049">
        <ele>28.409</ele>
        <time>2015-09-11T14:43:45.908Z</time>
      </trkpt>
      <trkpt lat="47.0988" lon="-1.33057">
        <ele>28.32</ele>
        <time>2015-09-11T14:43:46.785Z</time>
      </trkpt>
      <trkpt lat="47.0988" lon="-1.33064">
        <ele>28.159</ele>
        <time>2015-09-11T14:43:47.75Z</time>
      </trkpt>
      <trkpt lat="47.0988" lon="-1.33071">
        <ele>27.984</ele>
        <time>2015-09-11T14:43:49.003Z</time>
      </trkpt>
      <trkpt lat="47.0988" lon="-1.33077">
        <ele>27.848</ele>
        <time>2015-09-11T14:43:49.781Z</time>
      </trkpt>
      <trkpt lat="47.0988" lon="-1.33084">
        <ele>27.666</ele>
        <time>2015-09-11T14:43:50.904Z</time>
      </trkpt>
      <trkpt lat="47.09879" lon="-1.33091">
        <ele>27.644</ele>
        <time>2015-09-11T14:43:51.78Z</time>
      </trkpt>
      <trkpt lat="47.09877" lon="-1.33103">
        <ele>27.586</ele>
        <time>2015-09-11T14:43:53.793Z</time>
      </trkpt>
      <trkpt lat="47.09876" lon="-1.3311">
        <ele>27.532</ele>
        <time>2015-09-11T14:43:54.745Z</time>
      </trkpt>
      <trkpt lat="47.09875" lon="-1.33117">
        <ele>27.493</ele>
        <time>2015-09-11T14:43:55.9Z</time>
      </trkpt>
      <trkpt lat="47.09874" lon="-1.33124">
        <ele>27.478</ele>
        <time>2015-09-11T14:43:56.775Z</time>
      </trkpt>
      <trkpt lat="47.09873" lon="-1.33131">
        <ele>27.428</ele>
        <time>2015-09-11T14:43:57.788Z</time>
      </trkpt>
      <trkpt lat="47.09871" lon="-1.33139">
        <ele>27.352</ele>
        <time>2015-09-11T14:43:58.744Z</time>
      </trkpt>
      <trkpt lat="47.09868" lon="-1.3315">
        <ele>27.348</ele>
        <time>2015-09-11T14:44:00.899Z</time>
      </trkpt>
      <trkpt lat="47.09866" lon="-1.33157">
        <ele>27.31</ele>
        <time>2015-09-11T14:44:01.773Z</time>
      </trkpt>
      <trkpt lat="47.09864" lon="-1.33164">
        <ele>27.171</ele>
        <time>2015-09-11T14:44:02.922Z</time>
      </trkpt>
      <trkpt lat="47.09862" lon="-1.3317">
        <ele>27.321</ele>
        <time>2015-09-11T14:44:03.772Z</time>
      </trkpt>
      <trkpt lat="47.0986" lon="-1.33177">
        <ele>27.758</ele>
        <time>2015-09-11T14:44:04.901Z</time>
      </trkpt>
      <trkpt lat="47.09857" lon="-1.33184">
        <ele>28.27</ele>
        <time>2015-09-11T14:44:05.776Z</time>
      </trkpt>
      <trkpt lat="47.09856" lon="-1.3319">
        <ele>28.694</ele>
        <time>2015-09-11T14:44:06.898Z</time>
      </trkpt>
      <trkpt lat="47.09854" lon="-1.33197">
        <ele>29.085</ele>
        <time>2015-09-11T14:44:07.779Z</time>
      </trkpt>
      <trkpt lat="47.09852" lon="-1.33204">
        <ele>29.33</ele>
        <time>2015-09-11T14:44:08.788Z</time>
      </trkpt>
      <trkpt lat="47.0985" lon="-1.33211">
        <ele>29.578</ele>
        <time>2015-09-11T14:44:09.751Z</time>
      </trkpt>
      <trkpt lat="47.09849" lon="-1.33218">
        <ele>29.837</ele>
        <time>2015-09-11T14:44:10.914Z</time>
      </trkpt>
      <trkpt lat="47.09848" lon="-1.33226">
        <ele>30.118</ele>
        <time>2015-09-11T14:44:11.777Z</time>
      </trkpt>
      <trkpt lat="47.09847" lon="-1.33234">
        <ele>30.424</ele>
        <time>2015-09-11T14:44:12.91Z</time>
      </trkpt>
      <trkpt lat="47.09846" lon="-1.33241">
        <ele>30.662</ele>
        <time>2015-09-11T14:44:13.776Z</time>
      </trkpt>
      <trkpt lat="47.09846" lon="-1.33248">
        <ele>30.942</ele>
        <time>2015-09-11T14:44:14.977Z</time>
      </trkpt>
      <trkpt lat="47.09846" lon="-1.33255">
        <ele>30.816</ele>
        <time>2015-09-11T14:44:15.774Z</time>
      </trkpt>
      <trkpt lat="47.09847" lon="-1.33262">
        <ele>30.572</ele>
        <time>2015-09-11T14:44:16.916Z</time>
      </trkpt>
      <trkpt lat="47.09848" lon="-1.33269">
        <ele>30.316</ele>
        <time>2015-09-11T14:44:17.773Z</time>
      </trkpt>
      <trkpt lat="47.0985" lon="-1.33275">
        <ele>30.093</ele>
        <time>2015-09-11T14:44:19.257Z</time>
      </trkpt>
      <trkpt lat="47.09852" lon="-1.33285">
        <ele>29.829</ele>
        <time>2015-09-11T14:44:19.773Z</time>
      </trkpt>
      <trkpt lat="47.09854" lon="-1.33292">
        <ele>29.624</ele>
        <time>2015-09-11T14:44:20.917Z</time>
      </trkpt>
      <trkpt lat="47.09858" lon="-1.33297">
        <ele>29.39</ele>
        <time>2015-09-11T14:44:21.775Z</time>
      </trkpt>
      <trkpt lat="47.09861" lon="-1.33305">
        <ele>29.034</ele>
        <time>2015-09-11T14:44:22.889Z</time>
      </trkpt>
      <trkpt lat="47.09863" lon="-1.33312">
        <ele>29</ele>
        <time>2015-09-11T14:44:23.775Z</time>
      </trkpt>
      <trkpt lat="47.09866" lon="-1.33317">
        <ele>29</ele>
        <time>2015-09-11T14:44:24.779Z</time>
      </trkpt>
      <trkpt lat="47.09869" lon="-1.33325">
        <ele>29</ele>
        <time>2015-09-11T14:44:25.75Z</time>
      </trkpt>
      <trkpt lat="47.09872" lon="-1.33332">
        <ele>29</ele>
        <time>2015-09-11T14:44:26.908Z</time>
      </trkpt>
      <trkpt lat="47.09874" lon="-1.33339">
        <ele>29.102</ele>
        <time>2015-09-11T14:44:27.783Z</time>
      </trkpt>
      <trkpt lat="47.09877" lon="-1.33346">
        <ele>29.191</ele>
        <time>2015-09-11T14:44:28.836Z</time>
      </trkpt>
      <trkpt lat="47.0988" lon="-1.33352">
        <ele>29.227</ele>
        <time>2015-09-11T14:44:29.75Z</time>
      </trkpt>
      <trkpt lat="47.09882" lon="-1.33359">
        <ele>29.24</ele>
        <time>2015-09-11T14:44:31.008Z</time>
      </trkpt>
      <trkpt lat="47.09885" lon="-1.33365">
        <ele>29.137</ele>
        <time>2015-09-11T14:44:31.746Z</time>
      </trkpt>
      <trkpt lat="47.09887" lon="-1.33372">
        <ele>29.048</ele>
        <time>2015-09-11T14:44:32.78Z</time>
      </trkpt>
      <trkpt lat="47.09889" lon="-1.33378">
        <ele>29.018</ele>
        <time>2015-09-11T14:44:33.776Z</time>
      </trkpt>
      <trkpt lat="47.09892" lon="-1.33385">
        <ele>29.116</ele>
        <time>2015-09-11T14:44:34.921Z</time>
      </trkpt>
      <trkpt lat="47.09894" lon="-1.3339">
        <ele>29.177</ele>
        <time>2015-09-11T14:44:35.747Z</time>
      </trkpt>
      <trkpt lat="47.09897" lon="-1.33398">
        <ele>29.274</ele>
        <time>2015-09-11T14:44:36.78Z</time>
      </trkpt>
      <trkpt lat="47.09899" lon="-1.33405">
        <ele>29.35</ele>
        <time>2015-09-11T14:44:37.775Z</time>
      </trkpt>
      <trkpt lat="47.09902" lon="-1.33417">
        <ele>29.486</ele>
        <time>2015-09-11T14:44:39.782Z</time>
      </trkpt>
      <trkpt lat="47.09904" lon="-1.33425">
        <ele>29.428</ele>
        <time>2015-09-11T14:44:40.777Z</time>
      </trkpt>
      <trkpt lat="47.09907" lon="-1.33432">
        <ele>29.427</ele>
        <time>2015-09-11T14:44:41.78Z</time>
      </trkpt>
      <trkpt lat="47.09909" lon="-1.33439">
        <ele>29.505</ele>
        <time>2015-09-11T14:44:42.745Z</time>
      </trkpt>
      <trkpt lat="47.09912" lon="-1.33446">
        <ele>29.65</ele>
        <time>2015-09-11T14:44:43.902Z</time>
      </trkpt>
      <trkpt lat="47.09915" lon="-1.33451">
        <ele>29.858</ele>
        <time>2015-09-11T14:44:44.771Z</time>
      </trkpt>
      <trkpt lat="47.09919" lon="-1.33461">
        <ele>30.088</ele>
        <time>2015-09-11T14:44:46.915Z</time>
      </trkpt>
      <trkpt lat="47.09922" lon="-1.33467">
        <ele>30.188</ele>
        <time>2015-09-11T14:44:47.775Z</time>
      </trkpt>
      <trkpt lat="47.09925" lon="-1.33473">
        <ele>30.293</ele>
        <time>2015-09-11T14:44:48.898Z</time>
      </trkpt>
      <trkpt lat="47.09927" lon="-1.3348">
        <ele>30.361</ele>
        <time>2015-09-11T14:44:49.775Z</time>
      </trkpt>
      <trkpt lat="47.09929" lon="-1.33486">
        <ele>30.444</ele>
        <time>2015-09-11T14:44:50.778Z</time>
      </trkpt>
      <trkpt lat="47.09932" lon="-1.33493">
        <ele>30.559</ele>
        <time>2015-09-11T14:44:51.746Z</time>
      </trkpt>
      <trkpt lat="47.09937" lon="-1.33502">
        <ele>30.664</ele>
        <time>2015-09-11T14:44:53.902Z</time>
      </trkpt>
      <trkpt lat="47.09939" lon="-1.33508">
        <ele>30.53</ele>
        <time>2015-09-11T14:44:54.771Z</time>
      </trkpt>
      <trkpt lat="47.09942" lon="-1.33514">
        <ele>30.383</ele>
        <time>2015-09-11T14:44:55.781Z</time>
      </trkpt>
      <trkpt lat="47.09944" lon="-1.33521">
        <ele>30.246</ele>
        <time>2015-09-11T14:44:56.748Z</time>
      </trkpt>
      <trkpt lat="47.09946" lon="-1.33529">
        <ele>30</ele>
        <time>2015-09-11T14:44:57.948Z</time>
      </trkpt>
      <trkpt lat="47.09948" lon="-1.33536">
        <ele>30</ele>
        <time>2015-09-11T14:44:58.772Z</time>
      </trkpt>
      <trkpt lat="47.0995" lon="-1.33543">
        <ele>30</ele>
        <time>2015-09-11T14:44:59.779Z</time>
      </trkpt>
      <trkpt lat="47.09952" lon="-1.33551">
        <ele>30</ele>
        <time>2015-09-11T14:45:00.752Z</time>
      </trkpt>
      <trkpt lat="47.09953" lon="-1.33559">
        <ele>30</ele>
        <time>2015-09-11T14:45:01.975Z</time>
      </trkpt>
      <trkpt lat="47.09954" lon="-1.33568">
        <ele>30</ele>
        <time>2015-09-11T14:45:02.782Z</time>
      </trkpt>
      <trkpt lat="47.09955" lon="-1.33576">
        <ele>30</ele>
        <time>2015-09-11T14:45:03.98Z</time>
      </trkpt>
      <trkpt lat="47.09954" lon="-1.33585">
        <ele>30</ele>
        <time>2015-09-11T14:45:04.764Z</time>
      </trkpt>
      <trkpt lat="47.09953" lon="-1.33594">
        <ele>30</ele>
        <time>2015-09-11T14:45:05.899Z</time>
      </trkpt>
      <trkpt lat="47.09952" lon="-1.33604">
        <ele>30</ele>
        <time>2015-09-11T14:45:06.781Z</time>
      </trkpt>
      <trkpt lat="47.0995" lon="-1.33612">
        <ele>29.975</ele>
        <time>2015-09-11T14:45:07.982Z</time>
      </trkpt>
      <trkpt lat="47.09949" lon="-1.33622">
        <ele>29.73</ele>
        <time>2015-09-11T14:45:08.778Z</time>
      </trkpt>
      <trkpt lat="47.09947" lon="-1.3363">
        <ele>29.424</ele>
        <time>2015-09-11T14:45:09.783Z</time>
      </trkpt>
      <trkpt lat="47.09945" lon="-1.33639">
        <ele>29.029</ele>
        <time>2015-09-11T14:45:10.746Z</time>
      </trkpt>
      <trkpt lat="47.09943" lon="-1.33647">
        <ele>28.91</ele>
        <time>2015-09-11T14:45:11.915Z</time>
      </trkpt>
      <trkpt lat="47.09941" lon="-1.33654">
        <ele>28.819</ele>
        <time>2015-09-11T14:45:12.766Z</time>
      </trkpt>
      <trkpt lat="47.09938" lon="-1.33662">
        <ele>28.582</ele>
        <time>2015-09-11T14:45:13.787Z</time>
      </trkpt>
      <trkpt lat="47.09936" lon="-1.33669">
        <ele>28.315</ele>
        <time>2015-09-11T14:45:14.747Z</time>
      </trkpt>
      <trkpt lat="47.09934" lon="-1.33675">
        <ele>28.053</ele>
        <time>2015-09-11T14:45:15.935Z</time>
      </trkpt>
      <trkpt lat="47.09932" lon="-1.33682">
        <ele>27.803</ele>
        <time>2015-09-11T14:45:16.775Z</time>
      </trkpt>
      <trkpt lat="47.0993" lon="-1.33689">
        <ele>27.568</ele>
        <time>2015-09-11T14:45:17.785Z</time>
      </trkpt>
      <trkpt lat="47.09928" lon="-1.33696">
        <ele>27.422</ele>
        <time>2015-09-11T14:45:18.746Z</time>
      </trkpt>
      <trkpt lat="47.09927" lon="-1.33703">
        <ele>27.379</ele>
        <time>2015-09-11T14:45:20.059Z</time>
      </trkpt>
      <trkpt lat="47.09925" lon="-1.3371">
        <ele>27.314</ele>
        <time>2015-09-11T14:45:20.745Z</time>
      </trkpt>
      <trkpt lat="47.09924" lon="-1.33717">
        <ele>27.26</ele>
        <time>2015-09-11T14:45:21.778Z</time>
      </trkpt>
      <trkpt lat="47.09922" lon="-1.33724">
        <ele>27.178</ele>
        <time>2015-09-11T14:45:22.779Z</time>
      </trkpt>
      <trkpt lat="47.0992" lon="-1.33731">
        <ele>27.124</ele>
        <time>2015-09-11T14:45:23.901Z</time>
      </trkpt>
      <trkpt lat="47.09918" lon="-1.3374">
        <ele>27.052</ele>
        <time>2015-09-11T14:45:24.775Z</time>
      </trkpt>
      <trkpt lat="47.09916" lon="-1.33748">
        <ele>27</ele>
        <time>2015-09-11T14:45:25.956Z</time>
      </trkpt>
      <trkpt lat="47.09915" lon="-1.33755">
        <ele>27.012</ele>
        <time>2015-09-11T14:45:26.776Z</time>
      </trkpt>
      <trkpt lat="47.09914" lon="-1.33762">
        <ele>27.047</ele>
        <time>2015-09-11T14:45:27.799Z</time>
      </trkpt>
      <trkpt lat="47.09912" lon="-1.33768">
        <ele>27.11</ele>
        <time>2015-09-11T14:45:28.746Z</time>
      </trkpt>
      <trkpt lat="47.0991" lon="-1.33777">
        <ele>27.226</ele>
        <time>2015-09-11T14:45:29.889Z</time>
      </trkpt>
      <trkpt lat="47.09908" lon="-1.33784">
        <ele>27.456</ele>
        <time>2015-09-11T14:45:30.777Z</time>
      </trkpt>
      <trkpt lat="47.09905" lon="-1.33792">
        <ele>27.704</ele>
        <time>2015-09-11T14:45:31.775Z</time>
      </trkpt>
      <trkpt lat="47.09903" lon="-1.338">
        <ele>27.897</ele>
        <time>2015-09-11T14:45:32.746Z</time>
      </trkpt>
      <trkpt lat="47.099" lon="-1.33808">
        <ele>28.032</ele>
        <time>2015-09-11T14:45:33.902Z</time>
      </trkpt>
      <trkpt lat="47.09897" lon="-1.33815">
        <ele>28.096</ele>
        <time>2015-09-11T14:45:34.77Z</time>
      </trkpt>
      <trkpt lat="47.09894" lon="-1.33823">
        <ele>28.118</ele>
        <time>2015-09-11T14:45:35.915Z</time>
      </trkpt>
      <trkpt lat="47.09891" lon="-1.33831">
        <ele>28.071</ele>
        <time>2015-09-11T14:45:36.78Z</time>
      </trkpt>
      <trkpt lat="47.09887" lon="-1.33838">
        <ele>27.989</ele>
        <time>2015-09-11T14:45:38.027Z</time>
      </trkpt>
      <trkpt lat="47.09882" lon="-1.33844">
        <ele>27.908</ele>
        <time>2015-09-11T14:45:38.75Z</time>
      </trkpt>
      <trkpt lat="47.09879" lon="-1.33852">
        <ele>27.756</ele>
        <time>2015-09-11T14:45:39.779Z</time>
      </trkpt>
      <trkpt lat="47.09875" lon="-1.3386">
        <ele>27.529</ele>
        <time>2015-09-11T14:45:40.779Z</time>
      </trkpt>
      <trkpt lat="47.0987" lon="-1.33866">
        <ele>27.331</ele>
        <time>2015-09-11T14:45:41.935Z</time>
      </trkpt>
      <trkpt lat="47.09866" lon="-1.33873">
        <ele>27.169</ele>
        <time>2015-09-11T14:45:42.783Z</time>
      </trkpt>
      <trkpt lat="47.09861" lon="-1.33881">
        <ele>27</ele>
        <time>2015-09-11T14:45:43.778Z</time>
      </trkpt>
      <trkpt lat="47.09857" lon="-1.33888">
        <ele>26.845</ele>
        <time>2015-09-11T14:45:44.744Z</time>
      </trkpt>
      <trkpt lat="47.09852" lon="-1.33895">
        <ele>26.686</ele>
        <time>2015-09-11T14:45:45.91Z</time>
      </trkpt>
      <trkpt lat="47.09849" lon="-1.33902">
        <ele>26.55</ele>
        <time>2015-09-11T14:45:46.78Z</time>
      </trkpt>
      <trkpt lat="47.09845" lon="-1.33908">
        <ele>26.431</ele>
        <time>2015-09-11T14:45:47.784Z</time>
      </trkpt>
      <trkpt lat="47.09842" lon="-1.33917">
        <ele>26.32</ele>
        <time>2015-09-11T14:45:48.746Z</time>
      </trkpt>
      <trkpt lat="47.09839" lon="-1.33924">
        <ele>26.414</ele>
        <time>2015-09-11T14:45:49.81Z</time>
      </trkpt>
      <trkpt lat="47.09837" lon="-1.33933">
        <ele>26.639</ele>
        <time>2015-09-11T14:45:50.772Z</time>
      </trkpt>
      <trkpt lat="47.09837" lon="-1.33941">
        <ele>26.877</ele>
        <time>2015-09-11T14:45:51.778Z</time>
      </trkpt>
      <trkpt lat="47.09836" lon="-1.33949">
        <ele>27</ele>
        <time>2015-09-11T14:45:52.744Z</time>
      </trkpt>
      <trkpt lat="47.09835" lon="-1.33957">
        <ele>27</ele>
        <time>2015-09-11T14:45:54.416Z</time>
      </trkpt>
      <trkpt lat="47.09835" lon="-1.33964">
        <ele>27</ele>
        <time>2015-09-11T14:45:54.749Z</time>
      </trkpt>
      <trkpt lat="47.09834" lon="-1.33972">
        <ele>27</ele>
        <time>2015-09-11T14:45:55.815Z</time>
      </trkpt>
      <trkpt lat="47.09834" lon="-1.3398">
        <ele>27</ele>
        <time>2015-09-11T14:45:56.771Z</time>
      </trkpt>
      <trkpt lat="47.09834" lon="-1.33989">
        <ele>27</ele>
        <time>2015-09-11T14:45:57.914Z</time>
      </trkpt>
      <trkpt lat="47.09833" lon="-1.33997">
        <ele>27.001</ele>
        <time>2015-09-11T14:45:58.827Z</time>
      </trkpt>
      <trkpt lat="47.09833" lon="-1.34005">
        <ele>27.194</ele>
        <time>2015-09-11T14:45:59.779Z</time>
      </trkpt>
      <trkpt lat="47.09833" lon="-1.34013">
        <ele>27.482</ele>
        <time>2015-09-11T14:46:00.746Z</time>
      </trkpt>
      <trkpt lat="47.09832" lon="-1.34021">
        <ele>27.779</ele>
        <time>2015-09-11T14:46:01.925Z</time>
      </trkpt>
      <trkpt lat="47.09833" lon="-1.3403">
        <ele>28.08</ele>
        <time>2015-09-11T14:46:02.774Z</time>
      </trkpt>
      <trkpt lat="47.09833" lon="-1.34037">
        <ele>28.328</ele>
        <time>2015-09-11T14:46:04.016Z</time>
      </trkpt>
      <trkpt lat="47.09832" lon="-1.34045">
        <ele>28.631</ele>
        <time>2015-09-11T14:46:04.764Z</time>
      </trkpt>
      <trkpt lat="47.09831" lon="-1.34054">
        <ele>28.94</ele>
        <time>2015-09-11T14:46:05.788Z</time>
      </trkpt>
      <trkpt lat="47.09831" lon="-1.34061">
        <ele>29</ele>
        <time>2015-09-11T14:46:06.774Z</time>
      </trkpt>
      <trkpt lat="47.09831" lon="-1.34069">
        <ele>29</ele>
        <time>2015-09-11T14:46:07.78Z</time>
      </trkpt>
      <trkpt lat="47.0983" lon="-1.34075">
        <ele>29</ele>
        <time>2015-09-11T14:46:08.75Z</time>
      </trkpt>
      <trkpt lat="47.09831" lon="-1.34082">
        <ele>29</ele>
        <time>2015-09-11T14:46:09.95Z</time>
      </trkpt>
      <trkpt lat="47.09832" lon="-1.34088">
        <ele>29</ele>
        <time>2015-09-11T14:46:10.776Z</time>
      </trkpt>
      <trkpt lat="47.09834" lon="-1.34095">
        <ele>29</ele>
        <time>2015-09-11T14:46:11.787Z</time>
      </trkpt>
      <trkpt lat="47.09837" lon="-1.34102">
        <ele>29</ele>
        <time>2015-09-11T14:46:12.751Z</time>
      </trkpt>
      <trkpt lat="47.0984" lon="-1.34107">
        <ele>29</ele>
        <time>2015-09-11T14:46:14.054Z</time>
      </trkpt>
      <trkpt lat="47.09842" lon="-1.34113">
        <ele>29</ele>
        <time>2015-09-11T14:46:14.77Z</time>
      </trkpt>
      <trkpt lat="47.09845" lon="-1.34119">
        <ele>29</ele>
        <time>2015-09-11T14:46:15.778Z</time>
      </trkpt>
      <trkpt lat="47.09848" lon="-1.34124">
        <ele>29</ele>
        <time>2015-09-11T14:46:16.745Z</time>
      </trkpt>
      <trkpt lat="47.09851" lon="-1.3413">
        <ele>29</ele>
        <time>2015-09-11T14:46:17.898Z</time>
      </trkpt>
      <trkpt lat="47.09854" lon="-1.34137">
        <ele>29</ele>
        <time>2015-09-11T14:46:18.762Z</time>
      </trkpt>
      <trkpt lat="47.09857" lon="-1.34143">
        <ele>29</ele>
        <time>2015-09-11T14:46:19.887Z</time>
      </trkpt>
      <trkpt lat="47.09861" lon="-1.34149">
        <ele>29</ele>
        <time>2015-09-11T14:46:20.764Z</time>
      </trkpt>
      <trkpt lat="47.09864" lon="-1.34153">
        <ele>29.142</ele>
        <time>2015-09-11T14:46:21.919Z</time>
      </trkpt>
      <trkpt lat="47.09867" lon="-1.34159">
        <ele>29.365</ele>
        <time>2015-09-11T14:46:22.774Z</time>
      </trkpt>
      <trkpt lat="47.09869" lon="-1.34165">
        <ele>29.55</ele>
        <time>2015-09-11T14:46:23.768Z</time>
      </trkpt>
      <trkpt lat="47.09872" lon="-1.34171">
        <ele>29.866</ele>
        <time>2015-09-11T14:46:24.743Z</time>
      </trkpt>
      <trkpt lat="47.09874" lon="-1.34177">
        <ele>30.151</ele>
        <time>2015-09-11T14:46:25.993Z</time>
      </trkpt>
      <trkpt lat="47.09877" lon="-1.34182">
        <ele>30.361</ele>
        <time>2015-09-11T14:46:26.784Z</time>
      </trkpt>
      <trkpt lat="47.09882" lon="-1.34192">
        <ele>30.726</ele>
        <time>2015-09-11T14:46:28.784Z</time>
      </trkpt>
      <trkpt lat="47.09884" lon="-1.34197">
        <ele>30.962</ele>
        <time>2015-09-11T14:46:29.773Z</time>
      </trkpt>
      <trkpt lat="47.09889" lon="-1.34205">
        <ele>31.755</ele>
        <time>2015-09-11T14:46:31.921Z</time>
      </trkpt>
      <trkpt lat="47.09891" lon="-1.3421">
        <ele>32.116</ele>
        <time>2015-09-11T14:46:32.776Z</time>
      </trkpt>
      <trkpt lat="47.09896" lon="-1.3422">
        <ele>32.855</ele>
        <time>2015-09-11T14:46:34.956Z</time>
      </trkpt>
      <trkpt lat="47.09899" lon="-1.34225">
        <ele>33</ele>
        <time>2015-09-11T14:46:35.781Z</time>
      </trkpt>
      <trkpt lat="47.09903" lon="-1.34234">
        <ele>33</ele>
        <time>2015-09-11T14:46:37.783Z</time>
      </trkpt>
      <trkpt lat="47.09905" lon="-1.34239">
        <ele>33</ele>
        <time>2015-09-11T14:46:38.765Z</time>
      </trkpt>
      <trkpt lat="47.0991" lon="-1.34249">
        <ele>33</ele>
        <time>2015-09-11T14:46:40.902Z</time>
      </trkpt>
      <trkpt lat="47.09913" lon="-1.34254">
        <ele>33.023</ele>
        <time>2015-09-11T14:46:41.77Z</time>
      </trkpt>
      <trkpt lat="47.09918" lon="-1.34264">
        <ele>33.044</ele>
        <time>2015-09-11T14:46:43.901Z</time>
      </trkpt>
      <trkpt lat="47.09921" lon="-1.34269">
        <ele>33.138</ele>
        <time>2015-09-11T14:46:44.775Z</time>
      </trkpt>
      <trkpt lat="47.09926" lon="-1.34278">
        <ele>33.337</ele>
        <time>2015-09-11T14:46:46.97Z</time>
      </trkpt>
      <trkpt lat="47.09928" lon="-1.34284">
        <ele>33.53</ele>
        <time>2015-09-11T14:46:47.809Z</time>
      </trkpt>
      <trkpt lat="47.09933" lon="-1.34294">
        <ele>33.821</ele>
        <time>2015-09-11T14:46:49.794Z</time>
      </trkpt>
      <trkpt lat="47.09935" lon="-1.34299">
        <ele>33.921</ele>
        <time>2015-09-11T14:46:50.748Z</time>
      </trkpt>
      <trkpt lat="47.09939" lon="-1.3431">
        <ele>34.153</ele>
        <time>2015-09-11T14:46:52.964Z</time>
      </trkpt>
      <trkpt lat="47.09941" lon="-1.34315">
        <ele>34.336</ele>
        <time>2015-09-11T14:46:53.781Z</time>
      </trkpt>
      <trkpt lat="47.09945" lon="-1.34326">
        <ele>34.738</ele>
        <time>2015-09-11T14:46:55.897Z</time>
      </trkpt>
      <trkpt lat="47.09946" lon="-1.34331">
        <ele>35.001</ele>
        <time>2015-09-11T14:46:56.777Z</time>
      </trkpt>
      <trkpt lat="47.0995" lon="-1.34343">
        <ele>35.462</ele>
        <time>2015-09-11T14:46:58.905Z</time>
      </trkpt>
      <trkpt lat="47.09952" lon="-1.34348">
        <ele>35.658</ele>
        <time>2015-09-11T14:46:59.766Z</time>
      </trkpt>
      <trkpt lat="47.09955" lon="-1.34359">
        <ele>35.962</ele>
        <time>2015-09-11T14:47:01.787Z</time>
      </trkpt>
      <trkpt lat="47.09957" lon="-1.34365">
        <ele>36.058</ele>
        <time>2015-09-11T14:47:02.764Z</time>
      </trkpt>
      <trkpt lat="47.0996" lon="-1.34375">
        <ele>36.287</ele>
        <time>2015-09-11T14:47:04.778Z</time>
      </trkpt>
      <trkpt lat="47.09962" lon="-1.3438">
        <ele>36.437</ele>
        <time>2015-09-11T14:47:05.78Z</time>
      </trkpt>
      <trkpt lat="47.09966" lon="-1.34391">
        <ele>36.758</ele>
        <time>2015-09-11T14:47:07.977Z</time>
      </trkpt>
      <trkpt lat="47.09967" lon="-1.34396">
        <ele>36.823</ele>
        <time>2015-09-11T14:47:08.774Z</time>
      </trkpt>
      <trkpt lat="47.0997" lon="-1.34407">
        <ele>36.931</ele>
        <time>2015-09-11T14:47:10.78Z</time>
      </trkpt>
      <trkpt lat="47.09972" lon="-1.34413">
        <ele>36.988</ele>
        <time>2015-09-11T14:47:11.746Z</time>
      </trkpt>
      <trkpt lat="47.09976" lon="-1.34424">
        <ele>36.908</ele>
        <time>2015-09-11T14:47:13.892Z</time>
      </trkpt>
      <trkpt lat="47.09977" lon="-1.34429">
        <ele>36.822</ele>
        <time>2015-09-11T14:47:14.78Z</time>
      </trkpt>
      <trkpt lat="47.09981" lon="-1.34441">
        <ele>36.715</ele>
        <time>2015-09-11T14:47:16.944Z</time>
      </trkpt>
      <trkpt lat="47.09983" lon="-1.34447">
        <ele>36.785</ele>
        <time>2015-09-11T14:47:17.765Z</time>
      </trkpt>
      <trkpt lat="47.09985" lon="-1.34455">
        <ele>37.071</ele>
        <time>2015-09-11T14:47:18.904Z</time>
      </trkpt>
      <trkpt lat="47.09986" lon="-1.34461">
        <ele>37.308</ele>
        <time>2015-09-11T14:47:19.764Z</time>
      </trkpt>
      <trkpt lat="47.09988" lon="-1.34467">
        <ele>37.607</ele>
        <time>2015-09-11T14:47:20.777Z</time>
      </trkpt>
      <trkpt lat="47.0999" lon="-1.34473">
        <ele>37.97</ele>
        <time>2015-09-11T14:47:21.746Z</time>
      </trkpt>
      <trkpt lat="47.09993" lon="-1.34485">
        <ele>38.729</ele>
        <time>2015-09-11T14:47:24.074Z</time>
      </trkpt>
      <trkpt lat="47.09995" lon="-1.34491">
        <ele>39.114</ele>
        <time>2015-09-11T14:47:24.771Z</time>
      </trkpt>
      <trkpt lat="47.09997" lon="-1.34497">
        <ele>39.561</ele>
        <time>2015-09-11T14:47:25.888Z</time>
      </trkpt>
      <trkpt lat="47.09999" lon="-1.34503">
        <ele>39.88</ele>
        <time>2015-09-11T14:47:26.791Z</time>
      </trkpt>
      <trkpt lat="47.10003" lon="-1.34514">
        <ele>40.054</ele>
        <time>2015-09-11T14:47:28.827Z</time>
      </trkpt>
      <trkpt lat="47.10005" lon="-1.34519">
        <ele>40.124</ele>
        <time>2015-09-11T14:47:29.762Z</time>
      </trkpt>
      <trkpt lat="47.10009" lon="-1.3453">
        <ele>40.317</ele>
        <time>2015-09-11T14:47:31.78Z</time>
      </trkpt>
      <trkpt lat="47.10011" lon="-1.34535">
        <ele>40.385</ele>
        <time>2015-09-11T14:47:32.775Z</time>
      </trkpt>
      <trkpt lat="47.10014" lon="-1.34546">
        <ele>40.515</ele>
        <time>2015-09-11T14:47:34.78Z</time>
      </trkpt>
      <trkpt lat="47.10016" lon="-1.34551">
        <ele>40.59</ele>
        <time>2015-09-11T14:47:35.779Z</time>
      </trkpt>
      <trkpt lat="47.10021" lon="-1.34561">
        <ele>40.718</ele>
        <time>2015-09-11T14:47:37.966Z</time>
      </trkpt>
      <trkpt lat="47.10023" lon="-1.34567">
        <ele>40.745</ele>
        <time>2015-09-11T14:47:38.774Z</time>
      </trkpt>
      <trkpt lat="47.10025" lon="-1.34579">
        <ele>40.842</ele>
        <time>2015-09-11T14:47:40.784Z</time>
      </trkpt>
      <trkpt lat="47.10026" lon="-1.34584">
        <ele>40.85</ele>
        <time>2015-09-11T14:47:41.755Z</time>
      </trkpt>
      <trkpt lat="47.10026" lon="-1.34596">
        <ele>40.865</ele>
        <time>2015-09-11T14:47:43.78Z</time>
      </trkpt>
      <trkpt lat="47.10025" lon="-1.34602">
        <ele>40.822</ele>
        <time>2015-09-11T14:47:44.772Z</time>
      </trkpt>
      <trkpt lat="47.10025" lon="-1.34614">
        <ele>40.707</ele>
        <time>2015-09-11T14:47:46.98Z</time>
      </trkpt>
      <trkpt lat="47.10024" lon="-1.34621">
        <ele>40.46</ele>
        <time>2015-09-11T14:47:47.745Z</time>
      </trkpt>
      <trkpt lat="47.10022" lon="-1.34633">
        <ele>39.974</ele>
        <time>2015-09-11T14:47:49.868Z</time>
      </trkpt>
      <trkpt lat="47.10021" lon="-1.34639">
        <ele>39.763</ele>
        <time>2015-09-11T14:47:50.772Z</time>
      </trkpt>
      <trkpt lat="47.10017" lon="-1.3465">
        <ele>39.619</ele>
        <time>2015-09-11T14:47:52.781Z</time>
      </trkpt>
      <trkpt lat="47.10014" lon="-1.34654">
        <ele>39.5</ele>
        <time>2015-09-11T14:47:53.745Z</time>
      </trkpt>
      <trkpt lat="47.10008" lon="-1.34657">
        <ele>39.274</ele>
        <time>2015-09-11T14:47:55.036Z</time>
      </trkpt>
      <trkpt lat="47.10003" lon="-1.34661">
        <ele>39.104</ele>
        <time>2015-09-11T14:47:55.779Z</time>
      </trkpt>
      <trkpt lat="47.09996" lon="-1.34667">
        <ele>38.842</ele>
        <time>2015-09-11T14:47:57.943Z</time>
      </trkpt>
      <trkpt lat="47.09994" lon="-1.3467">
        <ele>38.669</ele>
        <time>2015-09-11T14:47:58.776Z</time>
      </trkpt>
      <trkpt lat="47.09989" lon="-1.34676">
        <ele>38.412</ele>
        <time>2015-09-11T14:47:59.776Z</time>
      </trkpt>
      <trkpt lat="47.09986" lon="-1.3468">
        <ele>38.242</ele>
        <time>2015-09-11T14:48:00.744Z</time>
      </trkpt>
      <trkpt lat="47.09982" lon="-1.34687">
        <ele>38.102</ele>
        <time>2015-09-11T14:48:01.883Z</time>
      </trkpt>
      <trkpt lat="47.09979" lon="-1.34691">
        <ele>38.033</ele>
        <time>2015-09-11T14:48:02.777Z</time>
      </trkpt>
      <trkpt lat="47.09976" lon="-1.34698">
        <ele>38</ele>
        <time>2015-09-11T14:48:03.781Z</time>
      </trkpt>
      <trkpt lat="47.09974" lon="-1.34704">
        <ele>38</ele>
        <time>2015-09-11T14:48:04.751Z</time>
      </trkpt>
      <trkpt lat="47.09971" lon="-1.3471">
        <ele>38</ele>
        <time>2015-09-11T14:48:05.91Z</time>
      </trkpt>
      <trkpt lat="47.09969" lon="-1.34716">
        <ele>38</ele>
        <time>2015-09-11T14:48:06.867Z</time>
      </trkpt>
      <trkpt lat="47.09968" lon="-1.34722">
        <ele>38</ele>
        <time>2015-09-11T14:48:07.786Z</time>
      </trkpt>
      <trkpt lat="47.09966" lon="-1.34729">
        <ele>38</ele>
        <time>2015-09-11T14:48:08.745Z</time>
      </trkpt>
      <trkpt lat="47.09963" lon="-1.34735">
        <ele>38</ele>
        <time>2015-09-11T14:48:09.911Z</time>
      </trkpt>
      <trkpt lat="47.0996" lon="-1.34742">
        <ele>38</ele>
        <time>2015-09-11T14:48:10.837Z</time>
      </trkpt>
      <trkpt lat="47.09956" lon="-1.34746">
        <ele>38</ele>
        <time>2015-09-11T14:48:11.927Z</time>
      </trkpt>
      <trkpt lat="47.09952" lon="-1.34749">
        <ele>38</ele>
        <time>2015-09-11T14:48:12.773Z</time>
      </trkpt>
      <trkpt lat="47.09948" lon="-1.34752">
        <ele>38</ele>
        <time>2015-09-11T14:48:13.919Z</time>
      </trkpt>
      <trkpt lat="47.09943" lon="-1.34756">
        <ele>37.99</ele>
        <time>2015-09-11T14:48:14.774Z</time>
      </trkpt>
      <trkpt lat="47.09939" lon="-1.34761">
        <ele>37.923</ele>
        <time>2015-09-11T14:48:15.949Z</time>
      </trkpt>
      <trkpt lat="47.09934" lon="-1.34763">
        <ele>37.822</ele>
        <time>2015-09-11T14:48:16.783Z</time>
      </trkpt>
      <trkpt lat="47.09929" lon="-1.34765">
        <ele>37.702</ele>
        <time>2015-09-11T14:48:17.895Z</time>
      </trkpt>
      <trkpt lat="47.09924" lon="-1.34766">
        <ele>37.565</ele>
        <time>2015-09-11T14:48:18.764Z</time>
      </trkpt>
      <trkpt lat="47.0992" lon="-1.34756">
        <ele>37.813</ele>
        <time>2015-09-11T14:48:19.777Z</time>
      </trkpt>
      <trkpt lat="47.09915" lon="-1.3475">
        <ele>37.986</ele>
        <time>2015-09-11T14:48:20.746Z</time>
      </trkpt>
      <trkpt lat="47.09912" lon="-1.34744">
        <ele>37.791</ele>
        <time>2015-09-11T14:48:21.783Z</time>
      </trkpt>
      <trkpt lat="47.09907" lon="-1.34738">
        <ele>37.561</ele>
        <time>2015-09-11T14:48:22.746Z</time>
      </trkpt>
      <trkpt lat="47.09903" lon="-1.34732">
        <ele>37.363</ele>
        <time>2015-09-11T14:48:23.953Z</time>
      </trkpt>
      <trkpt lat="47.09899" lon="-1.34727">
        <ele>37.168</ele>
        <time>2015-09-11T14:48:24.769Z</time>
      </trkpt>
      <trkpt lat="47.09895" lon="-1.34722">
        <ele>37</ele>
        <time>2015-09-11T14:48:25.912Z</time>
      </trkpt>
      <trkpt lat="47.09891" lon="-1.34717">
        <ele>37</ele>
        <time>2015-09-11T14:48:26.839Z</time>
      </trkpt>
      <trkpt lat="47.09887" lon="-1.34711">
        <ele>37</ele>
        <time>2015-09-11T14:48:27.783Z</time>
      </trkpt>
      <trkpt lat="47.09883" lon="-1.34705">
        <ele>37</ele>
        <time>2015-09-11T14:48:28.748Z</time>
      </trkpt>
      <trkpt lat="47.09879" lon="-1.34699">
        <ele>37</ele>
        <time>2015-09-11T14:48:29.772Z</time>
      </trkpt>
      <trkpt lat="47.09875" lon="-1.34695">
        <ele>37</ele>
        <time>2015-09-11T14:48:30.744Z</time>
      </trkpt>
      <trkpt lat="47.09869" lon="-1.3469">
        <ele>37</ele>
        <time>2015-09-11T14:48:31.973Z</time>
      </trkpt>
      <trkpt lat="47.09865" lon="-1.34687">
        <ele>37</ele>
        <time>2015-09-11T14:48:32.774Z</time>
      </trkpt>
      <trkpt lat="47.0986" lon="-1.34684">
        <ele>36.978</ele>
        <time>2015-09-11T14:48:33.888Z</time>
      </trkpt>
      <trkpt lat="47.09855" lon="-1.34682">
        <ele>36.881</ele>
        <time>2015-09-11T14:48:34.77Z</time>
      </trkpt>
      <trkpt lat="47.09849" lon="-1.34679">
        <ele>36.802</ele>
        <time>2015-09-11T14:48:35.905Z</time>
      </trkpt>
      <trkpt lat="47.09843" lon="-1.34678">
        <ele>36.741</ele>
        <time>2015-09-11T14:48:36.783Z</time>
      </trkpt>
      <trkpt lat="47.09839" lon="-1.34677">
        <ele>36.704</ele>
        <time>2015-09-11T14:48:37.907Z</time>
      </trkpt>
      <trkpt lat="47.09834" lon="-1.34677">
        <ele>36.633</ele>
        <time>2015-09-11T14:48:38.776Z</time>
      </trkpt>
      <trkpt lat="47.09825" lon="-1.34677">
        <ele>36.444</ele>
        <time>2015-09-11T14:48:40.914Z</time>
      </trkpt>
      <trkpt lat="47.09821" lon="-1.34678">
        <ele>36.317</ele>
        <time>2015-09-11T14:48:41.783Z</time>
      </trkpt>
      <trkpt lat="47.09816" lon="-1.3468">
        <ele>36.198</ele>
        <time>2015-09-11T14:48:42.779Z</time>
      </trkpt>
      <trkpt lat="47.09811" lon="-1.34682">
        <ele>36.092</ele>
        <time>2015-09-11T14:48:43.75Z</time>
      </trkpt>
      <trkpt lat="47.09805" lon="-1.34682">
        <ele>35.976</ele>
        <time>2015-09-11T14:48:44.876Z</time>
      </trkpt>
      <trkpt lat="47.098" lon="-1.34681">
        <ele>35.786</ele>
        <time>2015-09-11T14:48:45.778Z</time>
      </trkpt>
      <trkpt lat="47.09794" lon="-1.34681">
        <ele>35.588</ele>
        <time>2015-09-11T14:48:46.79Z</time>
      </trkpt>
      <trkpt lat="47.09788" lon="-1.34682">
        <ele>35.382</ele>
        <time>2015-09-11T14:48:47.746Z</time>
      </trkpt>
      <trkpt lat="47.09783" lon="-1.34683">
        <ele>35.17</ele>
        <time>2015-09-11T14:48:49.16Z</time>
      </trkpt>
      <trkpt lat="47.09777" lon="-1.34681">
        <ele>34.986</ele>
        <time>2015-09-11T14:48:49.747Z</time>
      </trkpt>
      <trkpt lat="47.09771" lon="-1.34681">
        <ele>34.752</ele>
        <time>2015-09-11T14:48:50.787Z</time>
      </trkpt>
      <trkpt lat="47.09765" lon="-1.34683">
        <ele>34.533</ele>
        <time>2015-09-11T14:48:51.767Z</time>
      </trkpt>
      <trkpt lat="47.09757" lon="-1.34683">
        <ele>34.256</ele>
        <time>2015-09-11T14:48:52.934Z</time>
      </trkpt>
      <trkpt lat="47.09751" lon="-1.34684">
        <ele>34.022</ele>
        <time>2015-09-11T14:48:53.772Z</time>
      </trkpt>
      <trkpt lat="47.09744" lon="-1.34683">
        <ele>34.138</ele>
        <time>2015-09-11T14:48:54.895Z</time>
      </trkpt>
      <trkpt lat="47.09737" lon="-1.34683">
        <ele>34.264</ele>
        <time>2015-09-11T14:48:55.776Z</time>
      </trkpt>
      <trkpt lat="47.0973" lon="-1.34683">
        <ele>34.422</ele>
        <time>2015-09-11T14:48:56.78Z</time>
      </trkpt>
      <trkpt lat="47.09722" lon="-1.34683">
        <ele>34.642</ele>
        <time>2015-09-11T14:48:57.779Z</time>
      </trkpt>
      <trkpt lat="47.09715" lon="-1.34683">
        <ele>35.241</ele>
        <time>2015-09-11T14:48:58.89Z</time>
      </trkpt>
      <trkpt lat="47.09708" lon="-1.34683">
        <ele>35.854</ele>
        <time>2015-09-11T14:48:59.773Z</time>
      </trkpt>
      <trkpt lat="47.09701" lon="-1.34682">
        <ele>36.442</ele>
        <time>2015-09-11T14:49:00.782Z</time>
      </trkpt>
      <trkpt lat="47.09695" lon="-1.34682">
        <ele>36.978</ele>
        <time>2015-09-11T14:49:01.751Z</time>
      </trkpt>
      <trkpt lat="47.09689" lon="-1.34682">
        <ele>37.094</ele>
        <time>2015-09-11T14:49:03.043Z</time>
      </trkpt>
      <trkpt lat="47.09683" lon="-1.34683">
        <ele>37.173</ele>
        <time>2015-09-11T14:49:03.765Z</time>
      </trkpt>
      <trkpt lat="47.09677" lon="-1.34683">
        <ele>37.262</ele>
        <time>2015-09-11T14:49:04.901Z</time>
      </trkpt>
      <trkpt lat="47.09672" lon="-1.34683">
        <ele>37.336</ele>
        <time>2015-09-11T14:49:05.776Z</time>
      </trkpt>
      <trkpt lat="47.09666" lon="-1.34683">
        <ele>37.395</ele>
        <time>2015-09-11T14:49:06.924Z</time>
      </trkpt>
      <trkpt lat="47.09661" lon="-1.34683">
        <ele>37.204</ele>
        <time>2015-09-11T14:49:07.783Z</time>
      </trkpt>
      <trkpt lat="47.09656" lon="-1.34684">
        <ele>36.996</ele>
        <time>2015-09-11T14:49:08.779Z</time>
      </trkpt>
      <trkpt lat="47.09651" lon="-1.34685">
        <ele>36.772</ele>
        <time>2015-09-11T14:49:09.744Z</time>
      </trkpt>
      <trkpt lat="47.09642" lon="-1.34687">
        <ele>36.391</ele>
        <time>2015-09-11T14:49:12.296Z</time>
      </trkpt>
      <trkpt lat="47.09638" lon="-1.34687">
        <ele>36.222</ele>
        <time>2015-09-11T14:49:12.745Z</time>
      </trkpt>
      <trkpt lat="47.09629" lon="-1.34685">
        <ele>35.973</ele>
        <time>2015-09-11T14:49:14.901Z</time>
      </trkpt>
      <trkpt lat="47.09625" lon="-1.34685">
        <ele>35.862</ele>
        <time>2015-09-11T14:49:15.773Z</time>
      </trkpt>
      <trkpt lat="47.09618" lon="-1.34685">
        <ele>35.592</ele>
        <time>2015-09-11T14:49:17.01Z</time>
      </trkpt>
      <trkpt lat="47.09612" lon="-1.34685">
        <ele>35.383</ele>
        <time>2015-09-11T14:49:17.774Z</time>
      </trkpt>
      <trkpt lat="47.09604" lon="-1.34686">
        <ele>35.487</ele>
        <time>2015-09-11T14:49:19.916Z</time>
      </trkpt>
      <trkpt lat="47.09599" lon="-1.34687">
        <ele>35.599</ele>
        <time>2015-09-11T14:49:20.78Z</time>
      </trkpt>
      <trkpt lat="47.09592" lon="-1.34687">
        <ele>35.786</ele>
        <time>2015-09-11T14:49:22.914Z</time>
      </trkpt>
      <trkpt lat="47.09587" lon="-1.34687">
        <ele>35.893</ele>
        <time>2015-09-11T14:49:24.18Z</time>
      </trkpt>
      <trkpt lat="47.0958" lon="-1.34688">
        <ele>36.027</ele>
        <time>2015-09-11T14:49:25.787Z</time>
      </trkpt>
      <trkpt lat="47.09575" lon="-1.34688">
        <ele>36.068</ele>
        <time>2015-09-11T14:49:26.771Z</time>
      </trkpt>
      <trkpt lat="47.09571" lon="-1.34688">
        <ele>36.103</ele>
        <time>2015-09-11T14:49:27.991Z</time>
      </trkpt>
      <trkpt lat="47.09566" lon="-1.34689">
        <ele>36.131</ele>
        <time>2015-09-11T14:49:28.746Z</time>
      </trkpt>
      <trkpt lat="47.09557" lon="-1.34687">
        <ele>36.243</ele>
        <time>2015-09-11T14:49:30.985Z</time>
      </trkpt>
      <trkpt lat="47.09552" lon="-1.34688">
        <ele>36.341</ele>
        <time>2015-09-11T14:49:31.78Z</time>
      </trkpt>
      <trkpt lat="47.09544" lon="-1.34687">
        <ele>36.57</ele>
        <time>2015-09-11T14:49:33.795Z</time>
      </trkpt>
      <trkpt lat="47.0954" lon="-1.34688">
        <ele>36.658</ele>
        <time>2015-09-11T14:49:34.834Z</time>
      </trkpt>
      <trkpt lat="47.09532" lon="-1.34688">
        <ele>36.896</ele>
        <time>2015-09-11T14:49:36.785Z</time>
      </trkpt>
      <trkpt lat="47.09527" lon="-1.34689">
        <ele>37.03</ele>
        <time>2015-09-11T14:49:37.778Z</time>
      </trkpt>
      <trkpt lat="47.09521" lon="-1.3469">
        <ele>37.563</ele>
        <time>2015-09-11T14:49:39.953Z</time>
      </trkpt>
      <trkpt lat="47.09517" lon="-1.34691">
        <ele>37.856</ele>
        <time>2015-09-11T14:49:40.768Z</time>
      </trkpt>
      <trkpt lat="47.09509" lon="-1.34691">
        <ele>38.429</ele>
        <time>2015-09-11T14:49:42.778Z</time>
      </trkpt>
      <trkpt lat="47.09506" lon="-1.34692">
        <ele>38.679</ele>
        <time>2015-09-11T14:49:43.744Z</time>
      </trkpt>
      <trkpt lat="47.09498" lon="-1.34693">
        <ele>39.256</ele>
        <time>2015-09-11T14:49:45.896Z</time>
      </trkpt>
      <trkpt lat="47.09495" lon="-1.34693">
        <ele>39.634</ele>
        <time>2015-09-11T14:49:46.784Z</time>
      </trkpt>
      <trkpt lat="47.09487" lon="-1.34694">
        <ele>40.384</ele>
        <time>2015-09-11T14:49:48.807Z</time>
      </trkpt>
      <trkpt lat="47.09484" lon="-1.34695">
        <ele>40.723</ele>
        <time>2015-09-11T14:49:49.765Z</time>
      </trkpt>
      <trkpt lat="47.09477" lon="-1.34697">
        <ele>41.412</ele>
        <time>2015-09-11T14:49:51.779Z</time>
      </trkpt>
      <trkpt lat="47.09474" lon="-1.34696">
        <ele>41.781</ele>
        <time>2015-09-11T14:49:52.888Z</time>
      </trkpt>
      <trkpt lat="47.09467" lon="-1.34691">
        <ele>41.977</ele>
        <time>2015-09-11T14:49:54.783Z</time>
      </trkpt>
      <trkpt lat="47.09464" lon="-1.34687">
        <ele>41.914</ele>
        <time>2015-09-11T14:49:55.783Z</time>
      </trkpt>
      <trkpt lat="47.09458" lon="-1.34678">
        <ele>41.687</ele>
        <time>2015-09-11T14:49:57.914Z</time>
      </trkpt>
      <trkpt lat="47.09455" lon="-1.34673">
        <ele>41.525</ele>
        <time>2015-09-11T14:49:58.787Z</time>
      </trkpt>
      <trkpt lat="47.09449" lon="-1.34665">
        <ele>41.146</ele>
        <time>2015-09-11T14:50:00.98Z</time>
      </trkpt>
      <trkpt lat="47.09446" lon="-1.34662">
        <ele>41.031</ele>
        <time>2015-09-11T14:50:01.747Z</time>
      </trkpt>
      <trkpt lat="47.09439" lon="-1.34654">
        <ele>40.815</ele>
        <time>2015-09-11T14:50:03.944Z</time>
      </trkpt>
      <trkpt lat="47.09436" lon="-1.34649">
        <ele>40.703</ele>
        <time>2015-09-11T14:50:04.777Z</time>
      </trkpt>
      <trkpt lat="47.09431" lon="-1.34641">
        <ele>40.502</ele>
        <time>2015-09-11T14:50:06.784Z</time>
      </trkpt>
      <trkpt lat="47.09428" lon="-1.34636">
        <ele>40.297</ele>
        <time>2015-09-11T14:50:07.776Z</time>
      </trkpt>
      <trkpt lat="47.09423" lon="-1.34626">
        <ele>39.746</ele>
        <time>2015-09-11T14:50:09.899Z</time>
      </trkpt>
      <trkpt lat="47.0942" lon="-1.34621">
        <ele>39.476</ele>
        <time>2015-09-11T14:50:10.765Z</time>
      </trkpt>
      <trkpt lat="47.09415" lon="-1.34611">
        <ele>39</ele>
        <time>2015-09-11T14:50:12.779Z</time>
      </trkpt>
      <trkpt lat="47.09413" lon="-1.34604">
        <ele>39</ele>
        <time>2015-09-11T14:50:13.769Z</time>
      </trkpt>
      <trkpt lat="47.09411" lon="-1.34598">
        <ele>39</ele>
        <time>2015-09-11T14:50:14.791Z</time>
      </trkpt>
      <trkpt lat="47.09409" lon="-1.34588">
        <ele>39</ele>
        <time>2015-09-11T14:50:15.746Z</time>
      </trkpt>
      <trkpt lat="47.09405" lon="-1.34577">
        <ele>38.863</ele>
        <time>2015-09-11T14:50:17.941Z</time>
      </trkpt>
      <trkpt lat="47.09403" lon="-1.34571">
        <ele>38.766</ele>
        <time>2015-09-11T14:50:18.769Z</time>
      </trkpt>
      <trkpt lat="47.09402" lon="-1.34565">
        <ele>38.692</ele>
        <time>2015-09-11T14:50:20.069Z</time>
      </trkpt>
      <trkpt lat="47.09401" lon="-1.34557">
        <ele>38.604</ele>
        <time>2015-09-11T14:50:20.75Z</time>
      </trkpt>
      <trkpt lat="47.09398" lon="-1.3455">
        <ele>38.594</ele>
        <time>2015-09-11T14:50:21.783Z</time>
      </trkpt>
      <trkpt lat="47.09397" lon="-1.34544">
        <ele>38.593</ele>
        <time>2015-09-11T14:50:22.781Z</time>
      </trkpt>
      <trkpt lat="47.09396" lon="-1.34537">
        <ele>38.6</ele>
        <time>2015-09-11T14:50:23.779Z</time>
      </trkpt>
      <trkpt lat="47.09393" lon="-1.3453">
        <ele>38.717</ele>
        <time>2015-09-11T14:50:24.746Z</time>
      </trkpt>
      <trkpt lat="47.09391" lon="-1.34523">
        <ele>38.722</ele>
        <time>2015-09-11T14:50:25.934Z</time>
      </trkpt>
      <trkpt lat="47.09389" lon="-1.34516">
        <ele>38.56</ele>
        <time>2015-09-11T14:50:26.779Z</time>
      </trkpt>
      <trkpt lat="47.09388" lon="-1.34508">
        <ele>38.302</ele>
        <time>2015-09-11T14:50:27.981Z</time>
      </trkpt>
      <trkpt lat="47.09386" lon="-1.34501">
        <ele>38.036</ele>
        <time>2015-09-11T14:50:28.779Z</time>
      </trkpt>
      <trkpt lat="47.09384" lon="-1.34494">
        <ele>37.766</ele>
        <time>2015-09-11T14:50:29.901Z</time>
      </trkpt>
      <trkpt lat="47.09381" lon="-1.34486">
        <ele>37.492</ele>
        <time>2015-09-11T14:50:30.791Z</time>
      </trkpt>
      <trkpt lat="47.09379" lon="-1.34479">
        <ele>37.233</ele>
        <time>2015-09-11T14:50:31.782Z</time>
      </trkpt>
      <trkpt lat="47.09377" lon="-1.34471">
        <ele>36.986</ele>
        <time>2015-09-11T14:50:32.749Z</time>
      </trkpt>
      <trkpt lat="47.09375" lon="-1.34464">
        <ele>36.848</ele>
        <time>2015-09-11T14:50:33.898Z</time>
      </trkpt>
      <trkpt lat="47.09373" lon="-1.34456">
        <ele>36.67</ele>
        <time>2015-09-11T14:50:34.771Z</time>
      </trkpt>
      <trkpt lat="47.09372" lon="-1.34448">
        <ele>36.461</ele>
        <time>2015-09-11T14:50:35.79Z</time>
      </trkpt>
      <trkpt lat="47.0937" lon="-1.34441">
        <ele>36.306</ele>
        <time>2015-09-11T14:50:36.747Z</time>
      </trkpt>
      <trkpt lat="47.09367" lon="-1.34434">
        <ele>36.226</ele>
        <time>2015-09-11T14:50:37.912Z</time>
      </trkpt>
      <trkpt lat="47.09365" lon="-1.34425">
        <ele>36.133</ele>
        <time>2015-09-11T14:50:38.829Z</time>
      </trkpt>
      <trkpt lat="47.09363" lon="-1.34417">
        <ele>36.061</ele>
        <time>2015-09-11T14:50:39.778Z</time>
      </trkpt>
      <trkpt lat="47.09361" lon="-1.34409">
        <ele>36.287</ele>
        <time>2015-09-11T14:50:40.746Z</time>
      </trkpt>
      <trkpt lat="47.09358" lon="-1.34401">
        <ele>36.575</ele>
        <time>2015-09-11T14:50:41.917Z</time>
      </trkpt>
      <trkpt lat="47.09357" lon="-1.34392">
        <ele>36.877</ele>
        <time>2015-09-11T14:50:42.746Z</time>
      </trkpt>
      <trkpt lat="47.09354" lon="-1.34385">
        <ele>36.893</ele>
        <time>2015-09-11T14:50:43.78Z</time>
      </trkpt>
      <trkpt lat="47.09351" lon="-1.34378">
        <ele>36.745</ele>
        <time>2015-09-11T14:50:44.774Z</time>
      </trkpt>
      <trkpt lat="47.09347" lon="-1.34369">
        <ele>36.639</ele>
        <time>2015-09-11T14:50:45.947Z</time>
      </trkpt>
      <trkpt lat="47.09344" lon="-1.34362">
        <ele>36.64</ele>
        <time>2015-09-11T14:50:46.778Z</time>
      </trkpt>
      <trkpt lat="47.0934" lon="-1.34356">
        <ele>36.606</ele>
        <time>2015-09-11T14:50:47.921Z</time>
      </trkpt>
      <trkpt lat="47.09337" lon="-1.34349">
        <ele>36.488</ele>
        <time>2015-09-11T14:50:48.828Z</time>
      </trkpt>
      <trkpt lat="47.09333" lon="-1.34344">
        <ele>36.363</ele>
        <time>2015-09-11T14:50:50.03Z</time>
      </trkpt>
      <trkpt lat="47.09329" lon="-1.34338">
        <ele>36.128</ele>
        <time>2015-09-11T14:50:50.769Z</time>
      </trkpt>
      <trkpt lat="47.09325" lon="-1.34332">
        <ele>35.987</ele>
        <time>2015-09-11T14:50:51.919Z</time>
      </trkpt>
      <trkpt lat="47.09321" lon="-1.34326">
        <ele>35.881</ele>
        <time>2015-09-11T14:50:52.78Z</time>
      </trkpt>
      <trkpt lat="47.09318" lon="-1.3432">
        <ele>35.726</ele>
        <time>2015-09-11T14:50:53.791Z</time>
      </trkpt>
      <trkpt lat="47.09314" lon="-1.34314">
        <ele>35.5</ele>
        <time>2015-09-11T14:50:54.746Z</time>
      </trkpt>
      <trkpt lat="47.0931" lon="-1.34308">
        <ele>35.228</ele>
        <time>2015-09-11T14:50:55.906Z</time>
      </trkpt>
      <trkpt lat="47.09307" lon="-1.34302">
        <ele>35.038</ele>
        <time>2015-09-11T14:50:56.784Z</time>
      </trkpt>
      <trkpt lat="47.09303" lon="-1.34295">
        <ele>34.908</ele>
        <time>2015-09-11T14:50:57.921Z</time>
      </trkpt>
      <trkpt lat="47.093" lon="-1.34289">
        <ele>34.782</ele>
        <time>2015-09-11T14:50:58.782Z</time>
      </trkpt>
      <trkpt lat="47.09296" lon="-1.34282">
        <ele>34.67</ele>
        <time>2015-09-11T14:50:59.901Z</time>
      </trkpt>
      <trkpt lat="47.09293" lon="-1.34274">
        <ele>34.611</ele>
        <time>2015-09-11T14:51:00.822Z</time>
      </trkpt>
      <trkpt lat="47.0929" lon="-1.34267">
        <ele>34.649</ele>
        <time>2015-09-11T14:51:01.92Z</time>
      </trkpt>
      <trkpt lat="47.09287" lon="-1.3426">
        <ele>34.756</ele>
        <time>2015-09-11T14:51:02.778Z</time>
      </trkpt>
      <trkpt lat="47.09284" lon="-1.34253">
        <ele>34.914</ele>
        <time>2015-09-11T14:51:04.133Z</time>
      </trkpt>
      <trkpt lat="47.09282" lon="-1.34246">
        <ele>35.134</ele>
        <time>2015-09-11T14:51:04.773Z</time>
      </trkpt>
      <trkpt lat="47.09279" lon="-1.34238">
        <ele>35.43</ele>
        <time>2015-09-11T14:51:05.781Z</time>
      </trkpt>
      <trkpt lat="47.09276" lon="-1.3423">
        <ele>35.749</ele>
        <time>2015-09-11T14:51:06.745Z</time>
      </trkpt>
      <trkpt lat="47.09273" lon="-1.34222">
        <ele>35.995</ele>
        <time>2015-09-11T14:51:07.924Z</time>
      </trkpt>
      <trkpt lat="47.0927" lon="-1.34214">
        <ele>36.375</ele>
        <time>2015-09-11T14:51:08.788Z</time>
      </trkpt>
      <trkpt lat="47.09266" lon="-1.34205">
        <ele>36.87</ele>
        <time>2015-09-11T14:51:09.779Z</time>
      </trkpt>
      <trkpt lat="47.09263" lon="-1.34196">
        <ele>37.454</ele>
        <time>2015-09-11T14:51:10.746Z</time>
      </trkpt>
      <trkpt lat="47.0926" lon="-1.34188">
        <ele>37.626</ele>
        <time>2015-09-11T14:51:12.238Z</time>
      </trkpt>
      <trkpt lat="47.09257" lon="-1.3418">
        <ele>37.752</ele>
        <time>2015-09-11T14:51:12.745Z</time>
      </trkpt>
      <trkpt lat="47.09254" lon="-1.34172">
        <ele>37.87</ele>
        <time>2015-09-11T14:51:13.779Z</time>
      </trkpt>
      <trkpt lat="47.09251" lon="-1.34164">
        <ele>37.978</ele>
        <time>2015-09-11T14:51:14.767Z</time>
      </trkpt>
      <trkpt lat="47.09248" lon="-1.34156">
        <ele>38</ele>
        <time>2015-09-11T14:51:15.775Z</time>
      </trkpt>
      <trkpt lat="47.09245" lon="-1.34148">
        <ele>38</ele>
        <time>2015-09-11T14:51:16.747Z</time>
      </trkpt>
      <trkpt lat="47.09242" lon="-1.3414">
        <ele>38</ele>
        <time>2015-09-11T14:51:17.912Z</time>
      </trkpt>
      <trkpt lat="47.09239" lon="-1.34133">
        <ele>37.788</ele>
        <time>2015-09-11T14:51:18.77Z</time>
      </trkpt>
      <trkpt lat="47.09236" lon="-1.34125">
        <ele>37.496</ele>
        <time>2015-09-11T14:51:19.905Z</time>
      </trkpt>
      <trkpt lat="47.09233" lon="-1.34118">
        <ele>37.234</ele>
        <time>2015-09-11T14:51:20.788Z</time>
      </trkpt>
      <trkpt lat="47.09229" lon="-1.3411">
        <ele>36.956</ele>
        <time>2015-09-11T14:51:21.976Z</time>
      </trkpt>
      <trkpt lat="47.09227" lon="-1.34102">
        <ele>36.676</ele>
        <time>2015-09-11T14:51:22.781Z</time>
      </trkpt>
      <trkpt lat="47.09223" lon="-1.34095">
        <ele>36.42</ele>
        <time>2015-09-11T14:51:23.899Z</time>
      </trkpt>
      <trkpt lat="47.09219" lon="-1.34088">
        <ele>36.157</ele>
        <time>2015-09-11T14:51:24.774Z</time>
      </trkpt>
      <trkpt lat="47.09215" lon="-1.34081">
        <ele>35.912</ele>
        <time>2015-09-11T14:51:25.94Z</time>
      </trkpt>
      <trkpt lat="47.09211" lon="-1.34074">
        <ele>35.675</ele>
        <time>2015-09-11T14:51:26.746Z</time>
      </trkpt>
      <trkpt lat="47.09208" lon="-1.34068">
        <ele>35.434</ele>
        <time>2015-09-11T14:51:27.779Z</time>
      </trkpt>
      <trkpt lat="47.09205" lon="-1.34061">
        <ele>35.178</ele>
        <time>2015-09-11T14:51:28.748Z</time>
      </trkpt>
      <trkpt lat="47.09201" lon="-1.34053">
        <ele>35</ele>
        <time>2015-09-11T14:51:29.929Z</time>
      </trkpt>
      <trkpt lat="47.09198" lon="-1.34046">
        <ele>35</ele>
        <time>2015-09-11T14:51:30.779Z</time>
      </trkpt>
      <trkpt lat="47.09195" lon="-1.34039">
        <ele>35</ele>
        <time>2015-09-11T14:51:31.977Z</time>
      </trkpt>
      <trkpt lat="47.09191" lon="-1.34032">
        <ele>35.095</ele>
        <time>2015-09-11T14:51:32.778Z</time>
      </trkpt>
      <trkpt lat="47.09189" lon="-1.34025">
        <ele>35.214</ele>
        <time>2015-09-11T14:51:33.771Z</time>
      </trkpt>
      <trkpt lat="47.09186" lon="-1.34019">
        <ele>35.318</ele>
        <time>2015-09-11T14:51:34.745Z</time>
      </trkpt>
      <trkpt lat="47.09183" lon="-1.34012">
        <ele>35.408</ele>
        <time>2015-09-11T14:51:35.916Z</time>
      </trkpt>
      <trkpt lat="47.0918" lon="-1.34006">
        <ele>35.516</ele>
        <time>2015-09-11T14:51:36.782Z</time>
      </trkpt>
      <trkpt lat="47.09177" lon="-1.33999">
        <ele>35.617</ele>
        <time>2015-09-11T14:51:37.775Z</time>
      </trkpt>
      <trkpt lat="47.09175" lon="-1.33992">
        <ele>35.714</ele>
        <time>2015-09-11T14:51:38.745Z</time>
      </trkpt>
      <trkpt lat="47.09172" lon="-1.33985">
        <ele>35.822</ele>
        <time>2015-09-11T14:51:39.875Z</time>
      </trkpt>
      <trkpt lat="47.09168" lon="-1.33979">
        <ele>35.938</ele>
        <time>2015-09-11T14:51:40.778Z</time>
      </trkpt>
      <trkpt lat="47.09166" lon="-1.33972">
        <ele>36.031</ele>
        <time>2015-09-11T14:51:41.928Z</time>
      </trkpt>
      <trkpt lat="47.09164" lon="-1.33966">
        <ele>36.134</ele>
        <time>2015-09-11T14:51:42.779Z</time>
      </trkpt>
      <trkpt lat="47.09161" lon="-1.33961">
        <ele>36.28</ele>
        <time>2015-09-11T14:51:43.92Z</time>
      </trkpt>
      <trkpt lat="47.09158" lon="-1.33955">
        <ele>36.49</ele>
        <time>2015-09-11T14:51:44.769Z</time>
      </trkpt>
      <trkpt lat="47.09155" lon="-1.33949">
        <ele>36.754</ele>
        <time>2015-09-11T14:51:45.912Z</time>
      </trkpt>
      <trkpt lat="47.09153" lon="-1.33943">
        <ele>36.99</ele>
        <time>2015-09-11T14:51:46.772Z</time>
      </trkpt>
      <trkpt lat="47.0915" lon="-1.33937">
        <ele>37.024</ele>
        <time>2015-09-11T14:51:48.032Z</time>
      </trkpt>
      <trkpt lat="47.09145" lon="-1.33931">
        <ele>37.18</ele>
        <time>2015-09-11T14:51:48.773Z</time>
      </trkpt>
      <trkpt lat="47.09143" lon="-1.33926">
        <ele>37.116</ele>
        <time>2015-09-11T14:51:49.786Z</time>
      </trkpt>
      <trkpt lat="47.09141" lon="-1.33917">
        <ele>36.935</ele>
        <time>2015-09-11T14:51:50.749Z</time>
      </trkpt>
      <trkpt lat="47.09138" lon="-1.33911">
        <ele>37.036</ele>
        <time>2015-09-11T14:51:51.923Z</time>
      </trkpt>
      <trkpt lat="47.09135" lon="-1.33906">
        <ele>37.136</ele>
        <time>2015-09-11T14:51:52.801Z</time>
      </trkpt>
      <trkpt lat="47.09132" lon="-1.339">
        <ele>37.241</ele>
        <time>2015-09-11T14:51:53.778Z</time>
      </trkpt>
      <trkpt lat="47.0913" lon="-1.33894">
        <ele>37.324</ele>
        <time>2015-09-11T14:51:54.744Z</time>
      </trkpt>
      <trkpt lat="47.09127" lon="-1.33888">
        <ele>37.407</ele>
        <time>2015-09-11T14:51:55.907Z</time>
      </trkpt>
      <trkpt lat="47.09124" lon="-1.33882">
        <ele>37.263</ele>
        <time>2015-09-11T14:51:56.78Z</time>
      </trkpt>
      <trkpt lat="47.09122" lon="-1.33874">
        <ele>37.076</ele>
        <time>2015-09-11T14:51:57.934Z</time>
      </trkpt>
      <trkpt lat="47.09119" lon="-1.33868">
        <ele>36.989</ele>
        <time>2015-09-11T14:51:58.781Z</time>
      </trkpt>
      <trkpt lat="47.09116" lon="-1.33863">
        <ele>36.892</ele>
        <time>2015-09-11T14:52:00.336Z</time>
      </trkpt>
      <trkpt lat="47.09113" lon="-1.33858">
        <ele>36.925</ele>
        <time>2015-09-11T14:52:00.746Z</time>
      </trkpt>
      <trkpt lat="47.09111" lon="-1.3385">
        <ele>36.993</ele>
        <time>2015-09-11T14:52:01.813Z</time>
      </trkpt>
      <trkpt lat="47.09108" lon="-1.33845">
        <ele>37</ele>
        <time>2015-09-11T14:52:02.75Z</time>
      </trkpt>
      <trkpt lat="47.09105" lon="-1.33839">
        <ele>37</ele>
        <time>2015-09-11T14:52:03.811Z</time>
      </trkpt>
      <trkpt lat="47.09103" lon="-1.33832">
        <ele>36.952</ele>
        <time>2015-09-11T14:52:04.747Z</time>
      </trkpt>
      <trkpt lat="47.09099" lon="-1.33826">
        <ele>36.732</ele>
        <time>2015-09-11T14:52:05.914Z</time>
      </trkpt>
      <trkpt lat="47.09097" lon="-1.33821">
        <ele>36.556</ele>
        <time>2015-09-11T14:52:06.779Z</time>
      </trkpt>
      <trkpt lat="47.09093" lon="-1.33814">
        <ele>36.3</ele>
        <time>2015-09-11T14:52:07.908Z</time>
      </trkpt>
      <trkpt lat="47.0909" lon="-1.33809">
        <ele>36.117</ele>
        <time>2015-09-11T14:52:08.768Z</time>
      </trkpt>
      <trkpt lat="47.09086" lon="-1.33803">
        <ele>36</ele>
        <time>2015-09-11T14:52:09.782Z</time>
      </trkpt>
      <trkpt lat="47.09082" lon="-1.33797">
        <ele>36.044</ele>
        <time>2015-09-11T14:52:10.745Z</time>
      </trkpt>
      <trkpt lat="47.09079" lon="-1.33792">
        <ele>36.156</ele>
        <time>2015-09-11T14:52:11.908Z</time>
      </trkpt>
      <trkpt lat="47.09076" lon="-1.33787">
        <ele>36.268</ele>
        <time>2015-09-11T14:52:12.779Z</time>
      </trkpt>
      <trkpt lat="47.09073" lon="-1.33781">
        <ele>36.383</ele>
        <time>2015-09-11T14:52:13.895Z</time>
      </trkpt>
      <trkpt lat="47.09069" lon="-1.33776">
        <ele>36.514</ele>
        <time>2015-09-11T14:52:14.78Z</time>
      </trkpt>
      <trkpt lat="47.09066" lon="-1.3377">
        <ele>36.555</ele>
        <time>2015-09-11T14:52:15.917Z</time>
      </trkpt>
      <trkpt lat="47.09063" lon="-1.33764">
        <ele>36.509</ele>
        <time>2015-09-11T14:52:16.783Z</time>
      </trkpt>
      <trkpt lat="47.0906" lon="-1.33759">
        <ele>36.373</ele>
        <time>2015-09-11T14:52:17.91Z</time>
      </trkpt>
      <trkpt lat="47.09056" lon="-1.33753">
        <ele>36.14</ele>
        <time>2015-09-11T14:52:18.762Z</time>
      </trkpt>
      <trkpt lat="47.09053" lon="-1.33745">
        <ele>35.987</ele>
        <time>2015-09-11T14:52:19.778Z</time>
      </trkpt>
      <trkpt lat="47.0905" lon="-1.33739">
        <ele>35.919</ele>
        <time>2015-09-11T14:52:20.746Z</time>
      </trkpt>
      <trkpt lat="47.09047" lon="-1.33734">
        <ele>35.806</ele>
        <time>2015-09-11T14:52:21.921Z</time>
      </trkpt>
      <trkpt lat="47.09044" lon="-1.33728">
        <ele>35.659</ele>
        <time>2015-09-11T14:52:22.778Z</time>
      </trkpt>
      <trkpt lat="47.09041" lon="-1.33722">
        <ele>35.463</ele>
        <time>2015-09-11T14:52:23.978Z</time>
      </trkpt>
      <trkpt lat="47.09038" lon="-1.33716">
        <ele>35.357</ele>
        <time>2015-09-11T14:52:24.745Z</time>
      </trkpt>
      <trkpt lat="47.09035" lon="-1.3371">
        <ele>35.242</ele>
        <time>2015-09-11T14:52:25.781Z</time>
      </trkpt>
      <trkpt lat="47.09032" lon="-1.33705">
        <ele>35.138</ele>
        <time>2015-09-11T14:52:26.781Z</time>
      </trkpt>
      <trkpt lat="47.09029" lon="-1.33698">
        <ele>35.044</ele>
        <time>2015-09-11T14:52:27.779Z</time>
      </trkpt>
      <trkpt lat="47.09026" lon="-1.33691">
        <ele>35.067</ele>
        <time>2015-09-11T14:52:28.745Z</time>
      </trkpt>
      <trkpt lat="47.09022" lon="-1.33685">
        <ele>35.132</ele>
        <time>2015-09-11T14:52:30.002Z</time>
      </trkpt>
      <trkpt lat="47.09019" lon="-1.33681">
        <ele>35.157</ele>
        <time>2015-09-11T14:52:30.747Z</time>
      </trkpt>
      <trkpt lat="47.09016" lon="-1.33677">
        <ele>35.211</ele>
        <time>2015-09-11T14:52:31.779Z</time>
      </trkpt>
      <trkpt lat="47.09012" lon="-1.33671">
        <ele>35.287</ele>
        <time>2015-09-11T14:52:32.777Z</time>
      </trkpt>
      <trkpt lat="47.09011" lon="-1.33662">
        <ele>35.493</ele>
        <time>2015-09-11T14:52:33.78Z</time>
      </trkpt>
      <trkpt lat="47.09007" lon="-1.33657">
        <ele>35.516</ele>
        <time>2015-09-11T14:52:34.746Z</time>
      </trkpt>
      <trkpt lat="47.09003" lon="-1.3365">
        <ele>35.644</ele>
        <time>2015-09-11T14:52:35.894Z</time>
      </trkpt>
      <trkpt lat="47.08999" lon="-1.33643">
        <ele>35.805</ele>
        <time>2015-09-11T14:52:36.783Z</time>
      </trkpt>
      <trkpt lat="47.08996" lon="-1.33638">
        <ele>35.847</ele>
        <time>2015-09-11T14:52:37.915Z</time>
      </trkpt>
      <trkpt lat="47.08992" lon="-1.33632">
        <ele>35.778</ele>
        <time>2015-09-11T14:52:38.786Z</time>
      </trkpt>
      <trkpt lat="47.0899" lon="-1.33625">
        <ele>35.809</ele>
        <time>2015-09-11T14:52:39.779Z</time>
      </trkpt>
      <trkpt lat="47.08986" lon="-1.3362">
        <ele>35.846</ele>
        <time>2015-09-11T14:52:40.745Z</time>
      </trkpt>
      <trkpt lat="47.08981" lon="-1.33614">
        <ele>35.942</ele>
        <time>2015-09-11T14:52:41.917Z</time>
      </trkpt>
      <trkpt lat="47.08978" lon="-1.33607">
        <ele>36.028</ele>
        <time>2015-09-11T14:52:42.79Z</time>
      </trkpt>
      <trkpt lat="47.08975" lon="-1.33602">
        <ele>36.029</ele>
        <time>2015-09-11T14:52:43.9Z</time>
      </trkpt>
      <trkpt lat="47.08971" lon="-1.33595">
        <ele>35.983</ele>
        <time>2015-09-11T14:52:44.772Z</time>
      </trkpt>
      <trkpt lat="47.08968" lon="-1.33589">
        <ele>35.968</ele>
        <time>2015-09-11T14:52:45.796Z</time>
      </trkpt>
      <trkpt lat="47.08964" lon="-1.33583">
        <ele>35.993</ele>
        <time>2015-09-11T14:52:46.746Z</time>
      </trkpt>
      <trkpt lat="47.08961" lon="-1.33576">
        <ele>35.897</ele>
        <time>2015-09-11T14:52:47.936Z</time>
      </trkpt>
      <trkpt lat="47.08958" lon="-1.3357">
        <ele>35.74</ele>
        <time>2015-09-11T14:52:48.772Z</time>
      </trkpt>
      <trkpt lat="47.08954" lon="-1.33563">
        <ele>35.522</ele>
        <time>2015-09-11T14:52:49.901Z</time>
      </trkpt>
      <trkpt lat="47.08951" lon="-1.33557">
        <ele>35.264</ele>
        <time>2015-09-11T14:52:50.776Z</time>
      </trkpt>
      <trkpt lat="47.08947" lon="-1.33551">
        <ele>35.25</ele>
        <time>2015-09-11T14:52:51.79Z</time>
      </trkpt>
      <trkpt lat="47.08944" lon="-1.33545">
        <ele>35.385</ele>
        <time>2015-09-11T14:52:52.745Z</time>
      </trkpt>
      <trkpt lat="47.08941" lon="-1.33538">
        <ele>35.533</ele>
        <time>2015-09-11T14:52:53.902Z</time>
      </trkpt>
      <trkpt lat="47.08937" lon="-1.33532">
        <ele>35.633</ele>
        <time>2015-09-11T14:52:54.772Z</time>
      </trkpt>
      <trkpt lat="47.08934" lon="-1.33525">
        <ele>35.638</ele>
        <time>2015-09-11T14:52:55.921Z</time>
      </trkpt>
      <trkpt lat="47.08931" lon="-1.33518">
        <ele>35.52</ele>
        <time>2015-09-11T14:52:56.822Z</time>
      </trkpt>
      <trkpt lat="47.08928" lon="-1.33511">
        <ele>35.408</ele>
        <time>2015-09-11T14:52:57.916Z</time>
      </trkpt>
      <trkpt lat="47.08925" lon="-1.33504">
        <ele>35.3</ele>
        <time>2015-09-11T14:52:58.772Z</time>
      </trkpt>
      <trkpt lat="47.08922" lon="-1.33497">
        <ele>35.178</ele>
        <time>2015-09-11T14:52:59.779Z</time>
      </trkpt>
      <trkpt lat="47.08918" lon="-1.33491">
        <ele>35.048</ele>
        <time>2015-09-11T14:53:00.751Z</time>
      </trkpt>
      <trkpt lat="47.08915" lon="-1.33484">
        <ele>34.959</ele>
        <time>2015-09-11T14:53:01.879Z</time>
      </trkpt>
      <trkpt lat="47.08912" lon="-1.33476">
        <ele>34.854</ele>
        <time>2015-09-11T14:53:03.172Z</time>
      </trkpt>
      <trkpt lat="47.08909" lon="-1.33469">
        <ele>34.679</ele>
        <time>2015-09-11T14:53:03.776Z</time>
      </trkpt>
      <trkpt lat="47.08905" lon="-1.33462">
        <ele>34.414</ele>
        <time>2015-09-11T14:53:04.743Z</time>
      </trkpt>
      <trkpt lat="47.08902" lon="-1.33456">
        <ele>34.177</ele>
        <time>2015-09-11T14:53:05.896Z</time>
      </trkpt>
      <trkpt lat="47.08899" lon="-1.33449">
        <ele>33.828</ele>
        <time>2015-09-11T14:53:06.827Z</time>
      </trkpt>
      <trkpt lat="47.08896" lon="-1.33441">
        <ele>33.474</ele>
        <time>2015-09-11T14:53:07.912Z</time>
      </trkpt>
      <trkpt lat="47.08893" lon="-1.33433">
        <ele>33.223</ele>
        <time>2015-09-11T14:53:08.805Z</time>
      </trkpt>
      <trkpt lat="47.0889" lon="-1.33426">
        <ele>33.053</ele>
        <time>2015-09-11T14:53:09.916Z</time>
      </trkpt>
      <trkpt lat="47.08887" lon="-1.33419">
        <ele>33.005</ele>
        <time>2015-09-11T14:53:10.777Z</time>
      </trkpt>
      <trkpt lat="47.08884" lon="-1.3341">
        <ele>33</ele>
        <time>2015-09-11T14:53:11.975Z</time>
      </trkpt>
      <trkpt lat="47.08881" lon="-1.33403">
        <ele>33</ele>
        <time>2015-09-11T14:53:12.773Z</time>
      </trkpt>
      <trkpt lat="47.08876" lon="-1.33395">
        <ele>33</ele>
        <time>2015-09-11T14:53:14.304Z</time>
      </trkpt>
      <trkpt lat="47.08873" lon="-1.33387">
        <ele>33.042</ele>
        <time>2015-09-11T14:53:14.75Z</time>
      </trkpt>
      <trkpt lat="47.0887" lon="-1.33379">
        <ele>33.245</ele>
        <time>2015-09-11T14:53:15.781Z</time>
      </trkpt>
      <trkpt lat="47.08867" lon="-1.33372">
        <ele>33.478</ele>
        <time>2015-09-11T14:53:16.786Z</time>
      </trkpt>
      <trkpt lat="47.08863" lon="-1.33364">
        <ele>33.832</ele>
        <time>2015-09-11T14:53:17.949Z</time>
      </trkpt>
      <trkpt lat="47.08859" lon="-1.33356">
        <ele>34</ele>
        <time>2015-09-11T14:53:18.75Z</time>
      </trkpt>
      <trkpt lat="47.08856" lon="-1.33348">
        <ele>34</ele>
        <time>2015-09-11T14:53:19.778Z</time>
      </trkpt>
      <trkpt lat="47.08852" lon="-1.33341">
        <ele>34</ele>
        <time>2015-09-11T14:53:20.776Z</time>
      </trkpt>
      <trkpt lat="47.08849" lon="-1.33333">
        <ele>34</ele>
        <time>2015-09-11T14:53:21.949Z</time>
      </trkpt>
      <trkpt lat="47.08846" lon="-1.33325">
        <ele>34</ele>
        <time>2015-09-11T14:53:22.777Z</time>
      </trkpt>
      <trkpt lat="47.08843" lon="-1.33317">
        <ele>34</ele>
        <time>2015-09-11T14:53:23.781Z</time>
      </trkpt>
      <trkpt lat="47.0884" lon="-1.3331">
        <ele>34</ele>
        <time>2015-09-11T14:53:24.751Z</time>
      </trkpt>
      <trkpt lat="47.08837" lon="-1.33303">
        <ele>33.985</ele>
        <time>2015-09-11T14:53:25.955Z</time>
      </trkpt>
      <trkpt lat="47.08834" lon="-1.33295">
        <ele>33.996</ele>
        <time>2015-09-11T14:53:26.775Z</time>
      </trkpt>
      <trkpt lat="47.0883" lon="-1.33288">
        <ele>33.774</ele>
        <time>2015-09-11T14:53:28.16Z</time>
      </trkpt>
      <trkpt lat="47.08826" lon="-1.3328">
        <ele>33.486</ele>
        <time>2015-09-11T14:53:28.776Z</time>
      </trkpt>
      <trkpt lat="47.08821" lon="-1.33274">
        <ele>33.031</ele>
        <time>2015-09-11T14:53:29.958Z</time>
      </trkpt>
      <trkpt lat="47.08819" lon="-1.33267">
        <ele>32.761</ele>
        <time>2015-09-11T14:53:30.772Z</time>
      </trkpt>
      <trkpt lat="47.08816" lon="-1.3326">
        <ele>32.492</ele>
        <time>2015-09-11T14:53:31.925Z</time>
      </trkpt>
      <trkpt lat="47.08813" lon="-1.33251">
        <ele>32.274</ele>
        <time>2015-09-11T14:53:32.775Z</time>
      </trkpt>
      <trkpt lat="47.0881" lon="-1.33244">
        <ele>31.906</ele>
        <time>2015-09-11T14:53:33.797Z</time>
      </trkpt>
      <trkpt lat="47.08809" lon="-1.33237">
        <ele>31.598</ele>
        <time>2015-09-11T14:53:34.744Z</time>
      </trkpt>
      <trkpt lat="47.08807" lon="-1.33229">
        <ele>31.243</ele>
        <time>2015-09-11T14:53:35.904Z</time>
      </trkpt>
      <trkpt lat="47.08803" lon="-1.33221">
        <ele>30.973</ele>
        <time>2015-09-11T14:53:36.783Z</time>
      </trkpt>
      <trkpt lat="47.08802" lon="-1.33214">
        <ele>30.747</ele>
        <time>2015-09-11T14:53:37.906Z</time>
      </trkpt>
      <trkpt lat="47.088" lon="-1.33203">
        <ele>30.428</ele>
        <time>2015-09-11T14:53:38.789Z</time>
      </trkpt>
      <trkpt lat="47.08797" lon="-1.33195">
        <ele>30.329</ele>
        <time>2015-09-11T14:53:39.887Z</time>
      </trkpt>
      <trkpt lat="47.08793" lon="-1.33188">
        <ele>30.546</ele>
        <time>2015-09-11T14:53:40.764Z</time>
      </trkpt>
      <trkpt lat="47.0879" lon="-1.33179">
        <ele>30.888</ele>
        <time>2015-09-11T14:53:41.906Z</time>
      </trkpt>
      <trkpt lat="47.08783" lon="-1.33176">
        <ele>31.369</ele>
        <time>2015-09-11T14:53:42.791Z</time>
      </trkpt>
      <trkpt lat="47.08777" lon="-1.33171">
        <ele>31.855</ele>
        <time>2015-09-11T14:53:43.8Z</time>
      </trkpt>
      <trkpt lat="47.08773" lon="-1.33168">
        <ele>31.952</ele>
        <time>2015-09-11T14:53:44.744Z</time>
      </trkpt>
      <trkpt lat="47.08767" lon="-1.33165">
        <ele>32</ele>
        <time>2015-09-11T14:53:45.878Z</time>
      </trkpt>
      <trkpt lat="47.0876" lon="-1.33162">
        <ele>32</ele>
        <time>2015-09-11T14:53:46.745Z</time>
      </trkpt>
      <trkpt lat="47.08753" lon="-1.33159">
        <ele>32</ele>
        <time>2015-09-11T14:53:47.788Z</time>
      </trkpt>
      <trkpt lat="47.08746" lon="-1.33155">
        <ele>31.91</ele>
        <time>2015-09-11T14:53:48.796Z</time>
      </trkpt>
      <trkpt lat="47.08739" lon="-1.33151">
        <ele>31.829</ele>
        <time>2015-09-11T14:53:49.783Z</time>
      </trkpt>
      <trkpt lat="47.08734" lon="-1.33147">
        <ele>31.835</ele>
        <time>2015-09-11T14:53:50.764Z</time>
      </trkpt>
      <trkpt lat="47.08728" lon="-1.33142">
        <ele>31.918</ele>
        <time>2015-09-11T14:53:51.919Z</time>
      </trkpt>
      <trkpt lat="47.08724" lon="-1.33135">
        <ele>32.142</ele>
        <time>2015-09-11T14:53:52.787Z</time>
      </trkpt>
      <trkpt lat="47.08719" lon="-1.33131">
        <ele>32.298</ele>
        <time>2015-09-11T14:53:53.948Z</time>
      </trkpt>
      <trkpt lat="47.08713" lon="-1.33127">
        <ele>32.432</ele>
        <time>2015-09-11T14:53:54.775Z</time>
      </trkpt>
      <trkpt lat="47.08708" lon="-1.33123">
        <ele>32.59</ele>
        <time>2015-09-11T14:53:55.917Z</time>
      </trkpt>
      <trkpt lat="47.08703" lon="-1.33117">
        <ele>32.774</ele>
        <time>2015-09-11T14:53:56.784Z</time>
      </trkpt>
      <trkpt lat="47.08696" lon="-1.33113">
        <ele>32.918</ele>
        <time>2015-09-11T14:53:57.78Z</time>
      </trkpt>
      <trkpt lat="47.0869" lon="-1.3311">
        <ele>32.822</ele>
        <time>2015-09-11T14:53:58.743Z</time>
      </trkpt>
      <trkpt lat="47.08685" lon="-1.33107">
        <ele>32.526</ele>
        <time>2015-09-11T14:53:59.873Z</time>
      </trkpt>
      <trkpt lat="47.0868" lon="-1.33108">
        <ele>32.357</ele>
        <time>2015-09-11T14:54:00.771Z</time>
      </trkpt>
      <trkpt lat="47.08676" lon="-1.3311">
        <ele>32.3</ele>
        <time>2015-09-11T14:54:01.786Z</time>
      </trkpt>
      <trkpt lat="47.08671" lon="-1.33114">
        <ele>32.134</ele>
        <time>2015-09-11T14:54:02.745Z</time>
      </trkpt>
      <trkpt lat="47.08667" lon="-1.33119">
        <ele>31.998</ele>
        <time>2015-09-11T14:54:03.948Z</time>
      </trkpt>
      <trkpt lat="47.08663" lon="-1.33123">
        <ele>31.868</ele>
        <time>2015-09-11T14:54:04.774Z</time>
      </trkpt>
      <trkpt lat="47.08658" lon="-1.33131">
        <ele>31.677</ele>
        <time>2015-09-11T14:54:06.921Z</time>
      </trkpt>
      <trkpt lat="47.08657" lon="-1.33136">
        <ele>31.638</ele>
        <time>2015-09-11T14:54:07.776Z</time>
      </trkpt>
      <trkpt lat="47.0865" lon="-1.33143">
        <ele>31.541</ele>
        <time>2015-09-11T14:54:09.777Z</time>
      </trkpt>
      <trkpt lat="47.08647" lon="-1.33147">
        <ele>31.552</ele>
        <time>2015-09-11T14:54:10.744Z</time>
      </trkpt>
      <trkpt lat="47.08643" lon="-1.33151">
        <ele>31.58</ele>
        <time>2015-09-11T14:54:11.96Z</time>
      </trkpt>
      <trkpt lat="47.08639" lon="-1.33155">
        <ele>31.573</ele>
        <time>2015-09-11T14:54:12.777Z</time>
      </trkpt>
      <trkpt lat="47.08631" lon="-1.3316">
        <ele>31.48</ele>
        <time>2015-09-11T14:54:14.927Z</time>
      </trkpt>
      <trkpt lat="47.08627" lon="-1.33157">
        <ele>31.22</ele>
        <time>2015-09-11T14:54:15.764Z</time>
      </trkpt>
      <trkpt lat="47.08623" lon="-1.33153">
        <ele>30.918</ele>
        <time>2015-09-11T14:54:16.78Z</time>
      </trkpt>
      <trkpt lat="47.0862" lon="-1.33148">
        <ele>30.623</ele>
        <time>2015-09-11T14:54:17.744Z</time>
      </trkpt>
      <trkpt lat="47.08617" lon="-1.33142">
        <ele>30.32</ele>
        <time>2015-09-11T14:54:18.895Z</time>
      </trkpt>
      <trkpt lat="47.08614" lon="-1.33135">
        <ele>30.108</ele>
        <time>2015-09-11T14:54:19.8Z</time>
      </trkpt>
      <trkpt lat="47.08612" lon="-1.33128">
        <ele>30.021</ele>
        <time>2015-09-11T14:54:20.784Z</time>
      </trkpt>
      <trkpt lat="47.08609" lon="-1.33121">
        <ele>29.92</ele>
        <time>2015-09-11T14:54:21.745Z</time>
      </trkpt>
      <trkpt lat="47.08605" lon="-1.33116">
        <ele>29.78</ele>
        <time>2015-09-11T14:54:22.939Z</time>
      </trkpt>
      <trkpt lat="47.08601" lon="-1.33108">
        <ele>29.542</ele>
        <time>2015-09-11T14:54:23.767Z</time>
      </trkpt>
      <trkpt lat="47.08597" lon="-1.33101">
        <ele>29.307</ele>
        <time>2015-09-11T14:54:25.006Z</time>
      </trkpt>
      <trkpt lat="47.08594" lon="-1.33095">
        <ele>29.16</ele>
        <time>2015-09-11T14:54:25.772Z</time>
      </trkpt>
      <trkpt lat="47.0859" lon="-1.33088">
        <ele>29.042</ele>
        <time>2015-09-11T14:54:26.782Z</time>
      </trkpt>
      <trkpt lat="47.08587" lon="-1.33084">
        <ele>29.002</ele>
        <time>2015-09-11T14:54:27.75Z</time>
      </trkpt>
      <trkpt lat="47.08583" lon="-1.33078">
        <ele>28.992</ele>
        <time>2015-09-11T14:54:28.992Z</time>
      </trkpt>
      <trkpt lat="47.0858" lon="-1.33072">
        <ele>28.862</ele>
        <time>2015-09-11T14:54:29.743Z</time>
      </trkpt>
      <trkpt lat="47.08579" lon="-1.33065">
        <ele>28.848</ele>
        <time>2015-09-11T14:54:30.777Z</time>
      </trkpt>
      <trkpt lat="47.08577" lon="-1.33059">
        <ele>28.754</ele>
        <time>2015-09-11T14:54:31.783Z</time>
      </trkpt>
      <trkpt lat="47.08575" lon="-1.33053">
        <ele>28.721</ele>
        <time>2015-09-11T14:54:32.952Z</time>
      </trkpt>
      <trkpt lat="47.0857" lon="-1.33046">
        <ele>28.694</ele>
        <time>2015-09-11T14:54:33.762Z</time>
      </trkpt>
      <trkpt lat="47.08566" lon="-1.33038">
        <ele>28.764</ele>
        <time>2015-09-11T14:54:34.904Z</time>
      </trkpt>
      <trkpt lat="47.08562" lon="-1.33034">
        <ele>28.82</ele>
        <time>2015-09-11T14:54:35.832Z</time>
      </trkpt>
      <trkpt lat="47.08557" lon="-1.33033">
        <ele>28.807</ele>
        <time>2015-09-11T14:54:36.964Z</time>
      </trkpt>
      <trkpt lat="47.08553" lon="-1.33029">
        <ele>28.841</ele>
        <time>2015-09-11T14:54:37.774Z</time>
      </trkpt>
      <trkpt lat="47.08547" lon="-1.33031">
        <ele>28.604</ele>
        <time>2015-09-11T14:54:38.791Z</time>
      </trkpt>
      <trkpt lat="47.08541" lon="-1.33029">
        <ele>28.441</ele>
        <time>2015-09-11T14:54:39.752Z</time>
      </trkpt>
      <trkpt lat="47.08535" lon="-1.33025">
        <ele>28.271</ele>
        <time>2015-09-11T14:54:40.968Z</time>
      </trkpt>
      <trkpt lat="47.0853" lon="-1.33022">
        <ele>28.073</ele>
        <time>2015-09-11T14:54:41.744Z</time>
      </trkpt>
      <trkpt lat="47.08525" lon="-1.33018">
        <ele>27.964</ele>
        <time>2015-09-11T14:54:42.802Z</time>
      </trkpt>
      <trkpt lat="47.08518" lon="-1.33014">
        <ele>27.834</ele>
        <time>2015-09-11T14:54:43.783Z</time>
      </trkpt>
      <trkpt lat="47.08513" lon="-1.3301">
        <ele>27.666</ele>
        <time>2015-09-11T14:54:44.972Z</time>
      </trkpt>
      <trkpt lat="47.08507" lon="-1.33007">
        <ele>27.441</ele>
        <time>2015-09-11T14:54:45.744Z</time>
      </trkpt>
      <trkpt lat="47.08502" lon="-1.33003">
        <ele>27.142</ele>
        <time>2015-09-11T14:54:46.782Z</time>
      </trkpt>
      <trkpt lat="47.08497" lon="-1.32998">
        <ele>26.989</ele>
        <time>2015-09-11T14:54:47.785Z</time>
      </trkpt>
      <trkpt lat="47.08492" lon="-1.32993">
        <ele>26.93</ele>
        <time>2015-09-11T14:54:48.782Z</time>
      </trkpt>
      <trkpt lat="47.08486" lon="-1.32989">
        <ele>26.802</ele>
        <time>2015-09-11T14:54:49.749Z</time>
      </trkpt>
      <trkpt lat="47.0848" lon="-1.32984">
        <ele>26.596</ele>
        <time>2015-09-11T14:54:50.924Z</time>
      </trkpt>
      <trkpt lat="47.08476" lon="-1.3298">
        <ele>26.375</ele>
        <time>2015-09-11T14:54:51.77Z</time>
      </trkpt>
      <trkpt lat="47.08471" lon="-1.32975">
        <ele>26.086</ele>
        <time>2015-09-11T14:54:52.936Z</time>
      </trkpt>
      <trkpt lat="47.08466" lon="-1.32967">
        <ele>25.798</ele>
        <time>2015-09-11T14:54:53.778Z</time>
      </trkpt>
      <trkpt lat="47.08461" lon="-1.32963">
        <ele>25.654</ele>
        <time>2015-09-11T14:54:54.901Z</time>
      </trkpt>
      <trkpt lat="47.08456" lon="-1.32959">
        <ele>25.531</ele>
        <time>2015-09-11T14:54:55.771Z</time>
      </trkpt>
      <trkpt lat="47.08451" lon="-1.32956">
        <ele>25.398</ele>
        <time>2015-09-11T14:54:56.777Z</time>
      </trkpt>
      <trkpt lat="47.08446" lon="-1.32951">
        <ele>25.232</ele>
        <time>2015-09-11T14:54:57.744Z</time>
      </trkpt>
      <trkpt lat="47.08441" lon="-1.32948">
        <ele>25.214</ele>
        <time>2015-09-11T14:54:59.027Z</time>
      </trkpt>
      <trkpt lat="47.08436" lon="-1.32945">
        <ele>25.322</ele>
        <time>2015-09-11T14:54:59.744Z</time>
      </trkpt>
      <trkpt lat="47.0843" lon="-1.3294">
        <ele>25.513</ele>
        <time>2015-09-11T14:55:00.912Z</time>
      </trkpt>
      <trkpt lat="47.08425" lon="-1.32935">
        <ele>25.718</ele>
        <time>2015-09-11T14:55:01.836Z</time>
      </trkpt>
      <trkpt lat="47.08419" lon="-1.32931">
        <ele>25.909</ele>
        <time>2015-09-11T14:55:02.78Z</time>
      </trkpt>
      <trkpt lat="47.08414" lon="-1.32927">
        <ele>26.175</ele>
        <time>2015-09-11T14:55:03.743Z</time>
      </trkpt>
      <trkpt lat="47.08409" lon="-1.32923">
        <ele>26.523</ele>
        <time>2015-09-11T14:55:04.793Z</time>
      </trkpt>
      <trkpt lat="47.08403" lon="-1.32919">
        <ele>26.942</ele>
        <time>2015-09-11T14:55:05.743Z</time>
      </trkpt>
      <trkpt lat="47.08397" lon="-1.32916">
        <ele>27.394</ele>
        <time>2015-09-11T14:55:06.978Z</time>
      </trkpt>
      <trkpt lat="47.08392" lon="-1.32913">
        <ele>27.776</ele>
        <time>2015-09-11T14:55:07.776Z</time>
      </trkpt>
      <trkpt lat="47.08387" lon="-1.32911">
        <ele>28.017</ele>
        <time>2015-09-11T14:55:08.781Z</time>
      </trkpt>
      <trkpt lat="47.08381" lon="-1.32908">
        <ele>28.083</ele>
        <time>2015-09-11T14:55:09.744Z</time>
      </trkpt>
      <trkpt lat="47.08375" lon="-1.32908">
        <ele>28.166</ele>
        <time>2015-09-11T14:55:10.881Z</time>
      </trkpt>
      <trkpt lat="47.0837" lon="-1.32904">
        <ele>28.307</ele>
        <time>2015-09-11T14:55:11.774Z</time>
      </trkpt>
      <trkpt lat="47.08365" lon="-1.32904">
        <ele>28.386</ele>
        <time>2015-09-11T14:55:12.788Z</time>
      </trkpt>
      <trkpt lat="47.0836" lon="-1.32903">
        <ele>28.464</ele>
        <time>2015-09-11T14:55:13.748Z</time>
      </trkpt>
      <trkpt lat="47.08354" lon="-1.32903">
        <ele>28.379</ele>
        <time>2015-09-11T14:55:15.185Z</time>
      </trkpt>
      <trkpt lat="47.08349" lon="-1.32901">
        <ele>28.314</ele>
        <time>2015-09-11T14:55:15.745Z</time>
      </trkpt>
      <trkpt lat="47.08344" lon="-1.32901">
        <ele>28.211</ele>
        <time>2015-09-11T14:55:16.782Z</time>
      </trkpt>
      <trkpt lat="47.08338" lon="-1.329">
        <ele>28.109</ele>
        <time>2015-09-11T14:55:17.811Z</time>
      </trkpt>
      <trkpt lat="47.08333" lon="-1.32898">
        <ele>27.999</ele>
        <time>2015-09-11T14:55:19.046Z</time>
      </trkpt>
      <trkpt lat="47.08328" lon="-1.32896">
        <ele>27.822</ele>
        <time>2015-09-11T14:55:19.796Z</time>
      </trkpt>
      <trkpt lat="47.08324" lon="-1.32896">
        <ele>27.66</ele>
        <time>2015-09-11T14:55:20.777Z</time>
      </trkpt>
      <trkpt lat="47.08319" lon="-1.32893">
        <ele>27.484</ele>
        <time>2015-09-11T14:55:21.863Z</time>
      </trkpt>
      <trkpt lat="47.08314" lon="-1.32891">
        <ele>27.304</ele>
        <time>2015-09-11T14:55:22.79Z</time>
      </trkpt>
      <trkpt lat="47.0831" lon="-1.32889">
        <ele>27.149</ele>
        <time>2015-09-11T14:55:23.744Z</time>
      </trkpt>
      <trkpt lat="47.08304" lon="-1.32887">
        <ele>26.944</ele>
        <time>2015-09-11T14:55:24.778Z</time>
      </trkpt>
      <trkpt lat="47.08299" lon="-1.32886">
        <ele>26.775</ele>
        <time>2015-09-11T14:55:25.743Z</time>
      </trkpt>
      <trkpt lat="47.08294" lon="-1.32884">
        <ele>26.584</ele>
        <time>2015-09-11T14:55:26.923Z</time>
      </trkpt>
      <trkpt lat="47.08289" lon="-1.32882">
        <ele>26.393</ele>
        <time>2015-09-11T14:55:27.83Z</time>
      </trkpt>
      <trkpt lat="47.08284" lon="-1.32879">
        <ele>26.231</ele>
        <time>2015-09-11T14:55:28.903Z</time>
      </trkpt>
      <trkpt lat="47.0828" lon="-1.32877">
        <ele>26.073</ele>
        <time>2015-09-11T14:55:29.775Z</time>
      </trkpt>
      <trkpt lat="47.08272" lon="-1.32872">
        <ele>26.197</ele>
        <time>2015-09-11T14:55:31.784Z</time>
      </trkpt>
      <trkpt lat="47.08268" lon="-1.32869">
        <ele>26.338</ele>
        <time>2015-09-11T14:55:32.745Z</time>
      </trkpt>
      <trkpt lat="47.08261" lon="-1.32861">
        <ele>26.601</ele>
        <time>2015-09-11T14:55:34.78Z</time>
      </trkpt>
      <trkpt lat="47.08258" lon="-1.32856">
        <ele>26.914</ele>
        <time>2015-09-11T14:55:35.764Z</time>
      </trkpt>
      <trkpt lat="47.08253" lon="-1.32852">
        <ele>27.202</ele>
        <time>2015-09-11T14:55:36.953Z</time>
      </trkpt>
      <trkpt lat="47.0825" lon="-1.32849">
        <ele>27.46</ele>
        <time>2015-09-11T14:55:37.767Z</time>
      </trkpt>
      <trkpt lat="47.08244" lon="-1.32841">
        <ele>27.795</ele>
        <time>2015-09-11T14:55:39.958Z</time>
      </trkpt>
      <trkpt lat="47.0824" lon="-1.32835">
        <ele>27.961</ele>
        <time>2015-09-11T14:55:40.807Z</time>
      </trkpt>
      <trkpt lat="47.08237" lon="-1.3283">
        <ele>28</ele>
        <time>2015-09-11T14:55:41.905Z</time>
      </trkpt>
      <trkpt lat="47.08234" lon="-1.32824">
        <ele>28</ele>
        <time>2015-09-11T14:55:42.749Z</time>
      </trkpt>
      <trkpt lat="47.0823" lon="-1.32818">
        <ele>28</ele>
        <time>2015-09-11T14:55:43.908Z</time>
      </trkpt>
      <trkpt lat="47.08227" lon="-1.32813">
        <ele>28</ele>
        <time>2015-09-11T14:55:44.768Z</time>
      </trkpt>
      <trkpt lat="47.08222" lon="-1.32807">
        <ele>28</ele>
        <time>2015-09-11T14:55:45.786Z</time>
      </trkpt>
      <trkpt lat="47.0822" lon="-1.32799">
        <ele>27.786</ele>
        <time>2015-09-11T14:55:46.746Z</time>
      </trkpt>
      <trkpt lat="47.08213" lon="-1.32791">
        <ele>27.635</ele>
        <time>2015-09-11T14:55:48.976Z</time>
      </trkpt>
      <trkpt lat="47.0821" lon="-1.32786">
        <ele>27.588</ele>
        <time>2015-09-11T14:55:49.747Z</time>
      </trkpt>
      <trkpt lat="47.08207" lon="-1.32781">
        <ele>27.607</ele>
        <time>2015-09-11T14:55:50.778Z</time>
      </trkpt>
      <trkpt lat="47.08203" lon="-1.32776">
        <ele>27.634</ele>
        <time>2015-09-11T14:55:51.834Z</time>
      </trkpt>
      <trkpt lat="47.082" lon="-1.32772">
        <ele>27.622</ele>
        <time>2015-09-11T14:55:52.778Z</time>
      </trkpt>
      <trkpt lat="47.08196" lon="-1.32767">
        <ele>27.573</ele>
        <time>2015-09-11T14:55:53.754Z</time>
      </trkpt>
      <trkpt lat="47.08193" lon="-1.32763">
        <ele>27.493</ele>
        <time>2015-09-11T14:55:54.883Z</time>
      </trkpt>
      <trkpt lat="47.08189" lon="-1.32759">
        <ele>27.46</ele>
        <time>2015-09-11T14:55:55.775Z</time>
      </trkpt>
      <trkpt lat="47.08185" lon="-1.32754">
        <ele>27.442</ele>
        <time>2015-09-11T14:55:56.781Z</time>
      </trkpt>
      <trkpt lat="47.08181" lon="-1.32748">
        <ele>27.423</ele>
        <time>2015-09-11T14:55:57.744Z</time>
      </trkpt>
      <trkpt lat="47.08176" lon="-1.32748">
        <ele>27.588</ele>
        <time>2015-09-11T14:55:58.798Z</time>
      </trkpt>
      <trkpt lat="47.0817" lon="-1.32742">
        <ele>27.567</ele>
        <time>2015-09-11T14:55:59.744Z</time>
      </trkpt>
      <trkpt lat="47.08166" lon="-1.32738">
        <ele>27.575</ele>
        <time>2015-09-11T14:56:00.975Z</time>
      </trkpt>
      <trkpt lat="47.0816" lon="-1.32734">
        <ele>27.424</ele>
        <time>2015-09-11T14:56:01.747Z</time>
      </trkpt>
      <trkpt lat="47.08155" lon="-1.3273">
        <ele>27.276</ele>
        <time>2015-09-11T14:56:02.918Z</time>
      </trkpt>
      <trkpt lat="47.08154" lon="-1.32724">
        <ele>27.046</ele>
        <time>2015-09-11T14:56:03.742Z</time>
      </trkpt>
      <trkpt lat="47.08148" lon="-1.32717">
        <ele>27.127</ele>
        <time>2015-09-11T14:56:05.827Z</time>
      </trkpt>
      <trkpt lat="47.08144" lon="-1.32713">
        <ele>27.28</ele>
        <time>2015-09-11T14:56:06.768Z</time>
      </trkpt>
      <trkpt lat="47.08141" lon="-1.32708">
        <ele>27.484</ele>
        <time>2015-09-11T14:56:07.779Z</time>
      </trkpt>
      <trkpt lat="47.08139" lon="-1.32701">
        <ele>27.739</ele>
        <time>2015-09-11T14:56:08.745Z</time>
      </trkpt>
      <trkpt lat="47.08138" lon="-1.32694">
        <ele>28</ele>
        <time>2015-09-11T14:56:10.3Z</time>
      </trkpt>
      <trkpt lat="47.08137" lon="-1.32686">
        <ele>28</ele>
        <time>2015-09-11T14:56:10.744Z</time>
      </trkpt>
      <trkpt lat="47.08139" lon="-1.3268">
        <ele>27.998</ele>
        <time>2015-09-11T14:56:11.784Z</time>
      </trkpt>
      <trkpt lat="47.0814" lon="-1.32671">
        <ele>27.996</ele>
        <time>2015-09-11T14:56:12.772Z</time>
      </trkpt>
      <trkpt lat="47.08141" lon="-1.32663">
        <ele>28.011</ele>
        <time>2015-09-11T14:56:14.1Z</time>
      </trkpt>
      <trkpt lat="47.08143" lon="-1.32655">
        <ele>28.059</ele>
        <time>2015-09-11T14:56:14.744Z</time>
      </trkpt>
      <trkpt lat="47.08145" lon="-1.3265">
        <ele>28.128</ele>
        <time>2015-09-11T14:56:15.78Z</time>
      </trkpt>
      <trkpt lat="47.08146" lon="-1.32641">
        <ele>28.232</ele>
        <time>2015-09-11T14:56:16.774Z</time>
      </trkpt>
      <trkpt lat="47.08148" lon="-1.32633">
        <ele>28.259</ele>
        <time>2015-09-11T14:56:17.778Z</time>
      </trkpt>
      <trkpt lat="47.0815" lon="-1.32625">
        <ele>28.213</ele>
        <time>2015-09-11T14:56:18.743Z</time>
      </trkpt>
      <trkpt lat="47.08152" lon="-1.32619">
        <ele>28.131</ele>
        <time>2015-09-11T14:56:19.911Z</time>
      </trkpt>
      <trkpt lat="47.08154" lon="-1.32611">
        <ele>27.989</ele>
        <time>2015-09-11T14:56:20.758Z</time>
      </trkpt>
      <trkpt lat="47.08155" lon="-1.32604">
        <ele>27.726</ele>
        <time>2015-09-11T14:56:21.798Z</time>
      </trkpt>
      <trkpt lat="47.08157" lon="-1.32596">
        <ele>27.456</ele>
        <time>2015-09-11T14:56:22.745Z</time>
      </trkpt>
      <trkpt lat="47.08159" lon="-1.32589">
        <ele>27.19</ele>
        <time>2015-09-11T14:56:23.916Z</time>
      </trkpt>
      <trkpt lat="47.0816" lon="-1.32581">
        <ele>26.982</ele>
        <time>2015-09-11T14:56:24.744Z</time>
      </trkpt>
      <trkpt lat="47.08162" lon="-1.32573">
        <ele>26.938</ele>
        <time>2015-09-11T14:56:25.797Z</time>
      </trkpt>
      <trkpt lat="47.08164" lon="-1.32566">
        <ele>26.943</ele>
        <time>2015-09-11T14:56:26.745Z</time>
      </trkpt>
      <trkpt lat="47.08166" lon="-1.32557">
        <ele>26.96</ele>
        <time>2015-09-11T14:56:27.917Z</time>
      </trkpt>
      <trkpt lat="47.08167" lon="-1.32549">
        <ele>26.74</ele>
        <time>2015-09-11T14:56:28.78Z</time>
      </trkpt>
      <trkpt lat="47.0817" lon="-1.3254">
        <ele>26.381</ele>
        <time>2015-09-11T14:56:29.891Z</time>
      </trkpt>
      <trkpt lat="47.08173" lon="-1.3253">
        <ele>26.05</ele>
        <time>2015-09-11T14:56:30.767Z</time>
      </trkpt>
      <trkpt lat="47.08176" lon="-1.32521">
        <ele>25.925</ele>
        <time>2015-09-11T14:56:31.905Z</time>
      </trkpt>
      <trkpt lat="47.08178" lon="-1.32513">
        <ele>25.777</ele>
        <time>2015-09-11T14:56:32.776Z</time>
      </trkpt>
      <trkpt lat="47.08179" lon="-1.32504">
        <ele>25.604</ele>
        <time>2015-09-11T14:56:33.793Z</time>
      </trkpt>
      <trkpt lat="47.08182" lon="-1.32494">
        <ele>25.452</ele>
        <time>2015-09-11T14:56:34.744Z</time>
      </trkpt>
      <trkpt lat="47.08184" lon="-1.32484">
        <ele>25.369</ele>
        <time>2015-09-11T14:56:35.783Z</time>
      </trkpt>
      <trkpt lat="47.08186" lon="-1.32474">
        <ele>25.29</ele>
        <time>2015-09-11T14:56:36.745Z</time>
      </trkpt>
      <trkpt lat="47.08189" lon="-1.32465">
        <ele>24.961</ele>
        <time>2015-09-11T14:56:37.96Z</time>
      </trkpt>
      <trkpt lat="47.08191" lon="-1.32457">
        <ele>24.587</ele>
        <time>2015-09-11T14:56:38.773Z</time>
      </trkpt>
      <trkpt lat="47.08193" lon="-1.32448">
        <ele>24.184</ele>
        <time>2015-09-11T14:56:39.779Z</time>
      </trkpt>
      <trkpt lat="47.08196" lon="-1.32439">
        <ele>23.951</ele>
        <time>2015-09-11T14:56:40.743Z</time>
      </trkpt>
      <trkpt lat="47.08198" lon="-1.3243">
        <ele>23.883</ele>
        <time>2015-09-11T14:56:42.061Z</time>
      </trkpt>
      <trkpt lat="47.082" lon="-1.32421">
        <ele>23.8</ele>
        <time>2015-09-11T14:56:42.744Z</time>
      </trkpt>
      <trkpt lat="47.08202" lon="-1.32412">
        <ele>23.951</ele>
        <time>2015-09-11T14:56:43.778Z</time>
      </trkpt>
      <trkpt lat="47.08205" lon="-1.32404">
        <ele>24.262</ele>
        <time>2015-09-11T14:56:44.749Z</time>
      </trkpt>
      <trkpt lat="47.08207" lon="-1.32395">
        <ele>24.657</ele>
        <time>2015-09-11T14:56:45.784Z</time>
      </trkpt>
      <trkpt lat="47.08209" lon="-1.32387">
        <ele>25</ele>
        <time>2015-09-11T14:56:46.78Z</time>
      </trkpt>
      <trkpt lat="47.08211" lon="-1.32378">
        <ele>25</ele>
        <time>2015-09-11T14:56:47.984Z</time>
      </trkpt>
      <trkpt lat="47.08212" lon="-1.32369">
        <ele>25</ele>
        <time>2015-09-11T14:56:48.744Z</time>
      </trkpt>
      <trkpt lat="47.08214" lon="-1.3236">
        <ele>25.023</ele>
        <time>2015-09-11T14:56:49.778Z</time>
      </trkpt>
      <trkpt lat="47.08216" lon="-1.32351">
        <ele>25.287</ele>
        <time>2015-09-11T14:56:50.768Z</time>
      </trkpt>
      <trkpt lat="47.08218" lon="-1.32341">
        <ele>25.615</ele>
        <time>2015-09-11T14:56:52.207Z</time>
      </trkpt>
      <trkpt lat="47.08219" lon="-1.32332">
        <ele>25.895</ele>
        <time>2015-09-11T14:56:52.743Z</time>
      </trkpt>
      <trkpt lat="47.08221" lon="-1.32324">
        <ele>25.96</ele>
        <time>2015-09-11T14:56:53.787Z</time>
      </trkpt>
      <trkpt lat="47.08222" lon="-1.32316">
        <ele>25.996</ele>
        <time>2015-09-11T14:56:54.769Z</time>
      </trkpt>
      <trkpt lat="47.08224" lon="-1.32306">
        <ele>26</ele>
        <time>2015-09-11T14:56:55.797Z</time>
      </trkpt>
      <trkpt lat="47.08226" lon="-1.32297">
        <ele>26.294</ele>
        <time>2015-09-11T14:56:56.744Z</time>
      </trkpt>
      <trkpt lat="47.08229" lon="-1.32289">
        <ele>26.6</ele>
        <time>2015-09-11T14:56:57.916Z</time>
      </trkpt>
      <trkpt lat="47.08231" lon="-1.32281">
        <ele>26.891</ele>
        <time>2015-09-11T14:56:58.776Z</time>
      </trkpt>
      <trkpt lat="47.08233" lon="-1.32272">
        <ele>27</ele>
        <time>2015-09-11T14:56:59.903Z</time>
      </trkpt>
      <trkpt lat="47.08235" lon="-1.32263">
        <ele>27</ele>
        <time>2015-09-11T14:57:00.785Z</time>
      </trkpt>
      <trkpt lat="47.08236" lon="-1.32253">
        <ele>27</ele>
        <time>2015-09-11T14:57:01.908Z</time>
      </trkpt>
      <trkpt lat="47.08237" lon="-1.32243">
        <ele>27</ele>
        <time>2015-09-11T14:57:02.839Z</time>
      </trkpt>
      <trkpt lat="47.08238" lon="-1.32232">
        <ele>27</ele>
        <time>2015-09-11T14:57:03.903Z</time>
      </trkpt>
      <trkpt lat="47.08238" lon="-1.32224">
        <ele>27</ele>
        <time>2015-09-11T14:57:04.762Z</time>
      </trkpt>
      <trkpt lat="47.08238" lon="-1.32215">
        <ele>27</ele>
        <time>2015-09-11T14:57:05.947Z</time>
      </trkpt>
      <trkpt lat="47.08239" lon="-1.32205">
        <ele>27</ele>
        <time>2015-09-11T14:57:06.774Z</time>
      </trkpt>
      <trkpt lat="47.08239" lon="-1.32197">
        <ele>27</ele>
        <time>2015-09-11T14:57:07.777Z</time>
      </trkpt>
      <trkpt lat="47.08239" lon="-1.32189">
        <ele>27</ele>
        <time>2015-09-11T14:57:08.743Z</time>
      </trkpt>
      <trkpt lat="47.08238" lon="-1.32182">
        <ele>27</ele>
        <time>2015-09-11T14:57:09.887Z</time>
      </trkpt>
      <trkpt lat="47.08238" lon="-1.32175">
        <ele>27</ele>
        <time>2015-09-11T14:57:10.775Z</time>
      </trkpt>
      <trkpt lat="47.08237" lon="-1.32169">
        <ele>27</ele>
        <time>2015-09-11T14:57:11.978Z</time>
      </trkpt>
      <trkpt lat="47.08238" lon="-1.32161">
        <ele>26.973</ele>
        <time>2015-09-11T14:57:12.768Z</time>
      </trkpt>
      <trkpt lat="47.08238" lon="-1.32153">
        <ele>26.92</ele>
        <time>2015-09-11T14:57:14.024Z</time>
      </trkpt>
      <trkpt lat="47.08238" lon="-1.32146">
        <ele>26.893</ele>
        <time>2015-09-11T14:57:14.744Z</time>
      </trkpt>
      <trkpt lat="47.08238" lon="-1.32138">
        <ele>26.876</ele>
        <time>2015-09-11T14:57:15.781Z</time>
      </trkpt>
      <trkpt lat="47.08238" lon="-1.32128">
        <ele>26.688</ele>
        <time>2015-09-11T14:57:16.767Z</time>
      </trkpt>
      <trkpt lat="47.08238" lon="-1.32121">
        <ele>26.587</ele>
        <time>2015-09-11T14:57:17.94Z</time>
      </trkpt>
      <trkpt lat="47.08238" lon="-1.32114">
        <ele>26.48</ele>
        <time>2015-09-11T14:57:18.77Z</time>
      </trkpt>
      <trkpt lat="47.08238" lon="-1.32106">
        <ele>26.35</ele>
        <time>2015-09-11T14:57:19.782Z</time>
      </trkpt>
      <trkpt lat="47.08239" lon="-1.32099">
        <ele>26.235</ele>
        <time>2015-09-11T14:57:20.75Z</time>
      </trkpt>
      <trkpt lat="47.08239" lon="-1.32092">
        <ele>26.126</ele>
        <time>2015-09-11T14:57:21.91Z</time>
      </trkpt>
      <trkpt lat="47.08239" lon="-1.32085">
        <ele>26.016</ele>
        <time>2015-09-11T14:57:22.768Z</time>
      </trkpt>
      <trkpt lat="47.08239" lon="-1.32077">
        <ele>25.908</ele>
        <time>2015-09-11T14:57:23.78Z</time>
      </trkpt>
      <trkpt lat="47.08239" lon="-1.32068">
        <ele>25.778</ele>
        <time>2015-09-11T14:57:24.744Z</time>
      </trkpt>
      <trkpt lat="47.08239" lon="-1.3206">
        <ele>25.657</ele>
        <time>2015-09-11T14:57:25.918Z</time>
      </trkpt>
      <trkpt lat="47.0824" lon="-1.32051">
        <ele>25.741</ele>
        <time>2015-09-11T14:57:26.767Z</time>
      </trkpt>
      <trkpt lat="47.0824" lon="-1.32043">
        <ele>25.922</ele>
        <time>2015-09-11T14:57:27.918Z</time>
      </trkpt>
      <trkpt lat="47.0824" lon="-1.32034">
        <ele>26.098</ele>
        <time>2015-09-11T14:57:28.773Z</time>
      </trkpt>
      <trkpt lat="47.08241" lon="-1.32025">
        <ele>26.347</ele>
        <time>2015-09-11T14:57:29.793Z</time>
      </trkpt>
      <trkpt lat="47.08241" lon="-1.32018">
        <ele>26.454</ele>
        <time>2015-09-11T14:57:30.746Z</time>
      </trkpt>
      <trkpt lat="47.08241" lon="-1.3201">
        <ele>26.554</ele>
        <time>2015-09-11T14:57:31.919Z</time>
      </trkpt>
      <trkpt lat="47.08241" lon="-1.32001">
        <ele>26.651</ele>
        <time>2015-09-11T14:57:32.766Z</time>
      </trkpt>
      <trkpt lat="47.0824" lon="-1.31994">
        <ele>26.709</ele>
        <time>2015-09-11T14:57:33.901Z</time>
      </trkpt>
      <trkpt lat="47.0824" lon="-1.31985">
        <ele>26.825</ele>
        <time>2015-09-11T14:57:34.774Z</time>
      </trkpt>
      <trkpt lat="47.08241" lon="-1.31977">
        <ele>26.948</ele>
        <time>2015-09-11T14:57:35.782Z</time>
      </trkpt>
      <trkpt lat="47.08242" lon="-1.31967">
        <ele>27</ele>
        <time>2015-09-11T14:57:36.743Z</time>
      </trkpt>
      <trkpt lat="47.08241" lon="-1.31958">
        <ele>27</ele>
        <time>2015-09-11T14:57:37.909Z</time>
      </trkpt>
      <trkpt lat="47.08241" lon="-1.31949">
        <ele>27</ele>
        <time>2015-09-11T14:57:38.763Z</time>
      </trkpt>
      <trkpt lat="47.08242" lon="-1.3194">
        <ele>27</ele>
        <time>2015-09-11T14:57:40.239Z</time>
      </trkpt>
      <trkpt lat="47.08242" lon="-1.31931">
        <ele>27</ele>
        <time>2015-09-11T14:57:40.772Z</time>
      </trkpt>
      <trkpt lat="47.08242" lon="-1.31923">
        <ele>27</ele>
        <time>2015-09-11T14:57:41.942Z</time>
      </trkpt>
      <trkpt lat="47.08242" lon="-1.31914">
        <ele>27</ele>
        <time>2015-09-11T14:57:42.764Z</time>
      </trkpt>
      <trkpt lat="47.08242" lon="-1.31907">
        <ele>27</ele>
        <time>2015-09-11T14:57:43.955Z</time>
      </trkpt>
      <trkpt lat="47.08242" lon="-1.31897">
        <ele>27</ele>
        <time>2015-09-11T14:57:44.743Z</time>
      </trkpt>
      <trkpt lat="47.08241" lon="-1.31889">
        <ele>27</ele>
        <time>2015-09-11T14:57:45.788Z</time>
      </trkpt>
      <trkpt lat="47.08241" lon="-1.31881">
        <ele>27</ele>
        <time>2015-09-11T14:57:46.762Z</time>
      </trkpt>
      <trkpt lat="47.08241" lon="-1.31872">
        <ele>27</ele>
        <time>2015-09-11T14:57:47.93Z</time>
      </trkpt>
      <trkpt lat="47.0824" lon="-1.31864">
        <ele>27</ele>
        <time>2015-09-11T14:57:48.78Z</time>
      </trkpt>
      <trkpt lat="47.0824" lon="-1.31856">
        <ele>27.105</ele>
        <time>2015-09-11T14:57:49.78Z</time>
      </trkpt>
      <trkpt lat="47.08239" lon="-1.31848">
        <ele>27.292</ele>
        <time>2015-09-11T14:57:50.766Z</time>
      </trkpt>
      <trkpt lat="47.08238" lon="-1.3184">
        <ele>27.443</ele>
        <time>2015-09-11T14:57:51.888Z</time>
      </trkpt>
      <trkpt lat="47.08237" lon="-1.31833">
        <ele>27.524</ele>
        <time>2015-09-11T14:57:52.764Z</time>
      </trkpt>
      <trkpt lat="47.08234" lon="-1.31825">
        <ele>27.435</ele>
        <time>2015-09-11T14:57:53.898Z</time>
      </trkpt>
      <trkpt lat="47.08233" lon="-1.31818">
        <ele>27.374</ele>
        <time>2015-09-11T14:57:54.769Z</time>
      </trkpt>
      <trkpt lat="47.0823" lon="-1.31812">
        <ele>27.287</ele>
        <time>2015-09-11T14:57:56.048Z</time>
      </trkpt>
      <trkpt lat="47.08228" lon="-1.31803">
        <ele>27.219</ele>
        <time>2015-09-11T14:57:56.773Z</time>
      </trkpt>
      <trkpt lat="47.08227" lon="-1.31798">
        <ele>27.161</ele>
        <time>2015-09-11T14:57:57.928Z</time>
      </trkpt>
      <trkpt lat="47.08225" lon="-1.3179">
        <ele>27.093</ele>
        <time>2015-09-11T14:57:58.764Z</time>
      </trkpt>
      <trkpt lat="47.08223" lon="-1.31783">
        <ele>27.017</ele>
        <time>2015-09-11T14:57:59.956Z</time>
      </trkpt>
      <trkpt lat="47.08221" lon="-1.31777">
        <ele>27.04</ele>
        <time>2015-09-11T14:58:00.774Z</time>
      </trkpt>
      <trkpt lat="47.08219" lon="-1.3177">
        <ele>27.12</ele>
        <time>2015-09-11T14:58:01.777Z</time>
      </trkpt>
      <trkpt lat="47.08217" lon="-1.31764">
        <ele>27.206</ele>
        <time>2015-09-11T14:58:02.743Z</time>
      </trkpt>
      <trkpt lat="47.08216" lon="-1.31756">
        <ele>27.235</ele>
        <time>2015-09-11T14:58:03.918Z</time>
      </trkpt>
      <trkpt lat="47.08213" lon="-1.3175">
        <ele>27.352</ele>
        <time>2015-09-11T14:58:04.773Z</time>
      </trkpt>
      <trkpt lat="47.08209" lon="-1.31738">
        <ele>27.709</ele>
        <time>2015-09-11T14:58:06.917Z</time>
      </trkpt>
      <trkpt lat="47.08207" lon="-1.31732">
        <ele>27.848</ele>
        <time>2015-09-11T14:58:07.768Z</time>
      </trkpt>
      <trkpt lat="47.08202" lon="-1.3172">
        <ele>28.066</ele>
        <time>2015-09-11T14:58:09.896Z</time>
      </trkpt>
      <trkpt lat="47.082" lon="-1.31711">
        <ele>28.39</ele>
        <time>2015-09-11T14:58:10.773Z</time>
      </trkpt>
      <trkpt lat="47.08197" lon="-1.317">
        <ele>28.8</ele>
        <time>2015-09-11T14:58:12.912Z</time>
      </trkpt>
      <trkpt lat="47.08195" lon="-1.31694">
        <ele>29.003</ele>
        <time>2015-09-11T14:58:13.77Z</time>
      </trkpt>
      <trkpt lat="47.08193" lon="-1.31687">
        <ele>29.514</ele>
        <time>2015-09-11T14:58:14.787Z</time>
      </trkpt>
      <trkpt lat="47.0819" lon="-1.31683">
        <ele>29.786</ele>
        <time>2015-09-11T14:58:15.75Z</time>
      </trkpt>
      <trkpt lat="47.08186" lon="-1.31673">
        <ele>30.307</ele>
        <time>2015-09-11T14:58:17.786Z</time>
      </trkpt>
      <trkpt lat="47.08184" lon="-1.31667">
        <ele>30.59</ele>
        <time>2015-09-11T14:58:18.744Z</time>
      </trkpt>
      <trkpt lat="47.08181" lon="-1.31655">
        <ele>30.929</ele>
        <time>2015-09-11T14:58:20.997Z</time>
      </trkpt>
      <trkpt lat="47.0818" lon="-1.3165">
        <ele>31.073</ele>
        <time>2015-09-11T14:58:21.764Z</time>
      </trkpt>
      <trkpt lat="47.08175" lon="-1.3164">
        <ele>31.278</ele>
        <time>2015-09-11T14:58:23.988Z</time>
      </trkpt>
      <trkpt lat="47.08173" lon="-1.31637">
        <ele>31.271</ele>
        <time>2015-09-11T14:58:24.762Z</time>
      </trkpt>
      <trkpt lat="47.08171" lon="-1.31631">
        <ele>31.451</ele>
        <time>2015-09-11T14:58:25.792Z</time>
      </trkpt>
      <trkpt lat="47.0817" lon="-1.31623">
        <ele>31.696</ele>
        <time>2015-09-11T14:58:26.743Z</time>
      </trkpt>
      <trkpt lat="47.08168" lon="-1.31613">
        <ele>31.976</ele>
        <time>2015-09-11T14:58:28.943Z</time>
      </trkpt>
      <trkpt lat="47.08167" lon="-1.31608">
        <ele>32.108</ele>
        <time>2015-09-11T14:58:29.773Z</time>
      </trkpt>
      <trkpt lat="47.08165" lon="-1.316">
        <ele>32.378</ele>
        <time>2015-09-11T14:58:30.912Z</time>
      </trkpt>
      <trkpt lat="47.08164" lon="-1.31594">
        <ele>32.544</ele>
        <time>2015-09-11T14:58:31.766Z</time>
      </trkpt>
      <trkpt lat="47.08163" lon="-1.31584">
        <ele>32.857</ele>
        <time>2015-09-11T14:58:33.779Z</time>
      </trkpt>
      <trkpt lat="47.08163" lon="-1.31578">
        <ele>32.904</ele>
        <time>2015-09-11T14:58:34.743Z</time>
      </trkpt>
      <trkpt lat="47.08164" lon="-1.31565">
        <ele>32.962</ele>
        <time>2015-09-11T14:58:37.986Z</time>
      </trkpt>
      <trkpt lat="47.08166" lon="-1.31559">
        <ele>32.998</ele>
        <time>2015-09-11T14:58:38.773Z</time>
      </trkpt>
      <trkpt lat="47.08168" lon="-1.31546">
        <ele>32.637</ele>
        <time>2015-09-11T14:58:40.947Z</time>
      </trkpt>
      <trkpt lat="47.08169" lon="-1.31541">
        <ele>32.426</ele>
        <time>2015-09-11T14:58:41.79Z</time>
      </trkpt>
      <trkpt lat="47.08171" lon="-1.31536">
        <ele>32.186</ele>
        <time>2015-09-11T14:58:42.784Z</time>
      </trkpt>
      <trkpt lat="47.08173" lon="-1.31525">
        <ele>31.772</ele>
        <time>2015-09-11T14:58:43.748Z</time>
      </trkpt>
      <trkpt lat="47.08175" lon="-1.31516">
        <ele>31.7</ele>
        <time>2015-09-11T14:58:44.939Z</time>
      </trkpt>
      <trkpt lat="47.08176" lon="-1.3151">
        <ele>31.675</ele>
        <time>2015-09-11T14:58:45.778Z</time>
      </trkpt>
      <trkpt lat="47.08178" lon="-1.31498">
        <ele>31.603</ele>
        <time>2015-09-11T14:58:47.791Z</time>
      </trkpt>
      <trkpt lat="47.08179" lon="-1.31494">
        <ele>31.545</ele>
        <time>2015-09-11T14:58:48.743Z</time>
      </trkpt>
      <trkpt lat="47.0818" lon="-1.31488">
        <ele>31.516</ele>
        <time>2015-09-11T14:58:49.925Z</time>
      </trkpt>
      <trkpt lat="47.08182" lon="-1.31481">
        <ele>31.459</ele>
        <time>2015-09-11T14:58:50.782Z</time>
      </trkpt>
      <trkpt lat="47.08183" lon="-1.31469">
        <ele>31.564</ele>
        <time>2015-09-11T14:58:52.794Z</time>
      </trkpt>
      <trkpt lat="47.08183" lon="-1.31462">
        <ele>31.769</ele>
        <time>2015-09-11T14:58:53.744Z</time>
      </trkpt>
      <trkpt lat="47.08186" lon="-1.3145">
        <ele>32.118</ele>
        <time>2015-09-11T14:58:55.91Z</time>
      </trkpt>
      <trkpt lat="47.08188" lon="-1.31443">
        <ele>32.279</ele>
        <time>2015-09-11T14:58:56.789Z</time>
      </trkpt>
      <trkpt lat="47.08191" lon="-1.31434">
        <ele>32.465</ele>
        <time>2015-09-11T14:58:58.825Z</time>
      </trkpt>
      <trkpt lat="47.08192" lon="-1.31427">
        <ele>32.647</ele>
        <time>2015-09-11T14:58:59.75Z</time>
      </trkpt>
      <trkpt lat="47.08195" lon="-1.31416">
        <ele>32.998</ele>
        <time>2015-09-11T14:59:01.938Z</time>
      </trkpt>
      <trkpt lat="47.08195" lon="-1.3141">
        <ele>32.99</ele>
        <time>2015-09-11T14:59:02.779Z</time>
      </trkpt>
      <trkpt lat="47.08193" lon="-1.314">
        <ele>33.039</ele>
        <time>2015-09-11T14:59:04.899Z</time>
      </trkpt>
      <trkpt lat="47.08191" lon="-1.31396">
        <ele>33.104</ele>
        <time>2015-09-11T14:59:05.764Z</time>
      </trkpt>
      <trkpt lat="47.08182" lon="-1.31393">
        <ele>33.382</ele>
        <time>2015-09-11T14:59:08.782Z</time>
      </trkpt>
      <trkpt lat="47.0818" lon="-1.31392">
        <ele>33.456</ele>
        <time>2015-09-11T14:59:09.743Z</time>
      </trkpt>
      <trkpt lat="47.08172" lon="-1.31389">
        <ele>33.809</ele>
        <time>2015-09-11T14:59:14.036Z</time>
      </trkpt>
      <trkpt lat="47.0817" lon="-1.31389">
        <ele>33.87</ele>
        <time>2015-09-11T14:59:14.841Z</time>
      </trkpt>
      <trkpt lat="47.08165" lon="-1.31382">
        <ele>34.29</ele>
        <time>2015-09-11T15:02:13.892Z</time>
      </trkpt>
      <trkpt lat="47.08163" lon="-1.3138">
        <ele>34.448</ele>
        <time>2015-09-11T15:02:14.761Z</time>
      </trkpt>
      <trkpt lat="47.08157" lon="-1.31376">
        <ele>34.808</ele>
        <time>2015-09-11T15:02:16.943Z</time>
      </trkpt>
      <trkpt lat="47.08154" lon="-1.31374">
        <ele>34.996</ele>
        <time>2015-09-11T15:02:17.778Z</time>
      </trkpt>
      <trkpt lat="47.08148" lon="-1.3137">
        <ele>35.366</ele>
        <time>2015-09-11T15:02:19.777Z</time>
      </trkpt>
      <trkpt lat="47.08145" lon="-1.31368">
        <ele>35.55</ele>
        <time>2015-09-11T15:02:20.776Z</time>
      </trkpt>
      <trkpt lat="47.08138" lon="-1.31365">
        <ele>35.87</ele>
        <time>2015-09-11T15:02:22.916Z</time>
      </trkpt>
      <trkpt lat="47.08135" lon="-1.31363">
        <ele>35.933</ele>
        <time>2015-09-11T15:02:23.761Z</time>
      </trkpt>
      <trkpt lat="47.08128" lon="-1.3136">
        <ele>36</ele>
        <time>2015-09-11T15:02:26.362Z</time>
      </trkpt>
      <trkpt lat="47.08125" lon="-1.31358">
        <ele>36</ele>
        <time>2015-09-11T15:02:26.743Z</time>
      </trkpt>
      <trkpt lat="47.08119" lon="-1.31354">
        <ele>36</ele>
        <time>2015-09-11T15:02:28.948Z</time>
      </trkpt>
      <trkpt lat="47.08115" lon="-1.31352">
        <ele>36</ele>
        <time>2015-09-11T15:02:29.774Z</time>
      </trkpt>
      <trkpt lat="47.08109" lon="-1.31348">
        <ele>36.072</ele>
        <time>2015-09-11T15:02:31.953Z</time>
      </trkpt>
      <trkpt lat="47.08106" lon="-1.31346">
        <ele>36.188</ele>
        <time>2015-09-11T15:02:32.777Z</time>
      </trkpt>
      <trkpt lat="47.081" lon="-1.31342">
        <ele>36.418</ele>
        <time>2015-09-11T15:02:34.894Z</time>
      </trkpt>
      <trkpt lat="47.08096" lon="-1.31339">
        <ele>36.533</ele>
        <time>2015-09-11T15:02:35.744Z</time>
      </trkpt>
      <trkpt lat="47.0809" lon="-1.31335">
        <ele>36.771</ele>
        <time>2015-09-11T15:02:37.909Z</time>
      </trkpt>
      <trkpt lat="47.08087" lon="-1.31332">
        <ele>36.886</ele>
        <time>2015-09-11T15:02:38.828Z</time>
      </trkpt>
      <trkpt lat="47.0808" lon="-1.31328">
        <ele>37.134</ele>
        <time>2015-09-11T15:02:40.776Z</time>
      </trkpt>
      <trkpt lat="47.08076" lon="-1.31326">
        <ele>37.26</ele>
        <time>2015-09-11T15:02:41.781Z</time>
      </trkpt>
      <trkpt lat="47.08069" lon="-1.31322">
        <ele>37.52</ele>
        <time>2015-09-11T15:02:44.007Z</time>
      </trkpt>
      <trkpt lat="47.08065" lon="-1.31319">
        <ele>37.653</ele>
        <time>2015-09-11T15:02:44.766Z</time>
      </trkpt>
      <trkpt lat="47.08058" lon="-1.31315">
        <ele>37.919</ele>
        <time>2015-09-11T15:02:46.779Z</time>
      </trkpt>
      <trkpt lat="47.08054" lon="-1.31313">
        <ele>38</ele>
        <time>2015-09-11T15:02:47.777Z</time>
      </trkpt>
      <trkpt lat="47.08047" lon="-1.31308">
        <ele>38</ele>
        <time>2015-09-11T15:02:49.889Z</time>
      </trkpt>
      <trkpt lat="47.08043" lon="-1.31307">
        <ele>38</ele>
        <time>2015-09-11T15:02:50.781Z</time>
      </trkpt>
      <trkpt lat="47.08035" lon="-1.31302">
        <ele>37.965</ele>
        <time>2015-09-11T15:02:52.783Z</time>
      </trkpt>
      <trkpt lat="47.08031" lon="-1.313">
        <ele>37.972</ele>
        <time>2015-09-11T15:02:53.762Z</time>
      </trkpt>
      <trkpt lat="47.08024" lon="-1.31294">
        <ele>38.084</ele>
        <time>2015-09-11T15:02:55.777Z</time>
      </trkpt>
      <trkpt lat="47.0802" lon="-1.31291">
        <ele>38.136</ele>
        <time>2015-09-11T15:02:56.746Z</time>
      </trkpt>
      <trkpt lat="47.08012" lon="-1.31286">
        <ele>38.159</ele>
        <time>2015-09-11T15:02:58.887Z</time>
      </trkpt>
      <trkpt lat="47.08009" lon="-1.31283">
        <ele>38.13</ele>
        <time>2015-09-11T15:02:59.776Z</time>
      </trkpt>
      <trkpt lat="47.08001" lon="-1.31278">
        <ele>38.004</ele>
        <time>2015-09-11T15:03:01.783Z</time>
      </trkpt>
      <trkpt lat="47.07997" lon="-1.31275">
        <ele>38.185</ele>
        <time>2015-09-11T15:03:02.776Z</time>
      </trkpt>
      <trkpt lat="47.0799" lon="-1.3127">
        <ele>38.614</ele>
        <time>2015-09-11T15:03:04.893Z</time>
      </trkpt>
      <trkpt lat="47.07986" lon="-1.31267">
        <ele>38.793</ele>
        <time>2015-09-11T15:03:05.774Z</time>
      </trkpt>
      <trkpt lat="47.07979" lon="-1.31262">
        <ele>39.072</ele>
        <time>2015-09-11T15:03:07.943Z</time>
      </trkpt>
      <trkpt lat="47.07975" lon="-1.31259">
        <ele>39.192</ele>
        <time>2015-09-11T15:03:08.771Z</time>
      </trkpt>
      <trkpt lat="47.07968" lon="-1.31254">
        <ele>39.318</ele>
        <time>2015-09-11T15:03:10.995Z</time>
      </trkpt>
      <trkpt lat="47.07964" lon="-1.31252">
        <ele>39.372</ele>
        <time>2015-09-11T15:03:11.773Z</time>
      </trkpt>
      <trkpt lat="47.07956" lon="-1.31246">
        <ele>39.506</ele>
        <time>2015-09-11T15:03:13.893Z</time>
      </trkpt>
      <trkpt lat="47.07952" lon="-1.31244">
        <ele>39.565</ele>
        <time>2015-09-11T15:03:14.762Z</time>
      </trkpt>
      <trkpt lat="47.07948" lon="-1.31242">
        <ele>39.609</ele>
        <time>2015-09-11T15:03:16.068Z</time>
      </trkpt>
      <trkpt lat="47.07942" lon="-1.31239">
        <ele>39.621</ele>
        <time>2015-09-11T15:03:16.744Z</time>
      </trkpt>
      <trkpt lat="47.07938" lon="-1.31236">
        <ele>39.624</ele>
        <time>2015-09-11T15:03:17.792Z</time>
      </trkpt>
      <trkpt lat="47.07933" lon="-1.31234">
        <ele>39.649</ele>
        <time>2015-09-11T15:03:18.797Z</time>
      </trkpt>
      <trkpt lat="47.07928" lon="-1.31233">
        <ele>39.74</ele>
        <time>2015-09-11T15:03:19.791Z</time>
      </trkpt>
      <trkpt lat="47.07924" lon="-1.31232">
        <ele>39.838</ele>
        <time>2015-09-11T15:03:20.744Z</time>
      </trkpt>
      <trkpt lat="47.07918" lon="-1.31232">
        <ele>39.962</ele>
        <time>2015-09-11T15:03:21.919Z</time>
      </trkpt>
      <trkpt lat="47.07913" lon="-1.31232">
        <ele>39.794</ele>
        <time>2015-09-11T15:03:22.762Z</time>
      </trkpt>
      <trkpt lat="47.07909" lon="-1.31232">
        <ele>39.53</ele>
        <time>2015-09-11T15:03:23.777Z</time>
      </trkpt>
      <trkpt lat="47.07903" lon="-1.31233">
        <ele>39.206</ele>
        <time>2015-09-11T15:03:24.75Z</time>
      </trkpt>
      <trkpt lat="47.07897" lon="-1.31235">
        <ele>38.929</ele>
        <time>2015-09-11T15:03:25.913Z</time>
      </trkpt>
      <trkpt lat="47.07892" lon="-1.31238">
        <ele>38.734</ele>
        <time>2015-09-11T15:03:26.84Z</time>
      </trkpt>
      <trkpt lat="47.07887" lon="-1.31239">
        <ele>38.504</ele>
        <time>2015-09-11T15:03:27.907Z</time>
      </trkpt>
      <trkpt lat="47.07882" lon="-1.31242">
        <ele>38.262</ele>
        <time>2015-09-11T15:03:28.776Z</time>
      </trkpt>
      <trkpt lat="47.07876" lon="-1.31244">
        <ele>37.963</ele>
        <time>2015-09-11T15:03:29.89Z</time>
      </trkpt>
      <trkpt lat="47.07871" lon="-1.31246">
        <ele>37.691</ele>
        <time>2015-09-11T15:03:30.768Z</time>
      </trkpt>
      <trkpt lat="47.07867" lon="-1.31249">
        <ele>37.38</ele>
        <time>2015-09-11T15:03:32.012Z</time>
      </trkpt>
      <trkpt lat="47.07863" lon="-1.31252">
        <ele>37.107</ele>
        <time>2015-09-11T15:03:32.772Z</time>
      </trkpt>
      <trkpt lat="47.07855" lon="-1.31256">
        <ele>36.726</ele>
        <time>2015-09-11T15:03:34.889Z</time>
      </trkpt>
      <trkpt lat="47.0785" lon="-1.3126">
        <ele>36.463</ele>
        <time>2015-09-11T15:03:36.258Z</time>
      </trkpt>
      <trkpt lat="47.07846" lon="-1.31263">
        <ele>36.204</ele>
        <time>2015-09-11T15:03:36.78Z</time>
      </trkpt>
      <trkpt lat="47.07841" lon="-1.31265">
        <ele>35.866</ele>
        <time>2015-09-11T15:03:37.742Z</time>
      </trkpt>
      <trkpt lat="47.07833" lon="-1.31267">
        <ele>35.353</ele>
        <time>2015-09-11T15:03:38.868Z</time>
      </trkpt>
      <trkpt lat="47.07827" lon="-1.3127">
        <ele>34.986</ele>
        <time>2015-09-11T15:03:39.769Z</time>
      </trkpt>
      <trkpt lat="47.07821" lon="-1.3127">
        <ele>34.692</ele>
        <time>2015-09-11T15:03:40.919Z</time>
      </trkpt>
      <trkpt lat="47.07815" lon="-1.31271">
        <ele>34.405</ele>
        <time>2015-09-11T15:03:41.762Z</time>
      </trkpt>
      <trkpt lat="47.07807" lon="-1.31271">
        <ele>34.082</ele>
        <time>2015-09-11T15:03:42.793Z</time>
      </trkpt>
      <trkpt lat="47.07803" lon="-1.3127">
        <ele>34</ele>
        <time>2015-09-11T15:03:43.744Z</time>
      </trkpt>
      <trkpt lat="47.07797" lon="-1.31268">
        <ele>34</ele>
        <time>2015-09-11T15:03:44.9Z</time>
      </trkpt>
      <trkpt lat="47.07791" lon="-1.31266">
        <ele>34</ele>
        <time>2015-09-11T15:03:45.764Z</time>
      </trkpt>
      <trkpt lat="47.07783" lon="-1.31269">
        <ele>34</ele>
        <time>2015-09-11T15:03:47.358Z</time>
      </trkpt>
      <trkpt lat="47.07777" lon="-1.31269">
        <ele>34</ele>
        <time>2015-09-11T15:03:47.846Z</time>
      </trkpt>
      <trkpt lat="47.07771" lon="-1.31269">
        <ele>34</ele>
        <time>2015-09-11T15:03:48.944Z</time>
      </trkpt>
      <trkpt lat="47.07761" lon="-1.3127">
        <ele>34</ele>
        <time>2015-09-11T15:03:49.772Z</time>
      </trkpt>
      <trkpt lat="47.07755" lon="-1.3127">
        <ele>34</ele>
        <time>2015-09-11T15:03:50.902Z</time>
      </trkpt>
      <trkpt lat="47.07751" lon="-1.31273">
        <ele>34</ele>
        <time>2015-09-11T15:03:51.788Z</time>
      </trkpt>
      <trkpt lat="47.07745" lon="-1.31274">
        <ele>34</ele>
        <time>2015-09-11T15:03:53.442Z</time>
      </trkpt>
      <trkpt lat="47.0774" lon="-1.31275">
        <ele>34</ele>
        <time>2015-09-11T15:03:53.74Z</time>
      </trkpt>
      <trkpt lat="47.07735" lon="-1.31272">
        <ele>34</ele>
        <time>2015-09-11T15:03:54.77Z</time>
      </trkpt>
      <trkpt lat="47.07731" lon="-1.31268">
        <ele>34</ele>
        <time>2015-09-11T15:03:55.757Z</time>
      </trkpt>
      <trkpt lat="47.07726" lon="-1.31266">
        <ele>34</ele>
        <time>2015-09-11T15:03:57.362Z</time>
      </trkpt>
      <trkpt lat="47.07716" lon="-1.31266">
        <ele>33.769</ele>
        <time>2015-09-11T15:03:57.743Z</time>
      </trkpt>
      <trkpt lat="47.07711" lon="-1.31267">
        <ele>33.578</ele>
        <time>2015-09-11T15:03:58.769Z</time>
      </trkpt>
      <trkpt lat="47.07705" lon="-1.31266">
        <ele>33.387</ele>
        <time>2015-09-11T15:03:59.743Z</time>
      </trkpt>
      <trkpt lat="47.07697" lon="-1.31265">
        <ele>33.096</ele>
        <time>2015-09-11T15:04:01.926Z</time>
      </trkpt>
      <trkpt lat="47.0769" lon="-1.31265">
        <ele>33.149</ele>
        <time>2015-09-11T15:04:02.745Z</time>
      </trkpt>
      <trkpt lat="47.07686" lon="-1.31264">
        <ele>33.322</ele>
        <time>2015-09-11T15:04:03.771Z</time>
      </trkpt>
      <trkpt lat="47.07681" lon="-1.31263">
        <ele>33.48</ele>
        <time>2015-09-11T15:04:04.74Z</time>
      </trkpt>
      <trkpt lat="47.07676" lon="-1.3126">
        <ele>33.653</ele>
        <time>2015-09-11T15:04:05.793Z</time>
      </trkpt>
      <trkpt lat="47.07673" lon="-1.31255">
        <ele>33.783</ele>
        <time>2015-09-11T15:04:06.744Z</time>
      </trkpt>
      <trkpt lat="47.07668" lon="-1.31251">
        <ele>33.959</ele>
        <time>2015-09-11T15:04:07.778Z</time>
      </trkpt>
      <trkpt lat="47.07662" lon="-1.31247">
        <ele>34.168</ele>
        <time>2015-09-11T15:04:08.767Z</time>
      </trkpt>
      <trkpt lat="47.07659" lon="-1.31242">
        <ele>34.283</ele>
        <time>2015-09-11T15:04:09.779Z</time>
      </trkpt>
      <trkpt lat="47.07655" lon="-1.31237">
        <ele>34.416</ele>
        <time>2015-09-11T15:04:10.749Z</time>
      </trkpt>
      <trkpt lat="47.07648" lon="-1.31231">
        <ele>34.679</ele>
        <time>2015-09-11T15:04:12.897Z</time>
      </trkpt>
      <trkpt lat="47.07645" lon="-1.31227">
        <ele>34.766</ele>
        <time>2015-09-11T15:04:13.785Z</time>
      </trkpt>
      <trkpt lat="47.07642" lon="-1.31222">
        <ele>34.895</ele>
        <time>2015-09-11T15:04:14.903Z</time>
      </trkpt>
      <trkpt lat="47.07638" lon="-1.31218">
        <ele>35.032</ele>
        <time>2015-09-11T15:04:15.767Z</time>
      </trkpt>
      <trkpt lat="47.07631" lon="-1.31211">
        <ele>35.298</ele>
        <time>2015-09-11T15:04:17.942Z</time>
      </trkpt>
      <trkpt lat="47.07627" lon="-1.31207">
        <ele>35.439</ele>
        <time>2015-09-11T15:04:18.84Z</time>
      </trkpt>
      <trkpt lat="47.07623" lon="-1.31202">
        <ele>35.558</ele>
        <time>2015-09-11T15:04:19.781Z</time>
      </trkpt>
      <trkpt lat="47.0762" lon="-1.31197">
        <ele>35.673</ele>
        <time>2015-09-11T15:04:20.744Z</time>
      </trkpt>
      <trkpt lat="47.07617" lon="-1.31193">
        <ele>35.806</ele>
        <time>2015-09-11T15:04:21.783Z</time>
      </trkpt>
      <trkpt lat="47.07612" lon="-1.31189">
        <ele>35.957</ele>
        <time>2015-09-11T15:04:22.746Z</time>
      </trkpt>
      <trkpt lat="47.07608" lon="-1.31183">
        <ele>36.101</ele>
        <time>2015-09-11T15:04:23.862Z</time>
      </trkpt>
      <trkpt lat="47.07605" lon="-1.31178">
        <ele>36.234</ele>
        <time>2015-09-11T15:04:24.745Z</time>
      </trkpt>
      <trkpt lat="47.07602" lon="-1.31172">
        <ele>36.346</ele>
        <time>2015-09-11T15:04:25.907Z</time>
      </trkpt>
      <trkpt lat="47.07599" lon="-1.31166">
        <ele>36.416</ele>
        <time>2015-09-11T15:04:26.833Z</time>
      </trkpt>
      <trkpt lat="47.07596" lon="-1.3116">
        <ele>36.293</ele>
        <time>2015-09-11T15:04:27.779Z</time>
      </trkpt>
      <trkpt lat="47.07593" lon="-1.31153">
        <ele>36.149</ele>
        <time>2015-09-11T15:04:28.743Z</time>
      </trkpt>
      <trkpt lat="47.07591" lon="-1.31146">
        <ele>35.955</ele>
        <time>2015-09-11T15:04:30.129Z</time>
      </trkpt>
      <trkpt lat="47.0759" lon="-1.31139">
        <ele>35.782</ele>
        <time>2015-09-11T15:04:30.747Z</time>
      </trkpt>
      <trkpt lat="47.07588" lon="-1.31133">
        <ele>35.86</ele>
        <time>2015-09-11T15:04:31.793Z</time>
      </trkpt>
      <trkpt lat="47.07587" lon="-1.31125">
        <ele>35.933</ele>
        <time>2015-09-11T15:04:32.743Z</time>
      </trkpt>
      <trkpt lat="47.07586" lon="-1.31119">
        <ele>35.978</ele>
        <time>2015-09-11T15:04:33.784Z</time>
      </trkpt>
      <trkpt lat="47.07584" lon="-1.31112">
        <ele>35.999</ele>
        <time>2015-09-11T15:04:34.752Z</time>
      </trkpt>
      <trkpt lat="47.07583" lon="-1.31106">
        <ele>36</ele>
        <time>2015-09-11T15:04:35.783Z</time>
      </trkpt>
      <trkpt lat="47.07582" lon="-1.31098">
        <ele>36.037</ele>
        <time>2015-09-11T15:04:36.744Z</time>
      </trkpt>
      <trkpt lat="47.07582" lon="-1.31092">
        <ele>36.062</ele>
        <time>2015-09-11T15:04:37.917Z</time>
      </trkpt>
      <trkpt lat="47.07581" lon="-1.31084">
        <ele>36.098</ele>
        <time>2015-09-11T15:04:38.745Z</time>
      </trkpt>
      <trkpt lat="47.07579" lon="-1.31077">
        <ele>35.981</ele>
        <time>2015-09-11T15:04:39.826Z</time>
      </trkpt>
      <trkpt lat="47.07577" lon="-1.31069">
        <ele>35.849</ele>
        <time>2015-09-11T15:04:40.764Z</time>
      </trkpt>
      <trkpt lat="47.07576" lon="-1.31062">
        <ele>35.696</ele>
        <time>2015-09-11T15:04:41.913Z</time>
      </trkpt>
      <trkpt lat="47.07574" lon="-1.31055">
        <ele>35.665</ele>
        <time>2015-09-11T15:04:42.782Z</time>
      </trkpt>
      <trkpt lat="47.07573" lon="-1.31047">
        <ele>35.758</ele>
        <time>2015-09-11T15:04:43.779Z</time>
      </trkpt>
      <trkpt lat="47.07572" lon="-1.31039">
        <ele>35.845</ele>
        <time>2015-09-11T15:04:44.75Z</time>
      </trkpt>
      <trkpt lat="47.0757" lon="-1.31031">
        <ele>35.96</ele>
        <time>2015-09-11T15:04:45.78Z</time>
      </trkpt>
      <trkpt lat="47.07568" lon="-1.31024">
        <ele>36.006</ele>
        <time>2015-09-11T15:04:46.749Z</time>
      </trkpt>
      <trkpt lat="47.07567" lon="-1.31016">
        <ele>35.958</ele>
        <time>2015-09-11T15:04:47.881Z</time>
      </trkpt>
      <trkpt lat="47.07566" lon="-1.31008">
        <ele>35.827</ele>
        <time>2015-09-11T15:04:48.765Z</time>
      </trkpt>
      <trkpt lat="47.07564" lon="-1.31002">
        <ele>35.773</ele>
        <time>2015-09-11T15:04:49.782Z</time>
      </trkpt>
      <trkpt lat="47.07561" lon="-1.30996">
        <ele>35.804</ele>
        <time>2015-09-11T15:04:50.745Z</time>
      </trkpt>
      <trkpt lat="47.0756" lon="-1.3099">
        <ele>35.854</ele>
        <time>2015-09-11T15:04:51.916Z</time>
      </trkpt>
      <trkpt lat="47.07558" lon="-1.30983">
        <ele>35.898</ele>
        <time>2015-09-11T15:04:52.773Z</time>
      </trkpt>
      <trkpt lat="47.07556" lon="-1.30976">
        <ele>35.98</ele>
        <time>2015-09-11T15:04:53.78Z</time>
      </trkpt>
      <trkpt lat="47.07554" lon="-1.3097">
        <ele>36.061</ele>
        <time>2015-09-11T15:04:54.744Z</time>
      </trkpt>
      <trkpt lat="47.0755" lon="-1.3096">
        <ele>36.266</ele>
        <time>2015-09-11T15:04:56.937Z</time>
      </trkpt>
      <trkpt lat="47.07547" lon="-1.30959">
        <ele>36.435</ele>
        <time>2015-09-11T15:04:57.771Z</time>
      </trkpt>
      <trkpt lat="47.07541" lon="-1.30958">
        <ele>36.812</ele>
        <time>2015-09-11T15:04:59.905Z</time>
      </trkpt>
      <trkpt lat="47.07537" lon="-1.30962">
        <ele>36.914</ele>
        <time>2015-09-11T15:05:00.777Z</time>
      </trkpt>
      <trkpt lat="47.0753" lon="-1.3097">
        <ele>37</ele>
        <time>2015-09-11T15:05:02.797Z</time>
      </trkpt>
      <trkpt lat="47.07527" lon="-1.30974">
        <ele>37</ele>
        <time>2015-09-11T15:05:03.771Z</time>
      </trkpt>
      <trkpt lat="47.07522" lon="-1.30979">
        <ele>37</ele>
        <time>2015-09-11T15:05:04.779Z</time>
      </trkpt>
      <trkpt lat="47.07518" lon="-1.30984">
        <ele>37</ele>
        <time>2015-09-11T15:05:05.749Z</time>
      </trkpt>
      <trkpt lat="47.07515" lon="-1.30989">
        <ele>37</ele>
        <time>2015-09-11T15:05:06.915Z</time>
      </trkpt>
      <trkpt lat="47.07511" lon="-1.30992">
        <ele>37</ele>
        <time>2015-09-11T15:05:07.816Z</time>
      </trkpt>
      <trkpt lat="47.07504" lon="-1.31">
        <ele>37</ele>
        <time>2015-09-11T15:05:10.083Z</time>
      </trkpt>
      <trkpt lat="47.075" lon="-1.31006">
        <ele>37</ele>
        <time>2015-09-11T15:05:10.771Z</time>
      </trkpt>
      <trkpt lat="47.07496" lon="-1.31012">
        <ele>37</ele>
        <time>2015-09-11T15:05:12.248Z</time>
      </trkpt>
      <trkpt lat="47.07492" lon="-1.31017">
        <ele>37</ele>
        <time>2015-09-11T15:05:12.75Z</time>
      </trkpt>
      <trkpt lat="47.07487" lon="-1.31021">
        <ele>37</ele>
        <time>2015-09-11T15:05:13.78Z</time>
      </trkpt>
      <trkpt lat="47.07483" lon="-1.31024">
        <ele>37</ele>
        <time>2015-09-11T15:05:14.768Z</time>
      </trkpt>
      <trkpt lat="47.0748" lon="-1.31028">
        <ele>36.997</ele>
        <time>2015-09-11T15:05:15.897Z</time>
      </trkpt>
      <trkpt lat="47.07476" lon="-1.31032">
        <ele>36.862</ele>
        <time>2015-09-11T15:05:16.777Z</time>
      </trkpt>
      <trkpt lat="47.07472" lon="-1.31037">
        <ele>36.661</ele>
        <time>2015-09-11T15:05:17.778Z</time>
      </trkpt>
      <trkpt lat="47.07469" lon="-1.31042">
        <ele>36.561</ele>
        <time>2015-09-11T15:05:18.749Z</time>
      </trkpt>
      <trkpt lat="47.07464" lon="-1.31047">
        <ele>36.515</ele>
        <time>2015-09-11T15:05:19.878Z</time>
      </trkpt>
      <trkpt lat="47.0746" lon="-1.31051">
        <ele>36.531</ele>
        <time>2015-09-11T15:05:20.776Z</time>
      </trkpt>
      <trkpt lat="47.07455" lon="-1.31057">
        <ele>36.627</ele>
        <time>2015-09-11T15:05:22.973Z</time>
      </trkpt>
      <trkpt lat="47.07452" lon="-1.3106">
        <ele>36.739</ele>
        <time>2015-09-11T15:05:23.747Z</time>
      </trkpt>
      <trkpt lat="47.07448" lon="-1.31063">
        <ele>36.89</ele>
        <time>2015-09-11T15:05:24.778Z</time>
      </trkpt>
      <trkpt lat="47.07443" lon="-1.31066">
        <ele>37.057</ele>
        <time>2015-09-11T15:05:25.776Z</time>
      </trkpt>
      <trkpt lat="47.07436" lon="-1.31072">
        <ele>37.507</ele>
        <time>2015-09-11T15:05:27.96Z</time>
      </trkpt>
      <trkpt lat="47.07431" lon="-1.31074">
        <ele>37.801</ele>
        <time>2015-09-11T15:05:28.762Z</time>
      </trkpt>
      <trkpt lat="47.07423" lon="-1.31078">
        <ele>38.37</ele>
        <time>2015-09-11T15:05:30.954Z</time>
      </trkpt>
      <trkpt lat="47.07419" lon="-1.3108">
        <ele>38.698</ele>
        <time>2015-09-11T15:05:31.775Z</time>
      </trkpt>
      <trkpt lat="47.07412" lon="-1.31084">
        <ele>39.173</ele>
        <time>2015-09-11T15:05:33.901Z</time>
      </trkpt>
      <trkpt lat="47.07408" lon="-1.31086">
        <ele>39.339</ele>
        <time>2015-09-11T15:05:34.776Z</time>
      </trkpt>
      <trkpt lat="47.074" lon="-1.31091">
        <ele>39.75</ele>
        <time>2015-09-11T15:05:36.797Z</time>
      </trkpt>
      <trkpt lat="47.07396" lon="-1.31092">
        <ele>39.957</ele>
        <time>2015-09-11T15:05:37.777Z</time>
      </trkpt>
      <trkpt lat="47.07388" lon="-1.31096">
        <ele>40.492</ele>
        <time>2015-09-11T15:05:39.904Z</time>
      </trkpt>
      <trkpt lat="47.07384" lon="-1.31098">
        <ele>40.791</ele>
        <time>2015-09-11T15:05:40.774Z</time>
      </trkpt>
      <trkpt lat="47.07376" lon="-1.31102">
        <ele>41.283</ele>
        <time>2015-09-11T15:05:42.901Z</time>
      </trkpt>
      <trkpt lat="47.07372" lon="-1.31105">
        <ele>41.515</ele>
        <time>2015-09-11T15:05:43.774Z</time>
      </trkpt>
      <trkpt lat="47.07368" lon="-1.31107">
        <ele>41.721</ele>
        <time>2015-09-11T15:05:44.89Z</time>
      </trkpt>
      <trkpt lat="47.07362" lon="-1.31111">
        <ele>41.975</ele>
        <time>2015-09-11T15:05:45.763Z</time>
      </trkpt>
      <trkpt lat="47.07353" lon="-1.31114">
        <ele>42.248</ele>
        <time>2015-09-11T15:05:47.78Z</time>
      </trkpt>
      <trkpt lat="47.0735" lon="-1.31115">
        <ele>42.355</ele>
        <time>2015-09-11T15:05:49.014Z</time>
      </trkpt>
      <trkpt lat="47.07345" lon="-1.31115">
        <ele>42.493</ele>
        <time>2015-09-11T15:05:49.778Z</time>
      </trkpt>
      <trkpt lat="47.0734" lon="-1.31114">
        <ele>42.682</ele>
        <time>2015-09-11T15:05:50.75Z</time>
      </trkpt>
      <trkpt lat="47.07335" lon="-1.3111">
        <ele>42.94</ele>
        <time>2015-09-11T15:05:51.915Z</time>
      </trkpt>
      <trkpt lat="47.07331" lon="-1.31106">
        <ele>43.013</ele>
        <time>2015-09-11T15:05:52.771Z</time>
      </trkpt>
      <trkpt lat="47.07329" lon="-1.311">
        <ele>43.064</ele>
        <time>2015-09-11T15:05:53.78Z</time>
      </trkpt>
      <trkpt lat="47.07326" lon="-1.31094">
        <ele>43.163</ele>
        <time>2015-09-11T15:05:54.742Z</time>
      </trkpt>
      <trkpt lat="47.07324" lon="-1.31088">
        <ele>43.279</ele>
        <time>2015-09-11T15:05:55.919Z</time>
      </trkpt>
      <trkpt lat="47.07322" lon="-1.31081">
        <ele>43.474</ele>
        <time>2015-09-11T15:05:56.771Z</time>
      </trkpt>
      <trkpt lat="47.0732" lon="-1.31069">
        <ele>43.992</ele>
        <time>2015-09-11T15:05:58.779Z</time>
      </trkpt>
      <trkpt lat="47.07318" lon="-1.31063">
        <ele>44.306</ele>
        <time>2015-09-11T15:05:59.839Z</time>
      </trkpt>
      <trkpt lat="47.07316" lon="-1.31057">
        <ele>44.579</ele>
        <time>2015-09-11T15:06:00.778Z</time>
      </trkpt>
      <trkpt lat="47.07314" lon="-1.31051">
        <ele>44.641</ele>
        <time>2015-09-11T15:06:01.743Z</time>
      </trkpt>
      <trkpt lat="47.07313" lon="-1.31044">
        <ele>44.639</ele>
        <time>2015-09-11T15:06:02.952Z</time>
      </trkpt>
      <trkpt lat="47.07311" lon="-1.31038">
        <ele>44.66</ele>
        <time>2015-09-11T15:06:03.77Z</time>
      </trkpt>
      <trkpt lat="47.07309" lon="-1.31025">
        <ele>44.763</ele>
        <time>2015-09-11T15:06:05.784Z</time>
      </trkpt>
      <trkpt lat="47.07307" lon="-1.31018">
        <ele>44.877</ele>
        <time>2015-09-11T15:06:06.745Z</time>
      </trkpt>
      <trkpt lat="47.07305" lon="-1.31011">
        <ele>45.011</ele>
        <time>2015-09-11T15:06:07.77Z</time>
      </trkpt>
      <trkpt lat="47.07304" lon="-1.31004">
        <ele>45.098</ele>
        <time>2015-09-11T15:06:08.743Z</time>
      </trkpt>
      <trkpt lat="47.07302" lon="-1.30998">
        <ele>45.162</ele>
        <time>2015-09-11T15:06:09.772Z</time>
      </trkpt>
      <trkpt lat="47.07301" lon="-1.30991">
        <ele>44.993</ele>
        <time>2015-09-11T15:06:10.742Z</time>
      </trkpt>
      <trkpt lat="47.073" lon="-1.30984">
        <ele>44.813</ele>
        <time>2015-09-11T15:06:11.778Z</time>
      </trkpt>
      <trkpt lat="47.07299" lon="-1.30976">
        <ele>44.608</ele>
        <time>2015-09-11T15:06:12.74Z</time>
      </trkpt>
      <trkpt lat="47.07296" lon="-1.30969">
        <ele>44.583</ele>
        <time>2015-09-11T15:06:13.773Z</time>
      </trkpt>
      <trkpt lat="47.07294" lon="-1.30963">
        <ele>44.529</ele>
        <time>2015-09-11T15:06:14.743Z</time>
      </trkpt>
      <trkpt lat="47.07292" lon="-1.30956">
        <ele>44.424</ele>
        <time>2015-09-11T15:06:15.824Z</time>
      </trkpt>
      <trkpt lat="47.07291" lon="-1.30945">
        <ele>44.054</ele>
        <time>2015-09-11T15:06:16.76Z</time>
      </trkpt>
      <trkpt lat="47.07289" lon="-1.30936">
        <ele>43.997</ele>
        <time>2015-09-11T15:06:17.912Z</time>
      </trkpt>
      <trkpt lat="47.07288" lon="-1.30929">
        <ele>43.93</ele>
        <time>2015-09-11T15:06:18.771Z</time>
      </trkpt>
      <trkpt lat="47.07286" lon="-1.30922">
        <ele>43.829</ele>
        <time>2015-09-11T15:06:19.9Z</time>
      </trkpt>
      <trkpt lat="47.07284" lon="-1.30915">
        <ele>43.776</ele>
        <time>2015-09-11T15:06:20.757Z</time>
      </trkpt>
      <trkpt lat="47.07281" lon="-1.30907">
        <ele>43.87</ele>
        <time>2015-09-11T15:06:21.774Z</time>
      </trkpt>
      <trkpt lat="47.0728" lon="-1.309">
        <ele>43.924</ele>
        <time>2015-09-11T15:06:22.747Z</time>
      </trkpt>
      <trkpt lat="47.07279" lon="-1.30894">
        <ele>43.967</ele>
        <time>2015-09-11T15:06:23.774Z</time>
      </trkpt>
      <trkpt lat="47.07277" lon="-1.30885">
        <ele>43.963</ele>
        <time>2015-09-11T15:06:24.741Z</time>
      </trkpt>
      <trkpt lat="47.07274" lon="-1.30878">
        <ele>43.902</ele>
        <time>2015-09-11T15:06:25.773Z</time>
      </trkpt>
      <trkpt lat="47.07272" lon="-1.30872">
        <ele>43.804</ele>
        <time>2015-09-11T15:06:26.74Z</time>
      </trkpt>
      <trkpt lat="47.07269" lon="-1.30863">
        <ele>43.704</ele>
        <time>2015-09-11T15:06:27.787Z</time>
      </trkpt>
      <trkpt lat="47.07266" lon="-1.30855">
        <ele>43.826</ele>
        <time>2015-09-11T15:06:28.748Z</time>
      </trkpt>
      <trkpt lat="47.07264" lon="-1.30847">
        <ele>44.014</ele>
        <time>2015-09-11T15:06:29.891Z</time>
      </trkpt>
      <trkpt lat="47.07261" lon="-1.3084">
        <ele>44.194</ele>
        <time>2015-09-11T15:06:30.776Z</time>
      </trkpt>
      <trkpt lat="47.0726" lon="-1.30834">
        <ele>44.294</ele>
        <time>2015-09-11T15:06:31.938Z</time>
      </trkpt>
      <trkpt lat="47.07258" lon="-1.30827">
        <ele>44.218</ele>
        <time>2015-09-11T15:06:32.766Z</time>
      </trkpt>
      <trkpt lat="47.07255" lon="-1.3082">
        <ele>44.149</ele>
        <time>2015-09-11T15:06:33.769Z</time>
      </trkpt>
      <trkpt lat="47.07253" lon="-1.30813">
        <ele>44.081</ele>
        <time>2015-09-11T15:06:34.747Z</time>
      </trkpt>
      <trkpt lat="47.0725" lon="-1.30807">
        <ele>44.059</ele>
        <time>2015-09-11T15:06:35.865Z</time>
      </trkpt>
      <trkpt lat="47.07247" lon="-1.30801">
        <ele>44.094</ele>
        <time>2015-09-11T15:06:36.772Z</time>
      </trkpt>
      <trkpt lat="47.07244" lon="-1.30795">
        <ele>44.209</ele>
        <time>2015-09-11T15:06:37.771Z</time>
      </trkpt>
      <trkpt lat="47.07242" lon="-1.30789">
        <ele>44.284</ele>
        <time>2015-09-11T15:06:38.744Z</time>
      </trkpt>
      <trkpt lat="47.0724" lon="-1.30781">
        <ele>44.364</ele>
        <time>2015-09-11T15:06:39.891Z</time>
      </trkpt>
      <trkpt lat="47.07238" lon="-1.30775">
        <ele>44.436</ele>
        <time>2015-09-11T15:06:40.779Z</time>
      </trkpt>
      <trkpt lat="47.07236" lon="-1.30769">
        <ele>44.511</ele>
        <time>2015-09-11T15:06:41.928Z</time>
      </trkpt>
      <trkpt lat="47.07233" lon="-1.30762">
        <ele>44.612</ele>
        <time>2015-09-11T15:06:42.771Z</time>
      </trkpt>
      <trkpt lat="47.07231" lon="-1.30755">
        <ele>44.688</ele>
        <time>2015-09-11T15:06:43.93Z</time>
      </trkpt>
      <trkpt lat="47.07228" lon="-1.30748">
        <ele>44.788</ele>
        <time>2015-09-11T15:06:44.768Z</time>
      </trkpt>
      <trkpt lat="47.07226" lon="-1.30743">
        <ele>44.882</ele>
        <time>2015-09-11T15:06:45.782Z</time>
      </trkpt>
      <trkpt lat="47.07224" lon="-1.30737">
        <ele>44.954</ele>
        <time>2015-09-11T15:06:46.743Z</time>
      </trkpt>
      <trkpt lat="47.07221" lon="-1.3073">
        <ele>44.954</ele>
        <time>2015-09-11T15:06:48.329Z</time>
      </trkpt>
      <trkpt lat="47.07219" lon="-1.30721">
        <ele>44.875</ele>
        <time>2015-09-11T15:06:48.777Z</time>
      </trkpt>
      <trkpt lat="47.07216" lon="-1.30714">
        <ele>44.837</ele>
        <time>2015-09-11T15:06:49.777Z</time>
      </trkpt>
      <trkpt lat="47.07213" lon="-1.30706">
        <ele>44.862</ele>
        <time>2015-09-11T15:06:50.746Z</time>
      </trkpt>
      <trkpt lat="47.0721" lon="-1.30702">
        <ele>44.878</ele>
        <time>2015-09-11T15:06:51.969Z</time>
      </trkpt>
      <trkpt lat="47.07208" lon="-1.30695">
        <ele>44.999</ele>
        <time>2015-09-11T15:06:52.808Z</time>
      </trkpt>
      <trkpt lat="47.07206" lon="-1.30686">
        <ele>45</ele>
        <time>2015-09-11T15:06:53.782Z</time>
      </trkpt>
      <trkpt lat="47.07203" lon="-1.30679">
        <ele>45</ele>
        <time>2015-09-11T15:06:54.749Z</time>
      </trkpt>
      <trkpt lat="47.07201" lon="-1.3067">
        <ele>45</ele>
        <time>2015-09-11T15:06:55.878Z</time>
      </trkpt>
      <trkpt lat="47.07199" lon="-1.30662">
        <ele>45</ele>
        <time>2015-09-11T15:06:56.769Z</time>
      </trkpt>
      <trkpt lat="47.07196" lon="-1.30653">
        <ele>45</ele>
        <time>2015-09-11T15:06:57.773Z</time>
      </trkpt>
      <trkpt lat="47.07194" lon="-1.30646">
        <ele>45.016</ele>
        <time>2015-09-11T15:06:58.753Z</time>
      </trkpt>
      <trkpt lat="47.07192" lon="-1.30639">
        <ele>45.074</ele>
        <time>2015-09-11T15:06:59.874Z</time>
      </trkpt>
      <trkpt lat="47.07189" lon="-1.30633">
        <ele>44.995</ele>
        <time>2015-09-11T15:07:00.76Z</time>
      </trkpt>
      <trkpt lat="47.07187" lon="-1.30627">
        <ele>44.829</ele>
        <time>2015-09-11T15:07:01.917Z</time>
      </trkpt>
      <trkpt lat="47.07186" lon="-1.30621">
        <ele>44.667</ele>
        <time>2015-09-11T15:07:02.777Z</time>
      </trkpt>
      <trkpt lat="47.07184" lon="-1.30614">
        <ele>44.48</ele>
        <time>2015-09-11T15:07:03.907Z</time>
      </trkpt>
      <trkpt lat="47.07183" lon="-1.30601">
        <ele>44.266</ele>
        <time>2015-09-11T15:07:04.776Z</time>
      </trkpt>
      <trkpt lat="47.0718" lon="-1.30596">
        <ele>44.237</ele>
        <time>2015-09-11T15:07:05.901Z</time>
      </trkpt>
      <trkpt lat="47.07176" lon="-1.30588">
        <ele>44.111</ele>
        <time>2015-09-11T15:07:06.763Z</time>
      </trkpt>
      <trkpt lat="47.07173" lon="-1.30581">
        <ele>43.916</ele>
        <time>2015-09-11T15:07:07.968Z</time>
      </trkpt>
      <trkpt lat="47.07169" lon="-1.30573">
        <ele>43.642</ele>
        <time>2015-09-11T15:07:08.774Z</time>
      </trkpt>
      <trkpt lat="47.07165" lon="-1.30566">
        <ele>43.418</ele>
        <time>2015-09-11T15:07:09.781Z</time>
      </trkpt>
      <trkpt lat="47.07162" lon="-1.30558">
        <ele>43.252</ele>
        <time>2015-09-11T15:07:10.749Z</time>
      </trkpt>
      <trkpt lat="47.07159" lon="-1.3055">
        <ele>43.262</ele>
        <time>2015-09-11T15:07:11.884Z</time>
      </trkpt>
      <trkpt lat="47.07157" lon="-1.30543">
        <ele>43.355</ele>
        <time>2015-09-11T15:07:12.763Z</time>
      </trkpt>
      <trkpt lat="47.07155" lon="-1.30535">
        <ele>43.427</ele>
        <time>2015-09-11T15:07:13.782Z</time>
      </trkpt>
      <trkpt lat="47.07152" lon="-1.30528">
        <ele>43.516</ele>
        <time>2015-09-11T15:07:14.745Z</time>
      </trkpt>
      <trkpt lat="47.0715" lon="-1.30521">
        <ele>43.862</ele>
        <time>2015-09-11T15:07:15.977Z</time>
      </trkpt>
      <trkpt lat="47.07147" lon="-1.30514">
        <ele>44.222</ele>
        <time>2015-09-11T15:07:16.771Z</time>
      </trkpt>
      <trkpt lat="47.07145" lon="-1.30505">
        <ele>44.586</ele>
        <time>2015-09-11T15:07:17.916Z</time>
      </trkpt>
      <trkpt lat="47.07142" lon="-1.30499">
        <ele>44.881</ele>
        <time>2015-09-11T15:07:18.761Z</time>
      </trkpt>
      <trkpt lat="47.07139" lon="-1.30492">
        <ele>44.982</ele>
        <time>2015-09-11T15:07:19.799Z</time>
      </trkpt>
      <trkpt lat="47.07137" lon="-1.30484">
        <ele>45.037</ele>
        <time>2015-09-11T15:07:20.746Z</time>
      </trkpt>
      <trkpt lat="47.07135" lon="-1.30477">
        <ele>45.132</ele>
        <time>2015-09-11T15:07:21.905Z</time>
      </trkpt>
      <trkpt lat="47.07133" lon="-1.3047">
        <ele>45.23</ele>
        <time>2015-09-11T15:07:22.779Z</time>
      </trkpt>
      <trkpt lat="47.0713" lon="-1.30464">
        <ele>45.306</ele>
        <time>2015-09-11T15:07:23.779Z</time>
      </trkpt>
      <trkpt lat="47.07128" lon="-1.30457">
        <ele>45.392</ele>
        <time>2015-09-11T15:07:24.753Z</time>
      </trkpt>
      <trkpt lat="47.07125" lon="-1.30449">
        <ele>45.493</ele>
        <time>2015-09-11T15:07:25.913Z</time>
      </trkpt>
      <trkpt lat="47.07123" lon="-1.30442">
        <ele>45.561</ele>
        <time>2015-09-11T15:07:26.779Z</time>
      </trkpt>
      <trkpt lat="47.07121" lon="-1.30434">
        <ele>45.648</ele>
        <time>2015-09-11T15:07:27.908Z</time>
      </trkpt>
      <trkpt lat="47.07118" lon="-1.30426">
        <ele>45.741</ele>
        <time>2015-09-11T15:07:28.768Z</time>
      </trkpt>
      <trkpt lat="47.07116" lon="-1.30419">
        <ele>45.828</ele>
        <time>2015-09-11T15:07:29.783Z</time>
      </trkpt>
      <trkpt lat="47.07114" lon="-1.30411">
        <ele>45.706</ele>
        <time>2015-09-11T15:07:30.744Z</time>
      </trkpt>
      <trkpt lat="47.07111" lon="-1.30403">
        <ele>45.522</ele>
        <time>2015-09-11T15:07:31.883Z</time>
      </trkpt>
      <trkpt lat="47.07108" lon="-1.30396">
        <ele>45.26</ele>
        <time>2015-09-11T15:07:32.772Z</time>
      </trkpt>
      <trkpt lat="47.07105" lon="-1.30389">
        <ele>45</ele>
        <time>2015-09-11T15:07:33.975Z</time>
      </trkpt>
      <trkpt lat="47.07103" lon="-1.30381">
        <ele>44.807</ele>
        <time>2015-09-11T15:07:34.762Z</time>
      </trkpt>
      <trkpt lat="47.071" lon="-1.30375">
        <ele>44.704</ele>
        <time>2015-09-11T15:07:35.922Z</time>
      </trkpt>
      <trkpt lat="47.07097" lon="-1.30366">
        <ele>44.594</ele>
        <time>2015-09-11T15:07:36.767Z</time>
      </trkpt>
      <trkpt lat="47.07095" lon="-1.30357">
        <ele>44.573</ele>
        <time>2015-09-11T15:07:38.122Z</time>
      </trkpt>
      <trkpt lat="47.07093" lon="-1.30348">
        <ele>44.659</ele>
        <time>2015-09-11T15:07:38.782Z</time>
      </trkpt>
      <trkpt lat="47.07091" lon="-1.30339">
        <ele>44.728</ele>
        <time>2015-09-11T15:07:39.891Z</time>
      </trkpt>
      <trkpt lat="47.07088" lon="-1.3033">
        <ele>44.705</ele>
        <time>2015-09-11T15:07:40.773Z</time>
      </trkpt>
      <trkpt lat="47.07086" lon="-1.30321">
        <ele>44.506</ele>
        <time>2015-09-11T15:07:41.914Z</time>
      </trkpt>
      <trkpt lat="47.07084" lon="-1.30312">
        <ele>44.214</ele>
        <time>2015-09-11T15:07:42.78Z</time>
      </trkpt>
      <trkpt lat="47.07083" lon="-1.30302">
        <ele>43.997</ele>
        <time>2015-09-11T15:07:43.888Z</time>
      </trkpt>
      <trkpt lat="47.07081" lon="-1.30294">
        <ele>43.96</ele>
        <time>2015-09-11T15:07:44.763Z</time>
      </trkpt>
      <trkpt lat="47.07079" lon="-1.30286">
        <ele>43.885</ele>
        <time>2015-09-11T15:07:45.914Z</time>
      </trkpt>
      <trkpt lat="47.07077" lon="-1.30278">
        <ele>43.776</ele>
        <time>2015-09-11T15:07:46.773Z</time>
      </trkpt>
      <trkpt lat="47.07075" lon="-1.30269">
        <ele>43.373</ele>
        <time>2015-09-11T15:07:47.777Z</time>
      </trkpt>
      <trkpt lat="47.07073" lon="-1.3026">
        <ele>42.988</ele>
        <time>2015-09-11T15:07:48.745Z</time>
      </trkpt>
      <trkpt lat="47.07071" lon="-1.30252">
        <ele>42.635</ele>
        <time>2015-09-11T15:07:49.953Z</time>
      </trkpt>
      <trkpt lat="47.0707" lon="-1.30244">
        <ele>42.509</ele>
        <time>2015-09-11T15:07:50.788Z</time>
      </trkpt>
      <trkpt lat="47.07068" lon="-1.30236">
        <ele>42.441</ele>
        <time>2015-09-11T15:07:51.913Z</time>
      </trkpt>
      <trkpt lat="47.07066" lon="-1.30227">
        <ele>42.362</ele>
        <time>2015-09-11T15:07:52.744Z</time>
      </trkpt>
      <trkpt lat="47.07063" lon="-1.30218">
        <ele>42.222</ele>
        <time>2015-09-11T15:07:53.893Z</time>
      </trkpt>
      <trkpt lat="47.07061" lon="-1.3021">
        <ele>42.107</ele>
        <time>2015-09-11T15:07:54.772Z</time>
      </trkpt>
      <trkpt lat="47.07058" lon="-1.30202">
        <ele>42.025</ele>
        <time>2015-09-11T15:07:55.931Z</time>
      </trkpt>
      <trkpt lat="47.07055" lon="-1.30193">
        <ele>42.016</ele>
        <time>2015-09-11T15:07:56.778Z</time>
      </trkpt>
      <trkpt lat="47.07053" lon="-1.30184">
        <ele>42.099</ele>
        <time>2015-09-11T15:07:57.912Z</time>
      </trkpt>
      <trkpt lat="47.0705" lon="-1.30175">
        <ele>42.214</ele>
        <time>2015-09-11T15:07:58.772Z</time>
      </trkpt>
      <trkpt lat="47.07046" lon="-1.30165">
        <ele>42.312</ele>
        <time>2015-09-11T15:07:59.908Z</time>
      </trkpt>
      <trkpt lat="47.07043" lon="-1.30155">
        <ele>42.24</ele>
        <time>2015-09-11T15:08:00.766Z</time>
      </trkpt>
      <trkpt lat="47.07039" lon="-1.30147">
        <ele>42.279</ele>
        <time>2015-09-11T15:08:01.915Z</time>
      </trkpt>
      <trkpt lat="47.07037" lon="-1.30138">
        <ele>42.365</ele>
        <time>2015-09-11T15:08:02.768Z</time>
      </trkpt>
      <trkpt lat="47.07034" lon="-1.3013">
        <ele>42.552</ele>
        <time>2015-09-11T15:08:03.783Z</time>
      </trkpt>
      <trkpt lat="47.07031" lon="-1.30122">
        <ele>42.746</ele>
        <time>2015-09-11T15:08:04.747Z</time>
      </trkpt>
      <trkpt lat="47.07028" lon="-1.30114">
        <ele>42.962</ele>
        <time>2015-09-11T15:08:05.973Z</time>
      </trkpt>
      <trkpt lat="47.07026" lon="-1.30106">
        <ele>43.173</ele>
        <time>2015-09-11T15:08:06.772Z</time>
      </trkpt>
      <trkpt lat="47.07022" lon="-1.30099">
        <ele>43.429</ele>
        <time>2015-09-11T15:08:07.784Z</time>
      </trkpt>
      <trkpt lat="47.07018" lon="-1.30094">
        <ele>43.609</ele>
        <time>2015-09-11T15:08:08.743Z</time>
      </trkpt>
      <trkpt lat="47.07013" lon="-1.30088">
        <ele>43.828</ele>
        <time>2015-09-11T15:08:09.889Z</time>
      </trkpt>
      <trkpt lat="47.0701" lon="-1.30082">
        <ele>44</ele>
        <time>2015-09-11T15:08:10.772Z</time>
      </trkpt>
      <trkpt lat="47.07005" lon="-1.30076">
        <ele>44</ele>
        <time>2015-09-11T15:08:11.926Z</time>
      </trkpt>
      <trkpt lat="47.07001" lon="-1.3007">
        <ele>44</ele>
        <time>2015-09-11T15:08:12.78Z</time>
      </trkpt>
      <trkpt lat="47.06996" lon="-1.30065">
        <ele>43.683</ele>
        <time>2015-09-11T15:08:14.147Z</time>
      </trkpt>
      <trkpt lat="47.06992" lon="-1.30059">
        <ele>43.402</ele>
        <time>2015-09-11T15:08:14.749Z</time>
      </trkpt>
      <trkpt lat="47.06987" lon="-1.30053">
        <ele>43.01</ele>
        <time>2015-09-11T15:08:15.778Z</time>
      </trkpt>
      <trkpt lat="47.06983" lon="-1.30049">
        <ele>42.646</ele>
        <time>2015-09-11T15:08:16.772Z</time>
      </trkpt>
      <trkpt lat="47.06978" lon="-1.30043">
        <ele>42.325</ele>
        <time>2015-09-11T15:08:17.981Z</time>
      </trkpt>
      <trkpt lat="47.06974" lon="-1.30037">
        <ele>42.08</ele>
        <time>2015-09-11T15:08:18.807Z</time>
      </trkpt>
      <trkpt lat="47.0697" lon="-1.30031">
        <ele>42</ele>
        <time>2015-09-11T15:08:19.907Z</time>
      </trkpt>
      <trkpt lat="47.06966" lon="-1.30025">
        <ele>42</ele>
        <time>2015-09-11T15:08:20.771Z</time>
      </trkpt>
      <trkpt lat="47.06962" lon="-1.3002">
        <ele>42</ele>
        <time>2015-09-11T15:08:22.028Z</time>
      </trkpt>
      <trkpt lat="47.06958" lon="-1.30015">
        <ele>42</ele>
        <time>2015-09-11T15:08:22.764Z</time>
      </trkpt>
      <trkpt lat="47.06955" lon="-1.3001">
        <ele>42</ele>
        <time>2015-09-11T15:08:23.929Z</time>
      </trkpt>
      <trkpt lat="47.06951" lon="-1.30004">
        <ele>42</ele>
        <time>2015-09-11T15:08:24.765Z</time>
      </trkpt>
      <trkpt lat="47.06947" lon="-1.29998">
        <ele>42</ele>
        <time>2015-09-11T15:08:25.919Z</time>
      </trkpt>
      <trkpt lat="47.06943" lon="-1.29992">
        <ele>42</ele>
        <time>2015-09-11T15:08:26.772Z</time>
      </trkpt>
      <trkpt lat="47.06938" lon="-1.29985">
        <ele>42</ele>
        <time>2015-09-11T15:08:27.783Z</time>
      </trkpt>
      <trkpt lat="47.06935" lon="-1.29978">
        <ele>42</ele>
        <time>2015-09-11T15:08:28.746Z</time>
      </trkpt>
      <trkpt lat="47.06932" lon="-1.29973">
        <ele>42</ele>
        <time>2015-09-11T15:08:29.791Z</time>
      </trkpt>
      <trkpt lat="47.06927" lon="-1.29968">
        <ele>42</ele>
        <time>2015-09-11T15:08:30.746Z</time>
      </trkpt>
      <trkpt lat="47.06924" lon="-1.29963">
        <ele>42</ele>
        <time>2015-09-11T15:08:31.768Z</time>
      </trkpt>
      <trkpt lat="47.0692" lon="-1.29957">
        <ele>42</ele>
        <time>2015-09-11T15:08:32.739Z</time>
      </trkpt>
      <trkpt lat="47.06917" lon="-1.29952">
        <ele>42</ele>
        <time>2015-09-11T15:08:33.775Z</time>
      </trkpt>
      <trkpt lat="47.06913" lon="-1.29947">
        <ele>42</ele>
        <time>2015-09-11T15:08:34.74Z</time>
      </trkpt>
      <trkpt lat="47.0691" lon="-1.29941">
        <ele>42.033</ele>
        <time>2015-09-11T15:08:35.783Z</time>
      </trkpt>
      <trkpt lat="47.06905" lon="-1.29934">
        <ele>42.153</ele>
        <time>2015-09-11T15:08:36.743Z</time>
      </trkpt>
      <trkpt lat="47.06902" lon="-1.29929">
        <ele>42.3</ele>
        <time>2015-09-11T15:08:37.794Z</time>
      </trkpt>
      <trkpt lat="47.06898" lon="-1.29925">
        <ele>42.482</ele>
        <time>2015-09-11T15:08:38.745Z</time>
      </trkpt>
      <trkpt lat="47.06895" lon="-1.29919">
        <ele>42.731</ele>
        <time>2015-09-11T15:08:39.898Z</time>
      </trkpt>
      <trkpt lat="47.06891" lon="-1.29914">
        <ele>42.931</ele>
        <time>2015-09-11T15:08:40.783Z</time>
      </trkpt>
      <trkpt lat="47.06886" lon="-1.29908">
        <ele>43.111</ele>
        <time>2015-09-11T15:08:41.776Z</time>
      </trkpt>
      <trkpt lat="47.06882" lon="-1.29903">
        <ele>43.244</ele>
        <time>2015-09-11T15:08:42.817Z</time>
      </trkpt>
      <trkpt lat="47.06879" lon="-1.29898">
        <ele>43.36</ele>
        <time>2015-09-11T15:08:43.89Z</time>
      </trkpt>
      <trkpt lat="47.06875" lon="-1.29893">
        <ele>43.486</ele>
        <time>2015-09-11T15:08:44.771Z</time>
      </trkpt>
      <trkpt lat="47.0687" lon="-1.29884">
        <ele>43.738</ele>
        <time>2015-09-11T15:08:46.917Z</time>
      </trkpt>
      <trkpt lat="47.06867" lon="-1.29879">
        <ele>43.86</ele>
        <time>2015-09-11T15:08:47.768Z</time>
      </trkpt>
      <trkpt lat="47.06864" lon="-1.29873">
        <ele>43.959</ele>
        <time>2015-09-11T15:08:48.89Z</time>
      </trkpt>
      <trkpt lat="47.0686" lon="-1.29869">
        <ele>44</ele>
        <time>2015-09-11T15:08:49.773Z</time>
      </trkpt>
      <trkpt lat="47.06857" lon="-1.29861">
        <ele>44</ele>
        <time>2015-09-11T15:08:50.912Z</time>
      </trkpt>
      <trkpt lat="47.06854" lon="-1.29857">
        <ele>44</ele>
        <time>2015-09-11T15:08:51.773Z</time>
      </trkpt>
      <trkpt lat="47.06851" lon="-1.29852">
        <ele>44</ele>
        <time>2015-09-11T15:08:52.9Z</time>
      </trkpt>
      <trkpt lat="47.06848" lon="-1.29847">
        <ele>44</ele>
        <time>2015-09-11T15:08:53.775Z</time>
      </trkpt>
      <trkpt lat="47.06845" lon="-1.29841">
        <ele>44</ele>
        <time>2015-09-11T15:08:55.137Z</time>
      </trkpt>
      <trkpt lat="47.06842" lon="-1.29837">
        <ele>44</ele>
        <time>2015-09-11T15:08:55.75Z</time>
      </trkpt>
      <trkpt lat="47.06837" lon="-1.29833">
        <ele>44.016</ele>
        <time>2015-09-11T15:08:56.777Z</time>
      </trkpt>
      <trkpt lat="47.06833" lon="-1.29833">
        <ele>44.031</ele>
        <time>2015-09-11T15:08:57.779Z</time>
      </trkpt>
      <trkpt lat="47.06829" lon="-1.29835">
        <ele>44.155</ele>
        <time>2015-09-11T15:08:59.004Z</time>
      </trkpt>
      <trkpt lat="47.06825" lon="-1.29839">
        <ele>44.248</ele>
        <time>2015-09-11T15:08:59.762Z</time>
      </trkpt>
      <trkpt lat="47.06818" lon="-1.29846">
        <ele>44.306</ele>
        <time>2015-09-11T15:09:01.908Z</time>
      </trkpt>
      <trkpt lat="47.06814" lon="-1.2985">
        <ele>44.277</ele>
        <time>2015-09-11T15:09:02.789Z</time>
      </trkpt>
      <trkpt lat="47.0681" lon="-1.29854">
        <ele>44.204</ele>
        <time>2015-09-11T15:09:04.048Z</time>
      </trkpt>
      <trkpt lat="47.06806" lon="-1.29858">
        <ele>44.127</ele>
        <time>2015-09-11T15:09:04.794Z</time>
      </trkpt>
      <trkpt lat="47.06799" lon="-1.29866">
        <ele>44</ele>
        <time>2015-09-11T15:09:06.78Z</time>
      </trkpt>
      <trkpt lat="47.06796" lon="-1.29869">
        <ele>44</ele>
        <time>2015-09-11T15:09:07.786Z</time>
      </trkpt>
      <trkpt lat="47.06792" lon="-1.29874">
        <ele>44</ele>
        <time>2015-09-11T15:09:08.908Z</time>
      </trkpt>
      <trkpt lat="47.06788" lon="-1.29878">
        <ele>44</ele>
        <time>2015-09-11T15:09:09.81Z</time>
      </trkpt>
      <trkpt lat="47.06785" lon="-1.29883">
        <ele>44</ele>
        <time>2015-09-11T15:09:10.778Z</time>
      </trkpt>
      <trkpt lat="47.06781" lon="-1.29886">
        <ele>44</ele>
        <time>2015-09-11T15:09:11.749Z</time>
      </trkpt>
      <trkpt lat="47.06777" lon="-1.29891">
        <ele>44.104</ele>
        <time>2015-09-11T15:09:12.935Z</time>
      </trkpt>
      <trkpt lat="47.06773" lon="-1.29894">
        <ele>44.374</ele>
        <time>2015-09-11T15:09:13.768Z</time>
      </trkpt>
      <trkpt lat="47.06769" lon="-1.29899">
        <ele>44.658</ele>
        <time>2015-09-11T15:09:14.901Z</time>
      </trkpt>
      <trkpt lat="47.06765" lon="-1.29903">
        <ele>44.964</ele>
        <time>2015-09-11T15:09:15.774Z</time>
      </trkpt>
      <trkpt lat="47.06762" lon="-1.29908">
        <ele>45.285</ele>
        <time>2015-09-11T15:09:16.791Z</time>
      </trkpt>
      <trkpt lat="47.06758" lon="-1.29913">
        <ele>45.587</ele>
        <time>2015-09-11T15:09:17.745Z</time>
      </trkpt>
      <trkpt lat="47.06752" lon="-1.29922">
        <ele>45.942</ele>
        <time>2015-09-11T15:09:19.954Z</time>
      </trkpt>
      <trkpt lat="47.06748" lon="-1.29926">
        <ele>46</ele>
        <time>2015-09-11T15:09:20.777Z</time>
      </trkpt>
      <trkpt lat="47.06741" lon="-1.29933">
        <ele>46</ele>
        <time>2015-09-11T15:09:22.928Z</time>
      </trkpt>
      <trkpt lat="47.06738" lon="-1.29938">
        <ele>46</ele>
        <time>2015-09-11T15:09:23.773Z</time>
      </trkpt>
      <trkpt lat="47.06733" lon="-1.29941">
        <ele>46</ele>
        <time>2015-09-11T15:09:25.008Z</time>
      </trkpt>
      <trkpt lat="47.06727" lon="-1.29946">
        <ele>46</ele>
        <time>2015-09-11T15:09:25.786Z</time>
      </trkpt>
      <trkpt lat="47.06723" lon="-1.29951">
        <ele>46</ele>
        <time>2015-09-11T15:09:26.775Z</time>
      </trkpt>
      <trkpt lat="47.06719" lon="-1.29955">
        <ele>46</ele>
        <time>2015-09-11T15:09:27.748Z</time>
      </trkpt>
      <trkpt lat="47.06715" lon="-1.2996">
        <ele>46</ele>
        <time>2015-09-11T15:09:28.896Z</time>
      </trkpt>
      <trkpt lat="47.06711" lon="-1.29965">
        <ele>46</ele>
        <time>2015-09-11T15:09:29.829Z</time>
      </trkpt>
      <trkpt lat="47.06707" lon="-1.2997">
        <ele>46</ele>
        <time>2015-09-11T15:09:30.782Z</time>
      </trkpt>
      <trkpt lat="47.06703" lon="-1.29975">
        <ele>46</ele>
        <time>2015-09-11T15:09:31.75Z</time>
      </trkpt>
      <trkpt lat="47.06698" lon="-1.29979">
        <ele>46</ele>
        <time>2015-09-11T15:09:32.911Z</time>
      </trkpt>
      <trkpt lat="47.06694" lon="-1.29984">
        <ele>45.988</ele>
        <time>2015-09-11T15:09:33.772Z</time>
      </trkpt>
      <trkpt lat="47.06691" lon="-1.29988">
        <ele>45.858</ele>
        <time>2015-09-11T15:09:34.923Z</time>
      </trkpt>
      <trkpt lat="47.06686" lon="-1.29992">
        <ele>45.7</ele>
        <time>2015-09-11T15:09:35.744Z</time>
      </trkpt>
      <trkpt lat="47.06681" lon="-1.29997">
        <ele>45.53</ele>
        <time>2015-09-11T15:09:36.777Z</time>
      </trkpt>
      <trkpt lat="47.06677" lon="-1.30002">
        <ele>45.421</ele>
        <time>2015-09-11T15:09:38.135Z</time>
      </trkpt>
      <trkpt lat="47.06673" lon="-1.30007">
        <ele>45.425</ele>
        <time>2015-09-11T15:09:38.775Z</time>
      </trkpt>
      <trkpt lat="47.0667" lon="-1.3001">
        <ele>45.436</ele>
        <time>2015-09-11T15:09:39.749Z</time>
      </trkpt>
      <trkpt lat="47.06665" lon="-1.30014">
        <ele>45.384</ele>
        <time>2015-09-11T15:09:40.895Z</time>
      </trkpt>
      <trkpt lat="47.06661" lon="-1.30018">
        <ele>45.311</ele>
        <time>2015-09-11T15:09:41.778Z</time>
      </trkpt>
      <trkpt lat="47.06657" lon="-1.30023">
        <ele>45.183</ele>
        <time>2015-09-11T15:09:42.911Z</time>
      </trkpt>
      <trkpt lat="47.06652" lon="-1.30028">
        <ele>44.927</ele>
        <time>2015-09-11T15:09:43.82Z</time>
      </trkpt>
      <trkpt lat="47.06647" lon="-1.30032">
        <ele>44.665</ele>
        <time>2015-09-11T15:09:44.926Z</time>
      </trkpt>
      <trkpt lat="47.06643" lon="-1.30037">
        <ele>44.505</ele>
        <time>2015-09-11T15:09:45.768Z</time>
      </trkpt>
      <trkpt lat="47.06639" lon="-1.30038">
        <ele>44.38</ele>
        <time>2015-09-11T15:09:46.924Z</time>
      </trkpt>
      <trkpt lat="47.06634" lon="-1.30043">
        <ele>44.442</ele>
        <time>2015-09-11T15:09:47.786Z</time>
      </trkpt>
      <trkpt lat="47.06629" lon="-1.30046">
        <ele>44.429</ele>
        <time>2015-09-11T15:09:49Z</time>
      </trkpt>
      <trkpt lat="47.06625" lon="-1.30048">
        <ele>44.353</ele>
        <time>2015-09-11T15:09:49.762Z</time>
      </trkpt>
      <trkpt lat="47.0662" lon="-1.30051">
        <ele>44.274</ele>
        <time>2015-09-11T15:09:50.951Z</time>
      </trkpt>
      <trkpt lat="47.06616" lon="-1.30053">
        <ele>44.162</ele>
        <time>2015-09-11T15:09:51.775Z</time>
      </trkpt>
      <trkpt lat="47.06612" lon="-1.30056">
        <ele>44.044</ele>
        <time>2015-09-11T15:09:52.953Z</time>
      </trkpt>
      <trkpt lat="47.06607" lon="-1.30059">
        <ele>44.257</ele>
        <time>2015-09-11T15:09:53.771Z</time>
      </trkpt>
      <trkpt lat="47.06603" lon="-1.30064">
        <ele>44.502</ele>
        <time>2015-09-11T15:09:54.895Z</time>
      </trkpt>
      <trkpt lat="47.06599" lon="-1.30067">
        <ele>44.664</ele>
        <time>2015-09-11T15:09:55.777Z</time>
      </trkpt>
      <trkpt lat="47.06592" lon="-1.30072">
        <ele>44.873</ele>
        <time>2015-09-11T15:09:57.783Z</time>
      </trkpt>
      <trkpt lat="47.06588" lon="-1.30078">
        <ele>44.972</ele>
        <time>2015-09-11T15:09:58.745Z</time>
      </trkpt>
      <trkpt lat="47.06583" lon="-1.30083">
        <ele>45.002</ele>
        <time>2015-09-11T15:09:59.907Z</time>
      </trkpt>
      <trkpt lat="47.06579" lon="-1.30087">
        <ele>45.146</ele>
        <time>2015-09-11T15:10:00.782Z</time>
      </trkpt>
      <trkpt lat="47.06575" lon="-1.30092">
        <ele>45.308</ele>
        <time>2015-09-11T15:10:01.776Z</time>
      </trkpt>
      <trkpt lat="47.06572" lon="-1.30098">
        <ele>45.528</ele>
        <time>2015-09-11T15:10:02.751Z</time>
      </trkpt>
      <trkpt lat="47.06568" lon="-1.30104">
        <ele>45.726</ele>
        <time>2015-09-11T15:10:03.891Z</time>
      </trkpt>
      <trkpt lat="47.06564" lon="-1.30109">
        <ele>45.906</ele>
        <time>2015-09-11T15:10:04.771Z</time>
      </trkpt>
      <trkpt lat="47.0656" lon="-1.30114">
        <ele>46</ele>
        <time>2015-09-11T15:10:05.911Z</time>
      </trkpt>
      <trkpt lat="47.06556" lon="-1.30119">
        <ele>46</ele>
        <time>2015-09-11T15:10:06.776Z</time>
      </trkpt>
      <trkpt lat="47.06552" lon="-1.30123">
        <ele>45.879</ele>
        <time>2015-09-11T15:10:07.778Z</time>
      </trkpt>
      <trkpt lat="47.06549" lon="-1.30128">
        <ele>45.753</ele>
        <time>2015-09-11T15:10:08.861Z</time>
      </trkpt>
      <trkpt lat="47.06545" lon="-1.30134">
        <ele>45.602</ele>
        <time>2015-09-11T15:10:09.897Z</time>
      </trkpt>
      <trkpt lat="47.06542" lon="-1.30138">
        <ele>45.501</ele>
        <time>2015-09-11T15:10:10.77Z</time>
      </trkpt>
      <trkpt lat="47.06536" lon="-1.30147">
        <ele>45.09</ele>
        <time>2015-09-11T15:10:12.901Z</time>
      </trkpt>
      <trkpt lat="47.06534" lon="-1.30153">
        <ele>44.849</ele>
        <time>2015-09-11T15:10:13.769Z</time>
      </trkpt>
      <trkpt lat="47.06533" lon="-1.30165">
        <ele>44.387</ele>
        <time>2015-09-11T15:10:15.91Z</time>
      </trkpt>
      <trkpt lat="47.06534" lon="-1.30173">
        <ele>44.412</ele>
        <time>2015-09-11T15:10:16.774Z</time>
      </trkpt>
      <trkpt lat="47.06535" lon="-1.30184">
        <ele>44.491</ele>
        <time>2015-09-11T15:10:17.907Z</time>
      </trkpt>
      <trkpt lat="47.06535" lon="-1.30192">
        <ele>44.534</ele>
        <time>2015-09-11T15:10:18.787Z</time>
      </trkpt>
      <trkpt lat="47.06535" lon="-1.30199">
        <ele>44.678</ele>
        <time>2015-09-11T15:10:19.901Z</time>
      </trkpt>
      <trkpt lat="47.06536" lon="-1.30207">
        <ele>44.924</ele>
        <time>2015-09-11T15:10:20.745Z</time>
      </trkpt>
      <trkpt lat="47.06539" lon="-1.3022">
        <ele>45.334</ele>
        <time>2015-09-11T15:10:22.931Z</time>
      </trkpt>
      <trkpt lat="47.06539" lon="-1.30226">
        <ele>45.4</ele>
        <time>2015-09-11T15:10:23.775Z</time>
      </trkpt>
      <trkpt lat="47.06539" lon="-1.30232">
        <ele>45.4</ele>
        <time>2015-09-11T15:10:24.901Z</time>
      </trkpt>
      <trkpt lat="47.06539" lon="-1.30239">
        <ele>45.408</ele>
        <time>2015-09-11T15:10:25.78Z</time>
      </trkpt>
      <trkpt lat="47.0654" lon="-1.30246">
        <ele>45.422</ele>
        <time>2015-09-11T15:10:27.066Z</time>
      </trkpt>
      <trkpt lat="47.0654" lon="-1.30253">
        <ele>45.479</ele>
        <time>2015-09-11T15:10:27.873Z</time>
      </trkpt>
      <trkpt lat="47.06539" lon="-1.3026">
        <ele>45.615</ele>
        <time>2015-09-11T15:10:28.991Z</time>
      </trkpt>
      <trkpt lat="47.06538" lon="-1.30267">
        <ele>45.764</ele>
        <time>2015-09-11T15:10:29.767Z</time>
      </trkpt>
      <trkpt lat="47.06536" lon="-1.30273">
        <ele>45.867</ele>
        <time>2015-09-11T15:10:30.899Z</time>
      </trkpt>
      <trkpt lat="47.06533" lon="-1.30279">
        <ele>46.007</ele>
        <time>2015-09-11T15:10:31.764Z</time>
      </trkpt>
      <trkpt lat="47.06527" lon="-1.30288">
        <ele>45.971</ele>
        <time>2015-09-11T15:10:33.93Z</time>
      </trkpt>
      <trkpt lat="47.06523" lon="-1.30293">
        <ele>45.922</ele>
        <time>2015-09-11T15:10:34.772Z</time>
      </trkpt>
      <trkpt lat="47.06519" lon="-1.30298">
        <ele>45.908</ele>
        <time>2015-09-11T15:10:35.966Z</time>
      </trkpt>
      <trkpt lat="47.06514" lon="-1.30305">
        <ele>45.985</ele>
        <time>2015-09-11T15:10:36.773Z</time>
      </trkpt>
      <trkpt lat="47.06509" lon="-1.30309">
        <ele>46.043</ele>
        <time>2015-09-11T15:10:37.777Z</time>
      </trkpt>
      <trkpt lat="47.06506" lon="-1.30315">
        <ele>46.077</ele>
        <time>2015-09-11T15:10:38.743Z</time>
      </trkpt>
      <trkpt lat="47.065" lon="-1.30323">
        <ele>46</ele>
        <time>2015-09-11T15:10:40.927Z</time>
      </trkpt>
      <trkpt lat="47.06496" lon="-1.30329">
        <ele>46</ele>
        <time>2015-09-11T15:10:41.762Z</time>
      </trkpt>
      <trkpt lat="47.06492" lon="-1.30334">
        <ele>46</ele>
        <time>2015-09-11T15:10:42.817Z</time>
      </trkpt>
      <trkpt lat="47.06489" lon="-1.3034">
        <ele>46</ele>
        <time>2015-09-11T15:10:43.764Z</time>
      </trkpt>
      <trkpt lat="47.06486" lon="-1.30345">
        <ele>46</ele>
        <time>2015-09-11T15:10:44.887Z</time>
      </trkpt>
      <trkpt lat="47.06482" lon="-1.30351">
        <ele>46</ele>
        <time>2015-09-11T15:10:45.506Z</time>
      </trkpt>
      <trkpt lat="47.06479" lon="-1.30356">
        <ele>46</ele>
        <time>2015-09-11T15:10:46.886Z</time>
      </trkpt>
      <trkpt lat="47.06474" lon="-1.3036">
        <ele>46</ele>
        <time>2015-09-11T15:10:47.447Z</time>
      </trkpt>
      <trkpt lat="47.06471" lon="-1.30366">
        <ele>45.714</ele>
        <time>2015-09-11T15:10:48.541Z</time>
      </trkpt>
      <trkpt lat="47.06467" lon="-1.30372">
        <ele>45.203</ele>
        <time>2015-09-11T15:10:49.445Z</time>
      </trkpt>
      <trkpt lat="47.06463" lon="-1.30378">
        <ele>44.71</ele>
        <time>2015-09-11T15:10:50.474Z</time>
      </trkpt>
      <trkpt lat="47.06459" lon="-1.30385">
        <ele>44.141</ele>
        <time>2015-09-11T15:10:51.447Z</time>
      </trkpt>
      <trkpt lat="47.06455" lon="-1.30392">
        <ele>43.738</ele>
        <time>2015-09-11T15:10:52.495Z</time>
      </trkpt>
      <trkpt lat="47.06451" lon="-1.30396">
        <ele>43.472</ele>
        <time>2015-09-11T15:10:53.474Z</time>
      </trkpt>
      <trkpt lat="47.06448" lon="-1.30401">
        <ele>43.256</ele>
        <time>2015-09-11T15:10:54.601Z</time>
      </trkpt>
      <trkpt lat="47.06445" lon="-1.30409">
        <ele>43.04</ele>
        <time>2015-09-11T15:10:55.466Z</time>
      </trkpt>
      <trkpt lat="47.0644" lon="-1.30415">
        <ele>42.851</ele>
        <time>2015-09-11T15:10:56.633Z</time>
      </trkpt>
      <trkpt lat="47.06437" lon="-1.30421">
        <ele>42.714</ele>
        <time>2015-09-11T15:10:57.447Z</time>
      </trkpt>
      <trkpt lat="47.06433" lon="-1.30428">
        <ele>42.577</ele>
        <time>2015-09-11T15:10:58.484Z</time>
      </trkpt>
      <trkpt lat="47.06428" lon="-1.30433">
        <ele>42.415</ele>
        <time>2015-09-11T15:10:59.476Z</time>
      </trkpt>
      <trkpt lat="47.06424" lon="-1.3044">
        <ele>42.26</ele>
        <time>2015-09-11T15:11:00.607Z</time>
      </trkpt>
      <trkpt lat="47.0642" lon="-1.30446">
        <ele>42.113</ele>
        <time>2015-09-11T15:11:01.473Z</time>
      </trkpt>
      <trkpt lat="47.06416" lon="-1.3045">
        <ele>42</ele>
        <time>2015-09-11T15:11:02.6Z</time>
      </trkpt>
      <trkpt lat="47.06412" lon="-1.30456">
        <ele>42</ele>
        <time>2015-09-11T15:11:03.479Z</time>
      </trkpt>
      <trkpt lat="47.06408" lon="-1.30461">
        <ele>42</ele>
        <time>2015-09-11T15:11:04.703Z</time>
      </trkpt>
      <trkpt lat="47.06405" lon="-1.30467">
        <ele>42</ele>
        <time>2015-09-11T15:11:05.469Z</time>
      </trkpt>
      <trkpt lat="47.06402" lon="-1.30473">
        <ele>42.032</ele>
        <time>2015-09-11T15:11:06.654Z</time>
      </trkpt>
      <trkpt lat="47.06399" lon="-1.30481">
        <ele>42.298</ele>
        <time>2015-09-11T15:11:07.478Z</time>
      </trkpt>
      <trkpt lat="47.06395" lon="-1.30485">
        <ele>42.471</ele>
        <time>2015-09-11T15:11:08.507Z</time>
      </trkpt>
      <trkpt lat="47.06391" lon="-1.30491">
        <ele>42.669</ele>
        <time>2015-09-11T15:11:09.455Z</time>
      </trkpt>
      <trkpt lat="47.06386" lon="-1.30497">
        <ele>42.799</ele>
        <time>2015-09-11T15:11:10.604Z</time>
      </trkpt>
      <trkpt lat="47.06382" lon="-1.30502">
        <ele>42.756</ele>
        <time>2015-09-11T15:11:11.472Z</time>
      </trkpt>
      <trkpt lat="47.06378" lon="-1.30509">
        <ele>42.619</ele>
        <time>2015-09-11T15:11:12.626Z</time>
      </trkpt>
      <trkpt lat="47.06374" lon="-1.30515">
        <ele>42.475</ele>
        <time>2015-09-11T15:11:13.479Z</time>
      </trkpt>
      <trkpt lat="47.06369" lon="-1.30522">
        <ele>42.298</ele>
        <time>2015-09-11T15:11:14.602Z</time>
      </trkpt>
      <trkpt lat="47.06365" lon="-1.30526">
        <ele>42.126</ele>
        <time>2015-09-11T15:11:15.476Z</time>
      </trkpt>
      <trkpt lat="47.06359" lon="-1.30526">
        <ele>41.819</ele>
        <time>2015-09-11T15:11:16.831Z</time>
      </trkpt>
      <trkpt lat="47.06353" lon="-1.30522">
        <ele>41.394</ele>
        <time>2015-09-11T15:11:17.452Z</time>
      </trkpt>
      <trkpt lat="47.06348" lon="-1.30516">
        <ele>41.034</ele>
        <time>2015-09-11T15:11:18.5Z</time>
      </trkpt>
      <trkpt lat="47.06341" lon="-1.30513">
        <ele>40.574</ele>
        <time>2015-09-11T15:11:19.933Z</time>
      </trkpt>
      <trkpt lat="47.06336" lon="-1.3051">
        <ele>40.192</ele>
        <time>2015-09-11T15:11:20.474Z</time>
      </trkpt>
      <trkpt lat="47.06329" lon="-1.3051">
        <ele>39.652</ele>
        <time>2015-09-11T15:11:21.45Z</time>
      </trkpt>
      <trkpt lat="47.06322" lon="-1.30509">
        <ele>39.198</ele>
        <time>2015-09-11T15:11:22.619Z</time>
      </trkpt>
      <trkpt lat="47.06316" lon="-1.30509">
        <ele>38.73</ele>
        <time>2015-09-11T15:11:23.467Z</time>
      </trkpt>
      <trkpt lat="47.06309" lon="-1.30509">
        <ele>38.212</ele>
        <time>2015-09-11T15:11:24.603Z</time>
      </trkpt>
      <trkpt lat="47.06303" lon="-1.30509">
        <ele>37.968</ele>
        <time>2015-09-11T15:11:25.476Z</time>
      </trkpt>
      <trkpt lat="47.06297" lon="-1.30507">
        <ele>37.924</ele>
        <time>2015-09-11T15:11:26.616Z</time>
      </trkpt>
      <trkpt lat="47.06291" lon="-1.30506">
        <ele>37.896</ele>
        <time>2015-09-11T15:11:27.483Z</time>
      </trkpt>
      <trkpt lat="47.06285" lon="-1.30504">
        <ele>37.903</ele>
        <time>2015-09-11T15:11:28.498Z</time>
      </trkpt>
      <trkpt lat="47.0628" lon="-1.30502">
        <ele>37.933</ele>
        <time>2015-09-11T15:11:29.454Z</time>
      </trkpt>
      <trkpt lat="47.06274" lon="-1.30502">
        <ele>37.646</ele>
        <time>2015-09-11T15:11:30.662Z</time>
      </trkpt>
      <trkpt lat="47.06268" lon="-1.30504">
        <ele>37.221</ele>
        <time>2015-09-11T15:11:31.482Z</time>
      </trkpt>
      <trkpt lat="47.06263" lon="-1.30506">
        <ele>36.817</ele>
        <time>2015-09-11T15:11:32.479Z</time>
      </trkpt>
      <trkpt lat="47.06257" lon="-1.30507">
        <ele>36.428</ele>
        <time>2015-09-11T15:11:33.444Z</time>
      </trkpt>
      <trkpt lat="47.06252" lon="-1.30507">
        <ele>36.101</ele>
        <time>2015-09-11T15:11:34.526Z</time>
      </trkpt>
      <trkpt lat="47.06247" lon="-1.30508">
        <ele>36</ele>
        <time>2015-09-11T15:11:35.447Z</time>
      </trkpt>
      <trkpt lat="47.06241" lon="-1.30507">
        <ele>36</ele>
        <time>2015-09-11T15:11:36.488Z</time>
      </trkpt>
      <trkpt lat="47.06235" lon="-1.30507">
        <ele>36</ele>
        <time>2015-09-11T15:11:37.488Z</time>
      </trkpt>
      <trkpt lat="47.0623" lon="-1.30504">
        <ele>36</ele>
        <time>2015-09-11T15:11:38.482Z</time>
      </trkpt>
      <trkpt lat="47.06224" lon="-1.30501">
        <ele>36</ele>
        <time>2015-09-11T15:11:39.448Z</time>
      </trkpt>
      <trkpt lat="47.06219" lon="-1.30494">
        <ele>36.577</ele>
        <time>2015-09-11T15:11:40.516Z</time>
      </trkpt>
      <trkpt lat="47.06213" lon="-1.3049">
        <ele>37.194</ele>
        <time>2015-09-11T15:11:41.47Z</time>
      </trkpt>
      <trkpt lat="47.06209" lon="-1.30484">
        <ele>37.765</ele>
        <time>2015-09-11T15:11:42.562Z</time>
      </trkpt>
      <trkpt lat="47.06205" lon="-1.3048">
        <ele>38.154</ele>
        <time>2015-09-11T15:11:43.479Z</time>
      </trkpt>
      <trkpt lat="47.06201" lon="-1.30475">
        <ele>38.544</ele>
        <time>2015-09-11T15:11:44.597Z</time>
      </trkpt>
      <trkpt lat="47.06197" lon="-1.3047">
        <ele>38.823</ele>
        <time>2015-09-11T15:11:45.481Z</time>
      </trkpt>
      <trkpt lat="47.06194" lon="-1.30466">
        <ele>39.047</ele>
        <time>2015-09-11T15:11:46.718Z</time>
      </trkpt>
      <trkpt lat="47.0619" lon="-1.30461">
        <ele>39.18</ele>
        <time>2015-09-11T15:11:47.488Z</time>
      </trkpt>
      <trkpt lat="47.06184" lon="-1.30453">
        <ele>39.233</ele>
        <time>2015-09-11T15:11:50.165Z</time>
      </trkpt>
      <trkpt lat="47.0618" lon="-1.30451">
        <ele>39.228</ele>
        <time>2015-09-11T15:11:50.445Z</time>
      </trkpt>
      <trkpt lat="47.06175" lon="-1.30452">
        <ele>39.39</ele>
        <time>2015-09-11T15:11:51.484Z</time>
      </trkpt>
      <trkpt lat="47.06171" lon="-1.30456">
        <ele>39.675</ele>
        <time>2015-09-11T15:11:52.596Z</time>
      </trkpt>
      <trkpt lat="47.06164" lon="-1.3046">
        <ele>40.094</ele>
        <time>2015-09-11T15:11:54.484Z</time>
      </trkpt>
      <trkpt lat="47.06162" lon="-1.30462">
        <ele>40.177</ele>
        <time>2015-09-11T15:11:55.474Z</time>
      </trkpt>
      <trkpt lat="47.06156" lon="-1.3047">
        <ele>40.472</ele>
        <time>2015-09-11T15:11:59.601Z</time>
      </trkpt>
      <trkpt lat="47.06154" lon="-1.30473">
        <ele>40.546</ele>
        <time>2015-09-11T15:12:00.951Z</time>
      </trkpt>
      <trkpt lat="47.06148" lon="-1.3048">
        <ele>40.533</ele>
        <time>2015-09-11T15:12:02.499Z</time>
      </trkpt>
      <trkpt lat="47.06146" lon="-1.30484">
        <ele>40.573</ele>
        <time>2015-09-11T15:12:03.468Z</time>
      </trkpt>
      <trkpt lat="47.0614" lon="-1.30492">
        <ele>40.73</ele>
        <time>2015-09-11T15:12:05.483Z</time>
      </trkpt>
      <trkpt lat="47.06138" lon="-1.30496">
        <ele>40.813</ele>
        <time>2015-09-11T15:12:06.483Z</time>
      </trkpt>
      <trkpt lat="47.06132" lon="-1.30505">
        <ele>40.63</ele>
        <time>2015-09-11T15:12:09.015Z</time>
      </trkpt>
      <trkpt lat="47.06129" lon="-1.30509">
        <ele>40.438</ele>
        <time>2015-09-11T15:12:09.45Z</time>
      </trkpt>
      <trkpt lat="47.06124" lon="-1.30517">
        <ele>40.171</ele>
        <time>2015-09-11T15:12:11.646Z</time>
      </trkpt>
      <trkpt lat="47.06121" lon="-1.30522">
        <ele>40.078</ele>
        <time>2015-09-11T15:12:12.482Z</time>
      </trkpt>
      <trkpt lat="47.06116" lon="-1.30531">
        <ele>39.884</ele>
        <time>2015-09-11T15:12:15.617Z</time>
      </trkpt>
      <trkpt lat="47.06116" lon="-1.30535">
        <ele>39.744</ele>
        <time>2015-09-11T15:12:16.476Z</time>
      </trkpt>
      <trkpt lat="47.06118" lon="-1.30544">
        <ele>39.412</ele>
        <time>2015-09-11T15:12:18.483Z</time>
      </trkpt>
      <trkpt lat="47.06119" lon="-1.3055">
        <ele>39.204</ele>
        <time>2015-09-11T15:12:19.448Z</time>
      </trkpt>
      <trkpt lat="47.06121" lon="-1.30562">
        <ele>39</ele>
        <time>2015-09-11T15:12:22.296Z</time>
      </trkpt>
      <trkpt lat="47.06122" lon="-1.30568">
        <ele>39</ele>
        <time>2015-09-11T15:12:22.448Z</time>
      </trkpt>
      <trkpt lat="47.0612" lon="-1.3058">
        <ele>39</ele>
        <time>2015-09-11T15:12:24.603Z</time>
      </trkpt>
      <trkpt lat="47.06117" lon="-1.30585">
        <ele>39</ele>
        <time>2015-09-11T15:12:25.481Z</time>
      </trkpt>
      <trkpt lat="47.0611" lon="-1.30588">
        <ele>39</ele>
        <time>2015-09-11T15:12:27.126Z</time>
      </trkpt>
      <trkpt lat="47.06106" lon="-1.30592">
        <ele>39</ele>
        <time>2015-09-11T15:12:27.483Z</time>
      </trkpt>
      <trkpt lat="47.06101" lon="-1.30595">
        <ele>39</ele>
        <time>2015-09-11T15:12:28.707Z</time>
      </trkpt>
      <trkpt lat="47.06097" lon="-1.30597">
        <ele>39</ele>
        <time>2015-09-11T15:12:29.469Z</time>
      </trkpt>
      <trkpt lat="47.06093" lon="-1.306">
        <ele>39</ele>
        <time>2015-09-11T15:12:30.597Z</time>
      </trkpt>
      <trkpt lat="47.06089" lon="-1.30604">
        <ele>39</ele>
        <time>2015-09-11T15:12:31.477Z</time>
      </trkpt>
      <trkpt lat="47.06085" lon="-1.30608">
        <ele>39</ele>
        <time>2015-09-11T15:12:32.487Z</time>
      </trkpt>
      <trkpt lat="47.0608" lon="-1.30611">
        <ele>39.113</ele>
        <time>2015-09-11T15:12:33.453Z</time>
      </trkpt>
      <trkpt lat="47.06076" lon="-1.30614">
        <ele>39.25</ele>
        <time>2015-09-11T15:12:34.602Z</time>
      </trkpt>
      <trkpt lat="47.06071" lon="-1.30616">
        <ele>39.359</ele>
        <time>2015-09-11T15:12:35.48Z</time>
      </trkpt>
      <trkpt lat="47.06066" lon="-1.30619">
        <ele>39.457</ele>
        <time>2015-09-11T15:12:36.483Z</time>
      </trkpt>
      <trkpt lat="47.06061" lon="-1.30622">
        <ele>39.48</ele>
        <time>2015-09-11T15:12:37.454Z</time>
      </trkpt>
      <trkpt lat="47.06057" lon="-1.30624">
        <ele>39.515</ele>
        <time>2015-09-11T15:12:38.759Z</time>
      </trkpt>
      <trkpt lat="47.06052" lon="-1.30627">
        <ele>39.514</ele>
        <time>2015-09-11T15:12:39.478Z</time>
      </trkpt>
      <trkpt lat="47.06047" lon="-1.30628">
        <ele>39.58</ele>
        <time>2015-09-11T15:12:40.619Z</time>
      </trkpt>
      <trkpt lat="47.06043" lon="-1.30629">
        <ele>39.637</ele>
        <time>2015-09-11T15:12:41.491Z</time>
      </trkpt>
      <trkpt lat="47.06039" lon="-1.30629">
        <ele>39.735</ele>
        <time>2015-09-11T15:12:42.619Z</time>
      </trkpt>
      <trkpt lat="47.06034" lon="-1.3063">
        <ele>39.857</ele>
        <time>2015-09-11T15:12:43.466Z</time>
      </trkpt>
      <trkpt lat="47.06029" lon="-1.30631">
        <ele>39.971</ele>
        <time>2015-09-11T15:12:44.606Z</time>
      </trkpt>
      <trkpt lat="47.06025" lon="-1.30632">
        <ele>39.914</ele>
        <time>2015-09-11T15:12:45.476Z</time>
      </trkpt>
      <trkpt lat="47.0602" lon="-1.30634">
        <ele>39.765</ele>
        <time>2015-09-11T15:12:46.643Z</time>
      </trkpt>
      <trkpt lat="47.06016" lon="-1.30636">
        <ele>39.601</ele>
        <time>2015-09-11T15:12:47.479Z</time>
      </trkpt>
      <trkpt lat="47.06011" lon="-1.30638">
        <ele>39.414</ele>
        <time>2015-09-11T15:12:48.606Z</time>
      </trkpt>
      <trkpt lat="47.06007" lon="-1.3064">
        <ele>39.225</ele>
        <time>2015-09-11T15:12:49.451Z</time>
      </trkpt>
      <trkpt lat="47.06002" lon="-1.30641">
        <ele>39.064</ele>
        <time>2015-09-11T15:12:50.578Z</time>
      </trkpt>
      <trkpt lat="47.05997" lon="-1.30641">
        <ele>39</ele>
        <time>2015-09-11T15:12:51.481Z</time>
      </trkpt>
      <trkpt lat="47.05992" lon="-1.30641">
        <ele>39</ele>
        <time>2015-09-11T15:12:52.616Z</time>
      </trkpt>
      <trkpt lat="47.05988" lon="-1.30642">
        <ele>39</ele>
        <time>2015-09-11T15:12:53.465Z</time>
      </trkpt>
      <trkpt lat="47.05983" lon="-1.30641">
        <ele>39</ele>
        <time>2015-09-11T15:12:54.69Z</time>
      </trkpt>
      <trkpt lat="47.05978" lon="-1.30641">
        <ele>39</ele>
        <time>2015-09-11T15:12:55.472Z</time>
      </trkpt>
      <trkpt lat="47.05973" lon="-1.3064">
        <ele>39</ele>
        <time>2015-09-11T15:12:56.621Z</time>
      </trkpt>
      <trkpt lat="47.05969" lon="-1.30641">
        <ele>39.12</ele>
        <time>2015-09-11T15:12:57.479Z</time>
      </trkpt>
      <trkpt lat="47.05965" lon="-1.30641">
        <ele>39.278</ele>
        <time>2015-09-11T15:12:58.603Z</time>
      </trkpt>
      <trkpt lat="47.0596" lon="-1.30641">
        <ele>39.454</ele>
        <time>2015-09-11T15:12:59.473Z</time>
      </trkpt>
      <trkpt lat="47.05955" lon="-1.30639">
        <ele>39.638</ele>
        <time>2015-09-11T15:13:00.481Z</time>
      </trkpt>
      <trkpt lat="47.0595" lon="-1.30637">
        <ele>39.814</ele>
        <time>2015-09-11T15:13:01.453Z</time>
      </trkpt>
      <trkpt lat="47.05941" lon="-1.30635">
        <ele>40.131</ele>
        <time>2015-09-11T15:13:03.598Z</time>
      </trkpt>
      <trkpt lat="47.05937" lon="-1.30634">
        <ele>40.272</ele>
        <time>2015-09-11T15:13:04.478Z</time>
      </trkpt>
      <trkpt lat="47.05932" lon="-1.30633">
        <ele>40.444</ele>
        <time>2015-09-11T15:13:05.664Z</time>
      </trkpt>
      <trkpt lat="47.05927" lon="-1.30633">
        <ele>40.621</ele>
        <time>2015-09-11T15:13:06.478Z</time>
      </trkpt>
      <trkpt lat="47.05922" lon="-1.30632">
        <ele>40.797</ele>
        <time>2015-09-11T15:13:07.599Z</time>
      </trkpt>
      <trkpt lat="47.05918" lon="-1.30632">
        <ele>40.963</ele>
        <time>2015-09-11T15:13:08.455Z</time>
      </trkpt>
      <trkpt lat="47.05913" lon="-1.30632">
        <ele>41.132</ele>
        <time>2015-09-11T15:13:09.481Z</time>
      </trkpt>
      <trkpt lat="47.05908" lon="-1.30631">
        <ele>41.305</ele>
        <time>2015-09-11T15:13:10.47Z</time>
      </trkpt>
      <trkpt lat="47.05903" lon="-1.3063">
        <ele>41.503</ele>
        <time>2015-09-11T15:13:11.487Z</time>
      </trkpt>
      <trkpt lat="47.05897" lon="-1.30629">
        <ele>41.708</ele>
        <time>2015-09-11T15:13:12.45Z</time>
      </trkpt>
      <trkpt lat="47.05892" lon="-1.30628">
        <ele>41.906</ele>
        <time>2015-09-11T15:13:13.688Z</time>
      </trkpt>
      <trkpt lat="47.05887" lon="-1.30626">
        <ele>42.085</ele>
        <time>2015-09-11T15:13:14.492Z</time>
      </trkpt>
      <trkpt lat="47.05878" lon="-1.30624">
        <ele>42.382</ele>
        <time>2015-09-11T15:13:16.629Z</time>
      </trkpt>
      <trkpt lat="47.05873" lon="-1.30624">
        <ele>42.546</ele>
        <time>2015-09-11T15:13:17.47Z</time>
      </trkpt>
      <trkpt lat="47.05868" lon="-1.30623">
        <ele>42.633</ele>
        <time>2015-09-11T15:13:18.604Z</time>
      </trkpt>
      <trkpt lat="47.05864" lon="-1.30622">
        <ele>42.695</ele>
        <time>2015-09-11T15:13:19.473Z</time>
      </trkpt>
      <trkpt lat="47.05859" lon="-1.30621">
        <ele>42.709</ele>
        <time>2015-09-11T15:13:20.612Z</time>
      </trkpt>
      <trkpt lat="47.05854" lon="-1.3062">
        <ele>42.55</ele>
        <time>2015-09-11T15:13:21.487Z</time>
      </trkpt>
      <trkpt lat="47.05849" lon="-1.30618">
        <ele>42.399</ele>
        <time>2015-09-11T15:13:22.61Z</time>
      </trkpt>
      <trkpt lat="47.05844" lon="-1.30618">
        <ele>42.325</ele>
        <time>2015-09-11T15:13:23.453Z</time>
      </trkpt>
      <trkpt lat="47.0584" lon="-1.30616">
        <ele>42.206</ele>
        <time>2015-09-11T15:13:24.583Z</time>
      </trkpt>
      <trkpt lat="47.05834" lon="-1.30615">
        <ele>42.159</ele>
        <time>2015-09-11T15:13:25.483Z</time>
      </trkpt>
      <trkpt lat="47.05829" lon="-1.30615">
        <ele>42.133</ele>
        <time>2015-09-11T15:13:26.481Z</time>
      </trkpt>
      <trkpt lat="47.05824" lon="-1.30614">
        <ele>42.111</ele>
        <time>2015-09-11T15:13:27.448Z</time>
      </trkpt>
      <trkpt lat="47.05818" lon="-1.30615">
        <ele>42.151</ele>
        <time>2015-09-11T15:13:28.653Z</time>
      </trkpt>
      <trkpt lat="47.05814" lon="-1.30612">
        <ele>42.043</ele>
        <time>2015-09-11T15:13:29.475Z</time>
      </trkpt>
      <trkpt lat="47.05808" lon="-1.30613">
        <ele>42.064</ele>
        <time>2015-09-11T15:13:30.619Z</time>
      </trkpt>
      <trkpt lat="47.05803" lon="-1.30613">
        <ele>42.157</ele>
        <time>2015-09-11T15:13:31.469Z</time>
      </trkpt>
      <trkpt lat="47.05798" lon="-1.30612">
        <ele>42.294</ele>
        <time>2015-09-11T15:13:32.621Z</time>
      </trkpt>
      <trkpt lat="47.05793" lon="-1.30611">
        <ele>42.463</ele>
        <time>2015-09-11T15:13:33.473Z</time>
      </trkpt>
      <trkpt lat="47.05788" lon="-1.3061">
        <ele>42.632</ele>
        <time>2015-09-11T15:13:34.477Z</time>
      </trkpt>
      <trkpt lat="47.05783" lon="-1.3061">
        <ele>42.798</ele>
        <time>2015-09-11T15:13:35.449Z</time>
      </trkpt>
      <trkpt lat="47.05775" lon="-1.30608">
        <ele>43</ele>
        <time>2015-09-11T15:13:37.71Z</time>
      </trkpt>
      <trkpt lat="47.05771" lon="-1.30606">
        <ele>43</ele>
        <time>2015-09-11T15:13:38.477Z</time>
      </trkpt>
      <trkpt lat="47.05762" lon="-1.30604">
        <ele>43</ele>
        <time>2015-09-11T15:13:40.605Z</time>
      </trkpt>
      <trkpt lat="47.05758" lon="-1.30604">
        <ele>43</ele>
        <time>2015-09-11T15:13:41.49Z</time>
      </trkpt>
      <trkpt lat="47.0575" lon="-1.30602">
        <ele>43</ele>
        <time>2015-09-11T15:13:43.59Z</time>
      </trkpt>
      <trkpt lat="47.05746" lon="-1.30602">
        <ele>43</ele>
        <time>2015-09-11T15:13:44.474Z</time>
      </trkpt>
      <trkpt lat="47.05737" lon="-1.30601">
        <ele>43</ele>
        <time>2015-09-11T15:13:46.495Z</time>
      </trkpt>
      <trkpt lat="47.05732" lon="-1.30601">
        <ele>43</ele>
        <time>2015-09-11T15:13:47.541Z</time>
      </trkpt>
      <trkpt lat="47.05723" lon="-1.30599">
        <ele>43</ele>
        <time>2015-09-11T15:13:49.481Z</time>
      </trkpt>
      <trkpt lat="47.0572" lon="-1.30599">
        <ele>43.143</ele>
        <time>2015-09-11T15:13:50.484Z</time>
      </trkpt>
      <trkpt lat="47.05712" lon="-1.30599">
        <ele>43.593</ele>
        <time>2015-09-11T15:13:52.71Z</time>
      </trkpt>
      <trkpt lat="47.05709" lon="-1.30596">
        <ele>43.691</ele>
        <time>2015-09-11T15:13:53.479Z</time>
      </trkpt>
      <trkpt lat="47.05701" lon="-1.30594">
        <ele>44.029</ele>
        <time>2015-09-11T15:13:55.593Z</time>
      </trkpt>
      <trkpt lat="47.05697" lon="-1.30593">
        <ele>44.2</ele>
        <time>2015-09-11T15:13:56.481Z</time>
      </trkpt>
      <trkpt lat="47.05689" lon="-1.30591">
        <ele>44.276</ele>
        <time>2015-09-11T15:13:58.503Z</time>
      </trkpt>
      <trkpt lat="47.05685" lon="-1.30591">
        <ele>44.262</ele>
        <time>2015-09-11T15:13:59.471Z</time>
      </trkpt>
      <trkpt lat="47.05676" lon="-1.3059">
        <ele>44.233</ele>
        <time>2015-09-11T15:14:01.504Z</time>
      </trkpt>
      <trkpt lat="47.05672" lon="-1.30589">
        <ele>44.208</ele>
        <time>2015-09-11T15:14:02.481Z</time>
      </trkpt>
      <trkpt lat="47.05663" lon="-1.30588">
        <ele>44.268</ele>
        <time>2015-09-11T15:14:04.509Z</time>
      </trkpt>
      <trkpt lat="47.05659" lon="-1.30587">
        <ele>44.412</ele>
        <time>2015-09-11T15:14:05.481Z</time>
      </trkpt>
      <trkpt lat="47.0565" lon="-1.30586">
        <ele>44.689</ele>
        <time>2015-09-11T15:14:07.505Z</time>
      </trkpt>
      <trkpt lat="47.05646" lon="-1.30585">
        <ele>44.811</ele>
        <time>2015-09-11T15:14:08.46Z</time>
      </trkpt>
      <trkpt lat="47.05637" lon="-1.30584">
        <ele>45.01</ele>
        <time>2015-09-11T15:14:10.521Z</time>
      </trkpt>
      <trkpt lat="47.05633" lon="-1.30583">
        <ele>44.993</ele>
        <time>2015-09-11T15:14:11.488Z</time>
      </trkpt>
      <trkpt lat="47.05625" lon="-1.30583">
        <ele>44.987</ele>
        <time>2015-09-11T15:14:13.692Z</time>
      </trkpt>
      <trkpt lat="47.05621" lon="-1.30582">
        <ele>44.986</ele>
        <time>2015-09-11T15:14:14.506Z</time>
      </trkpt>
      <trkpt lat="47.05613" lon="-1.30581">
        <ele>44.995</ele>
        <time>2015-09-11T15:14:16.63Z</time>
      </trkpt>
      <trkpt lat="47.05609" lon="-1.3058">
        <ele>45.094</ele>
        <time>2015-09-11T15:14:17.48Z</time>
      </trkpt>
      <trkpt lat="47.056" lon="-1.30578">
        <ele>45.386</ele>
        <time>2015-09-11T15:14:19.636Z</time>
      </trkpt>
      <trkpt lat="47.05596" lon="-1.30578">
        <ele>45.533</ele>
        <time>2015-09-11T15:14:20.511Z</time>
      </trkpt>
      <trkpt lat="47.05589" lon="-1.30577">
        <ele>45.81</ele>
        <time>2015-09-11T15:14:22.488Z</time>
      </trkpt>
      <trkpt lat="47.05585" lon="-1.30577">
        <ele>45.947</ele>
        <time>2015-09-11T15:14:23.498Z</time>
      </trkpt>
      <trkpt lat="47.05577" lon="-1.30575">
        <ele>46.156</ele>
        <time>2015-09-11T15:14:25.682Z</time>
      </trkpt>
      <trkpt lat="47.05574" lon="-1.30575">
        <ele>46.243</ele>
        <time>2015-09-11T15:14:26.482Z</time>
      </trkpt>
      <trkpt lat="47.05566" lon="-1.30574">
        <ele>46.422</ele>
        <time>2015-09-11T15:14:28.612Z</time>
      </trkpt>
      <trkpt lat="47.05562" lon="-1.30574">
        <ele>46.509</ele>
        <time>2015-09-11T15:14:29.48Z</time>
      </trkpt>
      <trkpt lat="47.05554" lon="-1.30573">
        <ele>46.626</ele>
        <time>2015-09-11T15:14:31.488Z</time>
      </trkpt>
      <trkpt lat="47.05551" lon="-1.30572">
        <ele>46.651</ele>
        <time>2015-09-11T15:14:32.484Z</time>
      </trkpt>
      <trkpt lat="47.05543" lon="-1.3057">
        <ele>46.744</ele>
        <time>2015-09-11T15:14:34.611Z</time>
      </trkpt>
      <trkpt lat="47.05539" lon="-1.3057">
        <ele>46.806</ele>
        <time>2015-09-11T15:14:35.478Z</time>
      </trkpt>
      <trkpt lat="47.05532" lon="-1.30569">
        <ele>46.926</ele>
        <time>2015-09-11T15:14:37.71Z</time>
      </trkpt>
      <trkpt lat="47.05528" lon="-1.30568">
        <ele>46.998</ele>
        <time>2015-09-11T15:14:38.49Z</time>
      </trkpt>
      <trkpt lat="47.0552" lon="-1.30566">
        <ele>46.72</ele>
        <time>2015-09-11T15:14:40.494Z</time>
      </trkpt>
      <trkpt lat="47.05516" lon="-1.30565">
        <ele>46.576</ele>
        <time>2015-09-11T15:14:41.484Z</time>
      </trkpt>
      <trkpt lat="47.05508" lon="-1.30564">
        <ele>46.284</ele>
        <time>2015-09-11T15:14:43.615Z</time>
      </trkpt>
      <trkpt lat="47.05504" lon="-1.30564">
        <ele>46.133</ele>
        <time>2015-09-11T15:14:44.478Z</time>
      </trkpt>
      <trkpt lat="47.05495" lon="-1.30563">
        <ele>45.831</ele>
        <time>2015-09-11T15:14:46.482Z</time>
      </trkpt>
      <trkpt lat="47.05491" lon="-1.30562">
        <ele>45.676</ele>
        <time>2015-09-11T15:14:47.521Z</time>
      </trkpt>
      <trkpt lat="47.05482" lon="-1.30561">
        <ele>45.366</ele>
        <time>2015-09-11T15:14:49.596Z</time>
      </trkpt>
      <trkpt lat="47.05478" lon="-1.3056">
        <ele>45.212</ele>
        <time>2015-09-11T15:14:50.477Z</time>
      </trkpt>
      <trkpt lat="47.05474" lon="-1.30559">
        <ele>45.057</ele>
        <time>2015-09-11T15:14:51.484Z</time>
      </trkpt>
      <trkpt lat="47.05468" lon="-1.30559">
        <ele>45</ele>
        <time>2015-09-11T15:14:52.456Z</time>
      </trkpt>
      <trkpt lat="47.05459" lon="-1.30558">
        <ele>45</ele>
        <time>2015-09-11T15:14:54.615Z</time>
      </trkpt>
      <trkpt lat="47.05455" lon="-1.30556">
        <ele>45</ele>
        <time>2015-09-11T15:14:55.481Z</time>
      </trkpt>
      <trkpt lat="47.05446" lon="-1.30555">
        <ele>45</ele>
        <time>2015-09-11T15:14:57.541Z</time>
      </trkpt>
      <trkpt lat="47.05443" lon="-1.30555">
        <ele>45.066</ele>
        <time>2015-09-11T15:14:58.477Z</time>
      </trkpt>
      <trkpt lat="47.05436" lon="-1.3056">
        <ele>45.318</ele>
        <time>2015-09-11T15:15:00.483Z</time>
      </trkpt>
      <trkpt lat="47.05434" lon="-1.30565">
        <ele>45.387</ele>
        <time>2015-09-11T15:15:01.478Z</time>
      </trkpt>
      <trkpt lat="47.05433" lon="-1.30577">
        <ele>45.426</ele>
        <time>2015-09-11T15:15:03.662Z</time>
      </trkpt>
      <trkpt lat="47.05433" lon="-1.30583">
        <ele>45.419</ele>
        <time>2015-09-11T15:15:04.477Z</time>
      </trkpt>
      <trkpt lat="47.05433" lon="-1.3059">
        <ele>45.419</ele>
        <time>2015-09-11T15:15:05.613Z</time>
      </trkpt>
      <trkpt lat="47.05432" lon="-1.30597">
        <ele>45.441</ele>
        <time>2015-09-11T15:15:06.551Z</time>
      </trkpt>
      <trkpt lat="47.05432" lon="-1.30604">
        <ele>45.466</ele>
        <time>2015-09-11T15:15:07.617Z</time>
      </trkpt>
      <trkpt lat="47.05431" lon="-1.3061">
        <ele>45.495</ele>
        <time>2015-09-11T15:15:08.482Z</time>
      </trkpt>
      <trkpt lat="47.05431" lon="-1.30617">
        <ele>45.714</ele>
        <time>2015-09-11T15:15:09.488Z</time>
      </trkpt>
      <trkpt lat="47.05431" lon="-1.30624">
        <ele>45.941</ele>
        <time>2015-09-11T15:15:10.449Z</time>
      </trkpt>
      <trkpt lat="47.05431" lon="-1.30632">
        <ele>46.232</ele>
        <time>2015-09-11T15:15:11.692Z</time>
      </trkpt>
      <trkpt lat="47.05431" lon="-1.30639">
        <ele>46.477</ele>
        <time>2015-09-11T15:15:12.493Z</time>
      </trkpt>
      <trkpt lat="47.05432" lon="-1.30645">
        <ele>46.562</ele>
        <time>2015-09-11T15:15:13.611Z</time>
      </trkpt>
      <trkpt lat="47.05432" lon="-1.30652">
        <ele>46.72</ele>
        <time>2015-09-11T15:15:14.468Z</time>
      </trkpt>
      <trkpt lat="47.05432" lon="-1.30659">
        <ele>46.849</ele>
        <time>2015-09-11T15:15:15.619Z</time>
      </trkpt>
      <trkpt lat="47.05432" lon="-1.30667">
        <ele>47</ele>
        <time>2015-09-11T15:15:16.498Z</time>
      </trkpt>
      <trkpt lat="47.05432" lon="-1.30675">
        <ele>47</ele>
        <time>2015-09-11T15:15:17.613Z</time>
      </trkpt>
      <trkpt lat="47.05433" lon="-1.30682">
        <ele>47</ele>
        <time>2015-09-11T15:15:18.513Z</time>
      </trkpt>
      <trkpt lat="47.05433" lon="-1.3069">
        <ele>47</ele>
        <time>2015-09-11T15:15:19.61Z</time>
      </trkpt>
      <trkpt lat="47.05433" lon="-1.30696">
        <ele>46.972</ele>
        <time>2015-09-11T15:15:20.488Z</time>
      </trkpt>
      <trkpt lat="47.05433" lon="-1.30703">
        <ele>46.868</ele>
        <time>2015-09-11T15:15:21.493Z</time>
      </trkpt>
      <trkpt lat="47.05433" lon="-1.3071">
        <ele>46.775</ele>
        <time>2015-09-11T15:15:22.454Z</time>
      </trkpt>
      <trkpt lat="47.05433" lon="-1.30717">
        <ele>46.671</ele>
        <time>2015-09-11T15:15:23.698Z</time>
      </trkpt>
      <trkpt lat="47.05433" lon="-1.30725">
        <ele>46.516</ele>
        <time>2015-09-11T15:15:24.473Z</time>
      </trkpt>
      <trkpt lat="47.05432" lon="-1.30732">
        <ele>46.356</ele>
        <time>2015-09-11T15:15:25.607Z</time>
      </trkpt>
      <trkpt lat="47.05432" lon="-1.30738">
        <ele>46.238</ele>
        <time>2015-09-11T15:15:26.486Z</time>
      </trkpt>
      <trkpt lat="47.05431" lon="-1.30745">
        <ele>46.094</ele>
        <time>2015-09-11T15:15:27.507Z</time>
      </trkpt>
      <trkpt lat="47.0543" lon="-1.30754">
        <ele>45.92</ele>
        <time>2015-09-11T15:15:28.451Z</time>
      </trkpt>
      <trkpt lat="47.05429" lon="-1.30761">
        <ele>45.788</ele>
        <time>2015-09-11T15:15:29.639Z</time>
      </trkpt>
      <trkpt lat="47.0543" lon="-1.3077">
        <ele>45.634</ele>
        <time>2015-09-11T15:15:30.467Z</time>
      </trkpt>
      <trkpt lat="47.05433" lon="-1.30782">
        <ele>45.574</ele>
        <time>2015-09-11T15:15:32.512Z</time>
      </trkpt>
      <trkpt lat="47.05433" lon="-1.30788">
        <ele>45.584</ele>
        <time>2015-09-11T15:15:33.454Z</time>
      </trkpt>
      <trkpt lat="47.05432" lon="-1.30798">
        <ele>45.559</ele>
        <time>2015-09-11T15:15:34.602Z</time>
      </trkpt>
      <trkpt lat="47.05432" lon="-1.30804">
        <ele>45.538</ele>
        <time>2015-09-11T15:15:35.479Z</time>
      </trkpt>
      <trkpt lat="47.05432" lon="-1.30811">
        <ele>45.45</ele>
        <time>2015-09-11T15:15:36.499Z</time>
      </trkpt>
      <trkpt lat="47.05432" lon="-1.30818">
        <ele>45.297</ele>
        <time>2015-09-11T15:15:37.452Z</time>
      </trkpt>
      <trkpt lat="47.05431" lon="-1.30825">
        <ele>45.148</ele>
        <time>2015-09-11T15:15:38.613Z</time>
      </trkpt>
      <trkpt lat="47.05431" lon="-1.30833">
        <ele>45.014</ele>
        <time>2015-09-11T15:15:39.477Z</time>
      </trkpt>
      <trkpt lat="47.05432" lon="-1.3084">
        <ele>45.128</ele>
        <time>2015-09-11T15:15:40.609Z</time>
      </trkpt>
      <trkpt lat="47.05433" lon="-1.30847">
        <ele>45.282</ele>
        <time>2015-09-11T15:15:41.482Z</time>
      </trkpt>
      <trkpt lat="47.05435" lon="-1.30852">
        <ele>45.458</ele>
        <time>2015-09-11T15:15:42.489Z</time>
      </trkpt>
      <trkpt lat="47.05439" lon="-1.30859">
        <ele>45.735</ele>
        <time>2015-09-11T15:15:43.454Z</time>
      </trkpt>
      <trkpt lat="47.05444" lon="-1.30862">
        <ele>45.932</ele>
        <time>2015-09-11T15:15:44.612Z</time>
      </trkpt>
      <trkpt lat="47.05448" lon="-1.30868">
        <ele>45.65</ele>
        <time>2015-09-11T15:15:45.485Z</time>
      </trkpt>
      <trkpt lat="47.05451" lon="-1.30873">
        <ele>45.432</ele>
        <time>2015-09-11T15:15:46.491Z</time>
      </trkpt>
      <trkpt lat="47.05453" lon="-1.3088">
        <ele>45.219</ele>
        <time>2015-09-11T15:15:47.451Z</time>
      </trkpt>
      <trkpt lat="47.05452" lon="-1.30887">
        <ele>45.053</ele>
        <time>2015-09-11T15:15:48.599Z</time>
      </trkpt>
      <trkpt lat="47.05448" lon="-1.30893">
        <ele>44.888</ele>
        <time>2015-09-11T15:15:49.475Z</time>
      </trkpt>
      <trkpt lat="47.05444" lon="-1.30895">
        <ele>44.787</ele>
        <time>2015-09-11T15:15:50.483Z</time>
      </trkpt>
      <trkpt lat="47.05439" lon="-1.30896">
        <ele>44.758</ele>
        <time>2015-09-11T15:15:51.454Z</time>
      </trkpt>
      <trkpt lat="47.05433" lon="-1.30896">
        <ele>44.758</ele>
        <time>2015-09-11T15:15:52.657Z</time>
      </trkpt>
      <trkpt lat="47.05427" lon="-1.30896">
        <ele>44.758</ele>
        <time>2015-09-11T15:15:53.58Z</time>
      </trkpt>
      <trkpt lat="47.05422" lon="-1.30896">
        <ele>44.755</ele>
        <time>2015-09-11T15:15:54.486Z</time>
      </trkpt>
      <trkpt lat="47.05416" lon="-1.30896">
        <ele>44.748</ele>
        <time>2015-09-11T15:15:55.467Z</time>
      </trkpt>
      <trkpt lat="47.05411" lon="-1.30893">
        <ele>44.838</ele>
        <time>2015-09-11T15:15:56.63Z</time>
      </trkpt>
      <trkpt lat="47.05406" lon="-1.30893">
        <ele>44.838</ele>
        <time>2015-09-11T15:15:57.474Z</time>
      </trkpt>
      <trkpt lat="47.054" lon="-1.30894">
        <ele>44.834</ele>
        <time>2015-09-11T15:15:58.484Z</time>
      </trkpt>
      <trkpt lat="47.05395" lon="-1.30893">
        <ele>44.841</ele>
        <time>2015-09-11T15:15:59.449Z</time>
      </trkpt>
      <trkpt lat="47.05386" lon="-1.30891">
        <ele>44.92</ele>
        <time>2015-09-11T15:16:01.698Z</time>
      </trkpt>
      <trkpt lat="47.05381" lon="-1.30891">
        <ele>44.938</ele>
        <time>2015-09-11T15:16:02.478Z</time>
      </trkpt>
      <trkpt lat="47.05376" lon="-1.30892">
        <ele>44.906</ele>
        <time>2015-09-11T15:16:03.992Z</time>
      </trkpt>
      <trkpt lat="47.05371" lon="-1.30893">
        <ele>44.87</ele>
        <time>2015-09-11T15:16:04.449Z</time>
      </trkpt>
      <trkpt lat="47.05366" lon="-1.30894">
        <ele>44.812</ele>
        <time>2015-09-11T15:16:05.482Z</time>
      </trkpt>
      <trkpt lat="47.05361" lon="-1.30896">
        <ele>44.769</ele>
        <time>2015-09-11T15:16:06.479Z</time>
      </trkpt>
      <trkpt lat="47.05356" lon="-1.30896">
        <ele>44.839</ele>
        <time>2015-09-11T15:16:07.624Z</time>
      </trkpt>
      <trkpt lat="47.0535" lon="-1.30898">
        <ele>44.942</ele>
        <time>2015-09-11T15:16:08.476Z</time>
      </trkpt>
      <trkpt lat="47.05344" lon="-1.30898">
        <ele>45.067</ele>
        <time>2015-09-11T15:16:09.669Z</time>
      </trkpt>
      <trkpt lat="47.0534" lon="-1.30898">
        <ele>45.156</ele>
        <time>2015-09-11T15:16:10.491Z</time>
      </trkpt>
      <trkpt lat="47.05336" lon="-1.30899">
        <ele>45.295</ele>
        <time>2015-09-11T15:16:11.608Z</time>
      </trkpt>
      <trkpt lat="47.0533" lon="-1.309">
        <ele>45.509</ele>
        <time>2015-09-11T15:16:12.467Z</time>
      </trkpt>
      <trkpt lat="47.05325" lon="-1.30901">
        <ele>45.725</ele>
        <time>2015-09-11T15:16:13.484Z</time>
      </trkpt>
      <trkpt lat="47.0532" lon="-1.30903">
        <ele>45.999</ele>
        <time>2015-09-11T15:16:14.454Z</time>
      </trkpt>
      <trkpt lat="47.05315" lon="-1.30905">
        <ele>46.247</ele>
        <time>2015-09-11T15:16:15.68Z</time>
      </trkpt>
      <trkpt lat="47.0531" lon="-1.30906">
        <ele>46.463</ele>
        <time>2015-09-11T15:16:16.491Z</time>
      </trkpt>
      <trkpt lat="47.05301" lon="-1.30903">
        <ele>46.44</ele>
        <time>2015-09-11T15:16:18.782Z</time>
      </trkpt>
      <trkpt lat="47.05296" lon="-1.30903">
        <ele>46.323</ele>
        <time>2015-09-11T15:16:19.475Z</time>
      </trkpt>
      <trkpt lat="47.05291" lon="-1.30904">
        <ele>46.259</ele>
        <time>2015-09-11T15:16:20.502Z</time>
      </trkpt>
      <trkpt lat="47.05287" lon="-1.30906">
        <ele>46.206</ele>
        <time>2015-09-11T15:16:21.457Z</time>
      </trkpt>
      <trkpt lat="47.05278" lon="-1.30909">
        <ele>46.011</ele>
        <time>2015-09-11T15:16:23.62Z</time>
      </trkpt>
      <trkpt lat="47.05271" lon="-1.30909">
        <ele>45.76</ele>
        <time>2015-09-11T15:16:24.476Z</time>
      </trkpt>
      <trkpt lat="47.05265" lon="-1.30911">
        <ele>45.54</ele>
        <time>2015-09-11T15:16:25.481Z</time>
      </trkpt>
      <trkpt lat="47.0526" lon="-1.30912">
        <ele>45.371</ele>
        <time>2015-09-11T15:16:26.448Z</time>
      </trkpt>
      <trkpt lat="47.05254" lon="-1.30914">
        <ele>45.13</ele>
        <time>2015-09-11T15:16:27.664Z</time>
      </trkpt>
      <trkpt lat="47.05248" lon="-1.30917">
        <ele>45</ele>
        <time>2015-09-11T15:16:28.455Z</time>
      </trkpt>
      <trkpt lat="47.05244" lon="-1.30919">
        <ele>45</ele>
        <time>2015-09-11T15:16:29.491Z</time>
      </trkpt>
      <trkpt lat="47.05237" lon="-1.30921">
        <ele>45</ele>
        <time>2015-09-11T15:16:30.479Z</time>
      </trkpt>
      <trkpt lat="47.05232" lon="-1.30922">
        <ele>45</ele>
        <time>2015-09-11T15:16:31.492Z</time>
      </trkpt>
      <trkpt lat="47.05227" lon="-1.30923">
        <ele>45</ele>
        <time>2015-09-11T15:16:32.448Z</time>
      </trkpt>
      <trkpt lat="47.05221" lon="-1.30923">
        <ele>45.025</ele>
        <time>2015-09-11T15:16:33.601Z</time>
      </trkpt>
      <trkpt lat="47.05216" lon="-1.30925">
        <ele>45.153</ele>
        <time>2015-09-11T15:16:34.467Z</time>
      </trkpt>
      <trkpt lat="47.05212" lon="-1.30927">
        <ele>45.237</ele>
        <time>2015-09-11T15:16:35.484Z</time>
      </trkpt>
      <trkpt lat="47.05207" lon="-1.30928">
        <ele>45.327</ele>
        <time>2015-09-11T15:16:36.448Z</time>
      </trkpt>
      <trkpt lat="47.05202" lon="-1.30929">
        <ele>45.398</ele>
        <time>2015-09-11T15:16:38.039Z</time>
      </trkpt>
      <trkpt lat="47.05197" lon="-1.30932">
        <ele>45.4</ele>
        <time>2015-09-11T15:16:38.449Z</time>
      </trkpt>
      <trkpt lat="47.05192" lon="-1.30935">
        <ele>45.401</ele>
        <time>2015-09-11T15:16:39.483Z</time>
      </trkpt>
      <trkpt lat="47.05188" lon="-1.30937">
        <ele>45.432</ele>
        <time>2015-09-11T15:16:40.472Z</time>
      </trkpt>
      <trkpt lat="47.05184" lon="-1.30939">
        <ele>45.499</ele>
        <time>2015-09-11T15:16:41.484Z</time>
      </trkpt>
      <trkpt lat="47.05173" lon="-1.30944">
        <ele>45.769</ele>
        <time>2015-09-11T15:16:42.452Z</time>
      </trkpt>
      <trkpt lat="47.05168" lon="-1.30946">
        <ele>45.895</ele>
        <time>2015-09-11T15:16:43.57Z</time>
      </trkpt>
      <trkpt lat="47.05163" lon="-1.30947">
        <ele>45.907</ele>
        <time>2015-09-11T15:16:44.474Z</time>
      </trkpt>
      <trkpt lat="47.05159" lon="-1.3095">
        <ele>45.857</ele>
        <time>2015-09-11T15:16:45.613Z</time>
      </trkpt>
      <trkpt lat="47.05154" lon="-1.30955">
        <ele>45.795</ele>
        <time>2015-09-11T15:16:46.473Z</time>
      </trkpt>
      <trkpt lat="47.05148" lon="-1.30953">
        <ele>45.894</ele>
        <time>2015-09-11T15:16:48.488Z</time>
      </trkpt>
      <trkpt lat="47.05143" lon="-1.30956">
        <ele>45.94</ele>
        <time>2015-09-11T15:16:49.454Z</time>
      </trkpt>
      <trkpt lat="47.05139" lon="-1.30958">
        <ele>45.993</ele>
        <time>2015-09-11T15:16:50.626Z</time>
      </trkpt>
      <trkpt lat="47.05132" lon="-1.30961">
        <ele>45.865</ele>
        <time>2015-09-11T15:16:51.542Z</time>
      </trkpt>
      <trkpt lat="47.05125" lon="-1.30967">
        <ele>45.6</ele>
        <time>2015-09-11T15:16:53.605Z</time>
      </trkpt>
      <trkpt lat="47.05121" lon="-1.30968">
        <ele>45.455</ele>
        <time>2015-09-11T15:16:54.471Z</time>
      </trkpt>
      <trkpt lat="47.05116" lon="-1.30972">
        <ele>45.192</ele>
        <time>2015-09-11T15:16:55.622Z</time>
      </trkpt>
      <trkpt lat="47.05111" lon="-1.30974">
        <ele>44.936</ele>
        <time>2015-09-11T15:16:56.487Z</time>
      </trkpt>
      <trkpt lat="47.05108" lon="-1.30976">
        <ele>44.73</ele>
        <time>2015-09-11T15:16:57.652Z</time>
      </trkpt>
      <trkpt lat="47.05103" lon="-1.3098">
        <ele>44.414</ele>
        <time>2015-09-11T15:16:58.454Z</time>
      </trkpt>
      <trkpt lat="47.05097" lon="-1.30982">
        <ele>44.14</ele>
        <time>2015-09-11T15:16:59.483Z</time>
      </trkpt>
      <trkpt lat="47.05092" lon="-1.30986">
        <ele>43.823</ele>
        <time>2015-09-11T15:17:00.478Z</time>
      </trkpt>
      <trkpt lat="47.05087" lon="-1.30988">
        <ele>43.564</ele>
        <time>2015-09-11T15:17:01.633Z</time>
      </trkpt>
      <trkpt lat="47.05082" lon="-1.3099">
        <ele>43.364</ele>
        <time>2015-09-11T15:17:02.477Z</time>
      </trkpt>
      <trkpt lat="47.05077" lon="-1.30993">
        <ele>43.266</ele>
        <time>2015-09-11T15:17:03.483Z</time>
      </trkpt>
      <trkpt lat="47.05072" lon="-1.30994">
        <ele>43.22</ele>
        <time>2015-09-11T15:17:04.449Z</time>
      </trkpt>
      <trkpt lat="47.05067" lon="-1.30996">
        <ele>43.133</ele>
        <time>2015-09-11T15:17:05.628Z</time>
      </trkpt>
      <trkpt lat="47.05062" lon="-1.30999">
        <ele>43.047</ele>
        <time>2015-09-11T15:17:06.477Z</time>
      </trkpt>
      <trkpt lat="47.05054" lon="-1.31001">
        <ele>43.016</ele>
        <time>2015-09-11T15:17:07.506Z</time>
      </trkpt>
      <trkpt lat="47.05048" lon="-1.31004">
        <ele>43.117</ele>
        <time>2015-09-11T15:17:08.472Z</time>
      </trkpt>
      <trkpt lat="47.0504" lon="-1.31009">
        <ele>43.222</ele>
        <time>2015-09-11T15:17:09.621Z</time>
      </trkpt>
      <trkpt lat="47.05035" lon="-1.31012">
        <ele>43.33</ele>
        <time>2015-09-11T15:17:10.479Z</time>
      </trkpt>
      <trkpt lat="47.05029" lon="-1.31014">
        <ele>43.466</ele>
        <time>2015-09-11T15:17:11.701Z</time>
      </trkpt>
      <trkpt lat="47.05024" lon="-1.31015">
        <ele>43.388</ele>
        <time>2015-09-11T15:17:12.478Z</time>
      </trkpt>
      <trkpt lat="47.05018" lon="-1.31016">
        <ele>43.267</ele>
        <time>2015-09-11T15:17:13.724Z</time>
      </trkpt>
      <trkpt lat="47.05012" lon="-1.31019">
        <ele>43.139</ele>
        <time>2015-09-11T15:17:14.481Z</time>
      </trkpt>
      <trkpt lat="47.05007" lon="-1.3102">
        <ele>43.071</ele>
        <time>2015-09-11T15:17:15.598Z</time>
      </trkpt>
      <trkpt lat="47.05002" lon="-1.31022">
        <ele>43.013</ele>
        <time>2015-09-11T15:17:16.486Z</time>
      </trkpt>
      <trkpt lat="47.04997" lon="-1.31024">
        <ele>42.895</ele>
        <time>2015-09-11T15:17:17.488Z</time>
      </trkpt>
      <trkpt lat="47.04991" lon="-1.31026">
        <ele>42.699</ele>
        <time>2015-09-11T15:17:18.45Z</time>
      </trkpt>
      <trkpt lat="47.04986" lon="-1.31027">
        <ele>42.5</ele>
        <time>2015-09-11T15:17:19.845Z</time>
      </trkpt>
      <trkpt lat="47.04981" lon="-1.31028">
        <ele>42.319</ele>
        <time>2015-09-11T15:17:20.449Z</time>
      </trkpt>
      <trkpt lat="47.04976" lon="-1.3103">
        <ele>42.14</ele>
        <time>2015-09-11T15:17:21.543Z</time>
      </trkpt>
      <trkpt lat="47.0497" lon="-1.31031">
        <ele>42</ele>
        <time>2015-09-11T15:17:22.471Z</time>
      </trkpt>
      <trkpt lat="47.0497" lon="-1.31031">
        <ele>42</ele>
        <time>2015-09-11T15:17:22.779Z</time>
      </trkpt>
      <trkpt lat="47.04956" lon="-1.31038">
        <ele>42</ele>
        <time>2015-09-11T15:17:23.524Z</time>
      </trkpt>
      <trkpt lat="47.0495" lon="-1.31038">
        <ele>42</ele>
        <time>2015-09-11T15:17:24.488Z</time>
      </trkpt>
      <trkpt lat="47.04946" lon="-1.31041">
        <ele>42</ele>
        <time>2015-09-11T15:17:25.448Z</time>
      </trkpt>
      <trkpt lat="47.0494" lon="-1.31041">
        <ele>42</ele>
        <time>2015-09-11T15:17:27.669Z</time>
      </trkpt>
      <trkpt lat="47.04936" lon="-1.31044">
        <ele>42</ele>
        <time>2015-09-11T15:17:28.48Z</time>
      </trkpt>
      <trkpt lat="47.04929" lon="-1.31044">
        <ele>42</ele>
        <time>2015-09-11T15:17:30.486Z</time>
      </trkpt>
      <trkpt lat="47.04919" lon="-1.31047">
        <ele>42</ele>
        <time>2015-09-11T15:17:31.492Z</time>
      </trkpt>
      <trkpt lat="47.04912" lon="-1.31051">
        <ele>41.871</ele>
        <time>2015-09-11T15:17:33.623Z</time>
      </trkpt>
      <trkpt lat="47.04909" lon="-1.31051">
        <ele>41.75</ele>
        <time>2015-09-11T15:17:34.479Z</time>
      </trkpt>
      <trkpt lat="47.049" lon="-1.31053">
        <ele>41.448</ele>
        <time>2015-09-11T15:17:36.626Z</time>
      </trkpt>
      <trkpt lat="47.04888" lon="-1.31055">
        <ele>41.058</ele>
        <time>2015-09-11T15:17:37.475Z</time>
      </trkpt>
      <trkpt lat="47.04881" lon="-1.31057">
        <ele>41.282</ele>
        <time>2015-09-11T15:17:38.605Z</time>
      </trkpt>
      <trkpt lat="47.04876" lon="-1.31058">
        <ele>41.428</ele>
        <time>2015-09-11T15:17:39.477Z</time>
      </trkpt>
      <trkpt lat="47.04869" lon="-1.3106">
        <ele>41.606</ele>
        <time>2015-09-11T15:17:41.078Z</time>
      </trkpt>
      <trkpt lat="47.04864" lon="-1.31062">
        <ele>41.68</ele>
        <time>2015-09-11T15:17:41.477Z</time>
      </trkpt>
      <trkpt lat="47.04859" lon="-1.31064">
        <ele>41.71</ele>
        <time>2015-09-11T15:17:42.659Z</time>
      </trkpt>
      <trkpt lat="47.04855" lon="-1.31066">
        <ele>41.638</ele>
        <time>2015-09-11T15:17:43.465Z</time>
      </trkpt>
      <trkpt lat="47.04848" lon="-1.31068">
        <ele>41.552</ele>
        <time>2015-09-11T15:17:44.5Z</time>
      </trkpt>
      <trkpt lat="47.04843" lon="-1.3107">
        <ele>41.498</ele>
        <time>2015-09-11T15:17:45.449Z</time>
      </trkpt>
      <trkpt lat="47.04837" lon="-1.31072">
        <ele>41.415</ele>
        <time>2015-09-11T15:17:46.622Z</time>
      </trkpt>
      <trkpt lat="47.04829" lon="-1.31076">
        <ele>41.271</ele>
        <time>2015-09-11T15:17:47.499Z</time>
      </trkpt>
      <trkpt lat="47.04824" lon="-1.31078">
        <ele>41.196</ele>
        <time>2015-09-11T15:17:48.486Z</time>
      </trkpt>
      <trkpt lat="47.04817" lon="-1.31084">
        <ele>41</ele>
        <time>2015-09-11T15:17:49.453Z</time>
      </trkpt>
      <trkpt lat="47.04812" lon="-1.31087">
        <ele>41</ele>
        <time>2015-09-11T15:17:50.673Z</time>
      </trkpt>
      <trkpt lat="47.04808" lon="-1.31089">
        <ele>41</ele>
        <time>2015-09-11T15:17:51.468Z</time>
      </trkpt>
      <trkpt lat="47.04803" lon="-1.3109">
        <ele>41.092</ele>
        <time>2015-09-11T15:17:52.488Z</time>
      </trkpt>
      <trkpt lat="47.04797" lon="-1.31091">
        <ele>41.301</ele>
        <time>2015-09-11T15:17:53.45Z</time>
      </trkpt>
      <trkpt lat="47.04793" lon="-1.31092">
        <ele>41.441</ele>
        <time>2015-09-11T15:17:54.655Z</time>
      </trkpt>
      <trkpt lat="47.04788" lon="-1.31096">
        <ele>41.632</ele>
        <time>2015-09-11T15:17:55.492Z</time>
      </trkpt>
      <trkpt lat="47.04783" lon="-1.31098">
        <ele>41.826</ele>
        <time>2015-09-11T15:17:56.483Z</time>
      </trkpt>
      <trkpt lat="47.04778" lon="-1.31098">
        <ele>41.978</ele>
        <time>2015-09-11T15:17:57.453Z</time>
      </trkpt>
      <trkpt lat="47.04774" lon="-1.31101">
        <ele>42.055</ele>
        <time>2015-09-11T15:17:58.614Z</time>
      </trkpt>
      <trkpt lat="47.04769" lon="-1.31102">
        <ele>42.102</ele>
        <time>2015-09-11T15:17:59.477Z</time>
      </trkpt>
      <trkpt lat="47.04764" lon="-1.31107">
        <ele>42.078</ele>
        <time>2015-09-11T15:18:00.484Z</time>
      </trkpt>
      <trkpt lat="47.0476" lon="-1.31109">
        <ele>42.04</ele>
        <time>2015-09-11T15:18:01.447Z</time>
      </trkpt>
      <trkpt lat="47.04753" lon="-1.3111">
        <ele>42.046</ele>
        <time>2015-09-11T15:18:02.677Z</time>
      </trkpt>
      <trkpt lat="47.04748" lon="-1.31112">
        <ele>41.957</ele>
        <time>2015-09-11T15:18:03.466Z</time>
      </trkpt>
      <trkpt lat="47.04743" lon="-1.31114">
        <ele>41.9</ele>
        <time>2015-09-11T15:18:04.532Z</time>
      </trkpt>
      <trkpt lat="47.04737" lon="-1.31116">
        <ele>41.81</ele>
        <time>2015-09-11T15:18:05.45Z</time>
      </trkpt>
      <trkpt lat="47.04732" lon="-1.31119">
        <ele>41.73</ele>
        <time>2015-09-11T15:18:06.632Z</time>
      </trkpt>
      <trkpt lat="47.04727" lon="-1.3112">
        <ele>41.666</ele>
        <time>2015-09-11T15:18:07.478Z</time>
      </trkpt>
      <trkpt lat="47.0472" lon="-1.31123">
        <ele>41.558</ele>
        <time>2015-09-11T15:18:09.484Z</time>
      </trkpt>
      <trkpt lat="47.04716" lon="-1.31124">
        <ele>41.54</ele>
        <time>2015-09-11T15:18:10.532Z</time>
      </trkpt>
      <trkpt lat="47.0471" lon="-1.31126">
        <ele>41.475</ele>
        <time>2015-09-11T15:18:11.488Z</time>
      </trkpt>
      <trkpt lat="47.04705" lon="-1.31128">
        <ele>41.385</ele>
        <time>2015-09-11T15:18:12.453Z</time>
      </trkpt>
      <trkpt lat="47.04698" lon="-1.31131">
        <ele>41.302</ele>
        <time>2015-09-11T15:18:13.584Z</time>
      </trkpt>
      <trkpt lat="47.04692" lon="-1.31133">
        <ele>41.216</ele>
        <time>2015-09-11T15:18:14.473Z</time>
      </trkpt>
      <trkpt lat="47.04688" lon="-1.31135">
        <ele>41.158</ele>
        <time>2015-09-11T15:18:15.487Z</time>
      </trkpt>
      <trkpt lat="47.04682" lon="-1.31138">
        <ele>41.028</ele>
        <time>2015-09-11T15:18:16.45Z</time>
      </trkpt>
      <trkpt lat="47.04674" lon="-1.31138">
        <ele>41.025</ele>
        <time>2015-09-11T15:18:18.604Z</time>
      </trkpt>
      <trkpt lat="47.04668" lon="-1.3114">
        <ele>40.956</ele>
        <time>2015-09-11T15:18:19.477Z</time>
      </trkpt>
      <trkpt lat="47.04662" lon="-1.31143">
        <ele>41.006</ele>
        <time>2015-09-11T15:18:20.601Z</time>
      </trkpt>
      <trkpt lat="47.04657" lon="-1.31144">
        <ele>41.157</ele>
        <time>2015-09-11T15:18:21.537Z</time>
      </trkpt>
      <trkpt lat="47.04651" lon="-1.31145">
        <ele>41.33</ele>
        <time>2015-09-11T15:18:22.627Z</time>
      </trkpt>
      <trkpt lat="47.04646" lon="-1.31146">
        <ele>41.477</ele>
        <time>2015-09-11T15:18:23.468Z</time>
      </trkpt>
      <trkpt lat="47.0464" lon="-1.31148">
        <ele>41.661</ele>
        <time>2015-09-11T15:18:25.03Z</time>
      </trkpt>
      <trkpt lat="47.04634" lon="-1.31148">
        <ele>41.837</ele>
        <time>2015-09-11T15:18:25.491Z</time>
      </trkpt>
      <trkpt lat="47.04629" lon="-1.3115">
        <ele>41.96</ele>
        <time>2015-09-11T15:18:26.681Z</time>
      </trkpt>
      <trkpt lat="47.04624" lon="-1.3115">
        <ele>42.129</ele>
        <time>2015-09-11T15:18:27.485Z</time>
      </trkpt>
      <trkpt lat="47.04619" lon="-1.31151">
        <ele>42.298</ele>
        <time>2015-09-11T15:18:28.615Z</time>
      </trkpt>
      <trkpt lat="47.04613" lon="-1.31151">
        <ele>42.474</ele>
        <time>2015-09-11T15:18:29.478Z</time>
      </trkpt>
      <trkpt lat="47.04608" lon="-1.31152">
        <ele>42.517</ele>
        <time>2015-09-11T15:18:30.489Z</time>
      </trkpt>
      <trkpt lat="47.04603" lon="-1.31152">
        <ele>42.514</ele>
        <time>2015-09-11T15:18:31.448Z</time>
      </trkpt>
      <trkpt lat="47.04597" lon="-1.31154">
        <ele>42.47</ele>
        <time>2015-09-11T15:18:32.632Z</time>
      </trkpt>
      <trkpt lat="47.04591" lon="-1.31155">
        <ele>42.434</ele>
        <time>2015-09-11T15:18:33.482Z</time>
      </trkpt>
      <trkpt lat="47.04586" lon="-1.31155">
        <ele>42.42</ele>
        <time>2015-09-11T15:18:34.613Z</time>
      </trkpt>
      <trkpt lat="47.04581" lon="-1.31155">
        <ele>42.416</ele>
        <time>2015-09-11T15:18:35.473Z</time>
      </trkpt>
      <trkpt lat="47.04575" lon="-1.31156">
        <ele>42.395</ele>
        <time>2015-09-11T15:18:36.49Z</time>
      </trkpt>
      <trkpt lat="47.04569" lon="-1.31157">
        <ele>42.359</ele>
        <time>2015-09-11T15:18:37.451Z</time>
      </trkpt>
      <trkpt lat="47.04564" lon="-1.31157">
        <ele>42.341</ele>
        <time>2015-09-11T15:18:38.61Z</time>
      </trkpt>
      <trkpt lat="47.04558" lon="-1.31158">
        <ele>42.319</ele>
        <time>2015-09-11T15:18:39.475Z</time>
      </trkpt>
      <trkpt lat="47.04552" lon="-1.31161">
        <ele>42.172</ele>
        <time>2015-09-11T15:18:40.489Z</time>
      </trkpt>
      <trkpt lat="47.04547" lon="-1.31162">
        <ele>42.112</ele>
        <time>2015-09-11T15:18:41.45Z</time>
      </trkpt>
      <trkpt lat="47.04541" lon="-1.31163">
        <ele>42.07</ele>
        <time>2015-09-11T15:18:42.668Z</time>
      </trkpt>
      <trkpt lat="47.04535" lon="-1.31163">
        <ele>42.037</ele>
        <time>2015-09-11T15:18:43.452Z</time>
      </trkpt>
      <trkpt lat="47.04529" lon="-1.31162">
        <ele>42.006</ele>
        <time>2015-09-11T15:18:44.485Z</time>
      </trkpt>
      <trkpt lat="47.04523" lon="-1.31163">
        <ele>42</ele>
        <time>2015-09-11T15:18:45.512Z</time>
      </trkpt>
      <trkpt lat="47.04518" lon="-1.31162">
        <ele>42</ele>
        <time>2015-09-11T15:18:46.654Z</time>
      </trkpt>
      <trkpt lat="47.04512" lon="-1.31163">
        <ele>42</ele>
        <time>2015-09-11T15:18:47.454Z</time>
      </trkpt>
      <trkpt lat="47.04506" lon="-1.31163">
        <ele>42</ele>
        <time>2015-09-11T15:18:48.488Z</time>
      </trkpt>
      <trkpt lat="47.045" lon="-1.31163">
        <ele>42</ele>
        <time>2015-09-11T15:18:49.484Z</time>
      </trkpt>
      <trkpt lat="47.04495" lon="-1.31164">
        <ele>42</ele>
        <time>2015-09-11T15:18:50.628Z</time>
      </trkpt>
      <trkpt lat="47.04489" lon="-1.31164">
        <ele>42</ele>
        <time>2015-09-11T15:18:51.488Z</time>
      </trkpt>
      <trkpt lat="47.04484" lon="-1.31164">
        <ele>42</ele>
        <time>2015-09-11T15:18:52.484Z</time>
      </trkpt>
      <trkpt lat="47.04478" lon="-1.31166">
        <ele>42</ele>
        <time>2015-09-11T15:18:53.463Z</time>
      </trkpt>
      <trkpt lat="47.04472" lon="-1.31167">
        <ele>42</ele>
        <time>2015-09-11T15:18:54.605Z</time>
      </trkpt>
      <trkpt lat="47.04467" lon="-1.3117">
        <ele>42.164</ele>
        <time>2015-09-11T15:18:55.481Z</time>
      </trkpt>
      <trkpt lat="47.04461" lon="-1.31173">
        <ele>42.327</ele>
        <time>2015-09-11T15:18:56.699Z</time>
      </trkpt>
      <trkpt lat="47.04455" lon="-1.31175">
        <ele>42.436</ele>
        <time>2015-09-11T15:18:57.485Z</time>
      </trkpt>
      <trkpt lat="47.04449" lon="-1.31178">
        <ele>42.495</ele>
        <time>2015-09-11T15:18:58.486Z</time>
      </trkpt>
      <trkpt lat="47.04443" lon="-1.3118">
        <ele>42.527</ele>
        <time>2015-09-11T15:18:59.454Z</time>
      </trkpt>
      <trkpt lat="47.04437" lon="-1.31182">
        <ele>42.437</ele>
        <time>2015-09-11T15:19:00.597Z</time>
      </trkpt>
      <trkpt lat="47.04431" lon="-1.31185">
        <ele>42.333</ele>
        <time>2015-09-11T15:19:01.482Z</time>
      </trkpt>
      <trkpt lat="47.04427" lon="-1.31187">
        <ele>42.264</ele>
        <time>2015-09-11T15:19:02.484Z</time>
      </trkpt>
      <trkpt lat="47.04421" lon="-1.3119">
        <ele>42.178</ele>
        <time>2015-09-11T15:19:03.448Z</time>
      </trkpt>
      <trkpt lat="47.04415" lon="-1.31192">
        <ele>42.094</ele>
        <time>2015-09-11T15:19:04.612Z</time>
      </trkpt>
      <trkpt lat="47.0441" lon="-1.31195">
        <ele>41.999</ele>
        <time>2015-09-11T15:19:05.483Z</time>
      </trkpt>
      <trkpt lat="47.04404" lon="-1.31199">
        <ele>41.929</ele>
        <time>2015-09-11T15:19:06.813Z</time>
      </trkpt>
      <trkpt lat="47.04398" lon="-1.31201">
        <ele>41.838</ele>
        <time>2015-09-11T15:19:07.449Z</time>
      </trkpt>
      <trkpt lat="47.04393" lon="-1.31204">
        <ele>41.722</ele>
        <time>2015-09-11T15:19:08.488Z</time>
      </trkpt>
      <trkpt lat="47.04388" lon="-1.31206">
        <ele>41.585</ele>
        <time>2015-09-11T15:19:09.468Z</time>
      </trkpt>
      <trkpt lat="47.04383" lon="-1.31209">
        <ele>41.594</ele>
        <time>2015-09-11T15:19:10.634Z</time>
      </trkpt>
      <trkpt lat="47.04378" lon="-1.31212">
        <ele>41.633</ele>
        <time>2015-09-11T15:19:11.476Z</time>
      </trkpt>
      <trkpt lat="47.04372" lon="-1.31213">
        <ele>41.729</ele>
        <time>2015-09-11T15:19:12.624Z</time>
      </trkpt>
      <trkpt lat="47.04367" lon="-1.31215">
        <ele>41.849</ele>
        <time>2015-09-11T15:19:13.487Z</time>
      </trkpt>
      <trkpt lat="47.04362" lon="-1.31217">
        <ele>41.977</ele>
        <time>2015-09-11T15:19:14.674Z</time>
      </trkpt>
      <trkpt lat="47.04357" lon="-1.31218">
        <ele>42</ele>
        <time>2015-09-11T15:19:15.481Z</time>
      </trkpt>
      <trkpt lat="47.04352" lon="-1.3122">
        <ele>42</ele>
        <time>2015-09-11T15:19:16.622Z</time>
      </trkpt>
      <trkpt lat="47.04346" lon="-1.31223">
        <ele>42</ele>
        <time>2015-09-11T15:19:17.493Z</time>
      </trkpt>
      <trkpt lat="47.04341" lon="-1.31224">
        <ele>42</ele>
        <time>2015-09-11T15:19:18.596Z</time>
      </trkpt>
      <trkpt lat="47.04336" lon="-1.31225">
        <ele>42</ele>
        <time>2015-09-11T15:19:19.475Z</time>
      </trkpt>
      <trkpt lat="47.04331" lon="-1.31226">
        <ele>42</ele>
        <time>2015-09-11T15:19:20.481Z</time>
      </trkpt>
      <trkpt lat="47.04326" lon="-1.31229">
        <ele>42</ele>
        <time>2015-09-11T15:19:21.451Z</time>
      </trkpt>
      <trkpt lat="47.0432" lon="-1.3123">
        <ele>42</ele>
        <time>2015-09-11T15:19:22.604Z</time>
      </trkpt>
      <trkpt lat="47.04315" lon="-1.31232">
        <ele>42</ele>
        <time>2015-09-11T15:19:23.512Z</time>
      </trkpt>
      <trkpt lat="47.04309" lon="-1.31233">
        <ele>42</ele>
        <time>2015-09-11T15:19:24.492Z</time>
      </trkpt>
      <trkpt lat="47.04303" lon="-1.31235">
        <ele>42.106</ele>
        <time>2015-09-11T15:19:25.448Z</time>
      </trkpt>
      <trkpt lat="47.04298" lon="-1.31236">
        <ele>42.276</ele>
        <time>2015-09-11T15:19:26.627Z</time>
      </trkpt>
      <trkpt lat="47.04293" lon="-1.31238">
        <ele>42.456</ele>
        <time>2015-09-11T15:19:27.478Z</time>
      </trkpt>
      <trkpt lat="47.04289" lon="-1.31238">
        <ele>42.614</ele>
        <time>2015-09-11T15:19:28.733Z</time>
      </trkpt>
      <trkpt lat="47.04283" lon="-1.31239">
        <ele>42.812</ele>
        <time>2015-09-11T15:19:29.451Z</time>
      </trkpt>
      <trkpt lat="47.04278" lon="-1.31241">
        <ele>42.992</ele>
        <time>2015-09-11T15:19:30.499Z</time>
      </trkpt>
      <trkpt lat="47.04273" lon="-1.31242">
        <ele>43.165</ele>
        <time>2015-09-11T15:19:31.971Z</time>
      </trkpt>
      <trkpt lat="47.04268" lon="-1.31245">
        <ele>43.37</ele>
        <time>2015-09-11T15:19:32.483Z</time>
      </trkpt>
      <trkpt lat="47.04263" lon="-1.31246">
        <ele>43.536</ele>
        <time>2015-09-11T15:19:33.454Z</time>
      </trkpt>
      <trkpt lat="47.04255" lon="-1.31248">
        <ele>43.827</ele>
        <time>2015-09-11T15:19:35.857Z</time>
      </trkpt>
      <trkpt lat="47.04251" lon="-1.31251">
        <ele>43.946</ele>
        <time>2015-09-11T15:19:36.448Z</time>
      </trkpt>
      <trkpt lat="47.04246" lon="-1.31251">
        <ele>43.953</ele>
        <time>2015-09-11T15:19:37.482Z</time>
      </trkpt>
      <trkpt lat="47.04241" lon="-1.31253">
        <ele>43.91</ele>
        <time>2015-09-11T15:19:38.463Z</time>
      </trkpt>
      <trkpt lat="47.04235" lon="-1.31255">
        <ele>43.806</ele>
        <time>2015-09-11T15:19:39.604Z</time>
      </trkpt>
      <trkpt lat="47.04231" lon="-1.31257">
        <ele>43.744</ele>
        <time>2015-09-11T15:19:40.476Z</time>
      </trkpt>
      <trkpt lat="47.04223" lon="-1.3126">
        <ele>43.658</ele>
        <time>2015-09-11T15:19:42.49Z</time>
      </trkpt>
      <trkpt lat="47.04218" lon="-1.31261">
        <ele>43.456</ele>
        <time>2015-09-11T15:19:43.448Z</time>
      </trkpt>
      <trkpt lat="47.04213" lon="-1.31262">
        <ele>43.225</ele>
        <time>2015-09-11T15:19:44.61Z</time>
      </trkpt>
      <trkpt lat="47.04208" lon="-1.31263">
        <ele>43.02</ele>
        <time>2015-09-11T15:19:45.472Z</time>
      </trkpt>
      <trkpt lat="47.042" lon="-1.31265">
        <ele>42.631</ele>
        <time>2015-09-11T15:19:47.489Z</time>
      </trkpt>
      <trkpt lat="47.04195" lon="-1.31266">
        <ele>42.426</ele>
        <time>2015-09-11T15:19:48.473Z</time>
      </trkpt>
      <trkpt lat="47.0419" lon="-1.31268">
        <ele>42.287</ele>
        <time>2015-09-11T15:19:49.607Z</time>
      </trkpt>
      <trkpt lat="47.04185" lon="-1.31269">
        <ele>42.216</ele>
        <time>2015-09-11T15:19:50.49Z</time>
      </trkpt>
      <trkpt lat="47.0418" lon="-1.31271">
        <ele>42.126</ele>
        <time>2015-09-11T15:19:51.488Z</time>
      </trkpt>
      <trkpt lat="47.04176" lon="-1.31272">
        <ele>42.072</ele>
        <time>2015-09-11T15:19:52.448Z</time>
      </trkpt>
      <trkpt lat="47.04172" lon="-1.31273">
        <ele>42.033</ele>
        <time>2015-09-11T15:19:53.572Z</time>
      </trkpt>
      <trkpt lat="47.04167" lon="-1.31276">
        <ele>42</ele>
        <time>2015-09-11T15:19:54.478Z</time>
      </trkpt>
      <trkpt lat="47.0416" lon="-1.31275">
        <ele>42</ele>
        <time>2015-09-11T15:19:56.713Z</time>
      </trkpt>
      <trkpt lat="47.04155" lon="-1.31277">
        <ele>42</ele>
        <time>2015-09-11T15:19:57.449Z</time>
      </trkpt>
      <trkpt lat="47.04149" lon="-1.31278">
        <ele>42</ele>
        <time>2015-09-11T15:19:58.492Z</time>
      </trkpt>
      <trkpt lat="47.04145" lon="-1.31279">
        <ele>42</ele>
        <time>2015-09-11T15:19:59.473Z</time>
      </trkpt>
      <trkpt lat="47.04136" lon="-1.31283">
        <ele>42.077</ele>
        <time>2015-09-11T15:20:01.676Z</time>
      </trkpt>
      <trkpt lat="47.04132" lon="-1.31286">
        <ele>42.173</ele>
        <time>2015-09-11T15:20:02.476Z</time>
      </trkpt>
      <trkpt lat="47.04124" lon="-1.31289">
        <ele>42.326</ele>
        <time>2015-09-11T15:20:04.485Z</time>
      </trkpt>
      <trkpt lat="47.0412" lon="-1.31289">
        <ele>42.392</ele>
        <time>2015-09-11T15:20:05.464Z</time>
      </trkpt>
      <trkpt lat="47.04115" lon="-1.31289">
        <ele>42.498</ele>
        <time>2015-09-11T15:20:06.528Z</time>
      </trkpt>
      <trkpt lat="47.04111" lon="-1.31288">
        <ele>42.632</ele>
        <time>2015-09-11T15:20:07.454Z</time>
      </trkpt>
      <trkpt lat="47.04107" lon="-1.31282">
        <ele>42.855</ele>
        <time>2015-09-11T15:20:08.601Z</time>
      </trkpt>
      <trkpt lat="47.04104" lon="-1.31275">
        <ele>43.022</ele>
        <time>2015-09-11T15:20:09.48Z</time>
      </trkpt>
      <trkpt lat="47.04102" lon="-1.31269">
        <ele>43.102</ele>
        <time>2015-09-11T15:20:10.621Z</time>
      </trkpt>
      <trkpt lat="47.041" lon="-1.31262">
        <ele>43.218</ele>
        <time>2015-09-11T15:20:11.473Z</time>
      </trkpt>
      <trkpt lat="47.04099" lon="-1.31255">
        <ele>43.363</ele>
        <time>2015-09-11T15:20:12.626Z</time>
      </trkpt>
      <trkpt lat="47.04097" lon="-1.31249">
        <ele>43.524</ele>
        <time>2015-09-11T15:20:13.469Z</time>
      </trkpt>
      <trkpt lat="47.04094" lon="-1.31237">
        <ele>43.907</ele>
        <time>2015-09-11T15:20:15.488Z</time>
      </trkpt>
      <trkpt lat="47.04092" lon="-1.3123">
        <ele>44.186</ele>
        <time>2015-09-11T15:20:16.479Z</time>
      </trkpt>
      <trkpt lat="47.0409" lon="-1.31225">
        <ele>44.441</ele>
        <time>2015-09-11T15:20:17.627Z</time>
      </trkpt>
      <trkpt lat="47.04089" lon="-1.31217">
        <ele>44.628</ele>
        <time>2015-09-11T15:20:18.552Z</time>
      </trkpt>
      <trkpt lat="47.04087" lon="-1.3121">
        <ele>44.722</ele>
        <time>2015-09-11T15:20:19.609Z</time>
      </trkpt>
      <trkpt lat="47.04085" lon="-1.31203">
        <ele>44.902</ele>
        <time>2015-09-11T15:20:20.477Z</time>
      </trkpt>
      <trkpt lat="47.04083" lon="-1.31197">
        <ele>45</ele>
        <time>2015-09-11T15:20:21.627Z</time>
      </trkpt>
      <trkpt lat="47.04082" lon="-1.31189">
        <ele>44.829</ele>
        <time>2015-09-11T15:20:22.478Z</time>
      </trkpt>
      <trkpt lat="47.0408" lon="-1.31182">
        <ele>44.598</ele>
        <time>2015-09-11T15:20:23.623Z</time>
      </trkpt>
      <trkpt lat="47.04078" lon="-1.31174">
        <ele>44.422</ele>
        <time>2015-09-11T15:20:24.478Z</time>
      </trkpt>
      <trkpt lat="47.04076" lon="-1.31168">
        <ele>44.286</ele>
        <time>2015-09-11T15:20:25.486Z</time>
      </trkpt>
      <trkpt lat="47.04074" lon="-1.31161">
        <ele>44.267</ele>
        <time>2015-09-11T15:20:26.452Z</time>
      </trkpt>
      <trkpt lat="47.04072" lon="-1.31154">
        <ele>44.218</ele>
        <time>2015-09-11T15:20:27.642Z</time>
      </trkpt>
      <trkpt lat="47.04071" lon="-1.31146">
        <ele>44.117</ele>
        <time>2015-09-11T15:20:28.453Z</time>
      </trkpt>
      <trkpt lat="47.0407" lon="-1.31138">
        <ele>43.986</ele>
        <time>2015-09-11T15:20:29.483Z</time>
      </trkpt>
      <trkpt lat="47.04069" lon="-1.3113">
        <ele>43.849</ele>
        <time>2015-09-11T15:20:30.483Z</time>
      </trkpt>
      <trkpt lat="47.04068" lon="-1.31122">
        <ele>43.735</ele>
        <time>2015-09-11T15:20:31.485Z</time>
      </trkpt>
      <trkpt lat="47.04067" lon="-1.31115">
        <ele>43.644</ele>
        <time>2015-09-11T15:20:32.449Z</time>
      </trkpt>
      <trkpt lat="47.04066" lon="-1.31107">
        <ele>43.61</ele>
        <time>2015-09-11T15:20:33.605Z</time>
      </trkpt>
      <trkpt lat="47.04066" lon="-1.311">
        <ele>43.631</ele>
        <time>2015-09-11T15:20:34.473Z</time>
      </trkpt>
      <trkpt lat="47.04065" lon="-1.31091">
        <ele>43.674</ele>
        <time>2015-09-11T15:20:35.536Z</time>
      </trkpt>
      <trkpt lat="47.04063" lon="-1.31084">
        <ele>43.725</ele>
        <time>2015-09-11T15:20:36.448Z</time>
      </trkpt>
      <trkpt lat="47.04063" lon="-1.31075">
        <ele>43.82</ele>
        <time>2015-09-11T15:20:37.646Z</time>
      </trkpt>
      <trkpt lat="47.04063" lon="-1.31069">
        <ele>43.881</ele>
        <time>2015-09-11T15:20:38.521Z</time>
      </trkpt>
      <trkpt lat="47.04062" lon="-1.31061">
        <ele>43.955</ele>
        <time>2015-09-11T15:20:39.604Z</time>
      </trkpt>
      <trkpt lat="47.04061" lon="-1.31054">
        <ele>44.048</ele>
        <time>2015-09-11T15:20:40.479Z</time>
      </trkpt>
      <trkpt lat="47.0406" lon="-1.31041">
        <ele>44.439</ele>
        <time>2015-09-11T15:20:42.624Z</time>
      </trkpt>
      <trkpt lat="47.0406" lon="-1.31034">
        <ele>44.666</ele>
        <time>2015-09-11T15:20:43.467Z</time>
      </trkpt>
      <trkpt lat="47.04059" lon="-1.31027">
        <ele>44.933</ele>
        <time>2015-09-11T15:20:44.608Z</time>
      </trkpt>
      <trkpt lat="47.04058" lon="-1.31019">
        <ele>45.25</ele>
        <time>2015-09-11T15:20:45.476Z</time>
      </trkpt>
      <trkpt lat="47.04056" lon="-1.31012">
        <ele>45.527</ele>
        <time>2015-09-11T15:20:46.636Z</time>
      </trkpt>
      <trkpt lat="47.04055" lon="-1.31005">
        <ele>45.806</ele>
        <time>2015-09-11T15:20:47.479Z</time>
      </trkpt>
      <trkpt lat="47.04054" lon="-1.30998">
        <ele>46</ele>
        <time>2015-09-11T15:20:48.494Z</time>
      </trkpt>
      <trkpt lat="47.0405" lon="-1.30993">
        <ele>46</ele>
        <time>2015-09-11T15:20:49.451Z</time>
      </trkpt>
      <trkpt lat="47.04045" lon="-1.30991">
        <ele>46</ele>
        <time>2015-09-11T15:20:50.642Z</time>
      </trkpt>
      <trkpt lat="47.04039" lon="-1.30988">
        <ele>46</ele>
        <time>2015-09-11T15:20:51.485Z</time>
      </trkpt>
      <trkpt lat="47.04035" lon="-1.30986">
        <ele>46</ele>
        <time>2015-09-11T15:20:52.483Z</time>
      </trkpt>
      <trkpt lat="47.04031" lon="-1.30983">
        <ele>46</ele>
        <time>2015-09-11T15:20:53.455Z</time>
      </trkpt>
      <trkpt lat="47.04026" lon="-1.30982">
        <ele>45.864</ele>
        <time>2015-09-11T15:20:54.726Z</time>
      </trkpt>
      <trkpt lat="47.0402" lon="-1.3098">
        <ele>45.537</ele>
        <time>2015-09-11T15:20:55.476Z</time>
      </trkpt>
      <trkpt lat="47.04013" lon="-1.30975">
        <ele>44.97</ele>
        <time>2015-09-11T15:20:58.07Z</time>
      </trkpt>
      <trkpt lat="47.04007" lon="-1.30975">
        <ele>44.573</ele>
        <time>2015-09-11T15:20:58.554Z</time>
      </trkpt>
      <trkpt lat="47.04" lon="-1.30969">
        <ele>44</ele>
        <time>2015-09-11T15:21:00.654Z</time>
      </trkpt>
      <trkpt lat="47.03995" lon="-1.30967">
        <ele>44</ele>
        <time>2015-09-11T15:21:01.466Z</time>
      </trkpt>
      <trkpt lat="47.0399" lon="-1.30965">
        <ele>44</ele>
        <time>2015-09-11T15:21:02.657Z</time>
      </trkpt>
      <trkpt lat="47.03985" lon="-1.30964">
        <ele>44</ele>
        <time>2015-09-11T15:21:03.45Z</time>
      </trkpt>
      <trkpt lat="47.03976" lon="-1.30962">
        <ele>44</ele>
        <time>2015-09-11T15:21:05.641Z</time>
      </trkpt>
      <trkpt lat="47.03972" lon="-1.3096">
        <ele>44.001</ele>
        <time>2015-09-11T15:21:06.478Z</time>
      </trkpt>
      <trkpt lat="47.03966" lon="-1.30958">
        <ele>44.213</ele>
        <time>2015-09-11T15:21:07.727Z</time>
      </trkpt>
      <trkpt lat="47.03961" lon="-1.30955">
        <ele>44.393</ele>
        <time>2015-09-11T15:21:08.493Z</time>
      </trkpt>
      <trkpt lat="47.03953" lon="-1.30951">
        <ele>44.681</ele>
        <time>2015-09-11T15:21:10.504Z</time>
      </trkpt>
      <trkpt lat="47.03948" lon="-1.30951">
        <ele>44.872</ele>
        <time>2015-09-11T15:21:11.485Z</time>
      </trkpt>
      <trkpt lat="47.03943" lon="-1.30949">
        <ele>45.038</ele>
        <time>2015-09-11T15:21:12.488Z</time>
      </trkpt>
      <trkpt lat="47.03938" lon="-1.30947">
        <ele>45.2</ele>
        <time>2015-09-11T15:21:13.449Z</time>
      </trkpt>
      <trkpt lat="47.03934" lon="-1.30946">
        <ele>45.372</ele>
        <time>2015-09-11T15:21:14.598Z</time>
      </trkpt>
      <trkpt lat="47.03928" lon="-1.30945">
        <ele>45.574</ele>
        <time>2015-09-11T15:21:15.477Z</time>
      </trkpt>
      <trkpt lat="47.03923" lon="-1.30944">
        <ele>45.781</ele>
        <time>2015-09-11T15:21:16.626Z</time>
      </trkpt>
      <trkpt lat="47.03918" lon="-1.30943">
        <ele>45.948</ele>
        <time>2015-09-11T15:21:17.471Z</time>
      </trkpt>
      <trkpt lat="47.03913" lon="-1.30942">
        <ele>45.888</ele>
        <time>2015-09-11T15:21:18.488Z</time>
      </trkpt>
      <trkpt lat="47.03909" lon="-1.30941">
        <ele>45.757</ele>
        <time>2015-09-11T15:21:19.45Z</time>
      </trkpt>
      <trkpt lat="47.03904" lon="-1.3094">
        <ele>45.62</ele>
        <time>2015-09-11T15:21:21.003Z</time>
      </trkpt>
      <trkpt lat="47.039" lon="-1.3094">
        <ele>45.488</ele>
        <time>2015-09-11T15:21:21.448Z</time>
      </trkpt>
      <trkpt lat="47.03895" lon="-1.3094">
        <ele>45.321</ele>
        <time>2015-09-11T15:21:22.482Z</time>
      </trkpt>
      <trkpt lat="47.0389" lon="-1.3094">
        <ele>45.21</ele>
        <time>2015-09-11T15:21:23.471Z</time>
      </trkpt>
      <trkpt lat="47.03884" lon="-1.30939">
        <ele>45.2</ele>
        <time>2015-09-11T15:21:25.653Z</time>
      </trkpt>
      <trkpt lat="47.03873" lon="-1.30941">
        <ele>45.131</ele>
        <time>2015-09-11T15:21:26.479Z</time>
      </trkpt>
      <trkpt lat="47.03868" lon="-1.30939">
        <ele>45.196</ele>
        <time>2015-09-11T15:21:27.493Z</time>
      </trkpt>
      <trkpt lat="47.03863" lon="-1.30939">
        <ele>45.189</ele>
        <time>2015-09-11T15:21:28.454Z</time>
      </trkpt>
      <trkpt lat="47.03858" lon="-1.3094">
        <ele>45.155</ele>
        <time>2015-09-11T15:21:29.598Z</time>
      </trkpt>
      <trkpt lat="47.03853" lon="-1.30939">
        <ele>45.138</ele>
        <time>2015-09-11T15:21:30.474Z</time>
      </trkpt>
      <trkpt lat="47.03849" lon="-1.30939">
        <ele>45.114</ele>
        <time>2015-09-11T15:21:31.703Z</time>
      </trkpt>
      <trkpt lat="47.03843" lon="-1.30939">
        <ele>45.075</ele>
        <time>2015-09-11T15:21:32.454Z</time>
      </trkpt>
      <trkpt lat="47.03838" lon="-1.30937">
        <ele>45.043</ele>
        <time>2015-09-11T15:21:33.496Z</time>
      </trkpt>
      <trkpt lat="47.03833" lon="-1.30936">
        <ele>44.981</ele>
        <time>2015-09-11T15:21:34.477Z</time>
      </trkpt>
      <trkpt lat="47.03829" lon="-1.30937">
        <ele>44.883</ele>
        <time>2015-09-11T15:21:35.819Z</time>
      </trkpt>
      <trkpt lat="47.03823" lon="-1.30936">
        <ele>44.747</ele>
        <time>2015-09-11T15:21:36.466Z</time>
      </trkpt>
      <trkpt lat="47.03814" lon="-1.30935">
        <ele>44.558</ele>
        <time>2015-09-11T15:21:38.484Z</time>
      </trkpt>
      <trkpt lat="47.0381" lon="-1.30934">
        <ele>44.491</ele>
        <time>2015-09-11T15:21:39.448Z</time>
      </trkpt>
      <trkpt lat="47.03802" lon="-1.30931">
        <ele>44.413</ele>
        <time>2015-09-11T15:21:41.597Z</time>
      </trkpt>
      <trkpt lat="47.03797" lon="-1.30931">
        <ele>44.338</ele>
        <time>2015-09-11T15:21:42.477Z</time>
      </trkpt>
      <trkpt lat="47.03788" lon="-1.3093">
        <ele>44.184</ele>
        <time>2015-09-11T15:21:44.482Z</time>
      </trkpt>
      <trkpt lat="47.03782" lon="-1.30929">
        <ele>44.088</ele>
        <time>2015-09-11T15:21:45.47Z</time>
      </trkpt>
      <trkpt lat="47.03777" lon="-1.30928">
        <ele>43.986</ele>
        <time>2015-09-11T15:21:46.489Z</time>
      </trkpt>
      <trkpt lat="47.03772" lon="-1.30928">
        <ele>43.803</ele>
        <time>2015-09-11T15:21:47.449Z</time>
      </trkpt>
      <trkpt lat="47.03767" lon="-1.30927">
        <ele>43.626</ele>
        <time>2015-09-11T15:21:48.619Z</time>
      </trkpt>
      <trkpt lat="47.03762" lon="-1.30927">
        <ele>43.421</ele>
        <time>2015-09-11T15:21:49.478Z</time>
      </trkpt>
      <trkpt lat="47.03753" lon="-1.30925">
        <ele>43.101</ele>
        <time>2015-09-11T15:21:51.486Z</time>
      </trkpt>
      <trkpt lat="47.03748" lon="-1.30924">
        <ele>43</ele>
        <time>2015-09-11T15:21:52.484Z</time>
      </trkpt>
      <trkpt lat="47.03743" lon="-1.30924">
        <ele>43</ele>
        <time>2015-09-11T15:21:53.607Z</time>
      </trkpt>
      <trkpt lat="47.03738" lon="-1.30923">
        <ele>43</ele>
        <time>2015-09-11T15:21:54.454Z</time>
      </trkpt>
      <trkpt lat="47.0373" lon="-1.30921">
        <ele>43</ele>
        <time>2015-09-11T15:21:56.677Z</time>
      </trkpt>
      <trkpt lat="47.03726" lon="-1.30917">
        <ele>43</ele>
        <time>2015-09-11T15:21:57.546Z</time>
      </trkpt>
      <trkpt lat="47.03721" lon="-1.30915">
        <ele>43</ele>
        <time>2015-09-11T15:21:58.482Z</time>
      </trkpt>
      <trkpt lat="47.03718" lon="-1.3091">
        <ele>43</ele>
        <time>2015-09-11T15:21:59.453Z</time>
      </trkpt>
      <trkpt lat="47.03716" lon="-1.30904">
        <ele>43</ele>
        <time>2015-09-11T15:22:00.667Z</time>
      </trkpt>
      <trkpt lat="47.03714" lon="-1.30897">
        <ele>43</ele>
        <time>2015-09-11T15:22:01.479Z</time>
      </trkpt>
      <trkpt lat="47.03714" lon="-1.30891">
        <ele>43</ele>
        <time>2015-09-11T15:22:02.486Z</time>
      </trkpt>
      <trkpt lat="47.03714" lon="-1.30884">
        <ele>43.31</ele>
        <time>2015-09-11T15:22:03.449Z</time>
      </trkpt>
      <trkpt lat="47.03713" lon="-1.30877">
        <ele>43.729</ele>
        <time>2015-09-11T15:22:04.602Z</time>
      </trkpt>
      <trkpt lat="47.03714" lon="-1.30866">
        <ele>44.398</ele>
        <time>2015-09-11T15:22:05.485Z</time>
      </trkpt>
      <trkpt lat="47.03716" lon="-1.30854">
        <ele>45.096</ele>
        <time>2015-09-11T15:22:07.485Z</time>
      </trkpt>
      <trkpt lat="47.03716" lon="-1.30846">
        <ele>45.433</ele>
        <time>2015-09-11T15:22:08.535Z</time>
      </trkpt>
      <trkpt lat="47.03717" lon="-1.30838">
        <ele>45.784</ele>
        <time>2015-09-11T15:22:09.656Z</time>
      </trkpt>
      <trkpt lat="47.03716" lon="-1.30831">
        <ele>46</ele>
        <time>2015-09-11T15:22:10.482Z</time>
      </trkpt>
      <trkpt lat="47.03715" lon="-1.30824">
        <ele>46</ele>
        <time>2015-09-11T15:22:11.623Z</time>
      </trkpt>
      <trkpt lat="47.03715" lon="-1.30815">
        <ele>46</ele>
        <time>2015-09-11T15:22:12.479Z</time>
      </trkpt>
      <trkpt lat="47.03716" lon="-1.30807">
        <ele>46</ele>
        <time>2015-09-11T15:22:13.809Z</time>
      </trkpt>
      <trkpt lat="47.03717" lon="-1.308">
        <ele>46</ele>
        <time>2015-09-11T15:22:14.448Z</time>
      </trkpt>
      <trkpt lat="47.03716" lon="-1.30793">
        <ele>46</ele>
        <time>2015-09-11T15:22:15.611Z</time>
      </trkpt>
      <trkpt lat="47.03715" lon="-1.30785">
        <ele>46</ele>
        <time>2015-09-11T15:22:16.477Z</time>
      </trkpt>
      <trkpt lat="47.03712" lon="-1.30778">
        <ele>46</ele>
        <time>2015-09-11T15:22:17.667Z</time>
      </trkpt>
      <trkpt lat="47.0371" lon="-1.30771">
        <ele>45.897</ele>
        <time>2015-09-11T15:22:18.48Z</time>
      </trkpt>
      <trkpt lat="47.03708" lon="-1.30765">
        <ele>45.766</ele>
        <time>2015-09-11T15:22:19.643Z</time>
      </trkpt>
      <trkpt lat="47.03705" lon="-1.30758">
        <ele>45.578</ele>
        <time>2015-09-11T15:22:20.487Z</time>
      </trkpt>
      <trkpt lat="47.03702" lon="-1.30753">
        <ele>45.345</ele>
        <time>2015-09-11T15:22:21.485Z</time>
      </trkpt>
      <trkpt lat="47.037" lon="-1.30748">
        <ele>45.263</ele>
        <time>2015-09-11T15:22:22.458Z</time>
      </trkpt>
      <trkpt lat="47.03697" lon="-1.30741">
        <ele>45.384</ele>
        <time>2015-09-11T15:22:23.624Z</time>
      </trkpt>
      <trkpt lat="47.03692" lon="-1.30735">
        <ele>45.488</ele>
        <time>2015-09-11T15:22:24.477Z</time>
      </trkpt>
      <trkpt lat="47.03689" lon="-1.3073">
        <ele>45.569</ele>
        <time>2015-09-11T15:22:25.619Z</time>
      </trkpt>
      <trkpt lat="47.03684" lon="-1.30725">
        <ele>45.56</ele>
        <time>2015-09-11T15:22:26.478Z</time>
      </trkpt>
      <trkpt lat="47.0368" lon="-1.30721">
        <ele>45.487</ele>
        <time>2015-09-11T15:22:27.486Z</time>
      </trkpt>
      <trkpt lat="47.03676" lon="-1.30716">
        <ele>45.34</ele>
        <time>2015-09-11T15:22:28.448Z</time>
      </trkpt>
      <trkpt lat="47.03672" lon="-1.30714">
        <ele>45.181</ele>
        <time>2015-09-11T15:22:29.666Z</time>
      </trkpt>
      <trkpt lat="47.03667" lon="-1.30712">
        <ele>45.012</ele>
        <time>2015-09-11T15:22:30.483Z</time>
      </trkpt>
      <trkpt lat="47.03663" lon="-1.30708">
        <ele>45</ele>
        <time>2015-09-11T15:22:31.484Z</time>
      </trkpt>
      <trkpt lat="47.0366" lon="-1.30702">
        <ele>45</ele>
        <time>2015-09-11T15:22:32.454Z</time>
      </trkpt>
      <trkpt lat="47.03656" lon="-1.30697">
        <ele>45</ele>
        <time>2015-09-11T15:22:33.622Z</time>
      </trkpt>
      <trkpt lat="47.03652" lon="-1.30692">
        <ele>45.04</ele>
        <time>2015-09-11T15:22:34.48Z</time>
      </trkpt>
      <trkpt lat="47.03648" lon="-1.30688">
        <ele>45.077</ele>
        <time>2015-09-11T15:22:35.519Z</time>
      </trkpt>
      <trkpt lat="47.03644" lon="-1.30681">
        <ele>45.079</ele>
        <time>2015-09-11T15:22:36.453Z</time>
      </trkpt>
      <trkpt lat="47.03639" lon="-1.30677">
        <ele>45.007</ele>
        <time>2015-09-11T15:22:37.62Z</time>
      </trkpt>
      <trkpt lat="47.03636" lon="-1.30672">
        <ele>45.104</ele>
        <time>2015-09-11T15:22:38.481Z</time>
      </trkpt>
      <trkpt lat="47.03632" lon="-1.30667">
        <ele>45.237</ele>
        <time>2015-09-11T15:22:39.606Z</time>
      </trkpt>
      <trkpt lat="47.03629" lon="-1.30663">
        <ele>45.313</ele>
        <time>2015-09-11T15:22:40.476Z</time>
      </trkpt>
      <trkpt lat="47.03626" lon="-1.3066">
        <ele>45.35</ele>
        <time>2015-09-11T15:22:41.614Z</time>
      </trkpt>
      <trkpt lat="47.03623" lon="-1.30652">
        <ele>45.287</ele>
        <time>2015-09-11T15:22:42.476Z</time>
      </trkpt>
      <trkpt lat="47.03618" lon="-1.30647">
        <ele>45.211</ele>
        <time>2015-09-11T15:22:43.622Z</time>
      </trkpt>
      <trkpt lat="47.03614" lon="-1.30639">
        <ele>45.007</ele>
        <time>2015-09-11T15:22:44.473Z</time>
      </trkpt>
      <trkpt lat="47.03611" lon="-1.30632">
        <ele>44.734</ele>
        <time>2015-09-11T15:22:45.662Z</time>
      </trkpt>
      <trkpt lat="47.03607" lon="-1.30625">
        <ele>44.352</ele>
        <time>2015-09-11T15:22:46.47Z</time>
      </trkpt>
      <trkpt lat="47.03604" lon="-1.30618">
        <ele>43.97</ele>
        <time>2015-09-11T15:22:48.112Z</time>
      </trkpt>
      <trkpt lat="47.036" lon="-1.30611">
        <ele>43.596</ele>
        <time>2015-09-11T15:22:48.452Z</time>
      </trkpt>
      <trkpt lat="47.03597" lon="-1.30603">
        <ele>43.36</ele>
        <time>2015-09-11T15:22:49.484Z</time>
      </trkpt>
      <trkpt lat="47.03594" lon="-1.30593">
        <ele>42.997</ele>
        <time>2015-09-11T15:22:50.457Z</time>
      </trkpt>
      <trkpt lat="47.03592" lon="-1.30585">
        <ele>42.63</ele>
        <time>2015-09-11T15:22:51.482Z</time>
      </trkpt>
      <trkpt lat="47.03589" lon="-1.30573">
        <ele>42.386</ele>
        <time>2015-09-11T15:22:52.455Z</time>
      </trkpt>
      <trkpt lat="47.0359" lon="-1.30564">
        <ele>42.444</ele>
        <time>2015-09-11T15:22:53.628Z</time>
      </trkpt>
      <trkpt lat="47.03592" lon="-1.30558">
        <ele>42.638</ele>
        <time>2015-09-11T15:22:54.478Z</time>
      </trkpt>
      <trkpt lat="47.03596" lon="-1.30553">
        <ele>42.89</ele>
        <time>2015-09-11T15:22:55.609Z</time>
      </trkpt>
      <trkpt lat="47.03598" lon="-1.30546">
        <ele>43.042</ele>
        <time>2015-09-11T15:22:56.469Z</time>
      </trkpt>
      <trkpt lat="47.03598" lon="-1.30539">
        <ele>43.063</ele>
        <time>2015-09-11T15:22:57.482Z</time>
      </trkpt>
      <trkpt lat="47.03596" lon="-1.30531">
        <ele>42.919</ele>
        <time>2015-09-11T15:22:58.448Z</time>
      </trkpt>
      <trkpt lat="47.03595" lon="-1.30524">
        <ele>42.892</ele>
        <time>2015-09-11T15:22:59.719Z</time>
      </trkpt>
      <trkpt lat="47.03593" lon="-1.30517">
        <ele>42.965</ele>
        <time>2015-09-11T15:23:00.472Z</time>
      </trkpt>
      <trkpt lat="47.03593" lon="-1.30506">
        <ele>43.227</ele>
        <time>2015-09-11T15:23:02.639Z</time>
      </trkpt>
      <trkpt lat="47.03594" lon="-1.30502">
        <ele>43.346</ele>
        <time>2015-09-11T15:23:03.476Z</time>
      </trkpt>
      <trkpt lat="47.03598" lon="-1.30492">
        <ele>43.653</ele>
        <time>2015-09-11T15:23:06.67Z</time>
      </trkpt>
      <trkpt lat="47.036" lon="-1.3049">
        <ele>43.731</ele>
        <time>2015-09-11T15:23:07.472Z</time>
      </trkpt>
      <trkpt lat="47.03604" lon="-1.30489">
        <ele>43.842</ele>
        <time>2015-09-11T15:23:39.798Z</time>
      </trkpt>
    </trkseg>
  </trk>
</gpx>